<?xml version='1.0' encoding='UTF-8'?><gpx version="1.1" creator="JPX - https://github.com/jenetics/jpx" xmlns="http://www.topografix.com/GPX/1/1"><trk><trkseg><trkpt lat="43.6548114" lon="11.1831584"><ele>293.0</ele><time>2026-04-18T07:00:19.228Z</time></trkpt><trkpt lat="43.6547523" lon="11.1831045"><ele>293.0</ele><time>2026-04-18T07:04:14.228Z</time></trkpt><trkpt lat="43.6546796" lon="11.1830869"><ele>293.0</ele><time>2026-04-18T07:04:16.228Z</time></trkpt><trkpt lat="43.6545943" lon="11.1830783"><ele>293.0</ele><time>2026-04-18T07:04:18.228Z</time></trkpt><trkpt lat="43.6545006" lon="11.1830641"><ele>293.0</ele><time>2026-04-18T07:04:20.228Z</time></trkpt><trkpt lat="43.654408" lon="11.1830539"><ele>293.0</ele><time>2026-04-18T07:04:22.227Z</time></trkpt><trkpt lat="43.654333" lon="11.1830887"><ele>294.6666666666667</ele><time>2026-04-18T07:04:24.227Z</time></trkpt><trkpt lat="43.6543042" lon="11.1831931"><ele>296.33333333333337</ele><time>2026-04-18T07:04:26.228Z</time></trkpt><trkpt lat="43.6542795" lon="11.1833111"><ele>298.0</ele><time>2026-04-18T07:04:28.227Z</time></trkpt><trkpt lat="43.6542308" lon="11.1833834"><ele>299.6666666666667</ele><time>2026-04-18T07:04:30.227Z</time></trkpt><trkpt lat="43.6541637" lon="11.183409"><ele>301.3333333333333</ele><time>2026-04-18T07:04:32.228Z</time></trkpt><trkpt lat="43.6541682" lon="11.1835161"><ele>303.0</ele><time>2026-04-18T07:04:35.228Z</time></trkpt><trkpt lat="43.6542336" lon="11.183581"><ele>303.0</ele><time>2026-04-18T07:04:38.228Z</time></trkpt><trkpt lat="43.6541682" lon="11.1836312"><ele>303.0</ele><time>2026-04-18T07:04:40.228Z</time></trkpt><trkpt lat="43.6540686" lon="11.183619"><ele>303.0</ele><time>2026-04-18T07:04:42.227Z</time></trkpt><trkpt lat="43.6539401" lon="11.1835968"><ele>303.0</ele><time>2026-04-18T07:04:44.229Z</time></trkpt><trkpt lat="43.6538687" lon="11.183585"><ele>303.0</ele><time>2026-04-18T07:04:45.228Z</time></trkpt><trkpt lat="43.6537947" lon="11.1835679"><ele>303.0</ele><time>2026-04-18T07:04:46.227Z</time></trkpt><trkpt lat="43.6537183" lon="11.1835577"><ele>303.0</ele><time>2026-04-18T07:04:47.229Z</time></trkpt><trkpt lat="43.6536356" lon="11.1835447"><ele>303.0</ele><time>2026-04-18T07:04:48.228Z</time></trkpt><trkpt lat="43.6535625" lon="11.1835238"><ele>303.0</ele><time>2026-04-18T07:04:49.228Z</time></trkpt><trkpt lat="43.6534803" lon="11.1835016"><ele>303.0</ele><time>2026-04-18T07:04:50.228Z</time></trkpt><trkpt lat="43.6533994" lon="11.183481"><ele>303.0</ele><time>2026-04-18T07:04:51.227Z</time></trkpt><trkpt lat="43.6533172" lon="11.1834566"><ele>301.8</ele><time>2026-04-18T07:04:52.228Z</time></trkpt><trkpt lat="43.6532307" lon="11.1834334"><ele>300.6</ele><time>2026-04-18T07:04:53.229Z</time></trkpt><trkpt lat="43.6531435" lon="11.1834132"><ele>299.4</ele><time>2026-04-18T07:04:54.227Z</time></trkpt><trkpt lat="43.6530479" lon="11.1833933"><ele>298.2</ele><time>2026-04-18T07:04:55.227Z</time></trkpt><trkpt lat="43.6529482" lon="11.1833604"><ele>297.0</ele><time>2026-04-18T07:04:56.229Z</time></trkpt><trkpt lat="43.6528506" lon="11.1833233"><ele>295.6666666666667</ele><time>2026-04-18T07:04:57.228Z</time></trkpt><trkpt lat="43.6527666" lon="11.1832637"><ele>294.3333333333333</ele><time>2026-04-18T07:04:58.228Z</time></trkpt><trkpt lat="43.6526907" lon="11.1832115"><ele>293.0</ele><time>2026-04-18T07:04:59.228Z</time></trkpt><trkpt lat="43.6526059" lon="11.1831645"><ele>291.66666666666663</ele><time>2026-04-18T07:05:00.227Z</time></trkpt><trkpt lat="43.6525342" lon="11.1831181"><ele>290.3333333333333</ele><time>2026-04-18T07:05:01.228Z</time></trkpt><trkpt lat="43.6524618" lon="11.183074"><ele>289.0</ele><time>2026-04-18T07:05:02.229Z</time></trkpt><trkpt lat="43.6523861" lon="11.1830588"><ele>289.0</ele><time>2026-04-18T07:05:03.227Z</time></trkpt><trkpt lat="43.6522914" lon="11.1831212"><ele>289.0</ele><time>2026-04-18T07:05:05.228Z</time></trkpt><trkpt lat="43.6522709" lon="11.1832363"><ele>289.0</ele><time>2026-04-18T07:05:08.227Z</time></trkpt><trkpt lat="43.6523295" lon="11.1833906"><ele>289.0</ele><time>2026-04-18T07:05:10.228Z</time></trkpt><trkpt lat="43.6523697" lon="11.1834748"><ele>289.0</ele><time>2026-04-18T07:05:11.228Z</time></trkpt><trkpt lat="43.652423" lon="11.1835781"><ele>289.0</ele><time>2026-04-18T07:05:12.228Z</time></trkpt><trkpt lat="43.6524766" lon="11.1836776"><ele>289.0</ele><time>2026-04-18T07:05:13.228Z</time></trkpt><trkpt lat="43.652539" lon="11.1837883"><ele>289.0</ele><time>2026-04-18T07:05:14.228Z</time></trkpt><trkpt lat="43.6526044" lon="11.1839136"><ele>289.0</ele><time>2026-04-18T07:05:15.227Z</time></trkpt><trkpt lat="43.6526868" lon="11.184039"><ele>289.0</ele><time>2026-04-18T07:05:16.227Z</time></trkpt><trkpt lat="43.6527748" lon="11.1841559"><ele>289.75</ele><time>2026-04-18T07:05:17.228Z</time></trkpt><trkpt lat="43.6528696" lon="11.1842747"><ele>290.5</ele><time>2026-04-18T07:05:18.229Z</time></trkpt><trkpt lat="43.6529721" lon="11.1843815"><ele>291.25</ele><time>2026-04-18T07:05:19.228Z</time></trkpt><trkpt lat="43.6530821" lon="11.1844812"><ele>292.0</ele><time>2026-04-18T07:05:20.228Z</time></trkpt><trkpt lat="43.6531998" lon="11.1845729"><ele>292.0</ele><time>2026-04-18T07:05:21.227Z</time></trkpt><trkpt lat="43.6533258" lon="11.1846578"><ele>292.0</ele><time>2026-04-18T07:05:22.227Z</time></trkpt><trkpt lat="43.6534557" lon="11.1847345"><ele>292.0</ele><time>2026-04-18T07:05:23.228Z</time></trkpt><trkpt lat="43.6535905" lon="11.1847936"><ele>292.0</ele><time>2026-04-18T07:05:24.229Z</time></trkpt><trkpt lat="43.6537282" lon="11.1848411"><ele>288.5</ele><time>2026-04-18T07:05:25.229Z</time></trkpt><trkpt lat="43.6538675" lon="11.1848814"><ele>285.0</ele><time>2026-04-18T07:05:26.228Z</time></trkpt><trkpt lat="43.6540042" lon="11.1848975"><ele>281.5</ele><time>2026-04-18T07:05:27.227Z</time></trkpt><trkpt lat="43.6541382" lon="11.1849032"><ele>278.0</ele><time>2026-04-18T07:05:28.227Z</time></trkpt><trkpt lat="43.6542721" lon="11.1849001"><ele>278.0</ele><time>2026-04-18T07:05:29.227Z</time></trkpt><trkpt lat="43.6544077" lon="11.1849012"><ele>278.0</ele><time>2026-04-18T07:05:30.228Z</time></trkpt><trkpt lat="43.6545446" lon="11.1848989"><ele>278.0</ele><time>2026-04-18T07:05:31.228Z</time></trkpt><trkpt lat="43.6546837" lon="11.1849024"><ele>278.0</ele><time>2026-04-18T07:05:32.228Z</time></trkpt><trkpt lat="43.6548244" lon="11.1848963"><ele>279.75</ele><time>2026-04-18T07:05:33.229Z</time></trkpt><trkpt lat="43.6549676" lon="11.1848964"><ele>281.5</ele><time>2026-04-18T07:05:34.228Z</time></trkpt><trkpt lat="43.6551061" lon="11.1849227"><ele>283.25</ele><time>2026-04-18T07:05:35.228Z</time></trkpt><trkpt lat="43.6552294" lon="11.1849942"><ele>285.0</ele><time>2026-04-18T07:05:36.228Z</time></trkpt><trkpt lat="43.6553304" lon="11.1851112"><ele>288.0</ele><time>2026-04-18T07:05:37.227Z</time></trkpt><trkpt lat="43.6553991" lon="11.1852635"><ele>291.0</ele><time>2026-04-18T07:05:38.228Z</time></trkpt><trkpt lat="43.6554288" lon="11.1854384"><ele>294.0</ele><time>2026-04-18T07:05:39.228Z</time></trkpt><trkpt lat="43.6554061" lon="11.1856175"><ele>297.0</ele><time>2026-04-18T07:05:40.228Z</time></trkpt><trkpt lat="43.6553495" lon="11.1857803"><ele>294.75</ele><time>2026-04-18T07:05:41.228Z</time></trkpt><trkpt lat="43.6552872" lon="11.1859169"><ele>292.5</ele><time>2026-04-18T07:05:42.228Z</time></trkpt><trkpt lat="43.6552238" lon="11.1860469"><ele>290.25</ele><time>2026-04-18T07:05:43.227Z</time></trkpt><trkpt lat="43.655159" lon="11.1861839"><ele>288.0</ele><time>2026-04-18T07:05:44.227Z</time></trkpt><trkpt lat="43.6550976" lon="11.1862949"><ele>288.0</ele><time>2026-04-18T07:05:45.228Z</time></trkpt><trkpt lat="43.655047" lon="11.1863966"><ele>288.0</ele><time>2026-04-18T07:05:46.227Z</time></trkpt><trkpt lat="43.6550147" lon="11.1864955"><ele>288.0</ele><time>2026-04-18T07:05:47.227Z</time></trkpt><trkpt lat="43.6550202" lon="11.1865965"><ele>288.0</ele><time>2026-04-18T07:05:48.227Z</time></trkpt><trkpt lat="43.655057" lon="11.1866872"><ele>288.0</ele><time>2026-04-18T07:05:49.228Z</time></trkpt><trkpt lat="43.6551252" lon="11.1867432"><ele>288.0</ele><time>2026-04-18T07:05:50.229Z</time></trkpt><trkpt lat="43.6552076" lon="11.1867638"><ele>291.4</ele><time>2026-04-18T07:05:51.228Z</time></trkpt><trkpt lat="43.6552886" lon="11.1867141"><ele>294.8</ele><time>2026-04-18T07:05:52.227Z</time></trkpt><trkpt lat="43.6553638" lon="11.1866278"><ele>298.2</ele><time>2026-04-18T07:05:53.227Z</time></trkpt><trkpt lat="43.6554286" lon="11.1865071"><ele>301.6</ele><time>2026-04-18T07:05:54.227Z</time></trkpt><trkpt lat="43.6555024" lon="11.1863764"><ele>305.0</ele><time>2026-04-18T07:05:55.228Z</time></trkpt><trkpt lat="43.6555797" lon="11.1862361"><ele>305.0</ele><time>2026-04-18T07:05:56.228Z</time></trkpt><trkpt lat="43.6556578" lon="11.1860864"><ele>305.0</ele><time>2026-04-18T07:05:57.229Z</time></trkpt><trkpt lat="43.6557288" lon="11.1859332"><ele>305.0</ele><time>2026-04-18T07:05:58.228Z</time></trkpt><trkpt lat="43.6558095" lon="11.1857813"><ele>305.0</ele><time>2026-04-18T07:05:59.228Z</time></trkpt><trkpt lat="43.6558892" lon="11.185625"><ele>303.0</ele><time>2026-04-18T07:06:00.228Z</time></trkpt><trkpt lat="43.6559603" lon="11.1854722"><ele>301.0</ele><time>2026-04-18T07:06:01.228Z</time></trkpt><trkpt lat="43.6560254" lon="11.1853293"><ele>299.0</ele><time>2026-04-18T07:06:02.228Z</time></trkpt><trkpt lat="43.6560763" lon="11.1851989"><ele>297.0</ele><time>2026-04-18T07:06:03.228Z</time></trkpt><trkpt lat="43.6561438" lon="11.1850646"><ele>300.0</ele><time>2026-04-18T07:06:04.228Z</time></trkpt><trkpt lat="43.6562062" lon="11.1849396"><ele>303.0</ele><time>2026-04-18T07:06:05.228Z</time></trkpt><trkpt lat="43.6562763" lon="11.1848057"><ele>306.0</ele><time>2026-04-18T07:06:06.228Z</time></trkpt><trkpt lat="43.6563398" lon="11.1846738"><ele>309.0</ele><time>2026-04-18T07:06:07.228Z</time></trkpt><trkpt lat="43.6563863" lon="11.1845468"><ele>312.0</ele><time>2026-04-18T07:06:08.227Z</time></trkpt><trkpt lat="43.6564215" lon="11.1844315"><ele>312.0</ele><time>2026-04-18T07:06:09.228Z</time></trkpt><trkpt lat="43.6564358" lon="11.184325"><ele>312.0</ele><time>2026-04-18T07:06:10.228Z</time></trkpt><trkpt lat="43.6564519" lon="11.184237"><ele>312.0</ele><time>2026-04-18T07:06:11.228Z</time></trkpt><trkpt lat="43.6564968" lon="11.1841551"><ele>312.0</ele><time>2026-04-18T07:06:12.228Z</time></trkpt><trkpt lat="43.656551" lon="11.1840905"><ele>312.0</ele><time>2026-04-18T07:06:13.228Z</time></trkpt><trkpt lat="43.6566425" lon="11.184064"><ele>312.0</ele><time>2026-04-18T07:06:14.227Z</time></trkpt><trkpt lat="43.6567362" lon="11.1840412"><ele>312.0</ele><time>2026-04-18T07:06:15.229Z</time></trkpt><trkpt lat="43.6568319" lon="11.1840191"><ele>312.0</ele><time>2026-04-18T07:06:16.227Z</time></trkpt><trkpt lat="43.6569349" lon="11.1839934"><ele>312.0</ele><time>2026-04-18T07:06:17.228Z</time></trkpt><trkpt lat="43.6570321" lon="11.1839728"><ele>312.0</ele><time>2026-04-18T07:06:18.229Z</time></trkpt><trkpt lat="43.6571322" lon="11.1839474"><ele>312.0</ele><time>2026-04-18T07:06:19.227Z</time></trkpt><trkpt lat="43.6572307" lon="11.1839281"><ele>312.4</ele><time>2026-04-18T07:06:20.227Z</time></trkpt><trkpt lat="43.6573277" lon="11.1838994"><ele>312.79999999999995</ele><time>2026-04-18T07:06:21.228Z</time></trkpt><trkpt lat="43.6574229" lon="11.1838725"><ele>313.2</ele><time>2026-04-18T07:06:22.228Z</time></trkpt><trkpt lat="43.6575177" lon="11.1838499"><ele>313.59999999999997</ele><time>2026-04-18T07:06:23.228Z</time></trkpt><trkpt lat="43.657612" lon="11.1838447"><ele>314.0</ele><time>2026-04-18T07:06:24.227Z</time></trkpt><trkpt lat="43.6577012" lon="11.1838741"><ele>314.0</ele><time>2026-04-18T07:06:25.228Z</time></trkpt><trkpt lat="43.6577845" lon="11.1839281"><ele>314.0</ele><time>2026-04-18T07:06:26.227Z</time></trkpt><trkpt lat="43.6578468" lon="11.1840039"><ele>314.0</ele><time>2026-04-18T07:06:27.228Z</time></trkpt><trkpt lat="43.6579011" lon="11.184086"><ele>314.0</ele><time>2026-04-18T07:06:28.228Z</time></trkpt><trkpt lat="43.6579545" lon="11.1841486"><ele>314.0</ele><time>2026-04-18T07:06:29.227Z</time></trkpt><trkpt lat="43.6580855" lon="11.1841982"><ele>313.5</ele><time>2026-04-18T07:06:31.228Z</time></trkpt><trkpt lat="43.6581845" lon="11.1841589"><ele>313.0</ele><time>2026-04-18T07:06:32.228Z</time></trkpt><trkpt lat="43.6582872" lon="11.1840962"><ele>312.5</ele><time>2026-04-18T07:06:33.228Z</time></trkpt><trkpt lat="43.6583924" lon="11.18401"><ele>312.0</ele><time>2026-04-18T07:06:34.228Z</time></trkpt><trkpt lat="43.6584899" lon="11.1839231"><ele>312.0</ele><time>2026-04-18T07:06:35.228Z</time></trkpt><trkpt lat="43.6586051" lon="11.1838364"><ele>312.0</ele><time>2026-04-18T07:06:36.228Z</time></trkpt><trkpt lat="43.6587188" lon="11.1837566"><ele>312.0</ele><time>2026-04-18T07:06:37.227Z</time></trkpt><trkpt lat="43.6588356" lon="11.1836938"><ele>312.0</ele><time>2026-04-18T07:06:38.227Z</time></trkpt><trkpt lat="43.6589443" lon="11.1836246"><ele>310.75</ele><time>2026-04-18T07:06:39.227Z</time></trkpt><trkpt lat="43.659064" lon="11.1835557"><ele>309.5</ele><time>2026-04-18T07:06:40.228Z</time></trkpt><trkpt lat="43.6591839" lon="11.1834745"><ele>308.25</ele><time>2026-04-18T07:06:41.228Z</time></trkpt><trkpt lat="43.6592905" lon="11.1833974"><ele>307.0</ele><time>2026-04-18T07:06:42.228Z</time></trkpt><trkpt lat="43.6593855" lon="11.18333"><ele>306.4</ele><time>2026-04-18T07:06:43.228Z</time></trkpt><trkpt lat="43.6594717" lon="11.1832731"><ele>305.79999999999995</ele><time>2026-04-18T07:06:44.228Z</time></trkpt><trkpt lat="43.659559" lon="11.1832293"><ele>305.2</ele><time>2026-04-18T07:06:45.228Z</time></trkpt><trkpt lat="43.6596462" lon="11.1831995"><ele>304.59999999999997</ele><time>2026-04-18T07:06:46.228Z</time></trkpt><trkpt lat="43.6597321" lon="11.1831911"><ele>304.0</ele><time>2026-04-18T07:06:47.228Z</time></trkpt><trkpt lat="43.6598304" lon="11.1831669"><ele>304.0</ele><time>2026-04-18T07:06:48.228Z</time></trkpt><trkpt lat="43.6599331" lon="11.1831396"><ele>304.0</ele><time>2026-04-18T07:06:49.228Z</time></trkpt><trkpt lat="43.6600443" lon="11.1831104"><ele>304.0</ele><time>2026-04-18T07:06:50.228Z</time></trkpt><trkpt lat="43.6601581" lon="11.1830706"><ele>304.0</ele><time>2026-04-18T07:06:51.227Z</time></trkpt><trkpt lat="43.6602842" lon="11.1830247"><ele>303.5</ele><time>2026-04-18T07:06:52.228Z</time></trkpt><trkpt lat="43.6604124" lon="11.1829732"><ele>303.0</ele><time>2026-04-18T07:06:53.228Z</time></trkpt><trkpt lat="43.6605431" lon="11.182914"><ele>302.5</ele><time>2026-04-18T07:06:54.228Z</time></trkpt><trkpt lat="43.6606639" lon="11.182849"><ele>302.0</ele><time>2026-04-18T07:06:55.229Z</time></trkpt><trkpt lat="43.6607876" lon="11.1827794"><ele>302.0</ele><time>2026-04-18T07:06:56.228Z</time></trkpt><trkpt lat="43.6609011" lon="11.182709"><ele>302.0</ele><time>2026-04-18T07:06:57.227Z</time></trkpt><trkpt lat="43.6610085" lon="11.1826401"><ele>302.0</ele><time>2026-04-18T07:06:58.228Z</time></trkpt><trkpt lat="43.6611068" lon="11.1825708"><ele>302.0</ele><time>2026-04-18T07:06:59.228Z</time></trkpt><trkpt lat="43.6611856" lon="11.1825011"><ele>302.0</ele><time>2026-04-18T07:07:00.228Z</time></trkpt><trkpt lat="43.6612604" lon="11.1824576"><ele>302.1666666666667</ele><time>2026-04-18T07:07:01.228Z</time></trkpt><trkpt lat="43.6613404" lon="11.1824509"><ele>302.33333333333337</ele><time>2026-04-18T07:07:02.228Z</time></trkpt><trkpt lat="43.6614152" lon="11.1824536"><ele>302.5</ele><time>2026-04-18T07:07:03.228Z</time></trkpt><trkpt lat="43.661491" lon="11.1824109"><ele>302.6666666666667</ele><time>2026-04-18T07:07:04.228Z</time></trkpt><trkpt lat="43.6615648" lon="11.1823232"><ele>302.8333333333333</ele><time>2026-04-18T07:07:05.229Z</time></trkpt><trkpt lat="43.6616336" lon="11.1822114"><ele>303.0</ele><time>2026-04-18T07:07:06.227Z</time></trkpt><trkpt lat="43.6617045" lon="11.1820804"><ele>303.0</ele><time>2026-04-18T07:07:07.229Z</time></trkpt><trkpt lat="43.6617775" lon="11.1819385"><ele>303.0</ele><time>2026-04-18T07:07:08.228Z</time></trkpt><trkpt lat="43.661849" lon="11.1817907"><ele>303.0</ele><time>2026-04-18T07:07:09.228Z</time></trkpt><trkpt lat="43.6619255" lon="11.181631"><ele>303.0</ele><time>2026-04-18T07:07:10.228Z</time></trkpt><trkpt lat="43.6619992" lon="11.1814605"><ele>303.0</ele><time>2026-04-18T07:07:11.228Z</time></trkpt><trkpt lat="43.6620638" lon="11.1812765"><ele>303.0</ele><time>2026-04-18T07:07:12.228Z</time></trkpt><trkpt lat="43.6621286" lon="11.1810862"><ele>303.0</ele><time>2026-04-18T07:07:13.228Z</time></trkpt><trkpt lat="43.6621894" lon="11.1808962"><ele>303.0</ele><time>2026-04-18T07:07:14.227Z</time></trkpt><trkpt lat="43.6622496" lon="11.180702"><ele>303.0</ele><time>2026-04-18T07:07:15.228Z</time></trkpt><trkpt lat="43.662303" lon="11.1805049"><ele>303.0</ele><time>2026-04-18T07:07:16.227Z</time></trkpt><trkpt lat="43.6623616" lon="11.1803071"><ele>303.0</ele><time>2026-04-18T07:07:17.228Z</time></trkpt><trkpt lat="43.6624303" lon="11.1801015"><ele>303.0</ele><time>2026-04-18T07:07:18.228Z</time></trkpt><trkpt lat="43.6625091" lon="11.179902"><ele>303.0</ele><time>2026-04-18T07:07:19.228Z</time></trkpt><trkpt lat="43.6626028" lon="11.1797073"><ele>303.3333333333333</ele><time>2026-04-18T07:07:20.227Z</time></trkpt><trkpt lat="43.662712" lon="11.1795264"><ele>303.66666666666663</ele><time>2026-04-18T07:07:21.228Z</time></trkpt><trkpt lat="43.6628184" lon="11.1793637"><ele>304.0</ele><time>2026-04-18T07:07:22.228Z</time></trkpt><trkpt lat="43.6629254" lon="11.1792153"><ele>304.0</ele><time>2026-04-18T07:07:23.227Z</time></trkpt><trkpt lat="43.663041" lon="11.1790797"><ele>304.0</ele><time>2026-04-18T07:07:24.227Z</time></trkpt><trkpt lat="43.6631622" lon="11.1789509"><ele>304.0</ele><time>2026-04-18T07:07:25.228Z</time></trkpt><trkpt lat="43.6632804" lon="11.1788257"><ele>305.0</ele><time>2026-04-18T07:07:26.228Z</time></trkpt><trkpt lat="43.6633893" lon="11.1786859"><ele>306.0</ele><time>2026-04-18T07:07:27.227Z</time></trkpt><trkpt lat="43.6634769" lon="11.178535"><ele>307.0</ele><time>2026-04-18T07:07:28.228Z</time></trkpt><trkpt lat="43.6635466" lon="11.1783932"><ele>308.0</ele><time>2026-04-18T07:07:29.228Z</time></trkpt><trkpt lat="43.6636081" lon="11.1782658"><ele>306.25</ele><time>2026-04-18T07:07:30.228Z</time></trkpt><trkpt lat="43.6636731" lon="11.1781506"><ele>304.5</ele><time>2026-04-18T07:07:31.228Z</time></trkpt><trkpt lat="43.6637567" lon="11.1780637"><ele>302.75</ele><time>2026-04-18T07:07:32.228Z</time></trkpt><trkpt lat="43.6638573" lon="11.1779866"><ele>301.0</ele><time>2026-04-18T07:07:33.227Z</time></trkpt><trkpt lat="43.663974" lon="11.1779133"><ele>301.0</ele><time>2026-04-18T07:07:34.227Z</time></trkpt><trkpt lat="43.6641032" lon="11.1778367"><ele>301.0</ele><time>2026-04-18T07:07:35.227Z</time></trkpt><trkpt lat="43.6642387" lon="11.1777574"><ele>301.0</ele><time>2026-04-18T07:07:36.228Z</time></trkpt><trkpt lat="43.6643806" lon="11.1776812"><ele>301.0</ele><time>2026-04-18T07:07:37.228Z</time></trkpt><trkpt lat="43.6645316" lon="11.1776012"><ele>301.66666666666663</ele><time>2026-04-18T07:07:38.228Z</time></trkpt><trkpt lat="43.6646769" lon="11.1775181"><ele>302.3333333333333</ele><time>2026-04-18T07:07:39.228Z</time></trkpt><trkpt lat="43.6648268" lon="11.177445"><ele>303.0</ele><time>2026-04-18T07:07:40.227Z</time></trkpt><trkpt lat="43.6649755" lon="11.1773701"><ele>302.6666666666667</ele><time>2026-04-18T07:07:41.227Z</time></trkpt><trkpt lat="43.6651154" lon="11.1772842"><ele>302.33333333333337</ele><time>2026-04-18T07:07:42.228Z</time></trkpt><trkpt lat="43.6652472" lon="11.177176"><ele>302.0</ele><time>2026-04-18T07:07:43.227Z</time></trkpt><trkpt lat="43.6653718" lon="11.1770366"><ele>302.0</ele><time>2026-04-18T07:07:44.228Z</time></trkpt><trkpt lat="43.6654789" lon="11.1768955"><ele>302.0</ele><time>2026-04-18T07:07:45.227Z</time></trkpt><trkpt lat="43.6655751" lon="11.1767439"><ele>302.0</ele><time>2026-04-18T07:07:46.228Z</time></trkpt><trkpt lat="43.6656534" lon="11.1765952"><ele>302.0</ele><time>2026-04-18T07:07:47.228Z</time></trkpt><trkpt lat="43.6657046" lon="11.1764256"><ele>302.0</ele><time>2026-04-18T07:07:48.227Z</time></trkpt><trkpt lat="43.665731" lon="11.1762344"><ele>302.0</ele><time>2026-04-18T07:07:49.228Z</time></trkpt><trkpt lat="43.6657346" lon="11.1760328"><ele>302.0</ele><time>2026-04-18T07:07:50.228Z</time></trkpt><trkpt lat="43.6657156" lon="11.1758212"><ele>302.0</ele><time>2026-04-18T07:07:51.228Z</time></trkpt><trkpt lat="43.6656902" lon="11.1756084"><ele>302.33333333333337</ele><time>2026-04-18T07:07:52.229Z</time></trkpt><trkpt lat="43.6656548" lon="11.1753823"><ele>302.6666666666667</ele><time>2026-04-18T07:07:53.227Z</time></trkpt><trkpt lat="43.6656184" lon="11.1751669"><ele>303.0</ele><time>2026-04-18T07:07:54.227Z</time></trkpt><trkpt lat="43.665588" lon="11.1749401"><ele>304.3333333333333</ele><time>2026-04-18T07:07:55.228Z</time></trkpt><trkpt lat="43.6655311" lon="11.1747102"><ele>305.66666666666663</ele><time>2026-04-18T07:07:56.228Z</time></trkpt><trkpt lat="43.6654447" lon="11.174508"><ele>307.0</ele><time>2026-04-18T07:07:57.227Z</time></trkpt><trkpt lat="43.6653474" lon="11.1743161"><ele>302.66666666666663</ele><time>2026-04-18T07:07:58.227Z</time></trkpt><trkpt lat="43.6652514" lon="11.1741189"><ele>298.3333333333333</ele><time>2026-04-18T07:07:59.228Z</time></trkpt><trkpt lat="43.6651845" lon="11.1738959"><ele>294.0</ele><time>2026-04-18T07:08:00.228Z</time></trkpt><trkpt lat="43.6651412" lon="11.1736564"><ele>294.0</ele><time>2026-04-18T07:08:01.228Z</time></trkpt><trkpt lat="43.6651056" lon="11.1734027"><ele>294.0</ele><time>2026-04-18T07:08:02.227Z</time></trkpt><trkpt lat="43.6650697" lon="11.1731455"><ele>294.0</ele><time>2026-04-18T07:08:03.228Z</time></trkpt><trkpt lat="43.6650315" lon="11.1728933"><ele>295.6666666666667</ele><time>2026-04-18T07:08:04.229Z</time></trkpt><trkpt lat="43.6649976" lon="11.1726426"><ele>297.33333333333337</ele><time>2026-04-18T07:08:05.228Z</time></trkpt><trkpt lat="43.6649664" lon="11.172384"><ele>299.0</ele><time>2026-04-18T07:08:06.228Z</time></trkpt><trkpt lat="43.6649437" lon="11.1721246"><ele>299.0</ele><time>2026-04-18T07:08:07.228Z</time></trkpt><trkpt lat="43.6649137" lon="11.1718595"><ele>299.0</ele><time>2026-04-18T07:08:08.228Z</time></trkpt><trkpt lat="43.6648859" lon="11.17159"><ele>299.0</ele><time>2026-04-18T07:08:09.228Z</time></trkpt><trkpt lat="43.6648685" lon="11.1713217"><ele>298.33333333333337</ele><time>2026-04-18T07:08:10.228Z</time></trkpt><trkpt lat="43.6648573" lon="11.1710636"><ele>297.6666666666667</ele><time>2026-04-18T07:08:11.228Z</time></trkpt><trkpt lat="43.6648437" lon="11.1708119"><ele>297.0</ele><time>2026-04-18T07:08:12.228Z</time></trkpt><trkpt lat="43.6648043" lon="11.1705642"><ele>297.0</ele><time>2026-04-18T07:08:13.227Z</time></trkpt><trkpt lat="43.6647436" lon="11.1703072"><ele>297.0</ele><time>2026-04-18T07:08:14.228Z</time></trkpt><trkpt lat="43.6646658" lon="11.1700692"><ele>297.0</ele><time>2026-04-18T07:08:15.228Z</time></trkpt><trkpt lat="43.6645698" lon="11.1698472"><ele>296.3333333333333</ele><time>2026-04-18T07:08:16.228Z</time></trkpt><trkpt lat="43.6644631" lon="11.1696521"><ele>295.66666666666663</ele><time>2026-04-18T07:08:17.228Z</time></trkpt><trkpt lat="43.6643645" lon="11.1694588"><ele>295.0</ele><time>2026-04-18T07:08:18.228Z</time></trkpt><trkpt lat="43.6642808" lon="11.1692818"><ele>295.0</ele><time>2026-04-18T07:08:19.228Z</time></trkpt><trkpt lat="43.6642182" lon="11.1691063"><ele>295.0</ele><time>2026-04-18T07:08:20.228Z</time></trkpt><trkpt lat="43.6641671" lon="11.1689447"><ele>295.0</ele><time>2026-04-18T07:08:21.228Z</time></trkpt><trkpt lat="43.6641393" lon="11.1688014"><ele>295.0</ele><time>2026-04-18T07:08:22.228Z</time></trkpt><trkpt lat="43.6641068" lon="11.1686815"><ele>295.3333333333333</ele><time>2026-04-18T07:08:23.228Z</time></trkpt><trkpt lat="43.6640626" lon="11.1685975"><ele>295.66666666666663</ele><time>2026-04-18T07:08:24.227Z</time></trkpt><trkpt lat="43.6640008" lon="11.1685189"><ele>296.0</ele><time>2026-04-18T07:08:25.228Z</time></trkpt><trkpt lat="43.6639308" lon="11.1684507"><ele>296.3333333333333</ele><time>2026-04-18T07:08:26.228Z</time></trkpt><trkpt lat="43.6638538" lon="11.1683817"><ele>296.6666666666667</ele><time>2026-04-18T07:08:27.228Z</time></trkpt><trkpt lat="43.6637686" lon="11.1683234"><ele>297.0</ele><time>2026-04-18T07:08:28.228Z</time></trkpt><trkpt lat="43.6636713" lon="11.1682597"><ele>296.75</ele><time>2026-04-18T07:08:29.228Z</time></trkpt><trkpt lat="43.6635625" lon="11.1682224"><ele>296.5</ele><time>2026-04-18T07:08:30.228Z</time></trkpt><trkpt lat="43.6634489" lon="11.1681919"><ele>296.25</ele><time>2026-04-18T07:08:31.228Z</time></trkpt><trkpt lat="43.6633407" lon="11.1681727"><ele>296.0</ele><time>2026-04-18T07:08:32.228Z</time></trkpt><trkpt lat="43.6632257" lon="11.1681543"><ele>297.5</ele><time>2026-04-18T07:08:33.228Z</time></trkpt><trkpt lat="43.6631104" lon="11.1681378"><ele>299.0</ele><time>2026-04-18T07:08:34.227Z</time></trkpt><trkpt lat="43.6629903" lon="11.1681202"><ele>300.5</ele><time>2026-04-18T07:08:35.228Z</time></trkpt><trkpt lat="43.6628734" lon="11.1680957"><ele>302.0</ele><time>2026-04-18T07:08:36.228Z</time></trkpt><trkpt lat="43.6627688" lon="11.16808"><ele>302.0</ele><time>2026-04-18T07:08:37.228Z</time></trkpt><trkpt lat="43.6626746" lon="11.1680902"><ele>302.0</ele><time>2026-04-18T07:08:38.228Z</time></trkpt><trkpt lat="43.6625919" lon="11.1681018"><ele>302.0</ele><time>2026-04-18T07:08:39.227Z</time></trkpt><trkpt lat="43.6625119" lon="11.1681227"><ele>302.0</ele><time>2026-04-18T07:08:40.228Z</time></trkpt><trkpt lat="43.6624383" lon="11.1681543"><ele>302.0</ele><time>2026-04-18T07:08:41.228Z</time></trkpt><trkpt lat="43.6623559" lon="11.1681837"><ele>302.0</ele><time>2026-04-18T07:08:42.227Z</time></trkpt><trkpt lat="43.6622675" lon="11.1682163"><ele>301.2</ele><time>2026-04-18T07:08:43.227Z</time></trkpt><trkpt lat="43.6621719" lon="11.1682456"><ele>300.4</ele><time>2026-04-18T07:08:44.227Z</time></trkpt><trkpt lat="43.6620739" lon="11.1682854"><ele>299.6</ele><time>2026-04-18T07:08:45.228Z</time></trkpt><trkpt lat="43.6619817" lon="11.1683257"><ele>298.8</ele><time>2026-04-18T07:08:46.228Z</time></trkpt><trkpt lat="43.6618906" lon="11.1683534"><ele>298.0</ele><time>2026-04-18T07:08:47.228Z</time></trkpt><trkpt lat="43.6618154" lon="11.1683839"><ele>298.0</ele><time>2026-04-18T07:08:48.228Z</time></trkpt><trkpt lat="43.6617386" lon="11.1684144"><ele>298.0</ele><time>2026-04-18T07:08:49.228Z</time></trkpt><trkpt lat="43.6616498" lon="11.1684316"><ele>298.0</ele><time>2026-04-18T07:08:50.229Z</time></trkpt><trkpt lat="43.6615609" lon="11.1684718"><ele>298.0</ele><time>2026-04-18T07:08:51.228Z</time></trkpt><trkpt lat="43.6614881" lon="11.1685071"><ele>298.0</ele><time>2026-04-18T07:08:52.228Z</time></trkpt><trkpt lat="43.6613937" lon="11.1685368"><ele>298.0</ele><time>2026-04-18T07:08:53.228Z</time></trkpt><trkpt lat="43.6613143" lon="11.1685557"><ele>298.0</ele><time>2026-04-18T07:08:54.229Z</time></trkpt><trkpt lat="43.661209" lon="11.1685923"><ele>298.0</ele><time>2026-04-18T07:08:56.228Z</time></trkpt><trkpt lat="43.6611209" lon="11.1686536"><ele>298.0</ele><time>2026-04-18T07:08:59.228Z</time></trkpt><trkpt lat="43.6610415" lon="11.168717"><ele>298.0</ele><time>2026-04-18T07:09:01.228Z</time></trkpt><trkpt lat="43.6609708" lon="11.1687696"><ele>298.0</ele><time>2026-04-18T07:09:03.227Z</time></trkpt><trkpt lat="43.6608951" lon="11.1688083"><ele>297.8</ele><time>2026-04-18T07:09:05.228Z</time></trkpt><trkpt lat="43.6608068" lon="11.1688477"><ele>297.6</ele><time>2026-04-18T07:09:07.229Z</time></trkpt><trkpt lat="43.6606872" lon="11.168873"><ele>297.4</ele><time>2026-04-18T07:09:09.227Z</time></trkpt><trkpt lat="43.6605813" lon="11.1688671"><ele>297.2</ele><time>2026-04-18T07:09:11.228Z</time></trkpt><trkpt lat="43.6604809" lon="11.1688438"><ele>297.0</ele><time>2026-04-18T07:09:13.228Z</time></trkpt><trkpt lat="43.6603765" lon="11.1687652"><ele>297.0</ele><time>2026-04-18T07:09:15.227Z</time></trkpt><trkpt lat="43.6603103" lon="11.1687069"><ele>297.0</ele><time>2026-04-18T07:09:16.229Z</time></trkpt><trkpt lat="43.6602412" lon="11.1686364"><ele>297.0</ele><time>2026-04-18T07:09:17.228Z</time></trkpt><trkpt lat="43.6601743" lon="11.1685752"><ele>297.0</ele><time>2026-04-18T07:09:18.228Z</time></trkpt><trkpt lat="43.6601015" lon="11.1685103"><ele>297.0</ele><time>2026-04-18T07:09:19.228Z</time></trkpt><trkpt lat="43.660031" lon="11.1684428"><ele>297.0</ele><time>2026-04-18T07:09:20.228Z</time></trkpt><trkpt lat="43.6599542" lon="11.1683714"><ele>295.0</ele><time>2026-04-18T07:09:21.227Z</time></trkpt><trkpt lat="43.6598769" lon="11.1682969"><ele>293.0</ele><time>2026-04-18T07:09:22.227Z</time></trkpt><trkpt lat="43.659793" lon="11.1682209"><ele>291.0</ele><time>2026-04-18T07:09:23.228Z</time></trkpt><trkpt lat="43.6597155" lon="11.1681622"><ele>289.0</ele><time>2026-04-18T07:09:24.228Z</time></trkpt><trkpt lat="43.6596401" lon="11.1680864"><ele>287.0</ele><time>2026-04-18T07:09:25.228Z</time></trkpt><trkpt lat="43.6595721" lon="11.1680089"><ele>285.5</ele><time>2026-04-18T07:09:26.227Z</time></trkpt><trkpt lat="43.6595054" lon="11.1679419"><ele>284.0</ele><time>2026-04-18T07:09:27.228Z</time></trkpt><trkpt lat="43.659444" lon="11.1678829"><ele>282.5</ele><time>2026-04-18T07:09:28.228Z</time></trkpt><trkpt lat="43.6593658" lon="11.1678274"><ele>281.0</ele><time>2026-04-18T07:09:29.228Z</time></trkpt><trkpt lat="43.6592777" lon="11.1677742"><ele>279.5</ele><time>2026-04-18T07:09:30.228Z</time></trkpt><trkpt lat="43.6591848" lon="11.1677211"><ele>278.0</ele><time>2026-04-18T07:09:31.228Z</time></trkpt><trkpt lat="43.6590915" lon="11.1676771"><ele>276.5</ele><time>2026-04-18T07:09:32.228Z</time></trkpt><trkpt lat="43.6589914" lon="11.1676461"><ele>275.0</ele><time>2026-04-18T07:09:33.228Z</time></trkpt><trkpt lat="43.6588956" lon="11.1676087"><ele>273.5</ele><time>2026-04-18T07:09:34.227Z</time></trkpt><trkpt lat="43.6588184" lon="11.1675592"><ele>272.0</ele><time>2026-04-18T07:09:35.229Z</time></trkpt><trkpt lat="43.6587464" lon="11.1675145"><ele>270.5</ele><time>2026-04-18T07:09:36.227Z</time></trkpt><trkpt lat="43.6586753" lon="11.1674788"><ele>269.0</ele><time>2026-04-18T07:09:37.228Z</time></trkpt><trkpt lat="43.6586009" lon="11.1674374"><ele>267.83333333333337</ele><time>2026-04-18T07:09:38.227Z</time></trkpt><trkpt lat="43.6585225" lon="11.1674087"><ele>266.6666666666667</ele><time>2026-04-18T07:09:39.227Z</time></trkpt><trkpt lat="43.6584379" lon="11.1673801"><ele>265.5</ele><time>2026-04-18T07:09:40.228Z</time></trkpt><trkpt lat="43.6583499" lon="11.1673589"><ele>264.3333333333333</ele><time>2026-04-18T07:09:41.228Z</time></trkpt><trkpt lat="43.6582557" lon="11.1673416"><ele>263.16666666666663</ele><time>2026-04-18T07:09:42.228Z</time></trkpt><trkpt lat="43.6581726" lon="11.1673359"><ele>262.0</ele><time>2026-04-18T07:09:43.227Z</time></trkpt><trkpt lat="43.658092" lon="11.1673297"><ele>261.5</ele><time>2026-04-18T07:09:44.227Z</time></trkpt><trkpt lat="43.6580076" lon="11.1673188"><ele>261.0</ele><time>2026-04-18T07:09:45.228Z</time></trkpt><trkpt lat="43.6579328" lon="11.167313"><ele>260.5</ele><time>2026-04-18T07:09:46.228Z</time></trkpt><trkpt lat="43.6578572" lon="11.1673167"><ele>260.0</ele><time>2026-04-18T07:09:47.228Z</time></trkpt><trkpt lat="43.6577887" lon="11.1673223"><ele>259.5</ele><time>2026-04-18T07:09:48.227Z</time></trkpt><trkpt lat="43.6577093" lon="11.1673258"><ele>259.0</ele><time>2026-04-18T07:09:49.227Z</time></trkpt><trkpt lat="43.6575849" lon="11.1673748"><ele>259.0</ele><time>2026-04-18T07:09:51.228Z</time></trkpt><trkpt lat="43.6575136" lon="11.1673974"><ele>259.0</ele><time>2026-04-18T07:09:52.227Z</time></trkpt><trkpt lat="43.6573883" lon="11.1673982"><ele>259.0</ele><time>2026-04-18T07:09:54.228Z</time></trkpt><trkpt lat="43.6573241" lon="11.1673731"><ele>259.0</ele><time>2026-04-18T07:09:55.229Z</time></trkpt><trkpt lat="43.6572566" lon="11.1673383"><ele>259.0</ele><time>2026-04-18T07:09:56.228Z</time></trkpt><trkpt lat="43.6571818" lon="11.1673031"><ele>259.0</ele><time>2026-04-18T07:09:57.228Z</time></trkpt><trkpt lat="43.6571092" lon="11.1672634"><ele>257.2857142857143</ele><time>2026-04-18T07:09:58.228Z</time></trkpt><trkpt lat="43.6570318" lon="11.1672226"><ele>255.57142857142856</ele><time>2026-04-18T07:09:59.227Z</time></trkpt><trkpt lat="43.6569737" lon="11.1671851"><ele>253.85714285714286</ele><time>2026-04-18T07:10:00.228Z</time></trkpt><trkpt lat="43.6569081" lon="11.1671664"><ele>252.14285714285714</ele><time>2026-04-18T07:10:01.228Z</time></trkpt><trkpt lat="43.6568416" lon="11.1671478"><ele>250.42857142857142</ele><time>2026-04-18T07:10:02.229Z</time></trkpt><trkpt lat="43.6567597" lon="11.1671212"><ele>248.71428571428572</ele><time>2026-04-18T07:10:03.228Z</time></trkpt><trkpt lat="43.6566986" lon="11.167097"><ele>247.0</ele><time>2026-04-18T07:10:04.227Z</time></trkpt><trkpt lat="43.6565866" lon="11.167052"><ele>246.99999999999997</ele><time>2026-04-18T07:10:06.228Z</time></trkpt><trkpt lat="43.6565249" lon="11.1670271"><ele>247.0</ele><time>2026-04-18T07:10:07.228Z</time></trkpt><trkpt lat="43.6564104" lon="11.1669492"><ele>247.0</ele><time>2026-04-18T07:10:09.227Z</time></trkpt><trkpt lat="43.6563445" lon="11.1669143"><ele>247.0</ele><time>2026-04-18T07:10:10.228Z</time></trkpt><trkpt lat="43.6562808" lon="11.1668766"><ele>246.99999999999997</ele><time>2026-04-18T07:10:11.227Z</time></trkpt><trkpt lat="43.6562094" lon="11.1668314"><ele>247.0</ele><time>2026-04-18T07:10:12.227Z</time></trkpt><trkpt lat="43.6561371" lon="11.1667788"><ele>247.14285714285717</ele><time>2026-04-18T07:10:13.227Z</time></trkpt><trkpt lat="43.6560686" lon="11.1667311"><ele>247.28571428571428</ele><time>2026-04-18T07:10:14.227Z</time></trkpt><trkpt lat="43.6560055" lon="11.1666971"><ele>247.42857142857144</ele><time>2026-04-18T07:10:15.228Z</time></trkpt><trkpt lat="43.6559368" lon="11.1666634"><ele>247.57142857142858</ele><time>2026-04-18T07:10:16.228Z</time></trkpt><trkpt lat="43.655865" lon="11.1666225"><ele>247.71428571428572</ele><time>2026-04-18T07:10:17.228Z</time></trkpt><trkpt lat="43.6557932" lon="11.1665753"><ele>247.85714285714286</ele><time>2026-04-18T07:10:18.228Z</time></trkpt><trkpt lat="43.655725" lon="11.1665329"><ele>248.0</ele><time>2026-04-18T07:10:19.228Z</time></trkpt><trkpt lat="43.6556619" lon="11.166486"><ele>247.0</ele><time>2026-04-18T07:10:20.227Z</time></trkpt><trkpt lat="43.6555993" lon="11.1664325"><ele>246.00000000000003</ele><time>2026-04-18T07:10:21.228Z</time></trkpt><trkpt lat="43.6555438" lon="11.1663769"><ele>245.0</ele><time>2026-04-18T07:10:22.227Z</time></trkpt><trkpt lat="43.6554925" lon="11.1663198"><ele>244.0</ele><time>2026-04-18T07:10:23.228Z</time></trkpt><trkpt lat="43.655442" lon="11.1662615"><ele>243.00000000000003</ele><time>2026-04-18T07:10:24.227Z</time></trkpt><trkpt lat="43.6553816" lon="11.1662174"><ele>242.0</ele><time>2026-04-18T07:10:25.228Z</time></trkpt><trkpt lat="43.6553165" lon="11.1661943"><ele>241.0</ele><time>2026-04-18T07:10:26.228Z</time></trkpt><trkpt lat="43.6552536" lon="11.1661874"><ele>240.99999999999997</ele><time>2026-04-18T07:10:27.228Z</time></trkpt><trkpt lat="43.655173" lon="11.1661655"><ele>241.0</ele><time>2026-04-18T07:10:28.228Z</time></trkpt><trkpt lat="43.655103" lon="11.1661538"><ele>241.0</ele><time>2026-04-18T07:10:29.228Z</time></trkpt><trkpt lat="43.6550293" lon="11.1661498"><ele>241.0</ele><time>2026-04-18T07:10:30.228Z</time></trkpt><trkpt lat="43.6549516" lon="11.1661445"><ele>240.99999999999997</ele><time>2026-04-18T07:10:31.228Z</time></trkpt><trkpt lat="43.6548844" lon="11.1661494"><ele>241.0</ele><time>2026-04-18T07:10:32.228Z</time></trkpt><trkpt lat="43.6548061" lon="11.166149"><ele>240.99999999999997</ele><time>2026-04-18T07:10:33.227Z</time></trkpt><trkpt lat="43.6546754" lon="11.166147"><ele>241.0</ele><time>2026-04-18T07:10:35.227Z</time></trkpt><trkpt lat="43.6546111" lon="11.1661485"><ele>241.0</ele><time>2026-04-18T07:10:36.228Z</time></trkpt><trkpt lat="43.6545444" lon="11.1661441"><ele>241.0</ele><time>2026-04-18T07:10:37.228Z</time></trkpt><trkpt lat="43.6544692" lon="11.1661515"><ele>240.99999999999997</ele><time>2026-04-18T07:10:38.227Z</time></trkpt><trkpt lat="43.6543963" lon="11.1661465"><ele>241.0</ele><time>2026-04-18T07:10:39.228Z</time></trkpt><trkpt lat="43.6543176" lon="11.1661333"><ele>239.49999999999997</ele><time>2026-04-18T07:10:40.228Z</time></trkpt><trkpt lat="43.6542621" lon="11.1660825"><ele>238.0</ele><time>2026-04-18T07:10:41.227Z</time></trkpt><trkpt lat="43.6541961" lon="11.1660535"><ele>236.5</ele><time>2026-04-18T07:10:42.228Z</time></trkpt><trkpt lat="43.6541235" lon="11.1660311"><ele>235.0</ele><time>2026-04-18T07:10:43.228Z</time></trkpt><trkpt lat="43.654051" lon="11.1660151"><ele>233.49999999999997</ele><time>2026-04-18T07:10:44.228Z</time></trkpt><trkpt lat="43.6539849" lon="11.1660046"><ele>232.0</ele><time>2026-04-18T07:10:45.228Z</time></trkpt><trkpt lat="43.6538761" lon="11.1660051"><ele>231.99999999999997</ele><time>2026-04-18T07:10:47.228Z</time></trkpt><trkpt lat="43.6538085" lon="11.1660191"><ele>232.0</ele><time>2026-04-18T07:10:49.228Z</time></trkpt><trkpt lat="43.653751" lon="11.1659658"><ele>232.0</ele><time>2026-04-18T07:10:53.228Z</time></trkpt><trkpt lat="43.6536977" lon="11.1659"><ele>232.0</ele><time>2026-04-18T07:10:55.228Z</time></trkpt><trkpt lat="43.6536722" lon="11.1658067"><ele>231.99999999999997</ele><time>2026-04-18T07:10:57.228Z</time></trkpt><trkpt lat="43.6536728" lon="11.1656814"><ele>232.0</ele><time>2026-04-18T07:10:59.228Z</time></trkpt><trkpt lat="43.6536768" lon="11.1655613"><ele>230.83333333333331</ele><time>2026-04-18T07:11:01.228Z</time></trkpt><trkpt lat="43.6536969" lon="11.1654391"><ele>229.66666666666666</ele><time>2026-04-18T07:11:03.227Z</time></trkpt><trkpt lat="43.6537262" lon="11.1653234"><ele>228.5</ele><time>2026-04-18T07:11:05.228Z</time></trkpt><trkpt lat="43.6537281" lon="11.1652204"><ele>227.33333333333331</ele><time>2026-04-18T07:11:07.228Z</time></trkpt><trkpt lat="43.6537236" lon="11.1651134"><ele>226.16666666666666</ele><time>2026-04-18T07:11:09.228Z</time></trkpt><trkpt lat="43.6537382" lon="11.1649921"><ele>225.0</ele><time>2026-04-18T07:11:11.228Z</time></trkpt><trkpt lat="43.6537662" lon="11.1648743"><ele>222.2</ele><time>2026-04-18T07:11:13.227Z</time></trkpt><trkpt lat="43.6537953" lon="11.1647558"><ele>219.4</ele><time>2026-04-18T07:11:15.228Z</time></trkpt><trkpt lat="43.6538237" lon="11.1646347"><ele>216.60000000000002</ele><time>2026-04-18T07:11:17.228Z</time></trkpt><trkpt lat="43.653859" lon="11.1645093"><ele>213.8</ele><time>2026-04-18T07:11:19.227Z</time></trkpt><trkpt lat="43.6539113" lon="11.1643726"><ele>211.0</ele><time>2026-04-18T07:11:21.227Z</time></trkpt><trkpt lat="43.653955" lon="11.1642465"><ele>211.0</ele><time>2026-04-18T07:11:23.228Z</time></trkpt><trkpt lat="43.6539998" lon="11.1641102"><ele>211.0</ele><time>2026-04-18T07:11:25.227Z</time></trkpt><trkpt lat="43.6540497" lon="11.1639756"><ele>211.0</ele><time>2026-04-18T07:11:27.227Z</time></trkpt><trkpt lat="43.6540775" lon="11.1638972"><ele>211.0</ele><time>2026-04-18T07:11:28.228Z</time></trkpt><trkpt lat="43.6541207" lon="11.1637439"><ele>211.0</ele><time>2026-04-18T07:11:30.228Z</time></trkpt><trkpt lat="43.6541584" lon="11.1635958"><ele>208.0</ele><time>2026-04-18T07:11:32.228Z</time></trkpt><trkpt lat="43.6541881" lon="11.163436"><ele>205.0</ele><time>2026-04-18T07:11:34.227Z</time></trkpt><trkpt lat="43.6542225" lon="11.1632823"><ele>202.0</ele><time>2026-04-18T07:11:36.227Z</time></trkpt><trkpt lat="43.6542605" lon="11.1631344"><ele>199.0</ele><time>2026-04-18T07:11:38.228Z</time></trkpt><trkpt lat="43.6542868" lon="11.16297"><ele>196.2</ele><time>2026-04-18T07:11:40.228Z</time></trkpt><trkpt lat="43.6543032" lon="11.1628849"><ele>193.39999999999998</ele><time>2026-04-18T07:11:41.228Z</time></trkpt><trkpt lat="43.6543217" lon="11.1627383"><ele>190.6</ele><time>2026-04-18T07:11:43.228Z</time></trkpt><trkpt lat="43.6543424" lon="11.1626104"><ele>187.8</ele><time>2026-04-18T07:11:45.227Z</time></trkpt><trkpt lat="43.6543748" lon="11.1624629"><ele>185.0</ele><time>2026-04-18T07:11:47.228Z</time></trkpt><trkpt lat="43.6544264" lon="11.1623485"><ele>185.0</ele><time>2026-04-18T07:11:49.227Z</time></trkpt><trkpt lat="43.6544701" lon="11.1622763"><ele>185.0</ele><time>2026-04-18T07:11:51.228Z</time></trkpt><trkpt lat="43.6544036" lon="11.1623835"><ele>185.0</ele><time>2026-04-18T07:11:59.228Z</time></trkpt><trkpt lat="43.6543598" lon="11.1625277"><ele>185.0</ele><time>2026-04-18T07:12:01.228Z</time></trkpt><trkpt lat="43.6543388" lon="11.1626214"><ele>185.0</ele><time>2026-04-18T07:12:02.228Z</time></trkpt><trkpt lat="43.6543261" lon="11.1627153"><ele>185.0</ele><time>2026-04-18T07:12:03.228Z</time></trkpt><trkpt lat="43.6543126" lon="11.1628065"><ele>184.99999999999997</ele><time>2026-04-18T07:12:04.227Z</time></trkpt><trkpt lat="43.6542983" lon="11.1628959"><ele>185.0</ele><time>2026-04-18T07:12:05.227Z</time></trkpt><trkpt lat="43.6542858" lon="11.1629847"><ele>185.0</ele><time>2026-04-18T07:12:06.227Z</time></trkpt><trkpt lat="43.6542758" lon="11.1630712"><ele>185.0</ele><time>2026-04-18T07:12:07.228Z</time></trkpt><trkpt lat="43.6542539" lon="11.1631621"><ele>185.0</ele><time>2026-04-18T07:12:08.227Z</time></trkpt><trkpt lat="43.6542334" lon="11.163245"><ele>184.99999999999997</ele><time>2026-04-18T07:12:09.228Z</time></trkpt><trkpt lat="43.6542095" lon="11.1633345"><ele>185.0</ele><time>2026-04-18T07:12:10.227Z</time></trkpt><trkpt lat="43.6541923" lon="11.1634314"><ele>186.99999999999997</ele><time>2026-04-18T07:12:11.228Z</time></trkpt><trkpt lat="43.6541757" lon="11.163523"><ele>189.0</ele><time>2026-04-18T07:12:12.228Z</time></trkpt><trkpt lat="43.6541577" lon="11.1636157"><ele>191.0</ele><time>2026-04-18T07:12:13.228Z</time></trkpt><trkpt lat="43.6541313" lon="11.163703"><ele>193.0</ele><time>2026-04-18T07:12:14.228Z</time></trkpt><trkpt lat="43.6541048" lon="11.1637949"><ele>195.0</ele><time>2026-04-18T07:12:15.227Z</time></trkpt><trkpt lat="43.6540806" lon="11.163889"><ele>196.99999999999997</ele><time>2026-04-18T07:12:16.228Z</time></trkpt><trkpt lat="43.6540521" lon="11.1639884"><ele>199.0</ele><time>2026-04-18T07:12:17.228Z</time></trkpt><trkpt lat="43.6540185" lon="11.1640855"><ele>200.99999999999997</ele><time>2026-04-18T07:12:18.228Z</time></trkpt><trkpt lat="43.6539876" lon="11.1641901"><ele>203.0</ele><time>2026-04-18T07:12:19.228Z</time></trkpt><trkpt lat="43.6539517" lon="11.1642906"><ele>205.0</ele><time>2026-04-18T07:12:20.228Z</time></trkpt><trkpt lat="43.6539175" lon="11.1643915"><ele>207.0</ele><time>2026-04-18T07:12:21.227Z</time></trkpt><trkpt lat="43.6538831" lon="11.1644909"><ele>208.99999999999997</ele><time>2026-04-18T07:12:22.228Z</time></trkpt><trkpt lat="43.653851" lon="11.1645995"><ele>211.0</ele><time>2026-04-18T07:12:23.227Z</time></trkpt><trkpt lat="43.6538208" lon="11.1647127"><ele>210.99999999999997</ele><time>2026-04-18T07:12:24.227Z</time></trkpt><trkpt lat="43.6537866" lon="11.1648294"><ele>211.0</ele><time>2026-04-18T07:12:25.229Z</time></trkpt><trkpt lat="43.6537602" lon="11.1649321"><ele>211.0</ele><time>2026-04-18T07:12:26.228Z</time></trkpt><trkpt lat="43.6537234" lon="11.1650776"><ele>211.0</ele><time>2026-04-18T07:12:28.228Z</time></trkpt><trkpt lat="43.6536778" lon="11.1651647"><ele>210.99999999999997</ele><time>2026-04-18T07:12:31.228Z</time></trkpt><trkpt lat="43.6536054" lon="11.165155"><ele>211.0</ele><time>2026-04-18T07:12:33.228Z</time></trkpt><trkpt lat="43.6535258" lon="11.1651671"><ele>210.20000000000002</ele><time>2026-04-18T07:12:35.228Z</time></trkpt><trkpt lat="43.6534519" lon="11.1652312"><ele>209.4</ele><time>2026-04-18T07:12:37.228Z</time></trkpt><trkpt lat="43.6533685" lon="11.1652772"><ele>208.6</ele><time>2026-04-18T07:12:39.227Z</time></trkpt><trkpt lat="43.6532794" lon="11.1652995"><ele>207.8</ele><time>2026-04-18T07:12:41.228Z</time></trkpt><trkpt lat="43.6531681" lon="11.1652956"><ele>207.0</ele><time>2026-04-18T07:12:43.227Z</time></trkpt><trkpt lat="43.6530645" lon="11.1652577"><ele>207.0</ele><time>2026-04-18T07:12:45.227Z</time></trkpt><trkpt lat="43.6529643" lon="11.1651881"><ele>207.0</ele><time>2026-04-18T07:12:47.227Z</time></trkpt><trkpt lat="43.6528735" lon="11.1651166"><ele>207.0</ele><time>2026-04-18T07:12:49.228Z</time></trkpt><trkpt lat="43.6527755" lon="11.1650807"><ele>207.0</ele><time>2026-04-18T07:12:51.228Z</time></trkpt><trkpt lat="43.6527039" lon="11.1651188"><ele>207.0</ele><time>2026-04-18T07:12:53.228Z</time></trkpt><trkpt lat="43.6526624" lon="11.1652129"><ele>205.66666666666666</ele><time>2026-04-18T07:13:16.228Z</time></trkpt><trkpt lat="43.6526222" lon="11.1653032"><ele>204.33333333333331</ele><time>2026-04-18T07:13:18.227Z</time></trkpt><trkpt lat="43.6525723" lon="11.1654024"><ele>203.0</ele><time>2026-04-18T07:13:20.227Z</time></trkpt><trkpt lat="43.6525556" lon="11.1654907"><ele>201.66666666666666</ele><time>2026-04-18T07:13:22.227Z</time></trkpt><trkpt lat="43.6525332" lon="11.165608"><ele>200.33333333333331</ele><time>2026-04-18T07:13:24.227Z</time></trkpt><trkpt lat="43.6524867" lon="11.1656862"><ele>199.0</ele><time>2026-04-18T07:13:26.227Z</time></trkpt><trkpt lat="43.6524562" lon="11.1658164"><ele>198.99999999999997</ele><time>2026-04-18T07:13:29.227Z</time></trkpt><trkpt lat="43.6524273" lon="11.1659296"><ele>199.0</ele><time>2026-04-18T07:13:31.228Z</time></trkpt><trkpt lat="43.6523575" lon="11.1660118"><ele>199.0</ele><time>2026-04-18T07:13:33.227Z</time></trkpt><trkpt lat="43.6523233" lon="11.1661064"><ele>199.0</ele><time>2026-04-18T07:13:36.228Z</time></trkpt><trkpt lat="43.6522533" lon="11.1660947"><ele>198.99999999999997</ele><time>2026-04-18T07:13:39.227Z</time></trkpt><trkpt lat="43.6521879" lon="11.1660588"><ele>199.0</ele><time>2026-04-18T07:13:41.227Z</time></trkpt><trkpt lat="43.6521231" lon="11.1660265"><ele>198.99999999999997</ele><time>2026-04-18T07:13:43.227Z</time></trkpt><trkpt lat="43.6520443" lon="11.1659827"><ele>199.0</ele><time>2026-04-18T07:13:46.228Z</time></trkpt><trkpt lat="43.6519841" lon="11.16595"><ele>199.0</ele><time>2026-04-18T07:13:48.227Z</time></trkpt><trkpt lat="43.6519245" lon="11.1658944"><ele>199.0</ele><time>2026-04-18T07:13:50.227Z</time></trkpt><trkpt lat="43.6518809" lon="11.1658193"><ele>199.0</ele><time>2026-04-18T07:13:52.227Z</time></trkpt><trkpt lat="43.6518251" lon="11.1657483"><ele>198.99999999999997</ele><time>2026-04-18T07:13:54.228Z</time></trkpt><trkpt lat="43.6517758" lon="11.1656639"><ele>199.0</ele><time>2026-04-18T07:13:56.228Z</time></trkpt><trkpt lat="43.651782" lon="11.1655619"><ele>194.16666666666666</ele><time>2026-04-18T07:13:58.228Z</time></trkpt><trkpt lat="43.6517982" lon="11.1654519"><ele>189.33333333333331</ele><time>2026-04-18T07:14:01.228Z</time></trkpt><trkpt lat="43.6517555" lon="11.1653428"><ele>184.5</ele><time>2026-04-18T07:14:04.228Z</time></trkpt><trkpt lat="43.6516943" lon="11.1653002"><ele>179.66666666666666</ele><time>2026-04-18T07:14:06.227Z</time></trkpt><trkpt lat="43.651624" lon="11.1652694"><ele>174.83333333333331</ele><time>2026-04-18T07:14:08.227Z</time></trkpt><trkpt lat="43.6515414" lon="11.1652332"><ele>170.0</ele><time>2026-04-18T07:14:10.226Z</time></trkpt><trkpt lat="43.651468" lon="11.1652162"><ele>170.0</ele><time>2026-04-18T07:14:12.228Z</time></trkpt><trkpt lat="43.6513998" lon="11.1651653"><ele>170.0</ele><time>2026-04-18T07:14:14.228Z</time></trkpt><trkpt lat="43.6513498" lon="11.1650911"><ele>170.0</ele><time>2026-04-18T07:14:16.228Z</time></trkpt><trkpt lat="43.651357" lon="11.1649741"><ele>170.0</ele><time>2026-04-18T07:14:19.228Z</time></trkpt><trkpt lat="43.6514226" lon="11.1649512"><ele>170.0</ele><time>2026-04-18T07:14:21.227Z</time></trkpt><trkpt lat="43.6514879" lon="11.1648955"><ele>170.0</ele><time>2026-04-18T07:14:23.228Z</time></trkpt><trkpt lat="43.651446" lon="11.1647811"><ele>168.16666666666666</ele><time>2026-04-18T07:14:26.228Z</time></trkpt><trkpt lat="43.6513898" lon="11.1647312"><ele>166.33333333333331</ele><time>2026-04-18T07:14:28.227Z</time></trkpt><trkpt lat="43.6513315" lon="11.1646597"><ele>164.5</ele><time>2026-04-18T07:14:30.227Z</time></trkpt><trkpt lat="43.6512573" lon="11.1645889"><ele>162.66666666666666</ele><time>2026-04-18T07:14:32.227Z</time></trkpt><trkpt lat="43.6511726" lon="11.1645213"><ele>160.83333333333334</ele><time>2026-04-18T07:14:34.228Z</time></trkpt><trkpt lat="43.6510866" lon="11.1644937"><ele>159.0</ele><time>2026-04-18T07:14:36.228Z</time></trkpt><trkpt lat="43.6510061" lon="11.1645005"><ele>156.66666666666666</ele><time>2026-04-18T07:14:38.227Z</time></trkpt><trkpt lat="43.6509229" lon="11.1644987"><ele>154.33333333333334</ele><time>2026-04-18T07:14:40.228Z</time></trkpt><trkpt lat="43.6508525" lon="11.1645182"><ele>152.0</ele><time>2026-04-18T07:14:42.228Z</time></trkpt><trkpt lat="43.6507773" lon="11.1645446"><ele>149.66666666666669</ele><time>2026-04-18T07:14:44.228Z</time></trkpt><trkpt lat="43.6506987" lon="11.164537"><ele>147.33333333333334</ele><time>2026-04-18T07:14:46.228Z</time></trkpt><trkpt lat="43.6506124" lon="11.1645045"><ele>145.0</ele><time>2026-04-18T07:14:48.228Z</time></trkpt><trkpt lat="43.6505084" lon="11.1644939"><ele>145.0</ele><time>2026-04-18T07:14:50.228Z</time></trkpt><trkpt lat="43.6503946" lon="11.1644508"><ele>145.0</ele><time>2026-04-18T07:14:52.227Z</time></trkpt><trkpt lat="43.6502857" lon="11.1644043"><ele>145.0</ele><time>2026-04-18T07:14:54.227Z</time></trkpt><trkpt lat="43.6502179" lon="11.1643822"><ele>145.0</ele><time>2026-04-18T07:14:55.229Z</time></trkpt><trkpt lat="43.6501121" lon="11.1644129"><ele>145.0</ele><time>2026-04-18T07:14:57.227Z</time></trkpt><trkpt lat="43.6500229" lon="11.1645433"><ele>143.33333333333334</ele><time>2026-04-18T07:14:59.228Z</time></trkpt><trkpt lat="43.6499873" lon="11.1646341"><ele>141.66666666666669</ele><time>2026-04-18T07:15:00.228Z</time></trkpt><trkpt lat="43.6499586" lon="11.1647244"><ele>140.0</ele><time>2026-04-18T07:15:01.227Z</time></trkpt><trkpt lat="43.6499215" lon="11.1648142"><ele>138.33333333333334</ele><time>2026-04-18T07:15:02.228Z</time></trkpt><trkpt lat="43.6498969" lon="11.1648975"><ele>136.66666666666666</ele><time>2026-04-18T07:15:03.227Z</time></trkpt><trkpt lat="43.649846" lon="11.1650442"><ele>135.0</ele><time>2026-04-18T07:15:05.227Z</time></trkpt><trkpt lat="43.6497964" lon="11.1651827"><ele>134.83333333333334</ele><time>2026-04-18T07:15:07.228Z</time></trkpt><trkpt lat="43.649767" lon="11.1653189"><ele>134.66666666666666</ele><time>2026-04-18T07:15:09.228Z</time></trkpt><trkpt lat="43.6497326" lon="11.1654351"><ele>134.5</ele><time>2026-04-18T07:15:11.228Z</time></trkpt><trkpt lat="43.6496641" lon="11.165519"><ele>134.33333333333331</ele><time>2026-04-18T07:15:13.227Z</time></trkpt><trkpt lat="43.6495712" lon="11.1654932"><ele>134.16666666666666</ele><time>2026-04-18T07:15:15.227Z</time></trkpt><trkpt lat="43.6495112" lon="11.1654508"><ele>134.0</ele><time>2026-04-18T07:15:16.228Z</time></trkpt><trkpt lat="43.6494553" lon="11.165386"><ele>133.0</ele><time>2026-04-18T07:15:17.228Z</time></trkpt><trkpt lat="43.6493715" lon="11.1652718"><ele>132.0</ele><time>2026-04-18T07:15:19.228Z</time></trkpt><trkpt lat="43.6493262" lon="11.1652053"><ele>131.0</ele><time>2026-04-18T07:15:20.228Z</time></trkpt><trkpt lat="43.6492708" lon="11.1651397"><ele>130.0</ele><time>2026-04-18T07:15:21.228Z</time></trkpt><trkpt lat="43.6492073" lon="11.1650706"><ele>129.0</ele><time>2026-04-18T07:15:22.227Z</time></trkpt><trkpt lat="43.6491332" lon="11.1649963"><ele>128.0</ele><time>2026-04-18T07:15:23.228Z</time></trkpt><trkpt lat="43.6490616" lon="11.1649168"><ele>127.60000000000001</ele><time>2026-04-18T07:15:24.226Z</time></trkpt><trkpt lat="43.6489922" lon="11.1648294"><ele>127.20000000000002</ele><time>2026-04-18T07:15:25.227Z</time></trkpt><trkpt lat="43.648912" lon="11.1647202"><ele>126.8</ele><time>2026-04-18T07:15:26.228Z</time></trkpt><trkpt lat="43.6488414" lon="11.1646234"><ele>126.4</ele><time>2026-04-18T07:15:27.229Z</time></trkpt><trkpt lat="43.6487797" lon="11.1645368"><ele>126.0</ele><time>2026-04-18T07:15:28.228Z</time></trkpt><trkpt lat="43.6487088" lon="11.1644509"><ele>126.0</ele><time>2026-04-18T07:15:29.227Z</time></trkpt><trkpt lat="43.6486301" lon="11.1643677"><ele>126.0</ele><time>2026-04-18T07:15:30.227Z</time></trkpt><trkpt lat="43.6485572" lon="11.1642817"><ele>126.0</ele><time>2026-04-18T07:15:31.228Z</time></trkpt><trkpt lat="43.6484993" lon="11.1642133"><ele>126.0</ele><time>2026-04-18T07:15:32.228Z</time></trkpt><trkpt lat="43.6484418" lon="11.1641425"><ele>126.0</ele><time>2026-04-18T07:15:33.227Z</time></trkpt><trkpt lat="43.6483845" lon="11.1640861"><ele>126.0</ele><time>2026-04-18T07:15:34.228Z</time></trkpt><trkpt lat="43.64831" lon="11.1640263"><ele>123.25</ele><time>2026-04-18T07:15:35.228Z</time></trkpt><trkpt lat="43.6482301" lon="11.1639651"><ele>120.5</ele><time>2026-04-18T07:15:36.227Z</time></trkpt><trkpt lat="43.6481189" lon="11.1639068"><ele>117.75</ele><time>2026-04-18T07:15:37.227Z</time></trkpt><trkpt lat="43.6480183" lon="11.1638333"><ele>115.0</ele><time>2026-04-18T07:15:38.229Z</time></trkpt><trkpt lat="43.6478999" lon="11.1637524"><ele>115.0</ele><time>2026-04-18T07:15:39.228Z</time></trkpt><trkpt lat="43.6478015" lon="11.1636758"><ele>115.0</ele><time>2026-04-18T07:15:40.229Z</time></trkpt><trkpt lat="43.6477046" lon="11.1635959"><ele>115.0</ele><time>2026-04-18T07:15:41.228Z</time></trkpt><trkpt lat="43.647632" lon="11.1635263"><ele>115.0</ele><time>2026-04-18T07:15:42.228Z</time></trkpt><trkpt lat="43.6475708" lon="11.1634677"><ele>115.0</ele><time>2026-04-18T07:15:43.228Z</time></trkpt><trkpt lat="43.6474689" lon="11.1633934"><ele>114.50000000000001</ele><time>2026-04-18T07:15:45.228Z</time></trkpt><trkpt lat="43.6473959" lon="11.1633905"><ele>114.0</ele><time>2026-04-18T07:15:47.228Z</time></trkpt><trkpt lat="43.6473385" lon="11.1634294"><ele>113.5</ele><time>2026-04-18T07:15:48.228Z</time></trkpt><trkpt lat="43.6472791" lon="11.1634912"><ele>113.0</ele><time>2026-04-18T07:15:49.228Z</time></trkpt><trkpt lat="43.6472063" lon="11.1635675"><ele>112.50000000000001</ele><time>2026-04-18T07:15:50.227Z</time></trkpt><trkpt lat="43.6471176" lon="11.1636473"><ele>112.0</ele><time>2026-04-18T07:15:51.228Z</time></trkpt><trkpt lat="43.6470162" lon="11.1637358"><ele>112.25</ele><time>2026-04-18T07:15:52.228Z</time></trkpt><trkpt lat="43.6469083" lon="11.1638274"><ele>112.5</ele><time>2026-04-18T07:15:53.228Z</time></trkpt><trkpt lat="43.6467846" lon="11.1639162"><ele>112.75</ele><time>2026-04-18T07:15:54.228Z</time></trkpt><trkpt lat="43.6466615" lon="11.1639982"><ele>113.0</ele><time>2026-04-18T07:15:55.228Z</time></trkpt><trkpt lat="43.6465283" lon="11.1640582"><ele>113.0</ele><time>2026-04-18T07:15:56.229Z</time></trkpt><trkpt lat="43.6463906" lon="11.164091"><ele>113.0</ele><time>2026-04-18T07:15:57.228Z</time></trkpt><trkpt lat="43.6462646" lon="11.1641115"><ele>113.0</ele><time>2026-04-18T07:15:58.228Z</time></trkpt><trkpt lat="43.646149" lon="11.1641285"><ele>113.0</ele><time>2026-04-18T07:15:59.228Z</time></trkpt><trkpt lat="43.6460456" lon="11.1641509"><ele>113.2</ele><time>2026-04-18T07:16:00.228Z</time></trkpt><trkpt lat="43.6459729" lon="11.1642116"><ele>113.4</ele><time>2026-04-18T07:16:01.227Z</time></trkpt><trkpt lat="43.6459416" lon="11.1642981"><ele>113.60000000000001</ele><time>2026-04-18T07:16:02.228Z</time></trkpt><trkpt lat="43.6459035" lon="11.1644481"><ele>113.80000000000001</ele><time>2026-04-18T07:16:04.228Z</time></trkpt><trkpt lat="43.6458193" lon="11.1644167"><ele>114.0</ele><time>2026-04-18T07:16:07.228Z</time></trkpt><trkpt lat="43.6458068" lon="11.1642414"><ele>114.0</ele><time>2026-04-18T07:16:09.228Z</time></trkpt><trkpt lat="43.6457982" lon="11.164119"><ele>114.0</ele><time>2026-04-18T07:16:10.228Z</time></trkpt><trkpt lat="43.6457859" lon="11.163972"><ele>114.0</ele><time>2026-04-18T07:16:11.228Z</time></trkpt><trkpt lat="43.6457718" lon="11.1638277"><ele>114.0</ele><time>2026-04-18T07:16:12.228Z</time></trkpt><trkpt lat="43.6457536" lon="11.1636695"><ele>114.0</ele><time>2026-04-18T07:16:13.227Z</time></trkpt><trkpt lat="43.6457297" lon="11.1634921"><ele>113.25</ele><time>2026-04-18T07:16:14.227Z</time></trkpt><trkpt lat="43.6457043" lon="11.1633112"><ele>112.5</ele><time>2026-04-18T07:16:15.228Z</time></trkpt><trkpt lat="43.6456666" lon="11.163135"><ele>111.75</ele><time>2026-04-18T07:16:16.227Z</time></trkpt><trkpt lat="43.6455981" lon="11.1629727"><ele>111.0</ele><time>2026-04-18T07:16:17.228Z</time></trkpt><trkpt lat="43.6454883" lon="11.1628205"><ele>111.0</ele><time>2026-04-18T07:16:18.228Z</time></trkpt><trkpt lat="43.6453646" lon="11.16269"><ele>111.0</ele><time>2026-04-18T07:16:19.228Z</time></trkpt><trkpt lat="43.6452334" lon="11.1625705"><ele>111.0</ele><time>2026-04-18T07:16:20.228Z</time></trkpt><trkpt lat="43.645099" lon="11.1624506"><ele>112.66666666666666</ele><time>2026-04-18T07:16:21.228Z</time></trkpt><trkpt lat="43.6449663" lon="11.1623181"><ele>114.33333333333333</ele><time>2026-04-18T07:16:22.229Z</time></trkpt><trkpt lat="43.6448324" lon="11.1621916"><ele>116.0</ele><time>2026-04-18T07:16:23.228Z</time></trkpt><trkpt lat="43.6447036" lon="11.162072"><ele>116.0</ele><time>2026-04-18T07:16:24.227Z</time></trkpt><trkpt lat="43.64458" lon="11.1619488"><ele>116.0</ele><time>2026-04-18T07:16:25.228Z</time></trkpt><trkpt lat="43.6444619" lon="11.1618312"><ele>116.0</ele><time>2026-04-18T07:16:26.228Z</time></trkpt><trkpt lat="43.6443505" lon="11.1617103"><ele>116.0</ele><time>2026-04-18T07:16:27.228Z</time></trkpt><trkpt lat="43.6442406" lon="11.1615874"><ele>117.33333333333333</ele><time>2026-04-18T07:16:28.227Z</time></trkpt><trkpt lat="43.6441259" lon="11.1614484"><ele>118.66666666666666</ele><time>2026-04-18T07:16:29.227Z</time></trkpt><trkpt lat="43.644011" lon="11.1613064"><ele>120.0</ele><time>2026-04-18T07:16:30.228Z</time></trkpt><trkpt lat="43.6438931" lon="11.1611489"><ele>120.0</ele><time>2026-04-18T07:16:31.227Z</time></trkpt><trkpt lat="43.6437817" lon="11.1609849"><ele>120.0</ele><time>2026-04-18T07:16:32.227Z</time></trkpt><trkpt lat="43.6436733" lon="11.1608093"><ele>120.0</ele><time>2026-04-18T07:16:33.228Z</time></trkpt><trkpt lat="43.6435637" lon="11.1606278"><ele>121.0</ele><time>2026-04-18T07:16:34.227Z</time></trkpt><trkpt lat="43.6434555" lon="11.1604553"><ele>122.0</ele><time>2026-04-18T07:16:35.228Z</time></trkpt><trkpt lat="43.6433483" lon="11.1602834"><ele>123.0</ele><time>2026-04-18T07:16:36.228Z</time></trkpt><trkpt lat="43.6432511" lon="11.160123"><ele>123.0</ele><time>2026-04-18T07:16:37.228Z</time></trkpt><trkpt lat="43.6431541" lon="11.1599576"><ele>123.0</ele><time>2026-04-18T07:16:38.228Z</time></trkpt><trkpt lat="43.643058" lon="11.1598116"><ele>123.0</ele><time>2026-04-18T07:16:39.228Z</time></trkpt><trkpt lat="43.6429651" lon="11.1596607"><ele>123.0</ele><time>2026-04-18T07:16:40.227Z</time></trkpt><trkpt lat="43.6428725" lon="11.1595034"><ele>124.33333333333334</ele><time>2026-04-18T07:16:41.227Z</time></trkpt><trkpt lat="43.6427726" lon="11.1593531"><ele>125.66666666666667</ele><time>2026-04-18T07:16:42.228Z</time></trkpt><trkpt lat="43.6426583" lon="11.1592104"><ele>127.0</ele><time>2026-04-18T07:16:43.228Z</time></trkpt><trkpt lat="43.6425257" lon="11.1590813"><ele>127.33333333333334</ele><time>2026-04-18T07:16:44.228Z</time></trkpt><trkpt lat="43.6423795" lon="11.1589661"><ele>127.66666666666666</ele><time>2026-04-18T07:16:45.227Z</time></trkpt><trkpt lat="43.6422212" lon="11.1588724"><ele>128.0</ele><time>2026-04-18T07:16:46.228Z</time></trkpt><trkpt lat="43.6420746" lon="11.1587922"><ele>128.5</ele><time>2026-04-18T07:16:47.228Z</time></trkpt><trkpt lat="43.6419346" lon="11.1587305"><ele>129.0</ele><time>2026-04-18T07:16:48.228Z</time></trkpt><trkpt lat="43.6417893" lon="11.1587079"><ele>129.5</ele><time>2026-04-18T07:16:49.228Z</time></trkpt><trkpt lat="43.6416367" lon="11.1587266"><ele>130.0</ele><time>2026-04-18T07:16:50.228Z</time></trkpt><trkpt lat="43.6414817" lon="11.1587502"><ele>130.0</ele><time>2026-04-18T07:16:51.227Z</time></trkpt><trkpt lat="43.6413406" lon="11.1587805"><ele>130.0</ele><time>2026-04-18T07:16:52.227Z</time></trkpt><trkpt lat="43.6412277" lon="11.1587844"><ele>130.0</ele><time>2026-04-18T07:16:53.227Z</time></trkpt><trkpt lat="43.6411592" lon="11.1587843"><ele>130.0</ele><time>2026-04-18T07:16:54.227Z</time></trkpt><trkpt lat="43.6410598" lon="11.1587564"><ele>130.0</ele><time>2026-04-18T07:16:56.228Z</time></trkpt><trkpt lat="43.6409942" lon="11.1587305"><ele>130.0</ele><time>2026-04-18T07:16:58.227Z</time></trkpt><trkpt lat="43.6410472" lon="11.1588011"><ele>130.0</ele><time>2026-04-18T07:17:02.227Z</time></trkpt><trkpt lat="43.6411512" lon="11.1588399"><ele>130.0</ele><time>2026-04-18T07:17:04.228Z</time></trkpt><trkpt lat="43.6411746" lon="11.158927"><ele>130.0</ele><time>2026-04-18T07:17:06.228Z</time></trkpt><trkpt lat="43.6411107" lon="11.1589812"><ele>130.0</ele><time>2026-04-18T07:17:08.228Z</time></trkpt><trkpt lat="43.6410075" lon="11.1589781"><ele>130.0</ele><time>2026-04-18T07:17:10.228Z</time></trkpt><trkpt lat="43.6408832" lon="11.1589629"><ele>130.5</ele><time>2026-04-18T07:17:12.228Z</time></trkpt><trkpt lat="43.6408122" lon="11.1589536"><ele>131.0</ele><time>2026-04-18T07:17:13.228Z</time></trkpt><trkpt lat="43.6407366" lon="11.1589552"><ele>131.5</ele><time>2026-04-18T07:17:14.229Z</time></trkpt><trkpt lat="43.640648" lon="11.1589642"><ele>132.0</ele><time>2026-04-18T07:17:15.228Z</time></trkpt><trkpt lat="43.6405662" lon="11.1589705"><ele>132.5</ele><time>2026-04-18T07:17:16.228Z</time></trkpt><trkpt lat="43.6404824" lon="11.158971"><ele>133.0</ele><time>2026-04-18T07:17:17.227Z</time></trkpt><trkpt lat="43.6404027" lon="11.1589799"><ele>133.0</ele><time>2026-04-18T07:17:18.228Z</time></trkpt><trkpt lat="43.6403229" lon="11.1590021"><ele>133.0</ele><time>2026-04-18T07:17:19.227Z</time></trkpt><trkpt lat="43.6402603" lon="11.1590237"><ele>133.0</ele><time>2026-04-18T07:17:20.228Z</time></trkpt><trkpt lat="43.6401986" lon="11.1590514"><ele>133.0</ele><time>2026-04-18T07:17:21.228Z</time></trkpt><trkpt lat="43.6401311" lon="11.1590775"><ele>133.0</ele><time>2026-04-18T07:17:22.228Z</time></trkpt><trkpt lat="43.6400603" lon="11.1590836"><ele>133.0</ele><time>2026-04-18T07:17:23.228Z</time></trkpt><trkpt lat="43.6399872" lon="11.1590662"><ele>133.0</ele><time>2026-04-18T07:17:24.228Z</time></trkpt><trkpt lat="43.6399096" lon="11.1590477"><ele>133.4</ele><time>2026-04-18T07:17:25.227Z</time></trkpt><trkpt lat="43.6398471" lon="11.1590178"><ele>133.8</ele><time>2026-04-18T07:17:26.228Z</time></trkpt><trkpt lat="43.639726" lon="11.1590034"><ele>134.2</ele><time>2026-04-18T07:17:28.228Z</time></trkpt><trkpt lat="43.6396588" lon="11.1591058"><ele>134.6</ele><time>2026-04-18T07:17:30.227Z</time></trkpt><trkpt lat="43.6397024" lon="11.1592408"><ele>135.0</ele><time>2026-04-18T07:17:32.227Z</time></trkpt><trkpt lat="43.6397581" lon="11.1592984"><ele>135.6</ele><time>2026-04-18T07:17:33.228Z</time></trkpt><trkpt lat="43.6398347" lon="11.1593454"><ele>136.2</ele><time>2026-04-18T07:17:34.227Z</time></trkpt><trkpt lat="43.6399032" lon="11.1593821"><ele>136.8</ele><time>2026-04-18T07:17:35.228Z</time></trkpt><trkpt lat="43.6399959" lon="11.1594827"><ele>137.4</ele><time>2026-04-18T07:17:37.228Z</time></trkpt><trkpt lat="43.6400209" lon="11.1596189"><ele>138.0</ele><time>2026-04-18T07:17:39.227Z</time></trkpt><trkpt lat="43.6399642" lon="11.1597156"><ele>138.0</ele><time>2026-04-18T07:17:41.228Z</time></trkpt><trkpt lat="43.6398633" lon="11.1597169"><ele>138.0</ele><time>2026-04-18T07:17:43.228Z</time></trkpt><trkpt lat="43.6398049" lon="11.1596768"><ele>138.0</ele><time>2026-04-18T07:17:44.228Z</time></trkpt><trkpt lat="43.6397218" lon="11.1596382"><ele>138.0</ele><time>2026-04-18T07:17:45.228Z</time></trkpt><trkpt lat="43.6396426" lon="11.1596104"><ele>138.0</ele><time>2026-04-18T07:17:46.228Z</time></trkpt><trkpt lat="43.6395656" lon="11.1596037"><ele>138.0</ele><time>2026-04-18T07:17:47.228Z</time></trkpt><trkpt lat="43.6394861" lon="11.1596233"><ele>139.16666666666666</ele><time>2026-04-18T07:17:48.228Z</time></trkpt><trkpt lat="43.6394186" lon="11.1596636"><ele>140.33333333333334</ele><time>2026-04-18T07:17:49.228Z</time></trkpt><trkpt lat="43.6393554" lon="11.1597122"><ele>141.5</ele><time>2026-04-18T07:17:50.228Z</time></trkpt><trkpt lat="43.6392759" lon="11.1597641"><ele>142.66666666666669</ele><time>2026-04-18T07:17:51.229Z</time></trkpt><trkpt lat="43.6391928" lon="11.1598169"><ele>143.83333333333334</ele><time>2026-04-18T07:17:52.227Z</time></trkpt><trkpt lat="43.6391051" lon="11.1598562"><ele>145.0</ele><time>2026-04-18T07:17:53.228Z</time></trkpt><trkpt lat="43.6390058" lon="11.1599008"><ele>146.75</ele><time>2026-04-18T07:17:54.228Z</time></trkpt><trkpt lat="43.6388982" lon="11.1599504"><ele>148.5</ele><time>2026-04-18T07:17:55.228Z</time></trkpt><trkpt lat="43.6387909" lon="11.1600126"><ele>150.25</ele><time>2026-04-18T07:17:56.227Z</time></trkpt><trkpt lat="43.6386761" lon="11.1600817"><ele>152.0</ele><time>2026-04-18T07:17:57.228Z</time></trkpt><trkpt lat="43.6385582" lon="11.160152"><ele>153.75</ele><time>2026-04-18T07:17:58.228Z</time></trkpt><trkpt lat="43.6384412" lon="11.1602196"><ele>155.5</ele><time>2026-04-18T07:17:59.228Z</time></trkpt><trkpt lat="43.6383301" lon="11.1602831"><ele>157.25</ele><time>2026-04-18T07:18:00.228Z</time></trkpt><trkpt lat="43.6382191" lon="11.1603519"><ele>159.0</ele><time>2026-04-18T07:18:01.227Z</time></trkpt><trkpt lat="43.6381072" lon="11.1604216"><ele>159.0</ele><time>2026-04-18T07:18:02.227Z</time></trkpt><trkpt lat="43.6380028" lon="11.1605072"><ele>159.0</ele><time>2026-04-18T07:18:03.228Z</time></trkpt><trkpt lat="43.6379129" lon="11.1606107"><ele>159.0</ele><time>2026-04-18T07:18:04.229Z</time></trkpt><trkpt lat="43.6378341" lon="11.1607245"><ele>159.0</ele><time>2026-04-18T07:18:05.228Z</time></trkpt><trkpt lat="43.6377524" lon="11.1608423"><ele>162.0</ele><time>2026-04-18T07:18:06.229Z</time></trkpt><trkpt lat="43.6376691" lon="11.1609531"><ele>165.0</ele><time>2026-04-18T07:18:07.228Z</time></trkpt><trkpt lat="43.6375891" lon="11.1610559"><ele>168.0</ele><time>2026-04-18T07:18:08.229Z</time></trkpt><trkpt lat="43.6375159" lon="11.1611551"><ele>171.0</ele><time>2026-04-18T07:18:09.227Z</time></trkpt><trkpt lat="43.6374501" lon="11.1612432"><ele>174.0</ele><time>2026-04-18T07:18:10.228Z</time></trkpt><trkpt lat="43.6373828" lon="11.1613296"><ele>174.0</ele><time>2026-04-18T07:18:11.228Z</time></trkpt><trkpt lat="43.6373218" lon="11.1614151"><ele>174.0</ele><time>2026-04-18T07:18:12.228Z</time></trkpt><trkpt lat="43.6372648" lon="11.1615037"><ele>174.0</ele><time>2026-04-18T07:18:13.228Z</time></trkpt><trkpt lat="43.6372082" lon="11.1615847"><ele>174.0</ele><time>2026-04-18T07:18:14.227Z</time></trkpt><trkpt lat="43.6371236" lon="11.161667"><ele>174.0</ele><time>2026-04-18T07:18:16.228Z</time></trkpt><trkpt lat="43.6370454" lon="11.1616665"><ele>174.0</ele><time>2026-04-18T07:18:18.228Z</time></trkpt><trkpt lat="43.6371285" lon="11.1616509"><ele>174.0</ele><time>2026-04-18T07:18:31.227Z</time></trkpt><trkpt lat="43.6372075" lon="11.1615427"><ele>174.0</ele><time>2026-04-18T07:18:33.228Z</time></trkpt><trkpt lat="43.6372635" lon="11.1614672"><ele>174.0</ele><time>2026-04-18T07:18:34.228Z</time></trkpt><trkpt lat="43.6373184" lon="11.1613911"><ele>174.0</ele><time>2026-04-18T07:18:35.228Z</time></trkpt><trkpt lat="43.6373696" lon="11.1613188"><ele>174.0</ele><time>2026-04-18T07:18:36.228Z</time></trkpt><trkpt lat="43.6374205" lon="11.161248"><ele>174.0</ele><time>2026-04-18T07:18:37.227Z</time></trkpt><trkpt lat="43.6374672" lon="11.161182"><ele>174.0</ele><time>2026-04-18T07:18:38.23Z</time></trkpt><trkpt lat="43.6375244" lon="11.1611117"><ele>174.0</ele><time>2026-04-18T07:18:40.228Z</time></trkpt><trkpt lat="43.6375833" lon="11.161173"><ele>174.0</ele><time>2026-04-18T07:18:43.229Z</time></trkpt><trkpt lat="43.6375574" lon="11.1612639"><ele>174.0</ele><time>2026-04-18T07:18:45.228Z</time></trkpt><trkpt lat="43.637516" lon="11.1613626"><ele>174.0</ele><time>2026-04-18T07:18:47.227Z</time></trkpt><trkpt lat="43.6374692" lon="11.1614524"><ele>174.0</ele><time>2026-04-18T07:18:49.233Z</time></trkpt><trkpt lat="43.6374463" lon="11.161567"><ele>173.2</ele><time>2026-04-18T07:18:51.231Z</time></trkpt><trkpt lat="43.6374147" lon="11.1616939"><ele>172.39999999999998</ele><time>2026-04-18T07:18:53.228Z</time></trkpt><trkpt lat="43.6373791" lon="11.1618235"><ele>171.6</ele><time>2026-04-18T07:18:55.228Z</time></trkpt><trkpt lat="43.6373404" lon="11.1619714"><ele>170.8</ele><time>2026-04-18T07:18:57.229Z</time></trkpt><trkpt lat="43.6372795" lon="11.1621193"><ele>170.0</ele><time>2026-04-18T07:18:59.227Z</time></trkpt><trkpt lat="43.6372175" lon="11.1622699"><ele>170.0</ele><time>2026-04-18T07:19:01.228Z</time></trkpt><trkpt lat="43.6371745" lon="11.1623419"><ele>170.0</ele><time>2026-04-18T07:19:02.228Z</time></trkpt><trkpt lat="43.6371333" lon="11.1624099"><ele>170.0</ele><time>2026-04-18T07:19:03.227Z</time></trkpt><trkpt lat="43.6370821" lon="11.1624756"><ele>170.0</ele><time>2026-04-18T07:19:04.227Z</time></trkpt><trkpt lat="43.637031" lon="11.162548"><ele>170.0</ele><time>2026-04-18T07:19:05.227Z</time></trkpt><trkpt lat="43.6369706" lon="11.1626344"><ele>170.0</ele><time>2026-04-18T07:19:06.228Z</time></trkpt><trkpt lat="43.6369092" lon="11.1627335"><ele>168.8</ele><time>2026-04-18T07:19:07.228Z</time></trkpt><trkpt lat="43.6368377" lon="11.1628244"><ele>167.6</ele><time>2026-04-18T07:19:08.228Z</time></trkpt><trkpt lat="43.6367839" lon="11.1629269"><ele>166.39999999999998</ele><time>2026-04-18T07:19:09.227Z</time></trkpt><trkpt lat="43.6367273" lon="11.163047"><ele>165.2</ele><time>2026-04-18T07:19:10.228Z</time></trkpt><trkpt lat="43.6366602" lon="11.1631778"><ele>164.0</ele><time>2026-04-18T07:19:11.227Z</time></trkpt><trkpt lat="43.6365849" lon="11.16331"><ele>164.0</ele><time>2026-04-18T07:19:12.227Z</time></trkpt><trkpt lat="43.6365196" lon="11.1634675"><ele>164.0</ele><time>2026-04-18T07:19:13.229Z</time></trkpt><trkpt lat="43.6364511" lon="11.1636333"><ele>164.0</ele><time>2026-04-18T07:19:14.227Z</time></trkpt><trkpt lat="43.6363789" lon="11.163816"><ele>164.0</ele><time>2026-04-18T07:19:15.228Z</time></trkpt><trkpt lat="43.6363186" lon="11.1639963"><ele>165.25</ele><time>2026-04-18T07:19:16.227Z</time></trkpt><trkpt lat="43.6362483" lon="11.1641566"><ele>166.5</ele><time>2026-04-18T07:19:17.228Z</time></trkpt><trkpt lat="43.6361935" lon="11.1642889"><ele>167.75</ele><time>2026-04-18T07:19:18.228Z</time></trkpt><trkpt lat="43.6361331" lon="11.164432"><ele>169.0</ele><time>2026-04-18T07:19:19.229Z</time></trkpt><trkpt lat="43.6360702" lon="11.1645729"><ele>169.0</ele><time>2026-04-18T07:19:20.229Z</time></trkpt><trkpt lat="43.6360138" lon="11.1647144"><ele>169.0</ele><time>2026-04-18T07:19:21.228Z</time></trkpt><trkpt lat="43.635962" lon="11.1648645"><ele>169.0</ele><time>2026-04-18T07:19:22.228Z</time></trkpt><trkpt lat="43.6359264" lon="11.1650091"><ele>169.0</ele><time>2026-04-18T07:19:23.227Z</time></trkpt><trkpt lat="43.6358912" lon="11.1651369"><ele>169.0</ele><time>2026-04-18T07:19:24.228Z</time></trkpt><trkpt lat="43.6358531" lon="11.1652634"><ele>167.39999999999998</ele><time>2026-04-18T07:19:25.228Z</time></trkpt><trkpt lat="43.6358144" lon="11.165393"><ele>165.8</ele><time>2026-04-18T07:19:26.228Z</time></trkpt><trkpt lat="43.6357771" lon="11.1655265"><ele>164.2</ele><time>2026-04-18T07:19:27.227Z</time></trkpt><trkpt lat="43.6357402" lon="11.1656605"><ele>162.60000000000002</ele><time>2026-04-18T07:19:28.228Z</time></trkpt><trkpt lat="43.6356945" lon="11.1657936"><ele>161.0</ele><time>2026-04-18T07:19:29.228Z</time></trkpt><trkpt lat="43.6356545" lon="11.1659026"><ele>160.16666666666666</ele><time>2026-04-18T07:19:30.228Z</time></trkpt><trkpt lat="43.6356124" lon="11.1660077"><ele>159.33333333333331</ele><time>2026-04-18T07:19:31.228Z</time></trkpt><trkpt lat="43.6355766" lon="11.1661168"><ele>158.5</ele><time>2026-04-18T07:19:32.228Z</time></trkpt><trkpt lat="43.6355228" lon="11.1662229"><ele>157.66666666666666</ele><time>2026-04-18T07:19:33.229Z</time></trkpt><trkpt lat="43.6354706" lon="11.1663218"><ele>156.83333333333334</ele><time>2026-04-18T07:19:34.228Z</time></trkpt><trkpt lat="43.6354314" lon="11.1664158"><ele>156.0</ele><time>2026-04-18T07:19:35.228Z</time></trkpt><trkpt lat="43.6353999" lon="11.1665077"><ele>155.16666666666666</ele><time>2026-04-18T07:19:36.228Z</time></trkpt><trkpt lat="43.6353796" lon="11.1665949"><ele>154.33333333333334</ele><time>2026-04-18T07:19:37.229Z</time></trkpt><trkpt lat="43.6353657" lon="11.1667518"><ele>153.5</ele><time>2026-04-18T07:19:39.228Z</time></trkpt><trkpt lat="43.6353682" lon="11.1668508"><ele>152.66666666666669</ele><time>2026-04-18T07:19:40.228Z</time></trkpt><trkpt lat="43.6353748" lon="11.1669618"><ele>151.83333333333334</ele><time>2026-04-18T07:19:41.228Z</time></trkpt><trkpt lat="43.6353779" lon="11.1670696"><ele>151.0</ele><time>2026-04-18T07:19:42.229Z</time></trkpt><trkpt lat="43.6353752" lon="11.1671661"><ele>151.0</ele><time>2026-04-18T07:19:43.228Z</time></trkpt><trkpt lat="43.6353791" lon="11.1672573"><ele>151.0</ele><time>2026-04-18T07:19:44.228Z</time></trkpt><trkpt lat="43.6353932" lon="11.1673432"><ele>151.0</ele><time>2026-04-18T07:19:45.228Z</time></trkpt><trkpt lat="43.6353913" lon="11.1674329"><ele>151.0</ele><time>2026-04-18T07:19:46.228Z</time></trkpt><trkpt lat="43.6353954" lon="11.1675216"><ele>151.0</ele><time>2026-04-18T07:19:47.23Z</time></trkpt><trkpt lat="43.6353772" lon="11.1676738"><ele>151.0</ele><time>2026-04-18T07:19:49.228Z</time></trkpt><trkpt lat="43.63531" lon="11.1677999"><ele>151.8</ele><time>2026-04-18T07:19:51.228Z</time></trkpt><trkpt lat="43.6352746" lon="11.1678747"><ele>152.6</ele><time>2026-04-18T07:19:52.228Z</time></trkpt><trkpt lat="43.6352357" lon="11.1679444"><ele>153.4</ele><time>2026-04-18T07:19:53.228Z</time></trkpt><trkpt lat="43.6351711" lon="11.1680702"><ele>154.2</ele><time>2026-04-18T07:19:55.228Z</time></trkpt><trkpt lat="43.6351199" lon="11.1682148"><ele>155.0</ele><time>2026-04-18T07:19:57.227Z</time></trkpt><trkpt lat="43.6350989" lon="11.1684085"><ele>153.4</ele><time>2026-04-18T07:19:59.228Z</time></trkpt><trkpt lat="43.6350865" lon="11.1685495"><ele>151.8</ele><time>2026-04-18T07:20:00.228Z</time></trkpt><trkpt lat="43.6350717" lon="11.1686898"><ele>150.2</ele><time>2026-04-18T07:20:01.228Z</time></trkpt><trkpt lat="43.6350633" lon="11.1688272"><ele>148.6</ele><time>2026-04-18T07:20:02.229Z</time></trkpt><trkpt lat="43.6350556" lon="11.1689588"><ele>147.0</ele><time>2026-04-18T07:20:03.228Z</time></trkpt><trkpt lat="43.6350527" lon="11.1690838"><ele>145.83333333333334</ele><time>2026-04-18T07:20:04.227Z</time></trkpt><trkpt lat="43.6350404" lon="11.1691977"><ele>144.66666666666666</ele><time>2026-04-18T07:20:05.228Z</time></trkpt><trkpt lat="43.6350175" lon="11.1693086"><ele>143.5</ele><time>2026-04-18T07:20:06.228Z</time></trkpt><trkpt lat="43.6349783" lon="11.1694"><ele>142.33333333333331</ele><time>2026-04-18T07:20:07.228Z</time></trkpt><trkpt lat="43.6349318" lon="11.16948"><ele>141.16666666666666</ele><time>2026-04-18T07:20:08.228Z</time></trkpt><trkpt lat="43.634876" lon="11.1695576"><ele>140.0</ele><time>2026-04-18T07:20:09.229Z</time></trkpt><trkpt lat="43.6347926" lon="11.1696316"><ele>140.0</ele><time>2026-04-18T07:20:10.229Z</time></trkpt><trkpt lat="43.6346943" lon="11.1696893"><ele>140.0</ele><time>2026-04-18T07:20:11.228Z</time></trkpt><trkpt lat="43.6345834" lon="11.1697486"><ele>140.0</ele><time>2026-04-18T07:20:12.228Z</time></trkpt><trkpt lat="43.6344659" lon="11.1698178"><ele>140.0</ele><time>2026-04-18T07:20:13.228Z</time></trkpt><trkpt lat="43.634343" lon="11.1698845"><ele>139.5</ele><time>2026-04-18T07:20:14.228Z</time></trkpt><trkpt lat="43.6342264" lon="11.1699591"><ele>139.0</ele><time>2026-04-18T07:20:15.228Z</time></trkpt><trkpt lat="43.6341021" lon="11.1700398"><ele>138.5</ele><time>2026-04-18T07:20:16.227Z</time></trkpt><trkpt lat="43.6339602" lon="11.1701317"><ele>138.0</ele><time>2026-04-18T07:20:17.229Z</time></trkpt><trkpt lat="43.6338206" lon="11.1702164"><ele>138.0</ele><time>2026-04-18T07:20:18.228Z</time></trkpt><trkpt lat="43.6336751" lon="11.1703103"><ele>138.0</ele><time>2026-04-18T07:20:19.227Z</time></trkpt><trkpt lat="43.6335396" lon="11.1704034"><ele>138.0</ele><time>2026-04-18T07:20:20.227Z</time></trkpt><trkpt lat="43.6334254" lon="11.1704922"><ele>138.0</ele><time>2026-04-18T07:20:21.228Z</time></trkpt><trkpt lat="43.6333245" lon="11.1706136"><ele>138.5</ele><time>2026-04-18T07:20:22.228Z</time></trkpt><trkpt lat="43.6332363" lon="11.1707607"><ele>139.0</ele><time>2026-04-18T07:20:23.227Z</time></trkpt><trkpt lat="43.6331477" lon="11.1709204"><ele>139.5</ele><time>2026-04-18T07:20:24.228Z</time></trkpt><trkpt lat="43.6330651" lon="11.1710721"><ele>140.0</ele><time>2026-04-18T07:20:25.228Z</time></trkpt><trkpt lat="43.6329812" lon="11.1712014"><ele>140.0</ele><time>2026-04-18T07:20:26.228Z</time></trkpt><trkpt lat="43.632883" lon="11.1713253"><ele>140.0</ele><time>2026-04-18T07:20:27.228Z</time></trkpt><trkpt lat="43.6327799" lon="11.1714347"><ele>140.0</ele><time>2026-04-18T07:20:28.229Z</time></trkpt><trkpt lat="43.632669" lon="11.1715391"><ele>140.0</ele><time>2026-04-18T07:20:29.227Z</time></trkpt><trkpt lat="43.6325564" lon="11.1716381"><ele>140.75</ele><time>2026-04-18T07:20:30.228Z</time></trkpt><trkpt lat="43.6324347" lon="11.1717291"><ele>141.5</ele><time>2026-04-18T07:20:31.228Z</time></trkpt><trkpt lat="43.6323085" lon="11.1718153"><ele>142.25</ele><time>2026-04-18T07:20:32.228Z</time></trkpt><trkpt lat="43.63218" lon="11.1719057"><ele>143.0</ele><time>2026-04-18T07:20:33.228Z</time></trkpt><trkpt lat="43.6320451" lon="11.1719943"><ele>147.75</ele><time>2026-04-18T07:20:34.228Z</time></trkpt><trkpt lat="43.6319143" lon="11.1720795"><ele>152.5</ele><time>2026-04-18T07:20:35.227Z</time></trkpt><trkpt lat="43.6317802" lon="11.1721686"><ele>157.25</ele><time>2026-04-18T07:20:36.227Z</time></trkpt><trkpt lat="43.6316485" lon="11.1722577"><ele>162.0</ele><time>2026-04-18T07:20:37.229Z</time></trkpt><trkpt lat="43.6315141" lon="11.1723549"><ele>161.75</ele><time>2026-04-18T07:20:38.228Z</time></trkpt><trkpt lat="43.6313795" lon="11.1724518"><ele>161.5</ele><time>2026-04-18T07:20:39.228Z</time></trkpt><trkpt lat="43.631237" lon="11.1725435"><ele>161.25</ele><time>2026-04-18T07:20:40.228Z</time></trkpt><trkpt lat="43.6311123" lon="11.1726224"><ele>161.0</ele><time>2026-04-18T07:20:41.228Z</time></trkpt><trkpt lat="43.6309993" lon="11.1727052"><ele>161.0</ele><time>2026-04-18T07:20:42.228Z</time></trkpt><trkpt lat="43.6308883" lon="11.1728001"><ele>161.0</ele><time>2026-04-18T07:20:43.228Z</time></trkpt><trkpt lat="43.6307859" lon="11.1728845"><ele>161.0</ele><time>2026-04-18T07:20:44.228Z</time></trkpt><trkpt lat="43.6307017" lon="11.1729456"><ele>161.0</ele><time>2026-04-18T07:20:45.228Z</time></trkpt><trkpt lat="43.6306254" lon="11.1729998"><ele>161.0</ele><time>2026-04-18T07:20:46.228Z</time></trkpt><trkpt lat="43.6305625" lon="11.1730481"><ele>161.0</ele><time>2026-04-18T07:20:47.228Z</time></trkpt><trkpt lat="43.6305068" lon="11.1730973"><ele>161.0</ele><time>2026-04-18T07:20:48.228Z</time></trkpt><trkpt lat="43.630402" lon="11.1731673"><ele>161.0</ele><time>2026-04-18T07:20:50.228Z</time></trkpt><trkpt lat="43.6303347" lon="11.1732481"><ele>161.0</ele><time>2026-04-18T07:20:52.228Z</time></trkpt><trkpt lat="43.6303321" lon="11.1733431"><ele>161.0</ele><time>2026-04-18T07:20:54.227Z</time></trkpt><trkpt lat="43.630389" lon="11.1735042"><ele>159.0</ele><time>2026-04-18T07:20:56.228Z</time></trkpt><trkpt lat="43.6304128" lon="11.1736087"><ele>157.0</ele><time>2026-04-18T07:20:57.227Z</time></trkpt><trkpt lat="43.6304502" lon="11.1737108"><ele>155.0</ele><time>2026-04-18T07:20:58.228Z</time></trkpt><trkpt lat="43.6304894" lon="11.1738137"><ele>153.0</ele><time>2026-04-18T07:20:59.227Z</time></trkpt><trkpt lat="43.6305321" lon="11.1738965"><ele>151.0</ele><time>2026-04-18T07:21:00.228Z</time></trkpt><trkpt lat="43.6305721" lon="11.1739748"><ele>149.0</ele><time>2026-04-18T07:21:01.229Z</time></trkpt><trkpt lat="43.6306157" lon="11.1740616"><ele>148.0</ele><time>2026-04-18T07:21:02.228Z</time></trkpt><trkpt lat="43.6306617" lon="11.1741508"><ele>147.0</ele><time>2026-04-18T07:21:03.228Z</time></trkpt><trkpt lat="43.6307042" lon="11.1742448"><ele>146.0</ele><time>2026-04-18T07:21:04.229Z</time></trkpt><trkpt lat="43.630751" lon="11.1743339"><ele>145.0</ele><time>2026-04-18T07:21:05.228Z</time></trkpt><trkpt lat="43.6308033" lon="11.1744211"><ele>144.0</ele><time>2026-04-18T07:21:06.228Z</time></trkpt><trkpt lat="43.6308616" lon="11.1745112"><ele>143.0</ele><time>2026-04-18T07:21:07.228Z</time></trkpt><trkpt lat="43.6309489" lon="11.1745789"><ele>143.0</ele><time>2026-04-18T07:21:08.228Z</time></trkpt><trkpt lat="43.6310229" lon="11.1746486"><ele>143.0</ele><time>2026-04-18T07:21:09.228Z</time></trkpt><trkpt lat="43.6310937" lon="11.1747136"><ele>143.0</ele><time>2026-04-18T07:21:10.228Z</time></trkpt><trkpt lat="43.6311663" lon="11.1747919"><ele>143.0</ele><time>2026-04-18T07:21:11.228Z</time></trkpt><trkpt lat="43.6312384" lon="11.1748591"><ele>143.0</ele><time>2026-04-18T07:21:12.228Z</time></trkpt><trkpt lat="43.6313092" lon="11.1749259"><ele>143.0</ele><time>2026-04-18T07:21:13.229Z</time></trkpt><trkpt lat="43.6313891" lon="11.1750041"><ele>141.83333333333331</ele><time>2026-04-18T07:21:14.228Z</time></trkpt><trkpt lat="43.6314551" lon="11.1750721"><ele>140.66666666666666</ele><time>2026-04-18T07:21:15.228Z</time></trkpt><trkpt lat="43.6315206" lon="11.1751377"><ele>139.5</ele><time>2026-04-18T07:21:16.229Z</time></trkpt><trkpt lat="43.6315903" lon="11.1752058"><ele>138.33333333333334</ele><time>2026-04-18T07:21:17.228Z</time></trkpt><trkpt lat="43.6316533" lon="11.1752794"><ele>137.16666666666669</ele><time>2026-04-18T07:21:18.228Z</time></trkpt><trkpt lat="43.631721" lon="11.1753577"><ele>136.0</ele><time>2026-04-18T07:21:19.228Z</time></trkpt><trkpt lat="43.6317859" lon="11.175439"><ele>136.0</ele><time>2026-04-18T07:21:20.228Z</time></trkpt><trkpt lat="43.6318479" lon="11.1755216"><ele>136.0</ele><time>2026-04-18T07:21:21.228Z</time></trkpt><trkpt lat="43.6319077" lon="11.1755988"><ele>136.0</ele><time>2026-04-18T07:21:22.229Z</time></trkpt><trkpt lat="43.6319623" lon="11.1756746"><ele>136.0</ele><time>2026-04-18T07:21:23.228Z</time></trkpt><trkpt lat="43.6320187" lon="11.1757375"><ele>136.0</ele><time>2026-04-18T07:21:24.228Z</time></trkpt><trkpt lat="43.6320817" lon="11.1757995"><ele>136.0</ele><time>2026-04-18T07:21:25.228Z</time></trkpt><trkpt lat="43.6321554" lon="11.1758566"><ele>134.6</ele><time>2026-04-18T07:21:26.228Z</time></trkpt><trkpt lat="43.6322326" lon="11.1759223"><ele>133.2</ele><time>2026-04-18T07:21:27.228Z</time></trkpt><trkpt lat="43.632313" lon="11.1759892"><ele>131.8</ele><time>2026-04-18T07:21:28.228Z</time></trkpt><trkpt lat="43.6323956" lon="11.1760654"><ele>130.4</ele><time>2026-04-18T07:21:29.227Z</time></trkpt><trkpt lat="43.6324891" lon="11.1761424"><ele>129.0</ele><time>2026-04-18T07:21:30.228Z</time></trkpt><trkpt lat="43.6325813" lon="11.1761992"><ele>129.0</ele><time>2026-04-18T07:21:31.227Z</time></trkpt><trkpt lat="43.63268" lon="11.1762393"><ele>129.0</ele><time>2026-04-18T07:21:32.228Z</time></trkpt><trkpt lat="43.6327815" lon="11.1762625"><ele>129.0</ele><time>2026-04-18T07:21:33.228Z</time></trkpt><trkpt lat="43.6328887" lon="11.1762757"><ele>129.0</ele><time>2026-04-18T07:21:34.228Z</time></trkpt><trkpt lat="43.6329919" lon="11.1762955"><ele>129.0</ele><time>2026-04-18T07:21:35.228Z</time></trkpt><trkpt lat="43.6330866" lon="11.176311"><ele>128.33333333333334</ele><time>2026-04-18T07:21:36.229Z</time></trkpt><trkpt lat="43.6331699" lon="11.1763227"><ele>127.66666666666666</ele><time>2026-04-18T07:21:37.228Z</time></trkpt><trkpt lat="43.633245" lon="11.1763373"><ele>127.0</ele><time>2026-04-18T07:21:38.228Z</time></trkpt><trkpt lat="43.6333123" lon="11.1763479"><ele>126.33333333333333</ele><time>2026-04-18T07:21:39.228Z</time></trkpt><trkpt lat="43.6333765" lon="11.1763603"><ele>125.66666666666666</ele><time>2026-04-18T07:21:40.228Z</time></trkpt><trkpt lat="43.6334883" lon="11.1764347"><ele>125.0</ele><time>2026-04-18T07:21:42.228Z</time></trkpt><trkpt lat="43.6335389" lon="11.1765071"><ele>124.99999999999999</ele><time>2026-04-18T07:21:43.227Z</time></trkpt><trkpt lat="43.6335607" lon="11.1765894"><ele>125.0</ele><time>2026-04-18T07:21:44.228Z</time></trkpt><trkpt lat="43.6335519" lon="11.1766856"><ele>125.0</ele><time>2026-04-18T07:21:45.229Z</time></trkpt><trkpt lat="43.633559" lon="11.1768081"><ele>125.0</ele><time>2026-04-18T07:21:46.23Z</time></trkpt><trkpt lat="43.6335586" lon="11.1769453"><ele>124.99999999999999</ele><time>2026-04-18T07:21:47.228Z</time></trkpt><trkpt lat="43.6335783" lon="11.1771076"><ele>125.0</ele><time>2026-04-18T07:21:48.228Z</time></trkpt><trkpt lat="43.6336019" lon="11.1772769"><ele>125.75</ele><time>2026-04-18T07:21:49.228Z</time></trkpt><trkpt lat="43.6336478" lon="11.1774523"><ele>126.5</ele><time>2026-04-18T07:21:50.228Z</time></trkpt><trkpt lat="43.6337048" lon="11.1776223"><ele>127.25</ele><time>2026-04-18T07:21:51.228Z</time></trkpt><trkpt lat="43.6337577" lon="11.177793"><ele>128.0</ele><time>2026-04-18T07:21:52.227Z</time></trkpt><trkpt lat="43.6337964" lon="11.1779579"><ele>128.0</ele><time>2026-04-18T07:21:53.228Z</time></trkpt><trkpt lat="43.633833" lon="11.1781044"><ele>128.0</ele><time>2026-04-18T07:21:54.227Z</time></trkpt><trkpt lat="43.6338702" lon="11.1782356"><ele>128.0</ele><time>2026-04-18T07:21:55.228Z</time></trkpt><trkpt lat="43.63391" lon="11.1783592"><ele>128.0</ele><time>2026-04-18T07:21:56.228Z</time></trkpt><trkpt lat="43.6339486" lon="11.1784719"><ele>128.0</ele><time>2026-04-18T07:21:57.227Z</time></trkpt><trkpt lat="43.6339908" lon="11.1785843"><ele>128.16666666666666</ele><time>2026-04-18T07:21:58.228Z</time></trkpt><trkpt lat="43.6340308" lon="11.1786767"><ele>128.33333333333331</ele><time>2026-04-18T07:21:59.227Z</time></trkpt><trkpt lat="43.6340539" lon="11.1787608"><ele>128.5</ele><time>2026-04-18T07:22:00.228Z</time></trkpt><trkpt lat="43.6340876" lon="11.1788559"><ele>128.66666666666666</ele><time>2026-04-18T07:22:02.227Z</time></trkpt><trkpt lat="43.6341124" lon="11.1789446"><ele>128.83333333333334</ele><time>2026-04-18T07:22:07.228Z</time></trkpt><trkpt lat="43.6340848" lon="11.1790301"><ele>129.0</ele><time>2026-04-18T07:22:13.228Z</time></trkpt><trkpt lat="43.6339726" lon="11.1790843"><ele>129.0</ele><time>2026-04-18T07:22:15.227Z</time></trkpt><trkpt lat="43.6339022" lon="11.1791245"><ele>129.0</ele><time>2026-04-18T07:22:16.229Z</time></trkpt><trkpt lat="43.6338337" lon="11.1791714"><ele>129.0</ele><time>2026-04-18T07:22:17.227Z</time></trkpt><trkpt lat="43.6337762" lon="11.1792133"><ele>129.0</ele><time>2026-04-18T07:22:18.228Z</time></trkpt><trkpt lat="43.6336773" lon="11.1792842"><ele>129.0</ele><time>2026-04-18T07:22:20.228Z</time></trkpt><trkpt lat="43.633584" lon="11.1793811"><ele>129.0</ele><time>2026-04-18T07:22:22.228Z</time></trkpt><trkpt lat="43.6334867" lon="11.1794796"><ele>129.0</ele><time>2026-04-18T07:22:24.228Z</time></trkpt><trkpt lat="43.6333832" lon="11.1795946"><ele>129.0</ele><time>2026-04-18T07:22:26.229Z</time></trkpt><trkpt lat="43.633328" lon="11.1796468"><ele>129.0</ele><time>2026-04-18T07:22:27.227Z</time></trkpt><trkpt lat="43.63324" lon="11.1797535"><ele>129.0</ele><time>2026-04-18T07:22:29.227Z</time></trkpt><trkpt lat="43.633139" lon="11.1798579"><ele>129.0</ele><time>2026-04-18T07:22:31.228Z</time></trkpt><trkpt lat="43.6330253" lon="11.1799618"><ele>128.99999999999997</ele><time>2026-04-18T07:22:33.228Z</time></trkpt><trkpt lat="43.6329563" lon="11.1800104"><ele>129.0</ele><time>2026-04-18T07:22:34.227Z</time></trkpt><trkpt lat="43.6328821" lon="11.1800575"><ele>129.0</ele><time>2026-04-18T07:22:35.227Z</time></trkpt><trkpt lat="43.6328194" lon="11.1800896"><ele>129.0</ele><time>2026-04-18T07:22:36.227Z</time></trkpt><trkpt lat="43.6327288" lon="11.1801036"><ele>129.0</ele><time>2026-04-18T07:22:38.228Z</time></trkpt><trkpt lat="43.6326648" lon="11.1801184"><ele>128.99999999999997</ele><time>2026-04-18T07:22:40.23Z</time></trkpt><trkpt lat="43.632637" lon="11.1801977"><ele>129.0</ele><time>2026-04-18T07:22:47.229Z</time></trkpt><trkpt lat="43.6327188" lon="11.1802198"><ele>129.16666666666666</ele><time>2026-04-18T07:22:49.228Z</time></trkpt><trkpt lat="43.6328277" lon="11.1801642"><ele>129.33333333333334</ele><time>2026-04-18T07:22:51.228Z</time></trkpt><trkpt lat="43.632888" lon="11.1801354"><ele>129.5</ele><time>2026-04-18T07:22:52.23Z</time></trkpt><trkpt lat="43.6329853" lon="11.1800976"><ele>129.66666666666669</ele><time>2026-04-18T07:22:54.228Z</time></trkpt><trkpt lat="43.6330514" lon="11.1801312"><ele>129.83333333333334</ele><time>2026-04-18T07:22:56.228Z</time></trkpt><trkpt lat="43.6331017" lon="11.1802326"><ele>130.0</ele><time>2026-04-18T07:22:58.228Z</time></trkpt><trkpt lat="43.6331397" lon="11.1803089"><ele>130.0</ele><time>2026-04-18T07:22:59.228Z</time></trkpt><trkpt lat="43.6331867" lon="11.1803916"><ele>130.0</ele><time>2026-04-18T07:23:00.229Z</time></trkpt><trkpt lat="43.6332336" lon="11.1804887"><ele>130.0</ele><time>2026-04-18T07:23:01.228Z</time></trkpt><trkpt lat="43.6332711" lon="11.1805827"><ele>130.0</ele><time>2026-04-18T07:23:02.227Z</time></trkpt><trkpt lat="43.633305" lon="11.1806928"><ele>130.0</ele><time>2026-04-18T07:23:03.229Z</time></trkpt><trkpt lat="43.6333331" lon="11.1808146"><ele>130.0</ele><time>2026-04-18T07:23:04.228Z</time></trkpt><trkpt lat="43.6333565" lon="11.1809358"><ele>130.5</ele><time>2026-04-18T07:23:05.228Z</time></trkpt><trkpt lat="43.6333843" lon="11.1810554"><ele>131.0</ele><time>2026-04-18T07:23:06.228Z</time></trkpt><trkpt lat="43.633408" lon="11.1811653"><ele>131.5</ele><time>2026-04-18T07:23:07.228Z</time></trkpt><trkpt lat="43.6334249" lon="11.1812836"><ele>132.0</ele><time>2026-04-18T07:23:08.228Z</time></trkpt><trkpt lat="43.6334251" lon="11.1814088"><ele>132.5</ele><time>2026-04-18T07:23:09.228Z</time></trkpt><trkpt lat="43.6334196" lon="11.1815159"><ele>133.0</ele><time>2026-04-18T07:23:10.229Z</time></trkpt><trkpt lat="43.633417" lon="11.1816051"><ele>133.6</ele><time>2026-04-18T07:23:11.228Z</time></trkpt><trkpt lat="43.6334617" lon="11.1817092"><ele>134.20000000000002</ele><time>2026-04-18T07:23:13.228Z</time></trkpt><trkpt lat="43.6335654" lon="11.1816746"><ele>134.8</ele><time>2026-04-18T07:23:15.228Z</time></trkpt><trkpt lat="43.6336311" lon="11.1816314"><ele>135.4</ele><time>2026-04-18T07:23:16.229Z</time></trkpt><trkpt lat="43.6337491" lon="11.1816236"><ele>136.0</ele><time>2026-04-18T07:23:18.228Z</time></trkpt><trkpt lat="43.6338496" lon="11.1817228"><ele>136.0</ele><time>2026-04-18T07:23:20.229Z</time></trkpt><trkpt lat="43.6338995" lon="11.1818041"><ele>136.0</ele><time>2026-04-18T07:23:21.228Z</time></trkpt><trkpt lat="43.6339242" lon="11.1819052"><ele>136.0</ele><time>2026-04-18T07:23:22.228Z</time></trkpt><trkpt lat="43.6339297" lon="11.1819953"><ele>136.0</ele><time>2026-04-18T07:23:23.23Z</time></trkpt><trkpt lat="43.6339426" lon="11.1821065"><ele>136.0</ele><time>2026-04-18T07:23:25.227Z</time></trkpt><trkpt lat="43.6340039" lon="11.1821848"><ele>136.0</ele><time>2026-04-18T07:23:27.228Z</time></trkpt><trkpt lat="43.6341192" lon="11.1822439"><ele>136.0</ele><time>2026-04-18T07:23:29.228Z</time></trkpt><trkpt lat="43.6342374" lon="11.1822927"><ele>136.0</ele><time>2026-04-18T07:23:31.229Z</time></trkpt><trkpt lat="43.6343053" lon="11.1823411"><ele>136.0</ele><time>2026-04-18T07:23:33.228Z</time></trkpt><trkpt lat="43.6343691" lon="11.1824378"><ele>136.0</ele><time>2026-04-18T07:23:37.228Z</time></trkpt><trkpt lat="43.6344483" lon="11.1825018"><ele>136.0</ele><time>2026-04-18T07:23:40.228Z</time></trkpt><trkpt lat="43.6345268" lon="11.1826153"><ele>135.83333333333334</ele><time>2026-04-18T07:23:42.228Z</time></trkpt><trkpt lat="43.6345879" lon="11.1826868"><ele>135.66666666666669</ele><time>2026-04-18T07:23:43.228Z</time></trkpt><trkpt lat="43.6346521" lon="11.1827614"><ele>135.5</ele><time>2026-04-18T07:23:44.228Z</time></trkpt><trkpt lat="43.6347139" lon="11.1828337"><ele>135.33333333333334</ele><time>2026-04-18T07:23:45.228Z</time></trkpt><trkpt lat="43.6347638" lon="11.1829078"><ele>135.16666666666666</ele><time>2026-04-18T07:23:46.227Z</time></trkpt><trkpt lat="43.6348028" lon="11.1830043"><ele>135.0</ele><time>2026-04-18T07:23:47.229Z</time></trkpt><trkpt lat="43.6348476" lon="11.1831081"><ele>135.0</ele><time>2026-04-18T07:23:48.228Z</time></trkpt><trkpt lat="43.6348961" lon="11.1831819"><ele>135.0</ele><time>2026-04-18T07:23:49.228Z</time></trkpt><trkpt lat="43.634962" lon="11.1832618"><ele>135.0</ele><time>2026-04-18T07:23:50.228Z</time></trkpt><trkpt lat="43.6350438" lon="11.1833473"><ele>135.0</ele><time>2026-04-18T07:23:51.228Z</time></trkpt><trkpt lat="43.6351232" lon="11.1834421"><ele>135.0</ele><time>2026-04-18T07:23:52.229Z</time></trkpt><trkpt lat="43.6351973" lon="11.1835595"><ele>135.0</ele><time>2026-04-18T07:23:53.227Z</time></trkpt><trkpt lat="43.6352728" lon="11.1836962"><ele>135.0</ele><time>2026-04-18T07:23:54.228Z</time></trkpt><trkpt lat="43.6353519" lon="11.1838276"><ele>135.0</ele><time>2026-04-18T07:23:55.227Z</time></trkpt><trkpt lat="43.635429" lon="11.1839765"><ele>135.0</ele><time>2026-04-18T07:23:56.228Z</time></trkpt><trkpt lat="43.6354958" lon="11.1841074"><ele>135.5</ele><time>2026-04-18T07:23:57.228Z</time></trkpt><trkpt lat="43.6355531" lon="11.1842296"><ele>136.0</ele><time>2026-04-18T07:23:58.227Z</time></trkpt><trkpt lat="43.6355878" lon="11.1843513"><ele>136.5</ele><time>2026-04-18T07:23:59.228Z</time></trkpt><trkpt lat="43.6355987" lon="11.18446"><ele>137.0</ele><time>2026-04-18T07:24:00.227Z</time></trkpt><trkpt lat="43.6355898" lon="11.1845575"><ele>137.5</ele><time>2026-04-18T07:24:01.228Z</time></trkpt><trkpt lat="43.6355765" lon="11.1846719"><ele>138.0</ele><time>2026-04-18T07:24:02.227Z</time></trkpt><trkpt lat="43.6355636" lon="11.1848054"><ele>138.25</ele><time>2026-04-18T07:24:03.228Z</time></trkpt><trkpt lat="43.6355494" lon="11.1849572"><ele>138.5</ele><time>2026-04-18T07:24:04.228Z</time></trkpt><trkpt lat="43.6355335" lon="11.1851246"><ele>138.75</ele><time>2026-04-18T07:24:05.228Z</time></trkpt><trkpt lat="43.635521" lon="11.1852955"><ele>139.0</ele><time>2026-04-18T07:24:06.228Z</time></trkpt><trkpt lat="43.6355131" lon="11.1854818"><ele>139.0</ele><time>2026-04-18T07:24:07.229Z</time></trkpt><trkpt lat="43.6354992" lon="11.1856519"><ele>139.0</ele><time>2026-04-18T07:24:08.228Z</time></trkpt><trkpt lat="43.6354883" lon="11.1858034"><ele>139.0</ele><time>2026-04-18T07:24:09.227Z</time></trkpt><trkpt lat="43.6354701" lon="11.185933"><ele>139.0</ele><time>2026-04-18T07:24:10.227Z</time></trkpt><trkpt lat="43.6354448" lon="11.1860458"><ele>139.0</ele><time>2026-04-18T07:24:11.227Z</time></trkpt><trkpt lat="43.6354145" lon="11.1861341"><ele>139.33333333333334</ele><time>2026-04-18T07:24:12.229Z</time></trkpt><trkpt lat="43.6354006" lon="11.186279"><ele>139.66666666666669</ele><time>2026-04-18T07:24:14.229Z</time></trkpt><trkpt lat="43.6354247" lon="11.1863748"><ele>140.0</ele><time>2026-04-18T07:24:16.229Z</time></trkpt><trkpt lat="43.635475" lon="11.1864697"><ele>140.33333333333334</ele><time>2026-04-18T07:24:18.228Z</time></trkpt><trkpt lat="43.635518" lon="11.1865707"><ele>140.66666666666666</ele><time>2026-04-18T07:24:20.228Z</time></trkpt><trkpt lat="43.635504" lon="11.1866893"><ele>141.0</ele><time>2026-04-18T07:24:22.229Z</time></trkpt><trkpt lat="43.6354349" lon="11.1868141"><ele>141.16666666666666</ele><time>2026-04-18T07:24:24.228Z</time></trkpt><trkpt lat="43.6353912" lon="11.1869097"><ele>141.33333333333334</ele><time>2026-04-18T07:24:25.228Z</time></trkpt><trkpt lat="43.6353539" lon="11.1870181"><ele>141.5</ele><time>2026-04-18T07:24:26.229Z</time></trkpt><trkpt lat="43.635325" lon="11.1871337"><ele>141.66666666666669</ele><time>2026-04-18T07:24:27.229Z</time></trkpt><trkpt lat="43.6353202" lon="11.1872546"><ele>141.83333333333334</ele><time>2026-04-18T07:24:28.227Z</time></trkpt><trkpt lat="43.6353236" lon="11.1873856"><ele>142.0</ele><time>2026-04-18T07:24:29.228Z</time></trkpt><trkpt lat="43.6353491" lon="11.1875287"><ele>142.25</ele><time>2026-04-18T07:24:30.228Z</time></trkpt><trkpt lat="43.6353984" lon="11.1876701"><ele>142.5</ele><time>2026-04-18T07:24:31.228Z</time></trkpt><trkpt lat="43.635458" lon="11.1878105"><ele>142.75</ele><time>2026-04-18T07:24:32.228Z</time></trkpt><trkpt lat="43.6355087" lon="11.1879466"><ele>143.0</ele><time>2026-04-18T07:24:33.228Z</time></trkpt><trkpt lat="43.6355635" lon="11.1880875"><ele>143.33333333333331</ele><time>2026-04-18T07:24:34.229Z</time></trkpt><trkpt lat="43.6356129" lon="11.188211"><ele>143.66666666666666</ele><time>2026-04-18T07:24:35.228Z</time></trkpt><trkpt lat="43.6356485" lon="11.1883258"><ele>144.0</ele><time>2026-04-18T07:24:36.229Z</time></trkpt><trkpt lat="43.6356745" lon="11.18843"><ele>144.33333333333334</ele><time>2026-04-18T07:24:37.227Z</time></trkpt><trkpt lat="43.6356822" lon="11.1885518"><ele>144.66666666666669</ele><time>2026-04-18T07:24:38.229Z</time></trkpt><trkpt lat="43.6356818" lon="11.1886725"><ele>145.0</ele><time>2026-04-18T07:24:39.227Z</time></trkpt><trkpt lat="43.6356757" lon="11.1887716"><ele>145.0</ele><time>2026-04-18T07:24:40.227Z</time></trkpt><trkpt lat="43.6356986" lon="11.1889484"><ele>145.0</ele><time>2026-04-18T07:24:42.228Z</time></trkpt><trkpt lat="43.6357113" lon="11.1890517"><ele>145.0</ele><time>2026-04-18T07:24:43.228Z</time></trkpt><trkpt lat="43.6357362" lon="11.1891702"><ele>145.0</ele><time>2026-04-18T07:24:44.228Z</time></trkpt><trkpt lat="43.6357636" lon="11.1893066"><ele>145.0</ele><time>2026-04-18T07:24:45.228Z</time></trkpt><trkpt lat="43.6357851" lon="11.1894473"><ele>145.0</ele><time>2026-04-18T07:24:46.228Z</time></trkpt><trkpt lat="43.6358234" lon="11.1896018"><ele>145.0</ele><time>2026-04-18T07:24:47.229Z</time></trkpt><trkpt lat="43.6358588" lon="11.1897276"><ele>145.0</ele><time>2026-04-18T07:24:48.228Z</time></trkpt><trkpt lat="43.6358841" lon="11.1898494"><ele>145.0</ele><time>2026-04-18T07:24:49.228Z</time></trkpt><trkpt lat="43.6359049" lon="11.1899569"><ele>145.0</ele><time>2026-04-18T07:24:50.227Z</time></trkpt><trkpt lat="43.6359171" lon="11.1900452"><ele>145.4</ele><time>2026-04-18T07:24:51.228Z</time></trkpt><trkpt lat="43.6359286" lon="11.1902177"><ele>145.8</ele><time>2026-04-18T07:24:53.229Z</time></trkpt><trkpt lat="43.6359347" lon="11.1903267"><ele>146.2</ele><time>2026-04-18T07:24:54.229Z</time></trkpt><trkpt lat="43.6359429" lon="11.1904512"><ele>146.6</ele><time>2026-04-18T07:24:55.228Z</time></trkpt><trkpt lat="43.6359525" lon="11.1905857"><ele>147.0</ele><time>2026-04-18T07:24:56.229Z</time></trkpt><trkpt lat="43.6359578" lon="11.1907223"><ele>147.4</ele><time>2026-04-18T07:24:57.227Z</time></trkpt><trkpt lat="43.6359522" lon="11.1908524"><ele>147.79999999999998</ele><time>2026-04-18T07:24:58.228Z</time></trkpt><trkpt lat="43.6359452" lon="11.1909811"><ele>148.2</ele><time>2026-04-18T07:24:59.227Z</time></trkpt><trkpt lat="43.6359349" lon="11.1911109"><ele>148.6</ele><time>2026-04-18T07:25:00.228Z</time></trkpt><trkpt lat="43.6359163" lon="11.1912504"><ele>149.0</ele><time>2026-04-18T07:25:01.228Z</time></trkpt><trkpt lat="43.635891" lon="11.191398"><ele>149.5</ele><time>2026-04-18T07:25:02.229Z</time></trkpt><trkpt lat="43.6358604" lon="11.1915557"><ele>150.0</ele><time>2026-04-18T07:25:03.229Z</time></trkpt><trkpt lat="43.6358327" lon="11.1917261"><ele>150.5</ele><time>2026-04-18T07:25:04.227Z</time></trkpt><trkpt lat="43.6358001" lon="11.1918993"><ele>151.0</ele><time>2026-04-18T07:25:05.23Z</time></trkpt><trkpt lat="43.6357675" lon="11.1920642"><ele>151.0</ele><time>2026-04-18T07:25:06.229Z</time></trkpt><trkpt lat="43.6357273" lon="11.1922078"><ele>151.0</ele><time>2026-04-18T07:25:07.229Z</time></trkpt><trkpt lat="43.6356916" lon="11.1923606"><ele>151.0</ele><time>2026-04-18T07:25:08.227Z</time></trkpt><trkpt lat="43.635659" lon="11.1925214"><ele>151.0</ele><time>2026-04-18T07:25:09.228Z</time></trkpt><trkpt lat="43.6356317" lon="11.1926936"><ele>151.2</ele><time>2026-04-18T07:25:10.228Z</time></trkpt><trkpt lat="43.6356283" lon="11.1928575"><ele>151.39999999999998</ele><time>2026-04-18T07:25:11.228Z</time></trkpt><trkpt lat="43.6356134" lon="11.1930087"><ele>151.6</ele><time>2026-04-18T07:25:12.229Z</time></trkpt><trkpt lat="43.6355799" lon="11.193146"><ele>151.79999999999998</ele><time>2026-04-18T07:25:13.228Z</time></trkpt><trkpt lat="43.6355675" lon="11.1932939"><ele>152.0</ele><time>2026-04-18T07:25:14.228Z</time></trkpt><trkpt lat="43.6355552" lon="11.1934298"><ele>152.0</ele><time>2026-04-18T07:25:15.229Z</time></trkpt><trkpt lat="43.6355426" lon="11.1935829"><ele>152.0</ele><time>2026-04-18T07:25:16.228Z</time></trkpt><trkpt lat="43.6355139" lon="11.1937465"><ele>152.0</ele><time>2026-04-18T07:25:17.227Z</time></trkpt><trkpt lat="43.635466" lon="11.1939299"><ele>152.0</ele><time>2026-04-18T07:25:18.227Z</time></trkpt><trkpt lat="43.6354296" lon="11.1941062"><ele>151.66666666666666</ele><time>2026-04-18T07:25:19.228Z</time></trkpt><trkpt lat="43.6353897" lon="11.1943161"><ele>151.33333333333334</ele><time>2026-04-18T07:25:20.229Z</time></trkpt><trkpt lat="43.6353522" lon="11.1945379"><ele>151.0</ele><time>2026-04-18T07:25:21.227Z</time></trkpt><trkpt lat="43.6353093" lon="11.1947697"><ele>155.5</ele><time>2026-04-18T07:25:22.227Z</time></trkpt><trkpt lat="43.6352738" lon="11.1949919"><ele>160.0</ele><time>2026-04-18T07:25:23.228Z</time></trkpt><trkpt lat="43.6352385" lon="11.195188"><ele>164.5</ele><time>2026-04-18T07:25:24.228Z</time></trkpt><trkpt lat="43.6352104" lon="11.1953746"><ele>169.0</ele><time>2026-04-18T07:25:25.228Z</time></trkpt><trkpt lat="43.6351702" lon="11.1955634"><ele>166.66666666666669</ele><time>2026-04-18T07:25:26.228Z</time></trkpt><trkpt lat="43.6351212" lon="11.1957587"><ele>164.33333333333334</ele><time>2026-04-18T07:25:27.229Z</time></trkpt><trkpt lat="43.6350729" lon="11.1959663"><ele>162.0</ele><time>2026-04-18T07:25:28.228Z</time></trkpt><trkpt lat="43.6350195" lon="11.1961727"><ele>162.0</ele><time>2026-04-18T07:25:29.228Z</time></trkpt><trkpt lat="43.6349771" lon="11.1963774"><ele>162.0</ele><time>2026-04-18T07:25:30.228Z</time></trkpt><trkpt lat="43.6349278" lon="11.1965933"><ele>162.0</ele><time>2026-04-18T07:25:31.228Z</time></trkpt><trkpt lat="43.6348759" lon="11.1968066"><ele>160.66666666666666</ele><time>2026-04-18T07:25:32.228Z</time></trkpt><trkpt lat="43.634826" lon="11.1970255"><ele>159.33333333333331</ele><time>2026-04-18T07:25:33.229Z</time></trkpt><trkpt lat="43.63478" lon="11.1972247"><ele>158.0</ele><time>2026-04-18T07:25:34.229Z</time></trkpt><trkpt lat="43.634734" lon="11.1974268"><ele>158.0</ele><time>2026-04-18T07:25:35.228Z</time></trkpt><trkpt lat="43.6346785" lon="11.1976268"><ele>158.0</ele><time>2026-04-18T07:25:36.228Z</time></trkpt><trkpt lat="43.634631" lon="11.1978251"><ele>158.0</ele><time>2026-04-18T07:25:37.228Z</time></trkpt><trkpt lat="43.6345759" lon="11.1979956"><ele>158.0</ele><time>2026-04-18T07:25:38.227Z</time></trkpt><trkpt lat="43.6345347" lon="11.1981731"><ele>158.0</ele><time>2026-04-18T07:25:39.228Z</time></trkpt><trkpt lat="43.6345074" lon="11.1983542"><ele>158.0</ele><time>2026-04-18T07:25:40.228Z</time></trkpt><trkpt lat="43.6344734" lon="11.1985179"><ele>158.0</ele><time>2026-04-18T07:25:41.227Z</time></trkpt><trkpt lat="43.6344431" lon="11.1986776"><ele>158.0</ele><time>2026-04-18T07:25:42.228Z</time></trkpt><trkpt lat="43.634426" lon="11.1988458"><ele>161.0</ele><time>2026-04-18T07:25:43.228Z</time></trkpt><trkpt lat="43.6344229" lon="11.1990122"><ele>164.0</ele><time>2026-04-18T07:25:44.227Z</time></trkpt><trkpt lat="43.6344309" lon="11.1991486"><ele>167.0</ele><time>2026-04-18T07:25:45.228Z</time></trkpt><trkpt lat="43.6344417" lon="11.1992821"><ele>170.0</ele><time>2026-04-18T07:25:46.228Z</time></trkpt><trkpt lat="43.6344558" lon="11.1994124"><ele>173.0</ele><time>2026-04-18T07:25:47.228Z</time></trkpt><trkpt lat="43.6344679" lon="11.1995189"><ele>173.0</ele><time>2026-04-18T07:25:48.227Z</time></trkpt><trkpt lat="43.6344684" lon="11.1996238"><ele>173.0</ele><time>2026-04-18T07:25:49.228Z</time></trkpt><trkpt lat="43.6344612" lon="11.1997803"><ele>173.0</ele><time>2026-04-18T07:25:51.227Z</time></trkpt><trkpt lat="43.6345128" lon="11.1999308"><ele>173.0</ele><time>2026-04-18T07:25:53.227Z</time></trkpt><trkpt lat="43.6345517" lon="11.2"><ele>173.0</ele><time>2026-04-18T07:25:54.227Z</time></trkpt><trkpt lat="43.6345962" lon="11.2000891"><ele>171.16666666666666</ele><time>2026-04-18T07:25:55.227Z</time></trkpt><trkpt lat="43.6346331" lon="11.2001913"><ele>169.33333333333331</ele><time>2026-04-18T07:25:56.227Z</time></trkpt><trkpt lat="43.63466" lon="11.2003001"><ele>167.5</ele><time>2026-04-18T07:25:57.227Z</time></trkpt><trkpt lat="43.6346689" lon="11.2004061"><ele>165.66666666666666</ele><time>2026-04-18T07:25:58.228Z</time></trkpt><trkpt lat="43.6346641" lon="11.2005231"><ele>163.83333333333334</ele><time>2026-04-18T07:25:59.228Z</time></trkpt><trkpt lat="43.6346605" lon="11.2006398"><ele>162.0</ele><time>2026-04-18T07:26:00.227Z</time></trkpt><trkpt lat="43.6346327" lon="11.2007449"><ele>162.0</ele><time>2026-04-18T07:26:01.228Z</time></trkpt><trkpt lat="43.6346073" lon="11.2008581"><ele>162.0</ele><time>2026-04-18T07:26:02.228Z</time></trkpt><trkpt lat="43.6345615" lon="11.2009646"><ele>162.0</ele><time>2026-04-18T07:26:03.228Z</time></trkpt><trkpt lat="43.6345116" lon="11.2010741"><ele>162.0</ele><time>2026-04-18T07:26:04.228Z</time></trkpt><trkpt lat="43.6344572" lon="11.2011905"><ele>162.0</ele><time>2026-04-18T07:26:05.228Z</time></trkpt><trkpt lat="43.63439" lon="11.201303"><ele>162.8</ele><time>2026-04-18T07:26:06.229Z</time></trkpt><trkpt lat="43.6343282" lon="11.2014275"><ele>163.6</ele><time>2026-04-18T07:26:07.228Z</time></trkpt><trkpt lat="43.6342696" lon="11.2015562"><ele>164.4</ele><time>2026-04-18T07:26:08.227Z</time></trkpt><trkpt lat="43.634217" lon="11.201685"><ele>165.20000000000002</ele><time>2026-04-18T07:26:09.228Z</time></trkpt><trkpt lat="43.6341681" lon="11.2018258"><ele>166.0</ele><time>2026-04-18T07:26:10.229Z</time></trkpt><trkpt lat="43.6341247" lon="11.201953"><ele>166.0</ele><time>2026-04-18T07:26:11.229Z</time></trkpt><trkpt lat="43.6340872" lon="11.2020597"><ele>166.0</ele><time>2026-04-18T07:26:12.227Z</time></trkpt><trkpt lat="43.6340517" lon="11.2021543"><ele>166.0</ele><time>2026-04-18T07:26:13.227Z</time></trkpt><trkpt lat="43.6340319" lon="11.2022399"><ele>166.0</ele><time>2026-04-18T07:26:14.227Z</time></trkpt><trkpt lat="43.6340256" lon="11.2023359"><ele>166.0</ele><time>2026-04-18T07:26:15.227Z</time></trkpt><trkpt lat="43.6340449" lon="11.20244"><ele>166.0</ele><time>2026-04-18T07:26:16.227Z</time></trkpt><trkpt lat="43.6340788" lon="11.2025493"><ele>166.28571428571428</ele><time>2026-04-18T07:26:17.229Z</time></trkpt><trkpt lat="43.6341294" lon="11.2026521"><ele>166.57142857142858</ele><time>2026-04-18T07:26:18.228Z</time></trkpt><trkpt lat="43.6341833" lon="11.202742"><ele>166.85714285714286</ele><time>2026-04-18T07:26:19.228Z</time></trkpt><trkpt lat="43.6342148" lon="11.2028247"><ele>167.14285714285714</ele><time>2026-04-18T07:26:20.229Z</time></trkpt><trkpt lat="43.63423" lon="11.2029147"><ele>167.42857142857144</ele><time>2026-04-18T07:26:21.227Z</time></trkpt><trkpt lat="43.6342178" lon="11.203008"><ele>167.71428571428572</ele><time>2026-04-18T07:26:22.228Z</time></trkpt><trkpt lat="43.6341952" lon="11.2031001"><ele>168.0</ele><time>2026-04-18T07:26:23.227Z</time></trkpt><trkpt lat="43.6341592" lon="11.2031735"><ele>168.0</ele><time>2026-04-18T07:26:24.228Z</time></trkpt><trkpt lat="43.6340917" lon="11.2032776"><ele>168.0</ele><time>2026-04-18T07:26:26.228Z</time></trkpt><trkpt lat="43.6340436" lon="11.2033382"><ele>168.0</ele><time>2026-04-18T07:26:27.228Z</time></trkpt><trkpt lat="43.6339981" lon="11.2034117"><ele>168.0</ele><time>2026-04-18T07:26:28.228Z</time></trkpt><trkpt lat="43.6339581" lon="11.2035041"><ele>168.0</ele><time>2026-04-18T07:26:29.228Z</time></trkpt><trkpt lat="43.633918" lon="11.2036127"><ele>168.0</ele><time>2026-04-18T07:26:30.227Z</time></trkpt><trkpt lat="43.6338786" lon="11.2037293"><ele>168.0</ele><time>2026-04-18T07:26:31.229Z</time></trkpt><trkpt lat="43.6338399" lon="11.2038586"><ele>168.0</ele><time>2026-04-18T07:26:32.228Z</time></trkpt><trkpt lat="43.6338004" lon="11.2039896"><ele>168.0</ele><time>2026-04-18T07:26:33.229Z</time></trkpt><trkpt lat="43.6337653" lon="11.2041222"><ele>168.0</ele><time>2026-04-18T07:26:34.228Z</time></trkpt><trkpt lat="43.6337381" lon="11.204246"><ele>168.0</ele><time>2026-04-18T07:26:35.229Z</time></trkpt><trkpt lat="43.6337017" lon="11.2043695"><ele>168.0</ele><time>2026-04-18T07:26:36.229Z</time></trkpt><trkpt lat="43.6336699" lon="11.2044829"><ele>168.0</ele><time>2026-04-18T07:26:37.227Z</time></trkpt><trkpt lat="43.6336436" lon="11.204587"><ele>168.0</ele><time>2026-04-18T07:26:38.227Z</time></trkpt><trkpt lat="43.633619" lon="11.2046741"><ele>168.0</ele><time>2026-04-18T07:26:39.227Z</time></trkpt><trkpt lat="43.6335917" lon="11.2047548"><ele>168.0</ele><time>2026-04-18T07:26:40.228Z</time></trkpt><trkpt lat="43.6335366" lon="11.2049122"><ele>168.0</ele><time>2026-04-18T07:26:42.228Z</time></trkpt><trkpt lat="43.6334934" lon="11.2049968"><ele>169.0</ele><time>2026-04-18T07:26:43.228Z</time></trkpt><trkpt lat="43.6334436" lon="11.20508"><ele>170.0</ele><time>2026-04-18T07:26:44.228Z</time></trkpt><trkpt lat="43.6333969" lon="11.2051735"><ele>171.0</ele><time>2026-04-18T07:26:45.228Z</time></trkpt><trkpt lat="43.6333537" lon="11.2052724"><ele>172.0</ele><time>2026-04-18T07:26:46.228Z</time></trkpt><trkpt lat="43.633311" lon="11.2053668"><ele>173.0</ele><time>2026-04-18T07:26:47.229Z</time></trkpt><trkpt lat="43.6332744" lon="11.2054723"><ele>174.0</ele><time>2026-04-18T07:26:48.227Z</time></trkpt><trkpt lat="43.6332475" lon="11.2055775"><ele>173.57142857142856</ele><time>2026-04-18T07:26:49.228Z</time></trkpt><trkpt lat="43.6332212" lon="11.205672"><ele>173.14285714285714</ele><time>2026-04-18T07:26:50.227Z</time></trkpt><trkpt lat="43.6331915" lon="11.20576"><ele>172.71428571428572</ele><time>2026-04-18T07:26:51.228Z</time></trkpt><trkpt lat="43.6331657" lon="11.2058549"><ele>172.28571428571428</ele><time>2026-04-18T07:26:52.228Z</time></trkpt><trkpt lat="43.6331395" lon="11.2059541"><ele>171.85714285714286</ele><time>2026-04-18T07:26:53.228Z</time></trkpt><trkpt lat="43.6331252" lon="11.2060507"><ele>171.42857142857142</ele><time>2026-04-18T07:26:54.227Z</time></trkpt><trkpt lat="43.6331112" lon="11.2061433"><ele>171.0</ele><time>2026-04-18T07:26:55.228Z</time></trkpt><trkpt lat="43.6330731" lon="11.2062908"><ele>171.0</ele><time>2026-04-18T07:26:57.228Z</time></trkpt><trkpt lat="43.6330288" lon="11.2064131"><ele>171.0</ele><time>2026-04-18T07:26:59.229Z</time></trkpt><trkpt lat="43.6329731" lon="11.2065433"><ele>171.0</ele><time>2026-04-18T07:27:01.228Z</time></trkpt><trkpt lat="43.6329078" lon="11.2066583"><ele>171.0</ele><time>2026-04-18T07:27:03.228Z</time></trkpt><trkpt lat="43.6328576" lon="11.2067799"><ele>171.0</ele><time>2026-04-18T07:27:05.228Z</time></trkpt><trkpt lat="43.6328124" lon="11.2069065"><ele>171.83333333333334</ele><time>2026-04-18T07:27:07.228Z</time></trkpt><trkpt lat="43.6327897" lon="11.206989"><ele>172.66666666666666</ele><time>2026-04-18T07:27:08.229Z</time></trkpt><trkpt lat="43.6327791" lon="11.2070925"><ele>173.5</ele><time>2026-04-18T07:27:09.227Z</time></trkpt><trkpt lat="43.6327803" lon="11.2071867"><ele>174.33333333333331</ele><time>2026-04-18T07:27:10.229Z</time></trkpt><trkpt lat="43.6327928" lon="11.2072872"><ele>175.16666666666666</ele><time>2026-04-18T07:27:11.228Z</time></trkpt><trkpt lat="43.6328309" lon="11.2074488"><ele>176.0</ele><time>2026-04-18T07:27:13.229Z</time></trkpt><trkpt lat="43.6328685" lon="11.2075337"><ele>176.0</ele><time>2026-04-18T07:27:14.227Z</time></trkpt><trkpt lat="43.6328917" lon="11.2076327"><ele>176.0</ele><time>2026-04-18T07:27:15.229Z</time></trkpt><trkpt lat="43.632903" lon="11.2077386"><ele>176.0</ele><time>2026-04-18T07:27:16.228Z</time></trkpt><trkpt lat="43.6329022" lon="11.2078365"><ele>176.0</ele><time>2026-04-18T07:27:17.228Z</time></trkpt><trkpt lat="43.6328877" lon="11.2079294"><ele>176.0</ele><time>2026-04-18T07:27:18.227Z</time></trkpt><trkpt lat="43.6328611" lon="11.208016"><ele>176.0</ele><time>2026-04-18T07:27:19.228Z</time></trkpt><trkpt lat="43.6328088" lon="11.2081088"><ele>176.0</ele><time>2026-04-18T07:27:20.228Z</time></trkpt><trkpt lat="43.6327468" lon="11.2081987"><ele>176.4</ele><time>2026-04-18T07:27:21.228Z</time></trkpt><trkpt lat="43.6326675" lon="11.2082973"><ele>176.8</ele><time>2026-04-18T07:27:22.229Z</time></trkpt><trkpt lat="43.6325914" lon="11.2083815"><ele>177.20000000000002</ele><time>2026-04-18T07:27:23.229Z</time></trkpt><trkpt lat="43.6325235" lon="11.2084505"><ele>177.60000000000002</ele><time>2026-04-18T07:27:24.227Z</time></trkpt><trkpt lat="43.6324493" lon="11.2085281"><ele>178.0</ele><time>2026-04-18T07:27:25.228Z</time></trkpt><trkpt lat="43.6323656" lon="11.2085831"><ele>178.0</ele><time>2026-04-18T07:27:26.229Z</time></trkpt><trkpt lat="43.6322806" lon="11.208629"><ele>178.0</ele><time>2026-04-18T07:27:27.227Z</time></trkpt><trkpt lat="43.6322074" lon="11.2086735"><ele>178.0</ele><time>2026-04-18T07:27:28.228Z</time></trkpt><trkpt lat="43.6321459" lon="11.2087247"><ele>178.0</ele><time>2026-04-18T07:27:29.227Z</time></trkpt><trkpt lat="43.6320429" lon="11.2088333"><ele>178.0</ele><time>2026-04-18T07:27:31.229Z</time></trkpt><trkpt lat="43.63199" lon="11.2089074"><ele>178.0</ele><time>2026-04-18T07:27:32.228Z</time></trkpt><trkpt lat="43.63193" lon="11.2089883"><ele>181.0</ele><time>2026-04-18T07:27:33.227Z</time></trkpt><trkpt lat="43.6318757" lon="11.2090627"><ele>184.0</ele><time>2026-04-18T07:27:34.229Z</time></trkpt><trkpt lat="43.6318381" lon="11.209135"><ele>187.0</ele><time>2026-04-18T07:27:35.228Z</time></trkpt><trkpt lat="43.6318025" lon="11.2092775"><ele>190.0</ele><time>2026-04-18T07:27:37.229Z</time></trkpt><trkpt lat="43.6318211" lon="11.2093893"><ele>192.99999999999997</ele><time>2026-04-18T07:27:39.228Z</time></trkpt><trkpt lat="43.6318859" lon="11.2094544"><ele>196.0</ele><time>2026-04-18T07:27:40.227Z</time></trkpt><trkpt lat="43.631948" lon="11.2095069"><ele>193.16666666666666</ele><time>2026-04-18T07:27:41.228Z</time></trkpt><trkpt lat="43.6320305" lon="11.2095791"><ele>190.33333333333331</ele><time>2026-04-18T07:27:42.229Z</time></trkpt><trkpt lat="43.6321036" lon="11.2096458"><ele>187.5</ele><time>2026-04-18T07:27:43.227Z</time></trkpt><trkpt lat="43.6321631" lon="11.2097121"><ele>184.66666666666666</ele><time>2026-04-18T07:27:44.227Z</time></trkpt><trkpt lat="43.6322201" lon="11.2097709"><ele>181.83333333333331</ele><time>2026-04-18T07:27:45.228Z</time></trkpt><trkpt lat="43.6322614" lon="11.2098724"><ele>179.0</ele><time>2026-04-18T07:27:47.228Z</time></trkpt><trkpt lat="43.6322428" lon="11.2099896"><ele>179.0</ele><time>2026-04-18T07:27:49.227Z</time></trkpt><trkpt lat="43.6321536" lon="11.2101332"><ele>179.0</ele><time>2026-04-18T07:27:51.229Z</time></trkpt><trkpt lat="43.6321" lon="11.2102142"><ele>179.0</ele><time>2026-04-18T07:27:52.229Z</time></trkpt><trkpt lat="43.6320433" lon="11.2102863"><ele>179.0</ele><time>2026-04-18T07:27:53.228Z</time></trkpt><trkpt lat="43.6319811" lon="11.2103704"><ele>179.0</ele><time>2026-04-18T07:27:54.228Z</time></trkpt><trkpt lat="43.6319166" lon="11.2104712"><ele>180.0</ele><time>2026-04-18T07:27:55.228Z</time></trkpt><trkpt lat="43.6318521" lon="11.2105761"><ele>181.0</ele><time>2026-04-18T07:27:56.228Z</time></trkpt><trkpt lat="43.6317722" lon="11.2106768"><ele>182.0</ele><time>2026-04-18T07:27:57.229Z</time></trkpt><trkpt lat="43.6316826" lon="11.2107891"><ele>183.0</ele><time>2026-04-18T07:27:58.228Z</time></trkpt><trkpt lat="43.6315934" lon="11.2109261"><ele>183.0</ele><time>2026-04-18T07:27:59.228Z</time></trkpt><trkpt lat="43.6315049" lon="11.2110637"><ele>183.0</ele><time>2026-04-18T07:28:00.228Z</time></trkpt><trkpt lat="43.6314136" lon="11.2112255"><ele>183.0</ele><time>2026-04-18T07:28:01.229Z</time></trkpt><trkpt lat="43.631329" lon="11.2113785"><ele>183.0</ele><time>2026-04-18T07:28:02.228Z</time></trkpt><trkpt lat="43.6312645" lon="11.2115216"><ele>183.2</ele><time>2026-04-18T07:28:03.229Z</time></trkpt><trkpt lat="43.6312011" lon="11.2116482"><ele>183.4</ele><time>2026-04-18T07:28:04.229Z</time></trkpt><trkpt lat="43.6311622" lon="11.2117652"><ele>183.6</ele><time>2026-04-18T07:28:05.227Z</time></trkpt><trkpt lat="43.6311361" lon="11.2118665"><ele>183.79999999999998</ele><time>2026-04-18T07:28:06.227Z</time></trkpt><trkpt lat="43.6311234" lon="11.2119671"><ele>184.0</ele><time>2026-04-18T07:28:07.229Z</time></trkpt><trkpt lat="43.6311506" lon="11.2121415"><ele>184.0</ele><time>2026-04-18T07:28:09.228Z</time></trkpt><trkpt lat="43.6311992" lon="11.2122255"><ele>184.0</ele><time>2026-04-18T07:28:10.229Z</time></trkpt><trkpt lat="43.6312685" lon="11.2122944"><ele>184.0</ele><time>2026-04-18T07:28:11.228Z</time></trkpt><trkpt lat="43.6313236" lon="11.2123629"><ele>184.0</ele><time>2026-04-18T07:28:12.227Z</time></trkpt><trkpt lat="43.6313817" lon="11.2124861"><ele>184.0</ele><time>2026-04-18T07:28:14.228Z</time></trkpt><trkpt lat="43.6313594" lon="11.2126099"><ele>184.0</ele><time>2026-04-18T07:28:16.228Z</time></trkpt><trkpt lat="43.6312816" lon="11.2127342"><ele>184.79999999999998</ele><time>2026-04-18T07:28:18.229Z</time></trkpt><trkpt lat="43.631207" lon="11.2127851"><ele>185.6</ele><time>2026-04-18T07:28:19.229Z</time></trkpt><trkpt lat="43.6311252" lon="11.2128354"><ele>186.4</ele><time>2026-04-18T07:28:20.227Z</time></trkpt><trkpt lat="43.6310382" lon="11.2128937"><ele>187.2</ele><time>2026-04-18T07:28:21.228Z</time></trkpt><trkpt lat="43.6309521" lon="11.2129643"><ele>188.0</ele><time>2026-04-18T07:28:22.227Z</time></trkpt><trkpt lat="43.6308551" lon="11.2130395"><ele>188.0</ele><time>2026-04-18T07:28:23.229Z</time></trkpt><trkpt lat="43.6307639" lon="11.213104"><ele>188.0</ele><time>2026-04-18T07:28:24.228Z</time></trkpt><trkpt lat="43.6306936" lon="11.2131717"><ele>188.0</ele><time>2026-04-18T07:28:25.228Z</time></trkpt><trkpt lat="43.6306366" lon="11.213243"><ele>188.0</ele><time>2026-04-18T07:28:26.228Z</time></trkpt><trkpt lat="43.6305809" lon="11.213335"><ele>188.0</ele><time>2026-04-18T07:28:27.228Z</time></trkpt><trkpt lat="43.6305464" lon="11.2134399"><ele>188.0</ele><time>2026-04-18T07:28:28.228Z</time></trkpt><trkpt lat="43.6305169" lon="11.2135384"><ele>188.0</ele><time>2026-04-18T07:28:29.228Z</time></trkpt><trkpt lat="43.6304924" lon="11.2136498"><ele>188.0</ele><time>2026-04-18T07:28:30.229Z</time></trkpt><trkpt lat="43.6304706" lon="11.2137681"><ele>188.0</ele><time>2026-04-18T07:28:31.229Z</time></trkpt><trkpt lat="43.6304615" lon="11.2138914"><ele>188.0</ele><time>2026-04-18T07:28:32.228Z</time></trkpt><trkpt lat="43.6304501" lon="11.2140091"><ele>188.0</ele><time>2026-04-18T07:28:33.227Z</time></trkpt><trkpt lat="43.6304221" lon="11.2141221"><ele>188.0</ele><time>2026-04-18T07:28:34.228Z</time></trkpt><trkpt lat="43.6303819" lon="11.2142419"><ele>188.2</ele><time>2026-04-18T07:28:35.229Z</time></trkpt><trkpt lat="43.630338" lon="11.2143525"><ele>188.4</ele><time>2026-04-18T07:28:36.228Z</time></trkpt><trkpt lat="43.6302906" lon="11.2144603"><ele>188.6</ele><time>2026-04-18T07:28:37.228Z</time></trkpt><trkpt lat="43.6302424" lon="11.2145574"><ele>188.79999999999998</ele><time>2026-04-18T07:28:38.229Z</time></trkpt><trkpt lat="43.6301934" lon="11.2146453"><ele>189.0</ele><time>2026-04-18T07:28:39.228Z</time></trkpt><trkpt lat="43.6301189" lon="11.2147652"><ele>188.75</ele><time>2026-04-18T07:28:40.228Z</time></trkpt><trkpt lat="43.630049" lon="11.2148712"><ele>188.5</ele><time>2026-04-18T07:28:41.229Z</time></trkpt><trkpt lat="43.6299795" lon="11.2149813"><ele>188.25</ele><time>2026-04-18T07:28:42.228Z</time></trkpt><trkpt lat="43.6299048" lon="11.2151158"><ele>188.0</ele><time>2026-04-18T07:28:43.229Z</time></trkpt><trkpt lat="43.6298205" lon="11.2152473"><ele>188.0</ele><time>2026-04-18T07:28:44.228Z</time></trkpt><trkpt lat="43.6297493" lon="11.2153599"><ele>188.0</ele><time>2026-04-18T07:28:45.228Z</time></trkpt><trkpt lat="43.6296915" lon="11.2154771"><ele>188.0</ele><time>2026-04-18T07:28:46.226Z</time></trkpt><trkpt lat="43.6296367" lon="11.2155757"><ele>188.0</ele><time>2026-04-18T07:28:47.229Z</time></trkpt><trkpt lat="43.6295857" lon="11.2156592"><ele>188.0</ele><time>2026-04-18T07:28:48.228Z</time></trkpt><trkpt lat="43.6295363" lon="11.215735"><ele>188.33333333333331</ele><time>2026-04-18T07:28:49.227Z</time></trkpt><trkpt lat="43.6294803" lon="11.2158088"><ele>188.66666666666666</ele><time>2026-04-18T07:28:50.229Z</time></trkpt><trkpt lat="43.6294091" lon="11.2158709"><ele>189.0</ele><time>2026-04-18T07:28:51.227Z</time></trkpt><trkpt lat="43.6293277" lon="11.2159291"><ele>189.33333333333334</ele><time>2026-04-18T07:28:52.228Z</time></trkpt><trkpt lat="43.6292654" lon="11.2159744"><ele>189.66666666666669</ele><time>2026-04-18T07:28:53.228Z</time></trkpt><trkpt lat="43.6292002" lon="11.2160032"><ele>190.0</ele><time>2026-04-18T07:28:54.228Z</time></trkpt><trkpt lat="43.6291321" lon="11.2160557"><ele>190.2</ele><time>2026-04-18T07:28:55.227Z</time></trkpt><trkpt lat="43.6290606" lon="11.2161229"><ele>190.4</ele><time>2026-04-18T07:28:56.229Z</time></trkpt><trkpt lat="43.6289818" lon="11.2162016"><ele>190.60000000000002</ele><time>2026-04-18T07:28:57.229Z</time></trkpt><trkpt lat="43.6289117" lon="11.2162888"><ele>190.8</ele><time>2026-04-18T07:28:58.228Z</time></trkpt><trkpt lat="43.6288454" lon="11.2163898"><ele>191.0</ele><time>2026-04-18T07:28:59.229Z</time></trkpt><trkpt lat="43.6287705" lon="11.2165202"><ele>190.5</ele><time>2026-04-18T07:29:00.229Z</time></trkpt><trkpt lat="43.6286939" lon="11.2166568"><ele>190.0</ele><time>2026-04-18T07:29:01.227Z</time></trkpt><trkpt lat="43.6286104" lon="11.2168069"><ele>189.5</ele><time>2026-04-18T07:29:02.228Z</time></trkpt><trkpt lat="43.6285175" lon="11.2169495"><ele>189.0</ele><time>2026-04-18T07:29:03.229Z</time></trkpt><trkpt lat="43.628441" lon="11.2170937"><ele>189.6</ele><time>2026-04-18T07:29:04.229Z</time></trkpt><trkpt lat="43.6283741" lon="11.2172177"><ele>190.2</ele><time>2026-04-18T07:29:05.227Z</time></trkpt><trkpt lat="43.6283145" lon="11.2173283"><ele>190.79999999999998</ele><time>2026-04-18T07:29:06.23Z</time></trkpt><trkpt lat="43.6282565" lon="11.2174309"><ele>191.39999999999998</ele><time>2026-04-18T07:29:07.229Z</time></trkpt><trkpt lat="43.6281917" lon="11.2175324"><ele>192.0</ele><time>2026-04-18T07:29:08.228Z</time></trkpt><trkpt lat="43.6281255" lon="11.2176381"><ele>192.0</ele><time>2026-04-18T07:29:09.229Z</time></trkpt><trkpt lat="43.6280692" lon="11.2177531"><ele>192.0</ele><time>2026-04-18T07:29:10.227Z</time></trkpt><trkpt lat="43.6280209" lon="11.2178498"><ele>192.0</ele><time>2026-04-18T07:29:11.229Z</time></trkpt><trkpt lat="43.6279682" lon="11.2179453"><ele>192.0</ele><time>2026-04-18T07:29:12.227Z</time></trkpt><trkpt lat="43.6279154" lon="11.2180523"><ele>192.0</ele><time>2026-04-18T07:29:13.228Z</time></trkpt><trkpt lat="43.6278545" lon="11.2181499"><ele>192.5</ele><time>2026-04-18T07:29:14.229Z</time></trkpt><trkpt lat="43.6278025" lon="11.2182429"><ele>193.0</ele><time>2026-04-18T07:29:15.228Z</time></trkpt><trkpt lat="43.6277596" lon="11.2183349"><ele>193.5</ele><time>2026-04-18T07:29:16.229Z</time></trkpt><trkpt lat="43.627717" lon="11.2184294"><ele>194.0</ele><time>2026-04-18T07:29:17.227Z</time></trkpt><trkpt lat="43.6276793" lon="11.218523"><ele>194.5</ele><time>2026-04-18T07:29:18.229Z</time></trkpt><trkpt lat="43.6276555" lon="11.2186229"><ele>195.0</ele><time>2026-04-18T07:29:19.229Z</time></trkpt><trkpt lat="43.6276392" lon="11.2187377"><ele>195.0</ele><time>2026-04-18T07:29:20.229Z</time></trkpt><trkpt lat="43.6276348" lon="11.2188428"><ele>195.0</ele><time>2026-04-18T07:29:21.228Z</time></trkpt><trkpt lat="43.627655" lon="11.2189608"><ele>195.0</ele><time>2026-04-18T07:29:22.228Z</time></trkpt><trkpt lat="43.6276866" lon="11.219092"><ele>195.0</ele><time>2026-04-18T07:29:23.228Z</time></trkpt><trkpt lat="43.6277032" lon="11.2192121"><ele>195.0</ele><time>2026-04-18T07:29:24.229Z</time></trkpt><trkpt lat="43.6277189" lon="11.2193228"><ele>195.0</ele><time>2026-04-18T07:29:25.228Z</time></trkpt><trkpt lat="43.627725" lon="11.2194155"><ele>195.16666666666666</ele><time>2026-04-18T07:29:26.227Z</time></trkpt><trkpt lat="43.6277351" lon="11.21951"><ele>195.33333333333331</ele><time>2026-04-18T07:29:27.228Z</time></trkpt><trkpt lat="43.6277477" lon="11.2195975"><ele>195.5</ele><time>2026-04-18T07:29:28.229Z</time></trkpt><trkpt lat="43.6277709" lon="11.2197284"><ele>195.66666666666666</ele><time>2026-04-18T07:29:30.229Z</time></trkpt><trkpt lat="43.627793" lon="11.219863"><ele>195.83333333333331</ele><time>2026-04-18T07:29:32.228Z</time></trkpt><trkpt lat="43.6278165" lon="11.2199471"><ele>196.0</ele><time>2026-04-18T07:29:33.229Z</time></trkpt><trkpt lat="43.6278559" lon="11.2200533"><ele>197.20000000000002</ele><time>2026-04-18T07:29:34.229Z</time></trkpt><trkpt lat="43.6278906" lon="11.2201696"><ele>198.4</ele><time>2026-04-18T07:29:35.229Z</time></trkpt><trkpt lat="43.6279296" lon="11.2202952"><ele>199.6</ele><time>2026-04-18T07:29:36.228Z</time></trkpt><trkpt lat="43.6279618" lon="11.220442"><ele>200.8</ele><time>2026-04-18T07:29:37.228Z</time></trkpt><trkpt lat="43.6279926" lon="11.2205892"><ele>202.0</ele><time>2026-04-18T07:29:38.229Z</time></trkpt><trkpt lat="43.6280319" lon="11.2207119"><ele>202.33333333333331</ele><time>2026-04-18T07:29:39.228Z</time></trkpt><trkpt lat="43.6280677" lon="11.2208108"><ele>202.66666666666666</ele><time>2026-04-18T07:29:40.227Z</time></trkpt><trkpt lat="43.6280895" lon="11.2209265"><ele>203.0</ele><time>2026-04-18T07:29:42.228Z</time></trkpt><trkpt lat="43.6279745" lon="11.2209195"><ele>203.33333333333331</ele><time>2026-04-18T07:29:45.228Z</time></trkpt><trkpt lat="43.6279111" lon="11.2208922"><ele>203.66666666666666</ele><time>2026-04-18T07:29:46.228Z</time></trkpt><trkpt lat="43.6278457" lon="11.2208782"><ele>204.0</ele><time>2026-04-18T07:29:47.228Z</time></trkpt><trkpt lat="43.6277611" lon="11.2208834"><ele>204.5</ele><time>2026-04-18T07:29:48.228Z</time></trkpt><trkpt lat="43.6276744" lon="11.2209023"><ele>205.0</ele><time>2026-04-18T07:29:49.227Z</time></trkpt><trkpt lat="43.627588" lon="11.2209279"><ele>205.5</ele><time>2026-04-18T07:29:50.228Z</time></trkpt><trkpt lat="43.6275156" lon="11.2209767"><ele>206.0</ele><time>2026-04-18T07:29:51.228Z</time></trkpt><trkpt lat="43.6274497" lon="11.2210126"><ele>206.5</ele><time>2026-04-18T07:29:52.229Z</time></trkpt><trkpt lat="43.6273759" lon="11.2210425"><ele>207.0</ele><time>2026-04-18T07:29:53.227Z</time></trkpt><trkpt lat="43.6273076" lon="11.221081"><ele>207.0</ele><time>2026-04-18T07:29:54.228Z</time></trkpt><trkpt lat="43.6272505" lon="11.2211345"><ele>207.0</ele><time>2026-04-18T07:29:55.228Z</time></trkpt><trkpt lat="43.6271968" lon="11.2212215"><ele>207.0</ele><time>2026-04-18T07:29:56.229Z</time></trkpt><trkpt lat="43.6271482" lon="11.2213171"><ele>207.0</ele><time>2026-04-18T07:29:57.228Z</time></trkpt><trkpt lat="43.6270923" lon="11.2214234"><ele>207.0</ele><time>2026-04-18T07:29:58.228Z</time></trkpt><trkpt lat="43.6270396" lon="11.2215241"><ele>207.0</ele><time>2026-04-18T07:29:59.228Z</time></trkpt><trkpt lat="43.6269915" lon="11.2216128"><ele>210.33333333333334</ele><time>2026-04-18T07:30:00.228Z</time></trkpt><trkpt lat="43.6269458" lon="11.221694"><ele>213.66666666666669</ele><time>2026-04-18T07:30:01.23Z</time></trkpt><trkpt lat="43.6268889" lon="11.2218015"><ele>217.0</ele><time>2026-04-18T07:30:02.228Z</time></trkpt><trkpt lat="43.6268412" lon="11.2219178"><ele>220.33333333333334</ele><time>2026-04-18T07:30:03.229Z</time></trkpt><trkpt lat="43.6268041" lon="11.2220284"><ele>223.66666666666669</ele><time>2026-04-18T07:30:04.227Z</time></trkpt><trkpt lat="43.6267642" lon="11.2221415"><ele>227.0</ele><time>2026-04-18T07:30:05.229Z</time></trkpt><trkpt lat="43.6267193" lon="11.2222689"><ele>228.2</ele><time>2026-04-18T07:30:06.229Z</time></trkpt><trkpt lat="43.6266629" lon="11.2223895"><ele>229.39999999999998</ele><time>2026-04-18T07:30:07.228Z</time></trkpt><trkpt lat="43.6266153" lon="11.2225166"><ele>230.60000000000002</ele><time>2026-04-18T07:30:08.228Z</time></trkpt><trkpt lat="43.6265593" lon="11.2226508"><ele>231.8</ele><time>2026-04-18T07:30:09.228Z</time></trkpt><trkpt lat="43.6264942" lon="11.2227765"><ele>233.0</ele><time>2026-04-18T07:30:10.229Z</time></trkpt><trkpt lat="43.6264416" lon="11.2228991"><ele>233.0</ele><time>2026-04-18T07:30:11.228Z</time></trkpt><trkpt lat="43.6263779" lon="11.2230135"><ele>233.0</ele><time>2026-04-18T07:30:12.227Z</time></trkpt><trkpt lat="43.626312" lon="11.2231385"><ele>233.0</ele><time>2026-04-18T07:30:13.227Z</time></trkpt><trkpt lat="43.6262443" lon="11.2232698"><ele>233.0</ele><time>2026-04-18T07:30:14.229Z</time></trkpt><trkpt lat="43.626172" lon="11.2234054"><ele>235.75</ele><time>2026-04-18T07:30:15.228Z</time></trkpt><trkpt lat="43.6261055" lon="11.2235517"><ele>238.5</ele><time>2026-04-18T07:30:16.228Z</time></trkpt><trkpt lat="43.6260297" lon="11.2236954"><ele>241.25</ele><time>2026-04-18T07:30:17.228Z</time></trkpt><trkpt lat="43.6259592" lon="11.2238196"><ele>244.0</ele><time>2026-04-18T07:30:18.227Z</time></trkpt><trkpt lat="43.6258997" lon="11.2239279"><ele>245.49999999999997</ele><time>2026-04-18T07:30:19.228Z</time></trkpt><trkpt lat="43.6258679" lon="11.224003"><ele>247.0</ele><time>2026-04-18T07:30:20.227Z</time></trkpt><trkpt lat="43.6258063" lon="11.2241338"><ele>248.5</ele><time>2026-04-18T07:30:22.228Z</time></trkpt><trkpt lat="43.6257579" lon="11.224227"><ele>250.0</ele><time>2026-04-18T07:30:25.228Z</time></trkpt><trkpt lat="43.6256893" lon="11.2242419"><ele>251.49999999999997</ele><time>2026-04-18T07:30:27.228Z</time></trkpt><trkpt lat="43.6256268" lon="11.2242105"><ele>253.0</ele><time>2026-04-18T07:30:29.228Z</time></trkpt><trkpt lat="43.6255482" lon="11.2241465"><ele>252.99999999999997</ele><time>2026-04-18T07:30:32.228Z</time></trkpt><trkpt lat="43.625467" lon="11.2240666"><ele>253.0</ele><time>2026-04-18T07:30:35.228Z</time></trkpt><trkpt lat="43.6254116" lon="11.2240052"><ele>253.0</ele><time>2026-04-18T07:30:37.227Z</time></trkpt><trkpt lat="43.6253531" lon="11.2239571"><ele>253.0</ele><time>2026-04-18T07:30:39.227Z</time></trkpt><trkpt lat="43.6252612" lon="11.2239791"><ele>252.99999999999997</ele><time>2026-04-18T07:30:42.228Z</time></trkpt><trkpt lat="43.6251898" lon="11.2240153"><ele>253.0</ele><time>2026-04-18T07:30:44.228Z</time></trkpt><trkpt lat="43.6251154" lon="11.2240663"><ele>254.66666666666666</ele><time>2026-04-18T07:30:46.228Z</time></trkpt><trkpt lat="43.6250666" lon="11.2241254"><ele>256.3333333333333</ele><time>2026-04-18T07:30:47.229Z</time></trkpt><trkpt lat="43.6249961" lon="11.2242338"><ele>258.0</ele><time>2026-04-18T07:30:49.228Z</time></trkpt><trkpt lat="43.624944" lon="11.2243411"><ele>259.6666666666667</ele><time>2026-04-18T07:30:51.228Z</time></trkpt><trkpt lat="43.62486" lon="11.2244299"><ele>261.33333333333337</ele><time>2026-04-18T07:30:53.229Z</time></trkpt><trkpt lat="43.6248079" lon="11.2244802"><ele>263.0</ele><time>2026-04-18T07:30:55.228Z</time></trkpt><trkpt lat="43.6247673" lon="11.2245641"><ele>263.0</ele><time>2026-04-18T07:30:58.228Z</time></trkpt><trkpt lat="43.6247041" lon="11.2246169"><ele>263.0</ele><time>2026-04-18T07:31:00.229Z</time></trkpt><trkpt lat="43.6246504" lon="11.2246676"><ele>263.0</ele><time>2026-04-18T07:31:01.229Z</time></trkpt><trkpt lat="43.6245883" lon="11.2247444"><ele>263.0</ele><time>2026-04-18T07:31:03.227Z</time></trkpt><trkpt lat="43.6245371" lon="11.2247982"><ele>263.0</ele><time>2026-04-18T07:31:04.228Z</time></trkpt><trkpt lat="43.6244497" lon="11.2249215"><ele>263.0</ele><time>2026-04-18T07:31:06.228Z</time></trkpt><trkpt lat="43.6243911" lon="11.2249969"><ele>263.8</ele><time>2026-04-18T07:31:07.228Z</time></trkpt><trkpt lat="43.6242897" lon="11.2250887"><ele>264.6</ele><time>2026-04-18T07:31:09.228Z</time></trkpt><trkpt lat="43.624229" lon="11.225126"><ele>265.4</ele><time>2026-04-18T07:31:10.229Z</time></trkpt><trkpt lat="43.6241589" lon="11.2251672"><ele>266.2</ele><time>2026-04-18T07:31:12.229Z</time></trkpt><trkpt lat="43.6240926" lon="11.2252425"><ele>267.0</ele><time>2026-04-18T07:31:14.229Z</time></trkpt><trkpt lat="43.6240281" lon="11.2253839"><ele>267.0</ele><time>2026-04-18T07:31:16.227Z</time></trkpt><trkpt lat="43.6240087" lon="11.2254919"><ele>267.0</ele><time>2026-04-18T07:31:19.227Z</time></trkpt><trkpt lat="43.6240069" lon="11.2255796"><ele>267.0</ele><time>2026-04-18T07:31:22.228Z</time></trkpt><trkpt lat="43.6239849" lon="11.2256644"><ele>267.0</ele><time>2026-04-18T07:31:24.229Z</time></trkpt><trkpt lat="43.6239538" lon="11.2257513"><ele>267.0</ele><time>2026-04-18T07:31:26.228Z</time></trkpt><trkpt lat="43.6239043" lon="11.2258263"><ele>267.0</ele><time>2026-04-18T07:31:29.229Z</time></trkpt><trkpt lat="43.6238788" lon="11.2259635"><ele>266.6666666666667</ele><time>2026-04-18T07:33:44.229Z</time></trkpt><trkpt lat="43.6238377" lon="11.2260653"><ele>266.3333333333333</ele><time>2026-04-18T07:33:47.229Z</time></trkpt><trkpt lat="43.6238206" lon="11.226157"><ele>266.0</ele><time>2026-04-18T07:33:49.229Z</time></trkpt><trkpt lat="43.623821" lon="11.2262716"><ele>265.66666666666663</ele><time>2026-04-18T07:33:52.229Z</time></trkpt><trkpt lat="43.6237753" lon="11.226376"><ele>265.3333333333333</ele><time>2026-04-18T07:33:56.228Z</time></trkpt><trkpt lat="43.6237234" lon="11.2264446"><ele>265.0</ele><time>2026-04-18T07:33:59.229Z</time></trkpt><trkpt lat="43.6236927" lon="11.2265472"><ele>265.8333333333333</ele><time>2026-04-18T07:34:02.229Z</time></trkpt><trkpt lat="43.6236637" lon="11.2266547"><ele>266.66666666666663</ele><time>2026-04-18T07:34:05.228Z</time></trkpt><trkpt lat="43.6236312" lon="11.2267386"><ele>267.5</ele><time>2026-04-18T07:34:07.229Z</time></trkpt><trkpt lat="43.6235505" lon="11.2268002"><ele>268.3333333333333</ele><time>2026-04-18T07:34:09.229Z</time></trkpt><trkpt lat="43.623479" lon="11.22686"><ele>269.1666666666667</ele><time>2026-04-18T07:34:11.227Z</time></trkpt><trkpt lat="43.6234311" lon="11.226926"><ele>270.0</ele><time>2026-04-18T07:34:13.229Z</time></trkpt><trkpt lat="43.6234017" lon="11.2270146"><ele>272.3333333333333</ele><time>2026-04-18T07:34:16.228Z</time></trkpt><trkpt lat="43.6233521" lon="11.2270695"><ele>274.6666666666667</ele><time>2026-04-18T07:34:19.227Z</time></trkpt><trkpt lat="43.6233254" lon="11.2271801"><ele>277.0</ele><time>2026-04-18T07:34:22.228Z</time></trkpt><trkpt lat="43.6232642" lon="11.2272677"><ele>279.33333333333337</ele><time>2026-04-18T07:34:26.229Z</time></trkpt><trkpt lat="43.6232447" lon="11.2271402"><ele>281.6666666666667</ele><time>2026-04-18T07:34:33.228Z</time></trkpt><trkpt lat="43.6232461" lon="11.2270363"><ele>284.0</ele><time>2026-04-18T07:34:35.228Z</time></trkpt><trkpt lat="43.62323" lon="11.2269352"><ele>284.0</ele><time>2026-04-18T07:34:37.229Z</time></trkpt><trkpt lat="43.6232307" lon="11.2268469"><ele>284.0</ele><time>2026-04-18T07:34:39.228Z</time></trkpt><trkpt lat="43.6232565" lon="11.2266847"><ele>284.0</ele><time>2026-04-18T07:34:41.227Z</time></trkpt><trkpt lat="43.6232728" lon="11.2265871"><ele>284.0</ele><time>2026-04-18T07:34:42.228Z</time></trkpt><trkpt lat="43.6232819" lon="11.2264916"><ele>284.0</ele><time>2026-04-18T07:34:43.228Z</time></trkpt><trkpt lat="43.6233151" lon="11.2263011"><ele>284.6666666666667</ele><time>2026-04-18T07:34:45.228Z</time></trkpt><trkpt lat="43.6233328" lon="11.2262045"><ele>285.33333333333337</ele><time>2026-04-18T07:34:46.227Z</time></trkpt><trkpt lat="43.6233545" lon="11.2261091"><ele>286.0</ele><time>2026-04-18T07:34:47.228Z</time></trkpt><trkpt lat="43.6233745" lon="11.2259979"><ele>286.6666666666667</ele><time>2026-04-18T07:34:48.228Z</time></trkpt><trkpt lat="43.6233935" lon="11.2258874"><ele>287.3333333333333</ele><time>2026-04-18T07:34:49.228Z</time></trkpt><trkpt lat="43.6233924" lon="11.2257904"><ele>288.0</ele><time>2026-04-18T07:34:50.227Z</time></trkpt><trkpt lat="43.6233891" lon="11.2255952"><ele>288.1666666666667</ele><time>2026-04-18T07:34:52.229Z</time></trkpt><trkpt lat="43.6233895" lon="11.2254795"><ele>288.3333333333333</ele><time>2026-04-18T07:34:53.227Z</time></trkpt><trkpt lat="43.6233808" lon="11.2253666"><ele>288.5</ele><time>2026-04-18T07:34:54.228Z</time></trkpt><trkpt lat="43.623361" lon="11.225266"><ele>288.66666666666663</ele><time>2026-04-18T07:34:55.228Z</time></trkpt><trkpt lat="43.6233609" lon="11.2251652"><ele>288.8333333333333</ele><time>2026-04-18T07:34:56.228Z</time></trkpt><trkpt lat="43.6233724" lon="11.2250649"><ele>289.0</ele><time>2026-04-18T07:34:57.228Z</time></trkpt><trkpt lat="43.6234182" lon="11.2248931"><ele>289.0</ele><time>2026-04-18T07:34:59.229Z</time></trkpt><trkpt lat="43.6234605" lon="11.2248007"><ele>289.0</ele><time>2026-04-18T07:35:00.227Z</time></trkpt><trkpt lat="43.6234998" lon="11.2247303"><ele>289.0</ele><time>2026-04-18T07:35:01.229Z</time></trkpt><trkpt lat="43.6235895" lon="11.2245707"><ele>289.0</ele><time>2026-04-18T07:35:03.228Z</time></trkpt><trkpt lat="43.6236415" lon="11.224456"><ele>289.0</ele><time>2026-04-18T07:35:05.228Z</time></trkpt><trkpt lat="43.6236826" lon="11.2243816"><ele>289.0</ele><time>2026-04-18T07:35:17.228Z</time></trkpt><trkpt lat="43.6236326" lon="11.2242495"><ele>289.0</ele><time>2026-04-18T07:35:21.228Z</time></trkpt><trkpt lat="43.6236142" lon="11.2241255"><ele>289.0</ele><time>2026-04-18T07:35:23.229Z</time></trkpt><trkpt lat="43.6236148" lon="11.224029"><ele>289.0</ele><time>2026-04-18T07:35:25.228Z</time></trkpt><trkpt lat="43.6236577" lon="11.2239545"><ele>289.0</ele><time>2026-04-18T07:35:28.228Z</time></trkpt><trkpt lat="43.6235752" lon="11.2240006"><ele>289.0</ele><time>2026-04-18T07:35:38.228Z</time></trkpt><trkpt lat="43.6234561" lon="11.2240442"><ele>289.0</ele><time>2026-04-18T07:35:40.229Z</time></trkpt><trkpt lat="43.6233766" lon="11.2240723"><ele>289.0</ele><time>2026-04-18T07:35:41.229Z</time></trkpt><trkpt lat="43.6232986" lon="11.2241085"><ele>289.0</ele><time>2026-04-18T07:35:42.228Z</time></trkpt><trkpt lat="43.623212" lon="11.2241449"><ele>289.0</ele><time>2026-04-18T07:35:43.228Z</time></trkpt><trkpt lat="43.6231159" lon="11.2241811"><ele>289.0</ele><time>2026-04-18T07:35:44.229Z</time></trkpt><trkpt lat="43.6230163" lon="11.2242167"><ele>289.0</ele><time>2026-04-18T07:35:45.229Z</time></trkpt><trkpt lat="43.622913" lon="11.2242575"><ele>289.0</ele><time>2026-04-18T07:35:46.229Z</time></trkpt><trkpt lat="43.6228102" lon="11.2243032"><ele>289.0</ele><time>2026-04-18T07:35:47.228Z</time></trkpt><trkpt lat="43.6227168" lon="11.2243422"><ele>289.0</ele><time>2026-04-18T07:35:48.228Z</time></trkpt><trkpt lat="43.6226391" lon="11.2243762"><ele>289.0</ele><time>2026-04-18T07:35:49.228Z</time></trkpt><trkpt lat="43.6225712" lon="11.2244109"><ele>289.0</ele><time>2026-04-18T07:35:50.227Z</time></trkpt><trkpt lat="43.6225141" lon="11.2244603"><ele>289.0</ele><time>2026-04-18T07:35:51.228Z</time></trkpt><trkpt lat="43.6224596" lon="11.224527"><ele>289.0</ele><time>2026-04-18T07:35:52.229Z</time></trkpt><trkpt lat="43.6224191" lon="11.2246132"><ele>289.0</ele><time>2026-04-18T07:35:53.229Z</time></trkpt><trkpt lat="43.622385" lon="11.2247135"><ele>289.0</ele><time>2026-04-18T07:35:54.228Z</time></trkpt><trkpt lat="43.622359" lon="11.2248164"><ele>289.0</ele><time>2026-04-18T07:35:55.227Z</time></trkpt><trkpt lat="43.6223392" lon="11.2249034"><ele>289.0</ele><time>2026-04-18T07:35:56.228Z</time></trkpt><trkpt lat="43.6223362" lon="11.225001"><ele>289.66666666666663</ele><time>2026-04-18T07:35:57.228Z</time></trkpt><trkpt lat="43.622344" lon="11.225113"><ele>290.3333333333333</ele><time>2026-04-18T07:35:58.228Z</time></trkpt><trkpt lat="43.622359" lon="11.2252211"><ele>291.0</ele><time>2026-04-18T07:35:59.228Z</time></trkpt><trkpt lat="43.622367" lon="11.2253374"><ele>291.6666666666667</ele><time>2026-04-18T07:36:00.229Z</time></trkpt><trkpt lat="43.6223575" lon="11.2254616"><ele>292.33333333333337</ele><time>2026-04-18T07:36:01.229Z</time></trkpt><trkpt lat="43.6223387" lon="11.2255971"><ele>293.0</ele><time>2026-04-18T07:36:02.229Z</time></trkpt><trkpt lat="43.6223169" lon="11.2257263"><ele>293.0</ele><time>2026-04-18T07:36:03.229Z</time></trkpt><trkpt lat="43.6222858" lon="11.2258651"><ele>293.0</ele><time>2026-04-18T07:36:04.228Z</time></trkpt><trkpt lat="43.6222551" lon="11.2260106"><ele>293.0</ele><time>2026-04-18T07:36:05.228Z</time></trkpt><trkpt lat="43.6222254" lon="11.2261553"><ele>293.0</ele><time>2026-04-18T07:36:06.228Z</time></trkpt><trkpt lat="43.6221862" lon="11.2263093"><ele>293.0</ele><time>2026-04-18T07:36:07.228Z</time></trkpt><trkpt lat="43.6221473" lon="11.2264751"><ele>293.0</ele><time>2026-04-18T07:36:08.228Z</time></trkpt><trkpt lat="43.6221098" lon="11.2266457"><ele>293.0</ele><time>2026-04-18T07:36:09.229Z</time></trkpt><trkpt lat="43.6220711" lon="11.2268144"><ele>293.0</ele><time>2026-04-18T07:36:10.229Z</time></trkpt><trkpt lat="43.6220412" lon="11.2269854"><ele>293.0</ele><time>2026-04-18T07:36:11.229Z</time></trkpt><trkpt lat="43.6220075" lon="11.2271554"><ele>292.5</ele><time>2026-04-18T07:36:12.227Z</time></trkpt><trkpt lat="43.6219763" lon="11.2273247"><ele>292.0</ele><time>2026-04-18T07:36:13.228Z</time></trkpt><trkpt lat="43.6219415" lon="11.2274849"><ele>291.5</ele><time>2026-04-18T07:36:14.228Z</time></trkpt><trkpt lat="43.6219036" lon="11.2276466"><ele>291.0</ele><time>2026-04-18T07:36:15.229Z</time></trkpt><trkpt lat="43.6218687" lon="11.227806"><ele>291.0</ele><time>2026-04-18T07:36:16.228Z</time></trkpt><trkpt lat="43.6218422" lon="11.2279744"><ele>291.0</ele><time>2026-04-18T07:36:17.228Z</time></trkpt><trkpt lat="43.621821" lon="11.2281331"><ele>291.0</ele><time>2026-04-18T07:36:18.228Z</time></trkpt><trkpt lat="43.6218102" lon="11.2282783"><ele>291.0</ele><time>2026-04-18T07:36:19.228Z</time></trkpt><trkpt lat="43.6217878" lon="11.2284141"><ele>291.0</ele><time>2026-04-18T07:36:20.228Z</time></trkpt><trkpt lat="43.6217609" lon="11.2285381"><ele>291.8</ele><time>2026-04-18T07:36:21.23Z</time></trkpt><trkpt lat="43.6217362" lon="11.2286483"><ele>292.6</ele><time>2026-04-18T07:36:22.229Z</time></trkpt><trkpt lat="43.6217087" lon="11.2287382"><ele>293.4</ele><time>2026-04-18T07:36:23.228Z</time></trkpt><trkpt lat="43.6216521" lon="11.2288746"><ele>294.2</ele><time>2026-04-18T07:36:25.229Z</time></trkpt><trkpt lat="43.6215455" lon="11.2289584"><ele>295.0</ele><time>2026-04-18T07:36:27.228Z</time></trkpt><trkpt lat="43.621479" lon="11.2290212"><ele>295.2</ele><time>2026-04-18T07:36:28.227Z</time></trkpt><trkpt lat="43.6214082" lon="11.2290951"><ele>295.4</ele><time>2026-04-18T07:36:29.228Z</time></trkpt><trkpt lat="43.6213381" lon="11.2291752"><ele>295.6</ele><time>2026-04-18T07:36:30.228Z</time></trkpt><trkpt lat="43.6212637" lon="11.2292649"><ele>295.8</ele><time>2026-04-18T07:36:31.229Z</time></trkpt><trkpt lat="43.6211828" lon="11.2293561"><ele>296.0</ele><time>2026-04-18T07:36:32.228Z</time></trkpt><trkpt lat="43.6211057" lon="11.2294531"><ele>295.0</ele><time>2026-04-18T07:36:33.228Z</time></trkpt><trkpt lat="43.6210299" lon="11.2295513"><ele>294.0</ele><time>2026-04-18T07:36:34.229Z</time></trkpt><trkpt lat="43.6209527" lon="11.2296633"><ele>293.0</ele><time>2026-04-18T07:36:35.228Z</time></trkpt><trkpt lat="43.6208718" lon="11.229768"><ele>292.0</ele><time>2026-04-18T07:36:36.227Z</time></trkpt><trkpt lat="43.620792" lon="11.2298647"><ele>291.0</ele><time>2026-04-18T07:36:37.227Z</time></trkpt><trkpt lat="43.6207024" lon="11.2299704"><ele>290.75</ele><time>2026-04-18T07:36:38.228Z</time></trkpt><trkpt lat="43.6206126" lon="11.230082"><ele>290.5</ele><time>2026-04-18T07:36:39.228Z</time></trkpt><trkpt lat="43.6205213" lon="11.2301951"><ele>290.25</ele><time>2026-04-18T07:36:40.228Z</time></trkpt><trkpt lat="43.6204283" lon="11.230317"><ele>290.0</ele><time>2026-04-18T07:36:41.228Z</time></trkpt><trkpt lat="43.6203298" lon="11.2304358"><ele>290.25</ele><time>2026-04-18T07:36:42.228Z</time></trkpt><trkpt lat="43.6202301" lon="11.2305583"><ele>290.5</ele><time>2026-04-18T07:36:43.229Z</time></trkpt><trkpt lat="43.6201388" lon="11.2306691"><ele>290.75</ele><time>2026-04-18T07:36:44.228Z</time></trkpt><trkpt lat="43.6200565" lon="11.2307688"><ele>291.0</ele><time>2026-04-18T07:36:45.228Z</time></trkpt><trkpt lat="43.6199803" lon="11.2308588"><ele>291.0</ele><time>2026-04-18T07:36:46.229Z</time></trkpt><trkpt lat="43.6199068" lon="11.2309364"><ele>291.0</ele><time>2026-04-18T07:36:47.228Z</time></trkpt><trkpt lat="43.6198348" lon="11.2310321"><ele>291.0</ele><time>2026-04-18T07:36:48.228Z</time></trkpt><trkpt lat="43.6197695" lon="11.2311248"><ele>291.0</ele><time>2026-04-18T07:36:49.228Z</time></trkpt><trkpt lat="43.6197038" lon="11.231211"><ele>291.0</ele><time>2026-04-18T07:36:50.228Z</time></trkpt><trkpt lat="43.6196351" lon="11.2313076"><ele>291.0</ele><time>2026-04-18T07:36:51.228Z</time></trkpt><trkpt lat="43.6195591" lon="11.2313996"><ele>291.0</ele><time>2026-04-18T07:36:52.227Z</time></trkpt><trkpt lat="43.6194683" lon="11.2314938"><ele>291.0</ele><time>2026-04-18T07:36:53.229Z</time></trkpt><trkpt lat="43.6193804" lon="11.2315931"><ele>291.0</ele><time>2026-04-18T07:36:54.229Z</time></trkpt><trkpt lat="43.6192859" lon="11.2317093"><ele>292.75</ele><time>2026-04-18T07:36:55.229Z</time></trkpt><trkpt lat="43.6192007" lon="11.2318162"><ele>294.5</ele><time>2026-04-18T07:36:56.23Z</time></trkpt><trkpt lat="43.6191089" lon="11.2319373"><ele>296.25</ele><time>2026-04-18T07:36:57.229Z</time></trkpt><trkpt lat="43.6190076" lon="11.2320705"><ele>298.0</ele><time>2026-04-18T07:36:58.229Z</time></trkpt><trkpt lat="43.6189189" lon="11.2321878"><ele>298.0</ele><time>2026-04-18T07:36:59.228Z</time></trkpt><trkpt lat="43.6188497" lon="11.2322815"><ele>298.0</ele><time>2026-04-18T07:37:00.228Z</time></trkpt><trkpt lat="43.6187653" lon="11.232379"><ele>298.0</ele><time>2026-04-18T07:37:01.229Z</time></trkpt><trkpt lat="43.6186723" lon="11.232472"><ele>298.0</ele><time>2026-04-18T07:37:02.229Z</time></trkpt><trkpt lat="43.6185768" lon="11.2325802"><ele>298.0</ele><time>2026-04-18T07:37:03.228Z</time></trkpt><trkpt lat="43.6184975" lon="11.2326888"><ele>298.8</ele><time>2026-04-18T07:37:04.227Z</time></trkpt><trkpt lat="43.6184176" lon="11.2327807"><ele>299.6</ele><time>2026-04-18T07:37:05.228Z</time></trkpt><trkpt lat="43.6183461" lon="11.2328593"><ele>300.4</ele><time>2026-04-18T07:37:06.228Z</time></trkpt><trkpt lat="43.6182932" lon="11.2329559"><ele>301.2</ele><time>2026-04-18T07:37:07.229Z</time></trkpt><trkpt lat="43.6182412" lon="11.233041"><ele>302.0</ele><time>2026-04-18T07:37:08.229Z</time></trkpt><trkpt lat="43.6182087" lon="11.2331511"><ele>302.2</ele><time>2026-04-18T07:37:09.229Z</time></trkpt><trkpt lat="43.6181908" lon="11.2332552"><ele>302.4</ele><time>2026-04-18T07:37:10.228Z</time></trkpt><trkpt lat="43.6181819" lon="11.2333529"><ele>302.6</ele><time>2026-04-18T07:37:11.228Z</time></trkpt><trkpt lat="43.6181748" lon="11.2335183"><ele>302.8</ele><time>2026-04-18T07:37:13.229Z</time></trkpt><trkpt lat="43.6181771" lon="11.2336821"><ele>303.0</ele><time>2026-04-18T07:37:15.229Z</time></trkpt><trkpt lat="43.6181957" lon="11.233782"><ele>303.0</ele><time>2026-04-18T07:37:16.228Z</time></trkpt><trkpt lat="43.618224" lon="11.2338868"><ele>303.0</ele><time>2026-04-18T07:37:17.229Z</time></trkpt><trkpt lat="43.6182549" lon="11.2339755"><ele>303.0</ele><time>2026-04-18T07:37:18.228Z</time></trkpt><trkpt lat="43.6182878" lon="11.23407"><ele>303.0</ele><time>2026-04-18T07:37:19.229Z</time></trkpt><trkpt lat="43.6183015" lon="11.2341638"><ele>303.0</ele><time>2026-04-18T07:37:20.227Z</time></trkpt><trkpt lat="43.6183038" lon="11.2342681"><ele>303.0</ele><time>2026-04-18T07:37:21.228Z</time></trkpt><trkpt lat="43.6182953" lon="11.2343832"><ele>302.8</ele><time>2026-04-18T07:37:22.229Z</time></trkpt><trkpt lat="43.6182673" lon="11.2345153"><ele>302.6</ele><time>2026-04-18T07:37:23.228Z</time></trkpt><trkpt lat="43.6182268" lon="11.2346496"><ele>302.4</ele><time>2026-04-18T07:37:24.228Z</time></trkpt><trkpt lat="43.6181884" lon="11.2347928"><ele>302.2</ele><time>2026-04-18T07:37:25.227Z</time></trkpt><trkpt lat="43.6181638" lon="11.2349496"><ele>302.0</ele><time>2026-04-18T07:37:26.229Z</time></trkpt><trkpt lat="43.6181535" lon="11.2351166"><ele>300.5</ele><time>2026-04-18T07:37:27.228Z</time></trkpt><trkpt lat="43.6181396" lon="11.2352862"><ele>299.0</ele><time>2026-04-18T07:37:28.229Z</time></trkpt><trkpt lat="43.6181266" lon="11.2354568"><ele>297.5</ele><time>2026-04-18T07:37:29.228Z</time></trkpt><trkpt lat="43.6181106" lon="11.2356375"><ele>296.0</ele><time>2026-04-18T07:37:30.227Z</time></trkpt><trkpt lat="43.6180922" lon="11.2358072"><ele>296.0</ele><time>2026-04-18T07:37:31.228Z</time></trkpt><trkpt lat="43.6180836" lon="11.2359592"><ele>296.0</ele><time>2026-04-18T07:37:32.228Z</time></trkpt><trkpt lat="43.6180565" lon="11.2361005"><ele>296.0</ele><time>2026-04-18T07:37:33.229Z</time></trkpt><trkpt lat="43.618024" lon="11.2362457"><ele>296.0</ele><time>2026-04-18T07:37:34.228Z</time></trkpt><trkpt lat="43.6179774" lon="11.236371"><ele>296.0</ele><time>2026-04-18T07:37:35.229Z</time></trkpt><trkpt lat="43.617912" lon="11.2364888"><ele>296.6</ele><time>2026-04-18T07:37:36.228Z</time></trkpt><trkpt lat="43.6178379" lon="11.2366059"><ele>297.20000000000005</ele><time>2026-04-18T07:37:37.228Z</time></trkpt><trkpt lat="43.6177667" lon="11.2367216"><ele>297.79999999999995</ele><time>2026-04-18T07:37:38.228Z</time></trkpt><trkpt lat="43.6176919" lon="11.2368373"><ele>298.4</ele><time>2026-04-18T07:37:39.229Z</time></trkpt><trkpt lat="43.6176258" lon="11.2369341"><ele>299.0</ele><time>2026-04-18T07:37:40.229Z</time></trkpt><trkpt lat="43.6175687" lon="11.2370298"><ele>299.5</ele><time>2026-04-18T07:37:41.228Z</time></trkpt><trkpt lat="43.6175068" lon="11.2371313"><ele>300.0</ele><time>2026-04-18T07:37:42.228Z</time></trkpt><trkpt lat="43.6174477" lon="11.2372212"><ele>300.5</ele><time>2026-04-18T07:37:43.228Z</time></trkpt><trkpt lat="43.6173975" lon="11.2372984"><ele>301.0</ele><time>2026-04-18T07:37:44.229Z</time></trkpt><trkpt lat="43.6173541" lon="11.2373792"><ele>301.5</ele><time>2026-04-18T07:37:45.229Z</time></trkpt><trkpt lat="43.6173091" lon="11.2374583"><ele>302.0</ele><time>2026-04-18T07:37:46.229Z</time></trkpt><trkpt lat="43.6172623" lon="11.2375494"><ele>302.2</ele><time>2026-04-18T07:37:47.228Z</time></trkpt><trkpt lat="43.6172269" lon="11.2376531"><ele>302.4</ele><time>2026-04-18T07:37:48.229Z</time></trkpt><trkpt lat="43.6171994" lon="11.2377732"><ele>302.6</ele><time>2026-04-18T07:37:49.228Z</time></trkpt><trkpt lat="43.6171839" lon="11.2379244"><ele>302.8</ele><time>2026-04-18T07:37:50.228Z</time></trkpt><trkpt lat="43.6171715" lon="11.2380787"><ele>303.0</ele><time>2026-04-18T07:37:51.228Z</time></trkpt><trkpt lat="43.6171573" lon="11.2382353"><ele>303.75</ele><time>2026-04-18T07:37:52.228Z</time></trkpt><trkpt lat="43.6171452" lon="11.2383966"><ele>304.5</ele><time>2026-04-18T07:37:53.228Z</time></trkpt><trkpt lat="43.6171262" lon="11.238554"><ele>305.25</ele><time>2026-04-18T07:37:54.229Z</time></trkpt><trkpt lat="43.6171112" lon="11.2387032"><ele>306.0</ele><time>2026-04-18T07:37:55.229Z</time></trkpt><trkpt lat="43.6170943" lon="11.2388528"><ele>306.2</ele><time>2026-04-18T07:37:56.228Z</time></trkpt><trkpt lat="43.6170823" lon="11.2390042"><ele>306.40000000000003</ele><time>2026-04-18T07:37:57.228Z</time></trkpt><trkpt lat="43.6170663" lon="11.2391507"><ele>306.6</ele><time>2026-04-18T07:37:58.228Z</time></trkpt><trkpt lat="43.617054" lon="11.2392895"><ele>306.8</ele><time>2026-04-18T07:37:59.228Z</time></trkpt><trkpt lat="43.6170397" lon="11.2394316"><ele>307.0</ele><time>2026-04-18T07:38:00.229Z</time></trkpt><trkpt lat="43.6170259" lon="11.2395768"><ele>307.0</ele><time>2026-04-18T07:38:01.229Z</time></trkpt><trkpt lat="43.6170088" lon="11.2397186"><ele>307.0</ele><time>2026-04-18T07:38:02.228Z</time></trkpt><trkpt lat="43.6169879" lon="11.2398702"><ele>307.0</ele><time>2026-04-18T07:38:03.228Z</time></trkpt><trkpt lat="43.6169664" lon="11.2400019"><ele>307.0</ele><time>2026-04-18T07:38:04.228Z</time></trkpt><trkpt lat="43.6169456" lon="11.2401326"><ele>307.0</ele><time>2026-04-18T07:38:05.23Z</time></trkpt><trkpt lat="43.6169141" lon="11.2402624"><ele>307.6</ele><time>2026-04-18T07:38:06.228Z</time></trkpt><trkpt lat="43.6168648" lon="11.2403843"><ele>308.2</ele><time>2026-04-18T07:38:07.229Z</time></trkpt><trkpt lat="43.616819" lon="11.2405056"><ele>308.8</ele><time>2026-04-18T07:38:08.229Z</time></trkpt><trkpt lat="43.6167519" lon="11.2406324"><ele>309.4</ele><time>2026-04-18T07:38:09.227Z</time></trkpt><trkpt lat="43.616677" lon="11.2407641"><ele>310.0</ele><time>2026-04-18T07:38:10.227Z</time></trkpt><trkpt lat="43.6165982" lon="11.2409066"><ele>310.25</ele><time>2026-04-18T07:38:11.228Z</time></trkpt><trkpt lat="43.6165113" lon="11.2410541"><ele>310.5</ele><time>2026-04-18T07:38:12.228Z</time></trkpt><trkpt lat="43.6164169" lon="11.2411987"><ele>310.75</ele><time>2026-04-18T07:38:13.228Z</time></trkpt><trkpt lat="43.6163216" lon="11.2413568"><ele>311.0</ele><time>2026-04-18T07:38:14.228Z</time></trkpt><trkpt lat="43.6162335" lon="11.2415215"><ele>311.25</ele><time>2026-04-18T07:38:15.229Z</time></trkpt><trkpt lat="43.6161418" lon="11.2416729"><ele>311.5</ele><time>2026-04-18T07:38:16.228Z</time></trkpt><trkpt lat="43.6160613" lon="11.2418108"><ele>311.75</ele><time>2026-04-18T07:38:17.229Z</time></trkpt><trkpt lat="43.6159834" lon="11.2419333"><ele>312.0</ele><time>2026-04-18T07:38:18.228Z</time></trkpt><trkpt lat="43.6159099" lon="11.2420575"><ele>312.0</ele><time>2026-04-18T07:38:19.229Z</time></trkpt><trkpt lat="43.6158374" lon="11.2421777"><ele>312.0</ele><time>2026-04-18T07:38:20.228Z</time></trkpt><trkpt lat="43.6157741" lon="11.2422803"><ele>312.0</ele><time>2026-04-18T07:38:21.227Z</time></trkpt><trkpt lat="43.6157178" lon="11.2423763"><ele>312.0</ele><time>2026-04-18T07:38:22.228Z</time></trkpt><trkpt lat="43.6156603" lon="11.242461"><ele>312.0</ele><time>2026-04-18T07:38:23.228Z</time></trkpt><trkpt lat="43.61559" lon="11.242578"><ele>312.2</ele><time>2026-04-18T07:38:25.229Z</time></trkpt><trkpt lat="43.6155369" lon="11.242655"><ele>312.4</ele><time>2026-04-18T07:38:27.228Z</time></trkpt><trkpt lat="43.6154597" lon="11.2426678"><ele>312.6</ele><time>2026-04-18T07:38:29.227Z</time></trkpt><trkpt lat="43.6153329" lon="11.242596"><ele>312.8</ele><time>2026-04-18T07:38:31.228Z</time></trkpt><trkpt lat="43.6152464" lon="11.2425337"><ele>313.0</ele><time>2026-04-18T07:38:32.228Z</time></trkpt><trkpt lat="43.6151636" lon="11.2424568"><ele>313.2</ele><time>2026-04-18T07:38:33.228Z</time></trkpt><trkpt lat="43.6150818" lon="11.2423882"><ele>313.4</ele><time>2026-04-18T07:38:34.228Z</time></trkpt><trkpt lat="43.6149965" lon="11.2423186"><ele>313.59999999999997</ele><time>2026-04-18T07:38:35.229Z</time></trkpt><trkpt lat="43.614917" lon="11.2422414"><ele>313.8</ele><time>2026-04-18T07:38:36.228Z</time></trkpt><trkpt lat="43.6148225" lon="11.242162"><ele>314.0</ele><time>2026-04-18T07:38:37.227Z</time></trkpt><trkpt lat="43.6147206" lon="11.2420817"><ele>314.0</ele><time>2026-04-18T07:38:38.229Z</time></trkpt><trkpt lat="43.614614" lon="11.2420061"><ele>314.0</ele><time>2026-04-18T07:38:39.229Z</time></trkpt><trkpt lat="43.6145099" lon="11.2419262"><ele>314.0</ele><time>2026-04-18T07:38:40.228Z</time></trkpt><trkpt lat="43.6144065" lon="11.2418431"><ele>314.0</ele><time>2026-04-18T07:38:41.229Z</time></trkpt><trkpt lat="43.6143044" lon="11.2417502"><ele>316.25</ele><time>2026-04-18T07:38:42.228Z</time></trkpt><trkpt lat="43.6141995" lon="11.241661"><ele>318.5</ele><time>2026-04-18T07:38:43.229Z</time></trkpt><trkpt lat="43.6140835" lon="11.2415726"><ele>320.75</ele><time>2026-04-18T07:38:44.228Z</time></trkpt><trkpt lat="43.6139685" lon="11.2414858"><ele>323.0</ele><time>2026-04-18T07:38:45.229Z</time></trkpt><trkpt lat="43.6138572" lon="11.2413919"><ele>323.0</ele><time>2026-04-18T07:38:46.228Z</time></trkpt><trkpt lat="43.6137445" lon="11.2413027"><ele>323.0</ele><time>2026-04-18T07:38:47.229Z</time></trkpt><trkpt lat="43.6136347" lon="11.2412119"><ele>323.0</ele><time>2026-04-18T07:38:48.228Z</time></trkpt><trkpt lat="43.6135214" lon="11.2411183"><ele>323.0</ele><time>2026-04-18T07:38:49.229Z</time></trkpt><trkpt lat="43.613409" lon="11.241023"><ele>324.0</ele><time>2026-04-18T07:38:50.229Z</time></trkpt><trkpt lat="43.6133133" lon="11.2409442"><ele>325.0</ele><time>2026-04-18T07:38:51.228Z</time></trkpt><trkpt lat="43.6132423" lon="11.2408833"><ele>326.0</ele><time>2026-04-18T07:38:52.228Z</time></trkpt><trkpt lat="43.6131673" lon="11.2407834"><ele>327.0</ele><time>2026-04-18T07:38:54.229Z</time></trkpt><trkpt lat="43.6131618" lon="11.2406577"><ele>328.0</ele><time>2026-04-18T07:38:56.229Z</time></trkpt><trkpt lat="43.6132157" lon="11.2404703"><ele>328.0</ele><time>2026-04-18T07:38:58.229Z</time></trkpt><trkpt lat="43.6132561" lon="11.240361"><ele>328.0</ele><time>2026-04-18T07:38:59.228Z</time></trkpt><trkpt lat="43.6132945" lon="11.2402527"><ele>328.0</ele><time>2026-04-18T07:39:00.228Z</time></trkpt><trkpt lat="43.6133302" lon="11.2401466"><ele>328.0</ele><time>2026-04-18T07:39:01.229Z</time></trkpt><trkpt lat="43.6133832" lon="11.2399982"><ele>328.0</ele><time>2026-04-18T07:39:03.229Z</time></trkpt><trkpt lat="43.6134232" lon="11.2398733"><ele>327.2</ele><time>2026-04-18T07:39:05.229Z</time></trkpt><trkpt lat="43.6134743" lon="11.2397105"><ele>326.4</ele><time>2026-04-18T07:39:07.229Z</time></trkpt><trkpt lat="43.6135077" lon="11.2396001"><ele>325.59999999999997</ele><time>2026-04-18T07:39:08.229Z</time></trkpt><trkpt lat="43.6135456" lon="11.2394797"><ele>324.79999999999995</ele><time>2026-04-18T07:39:09.227Z</time></trkpt><trkpt lat="43.6135872" lon="11.2393484"><ele>324.0</ele><time>2026-04-18T07:39:10.228Z</time></trkpt><trkpt lat="43.6136256" lon="11.2392168"><ele>322.8333333333333</ele><time>2026-04-18T07:39:11.228Z</time></trkpt><trkpt lat="43.6136703" lon="11.2391035"><ele>321.6666666666667</ele><time>2026-04-18T07:39:12.229Z</time></trkpt><trkpt lat="43.6137097" lon="11.2389953"><ele>320.5</ele><time>2026-04-18T07:39:13.229Z</time></trkpt><trkpt lat="43.6137446" lon="11.2389014"><ele>319.33333333333337</ele><time>2026-04-18T07:39:14.229Z</time></trkpt><trkpt lat="43.6137763" lon="11.2388117"><ele>318.1666666666667</ele><time>2026-04-18T07:39:15.228Z</time></trkpt><trkpt lat="43.6138027" lon="11.2387233"><ele>317.0</ele><time>2026-04-18T07:39:16.228Z</time></trkpt><trkpt lat="43.6138312" lon="11.2386375"><ele>317.0</ele><time>2026-04-18T07:39:17.228Z</time></trkpt><trkpt lat="43.6138835" lon="11.2384963"><ele>317.0</ele><time>2026-04-18T07:39:19.23Z</time></trkpt><trkpt lat="43.6139139" lon="11.2383996"><ele>317.0</ele><time>2026-04-18T07:39:20.229Z</time></trkpt><trkpt lat="43.6139379" lon="11.2383144"><ele>317.0</ele><time>2026-04-18T07:39:21.228Z</time></trkpt><trkpt lat="43.61397" lon="11.2381603"><ele>317.0</ele><time>2026-04-18T07:39:23.229Z</time></trkpt><trkpt lat="43.6139202" lon="11.2380621"><ele>317.0</ele><time>2026-04-18T07:39:25.229Z</time></trkpt><trkpt lat="43.6138184" lon="11.2379692"><ele>317.0</ele><time>2026-04-18T07:39:27.228Z</time></trkpt><trkpt lat="43.6137519" lon="11.2379245"><ele>317.0</ele><time>2026-04-18T07:39:28.229Z</time></trkpt><trkpt lat="43.6136733" lon="11.2379001"><ele>317.0</ele><time>2026-04-18T07:39:29.229Z</time></trkpt><trkpt lat="43.6136022" lon="11.2378829"><ele>317.0</ele><time>2026-04-18T07:39:30.229Z</time></trkpt><trkpt lat="43.6135307" lon="11.237865"><ele>317.0</ele><time>2026-04-18T07:39:31.228Z</time></trkpt><trkpt lat="43.6134595" lon="11.2378511"><ele>317.6666666666667</ele><time>2026-04-18T07:39:32.228Z</time></trkpt><trkpt lat="43.6133541" lon="11.2378314"><ele>318.33333333333337</ele><time>2026-04-18T07:39:34.229Z</time></trkpt><trkpt lat="43.613265" lon="11.2378137"><ele>319.0</ele><time>2026-04-18T07:39:36.228Z</time></trkpt><trkpt lat="43.6132307" lon="11.2377124"><ele>319.6666666666667</ele><time>2026-04-18T07:39:39.228Z</time></trkpt><trkpt lat="43.6132575" lon="11.237619"><ele>320.3333333333333</ele><time>2026-04-18T07:39:41.228Z</time></trkpt><trkpt lat="43.613266" lon="11.2375323"><ele>321.0</ele><time>2026-04-18T07:39:44.228Z</time></trkpt><trkpt lat="43.6132493" lon="11.2374214"><ele>320.6666666666667</ele><time>2026-04-18T07:39:46.227Z</time></trkpt><trkpt lat="43.6132614" lon="11.2372578"><ele>320.3333333333333</ele><time>2026-04-18T07:39:48.228Z</time></trkpt><trkpt lat="43.6132741" lon="11.2371533"><ele>320.0</ele><time>2026-04-18T07:39:49.229Z</time></trkpt><trkpt lat="43.6132948" lon="11.2370458"><ele>319.66666666666663</ele><time>2026-04-18T07:39:50.229Z</time></trkpt><trkpt lat="43.6133069" lon="11.2369502"><ele>319.3333333333333</ele><time>2026-04-18T07:39:51.228Z</time></trkpt><trkpt lat="43.6133191" lon="11.2368628"><ele>319.0</ele><time>2026-04-18T07:39:52.229Z</time></trkpt><trkpt lat="43.6133371" lon="11.2367129"><ele>319.0</ele><time>2026-04-18T07:39:54.227Z</time></trkpt><trkpt lat="43.6133584" lon="11.2365761"><ele>319.0</ele><time>2026-04-18T07:39:56.228Z</time></trkpt><trkpt lat="43.6133559" lon="11.2364561"><ele>319.0</ele><time>2026-04-18T07:39:58.228Z</time></trkpt><trkpt lat="43.6133578" lon="11.2363425"><ele>319.0</ele><time>2026-04-18T07:40:00.228Z</time></trkpt><trkpt lat="43.6133775" lon="11.2362211"><ele>319.0</ele><time>2026-04-18T07:40:02.229Z</time></trkpt><trkpt lat="43.613417" lon="11.2361178"><ele>319.0</ele><time>2026-04-18T07:40:04.228Z</time></trkpt><trkpt lat="43.6134741" lon="11.2360091"><ele>318.5714285714286</ele><time>2026-04-18T07:40:06.229Z</time></trkpt><trkpt lat="43.6135246" lon="11.2359327"><ele>318.1428571428571</ele><time>2026-04-18T07:40:08.229Z</time></trkpt><trkpt lat="43.6135887" lon="11.2359546"><ele>317.7142857142857</ele><time>2026-04-18T07:40:40.229Z</time></trkpt><trkpt lat="43.6135367" lon="11.2360225"><ele>317.28571428571433</ele><time>2026-04-18T07:40:43.228Z</time></trkpt><trkpt lat="43.6134646" lon="11.236012"><ele>316.8571428571429</ele><time>2026-04-18T07:40:45.229Z</time></trkpt><trkpt lat="43.6134034" lon="11.2359816"><ele>316.42857142857144</ele><time>2026-04-18T07:40:47.229Z</time></trkpt><trkpt lat="43.6133385" lon="11.2359488"><ele>316.0</ele><time>2026-04-18T07:40:50.229Z</time></trkpt><trkpt lat="43.6132682" lon="11.2360143"><ele>316.0</ele><time>2026-04-18T07:40:53.229Z</time></trkpt><trkpt lat="43.6132228" lon="11.236089"><ele>316.0</ele><time>2026-04-18T07:40:55.229Z</time></trkpt><trkpt lat="43.6131825" lon="11.2361827"><ele>316.0</ele><time>2026-04-18T07:40:59.229Z</time></trkpt><trkpt lat="43.6131391" lon="11.2362639"><ele>316.0</ele><time>2026-04-18T07:44:00.229Z</time></trkpt><trkpt lat="43.6130567" lon="11.2362552"><ele>316.0</ele><time>2026-04-18T07:44:03.227Z</time></trkpt><trkpt lat="43.6130287" lon="11.2361423"><ele>316.0</ele><time>2026-04-18T07:44:06.229Z</time></trkpt><trkpt lat="43.6130265" lon="11.2360377"><ele>316.00000000000006</ele><time>2026-04-18T07:44:09.228Z</time></trkpt><trkpt lat="43.613071" lon="11.2359628"><ele>316.0</ele><time>2026-04-18T07:44:12.228Z</time></trkpt><trkpt lat="43.6130774" lon="11.235867"><ele>316.0</ele><time>2026-04-18T07:44:16.227Z</time></trkpt><trkpt lat="43.6131105" lon="11.2357884"><ele>316.0</ele><time>2026-04-18T07:44:21.228Z</time></trkpt><trkpt lat="43.6131691" lon="11.2358456"><ele>316.0</ele><time>2026-04-18T07:44:24.228Z</time></trkpt><trkpt lat="43.6132141" lon="11.2359139"><ele>316.00000000000006</ele><time>2026-04-18T07:44:26.229Z</time></trkpt><trkpt lat="43.6132598" lon="11.2360029"><ele>316.0</ele><time>2026-04-18T07:44:28.229Z</time></trkpt><trkpt lat="43.6133069" lon="11.2360989"><ele>316.0</ele><time>2026-04-18T07:44:30.229Z</time></trkpt><trkpt lat="43.6133607" lon="11.2361565"><ele>316.0</ele><time>2026-04-18T07:44:55.227Z</time></trkpt><trkpt lat="43.6134495" lon="11.2362331"><ele>316.0</ele><time>2026-04-18T07:44:57.228Z</time></trkpt><trkpt lat="43.6135226" lon="11.2363162"><ele>316.0</ele><time>2026-04-18T07:44:59.229Z</time></trkpt><trkpt lat="43.6135893" lon="11.2364061"><ele>316.0</ele><time>2026-04-18T07:45:01.228Z</time></trkpt><trkpt lat="43.6136644" lon="11.2364593"><ele>316.0</ele><time>2026-04-18T07:45:04.228Z</time></trkpt><trkpt lat="43.6136948" lon="11.236354"><ele>316.0</ele><time>2026-04-18T07:45:09.227Z</time></trkpt><trkpt lat="43.6136779" lon="11.2362523"><ele>316.0</ele><time>2026-04-18T07:45:11.228Z</time></trkpt><trkpt lat="43.6136466" lon="11.236146"><ele>316.0</ele><time>2026-04-18T07:45:14.228Z</time></trkpt><trkpt lat="43.6136172" lon="11.2360448"><ele>316.0</ele><time>2026-04-18T07:45:17.227Z</time></trkpt><trkpt lat="43.6135854" lon="11.2359664"><ele>316.0</ele><time>2026-04-18T07:45:20.228Z</time></trkpt><trkpt lat="43.6135208" lon="11.2359478"><ele>316.0</ele><time>2026-04-18T07:52:39.228Z</time></trkpt><trkpt lat="43.6134528" lon="11.2360326"><ele>316.0</ele><time>2026-04-18T07:52:41.227Z</time></trkpt><trkpt lat="43.6134266" lon="11.2361153"><ele>316.0</ele><time>2026-04-18T07:52:42.228Z</time></trkpt><trkpt lat="43.6134061" lon="11.236206"><ele>316.0</ele><time>2026-04-18T07:52:43.227Z</time></trkpt><trkpt lat="43.6133832" lon="11.2362889"><ele>316.0</ele><time>2026-04-18T07:52:44.228Z</time></trkpt><trkpt lat="43.613365" lon="11.2364601"><ele>316.0</ele><time>2026-04-18T07:52:46.229Z</time></trkpt><trkpt lat="43.6133679" lon="11.2366325"><ele>316.0</ele><time>2026-04-18T07:52:48.228Z</time></trkpt><trkpt lat="43.6133523" lon="11.2367313"><ele>316.5</ele><time>2026-04-18T07:52:49.227Z</time></trkpt><trkpt lat="43.6133359" lon="11.2368334"><ele>317.0</ele><time>2026-04-18T07:52:50.227Z</time></trkpt><trkpt lat="43.6133204" lon="11.2369494"><ele>317.5</ele><time>2026-04-18T07:52:51.226Z</time></trkpt><trkpt lat="43.6133017" lon="11.237066"><ele>318.0</ele><time>2026-04-18T07:52:52.226Z</time></trkpt><trkpt lat="43.6132937" lon="11.2371634"><ele>318.5</ele><time>2026-04-18T07:52:53.228Z</time></trkpt><trkpt lat="43.6132851" lon="11.2372558"><ele>319.0</ele><time>2026-04-18T07:52:54.227Z</time></trkpt><trkpt lat="43.6132801" lon="11.2373778"><ele>319.3333333333333</ele><time>2026-04-18T07:52:56.228Z</time></trkpt><trkpt lat="43.6132778" lon="11.2374817"><ele>319.66666666666663</ele><time>2026-04-18T07:52:59.227Z</time></trkpt><trkpt lat="43.6132947" lon="11.2375682"><ele>320.0</ele><time>2026-04-18T07:53:03.228Z</time></trkpt><trkpt lat="43.6132639" lon="11.2376469"><ele>320.3333333333333</ele><time>2026-04-18T07:53:06.228Z</time></trkpt><trkpt lat="43.6132411" lon="11.2377772"><ele>320.6666666666667</ele><time>2026-04-18T07:53:09.228Z</time></trkpt><trkpt lat="43.6132282" lon="11.2379419"><ele>321.0</ele><time>2026-04-18T07:53:11.226Z</time></trkpt><trkpt lat="43.6132148" lon="11.2380604"><ele>321.20000000000005</ele><time>2026-04-18T07:53:12.226Z</time></trkpt><trkpt lat="43.613205" lon="11.2381937"><ele>321.40000000000003</ele><time>2026-04-18T07:53:13.227Z</time></trkpt><trkpt lat="43.613191" lon="11.2383264"><ele>321.6</ele><time>2026-04-18T07:53:14.227Z</time></trkpt><trkpt lat="43.613178" lon="11.23847"><ele>321.8</ele><time>2026-04-18T07:53:15.228Z</time></trkpt><trkpt lat="43.6131582" lon="11.2386171"><ele>322.0</ele><time>2026-04-18T07:53:16.227Z</time></trkpt><trkpt lat="43.6131441" lon="11.2387655"><ele>322.0</ele><time>2026-04-18T07:53:17.227Z</time></trkpt><trkpt lat="43.6131306" lon="11.2389176"><ele>322.0</ele><time>2026-04-18T07:53:18.228Z</time></trkpt><trkpt lat="43.6131195" lon="11.2390735"><ele>322.0</ele><time>2026-04-18T07:53:19.227Z</time></trkpt><trkpt lat="43.6131047" lon="11.2392382"><ele>322.0</ele><time>2026-04-18T07:53:20.226Z</time></trkpt><trkpt lat="43.6130866" lon="11.2394011"><ele>322.5</ele><time>2026-04-18T07:53:21.227Z</time></trkpt><trkpt lat="43.6130699" lon="11.2395682"><ele>323.0</ele><time>2026-04-18T07:53:22.227Z</time></trkpt><trkpt lat="43.6130626" lon="11.2397408"><ele>323.5</ele><time>2026-04-18T07:53:23.229Z</time></trkpt><trkpt lat="43.6130453" lon="11.2398844"><ele>324.0</ele><time>2026-04-18T07:53:24.228Z</time></trkpt><trkpt lat="43.6130298" lon="11.2400331"><ele>324.6666666666667</ele><time>2026-04-18T07:53:25.226Z</time></trkpt><trkpt lat="43.6130185" lon="11.2401686"><ele>325.3333333333333</ele><time>2026-04-18T07:53:26.227Z</time></trkpt><trkpt lat="43.613006" lon="11.2402844"><ele>326.0</ele><time>2026-04-18T07:53:27.227Z</time></trkpt><trkpt lat="43.6129952" lon="11.2403853"><ele>326.66666666666663</ele><time>2026-04-18T07:53:28.227Z</time></trkpt><trkpt lat="43.6129829" lon="11.2405179"><ele>327.3333333333333</ele><time>2026-04-18T07:53:30.228Z</time></trkpt><trkpt lat="43.6129778" lon="11.2406161"><ele>328.0</ele><time>2026-04-18T07:53:32.227Z</time></trkpt><trkpt lat="43.6129329" lon="11.2406988"><ele>327.59999999999997</ele><time>2026-04-18T07:53:35.228Z</time></trkpt><trkpt lat="43.6128492" lon="11.2406757"><ele>327.2</ele><time>2026-04-18T07:53:37.228Z</time></trkpt><trkpt lat="43.6127239" lon="11.2406018"><ele>326.8</ele><time>2026-04-18T07:53:39.227Z</time></trkpt><trkpt lat="43.6126619" lon="11.2405533"><ele>326.4</ele><time>2026-04-18T07:53:40.226Z</time></trkpt><trkpt lat="43.6125941" lon="11.2404935"><ele>326.0</ele><time>2026-04-18T07:53:41.227Z</time></trkpt><trkpt lat="43.6125182" lon="11.2404164"><ele>326.0</ele><time>2026-04-18T07:53:42.227Z</time></trkpt><trkpt lat="43.6124447" lon="11.2403263"><ele>326.0</ele><time>2026-04-18T07:53:43.227Z</time></trkpt><trkpt lat="43.6123671" lon="11.2402329"><ele>326.0</ele><time>2026-04-18T07:53:44.227Z</time></trkpt><trkpt lat="43.6122777" lon="11.240133"><ele>326.0</ele><time>2026-04-18T07:53:45.227Z</time></trkpt><trkpt lat="43.6121829" lon="11.2400301"><ele>326.0</ele><time>2026-04-18T07:53:46.228Z</time></trkpt><trkpt lat="43.6120777" lon="11.2399117"><ele>323.6666666666667</ele><time>2026-04-18T07:53:47.227Z</time></trkpt><trkpt lat="43.6119644" lon="11.2397761"><ele>321.3333333333333</ele><time>2026-04-18T07:53:48.226Z</time></trkpt><trkpt lat="43.6118537" lon="11.2396452"><ele>319.0</ele><time>2026-04-18T07:53:49.228Z</time></trkpt><trkpt lat="43.6117328" lon="11.2395099"><ele>319.0</ele><time>2026-04-18T07:53:50.228Z</time></trkpt><trkpt lat="43.6116268" lon="11.2393839"><ele>319.0</ele><time>2026-04-18T07:53:51.227Z</time></trkpt><trkpt lat="43.6115281" lon="11.2392665"><ele>319.0</ele><time>2026-04-18T07:53:52.227Z</time></trkpt><trkpt lat="43.6114354" lon="11.239165"><ele>319.0</ele><time>2026-04-18T07:53:53.227Z</time></trkpt><trkpt lat="43.6113549" lon="11.2390766"><ele>319.0</ele><time>2026-04-18T07:53:54.227Z</time></trkpt><trkpt lat="43.6112758" lon="11.2389891"><ele>319.0</ele><time>2026-04-18T07:53:55.228Z</time></trkpt><trkpt lat="43.6112041" lon="11.2389031"><ele>319.0</ele><time>2026-04-18T07:53:56.228Z</time></trkpt><trkpt lat="43.6111397" lon="11.2388238"><ele>319.0</ele><time>2026-04-18T07:53:57.227Z</time></trkpt><trkpt lat="43.6110766" lon="11.2387423"><ele>319.0</ele><time>2026-04-18T07:53:58.227Z</time></trkpt><trkpt lat="43.6110076" lon="11.2386628"><ele>319.8571428571429</ele><time>2026-04-18T07:53:59.227Z</time></trkpt><trkpt lat="43.6109395" lon="11.2385942"><ele>320.71428571428567</ele><time>2026-04-18T07:54:00.227Z</time></trkpt><trkpt lat="43.6108808" lon="11.2385265"><ele>321.57142857142856</ele><time>2026-04-18T07:54:01.228Z</time></trkpt><trkpt lat="43.6108251" lon="11.238464"><ele>322.42857142857144</ele><time>2026-04-18T07:54:02.227Z</time></trkpt><trkpt lat="43.6107745" lon="11.2383996"><ele>323.28571428571433</ele><time>2026-04-18T07:54:03.227Z</time></trkpt><trkpt lat="43.6107169" lon="11.2383401"><ele>324.1428571428571</ele><time>2026-04-18T07:54:04.227Z</time></trkpt><trkpt lat="43.6106718" lon="11.2382778"><ele>325.0</ele><time>2026-04-18T07:54:05.227Z</time></trkpt><trkpt lat="43.6105844" lon="11.2381626"><ele>323.6</ele><time>2026-04-18T07:54:07.228Z</time></trkpt><trkpt lat="43.6105414" lon="11.2380433"><ele>322.2</ele><time>2026-04-18T07:54:09.227Z</time></trkpt><trkpt lat="43.6105195" lon="11.2379585"><ele>320.8</ele><time>2026-04-18T07:54:11.227Z</time></trkpt><trkpt lat="43.6104841" lon="11.2378602"><ele>319.4</ele><time>2026-04-18T07:54:13.228Z</time></trkpt><trkpt lat="43.6104473" lon="11.237713"><ele>318.0</ele><time>2026-04-18T07:54:15.227Z</time></trkpt><trkpt lat="43.6104196" lon="11.2375777"><ele>318.0</ele><time>2026-04-18T07:54:17.227Z</time></trkpt><trkpt lat="43.6103979" lon="11.2374355"><ele>318.0</ele><time>2026-04-18T07:54:19.227Z</time></trkpt><trkpt lat="43.6103735" lon="11.2372799"><ele>318.0</ele><time>2026-04-18T07:54:21.227Z</time></trkpt><trkpt lat="43.6103634" lon="11.2371917"><ele>318.0</ele><time>2026-04-18T07:54:22.226Z</time></trkpt><trkpt lat="43.6103523" lon="11.2371034"><ele>318.0</ele><time>2026-04-18T07:54:23.226Z</time></trkpt><trkpt lat="43.6103393" lon="11.2370054"><ele>318.0</ele><time>2026-04-18T07:54:24.227Z</time></trkpt><trkpt lat="43.6103268" lon="11.2368938"><ele>318.6666666666667</ele><time>2026-04-18T07:54:25.228Z</time></trkpt><trkpt lat="43.6103201" lon="11.2367914"><ele>319.3333333333333</ele><time>2026-04-18T07:54:26.227Z</time></trkpt><trkpt lat="43.6103217" lon="11.2366806"><ele>320.0</ele><time>2026-04-18T07:54:27.226Z</time></trkpt><trkpt lat="43.6103329" lon="11.2365739"><ele>320.66666666666663</ele><time>2026-04-18T07:54:28.227Z</time></trkpt><trkpt lat="43.6103547" lon="11.2364626"><ele>321.3333333333333</ele><time>2026-04-18T07:54:29.227Z</time></trkpt><trkpt lat="43.6103722" lon="11.2363477"><ele>322.0</ele><time>2026-04-18T07:54:30.227Z</time></trkpt><trkpt lat="43.6103921" lon="11.2362226"><ele>318.8</ele><time>2026-04-18T07:54:31.228Z</time></trkpt><trkpt lat="43.6104148" lon="11.2360898"><ele>315.6</ele><time>2026-04-18T07:54:32.226Z</time></trkpt><trkpt lat="43.6104376" lon="11.2359525"><ele>312.40000000000003</ele><time>2026-04-18T07:54:33.227Z</time></trkpt><trkpt lat="43.6104592" lon="11.235805"><ele>309.20000000000005</ele><time>2026-04-18T07:54:34.227Z</time></trkpt><trkpt lat="43.6104857" lon="11.2356636"><ele>306.0</ele><time>2026-04-18T07:54:35.227Z</time></trkpt><trkpt lat="43.6105107" lon="11.2355355"><ele>305.8</ele><time>2026-04-18T07:54:36.226Z</time></trkpt><trkpt lat="43.610536" lon="11.2354057"><ele>305.6</ele><time>2026-04-18T07:54:37.228Z</time></trkpt><trkpt lat="43.6105575" lon="11.2352699"><ele>305.4</ele><time>2026-04-18T07:54:38.227Z</time></trkpt><trkpt lat="43.6105844" lon="11.2351413"><ele>305.2</ele><time>2026-04-18T07:54:39.228Z</time></trkpt><trkpt lat="43.6106035" lon="11.2350082"><ele>305.0</ele><time>2026-04-18T07:54:40.227Z</time></trkpt><trkpt lat="43.6106253" lon="11.2348801"><ele>305.4</ele><time>2026-04-18T07:54:41.227Z</time></trkpt><trkpt lat="43.6106465" lon="11.2347513"><ele>305.8</ele><time>2026-04-18T07:54:42.227Z</time></trkpt><trkpt lat="43.6106647" lon="11.2346124"><ele>306.2</ele><time>2026-04-18T07:54:43.226Z</time></trkpt><trkpt lat="43.6106863" lon="11.2344702"><ele>306.6</ele><time>2026-04-18T07:54:44.226Z</time></trkpt><trkpt lat="43.610711" lon="11.2343452"><ele>307.0</ele><time>2026-04-18T07:54:45.228Z</time></trkpt><trkpt lat="43.6107345" lon="11.2342198"><ele>307.0</ele><time>2026-04-18T07:54:46.227Z</time></trkpt><trkpt lat="43.6107544" lon="11.2341122"><ele>307.0</ele><time>2026-04-18T07:54:47.227Z</time></trkpt><trkpt lat="43.6107717" lon="11.2340093"><ele>307.0</ele><time>2026-04-18T07:54:48.228Z</time></trkpt><trkpt lat="43.610787" lon="11.2339096"><ele>307.0</ele><time>2026-04-18T07:54:49.227Z</time></trkpt><trkpt lat="43.6108043" lon="11.2338143"><ele>307.0</ele><time>2026-04-18T07:54:50.226Z</time></trkpt><trkpt lat="43.6108187" lon="11.233709"><ele>307.0</ele><time>2026-04-18T07:54:51.227Z</time></trkpt><trkpt lat="43.6108211" lon="11.233602"><ele>306.8333333333333</ele><time>2026-04-18T07:54:52.227Z</time></trkpt><trkpt lat="43.6108294" lon="11.233491"><ele>306.66666666666663</ele><time>2026-04-18T07:54:53.227Z</time></trkpt><trkpt lat="43.610828" lon="11.2333873"><ele>306.5</ele><time>2026-04-18T07:54:54.227Z</time></trkpt><trkpt lat="43.6108266" lon="11.2332851"><ele>306.3333333333333</ele><time>2026-04-18T07:54:55.227Z</time></trkpt><trkpt lat="43.6108236" lon="11.2331807"><ele>306.1666666666667</ele><time>2026-04-18T07:54:56.227Z</time></trkpt><trkpt lat="43.610825" lon="11.2330723"><ele>306.0</ele><time>2026-04-18T07:54:57.227Z</time></trkpt><trkpt lat="43.6108269" lon="11.232971"><ele>305.8333333333333</ele><time>2026-04-18T07:54:58.227Z</time></trkpt><trkpt lat="43.610818" lon="11.2328731"><ele>305.6666666666667</ele><time>2026-04-18T07:54:59.227Z</time></trkpt><trkpt lat="43.610769" lon="11.2327355"><ele>305.5</ele><time>2026-04-18T07:55:01.228Z</time></trkpt><trkpt lat="43.6107216" lon="11.2326716"><ele>305.33333333333337</ele><time>2026-04-18T07:55:02.228Z</time></trkpt><trkpt lat="43.6106643" lon="11.2326145"><ele>305.1666666666667</ele><time>2026-04-18T07:55:03.228Z</time></trkpt><trkpt lat="43.6105918" lon="11.2325599"><ele>305.0</ele><time>2026-04-18T07:55:04.227Z</time></trkpt><trkpt lat="43.6105163" lon="11.2325075"><ele>305.0</ele><time>2026-04-18T07:55:05.227Z</time></trkpt><trkpt lat="43.6104353" lon="11.2324493"><ele>305.0</ele><time>2026-04-18T07:55:06.227Z</time></trkpt><trkpt lat="43.6103476" lon="11.2323855"><ele>305.0</ele><time>2026-04-18T07:55:07.227Z</time></trkpt><trkpt lat="43.6102624" lon="11.2323201"><ele>305.0</ele><time>2026-04-18T07:55:08.226Z</time></trkpt><trkpt lat="43.6101672" lon="11.2322637"><ele>305.0</ele><time>2026-04-18T07:55:09.227Z</time></trkpt><trkpt lat="43.6100736" lon="11.2321989"><ele>304.4</ele><time>2026-04-18T07:55:10.226Z</time></trkpt><trkpt lat="43.6099823" lon="11.2321456"><ele>303.8</ele><time>2026-04-18T07:55:11.226Z</time></trkpt><trkpt lat="43.6098852" lon="11.2320979"><ele>303.2</ele><time>2026-04-18T07:55:12.227Z</time></trkpt><trkpt lat="43.6097945" lon="11.2320477"><ele>302.6</ele><time>2026-04-18T07:55:13.226Z</time></trkpt><trkpt lat="43.6097084" lon="11.2319897"><ele>302.0</ele><time>2026-04-18T07:55:14.226Z</time></trkpt><trkpt lat="43.6096288" lon="11.2319141"><ele>302.0</ele><time>2026-04-18T07:55:15.227Z</time></trkpt><trkpt lat="43.6095637" lon="11.2318225"><ele>302.0</ele><time>2026-04-18T07:55:16.227Z</time></trkpt><trkpt lat="43.6095105" lon="11.2317319"><ele>302.0</ele><time>2026-04-18T07:55:17.227Z</time></trkpt><trkpt lat="43.6094637" lon="11.2316497"><ele>302.0</ele><time>2026-04-18T07:55:18.227Z</time></trkpt><trkpt lat="43.6094176" lon="11.2315766"><ele>302.0</ele><time>2026-04-18T07:55:19.226Z</time></trkpt><trkpt lat="43.6093453" lon="11.2314666"><ele>302.0</ele><time>2026-04-18T07:55:21.227Z</time></trkpt><trkpt lat="43.6092539" lon="11.2314396"><ele>302.8</ele><time>2026-04-18T07:55:23.227Z</time></trkpt><trkpt lat="43.6091374" lon="11.2314423"><ele>303.6</ele><time>2026-04-18T07:55:25.227Z</time></trkpt><trkpt lat="43.6090221" lon="11.2314324"><ele>304.40000000000003</ele><time>2026-04-18T07:55:27.226Z</time></trkpt><trkpt lat="43.6089043" lon="11.2314782"><ele>305.2</ele><time>2026-04-18T07:55:29.227Z</time></trkpt><trkpt lat="43.6088418" lon="11.231527"><ele>306.0</ele><time>2026-04-18T07:55:30.227Z</time></trkpt><trkpt lat="43.6087759" lon="11.2315815"><ele>305.6</ele><time>2026-04-18T07:55:31.226Z</time></trkpt><trkpt lat="43.6087158" lon="11.2316281"><ele>305.20000000000005</ele><time>2026-04-18T07:55:32.227Z</time></trkpt><trkpt lat="43.6086153" lon="11.2317144"><ele>304.79999999999995</ele><time>2026-04-18T07:55:34.226Z</time></trkpt><trkpt lat="43.608528" lon="11.2318119"><ele>304.4</ele><time>2026-04-18T07:55:36.227Z</time></trkpt><trkpt lat="43.6084442" lon="11.2318503"><ele>304.0</ele><time>2026-04-18T07:55:38.227Z</time></trkpt><trkpt lat="43.6083279" lon="11.2318625"><ele>304.0</ele><time>2026-04-18T07:55:40.227Z</time></trkpt><trkpt lat="43.6082252" lon="11.2319262"><ele>304.0</ele><time>2026-04-18T07:55:42.226Z</time></trkpt><trkpt lat="43.6081722" lon="11.2319738"><ele>304.0</ele><time>2026-04-18T07:55:43.227Z</time></trkpt><trkpt lat="43.6080578" lon="11.2320517"><ele>304.0</ele><time>2026-04-18T07:55:45.226Z</time></trkpt><trkpt lat="43.6080024" lon="11.232099"><ele>304.0</ele><time>2026-04-18T07:55:46.227Z</time></trkpt><trkpt lat="43.6079335" lon="11.2322008"><ele>302.59999999999997</ele><time>2026-04-18T07:55:48.228Z</time></trkpt><trkpt lat="43.6078734" lon="11.2323093"><ele>301.2</ele><time>2026-04-18T07:55:50.226Z</time></trkpt><trkpt lat="43.6078145" lon="11.2324298"><ele>299.79999999999995</ele><time>2026-04-18T07:55:52.227Z</time></trkpt><trkpt lat="43.6077709" lon="11.2325424"><ele>298.4</ele><time>2026-04-18T07:55:54.228Z</time></trkpt><trkpt lat="43.6077052" lon="11.2326578"><ele>297.0</ele><time>2026-04-18T07:55:56.226Z</time></trkpt><trkpt lat="43.6076595" lon="11.232719"><ele>297.0</ele><time>2026-04-18T07:55:57.228Z</time></trkpt><trkpt lat="43.6075796" lon="11.2328211"><ele>297.0</ele><time>2026-04-18T07:55:59.227Z</time></trkpt><trkpt lat="43.6075039" lon="11.2329236"><ele>297.0</ele><time>2026-04-18T07:56:01.228Z</time></trkpt><trkpt lat="43.6074303" lon="11.2330332"><ele>297.0</ele><time>2026-04-18T07:56:03.226Z</time></trkpt><trkpt lat="43.6073772" lon="11.2331404"><ele>297.0</ele><time>2026-04-18T07:56:05.226Z</time></trkpt><trkpt lat="43.6073318" lon="11.2332115"><ele>299.4</ele><time>2026-04-18T07:56:16.227Z</time></trkpt><trkpt lat="43.6072687" lon="11.2333135"><ele>301.79999999999995</ele><time>2026-04-18T07:56:19.227Z</time></trkpt><trkpt lat="43.6072179" lon="11.2334104"><ele>304.2</ele><time>2026-04-18T07:56:21.226Z</time></trkpt><trkpt lat="43.6071498" lon="11.2334707"><ele>306.59999999999997</ele><time>2026-04-18T07:56:23.226Z</time></trkpt><trkpt lat="43.6070622" lon="11.2335472"><ele>309.0</ele><time>2026-04-18T07:56:25.228Z</time></trkpt><trkpt lat="43.6070079" lon="11.233631"><ele>308.0</ele><time>2026-04-18T07:56:27.227Z</time></trkpt><trkpt lat="43.6069666" lon="11.2337373"><ele>307.0</ele><time>2026-04-18T07:56:29.226Z</time></trkpt><trkpt lat="43.6069204" lon="11.2338508"><ele>306.0</ele><time>2026-04-18T07:56:31.227Z</time></trkpt><trkpt lat="43.6068734" lon="11.233988"><ele>305.0</ele><time>2026-04-18T07:56:33.227Z</time></trkpt><trkpt lat="43.6068319" lon="11.2341051"><ele>304.0</ele><time>2026-04-18T07:56:35.226Z</time></trkpt><trkpt lat="43.6067946" lon="11.2342064"><ele>304.0</ele><time>2026-04-18T07:56:37.227Z</time></trkpt><trkpt lat="43.6067496" lon="11.2343279"><ele>304.0</ele><time>2026-04-18T07:56:39.227Z</time></trkpt><trkpt lat="43.606707" lon="11.2344124"><ele>304.0</ele><time>2026-04-18T07:56:41.227Z</time></trkpt><trkpt lat="43.6066605" lon="11.2345048"><ele>304.0</ele><time>2026-04-18T07:56:45.227Z</time></trkpt><trkpt lat="43.6066149" lon="11.234607"><ele>304.0</ele><time>2026-04-18T07:56:48.226Z</time></trkpt><trkpt lat="43.6065809" lon="11.2346909"><ele>304.0</ele><time>2026-04-18T07:56:50.227Z</time></trkpt><trkpt lat="43.6065503" lon="11.234781"><ele>305.3333333333333</ele><time>2026-04-18T07:56:52.227Z</time></trkpt><trkpt lat="43.6065072" lon="11.2348808"><ele>306.66666666666663</ele><time>2026-04-18T07:56:54.226Z</time></trkpt><trkpt lat="43.6064587" lon="11.2349834"><ele>308.0</ele><time>2026-04-18T07:56:56.227Z</time></trkpt><trkpt lat="43.6064183" lon="11.2350658"><ele>309.3333333333333</ele><time>2026-04-18T07:56:58.227Z</time></trkpt><trkpt lat="43.6063895" lon="11.2351475"><ele>310.6666666666667</ele><time>2026-04-18T07:57:07.227Z</time></trkpt><trkpt lat="43.6063565" lon="11.2352398"><ele>312.0</ele><time>2026-04-18T07:57:10.227Z</time></trkpt><trkpt lat="43.6063695" lon="11.2353277"><ele>312.0</ele><time>2026-04-18T07:57:13.227Z</time></trkpt><trkpt lat="43.6063728" lon="11.2354205"><ele>312.0</ele><time>2026-04-18T07:57:15.227Z</time></trkpt><trkpt lat="43.6063838" lon="11.2355373"><ele>312.0</ele><time>2026-04-18T07:57:17.226Z</time></trkpt><trkpt lat="43.6064092" lon="11.2356698"><ele>312.0</ele><time>2026-04-18T07:57:19.226Z</time></trkpt><trkpt lat="43.6064177" lon="11.2358035"><ele>312.0</ele><time>2026-04-18T07:57:21.227Z</time></trkpt><trkpt lat="43.6064352" lon="11.2359206"><ele>312.0</ele><time>2026-04-18T07:57:23.227Z</time></trkpt><trkpt lat="43.6064704" lon="11.2360463"><ele>313.0</ele><time>2026-04-18T07:57:25.226Z</time></trkpt><trkpt lat="43.6065027" lon="11.2361644"><ele>314.0</ele><time>2026-04-18T07:57:27.227Z</time></trkpt><trkpt lat="43.6064886" lon="11.2362631"><ele>315.0</ele><time>2026-04-18T07:57:30.226Z</time></trkpt><trkpt lat="43.6064097" lon="11.2362987"><ele>316.0</ele><time>2026-04-18T07:57:33.225Z</time></trkpt><trkpt lat="43.6063358" lon="11.2362345"><ele>317.0</ele><time>2026-04-18T07:57:35.227Z</time></trkpt><trkpt lat="43.6062894" lon="11.2361714"><ele>318.0</ele><time>2026-04-18T07:57:36.227Z</time></trkpt><trkpt lat="43.6062335" lon="11.2360901"><ele>318.0</ele><time>2026-04-18T07:57:37.227Z</time></trkpt><trkpt lat="43.6061891" lon="11.2360145"><ele>318.0</ele><time>2026-04-18T07:57:38.227Z</time></trkpt><trkpt lat="43.6061347" lon="11.2359081"><ele>318.0</ele><time>2026-04-18T07:57:39.226Z</time></trkpt><trkpt lat="43.6060756" lon="11.2357962"><ele>318.0</ele><time>2026-04-18T07:57:40.227Z</time></trkpt><trkpt lat="43.6060045" lon="11.2356762"><ele>318.0</ele><time>2026-04-18T07:57:41.227Z</time></trkpt><trkpt lat="43.6059377" lon="11.2355476"><ele>318.0</ele><time>2026-04-18T07:57:42.227Z</time></trkpt><trkpt lat="43.6058686" lon="11.2354307"><ele>318.0</ele><time>2026-04-18T07:57:43.227Z</time></trkpt><trkpt lat="43.6057934" lon="11.2353292"><ele>318.0</ele><time>2026-04-18T07:57:44.226Z</time></trkpt><trkpt lat="43.6057136" lon="11.2352395"><ele>318.0</ele><time>2026-04-18T07:57:45.227Z</time></trkpt><trkpt lat="43.6056324" lon="11.2351727"><ele>318.0</ele><time>2026-04-18T07:57:46.227Z</time></trkpt><trkpt lat="43.6055392" lon="11.2351273"><ele>318.0</ele><time>2026-04-18T07:57:47.227Z</time></trkpt><trkpt lat="43.6054307" lon="11.2351069"><ele>318.0</ele><time>2026-04-18T07:57:48.227Z</time></trkpt><trkpt lat="43.6053187" lon="11.2351038"><ele>318.0</ele><time>2026-04-18T07:57:49.227Z</time></trkpt><trkpt lat="43.6051957" lon="11.2351023"><ele>318.0</ele><time>2026-04-18T07:57:50.227Z</time></trkpt><trkpt lat="43.6050785" lon="11.2350926"><ele>320.0</ele><time>2026-04-18T07:57:51.226Z</time></trkpt><trkpt lat="43.6050042" lon="11.2350843"><ele>322.0</ele><time>2026-04-18T07:57:52.227Z</time></trkpt><trkpt lat="43.6049532" lon="11.2351356"><ele>324.0</ele><time>2026-04-18T07:57:54.226Z</time></trkpt><trkpt lat="43.604929" lon="11.2352615"><ele>326.0</ele><time>2026-04-18T07:57:56.227Z</time></trkpt><trkpt lat="43.6048711" lon="11.2353981"><ele>328.0</ele><time>2026-04-18T07:57:58.227Z</time></trkpt><trkpt lat="43.6048389" lon="11.2354843"><ele>330.0</ele><time>2026-04-18T07:57:59.227Z</time></trkpt><trkpt lat="43.6048042" lon="11.2355835"><ele>331.0</ele><time>2026-04-18T07:58:00.226Z</time></trkpt><trkpt lat="43.6047628" lon="11.2356953"><ele>332.0</ele><time>2026-04-18T07:58:01.226Z</time></trkpt><trkpt lat="43.6047271" lon="11.2358082"><ele>333.0</ele><time>2026-04-18T07:58:02.227Z</time></trkpt><trkpt lat="43.6046908" lon="11.2359364"><ele>334.0</ele><time>2026-04-18T07:58:03.227Z</time></trkpt><trkpt lat="43.6046441" lon="11.2360666"><ele>335.0</ele><time>2026-04-18T07:58:04.227Z</time></trkpt><trkpt lat="43.6046013" lon="11.2362002"><ele>335.0</ele><time>2026-04-18T07:58:05.227Z</time></trkpt><trkpt lat="43.6045648" lon="11.2363113"><ele>335.0</ele><time>2026-04-18T07:58:06.227Z</time></trkpt><trkpt lat="43.6045334" lon="11.2364139"><ele>335.0</ele><time>2026-04-18T07:58:07.227Z</time></trkpt><trkpt lat="43.6045004" lon="11.2365212"><ele>335.0</ele><time>2026-04-18T07:58:08.226Z</time></trkpt><trkpt lat="43.6044661" lon="11.2366284"><ele>335.0</ele><time>2026-04-18T07:58:09.227Z</time></trkpt><trkpt lat="43.6044355" lon="11.2367269"><ele>335.0</ele><time>2026-04-18T07:58:10.226Z</time></trkpt><trkpt lat="43.6044024" lon="11.2368126"><ele>336.1666666666667</ele><time>2026-04-18T07:58:11.227Z</time></trkpt><trkpt lat="43.6043736" lon="11.2368939"><ele>337.33333333333337</ele><time>2026-04-18T07:58:12.227Z</time></trkpt><trkpt lat="43.6043322" lon="11.2370195"><ele>338.5</ele><time>2026-04-18T07:58:14.226Z</time></trkpt><trkpt lat="43.6042881" lon="11.2371692"><ele>339.6666666666667</ele><time>2026-04-18T07:58:16.227Z</time></trkpt><trkpt lat="43.6042598" lon="11.2372498"><ele>340.8333333333333</ele><time>2026-04-18T07:58:17.227Z</time></trkpt><trkpt lat="43.6042273" lon="11.2373374"><ele>342.0</ele><time>2026-04-18T07:58:18.227Z</time></trkpt><trkpt lat="43.6041921" lon="11.237426"><ele>342.85714285714283</ele><time>2026-04-18T07:58:19.226Z</time></trkpt><trkpt lat="43.6041547" lon="11.2375017"><ele>343.7142857142857</ele><time>2026-04-18T07:58:20.227Z</time></trkpt><trkpt lat="43.6041223" lon="11.2375837"><ele>344.57142857142856</ele><time>2026-04-18T07:58:21.227Z</time></trkpt><trkpt lat="43.6040949" lon="11.2376712"><ele>345.42857142857144</ele><time>2026-04-18T07:58:22.226Z</time></trkpt><trkpt lat="43.6040729" lon="11.2377615"><ele>346.2857142857143</ele><time>2026-04-18T07:58:23.226Z</time></trkpt><trkpt lat="43.6040457" lon="11.2378544"><ele>347.1428571428571</ele><time>2026-04-18T07:58:24.228Z</time></trkpt><trkpt lat="43.6040111" lon="11.2379389"><ele>348.0</ele><time>2026-04-18T07:58:25.227Z</time></trkpt><trkpt lat="43.6039666" lon="11.2380256"><ele>348.0</ele><time>2026-04-18T07:58:26.226Z</time></trkpt><trkpt lat="43.6039272" lon="11.2381224"><ele>348.0</ele><time>2026-04-18T07:58:27.226Z</time></trkpt><trkpt lat="43.6038991" lon="11.2382168"><ele>348.0</ele><time>2026-04-18T07:58:28.227Z</time></trkpt><trkpt lat="43.6038731" lon="11.2383366"><ele>348.0</ele><time>2026-04-18T07:58:29.226Z</time></trkpt><trkpt lat="43.6038594" lon="11.238467"><ele>348.0</ele><time>2026-04-18T07:58:30.227Z</time></trkpt><trkpt lat="43.6038503" lon="11.2385837"><ele>348.0</ele><time>2026-04-18T07:58:31.227Z</time></trkpt><trkpt lat="43.6038414" lon="11.2386836"><ele>349.59999999999997</ele><time>2026-04-18T07:58:32.227Z</time></trkpt><trkpt lat="43.6038313" lon="11.2387813"><ele>351.2</ele><time>2026-04-18T07:58:33.227Z</time></trkpt><trkpt lat="43.6038246" lon="11.238879"><ele>352.8</ele><time>2026-04-18T07:58:34.227Z</time></trkpt><trkpt lat="43.6038059" lon="11.2390801"><ele>354.4</ele><time>2026-04-18T07:58:36.226Z</time></trkpt><trkpt lat="43.6037952" lon="11.2391942"><ele>356.0</ele><time>2026-04-18T07:58:37.227Z</time></trkpt><trkpt lat="43.6037832" lon="11.239302"><ele>357.0</ele><time>2026-04-18T07:58:38.227Z</time></trkpt><trkpt lat="43.6037727" lon="11.2394067"><ele>358.0</ele><time>2026-04-18T07:58:39.227Z</time></trkpt><trkpt lat="43.6037606" lon="11.2395278"><ele>359.0</ele><time>2026-04-18T07:58:40.228Z</time></trkpt><trkpt lat="43.6037542" lon="11.2396352"><ele>360.0</ele><time>2026-04-18T07:58:41.227Z</time></trkpt><trkpt lat="43.6037481" lon="11.2397665"><ele>361.0</ele><time>2026-04-18T07:58:42.227Z</time></trkpt><trkpt lat="43.6037354" lon="11.2399147"><ele>362.0</ele><time>2026-04-18T07:58:43.226Z</time></trkpt><trkpt lat="43.6037282" lon="11.2400551"><ele>363.0</ele><time>2026-04-18T07:58:44.227Z</time></trkpt><trkpt lat="43.6037139" lon="11.2402052"><ele>364.0</ele><time>2026-04-18T07:58:45.227Z</time></trkpt><trkpt lat="43.6037018" lon="11.2403628"><ele>365.0</ele><time>2026-04-18T07:58:46.226Z</time></trkpt><trkpt lat="43.6036911" lon="11.2405274"><ele>366.0</ele><time>2026-04-18T07:58:47.227Z</time></trkpt><trkpt lat="43.6036776" lon="11.2407014"><ele>367.75</ele><time>2026-04-18T07:58:48.227Z</time></trkpt><trkpt lat="43.6036775" lon="11.2408793"><ele>369.5</ele><time>2026-04-18T07:58:49.227Z</time></trkpt><trkpt lat="43.6036677" lon="11.2410617"><ele>371.25</ele><time>2026-04-18T07:58:50.227Z</time></trkpt><trkpt lat="43.60366" lon="11.2412392"><ele>373.0</ele><time>2026-04-18T07:58:51.227Z</time></trkpt><trkpt lat="43.6036482" lon="11.2414045"><ele>375.75</ele><time>2026-04-18T07:58:52.226Z</time></trkpt><trkpt lat="43.603646" lon="11.2415641"><ele>378.5</ele><time>2026-04-18T07:58:53.227Z</time></trkpt><trkpt lat="43.6036409" lon="11.2417252"><ele>381.25</ele><time>2026-04-18T07:58:54.226Z</time></trkpt><trkpt lat="43.6036334" lon="11.2418953"><ele>384.0</ele><time>2026-04-18T07:58:55.226Z</time></trkpt><trkpt lat="43.603632" lon="11.2420286"><ele>384.0</ele><time>2026-04-18T07:58:56.226Z</time></trkpt><trkpt lat="43.6035957" lon="11.2421108"><ele>384.0</ele><time>2026-04-18T07:58:57.227Z</time></trkpt><trkpt lat="43.603559" lon="11.2421898"><ele>384.0</ele><time>2026-04-18T07:58:58.227Z</time></trkpt><trkpt lat="43.6035009" lon="11.2422386"><ele>384.0</ele><time>2026-04-18T07:58:59.227Z</time></trkpt><trkpt lat="43.6033912" lon="11.2422471"><ele>384.0</ele><time>2026-04-18T07:59:01.227Z</time></trkpt><trkpt lat="43.6032769" lon="11.2421848"><ele>384.0</ele><time>2026-04-18T07:59:03.227Z</time></trkpt><trkpt lat="43.6032153" lon="11.2421533"><ele>384.0</ele><time>2026-04-18T07:59:04.227Z</time></trkpt><trkpt lat="43.6031015" lon="11.2420988"><ele>384.0</ele><time>2026-04-18T07:59:06.227Z</time></trkpt><trkpt lat="43.6030289" lon="11.2420623"><ele>384.0</ele><time>2026-04-18T07:59:07.226Z</time></trkpt><trkpt lat="43.6029407" lon="11.2420488"><ele>384.0</ele><time>2026-04-18T07:59:08.226Z</time></trkpt><trkpt lat="43.6028461" lon="11.242019"><ele>384.0</ele><time>2026-04-18T07:59:09.226Z</time></trkpt><trkpt lat="43.6027517" lon="11.2419749"><ele>383.6</ele><time>2026-04-18T07:59:10.227Z</time></trkpt><trkpt lat="43.6026544" lon="11.2419328"><ele>383.2</ele><time>2026-04-18T07:59:11.226Z</time></trkpt><trkpt lat="43.6025511" lon="11.2419027"><ele>382.8</ele><time>2026-04-18T07:59:12.226Z</time></trkpt><trkpt lat="43.602447" lon="11.2418671"><ele>382.40000000000003</ele><time>2026-04-18T07:59:13.227Z</time></trkpt><trkpt lat="43.6023715" lon="11.2418378"><ele>382.0</ele><time>2026-04-18T07:59:14.227Z</time></trkpt><trkpt lat="43.6022949" lon="11.2418038"><ele>382.0</ele><time>2026-04-18T07:59:15.226Z</time></trkpt><trkpt lat="43.6022143" lon="11.2417715"><ele>382.0</ele><time>2026-04-18T07:59:16.227Z</time></trkpt><trkpt lat="43.602126" lon="11.2417394"><ele>382.0</ele><time>2026-04-18T07:59:17.227Z</time></trkpt><trkpt lat="43.602037" lon="11.241715"><ele>382.0</ele><time>2026-04-18T07:59:18.227Z</time></trkpt><trkpt lat="43.6019539" lon="11.2416888"><ele>382.0</ele><time>2026-04-18T07:59:19.227Z</time></trkpt><trkpt lat="43.6018894" lon="11.2416749"><ele>382.0</ele><time>2026-04-18T07:59:20.226Z</time></trkpt><trkpt lat="43.6018161" lon="11.2416688"><ele>382.8333333333333</ele><time>2026-04-18T07:59:21.227Z</time></trkpt><trkpt lat="43.6017439" lon="11.2416614"><ele>383.66666666666663</ele><time>2026-04-18T07:59:22.227Z</time></trkpt><trkpt lat="43.6016662" lon="11.2416654"><ele>384.5</ele><time>2026-04-18T07:59:23.225Z</time></trkpt><trkpt lat="43.6015839" lon="11.2416602"><ele>385.3333333333333</ele><time>2026-04-18T07:59:24.226Z</time></trkpt><trkpt lat="43.6015145" lon="11.2416628"><ele>386.1666666666667</ele><time>2026-04-18T07:59:25.227Z</time></trkpt><trkpt lat="43.6014135" lon="11.2416791"><ele>387.0</ele><time>2026-04-18T07:59:27.227Z</time></trkpt><trkpt lat="43.6013341" lon="11.2417712"><ele>387.0</ele><time>2026-04-18T07:59:29.227Z</time></trkpt><trkpt lat="43.6013012" lon="11.2419478"><ele>387.0</ele><time>2026-04-18T07:59:31.227Z</time></trkpt><trkpt lat="43.6012837" lon="11.242049"><ele>387.0</ele><time>2026-04-18T07:59:32.226Z</time></trkpt><trkpt lat="43.6012589" lon="11.2421517"><ele>387.0</ele><time>2026-04-18T07:59:33.226Z</time></trkpt><trkpt lat="43.6012332" lon="11.2422535"><ele>387.0</ele><time>2026-04-18T07:59:34.226Z</time></trkpt><trkpt lat="43.6012074" lon="11.2423664"><ele>388.3333333333333</ele><time>2026-04-18T07:59:35.226Z</time></trkpt><trkpt lat="43.6011872" lon="11.2424734"><ele>389.66666666666663</ele><time>2026-04-18T07:59:36.227Z</time></trkpt><trkpt lat="43.6011797" lon="11.2425623"><ele>391.0</ele><time>2026-04-18T07:59:37.226Z</time></trkpt><trkpt lat="43.6011774" lon="11.2426832"><ele>392.3333333333333</ele><time>2026-04-18T07:59:38.227Z</time></trkpt><trkpt lat="43.6011801" lon="11.2428038"><ele>393.66666666666663</ele><time>2026-04-18T07:59:39.227Z</time></trkpt><trkpt lat="43.6012024" lon="11.242917"><ele>395.0</ele><time>2026-04-18T07:59:40.226Z</time></trkpt><trkpt lat="43.6012395" lon="11.2430202"><ele>394.99999999999994</ele><time>2026-04-18T07:59:41.227Z</time></trkpt><trkpt lat="43.6012869" lon="11.2431106"><ele>395.0</ele><time>2026-04-18T07:59:42.227Z</time></trkpt><trkpt lat="43.6013391" lon="11.2431963"><ele>395.0</ele><time>2026-04-18T07:59:43.226Z</time></trkpt><trkpt lat="43.601394" lon="11.2432717"><ele>395.0</ele><time>2026-04-18T07:59:44.227Z</time></trkpt><trkpt lat="43.6014498" lon="11.2433502"><ele>394.99999999999994</ele><time>2026-04-18T07:59:45.226Z</time></trkpt><trkpt lat="43.6015013" lon="11.2434423"><ele>395.0</ele><time>2026-04-18T07:59:46.225Z</time></trkpt><trkpt lat="43.6015526" lon="11.2435464"><ele>395.99999999999994</ele><time>2026-04-18T07:59:47.226Z</time></trkpt><trkpt lat="43.6015944" lon="11.243639"><ele>397.0</ele><time>2026-04-18T07:59:48.226Z</time></trkpt><trkpt lat="43.6016469" lon="11.2437233"><ele>398.0</ele><time>2026-04-18T07:59:49.227Z</time></trkpt><trkpt lat="43.6017" lon="11.2438123"><ele>399.0</ele><time>2026-04-18T07:59:50.227Z</time></trkpt><trkpt lat="43.6017558" lon="11.2439022"><ele>399.99999999999994</ele><time>2026-04-18T07:59:51.226Z</time></trkpt><trkpt lat="43.6018053" lon="11.2439966"><ele>401.0</ele><time>2026-04-18T07:59:52.226Z</time></trkpt><trkpt lat="43.6018428" lon="11.2440852"><ele>402.49999999999994</ele><time>2026-04-18T07:59:53.226Z</time></trkpt><trkpt lat="43.6018512" lon="11.2442186"><ele>404.0</ele><time>2026-04-18T07:59:55.227Z</time></trkpt><trkpt lat="43.6018112" lon="11.2442931"><ele>405.5</ele><time>2026-04-18T07:59:58.226Z</time></trkpt><trkpt lat="43.6017382" lon="11.2443438"><ele>407.0</ele><time>2026-04-18T08:00:00.227Z</time></trkpt><trkpt lat="43.6016267" lon="11.2444198"><ele>408.49999999999994</ele><time>2026-04-18T08:00:02.226Z</time></trkpt><trkpt lat="43.6015623" lon="11.2444715"><ele>410.0</ele><time>2026-04-18T08:00:03.227Z</time></trkpt><trkpt lat="43.6014965" lon="11.2445275"><ele>410.0</ele><time>2026-04-18T08:00:04.227Z</time></trkpt><trkpt lat="43.6014166" lon="11.2445856"><ele>410.0</ele><time>2026-04-18T08:00:05.227Z</time></trkpt><trkpt lat="43.6013263" lon="11.2446521"><ele>410.0</ele><time>2026-04-18T08:00:06.226Z</time></trkpt><trkpt lat="43.601232" lon="11.2447228"><ele>410.0</ele><time>2026-04-18T08:00:07.227Z</time></trkpt><trkpt lat="43.6011371" lon="11.2447916"><ele>410.0</ele><time>2026-04-18T08:00:08.226Z</time></trkpt><trkpt lat="43.6010438" lon="11.2448686"><ele>407.6</ele><time>2026-04-18T08:00:09.227Z</time></trkpt><trkpt lat="43.6009553" lon="11.2449398"><ele>405.2</ele><time>2026-04-18T08:00:10.226Z</time></trkpt><trkpt lat="43.6008649" lon="11.2450167"><ele>402.79999999999995</ele><time>2026-04-18T08:00:11.225Z</time></trkpt><trkpt lat="43.6007723" lon="11.24509"><ele>400.4</ele><time>2026-04-18T08:00:12.227Z</time></trkpt><trkpt lat="43.6006796" lon="11.245177"><ele>398.0</ele><time>2026-04-18T08:00:13.227Z</time></trkpt><trkpt lat="43.6005958" lon="11.2452485"><ele>398.0</ele><time>2026-04-18T08:00:14.226Z</time></trkpt><trkpt lat="43.6005245" lon="11.2453128"><ele>398.0</ele><time>2026-04-18T08:00:15.226Z</time></trkpt><trkpt lat="43.6004554" lon="11.2453713"><ele>398.0</ele><time>2026-04-18T08:00:16.227Z</time></trkpt><trkpt lat="43.6003642" lon="11.2454706"><ele>398.0</ele><time>2026-04-18T08:00:18.227Z</time></trkpt><trkpt lat="43.6002929" lon="11.2455785"><ele>398.0</ele><time>2026-04-18T08:00:20.227Z</time></trkpt><trkpt lat="43.6002172" lon="11.2456784"><ele>397.4</ele><time>2026-04-18T08:00:22.226Z</time></trkpt><trkpt lat="43.6001476" lon="11.2457736"><ele>396.79999999999995</ele><time>2026-04-18T08:00:24.227Z</time></trkpt><trkpt lat="43.6000569" lon="11.2458715"><ele>396.2</ele><time>2026-04-18T08:00:26.226Z</time></trkpt><trkpt lat="43.5999701" lon="11.245989"><ele>395.6</ele><time>2026-04-18T08:00:28.227Z</time></trkpt><trkpt lat="43.5999217" lon="11.2460586"><ele>395.0</ele><time>2026-04-18T08:00:29.227Z</time></trkpt><trkpt lat="43.5998669" lon="11.2461231"><ele>394.99999999999994</ele><time>2026-04-18T08:00:30.227Z</time></trkpt><trkpt lat="43.5998042" lon="11.2461853"><ele>395.0</ele><time>2026-04-18T08:00:31.226Z</time></trkpt><trkpt lat="43.5997331" lon="11.2462448"><ele>395.0</ele><time>2026-04-18T08:00:32.225Z</time></trkpt><trkpt lat="43.5996607" lon="11.2463159"><ele>395.0</ele><time>2026-04-18T08:00:33.225Z</time></trkpt><trkpt lat="43.5995864" lon="11.2463927"><ele>394.99999999999994</ele><time>2026-04-18T08:00:34.225Z</time></trkpt><trkpt lat="43.599511" lon="11.2464617"><ele>395.0</ele><time>2026-04-18T08:00:35.227Z</time></trkpt><trkpt lat="43.5994373" lon="11.246531"><ele>391.16666666666663</ele><time>2026-04-18T08:00:36.226Z</time></trkpt><trkpt lat="43.5993653" lon="11.2465964"><ele>387.3333333333333</ele><time>2026-04-18T08:00:37.227Z</time></trkpt><trkpt lat="43.5992873" lon="11.2466537"><ele>383.5</ele><time>2026-04-18T08:00:38.227Z</time></trkpt><trkpt lat="43.5992132" lon="11.2467226"><ele>379.66666666666663</ele><time>2026-04-18T08:00:39.227Z</time></trkpt><trkpt lat="43.5991438" lon="11.2467941"><ele>375.8333333333333</ele><time>2026-04-18T08:00:40.225Z</time></trkpt><trkpt lat="43.5990743" lon="11.246861"><ele>372.0</ele><time>2026-04-18T08:00:41.226Z</time></trkpt><trkpt lat="43.5990069" lon="11.24692"><ele>372.0</ele><time>2026-04-18T08:00:42.227Z</time></trkpt><trkpt lat="43.5989403" lon="11.2469717"><ele>372.0</ele><time>2026-04-18T08:00:43.227Z</time></trkpt><trkpt lat="43.598875" lon="11.247017"><ele>372.0</ele><time>2026-04-18T08:00:44.226Z</time></trkpt><trkpt lat="43.5987632" lon="11.2470668"><ele>372.0</ele><time>2026-04-18T08:00:46.225Z</time></trkpt><trkpt lat="43.5986747" lon="11.2470325"><ele>372.0</ele><time>2026-04-18T08:00:48.227Z</time></trkpt><trkpt lat="43.5986019" lon="11.2469118"><ele>370.0</ele><time>2026-04-18T08:00:50.226Z</time></trkpt><trkpt lat="43.5985555" lon="11.2468273"><ele>368.0</ele><time>2026-04-18T08:00:51.226Z</time></trkpt><trkpt lat="43.5984947" lon="11.2467464"><ele>366.0</ele><time>2026-04-18T08:00:52.226Z</time></trkpt><trkpt lat="43.5984174" lon="11.2466828"><ele>364.0</ele><time>2026-04-18T08:00:53.227Z</time></trkpt><trkpt lat="43.5983302" lon="11.2466366"><ele>362.0</ele><time>2026-04-18T08:00:54.226Z</time></trkpt><trkpt lat="43.5982313" lon="11.2466105"><ele>360.0</ele><time>2026-04-18T08:00:55.227Z</time></trkpt><trkpt lat="43.5981143" lon="11.2465974"><ele>360.0</ele><time>2026-04-18T08:00:56.225Z</time></trkpt><trkpt lat="43.5979981" lon="11.2465771"><ele>360.0</ele><time>2026-04-18T08:00:57.227Z</time></trkpt><trkpt lat="43.5978788" lon="11.2465397"><ele>360.0</ele><time>2026-04-18T08:00:58.226Z</time></trkpt><trkpt lat="43.5977546" lon="11.246499"><ele>360.0</ele><time>2026-04-18T08:00:59.227Z</time></trkpt><trkpt lat="43.597631" lon="11.246455"><ele>358.5</ele><time>2026-04-18T08:01:00.226Z</time></trkpt><trkpt lat="43.5974968" lon="11.2464332"><ele>357.0</ele><time>2026-04-18T08:01:01.227Z</time></trkpt><trkpt lat="43.5973579" lon="11.2464244"><ele>355.5</ele><time>2026-04-18T08:01:02.226Z</time></trkpt><trkpt lat="43.5972175" lon="11.2464455"><ele>354.0</ele><time>2026-04-18T08:01:03.226Z</time></trkpt><trkpt lat="43.5970842" lon="11.2464765"><ele>354.25</ele><time>2026-04-18T08:01:04.227Z</time></trkpt><trkpt lat="43.5969618" lon="11.2465149"><ele>354.5</ele><time>2026-04-18T08:01:05.226Z</time></trkpt><trkpt lat="43.5968521" lon="11.2465613"><ele>354.75</ele><time>2026-04-18T08:01:06.227Z</time></trkpt><trkpt lat="43.5967471" lon="11.2465901"><ele>355.0</ele><time>2026-04-18T08:01:07.227Z</time></trkpt><trkpt lat="43.5966332" lon="11.2466286"><ele>355.0</ele><time>2026-04-18T08:01:08.227Z</time></trkpt><trkpt lat="43.5965234" lon="11.2466677"><ele>355.0</ele><time>2026-04-18T08:01:09.226Z</time></trkpt><trkpt lat="43.5964086" lon="11.2467108"><ele>355.0</ele><time>2026-04-18T08:01:10.227Z</time></trkpt><trkpt lat="43.5962945" lon="11.2467442"><ele>355.0</ele><time>2026-04-18T08:01:11.227Z</time></trkpt><trkpt lat="43.5961883" lon="11.2467792"><ele>356.0</ele><time>2026-04-18T08:01:12.226Z</time></trkpt><trkpt lat="43.596086" lon="11.2468131"><ele>357.0</ele><time>2026-04-18T08:01:13.226Z</time></trkpt><trkpt lat="43.5959745" lon="11.2468461"><ele>358.0</ele><time>2026-04-18T08:01:14.226Z</time></trkpt><trkpt lat="43.5958635" lon="11.2468847"><ele>359.0</ele><time>2026-04-18T08:01:15.227Z</time></trkpt><trkpt lat="43.5957519" lon="11.2469285"><ele>359.0</ele><time>2026-04-18T08:01:16.226Z</time></trkpt><trkpt lat="43.5956578" lon="11.2469564"><ele>359.0</ele><time>2026-04-18T08:01:17.225Z</time></trkpt><trkpt lat="43.5955734" lon="11.246975"><ele>359.0</ele><time>2026-04-18T08:01:18.226Z</time></trkpt><trkpt lat="43.5954974" lon="11.2469872"><ele>359.0</ele><time>2026-04-18T08:01:19.227Z</time></trkpt><trkpt lat="43.5954248" lon="11.2469962"><ele>359.0</ele><time>2026-04-18T08:01:20.227Z</time></trkpt><trkpt lat="43.5953618" lon="11.2469996"><ele>359.0</ele><time>2026-04-18T08:01:21.227Z</time></trkpt><trkpt lat="43.5952486" lon="11.2470361"><ele>358.4</ele><time>2026-04-18T08:01:23.227Z</time></trkpt><trkpt lat="43.5951635" lon="11.2471168"><ele>357.79999999999995</ele><time>2026-04-18T08:01:25.227Z</time></trkpt><trkpt lat="43.5950727" lon="11.247231"><ele>357.20000000000005</ele><time>2026-04-18T08:01:27.226Z</time></trkpt><trkpt lat="43.5950134" lon="11.2472836"><ele>356.6</ele><time>2026-04-18T08:01:28.228Z</time></trkpt><trkpt lat="43.5949433" lon="11.2473482"><ele>356.0</ele><time>2026-04-18T08:01:29.226Z</time></trkpt><trkpt lat="43.5948651" lon="11.2474109"><ele>357.4</ele><time>2026-04-18T08:01:30.226Z</time></trkpt><trkpt lat="43.5947808" lon="11.2474781"><ele>358.8</ele><time>2026-04-18T08:01:31.226Z</time></trkpt><trkpt lat="43.5946841" lon="11.247539"><ele>360.2</ele><time>2026-04-18T08:01:32.226Z</time></trkpt><trkpt lat="43.5945784" lon="11.2475852"><ele>361.59999999999997</ele><time>2026-04-18T08:01:33.226Z</time></trkpt><trkpt lat="43.5944742" lon="11.2476085"><ele>363.0</ele><time>2026-04-18T08:01:34.227Z</time></trkpt><trkpt lat="43.5943781" lon="11.2476022"><ele>363.0</ele><time>2026-04-18T08:01:35.226Z</time></trkpt><trkpt lat="43.5942798" lon="11.2475658"><ele>363.0</ele><time>2026-04-18T08:01:36.226Z</time></trkpt><trkpt lat="43.5941766" lon="11.2475039"><ele>363.0</ele><time>2026-04-18T08:01:37.225Z</time></trkpt><trkpt lat="43.5940627" lon="11.2474458"><ele>363.0</ele><time>2026-04-18T08:01:38.227Z</time></trkpt><trkpt lat="43.5939432" lon="11.2473848"><ele>363.0</ele><time>2026-04-18T08:01:39.227Z</time></trkpt><trkpt lat="43.593823" lon="11.2473255"><ele>363.0</ele><time>2026-04-18T08:01:40.225Z</time></trkpt><trkpt lat="43.5937085" lon="11.2472625"><ele>363.0</ele><time>2026-04-18T08:01:41.227Z</time></trkpt><trkpt lat="43.5936091" lon="11.2472153"><ele>363.0</ele><time>2026-04-18T08:01:42.227Z</time></trkpt><trkpt lat="43.5935093" lon="11.2471709"><ele>363.59999999999997</ele><time>2026-04-18T08:01:43.226Z</time></trkpt><trkpt lat="43.5934129" lon="11.2471411"><ele>364.2</ele><time>2026-04-18T08:01:44.226Z</time></trkpt><trkpt lat="43.5933202" lon="11.2471288"><ele>364.8</ele><time>2026-04-18T08:01:45.226Z</time></trkpt><trkpt lat="43.5932392" lon="11.2471373"><ele>365.4</ele><time>2026-04-18T08:01:46.227Z</time></trkpt><trkpt lat="43.593135" lon="11.247225"><ele>366.0</ele><time>2026-04-18T08:01:48.226Z</time></trkpt><trkpt lat="43.5931066" lon="11.247306"><ele>366.0</ele><time>2026-04-18T08:01:49.227Z</time></trkpt><trkpt lat="43.5931017" lon="11.247394"><ele>366.0</ele><time>2026-04-18T08:01:50.227Z</time></trkpt><trkpt lat="43.5931196" lon="11.2474821"><ele>366.0</ele><time>2026-04-18T08:01:51.226Z</time></trkpt><trkpt lat="43.5931611" lon="11.2475621"><ele>366.0</ele><time>2026-04-18T08:01:52.226Z</time></trkpt><trkpt lat="43.5932108" lon="11.2476405"><ele>366.0</ele><time>2026-04-18T08:01:53.227Z</time></trkpt><trkpt lat="43.5932326" lon="11.247804"><ele>366.0</ele><time>2026-04-18T08:01:55.227Z</time></trkpt><trkpt lat="43.5932055" lon="11.2478876"><ele>366.0</ele><time>2026-04-18T08:01:56.226Z</time></trkpt><trkpt lat="43.5931539" lon="11.2479688"><ele>366.0</ele><time>2026-04-18T08:01:57.227Z</time></trkpt><trkpt lat="43.5930902" lon="11.2480374"><ele>366.0</ele><time>2026-04-18T08:01:58.226Z</time></trkpt><trkpt lat="43.5930106" lon="11.2481094"><ele>366.0</ele><time>2026-04-18T08:01:59.226Z</time></trkpt><trkpt lat="43.5929232" lon="11.2481862"><ele>366.0</ele><time>2026-04-18T08:02:00.226Z</time></trkpt><trkpt lat="43.5928349" lon="11.2482624"><ele>370.0</ele><time>2026-04-18T08:02:01.226Z</time></trkpt><trkpt lat="43.5927403" lon="11.2483386"><ele>374.0</ele><time>2026-04-18T08:02:02.226Z</time></trkpt><trkpt lat="43.5926331" lon="11.2484162"><ele>378.0</ele><time>2026-04-18T08:02:03.227Z</time></trkpt><trkpt lat="43.5925157" lon="11.2484886"><ele>382.0</ele><time>2026-04-18T08:02:04.227Z</time></trkpt><trkpt lat="43.5923935" lon="11.2485603"><ele>382.0</ele><time>2026-04-18T08:02:05.227Z</time></trkpt><trkpt lat="43.5922706" lon="11.248631"><ele>382.0</ele><time>2026-04-18T08:02:06.226Z</time></trkpt><trkpt lat="43.5921437" lon="11.2487022"><ele>382.0</ele><time>2026-04-18T08:02:07.227Z</time></trkpt><trkpt lat="43.5920138" lon="11.248764"><ele>382.0</ele><time>2026-04-18T08:02:08.226Z</time></trkpt><trkpt lat="43.5918798" lon="11.2488195"><ele>383.0</ele><time>2026-04-18T08:02:09.226Z</time></trkpt><trkpt lat="43.5917459" lon="11.248869"><ele>384.0</ele><time>2026-04-18T08:02:10.226Z</time></trkpt><trkpt lat="43.591612" lon="11.2489092"><ele>385.0</ele><time>2026-04-18T08:02:11.227Z</time></trkpt><trkpt lat="43.5914974" lon="11.2489393"><ele>386.0</ele><time>2026-04-18T08:02:12.226Z</time></trkpt><trkpt lat="43.5914034" lon="11.2489638"><ele>388.3333333333333</ele><time>2026-04-18T08:02:13.227Z</time></trkpt><trkpt lat="43.5913172" lon="11.2489904"><ele>390.66666666666663</ele><time>2026-04-18T08:02:14.227Z</time></trkpt><trkpt lat="43.5912443" lon="11.2490357"><ele>393.0</ele><time>2026-04-18T08:02:15.227Z</time></trkpt><trkpt lat="43.5911879" lon="11.2491049"><ele>395.33333333333337</ele><time>2026-04-18T08:02:16.226Z</time></trkpt><trkpt lat="43.5911597" lon="11.2491995"><ele>397.6666666666667</ele><time>2026-04-18T08:02:17.226Z</time></trkpt><trkpt lat="43.5911561" lon="11.2493095"><ele>400.0</ele><time>2026-04-18T08:02:18.226Z</time></trkpt><trkpt lat="43.5911783" lon="11.2494201"><ele>400.2</ele><time>2026-04-18T08:02:19.226Z</time></trkpt><trkpt lat="43.5912271" lon="11.2495288"><ele>400.4</ele><time>2026-04-18T08:02:20.227Z</time></trkpt><trkpt lat="43.5912815" lon="11.2496469"><ele>400.6</ele><time>2026-04-18T08:02:21.227Z</time></trkpt><trkpt lat="43.5913296" lon="11.24977"><ele>400.8</ele><time>2026-04-18T08:02:22.227Z</time></trkpt><trkpt lat="43.5913739" lon="11.2498933"><ele>401.0</ele><time>2026-04-18T08:02:23.226Z</time></trkpt><trkpt lat="43.5914224" lon="11.2500229"><ele>404.25</ele><time>2026-04-18T08:02:24.227Z</time></trkpt><trkpt lat="43.5914713" lon="11.250162"><ele>407.5</ele><time>2026-04-18T08:02:25.227Z</time></trkpt><trkpt lat="43.5915202" lon="11.2503066"><ele>410.75</ele><time>2026-04-18T08:02:26.226Z</time></trkpt><trkpt lat="43.5915646" lon="11.2504549"><ele>414.0</ele><time>2026-04-18T08:02:27.226Z</time></trkpt><trkpt lat="43.5916018" lon="11.2506066"><ele>416.2</ele><time>2026-04-18T08:02:28.227Z</time></trkpt><trkpt lat="43.5916285" lon="11.2507468"><ele>418.4</ele><time>2026-04-18T08:02:29.227Z</time></trkpt><trkpt lat="43.591635" lon="11.2508744"><ele>420.6</ele><time>2026-04-18T08:02:30.226Z</time></trkpt><trkpt lat="43.5916288" lon="11.2510141"><ele>422.8</ele><time>2026-04-18T08:02:31.226Z</time></trkpt><trkpt lat="43.5916183" lon="11.2511578"><ele>425.0</ele><time>2026-04-18T08:02:32.227Z</time></trkpt><trkpt lat="43.5916067" lon="11.2513132"><ele>426.0</ele><time>2026-04-18T08:02:33.227Z</time></trkpt><trkpt lat="43.5915908" lon="11.2514814"><ele>427.0</ele><time>2026-04-18T08:02:34.227Z</time></trkpt><trkpt lat="43.5915773" lon="11.2516449"><ele>428.0</ele><time>2026-04-18T08:02:35.226Z</time></trkpt><trkpt lat="43.5915766" lon="11.2517797"><ele>429.0</ele><time>2026-04-18T08:02:36.227Z</time></trkpt><trkpt lat="43.5915868" lon="11.251909"><ele>430.0</ele><time>2026-04-18T08:02:37.226Z</time></trkpt><trkpt lat="43.5916142" lon="11.2520452"><ele>430.0</ele><time>2026-04-18T08:02:38.227Z</time></trkpt><trkpt lat="43.59166" lon="11.2521806"><ele>430.0</ele><time>2026-04-18T08:02:39.227Z</time></trkpt><trkpt lat="43.591717" lon="11.2523163"><ele>430.0</ele><time>2026-04-18T08:02:40.226Z</time></trkpt><trkpt lat="43.5917803" lon="11.2524635"><ele>430.0</ele><time>2026-04-18T08:02:41.226Z</time></trkpt><trkpt lat="43.591834" lon="11.2526144"><ele>430.5</ele><time>2026-04-18T08:02:42.227Z</time></trkpt><trkpt lat="43.5918858" lon="11.2527694"><ele>431.0</ele><time>2026-04-18T08:02:43.226Z</time></trkpt><trkpt lat="43.5919391" lon="11.2529279"><ele>431.5</ele><time>2026-04-18T08:02:44.226Z</time></trkpt><trkpt lat="43.5919893" lon="11.253088"><ele>432.0</ele><time>2026-04-18T08:02:45.225Z</time></trkpt><trkpt lat="43.5920389" lon="11.2532469"><ele>437.5</ele><time>2026-04-18T08:02:46.227Z</time></trkpt><trkpt lat="43.5920918" lon="11.2533996"><ele>443.0</ele><time>2026-04-18T08:02:47.227Z</time></trkpt><trkpt lat="43.5921516" lon="11.2535508"><ele>448.5</ele><time>2026-04-18T08:02:48.227Z</time></trkpt><trkpt lat="43.5922047" lon="11.2537081"><ele>454.0</ele><time>2026-04-18T08:02:49.227Z</time></trkpt><trkpt lat="43.5922577" lon="11.2538734"><ele>453.4</ele><time>2026-04-18T08:02:50.227Z</time></trkpt><trkpt lat="43.5923088" lon="11.2540265"><ele>452.79999999999995</ele><time>2026-04-18T08:02:51.226Z</time></trkpt><trkpt lat="43.5923483" lon="11.2541543"><ele>452.20000000000005</ele><time>2026-04-18T08:02:52.226Z</time></trkpt><trkpt lat="43.5923827" lon="11.2542714"><ele>451.6</ele><time>2026-04-18T08:02:53.226Z</time></trkpt><trkpt lat="43.5924104" lon="11.2543704"><ele>451.0</ele><time>2026-04-18T08:02:54.227Z</time></trkpt><trkpt lat="43.5924315" lon="11.2544596"><ele>451.0</ele><time>2026-04-18T08:02:55.226Z</time></trkpt><trkpt lat="43.5924422" lon="11.2545545"><ele>451.0</ele><time>2026-04-18T08:02:56.226Z</time></trkpt><trkpt lat="43.5924422" lon="11.2546445"><ele>451.0</ele><time>2026-04-18T08:02:57.226Z</time></trkpt><trkpt lat="43.5923929" lon="11.2547962"><ele>451.0</ele><time>2026-04-18T08:02:59.224Z</time></trkpt><trkpt lat="43.5922749" lon="11.2548599"><ele>451.0</ele><time>2026-04-18T08:03:01.227Z</time></trkpt><trkpt lat="43.5921874" lon="11.2548401"><ele>450.5</ele><time>2026-04-18T08:03:02.226Z</time></trkpt><trkpt lat="43.5920866" lon="11.2547881"><ele>450.0</ele><time>2026-04-18T08:03:03.226Z</time></trkpt><trkpt lat="43.5919818" lon="11.2547163"><ele>449.5</ele><time>2026-04-18T08:03:04.227Z</time></trkpt><trkpt lat="43.5918668" lon="11.2546147"><ele>449.0</ele><time>2026-04-18T08:03:05.226Z</time></trkpt><trkpt lat="43.5917437" lon="11.2544753"><ele>446.66666666666663</ele><time>2026-04-18T08:03:06.227Z</time></trkpt><trkpt lat="43.5916176" lon="11.2543143"><ele>444.33333333333337</ele><time>2026-04-18T08:03:07.227Z</time></trkpt><trkpt lat="43.591499" lon="11.2541467"><ele>442.0</ele><time>2026-04-18T08:03:08.227Z</time></trkpt><trkpt lat="43.5913913" lon="11.253989"><ele>441.75</ele><time>2026-04-18T08:03:09.226Z</time></trkpt><trkpt lat="43.5912915" lon="11.2538509"><ele>441.5</ele><time>2026-04-18T08:03:10.227Z</time></trkpt><trkpt lat="43.5911986" lon="11.2537056"><ele>441.25</ele><time>2026-04-18T08:03:11.226Z</time></trkpt><trkpt lat="43.591105" lon="11.253557"><ele>441.0</ele><time>2026-04-18T08:03:12.227Z</time></trkpt><trkpt lat="43.5910021" lon="11.253409"><ele>441.0</ele><time>2026-04-18T08:03:13.226Z</time></trkpt><trkpt lat="43.5908946" lon="11.2532615"><ele>441.0</ele><time>2026-04-18T08:03:14.227Z</time></trkpt><trkpt lat="43.5907821" lon="11.2531183"><ele>441.0</ele><time>2026-04-18T08:03:15.227Z</time></trkpt><trkpt lat="43.5906684" lon="11.2529763"><ele>440.75</ele><time>2026-04-18T08:03:16.226Z</time></trkpt><trkpt lat="43.5905515" lon="11.2528295"><ele>440.5</ele><time>2026-04-18T08:03:17.227Z</time></trkpt><trkpt lat="43.5904404" lon="11.2526907"><ele>440.25</ele><time>2026-04-18T08:03:18.226Z</time></trkpt><trkpt lat="43.590339" lon="11.2525592"><ele>440.0</ele><time>2026-04-18T08:03:19.227Z</time></trkpt><trkpt lat="43.5902408" lon="11.2524205"><ele>434.66666666666663</ele><time>2026-04-18T08:03:20.226Z</time></trkpt><trkpt lat="43.5901463" lon="11.2522655"><ele>429.33333333333337</ele><time>2026-04-18T08:03:21.227Z</time></trkpt><trkpt lat="43.5900494" lon="11.2520981"><ele>424.0</ele><time>2026-04-18T08:03:22.226Z</time></trkpt><trkpt lat="43.589952" lon="11.2519348"><ele>424.0</ele><time>2026-04-18T08:03:23.227Z</time></trkpt><trkpt lat="43.5898587" lon="11.2517743"><ele>424.0</ele><time>2026-04-18T08:03:24.226Z</time></trkpt><trkpt lat="43.5897696" lon="11.251629"><ele>424.0</ele><time>2026-04-18T08:03:25.227Z</time></trkpt><trkpt lat="43.5896759" lon="11.2514987"><ele>424.0</ele><time>2026-04-18T08:03:26.225Z</time></trkpt><trkpt lat="43.5895754" lon="11.251373"><ele>423.0</ele><time>2026-04-18T08:03:27.227Z</time></trkpt><trkpt lat="43.5894624" lon="11.2512533"><ele>422.0</ele><time>2026-04-18T08:03:28.226Z</time></trkpt><trkpt lat="43.5893406" lon="11.2511508"><ele>421.0</ele><time>2026-04-18T08:03:29.227Z</time></trkpt><trkpt lat="43.5892115" lon="11.2510627"><ele>420.0</ele><time>2026-04-18T08:03:30.227Z</time></trkpt><trkpt lat="43.5890856" lon="11.2509917"><ele>420.0</ele><time>2026-04-18T08:03:31.227Z</time></trkpt><trkpt lat="43.5889685" lon="11.2509351"><ele>420.0</ele><time>2026-04-18T08:03:32.227Z</time></trkpt><trkpt lat="43.5888551" lon="11.2508889"><ele>420.0</ele><time>2026-04-18T08:03:33.227Z</time></trkpt><trkpt lat="43.588748" lon="11.250847"><ele>420.0</ele><time>2026-04-18T08:03:34.227Z</time></trkpt><trkpt lat="43.5886442" lon="11.2508138"><ele>419.4</ele><time>2026-04-18T08:03:35.227Z</time></trkpt><trkpt lat="43.5885436" lon="11.2507918"><ele>418.8</ele><time>2026-04-18T08:03:36.227Z</time></trkpt><trkpt lat="43.5884494" lon="11.2507869"><ele>418.20000000000005</ele><time>2026-04-18T08:03:37.226Z</time></trkpt><trkpt lat="43.5883648" lon="11.2508184"><ele>417.6</ele><time>2026-04-18T08:03:38.227Z</time></trkpt><trkpt lat="43.5882821" lon="11.2508818"><ele>417.0</ele><time>2026-04-18T08:03:39.227Z</time></trkpt><trkpt lat="43.5881974" lon="11.2509728"><ele>417.0</ele><time>2026-04-18T08:03:40.226Z</time></trkpt><trkpt lat="43.5881116" lon="11.2510986"><ele>417.0</ele><time>2026-04-18T08:03:41.227Z</time></trkpt><trkpt lat="43.5880275" lon="11.2512515"><ele>417.0</ele><time>2026-04-18T08:03:42.227Z</time></trkpt><trkpt lat="43.5879462" lon="11.2514229"><ele>417.0</ele><time>2026-04-18T08:03:43.227Z</time></trkpt><trkpt lat="43.5878727" lon="11.2516008"><ele>412.75</ele><time>2026-04-18T08:03:44.227Z</time></trkpt><trkpt lat="43.5878118" lon="11.2517755"><ele>408.5</ele><time>2026-04-18T08:03:45.227Z</time></trkpt><trkpt lat="43.5877594" lon="11.2519422"><ele>404.25</ele><time>2026-04-18T08:03:46.227Z</time></trkpt><trkpt lat="43.5877183" lon="11.252103"><ele>400.0</ele><time>2026-04-18T08:03:47.227Z</time></trkpt><trkpt lat="43.587681" lon="11.2522596"><ele>400.2</ele><time>2026-04-18T08:03:48.227Z</time></trkpt><trkpt lat="43.5876488" lon="11.2524094"><ele>400.4</ele><time>2026-04-18T08:03:49.226Z</time></trkpt><trkpt lat="43.58762" lon="11.2525582"><ele>400.6</ele><time>2026-04-18T08:03:50.225Z</time></trkpt><trkpt lat="43.5875875" lon="11.2527039"><ele>400.8</ele><time>2026-04-18T08:03:51.226Z</time></trkpt><trkpt lat="43.5875543" lon="11.2528442"><ele>401.0</ele><time>2026-04-18T08:03:52.226Z</time></trkpt><trkpt lat="43.5875162" lon="11.2529742"><ele>401.0</ele><time>2026-04-18T08:03:53.225Z</time></trkpt><trkpt lat="43.5874646" lon="11.2530881"><ele>401.0</ele><time>2026-04-18T08:03:54.227Z</time></trkpt><trkpt lat="43.5873986" lon="11.2531768"><ele>401.0</ele><time>2026-04-18T08:03:55.227Z</time></trkpt><trkpt lat="43.5873212" lon="11.2532361"><ele>401.0</ele><time>2026-04-18T08:03:56.226Z</time></trkpt><trkpt lat="43.5872309" lon="11.2532648"><ele>401.0</ele><time>2026-04-18T08:03:57.227Z</time></trkpt><trkpt lat="43.587129" lon="11.253269"><ele>401.75</ele><time>2026-04-18T08:03:58.227Z</time></trkpt><trkpt lat="43.5870226" lon="11.2532373"><ele>402.5</ele><time>2026-04-18T08:03:59.226Z</time></trkpt><trkpt lat="43.5869058" lon="11.2531912"><ele>403.25</ele><time>2026-04-18T08:04:00.227Z</time></trkpt><trkpt lat="43.5867861" lon="11.2531349"><ele>404.0</ele><time>2026-04-18T08:04:01.227Z</time></trkpt><trkpt lat="43.5866602" lon="11.2530756"><ele>401.6</ele><time>2026-04-18T08:04:02.226Z</time></trkpt><trkpt lat="43.5865441" lon="11.2530162"><ele>399.2</ele><time>2026-04-18T08:04:03.226Z</time></trkpt><trkpt lat="43.5864411" lon="11.2529588"><ele>396.8</ele><time>2026-04-18T08:04:04.226Z</time></trkpt><trkpt lat="43.5863505" lon="11.2528971"><ele>394.40000000000003</ele><time>2026-04-18T08:04:05.225Z</time></trkpt><trkpt lat="43.5862688" lon="11.252841"><ele>392.0</ele><time>2026-04-18T08:04:06.227Z</time></trkpt><trkpt lat="43.5861857" lon="11.2527999"><ele>391.6</ele><time>2026-04-18T08:04:07.228Z</time></trkpt><trkpt lat="43.5860977" lon="11.2527777"><ele>391.20000000000005</ele><time>2026-04-18T08:04:08.227Z</time></trkpt><trkpt lat="43.5859911" lon="11.2527805"><ele>390.8</ele><time>2026-04-18T08:04:09.227Z</time></trkpt><trkpt lat="43.5858723" lon="11.2527989"><ele>390.4</ele><time>2026-04-18T08:04:10.227Z</time></trkpt><trkpt lat="43.5857541" lon="11.2528118"><ele>390.0</ele><time>2026-04-18T08:04:11.226Z</time></trkpt><trkpt lat="43.5856394" lon="11.2528085"><ele>390.0</ele><time>2026-04-18T08:04:12.227Z</time></trkpt><trkpt lat="43.5855354" lon="11.2527756"><ele>390.0</ele><time>2026-04-18T08:04:13.227Z</time></trkpt><trkpt lat="43.5854374" lon="11.2527046"><ele>390.0</ele><time>2026-04-18T08:04:14.226Z</time></trkpt><trkpt lat="43.585353" lon="11.2525954"><ele>390.0</ele><time>2026-04-18T08:04:15.227Z</time></trkpt><trkpt lat="43.5852763" lon="11.2524566"><ele>388.5</ele><time>2026-04-18T08:04:16.225Z</time></trkpt><trkpt lat="43.58521" lon="11.2522997"><ele>387.0</ele><time>2026-04-18T08:04:17.227Z</time></trkpt><trkpt lat="43.5851575" lon="11.2521454"><ele>385.5</ele><time>2026-04-18T08:04:18.227Z</time></trkpt><trkpt lat="43.585111" lon="11.2520112"><ele>384.0</ele><time>2026-04-18T08:04:19.226Z</time></trkpt><trkpt lat="43.5850479" lon="11.2518967"><ele>384.0</ele><time>2026-04-18T08:04:20.227Z</time></trkpt><trkpt lat="43.5849568" lon="11.2518132"><ele>384.0</ele><time>2026-04-18T08:04:21.225Z</time></trkpt><trkpt lat="43.5848475" lon="11.2517571"><ele>384.0</ele><time>2026-04-18T08:04:22.227Z</time></trkpt><trkpt lat="43.5847199" lon="11.2517145"><ele>384.0</ele><time>2026-04-18T08:04:23.227Z</time></trkpt><trkpt lat="43.5845903" lon="11.2516735"><ele>382.75</ele><time>2026-04-18T08:04:24.227Z</time></trkpt><trkpt lat="43.5844578" lon="11.251607"><ele>381.5</ele><time>2026-04-18T08:04:25.226Z</time></trkpt><trkpt lat="43.5843247" lon="11.2515046"><ele>380.25</ele><time>2026-04-18T08:04:26.226Z</time></trkpt><trkpt lat="43.5841954" lon="11.251384"><ele>379.0</ele><time>2026-04-18T08:04:27.225Z</time></trkpt><trkpt lat="43.5840772" lon="11.2512574"><ele>379.0</ele><time>2026-04-18T08:04:28.227Z</time></trkpt><trkpt lat="43.5839717" lon="11.2511358"><ele>379.0</ele><time>2026-04-18T08:04:29.227Z</time></trkpt><trkpt lat="43.5838695" lon="11.2510244"><ele>379.0</ele><time>2026-04-18T08:04:30.226Z</time></trkpt><trkpt lat="43.5837649" lon="11.2509193"><ele>379.0</ele><time>2026-04-18T08:04:31.227Z</time></trkpt><trkpt lat="43.5836664" lon="11.2508177"><ele>379.79999999999995</ele><time>2026-04-18T08:04:32.226Z</time></trkpt><trkpt lat="43.5835724" lon="11.2507152"><ele>380.59999999999997</ele><time>2026-04-18T08:04:33.227Z</time></trkpt><trkpt lat="43.5834876" lon="11.2506142"><ele>381.4</ele><time>2026-04-18T08:04:34.227Z</time></trkpt><trkpt lat="43.5834082" lon="11.2505111"><ele>382.2</ele><time>2026-04-18T08:04:35.227Z</time></trkpt><trkpt lat="43.5833393" lon="11.250401"><ele>383.0</ele><time>2026-04-18T08:04:36.227Z</time></trkpt><trkpt lat="43.583271" lon="11.2502908"><ele>381.0</ele><time>2026-04-18T08:04:37.226Z</time></trkpt><trkpt lat="43.5832079" lon="11.2501778"><ele>379.0</ele><time>2026-04-18T08:04:38.227Z</time></trkpt><trkpt lat="43.5831498" lon="11.2500657"><ele>377.0</ele><time>2026-04-18T08:04:39.225Z</time></trkpt><trkpt lat="43.5830909" lon="11.2499606"><ele>375.0</ele><time>2026-04-18T08:04:40.226Z</time></trkpt><trkpt lat="43.5830237" lon="11.2498699"><ele>373.0</ele><time>2026-04-18T08:04:41.226Z</time></trkpt><trkpt lat="43.5829479" lon="11.2498046"><ele>372.3333333333333</ele><time>2026-04-18T08:04:42.225Z</time></trkpt><trkpt lat="43.5828671" lon="11.2497611"><ele>371.66666666666663</ele><time>2026-04-18T08:04:43.227Z</time></trkpt><trkpt lat="43.5827952" lon="11.249736"><ele>371.0</ele><time>2026-04-18T08:04:44.227Z</time></trkpt><trkpt lat="43.5827095" lon="11.249714"><ele>370.3333333333333</ele><time>2026-04-18T08:04:46.227Z</time></trkpt><trkpt lat="43.5826363" lon="11.2497517"><ele>369.6666666666667</ele><time>2026-04-18T08:04:49.226Z</time></trkpt><trkpt lat="43.5825638" lon="11.2497811"><ele>369.0</ele><time>2026-04-18T08:04:51.227Z</time></trkpt><trkpt lat="43.5824454" lon="11.2498339"><ele>369.0</ele><time>2026-04-18T08:04:53.226Z</time></trkpt><trkpt lat="43.582383" lon="11.2498685"><ele>369.0</ele><time>2026-04-18T08:04:54.226Z</time></trkpt><trkpt lat="43.5823208" lon="11.2498981"><ele>369.0</ele><time>2026-04-18T08:04:55.227Z</time></trkpt><trkpt lat="43.582259" lon="11.2499237"><ele>369.0</ele><time>2026-04-18T08:04:56.227Z</time></trkpt><trkpt lat="43.5821494" lon="11.2499661"><ele>369.0</ele><time>2026-04-18T08:04:58.226Z</time></trkpt><trkpt lat="43.5820779" lon="11.2499704"><ele>369.0</ele><time>2026-04-18T08:05:01.226Z</time></trkpt><trkpt lat="43.5821679" lon="11.2499965"><ele>369.0</ele><time>2026-04-18T08:05:11.227Z</time></trkpt><trkpt lat="43.5822672" lon="11.2499363"><ele>369.0</ele><time>2026-04-18T08:05:13.226Z</time></trkpt><trkpt lat="43.5823814" lon="11.2498758"><ele>369.0</ele><time>2026-04-18T08:05:15.226Z</time></trkpt><trkpt lat="43.58244" lon="11.2498427"><ele>369.0</ele><time>2026-04-18T08:05:16.227Z</time></trkpt><trkpt lat="43.5825398" lon="11.2497847"><ele>369.0</ele><time>2026-04-18T08:05:18.226Z</time></trkpt><trkpt lat="43.5826005" lon="11.2497404"><ele>369.0</ele><time>2026-04-18T08:05:20.227Z</time></trkpt><trkpt lat="43.5825082" lon="11.2498131"><ele>369.0</ele><time>2026-04-18T08:06:07.227Z</time></trkpt><trkpt lat="43.5823828" lon="11.2498708"><ele>369.0</ele><time>2026-04-18T08:06:09.227Z</time></trkpt><trkpt lat="43.5823044" lon="11.249905"><ele>369.0</ele><time>2026-04-18T08:06:10.227Z</time></trkpt><trkpt lat="43.5822148" lon="11.2499516"><ele>369.0</ele><time>2026-04-18T08:06:11.227Z</time></trkpt><trkpt lat="43.5821195" lon="11.249989"><ele>369.0</ele><time>2026-04-18T08:06:12.226Z</time></trkpt><trkpt lat="43.5820231" lon="11.2500291"><ele>369.0</ele><time>2026-04-18T08:06:13.225Z</time></trkpt><trkpt lat="43.5819279" lon="11.2500745"><ele>369.0</ele><time>2026-04-18T08:06:14.227Z</time></trkpt><trkpt lat="43.5818364" lon="11.2501124"><ele>369.0</ele><time>2026-04-18T08:06:15.227Z</time></trkpt><trkpt lat="43.5817471" lon="11.2501528"><ele>369.0</ele><time>2026-04-18T08:06:16.226Z</time></trkpt><trkpt lat="43.5816618" lon="11.2501818"><ele>366.6666666666667</ele><time>2026-04-18T08:06:17.226Z</time></trkpt><trkpt lat="43.5815857" lon="11.2502215"><ele>364.3333333333333</ele><time>2026-04-18T08:06:18.227Z</time></trkpt><trkpt lat="43.5815198" lon="11.2502578"><ele>362.0</ele><time>2026-04-18T08:06:19.226Z</time></trkpt><trkpt lat="43.5814605" lon="11.250294"><ele>359.66666666666663</ele><time>2026-04-18T08:06:20.225Z</time></trkpt><trkpt lat="43.5813728" lon="11.2502207"><ele>357.3333333333333</ele><time>2026-04-18T08:06:22.226Z</time></trkpt><trkpt lat="43.5813185" lon="11.2501436"><ele>355.0</ele><time>2026-04-18T08:06:23.226Z</time></trkpt><trkpt lat="43.5812374" lon="11.2500621"><ele>353.4</ele><time>2026-04-18T08:06:24.225Z</time></trkpt><trkpt lat="43.581143" lon="11.2499721"><ele>351.8</ele><time>2026-04-18T08:06:25.226Z</time></trkpt><trkpt lat="43.5810533" lon="11.2498785"><ele>350.20000000000005</ele><time>2026-04-18T08:06:26.226Z</time></trkpt><trkpt lat="43.5809574" lon="11.2497925"><ele>348.6</ele><time>2026-04-18T08:06:27.226Z</time></trkpt><trkpt lat="43.5808715" lon="11.2497066"><ele>347.0</ele><time>2026-04-18T08:06:28.227Z</time></trkpt><trkpt lat="43.5807901" lon="11.2496284"><ele>346.20000000000005</ele><time>2026-04-18T08:06:29.226Z</time></trkpt><trkpt lat="43.5807089" lon="11.2495507"><ele>345.4</ele><time>2026-04-18T08:06:30.226Z</time></trkpt><trkpt lat="43.5806196" lon="11.2494714"><ele>344.6</ele><time>2026-04-18T08:06:31.227Z</time></trkpt><trkpt lat="43.5805192" lon="11.2494088"><ele>343.79999999999995</ele><time>2026-04-18T08:06:32.225Z</time></trkpt><trkpt lat="43.5804087" lon="11.2493439"><ele>343.0</ele><time>2026-04-18T08:06:33.226Z</time></trkpt><trkpt lat="43.5802935" lon="11.2492837"><ele>343.0</ele><time>2026-04-18T08:06:34.226Z</time></trkpt><trkpt lat="43.5801715" lon="11.2492159"><ele>343.0</ele><time>2026-04-18T08:06:35.227Z</time></trkpt><trkpt lat="43.580047" lon="11.2491552"><ele>343.0</ele><time>2026-04-18T08:06:36.227Z</time></trkpt><trkpt lat="43.5799225" lon="11.2490902"><ele>343.0</ele><time>2026-04-18T08:06:37.226Z</time></trkpt><trkpt lat="43.5798018" lon="11.2490288"><ele>343.0</ele><time>2026-04-18T08:06:38.227Z</time></trkpt><trkpt lat="43.5796803" lon="11.2489723"><ele>343.0</ele><time>2026-04-18T08:06:39.226Z</time></trkpt><trkpt lat="43.5795581" lon="11.2489119"><ele>343.0</ele><time>2026-04-18T08:06:40.227Z</time></trkpt><trkpt lat="43.579441" lon="11.2488558"><ele>343.0</ele><time>2026-04-18T08:06:41.226Z</time></trkpt><trkpt lat="43.5793312" lon="11.2487993"><ele>342.79999999999995</ele><time>2026-04-18T08:06:42.226Z</time></trkpt><trkpt lat="43.5792297" lon="11.2487474"><ele>342.6</ele><time>2026-04-18T08:06:43.226Z</time></trkpt><trkpt lat="43.5791366" lon="11.2487011"><ele>342.4</ele><time>2026-04-18T08:06:44.226Z</time></trkpt><trkpt lat="43.5790504" lon="11.248657"><ele>342.20000000000005</ele><time>2026-04-18T08:06:45.227Z</time></trkpt><trkpt lat="43.5789644" lon="11.2486041"><ele>342.0</ele><time>2026-04-18T08:06:46.225Z</time></trkpt><trkpt lat="43.578885" lon="11.2485356"><ele>342.0</ele><time>2026-04-18T08:06:47.227Z</time></trkpt><trkpt lat="43.5788171" lon="11.2484693"><ele>342.0</ele><time>2026-04-18T08:06:48.227Z</time></trkpt><trkpt lat="43.5787556" lon="11.248396"><ele>342.0</ele><time>2026-04-18T08:06:49.226Z</time></trkpt><trkpt lat="43.5786985" lon="11.2483187"><ele>342.0</ele><time>2026-04-18T08:06:50.226Z</time></trkpt><trkpt lat="43.5786353" lon="11.2482337"><ele>342.0</ele><time>2026-04-18T08:06:51.226Z</time></trkpt><trkpt lat="43.5785672" lon="11.2481393"><ele>342.0</ele><time>2026-04-18T08:06:52.227Z</time></trkpt><trkpt lat="43.5784964" lon="11.248045"><ele>341.6666666666667</ele><time>2026-04-18T08:06:53.227Z</time></trkpt><trkpt lat="43.5784263" lon="11.2479515"><ele>341.3333333333333</ele><time>2026-04-18T08:06:54.226Z</time></trkpt><trkpt lat="43.5783594" lon="11.2478652"><ele>341.0</ele><time>2026-04-18T08:06:55.226Z</time></trkpt><trkpt lat="43.5782916" lon="11.2477772"><ele>340.66666666666663</ele><time>2026-04-18T08:06:56.226Z</time></trkpt><trkpt lat="43.5782314" lon="11.2476994"><ele>340.3333333333333</ele><time>2026-04-18T08:06:57.227Z</time></trkpt><trkpt lat="43.5781815" lon="11.2476338"><ele>340.0</ele><time>2026-04-18T08:06:58.227Z</time></trkpt><trkpt lat="43.5780907" lon="11.2475956"><ele>340.0</ele><time>2026-04-18T08:07:00.227Z</time></trkpt><trkpt lat="43.5780328" lon="11.2476985"><ele>340.0</ele><time>2026-04-18T08:07:02.227Z</time></trkpt><trkpt lat="43.5780144" lon="11.2477912"><ele>340.0</ele><time>2026-04-18T08:07:03.227Z</time></trkpt><trkpt lat="43.5780103" lon="11.2479044"><ele>340.0</ele><time>2026-04-18T08:07:04.227Z</time></trkpt><trkpt lat="43.5780426" lon="11.2480359"><ele>340.0</ele><time>2026-04-18T08:07:05.227Z</time></trkpt><trkpt lat="43.5780716" lon="11.2481856"><ele>340.0</ele><time>2026-04-18T08:07:06.226Z</time></trkpt><trkpt lat="43.5781128" lon="11.2483563"><ele>340.0</ele><time>2026-04-18T08:07:07.227Z</time></trkpt><trkpt lat="43.578159" lon="11.2485201"><ele>340.0</ele><time>2026-04-18T08:07:08.227Z</time></trkpt><trkpt lat="43.5782052" lon="11.2486813"><ele>340.0</ele><time>2026-04-18T08:07:09.227Z</time></trkpt><trkpt lat="43.5782416" lon="11.2488343"><ele>338.3333333333333</ele><time>2026-04-18T08:07:10.227Z</time></trkpt><trkpt lat="43.5782788" lon="11.2489643"><ele>336.66666666666663</ele><time>2026-04-18T08:07:11.227Z</time></trkpt><trkpt lat="43.5783052" lon="11.2490773"><ele>335.0</ele><time>2026-04-18T08:07:12.227Z</time></trkpt><trkpt lat="43.5783114" lon="11.24919"><ele>333.3333333333333</ele><time>2026-04-18T08:07:13.226Z</time></trkpt><trkpt lat="43.5782852" lon="11.2492935"><ele>331.6666666666667</ele><time>2026-04-18T08:07:14.227Z</time></trkpt><trkpt lat="43.5782404" lon="11.2493706"><ele>330.0</ele><time>2026-04-18T08:07:15.226Z</time></trkpt><trkpt lat="43.5781718" lon="11.2494075"><ele>330.0</ele><time>2026-04-18T08:07:16.225Z</time></trkpt><trkpt lat="43.5781055" lon="11.2494131"><ele>330.0</ele><time>2026-04-18T08:07:17.227Z</time></trkpt><trkpt lat="43.5780337" lon="11.2493647"><ele>330.0</ele><time>2026-04-18T08:07:18.227Z</time></trkpt><trkpt lat="43.5779683" lon="11.2492931"><ele>330.0</ele><time>2026-04-18T08:07:19.226Z</time></trkpt><trkpt lat="43.5779159" lon="11.2491896"><ele>330.0</ele><time>2026-04-18T08:07:20.226Z</time></trkpt><trkpt lat="43.5778572" lon="11.2490951"><ele>330.0</ele><time>2026-04-18T08:07:21.225Z</time></trkpt><trkpt lat="43.5777849" lon="11.2490374"><ele>328.5</ele><time>2026-04-18T08:07:22.226Z</time></trkpt><trkpt lat="43.5777061" lon="11.2490386"><ele>327.0</ele><time>2026-04-18T08:07:23.227Z</time></trkpt><trkpt lat="43.5776455" lon="11.2490845"><ele>325.5</ele><time>2026-04-18T08:07:24.227Z</time></trkpt><trkpt lat="43.5776018" lon="11.2491806"><ele>324.0</ele><time>2026-04-18T08:07:25.226Z</time></trkpt><trkpt lat="43.5775716" lon="11.249311"><ele>322.5</ele><time>2026-04-18T08:07:26.227Z</time></trkpt><trkpt lat="43.577553" lon="11.2494683"><ele>321.0</ele><time>2026-04-18T08:07:27.226Z</time></trkpt><trkpt lat="43.5775363" lon="11.2496195"><ele>321.0</ele><time>2026-04-18T08:07:28.227Z</time></trkpt><trkpt lat="43.5775246" lon="11.2497619"><ele>321.0</ele><time>2026-04-18T08:07:29.227Z</time></trkpt><trkpt lat="43.5775183" lon="11.2499066"><ele>321.0</ele><time>2026-04-18T08:07:30.226Z</time></trkpt><trkpt lat="43.5775418" lon="11.2500608"><ele>321.0</ele><time>2026-04-18T08:07:31.227Z</time></trkpt><trkpt lat="43.5775769" lon="11.2502124"><ele>321.0</ele><time>2026-04-18T08:07:32.226Z</time></trkpt><trkpt lat="43.5776175" lon="11.2503618"><ele>319.0</ele><time>2026-04-18T08:07:33.226Z</time></trkpt><trkpt lat="43.5776577" lon="11.2505002"><ele>317.0</ele><time>2026-04-18T08:07:34.227Z</time></trkpt><trkpt lat="43.5777173" lon="11.2506176"><ele>315.0</ele><time>2026-04-18T08:07:35.226Z</time></trkpt><trkpt lat="43.5777944" lon="11.2507171"><ele>313.0</ele><time>2026-04-18T08:07:36.226Z</time></trkpt><trkpt lat="43.5778693" lon="11.2508066"><ele>311.0</ele><time>2026-04-18T08:07:37.226Z</time></trkpt><trkpt lat="43.5779564" lon="11.2509062"><ele>310.0</ele><time>2026-04-18T08:07:38.226Z</time></trkpt><trkpt lat="43.5780516" lon="11.2510017"><ele>309.0</ele><time>2026-04-18T08:07:39.227Z</time></trkpt><trkpt lat="43.57814" lon="11.2511028"><ele>308.0</ele><time>2026-04-18T08:07:40.226Z</time></trkpt><trkpt lat="43.5782237" lon="11.251199"><ele>307.0</ele><time>2026-04-18T08:07:41.226Z</time></trkpt><trkpt lat="43.5783031" lon="11.2512947"><ele>306.0</ele><time>2026-04-18T08:07:42.226Z</time></trkpt><trkpt lat="43.5783753" lon="11.2513853"><ele>305.0</ele><time>2026-04-18T08:07:43.226Z</time></trkpt><trkpt lat="43.5784323" lon="11.2514892"><ele>304.0</ele><time>2026-04-18T08:07:44.225Z</time></trkpt><trkpt lat="43.5784632" lon="11.2515948"><ele>303.0</ele><time>2026-04-18T08:07:45.227Z</time></trkpt><trkpt lat="43.5784773" lon="11.2517166"><ele>302.0</ele><time>2026-04-18T08:07:46.226Z</time></trkpt><trkpt lat="43.5784734" lon="11.2518546"><ele>301.0</ele><time>2026-04-18T08:07:47.227Z</time></trkpt><trkpt lat="43.5784458" lon="11.2519962"><ele>301.0</ele><time>2026-04-18T08:07:48.226Z</time></trkpt><trkpt lat="43.5783943" lon="11.2521202"><ele>301.0</ele><time>2026-04-18T08:07:49.227Z</time></trkpt><trkpt lat="43.5783297" lon="11.2522092"><ele>301.0</ele><time>2026-04-18T08:07:50.227Z</time></trkpt><trkpt lat="43.5782385" lon="11.2522883"><ele>301.0</ele><time>2026-04-18T08:07:51.227Z</time></trkpt><trkpt lat="43.5781303" lon="11.2523763"><ele>301.0</ele><time>2026-04-18T08:07:52.226Z</time></trkpt><trkpt lat="43.5780237" lon="11.252471"><ele>301.5</ele><time>2026-04-18T08:07:53.225Z</time></trkpt><trkpt lat="43.5779283" lon="11.2525689"><ele>302.0</ele><time>2026-04-18T08:07:54.225Z</time></trkpt><trkpt lat="43.5778326" lon="11.2526712"><ele>302.5</ele><time>2026-04-18T08:07:55.224Z</time></trkpt><trkpt lat="43.5777378" lon="11.2527631"><ele>303.0</ele><time>2026-04-18T08:07:56.227Z</time></trkpt><trkpt lat="43.5776402" lon="11.2528238"><ele>300.6</ele><time>2026-04-18T08:07:57.227Z</time></trkpt><trkpt lat="43.5775437" lon="11.2528458"><ele>298.20000000000005</ele><time>2026-04-18T08:07:58.227Z</time></trkpt><trkpt lat="43.5774543" lon="11.2528271"><ele>295.8</ele><time>2026-04-18T08:07:59.226Z</time></trkpt><trkpt lat="43.5773635" lon="11.2527891"><ele>293.40000000000003</ele><time>2026-04-18T08:08:00.225Z</time></trkpt><trkpt lat="43.5772671" lon="11.2527524"><ele>291.0</ele><time>2026-04-18T08:08:01.227Z</time></trkpt><trkpt lat="43.5771733" lon="11.2527231"><ele>291.0</ele><time>2026-04-18T08:08:02.226Z</time></trkpt><trkpt lat="43.5770777" lon="11.252694"><ele>291.0</ele><time>2026-04-18T08:08:03.226Z</time></trkpt><trkpt lat="43.5769881" lon="11.2526586"><ele>291.0</ele><time>2026-04-18T08:08:04.226Z</time></trkpt><trkpt lat="43.5769081" lon="11.2526314"><ele>291.0</ele><time>2026-04-18T08:08:05.226Z</time></trkpt><trkpt lat="43.5768385" lon="11.2526125"><ele>291.0</ele><time>2026-04-18T08:08:06.228Z</time></trkpt><trkpt lat="43.5767753" lon="11.2525974"><ele>291.0</ele><time>2026-04-18T08:08:07.226Z</time></trkpt><trkpt lat="43.5766654" lon="11.2525635"><ele>290.0</ele><time>2026-04-18T08:08:09.225Z</time></trkpt><trkpt lat="43.5765612" lon="11.2525389"><ele>289.0</ele><time>2026-04-18T08:08:11.225Z</time></trkpt><trkpt lat="43.5764397" lon="11.2525676"><ele>288.0</ele><time>2026-04-18T08:08:13.228Z</time></trkpt><trkpt lat="43.5763777" lon="11.2526152"><ele>287.0</ele><time>2026-04-18T08:08:14.227Z</time></trkpt><trkpt lat="43.5763167" lon="11.2526791"><ele>286.0</ele><time>2026-04-18T08:08:15.225Z</time></trkpt><trkpt lat="43.576257" lon="11.2527538"><ele>286.0</ele><time>2026-04-18T08:08:16.226Z</time></trkpt><trkpt lat="43.5762043" lon="11.2528362"><ele>286.0</ele><time>2026-04-18T08:08:17.227Z</time></trkpt><trkpt lat="43.5761584" lon="11.2529314"><ele>286.0</ele><time>2026-04-18T08:08:18.225Z</time></trkpt><trkpt lat="43.5761194" lon="11.2530294"><ele>286.0</ele><time>2026-04-18T08:08:19.227Z</time></trkpt><trkpt lat="43.5760842" lon="11.2531243"><ele>286.0</ele><time>2026-04-18T08:08:20.226Z</time></trkpt><trkpt lat="43.5760477" lon="11.2532166"><ele>286.0</ele><time>2026-04-18T08:08:21.226Z</time></trkpt><trkpt lat="43.5760165" lon="11.2533006"><ele>286.16666666666663</ele><time>2026-04-18T08:08:22.226Z</time></trkpt><trkpt lat="43.5759859" lon="11.2533889"><ele>286.3333333333333</ele><time>2026-04-18T08:08:23.226Z</time></trkpt><trkpt lat="43.5759541" lon="11.2534878"><ele>286.5</ele><time>2026-04-18T08:08:24.226Z</time></trkpt><trkpt lat="43.5759249" lon="11.2535946"><ele>286.6666666666667</ele><time>2026-04-18T08:08:25.226Z</time></trkpt><trkpt lat="43.5758942" lon="11.2537104"><ele>286.83333333333337</ele><time>2026-04-18T08:08:26.227Z</time></trkpt><trkpt lat="43.5758641" lon="11.2538304"><ele>287.0</ele><time>2026-04-18T08:08:27.226Z</time></trkpt><trkpt lat="43.5758411" lon="11.2539578"><ele>287.0</ele><time>2026-04-18T08:08:28.225Z</time></trkpt><trkpt lat="43.5758191" lon="11.2540902"><ele>287.0</ele><time>2026-04-18T08:08:29.226Z</time></trkpt><trkpt lat="43.5757949" lon="11.2542145"><ele>287.0</ele><time>2026-04-18T08:08:30.227Z</time></trkpt><trkpt lat="43.5757649" lon="11.2543397"><ele>287.0</ele><time>2026-04-18T08:08:31.227Z</time></trkpt><trkpt lat="43.5757173" lon="11.2544638"><ele>287.0</ele><time>2026-04-18T08:08:32.226Z</time></trkpt><trkpt lat="43.5756667" lon="11.2545858"><ele>287.0</ele><time>2026-04-18T08:08:33.227Z</time></trkpt><trkpt lat="43.5756152" lon="11.2546917"><ele>287.0</ele><time>2026-04-18T08:08:34.227Z</time></trkpt><trkpt lat="43.5755603" lon="11.2547954"><ele>287.0</ele><time>2026-04-18T08:08:36.226Z</time></trkpt><trkpt lat="43.5755018" lon="11.2547318"><ele>287.0</ele><time>2026-04-18T08:08:44.226Z</time></trkpt><trkpt lat="43.5754754" lon="11.2546186"><ele>287.0</ele><time>2026-04-18T08:08:47.227Z</time></trkpt><trkpt lat="43.5754878" lon="11.2544798"><ele>287.0</ele><time>2026-04-18T08:08:49.226Z</time></trkpt><trkpt lat="43.5755061" lon="11.2543553"><ele>287.0</ele><time>2026-04-18T08:08:51.225Z</time></trkpt><trkpt lat="43.5755126" lon="11.2542039"><ele>287.0</ele><time>2026-04-18T08:08:53.226Z</time></trkpt><trkpt lat="43.5755144" lon="11.2540543"><ele>287.0</ele><time>2026-04-18T08:08:55.225Z</time></trkpt><trkpt lat="43.5755313" lon="11.2539495"><ele>287.0</ele><time>2026-04-18T08:08:57.226Z</time></trkpt><trkpt lat="43.5755127" lon="11.2538623"><ele>287.0</ele><time>2026-04-18T08:08:59.227Z</time></trkpt><trkpt lat="43.575445" lon="11.2537782"><ele>286.0</ele><time>2026-04-18T08:09:01.226Z</time></trkpt><trkpt lat="43.5753607" lon="11.2536987"><ele>285.0</ele><time>2026-04-18T08:09:03.227Z</time></trkpt><trkpt lat="43.575267" lon="11.2535847"><ele>284.0</ele><time>2026-04-18T08:09:05.226Z</time></trkpt><trkpt lat="43.575154" lon="11.2535056"><ele>283.0</ele><time>2026-04-18T08:09:07.227Z</time></trkpt><trkpt lat="43.575053" lon="11.2534794"><ele>283.8571428571429</ele><time>2026-04-18T08:09:09.226Z</time></trkpt><trkpt lat="43.5749932" lon="11.2534238"><ele>284.7142857142857</ele><time>2026-04-18T08:09:11.226Z</time></trkpt><trkpt lat="43.5749386" lon="11.2533787"><ele>285.57142857142856</ele><time>2026-04-18T08:09:12.225Z</time></trkpt><trkpt lat="43.5749005" lon="11.2533051"><ele>286.42857142857144</ele><time>2026-04-18T08:09:13.227Z</time></trkpt><trkpt lat="43.5748678" lon="11.2532268"><ele>287.2857142857143</ele><time>2026-04-18T08:09:14.226Z</time></trkpt><trkpt lat="43.574828" lon="11.2531458"><ele>288.14285714285717</ele><time>2026-04-18T08:09:15.225Z</time></trkpt><trkpt lat="43.5747888" lon="11.2530579"><ele>289.0</ele><time>2026-04-18T08:09:16.226Z</time></trkpt><trkpt lat="43.5747478" lon="11.2529714"><ele>289.0</ele><time>2026-04-18T08:09:17.225Z</time></trkpt><trkpt lat="43.5747237" lon="11.2528438"><ele>289.0</ele><time>2026-04-18T08:09:19.227Z</time></trkpt><trkpt lat="43.5746934" lon="11.2527027"><ele>289.0</ele><time>2026-04-18T08:09:22.227Z</time></trkpt><trkpt lat="43.5746295" lon="11.2525681"><ele>289.0</ele><time>2026-04-18T08:09:24.226Z</time></trkpt><trkpt lat="43.5745478" lon="11.2524578"><ele>289.0</ele><time>2026-04-18T08:09:26.227Z</time></trkpt><trkpt lat="43.5744604" lon="11.2523956"><ele>292.3333333333333</ele><time>2026-04-18T08:09:28.227Z</time></trkpt><trkpt lat="43.5743815" lon="11.2523778"><ele>295.66666666666663</ele><time>2026-04-18T08:09:30.225Z</time></trkpt><trkpt lat="43.5743009" lon="11.252378"><ele>299.0</ele><time>2026-04-18T08:09:32.227Z</time></trkpt><trkpt lat="43.5742264" lon="11.252364"><ele>302.3333333333333</ele><time>2026-04-18T08:09:34.225Z</time></trkpt><trkpt lat="43.5741679" lon="11.2523962"><ele>305.6666666666667</ele><time>2026-04-18T08:09:40.225Z</time></trkpt><trkpt lat="43.5740894" lon="11.2523957"><ele>309.0</ele><time>2026-04-18T08:09:46.226Z</time></trkpt><trkpt lat="43.5740106" lon="11.2524017"><ele>309.0</ele><time>2026-04-18T08:09:49.227Z</time></trkpt><trkpt lat="43.5739415" lon="11.252425"><ele>309.0</ele><time>2026-04-18T08:09:52.227Z</time></trkpt><trkpt lat="43.5738701" lon="11.2524604"><ele>309.0</ele><time>2026-04-18T08:10:00.226Z</time></trkpt><trkpt lat="43.5738074" lon="11.2525084"><ele>309.0</ele><time>2026-04-18T08:10:03.227Z</time></trkpt><trkpt lat="43.5737302" lon="11.2525556"><ele>309.0</ele><time>2026-04-18T08:10:07.226Z</time></trkpt><trkpt lat="43.5736601" lon="11.2525831"><ele>309.0</ele><time>2026-04-18T08:10:10.227Z</time></trkpt><trkpt lat="43.5735779" lon="11.2526063"><ele>311.5</ele><time>2026-04-18T08:10:14.226Z</time></trkpt><trkpt lat="43.5734996" lon="11.2525741"><ele>314.0</ele><time>2026-04-18T08:10:17.225Z</time></trkpt><trkpt lat="43.5734303" lon="11.2525503"><ele>316.5</ele><time>2026-04-18T08:10:20.226Z</time></trkpt><trkpt lat="43.573366" lon="11.252538"><ele>319.0</ele><time>2026-04-18T08:10:23.225Z</time></trkpt><trkpt lat="43.5733085" lon="11.252474"><ele>321.5</ele><time>2026-04-18T08:10:26.227Z</time></trkpt><trkpt lat="43.5732569" lon="11.2523877"><ele>324.0</ele><time>2026-04-18T08:10:29.225Z</time></trkpt><trkpt lat="43.5732093" lon="11.2523008"><ele>323.6</ele><time>2026-04-18T08:10:33.226Z</time></trkpt><trkpt lat="43.5731679" lon="11.2521792"><ele>323.2</ele><time>2026-04-18T08:10:36.226Z</time></trkpt><trkpt lat="43.5731111" lon="11.2520984"><ele>322.8</ele><time>2026-04-18T08:10:38.225Z</time></trkpt><trkpt lat="43.5730308" lon="11.2520026"><ele>322.40000000000003</ele><time>2026-04-18T08:10:40.226Z</time></trkpt><trkpt lat="43.5729288" lon="11.2519259"><ele>322.0</ele><time>2026-04-18T08:10:42.227Z</time></trkpt><trkpt lat="43.5728318" lon="11.2518745"><ele>324.8333333333333</ele><time>2026-04-18T08:10:44.226Z</time></trkpt><trkpt lat="43.5727682" lon="11.2518088"><ele>327.66666666666663</ele><time>2026-04-18T08:10:46.225Z</time></trkpt><trkpt lat="43.5727182" lon="11.2517436"><ele>330.5</ele><time>2026-04-18T08:10:48.227Z</time></trkpt><trkpt lat="43.5726576" lon="11.2517006"><ele>333.3333333333333</ele><time>2026-04-18T08:10:51.226Z</time></trkpt><trkpt lat="43.5727317" lon="11.2517734"><ele>336.1666666666667</ele><time>2026-04-18T08:11:08.226Z</time></trkpt><trkpt lat="43.5727889" lon="11.2518523"><ele>339.0</ele><time>2026-04-18T08:11:11.226Z</time></trkpt><trkpt lat="43.5727415" lon="11.2520055"><ele>339.0</ele><time>2026-04-18T08:11:14.225Z</time></trkpt><trkpt lat="43.5726914" lon="11.2521347"><ele>339.0</ele><time>2026-04-18T08:11:16.226Z</time></trkpt><trkpt lat="43.5726327" lon="11.2522507"><ele>339.0</ele><time>2026-04-18T08:11:18.226Z</time></trkpt><trkpt lat="43.5726111" lon="11.2523825"><ele>339.0</ele><time>2026-04-18T08:11:20.226Z</time></trkpt><trkpt lat="43.5725462" lon="11.252485"><ele>339.0</ele><time>2026-04-18T08:11:22.225Z</time></trkpt><trkpt lat="43.5725091" lon="11.2525827"><ele>339.79999999999995</ele><time>2026-04-18T08:11:24.227Z</time></trkpt><trkpt lat="43.5725347" lon="11.2526883"><ele>340.59999999999997</ele><time>2026-04-18T08:11:26.225Z</time></trkpt><trkpt lat="43.5725502" lon="11.252783"><ele>341.4</ele><time>2026-04-18T08:11:28.226Z</time></trkpt><trkpt lat="43.5725892" lon="11.2529105"><ele>342.2</ele><time>2026-04-18T08:11:30.227Z</time></trkpt><trkpt lat="43.5726381" lon="11.2530587"><ele>343.0</ele><time>2026-04-18T08:11:32.226Z</time></trkpt><trkpt lat="43.5726836" lon="11.2532306"><ele>344.59999999999997</ele><time>2026-04-18T08:11:34.226Z</time></trkpt><trkpt lat="43.5727059" lon="11.2533886"><ele>346.2</ele><time>2026-04-18T08:11:36.227Z</time></trkpt><trkpt lat="43.572723" lon="11.2535659"><ele>347.8</ele><time>2026-04-18T08:11:38.226Z</time></trkpt><trkpt lat="43.5727038" lon="11.2536751"><ele>349.4</ele><time>2026-04-18T08:11:39.226Z</time></trkpt><trkpt lat="43.5726731" lon="11.2537716"><ele>351.0</ele><time>2026-04-18T08:11:40.225Z</time></trkpt><trkpt lat="43.5726248" lon="11.2538777"><ele>351.0</ele><time>2026-04-18T08:11:42.226Z</time></trkpt><trkpt lat="43.5725626" lon="11.2539118"><ele>351.0</ele><time>2026-04-18T08:11:45.225Z</time></trkpt><trkpt lat="43.5724776" lon="11.2539043"><ele>351.0</ele><time>2026-04-18T08:11:56.226Z</time></trkpt><trkpt lat="43.5724033" lon="11.2538768"><ele>351.0</ele><time>2026-04-18T08:11:59.226Z</time></trkpt><trkpt lat="43.5723193" lon="11.2538859"><ele>351.0</ele><time>2026-04-18T08:12:02.226Z</time></trkpt><trkpt lat="43.5722408" lon="11.2538998"><ele>351.0</ele><time>2026-04-18T08:12:06.226Z</time></trkpt><trkpt lat="43.5721742" lon="11.2539122"><ele>351.0</ele><time>2026-04-18T08:12:08.226Z</time></trkpt><trkpt lat="43.5720955" lon="11.2539319"><ele>351.0</ele><time>2026-04-18T08:12:10.226Z</time></trkpt><trkpt lat="43.5720059" lon="11.2539555"><ele>351.0</ele><time>2026-04-18T08:12:12.227Z</time></trkpt><trkpt lat="43.5719246" lon="11.25397"><ele>351.0</ele><time>2026-04-18T08:12:14.227Z</time></trkpt><trkpt lat="43.5718455" lon="11.253999"><ele>351.0</ele><time>2026-04-18T08:12:16.227Z</time></trkpt><trkpt lat="43.571767" lon="11.254009"><ele>351.0</ele><time>2026-04-18T08:12:18.226Z</time></trkpt><trkpt lat="43.5716874" lon="11.254046"><ele>354.3333333333333</ele><time>2026-04-18T08:12:20.225Z</time></trkpt><trkpt lat="43.5716167" lon="11.2540742"><ele>357.6666666666667</ele><time>2026-04-18T08:12:22.226Z</time></trkpt><trkpt lat="43.5715628" lon="11.2540073"><ele>361.0</ele><time>2026-04-18T08:12:24.227Z</time></trkpt><trkpt lat="43.5715137" lon="11.2538635"><ele>364.33333333333337</ele><time>2026-04-18T08:12:26.227Z</time></trkpt><trkpt lat="43.5714885" lon="11.25372"><ele>367.6666666666667</ele><time>2026-04-18T08:12:28.226Z</time></trkpt><trkpt lat="43.5714558" lon="11.2536188"><ele>371.0</ele><time>2026-04-18T08:12:30.226Z</time></trkpt><trkpt lat="43.571391" lon="11.2535863"><ele>371.1666666666667</ele><time>2026-04-18T08:12:33.225Z</time></trkpt><trkpt lat="43.5713279" lon="11.2535939"><ele>371.33333333333337</ele><time>2026-04-18T08:12:36.226Z</time></trkpt><trkpt lat="43.5712602" lon="11.2535468"><ele>371.5</ele><time>2026-04-18T08:12:39.225Z</time></trkpt><trkpt lat="43.5711968" lon="11.2535002"><ele>371.6666666666667</ele><time>2026-04-18T08:12:41.226Z</time></trkpt><trkpt lat="43.5711321" lon="11.2534396"><ele>371.8333333333333</ele><time>2026-04-18T08:12:43.226Z</time></trkpt><trkpt lat="43.5710731" lon="11.2533626"><ele>372.0</ele><time>2026-04-18T08:12:45.225Z</time></trkpt><trkpt lat="43.5710081" lon="11.2532909"><ele>375.5</ele><time>2026-04-18T08:12:47.227Z</time></trkpt><trkpt lat="43.5709217" lon="11.253337"><ele>379.0</ele><time>2026-04-18T08:12:50.226Z</time></trkpt><trkpt lat="43.5708556" lon="11.253446"><ele>382.5</ele><time>2026-04-18T08:12:52.226Z</time></trkpt><trkpt lat="43.5707944" lon="11.2535604"><ele>386.0</ele><time>2026-04-18T08:12:54.227Z</time></trkpt><trkpt lat="43.5707415" lon="11.2536342"><ele>389.5</ele><time>2026-04-18T08:12:56.227Z</time></trkpt><trkpt lat="43.5706706" lon="11.2536257"><ele>393.0</ele><time>2026-04-18T08:12:58.226Z</time></trkpt><trkpt lat="43.5706036" lon="11.2535576"><ele>393.0</ele><time>2026-04-18T08:13:00.226Z</time></trkpt><trkpt lat="43.5705256" lon="11.2535518"><ele>393.0</ele><time>2026-04-18T08:13:02.227Z</time></trkpt><trkpt lat="43.5704475" lon="11.2535527"><ele>393.0</ele><time>2026-04-18T08:13:04.225Z</time></trkpt><trkpt lat="43.5703801" lon="11.2535589"><ele>393.0</ele><time>2026-04-18T08:13:05.226Z</time></trkpt><trkpt lat="43.5702589" lon="11.253574"><ele>393.0</ele><time>2026-04-18T08:13:07.227Z</time></trkpt><trkpt lat="43.5701654" lon="11.2536335"><ele>393.0</ele><time>2026-04-18T08:13:09.226Z</time></trkpt><trkpt lat="43.5700858" lon="11.2536661"><ele>395.1666666666667</ele><time>2026-04-18T08:13:11.225Z</time></trkpt><trkpt lat="43.5700069" lon="11.2537028"><ele>397.33333333333337</ele><time>2026-04-18T08:13:13.226Z</time></trkpt><trkpt lat="43.5699393" lon="11.2537097"><ele>399.5</ele><time>2026-04-18T08:20:28.225Z</time></trkpt><trkpt lat="43.569867" lon="11.2538166"><ele>401.6666666666667</ele><time>2026-04-18T08:20:45.225Z</time></trkpt><trkpt lat="43.5698162" lon="11.2538969"><ele>403.83333333333337</ele><time>2026-04-18T08:20:47.226Z</time></trkpt><trkpt lat="43.5697606" lon="11.2539785"><ele>406.0</ele><time>2026-04-18T08:20:49.224Z</time></trkpt><trkpt lat="43.5697249" lon="11.2540772"><ele>407.33333333333337</ele><time>2026-04-18T08:20:51.226Z</time></trkpt><trkpt lat="43.5696965" lon="11.2541783"><ele>408.6666666666667</ele><time>2026-04-18T08:20:53.225Z</time></trkpt><trkpt lat="43.5696438" lon="11.254264"><ele>410.0</ele><time>2026-04-18T08:20:55.224Z</time></trkpt><trkpt lat="43.5695952" lon="11.2543265"><ele>411.33333333333337</ele><time>2026-04-18T08:20:57.226Z</time></trkpt><trkpt lat="43.5695106" lon="11.2543184"><ele>412.6666666666667</ele><time>2026-04-18T08:21:00.225Z</time></trkpt><trkpt lat="43.5694285" lon="11.2542823"><ele>414.0</ele><time>2026-04-18T08:21:02.225Z</time></trkpt><trkpt lat="43.5693428" lon="11.2542927"><ele>416.8333333333333</ele><time>2026-04-18T08:21:04.224Z</time></trkpt><trkpt lat="43.5692644" lon="11.2543014"><ele>419.66666666666663</ele><time>2026-04-18T08:21:06.225Z</time></trkpt><trkpt lat="43.5691826" lon="11.2542911"><ele>422.5</ele><time>2026-04-18T08:21:08.226Z</time></trkpt><trkpt lat="43.5691" lon="11.2543095"><ele>425.3333333333333</ele><time>2026-04-18T08:21:10.225Z</time></trkpt><trkpt lat="43.5690144" lon="11.2543246"><ele>428.16666666666663</ele><time>2026-04-18T08:22:05.225Z</time></trkpt><trkpt lat="43.5689301" lon="11.2543053"><ele>431.0</ele><time>2026-04-18T08:22:07.225Z</time></trkpt><trkpt lat="43.5688562" lon="11.2542774"><ele>430.99999999999994</ele><time>2026-04-18T08:22:09.227Z</time></trkpt><trkpt lat="43.5687886" lon="11.2542669"><ele>431.0</ele><time>2026-04-18T08:22:11.225Z</time></trkpt><trkpt lat="43.5687007" lon="11.2542014"><ele>431.0</ele><time>2026-04-18T08:22:14.225Z</time></trkpt><trkpt lat="43.5686383" lon="11.2541701"><ele>431.0</ele><time>2026-04-18T08:22:16.224Z</time></trkpt><trkpt lat="43.5685719" lon="11.2541474"><ele>430.99999999999994</ele><time>2026-04-18T08:22:18.225Z</time></trkpt><trkpt lat="43.5685078" lon="11.2540999"><ele>431.0</ele><time>2026-04-18T08:22:20.225Z</time></trkpt><trkpt lat="43.5684531" lon="11.254025"><ele>433.0</ele><time>2026-04-18T08:22:22.225Z</time></trkpt><trkpt lat="43.5683669" lon="11.2539575"><ele>435.0</ele><time>2026-04-18T08:22:24.224Z</time></trkpt><trkpt lat="43.5682924" lon="11.2538638"><ele>437.0</ele><time>2026-04-18T08:22:26.225Z</time></trkpt><trkpt lat="43.568213" lon="11.2537678"><ele>439.0</ele><time>2026-04-18T08:22:28.224Z</time></trkpt><trkpt lat="43.5681261" lon="11.2536728"><ele>441.0</ele><time>2026-04-18T08:22:30.225Z</time></trkpt><trkpt lat="43.56807" lon="11.2536227"><ele>441.0</ele><time>2026-04-18T08:22:32.224Z</time></trkpt><trkpt lat="43.5681268" lon="11.25369"><ele>441.0</ele><time>2026-04-18T08:22:39.226Z</time></trkpt><trkpt lat="43.5681914" lon="11.2537552"><ele>441.0</ele><time>2026-04-18T08:22:41.225Z</time></trkpt><trkpt lat="43.5682662" lon="11.2538374"><ele>441.0</ele><time>2026-04-18T08:22:43.225Z</time></trkpt><trkpt lat="43.5683506" lon="11.2539156"><ele>441.0</ele><time>2026-04-18T08:22:45.225Z</time></trkpt><trkpt lat="43.5684069" lon="11.2539733"><ele>441.0</ele><time>2026-04-18T08:22:46.226Z</time></trkpt><trkpt lat="43.5684659" lon="11.2540402"><ele>442.5</ele><time>2026-04-18T08:22:47.224Z</time></trkpt><trkpt lat="43.5685249" lon="11.2541029"><ele>444.0</ele><time>2026-04-18T08:22:48.225Z</time></trkpt><trkpt lat="43.5685825" lon="11.2541691"><ele>445.5</ele><time>2026-04-18T08:22:49.225Z</time></trkpt><trkpt lat="43.5686336" lon="11.2542354"><ele>447.0</ele><time>2026-04-18T08:22:50.225Z</time></trkpt><trkpt lat="43.5686788" lon="11.2543036"><ele>448.5</ele><time>2026-04-18T08:22:51.225Z</time></trkpt><trkpt lat="43.56873" lon="11.2543654"><ele>450.0</ele><time>2026-04-18T08:22:52.225Z</time></trkpt><trkpt lat="43.5688113" lon="11.2544751"><ele>447.0</ele><time>2026-04-18T08:22:54.225Z</time></trkpt><trkpt lat="43.568879" lon="11.2545574"><ele>444.0</ele><time>2026-04-18T08:22:56.225Z</time></trkpt><trkpt lat="43.5688915" lon="11.2546928"><ele>441.0</ele><time>2026-04-18T08:22:58.225Z</time></trkpt><trkpt lat="43.568855" lon="11.2548598"><ele>438.0</ele><time>2026-04-18T08:23:00.225Z</time></trkpt><trkpt lat="43.5688229" lon="11.2549418"><ele>435.0</ele><time>2026-04-18T08:23:01.225Z</time></trkpt><trkpt lat="43.5687905" lon="11.255017"><ele>432.0</ele><time>2026-04-18T08:23:02.224Z</time></trkpt><trkpt lat="43.5687462" lon="11.2550846"><ele>432.0</ele><time>2026-04-18T08:23:03.225Z</time></trkpt><trkpt lat="43.5686961" lon="11.2552235"><ele>432.0</ele><time>2026-04-18T08:23:05.226Z</time></trkpt><trkpt lat="43.5686705" lon="11.2553247"><ele>432.0</ele><time>2026-04-18T08:23:07.224Z</time></trkpt><trkpt lat="43.5686389" lon="11.2554169"><ele>432.0</ele><time>2026-04-18T08:23:09.225Z</time></trkpt><trkpt lat="43.568635" lon="11.2555703"><ele>432.0</ele><time>2026-04-18T08:23:11.225Z</time></trkpt><trkpt lat="43.5686576" lon="11.2556595"><ele>432.0</ele><time>2026-04-18T08:23:12.225Z</time></trkpt><trkpt lat="43.568685" lon="11.2558026"><ele>431.8333333333333</ele><time>2026-04-18T08:23:14.225Z</time></trkpt><trkpt lat="43.5686999" lon="11.2558932"><ele>431.66666666666663</ele><time>2026-04-18T08:23:16.225Z</time></trkpt><trkpt lat="43.5687403" lon="11.256005"><ele>431.5</ele><time>2026-04-18T08:23:18.226Z</time></trkpt><trkpt lat="43.5687699" lon="11.2560941"><ele>431.3333333333333</ele><time>2026-04-18T08:23:19.225Z</time></trkpt><trkpt lat="43.5688047" lon="11.2561956"><ele>431.16666666666663</ele><time>2026-04-18T08:23:20.225Z</time></trkpt><trkpt lat="43.5688426" lon="11.2563106"><ele>431.0</ele><time>2026-04-18T08:23:21.225Z</time></trkpt><trkpt lat="43.568877" lon="11.2564184"><ele>431.16666666666663</ele><time>2026-04-18T08:23:22.225Z</time></trkpt><trkpt lat="43.5689005" lon="11.2565042"><ele>431.3333333333333</ele><time>2026-04-18T08:23:23.224Z</time></trkpt><trkpt lat="43.568908" lon="11.2566152"><ele>431.5</ele><time>2026-04-18T08:23:25.225Z</time></trkpt><trkpt lat="43.5689657" lon="11.2566696"><ele>431.66666666666663</ele><time>2026-04-18T08:23:28.225Z</time></trkpt><trkpt lat="43.5690368" lon="11.2567033"><ele>431.8333333333333</ele><time>2026-04-18T08:23:39.226Z</time></trkpt><trkpt lat="43.5691076" lon="11.2567958"><ele>432.0</ele><time>2026-04-18T08:23:41.225Z</time></trkpt><trkpt lat="43.5691383" lon="11.2568787"><ele>432.0</ele><time>2026-04-18T08:23:42.224Z</time></trkpt><trkpt lat="43.5691631" lon="11.2569739"><ele>432.0</ele><time>2026-04-18T08:23:43.226Z</time></trkpt><trkpt lat="43.5691824" lon="11.2570759"><ele>432.0</ele><time>2026-04-18T08:23:44.225Z</time></trkpt><trkpt lat="43.5692041" lon="11.2571754"><ele>432.0</ele><time>2026-04-18T08:23:45.225Z</time></trkpt><trkpt lat="43.5692271" lon="11.2572743"><ele>432.0</ele><time>2026-04-18T08:23:46.224Z</time></trkpt><trkpt lat="43.5692475" lon="11.2573676"><ele>432.0</ele><time>2026-04-18T08:23:47.224Z</time></trkpt><trkpt lat="43.5692704" lon="11.2574598"><ele>432.0</ele><time>2026-04-18T08:23:48.224Z</time></trkpt><trkpt lat="43.5692872" lon="11.2575495"><ele>431.2857142857143</ele><time>2026-04-18T08:23:49.225Z</time></trkpt><trkpt lat="43.5693021" lon="11.2576422"><ele>430.57142857142856</ele><time>2026-04-18T08:23:50.225Z</time></trkpt><trkpt lat="43.5693249" lon="11.2577284"><ele>429.8571428571429</ele><time>2026-04-18T08:23:51.225Z</time></trkpt><trkpt lat="43.569344" lon="11.2578239"><ele>429.1428571428571</ele><time>2026-04-18T08:23:52.225Z</time></trkpt><trkpt lat="43.5693695" lon="11.2579226"><ele>428.42857142857144</ele><time>2026-04-18T08:23:53.225Z</time></trkpt><trkpt lat="43.5693972" lon="11.2580257"><ele>427.7142857142857</ele><time>2026-04-18T08:23:54.225Z</time></trkpt><trkpt lat="43.5694292" lon="11.2581217"><ele>427.0</ele><time>2026-04-18T08:23:55.225Z</time></trkpt><trkpt lat="43.5694596" lon="11.2582122"><ele>424.6666666666667</ele><time>2026-04-18T08:23:56.225Z</time></trkpt><trkpt lat="43.5694983" lon="11.2583037"><ele>422.33333333333337</ele><time>2026-04-18T08:23:57.225Z</time></trkpt><trkpt lat="43.5695335" lon="11.258398"><ele>420.0</ele><time>2026-04-18T08:23:58.224Z</time></trkpt><trkpt lat="43.5695686" lon="11.2584954"><ele>417.66666666666663</ele><time>2026-04-18T08:23:59.225Z</time></trkpt><trkpt lat="43.5695955" lon="11.2585935"><ele>415.3333333333333</ele><time>2026-04-18T08:24:00.224Z</time></trkpt><trkpt lat="43.5696169" lon="11.2586976"><ele>413.0</ele><time>2026-04-18T08:24:01.224Z</time></trkpt><trkpt lat="43.5696214" lon="11.2588"><ele>411.3333333333333</ele><time>2026-04-18T08:24:02.225Z</time></trkpt><trkpt lat="43.569581" lon="11.2589605"><ele>409.66666666666663</ele><time>2026-04-18T08:24:04.225Z</time></trkpt><trkpt lat="43.5695334" lon="11.2590181"><ele>408.0</ele><time>2026-04-18T08:24:05.225Z</time></trkpt><trkpt lat="43.5694785" lon="11.2590611"><ele>406.33333333333337</ele><time>2026-04-18T08:24:06.225Z</time></trkpt><trkpt lat="43.5694157" lon="11.2590861"><ele>404.6666666666667</ele><time>2026-04-18T08:24:07.225Z</time></trkpt><trkpt lat="43.569348" lon="11.2590908"><ele>403.0</ele><time>2026-04-18T08:24:08.225Z</time></trkpt><trkpt lat="43.5692742" lon="11.259082"><ele>402.50000000000006</ele><time>2026-04-18T08:24:09.225Z</time></trkpt><trkpt lat="43.5691974" lon="11.2590775"><ele>402.0</ele><time>2026-04-18T08:24:10.225Z</time></trkpt><trkpt lat="43.5691193" lon="11.2590694"><ele>401.5</ele><time>2026-04-18T08:24:11.225Z</time></trkpt><trkpt lat="43.5690405" lon="11.2590388"><ele>401.0</ele><time>2026-04-18T08:24:12.224Z</time></trkpt><trkpt lat="43.5689776" lon="11.2590043"><ele>400.50000000000006</ele><time>2026-04-18T08:24:13.224Z</time></trkpt><trkpt lat="43.5688728" lon="11.2589598"><ele>400.0</ele><time>2026-04-18T08:24:15.224Z</time></trkpt><trkpt lat="43.5687902" lon="11.259003"><ele>400.00000000000006</ele><time>2026-04-18T08:24:17.225Z</time></trkpt><trkpt lat="43.56877" lon="11.2591391"><ele>400.0</ele><time>2026-04-18T08:24:19.225Z</time></trkpt><trkpt lat="43.5688139" lon="11.2592954"><ele>400.0</ele><time>2026-04-18T08:24:21.225Z</time></trkpt><trkpt lat="43.5688449" lon="11.259374"><ele>400.0</ele><time>2026-04-18T08:24:22.225Z</time></trkpt><trkpt lat="43.5688756" lon="11.2594566"><ele>400.00000000000006</ele><time>2026-04-18T08:24:23.225Z</time></trkpt><trkpt lat="43.5689099" lon="11.2595371"><ele>400.0</ele><time>2026-04-18T08:24:24.225Z</time></trkpt><trkpt lat="43.5689457" lon="11.2596157"><ele>400.00000000000006</ele><time>2026-04-18T08:24:25.225Z</time></trkpt><trkpt lat="43.5689919" lon="11.2596922"><ele>400.0</ele><time>2026-04-18T08:24:26.225Z</time></trkpt><trkpt lat="43.5690421" lon="11.2597615"><ele>400.0</ele><time>2026-04-18T08:24:27.225Z</time></trkpt><trkpt lat="43.569091" lon="11.2598202"><ele>400.0</ele><time>2026-04-18T08:24:28.224Z</time></trkpt><trkpt lat="43.5691435" lon="11.2598702"><ele>400.00000000000006</ele><time>2026-04-18T08:24:29.224Z</time></trkpt><trkpt lat="43.5692533" lon="11.2599522"><ele>400.0</ele><time>2026-04-18T08:24:31.225Z</time></trkpt><trkpt lat="43.5693229" lon="11.2599863"><ele>397.0</ele><time>2026-04-18T08:24:32.224Z</time></trkpt><trkpt lat="43.569398" lon="11.260018"><ele>394.0</ele><time>2026-04-18T08:24:33.225Z</time></trkpt><trkpt lat="43.5694791" lon="11.2600429"><ele>391.0</ele><time>2026-04-18T08:24:34.224Z</time></trkpt><trkpt lat="43.5695686" lon="11.260069"><ele>388.0</ele><time>2026-04-18T08:24:35.225Z</time></trkpt><trkpt lat="43.569662" lon="11.2600949"><ele>385.0</ele><time>2026-04-18T08:24:36.225Z</time></trkpt><trkpt lat="43.5697724" lon="11.2601118"><ele>385.00000000000006</ele><time>2026-04-18T08:24:37.225Z</time></trkpt><trkpt lat="43.5698492" lon="11.2601157"><ele>385.0</ele><time>2026-04-18T08:24:38.225Z</time></trkpt><trkpt lat="43.5699363" lon="11.2601247"><ele>385.0</ele><time>2026-04-18T08:24:39.225Z</time></trkpt><trkpt lat="43.5700193" lon="11.2601218"><ele>385.0</ele><time>2026-04-18T08:24:40.225Z</time></trkpt><trkpt lat="43.5700957" lon="11.260133"><ele>385.00000000000006</ele><time>2026-04-18T08:24:41.225Z</time></trkpt><trkpt lat="43.5701669" lon="11.2601684"><ele>385.0</ele><time>2026-04-18T08:24:42.225Z</time></trkpt><trkpt lat="43.5702367" lon="11.2602367"><ele>385.00000000000006</ele><time>2026-04-18T08:24:43.225Z</time></trkpt><trkpt lat="43.570287" lon="11.260325"><ele>385.0</ele><time>2026-04-18T08:24:44.225Z</time></trkpt><trkpt lat="43.5703209" lon="11.260409"><ele>385.0</ele><time>2026-04-18T08:24:45.225Z</time></trkpt><trkpt lat="43.5703449" lon="11.2605208"><ele>385.0</ele><time>2026-04-18T08:24:46.224Z</time></trkpt><trkpt lat="43.5703538" lon="11.2606526"><ele>385.00000000000006</ele><time>2026-04-18T08:24:47.225Z</time></trkpt><trkpt lat="43.5703599" lon="11.260799"><ele>385.0</ele><time>2026-04-18T08:24:48.225Z</time></trkpt><trkpt lat="43.5703572" lon="11.2609577"><ele>384.6</ele><time>2026-04-18T08:24:49.225Z</time></trkpt><trkpt lat="43.5703559" lon="11.2610973"><ele>384.2</ele><time>2026-04-18T08:24:50.225Z</time></trkpt><trkpt lat="43.570363" lon="11.2612308"><ele>383.79999999999995</ele><time>2026-04-18T08:24:51.225Z</time></trkpt><trkpt lat="43.5703757" lon="11.2613634"><ele>383.4</ele><time>2026-04-18T08:24:52.225Z</time></trkpt><trkpt lat="43.5703867" lon="11.2614992"><ele>383.0</ele><time>2026-04-18T08:24:53.225Z</time></trkpt><trkpt lat="43.5704119" lon="11.2616381"><ele>383.0</ele><time>2026-04-18T08:24:54.224Z</time></trkpt><trkpt lat="43.5704334" lon="11.261793"><ele>383.0</ele><time>2026-04-18T08:24:55.224Z</time></trkpt><trkpt lat="43.570465" lon="11.261953"><ele>383.0</ele><time>2026-04-18T08:24:56.225Z</time></trkpt><trkpt lat="43.5705018" lon="11.262105"><ele>383.0</ele><time>2026-04-18T08:24:57.225Z</time></trkpt><trkpt lat="43.5705394" lon="11.2622326"><ele>383.1666666666667</ele><time>2026-04-18T08:24:58.224Z</time></trkpt><trkpt lat="43.5705765" lon="11.2623503"><ele>383.33333333333337</ele><time>2026-04-18T08:24:59.225Z</time></trkpt><trkpt lat="43.5706133" lon="11.2624489"><ele>383.5</ele><time>2026-04-18T08:25:00.225Z</time></trkpt><trkpt lat="43.5706499" lon="11.2625425"><ele>383.6666666666667</ele><time>2026-04-18T08:25:01.225Z</time></trkpt><trkpt lat="43.5706753" lon="11.2626387"><ele>383.8333333333333</ele><time>2026-04-18T08:25:02.225Z</time></trkpt><trkpt lat="43.5706927" lon="11.2627325"><ele>384.0</ele><time>2026-04-18T08:25:03.224Z</time></trkpt><trkpt lat="43.5706921" lon="11.2628224"><ele>384.0</ele><time>2026-04-18T08:25:04.224Z</time></trkpt><trkpt lat="43.5706286" lon="11.2629677"><ele>384.0</ele><time>2026-04-18T08:25:06.225Z</time></trkpt><trkpt lat="43.5705615" lon="11.2630192"><ele>384.0</ele><time>2026-04-18T08:25:07.225Z</time></trkpt><trkpt lat="43.5704817" lon="11.2630387"><ele>384.0</ele><time>2026-04-18T08:25:08.225Z</time></trkpt><trkpt lat="43.5703974" lon="11.2630247"><ele>384.0</ele><time>2026-04-18T08:25:09.225Z</time></trkpt><trkpt lat="43.5703194" lon="11.2630172"><ele>384.0</ele><time>2026-04-18T08:25:10.225Z</time></trkpt><trkpt lat="43.5702444" lon="11.2630133"><ele>382.0</ele><time>2026-04-18T08:25:11.223Z</time></trkpt><trkpt lat="43.5701637" lon="11.2630157"><ele>380.0</ele><time>2026-04-18T08:25:12.224Z</time></trkpt><trkpt lat="43.5701043" lon="11.2630463"><ele>378.0</ele><time>2026-04-18T08:25:13.224Z</time></trkpt><trkpt lat="43.5700104" lon="11.2631893"><ele>376.0</ele><time>2026-04-18T08:25:15.225Z</time></trkpt><trkpt lat="43.5699862" lon="11.2633028"><ele>374.0</ele><time>2026-04-18T08:25:16.225Z</time></trkpt><trkpt lat="43.5699718" lon="11.2634311"><ele>374.0</ele><time>2026-04-18T08:25:17.225Z</time></trkpt><trkpt lat="43.5699487" lon="11.2635435"><ele>374.0</ele><time>2026-04-18T08:25:18.225Z</time></trkpt><trkpt lat="43.5698994" lon="11.2636291"><ele>374.0</ele><time>2026-04-18T08:25:19.225Z</time></trkpt><trkpt lat="43.5698269" lon="11.2636859"><ele>374.0</ele><time>2026-04-18T08:25:20.226Z</time></trkpt><trkpt lat="43.569731" lon="11.2637424"><ele>374.0</ele><time>2026-04-18T08:25:21.224Z</time></trkpt><trkpt lat="43.5696538" lon="11.2637809"><ele>374.0</ele><time>2026-04-18T08:25:22.224Z</time></trkpt><trkpt lat="43.5695849" lon="11.2638331"><ele>374.0</ele><time>2026-04-18T08:25:23.225Z</time></trkpt><trkpt lat="43.5695339" lon="11.2639141"><ele>374.0</ele><time>2026-04-18T08:25:24.225Z</time></trkpt><trkpt lat="43.5694958" lon="11.2640241"><ele>374.0</ele><time>2026-04-18T08:25:25.224Z</time></trkpt><trkpt lat="43.569453" lon="11.2641382"><ele>374.0</ele><time>2026-04-18T08:25:26.224Z</time></trkpt><trkpt lat="43.5694088" lon="11.26423"><ele>374.0</ele><time>2026-04-18T08:25:27.225Z</time></trkpt><trkpt lat="43.5693489" lon="11.2643186"><ele>374.0</ele><time>2026-04-18T08:25:28.225Z</time></trkpt><trkpt lat="43.5692804" lon="11.2643859"><ele>373.5</ele><time>2026-04-18T08:25:29.225Z</time></trkpt><trkpt lat="43.569214" lon="11.2644394"><ele>373.0</ele><time>2026-04-18T08:25:30.224Z</time></trkpt><trkpt lat="43.5691442" lon="11.2644745"><ele>372.5</ele><time>2026-04-18T08:25:31.224Z</time></trkpt><trkpt lat="43.5690671" lon="11.2644901"><ele>372.0</ele><time>2026-04-18T08:25:32.225Z</time></trkpt><trkpt lat="43.5689787" lon="11.2644846"><ele>371.5</ele><time>2026-04-18T08:25:33.225Z</time></trkpt><trkpt lat="43.5688853" lon="11.2644387"><ele>371.0</ele><time>2026-04-18T08:25:34.225Z</time></trkpt><trkpt lat="43.5688019" lon="11.2644014"><ele>371.0</ele><time>2026-04-18T08:25:35.225Z</time></trkpt><trkpt lat="43.5687237" lon="11.2643812"><ele>371.0</ele><time>2026-04-18T08:25:36.225Z</time></trkpt><trkpt lat="43.5686578" lon="11.2643944"><ele>371.0</ele><time>2026-04-18T08:25:37.224Z</time></trkpt><trkpt lat="43.5685825" lon="11.2644441"><ele>371.0</ele><time>2026-04-18T08:25:38.225Z</time></trkpt><trkpt lat="43.568505" lon="11.2645172"><ele>371.0</ele><time>2026-04-18T08:25:39.224Z</time></trkpt><trkpt lat="43.5684189" lon="11.2646061"><ele>371.0</ele><time>2026-04-18T08:25:40.225Z</time></trkpt><trkpt lat="43.5683248" lon="11.2647114"><ele>372.0</ele><time>2026-04-18T08:25:41.225Z</time></trkpt><trkpt lat="43.56823" lon="11.2648038"><ele>373.0</ele><time>2026-04-18T08:25:42.224Z</time></trkpt><trkpt lat="43.5681483" lon="11.2648992"><ele>374.0</ele><time>2026-04-18T08:25:43.224Z</time></trkpt><trkpt lat="43.5680827" lon="11.2650124"><ele>375.0</ele><time>2026-04-18T08:25:44.225Z</time></trkpt><trkpt lat="43.5680279" lon="11.2651384"><ele>376.0</ele><time>2026-04-18T08:25:45.225Z</time></trkpt><trkpt lat="43.5679797" lon="11.2652779"><ele>376.0</ele><time>2026-04-18T08:25:46.225Z</time></trkpt><trkpt lat="43.567918" lon="11.2654142"><ele>376.0</ele><time>2026-04-18T08:25:47.223Z</time></trkpt><trkpt lat="43.5678483" lon="11.2655517"><ele>376.0</ele><time>2026-04-18T08:25:48.225Z</time></trkpt><trkpt lat="43.5677839" lon="11.2656973"><ele>376.0</ele><time>2026-04-18T08:25:49.224Z</time></trkpt><trkpt lat="43.567737" lon="11.2658345"><ele>374.20000000000005</ele><time>2026-04-18T08:25:50.224Z</time></trkpt><trkpt lat="43.567695" lon="11.2659672"><ele>372.40000000000003</ele><time>2026-04-18T08:25:51.224Z</time></trkpt><trkpt lat="43.5676644" lon="11.2661128"><ele>370.6</ele><time>2026-04-18T08:25:52.225Z</time></trkpt><trkpt lat="43.567652" lon="11.2662727"><ele>368.8</ele><time>2026-04-18T08:25:53.223Z</time></trkpt><trkpt lat="43.5676457" lon="11.2664217"><ele>367.0</ele><time>2026-04-18T08:25:54.225Z</time></trkpt><trkpt lat="43.5676699" lon="11.2665574"><ele>367.0</ele><time>2026-04-18T08:25:55.225Z</time></trkpt><trkpt lat="43.5677025" lon="11.2666822"><ele>367.0</ele><time>2026-04-18T08:25:56.225Z</time></trkpt><trkpt lat="43.5677444" lon="11.266805"><ele>367.0</ele><time>2026-04-18T08:25:57.225Z</time></trkpt><trkpt lat="43.5678232" lon="11.2669407"><ele>367.0</ele><time>2026-04-18T08:25:58.225Z</time></trkpt><trkpt lat="43.5679071" lon="11.2670696"><ele>367.0</ele><time>2026-04-18T08:25:59.225Z</time></trkpt><trkpt lat="43.5679862" lon="11.2671949"><ele>369.0</ele><time>2026-04-18T08:26:00.225Z</time></trkpt><trkpt lat="43.5680602" lon="11.2672711"><ele>371.0</ele><time>2026-04-18T08:26:01.225Z</time></trkpt><trkpt lat="43.5681199" lon="11.2673578"><ele>373.0</ele><time>2026-04-18T08:26:02.224Z</time></trkpt><trkpt lat="43.5681429" lon="11.2674952"><ele>375.0</ele><time>2026-04-18T08:26:04.225Z</time></trkpt><trkpt lat="43.5680663" lon="11.2675587"><ele>377.0</ele><time>2026-04-18T08:26:06.225Z</time></trkpt><trkpt lat="43.5679989" lon="11.2675709"><ele>379.0</ele><time>2026-04-18T08:26:07.225Z</time></trkpt><trkpt lat="43.5679085" lon="11.2675678"><ele>377.4</ele><time>2026-04-18T08:26:08.225Z</time></trkpt><trkpt lat="43.5678141" lon="11.2675859"><ele>375.79999999999995</ele><time>2026-04-18T08:26:09.225Z</time></trkpt><trkpt lat="43.5676987" lon="11.2676157"><ele>374.20000000000005</ele><time>2026-04-18T08:26:10.224Z</time></trkpt><trkpt lat="43.5675882" lon="11.2676545"><ele>372.6</ele><time>2026-04-18T08:26:11.225Z</time></trkpt><trkpt lat="43.5675013" lon="11.2676888"><ele>371.0</ele><time>2026-04-18T08:26:12.225Z</time></trkpt><trkpt lat="43.567398" lon="11.2677413"><ele>371.0</ele><time>2026-04-18T08:26:13.225Z</time></trkpt><trkpt lat="43.5672964" lon="11.267826"><ele>371.0</ele><time>2026-04-18T08:26:14.225Z</time></trkpt><trkpt lat="43.5671803" lon="11.2679173"><ele>371.0</ele><time>2026-04-18T08:26:15.225Z</time></trkpt><trkpt lat="43.5670671" lon="11.2680156"><ele>371.0</ele><time>2026-04-18T08:26:16.224Z</time></trkpt><trkpt lat="43.5669569" lon="11.2680978"><ele>372.5</ele><time>2026-04-18T08:26:17.224Z</time></trkpt><trkpt lat="43.5668295" lon="11.2681682"><ele>374.0</ele><time>2026-04-18T08:26:18.224Z</time></trkpt><trkpt lat="43.5666922" lon="11.2682184"><ele>375.5</ele><time>2026-04-18T08:26:19.225Z</time></trkpt><trkpt lat="43.5665519" lon="11.2682612"><ele>377.0</ele><time>2026-04-18T08:26:20.225Z</time></trkpt><trkpt lat="43.5664095" lon="11.268307"><ele>377.0</ele><time>2026-04-18T08:26:21.224Z</time></trkpt><trkpt lat="43.566281" lon="11.268342"><ele>377.0</ele><time>2026-04-18T08:26:22.225Z</time></trkpt><trkpt lat="43.5661652" lon="11.2683804"><ele>377.0</ele><time>2026-04-18T08:26:23.225Z</time></trkpt><trkpt lat="43.5660642" lon="11.2684245"><ele>377.0</ele><time>2026-04-18T08:26:24.225Z</time></trkpt><trkpt lat="43.5659669" lon="11.2684838"><ele>376.8</ele><time>2026-04-18T08:26:25.224Z</time></trkpt><trkpt lat="43.5658734" lon="11.2685533"><ele>376.6</ele><time>2026-04-18T08:26:26.224Z</time></trkpt><trkpt lat="43.5657889" lon="11.268628"><ele>376.40000000000003</ele><time>2026-04-18T08:26:27.224Z</time></trkpt><trkpt lat="43.5657128" lon="11.2686873"><ele>376.20000000000005</ele><time>2026-04-18T08:26:28.225Z</time></trkpt><trkpt lat="43.5656445" lon="11.2687344"><ele>376.0</ele><time>2026-04-18T08:26:29.225Z</time></trkpt><trkpt lat="43.5655508" lon="11.2687891"><ele>376.0</ele><time>2026-04-18T08:26:31.224Z</time></trkpt><trkpt lat="43.5655075" lon="11.2688591"><ele>376.0</ele><time>2026-04-18T08:26:34.225Z</time></trkpt><trkpt lat="43.565483" lon="11.2689652"><ele>376.0</ele><time>2026-04-18T08:26:37.225Z</time></trkpt><trkpt lat="43.5654431" lon="11.2690511"><ele>376.0</ele><time>2026-04-18T08:26:39.223Z</time></trkpt><trkpt lat="43.5653968" lon="11.2691265"><ele>376.0</ele><time>2026-04-18T08:26:41.225Z</time></trkpt><trkpt lat="43.5653318" lon="11.2692544"><ele>376.0</ele><time>2026-04-18T08:26:43.224Z</time></trkpt><trkpt lat="43.5652655" lon="11.2693869"><ele>374.6</ele><time>2026-04-18T08:26:45.225Z</time></trkpt><trkpt lat="43.5652011" lon="11.2694894"><ele>373.20000000000005</ele><time>2026-04-18T08:26:47.225Z</time></trkpt><trkpt lat="43.5651464" lon="11.269542"><ele>371.79999999999995</ele><time>2026-04-18T08:26:50.225Z</time></trkpt><trkpt lat="43.5650574" lon="11.2696225"><ele>370.4</ele><time>2026-04-18T08:26:53.225Z</time></trkpt><trkpt lat="43.5649813" lon="11.2697378"><ele>369.0</ele><time>2026-04-18T08:26:55.224Z</time></trkpt><trkpt lat="43.5649105" lon="11.2698314"><ele>369.0</ele><time>2026-04-18T08:26:57.225Z</time></trkpt><trkpt lat="43.5648581" lon="11.2698853"><ele>369.0</ele><time>2026-04-18T08:26:59.224Z</time></trkpt><trkpt lat="43.5648974" lon="11.269791"><ele>369.0</ele><time>2026-04-18T08:27:38.224Z</time></trkpt><trkpt lat="43.564968" lon="11.2697243"><ele>369.0</ele><time>2026-04-18T08:27:40.225Z</time></trkpt><trkpt lat="43.5650523" lon="11.269608"><ele>369.0</ele><time>2026-04-18T08:27:42.224Z</time></trkpt><trkpt lat="43.5651058" lon="11.2695506"><ele>369.0</ele><time>2026-04-18T08:27:43.226Z</time></trkpt><trkpt lat="43.5651729" lon="11.2694846"><ele>370.8333333333333</ele><time>2026-04-18T08:27:44.224Z</time></trkpt><trkpt lat="43.565234" lon="11.2694064"><ele>372.6666666666667</ele><time>2026-04-18T08:27:45.223Z</time></trkpt><trkpt lat="43.5652811" lon="11.2693228"><ele>374.5</ele><time>2026-04-18T08:27:46.224Z</time></trkpt><trkpt lat="43.5653281" lon="11.2692275"><ele>376.33333333333337</ele><time>2026-04-18T08:27:47.225Z</time></trkpt><trkpt lat="43.5653792" lon="11.2691485"><ele>378.1666666666667</ele><time>2026-04-18T08:27:48.225Z</time></trkpt><trkpt lat="43.565446" lon="11.2690387"><ele>380.0</ele><time>2026-04-18T08:27:50.223Z</time></trkpt><trkpt lat="43.5654997" lon="11.2689587"><ele>380.0</ele><time>2026-04-18T08:27:52.224Z</time></trkpt><trkpt lat="43.5655713" lon="11.2689349"><ele>380.0</ele><time>2026-04-18T08:27:54.224Z</time></trkpt><trkpt lat="43.5656646" lon="11.2689668"><ele>380.0</ele><time>2026-04-18T08:27:56.223Z</time></trkpt><trkpt lat="43.5657284" lon="11.2690035"><ele>380.0</ele><time>2026-04-18T08:27:58.225Z</time></trkpt><trkpt lat="43.565797" lon="11.2690172"><ele>380.0</ele><time>2026-04-18T08:28:13.225Z</time></trkpt><trkpt lat="43.5657177" lon="11.2689465"><ele>380.0</ele><time>2026-04-18T08:28:39.223Z</time></trkpt><trkpt lat="43.565603" lon="11.268886"><ele>379.33333333333337</ele><time>2026-04-18T08:28:41.224Z</time></trkpt><trkpt lat="43.5655382" lon="11.2688284"><ele>378.6666666666667</ele><time>2026-04-18T08:28:42.224Z</time></trkpt><trkpt lat="43.5654905" lon="11.2687474"><ele>378.0</ele><time>2026-04-18T08:28:44.224Z</time></trkpt><trkpt lat="43.5655719" lon="11.2687122"><ele>377.3333333333333</ele><time>2026-04-18T08:28:47.224Z</time></trkpt><trkpt lat="43.5656942" lon="11.2686586"><ele>376.66666666666663</ele><time>2026-04-18T08:28:49.225Z</time></trkpt><trkpt lat="43.5657641" lon="11.2686032"><ele>376.0</ele><time>2026-04-18T08:28:50.225Z</time></trkpt><trkpt lat="43.5658207" lon="11.2685511"><ele>376.0</ele><time>2026-04-18T08:28:51.223Z</time></trkpt><trkpt lat="43.5658866" lon="11.2684924"><ele>376.0</ele><time>2026-04-18T08:28:53.225Z</time></trkpt><trkpt lat="43.5658708" lon="11.2685794"><ele>376.0</ele><time>2026-04-18T08:28:58.224Z</time></trkpt><trkpt lat="43.5657988" lon="11.268613"><ele>376.0</ele><time>2026-04-18T08:29:01.224Z</time></trkpt><trkpt lat="43.5657284" lon="11.2686729"><ele>376.0</ele><time>2026-04-18T08:29:03.225Z</time></trkpt><trkpt lat="43.5656625" lon="11.2687255"><ele>376.0</ele><time>2026-04-18T08:29:06.225Z</time></trkpt><trkpt lat="43.5656071" lon="11.2687697"><ele>376.0</ele><time>2026-04-18T08:29:08.225Z</time></trkpt><trkpt lat="43.5655435" lon="11.2688313"><ele>376.0</ele><time>2026-04-18T08:29:11.225Z</time></trkpt><trkpt lat="43.5655455" lon="11.2689355"><ele>376.0</ele><time>2026-04-18T08:29:14.224Z</time></trkpt><trkpt lat="43.5656372" lon="11.2689896"><ele>376.0</ele><time>2026-04-18T08:29:17.224Z</time></trkpt><trkpt lat="43.5657337" lon="11.2690248"><ele>376.0</ele><time>2026-04-18T08:29:19.224Z</time></trkpt><trkpt lat="43.5658412" lon="11.2690969"><ele>376.0</ele><time>2026-04-18T08:29:21.224Z</time></trkpt><trkpt lat="43.5659311" lon="11.2691847"><ele>376.66666666666663</ele><time>2026-04-18T08:29:23.224Z</time></trkpt><trkpt lat="43.5659875" lon="11.2692448"><ele>377.3333333333333</ele><time>2026-04-18T08:29:25.224Z</time></trkpt><trkpt lat="43.5660751" lon="11.2693256"><ele>378.0</ele><time>2026-04-18T08:29:28.225Z</time></trkpt><trkpt lat="43.5661386" lon="11.2693916"><ele>378.6666666666667</ele><time>2026-04-18T08:29:30.224Z</time></trkpt><trkpt lat="43.5662023" lon="11.269466"><ele>379.33333333333337</ele><time>2026-04-18T08:29:33.225Z</time></trkpt><trkpt lat="43.5662489" lon="11.2695528"><ele>380.0</ele><time>2026-04-18T08:29:35.225Z</time></trkpt><trkpt lat="43.5662853" lon="11.2696482"><ele>380.0</ele><time>2026-04-18T08:29:37.224Z</time></trkpt><trkpt lat="43.5662539" lon="11.2695704"><ele>380.0</ele><time>2026-04-18T08:30:08.224Z</time></trkpt><trkpt lat="43.5662078" lon="11.2694832"><ele>380.0</ele><time>2026-04-18T08:30:10.224Z</time></trkpt><trkpt lat="43.5661235" lon="11.2693913"><ele>380.0</ele><time>2026-04-18T08:30:12.223Z</time></trkpt><trkpt lat="43.5660222" lon="11.2692965"><ele>380.0</ele><time>2026-04-18T08:30:14.224Z</time></trkpt><trkpt lat="43.5659337" lon="11.2692112"><ele>380.0</ele><time>2026-04-18T08:30:16.223Z</time></trkpt><trkpt lat="43.5658616" lon="11.2691326"><ele>380.0</ele><time>2026-04-18T08:30:18.225Z</time></trkpt><trkpt lat="43.5658018" lon="11.2690695"><ele>380.0</ele><time>2026-04-18T08:30:20.225Z</time></trkpt><trkpt lat="43.5657339" lon="11.2690279"><ele>380.0</ele><time>2026-04-18T08:30:22.224Z</time></trkpt><trkpt lat="43.5656604" lon="11.269004"><ele>380.0</ele><time>2026-04-18T08:30:25.225Z</time></trkpt><trkpt lat="43.5655942" lon="11.2689684"><ele>380.0</ele><time>2026-04-18T08:30:28.226Z</time></trkpt><trkpt lat="43.5655304" lon="11.2689859"><ele>380.0</ele><time>2026-04-18T08:30:32.223Z</time></trkpt><trkpt lat="43.5655334" lon="11.2690842"><ele>380.0</ele><time>2026-04-18T08:30:37.224Z</time></trkpt><trkpt lat="43.5655441" lon="11.2691938"><ele>380.0</ele><time>2026-04-18T08:30:40.224Z</time></trkpt><trkpt lat="43.5655443" lon="11.2692822"><ele>380.0</ele><time>2026-04-18T08:30:43.223Z</time></trkpt><trkpt lat="43.5655429" lon="11.269404"><ele>380.0</ele><time>2026-04-18T08:30:46.224Z</time></trkpt><trkpt lat="43.5655368" lon="11.269531"><ele>380.0</ele><time>2026-04-18T08:30:49.224Z</time></trkpt><trkpt lat="43.5655641" lon="11.269659"><ele>379.1666666666667</ele><time>2026-04-18T08:30:52.224Z</time></trkpt><trkpt lat="43.5655704" lon="11.2697808"><ele>378.33333333333337</ele><time>2026-04-18T08:30:55.224Z</time></trkpt><trkpt lat="43.565583" lon="11.2698827"><ele>377.5</ele><time>2026-04-18T08:30:57.224Z</time></trkpt><trkpt lat="43.5656015" lon="11.2699978"><ele>376.6666666666667</ele><time>2026-04-18T08:30:59.223Z</time></trkpt><trkpt lat="43.565625" lon="11.2700796"><ele>375.8333333333333</ele><time>2026-04-18T08:31:01.223Z</time></trkpt><trkpt lat="43.5656529" lon="11.2701723"><ele>375.0</ele><time>2026-04-18T08:31:04.224Z</time></trkpt><trkpt lat="43.5656888" lon="11.2702621"><ele>375.0</ele><time>2026-04-18T08:31:07.224Z</time></trkpt><trkpt lat="43.5657141" lon="11.2703838"><ele>375.0</ele><time>2026-04-18T08:31:10.224Z</time></trkpt><trkpt lat="43.5657574" lon="11.2704911"><ele>375.0</ele><time>2026-04-18T08:31:13.225Z</time></trkpt><trkpt lat="43.5658077" lon="11.2705694"><ele>375.0</ele><time>2026-04-18T08:31:16.224Z</time></trkpt><trkpt lat="43.5658625" lon="11.2706609"><ele>375.0</ele><time>2026-04-18T08:31:19.224Z</time></trkpt><trkpt lat="43.5658993" lon="11.2707354"><ele>375.0</ele><time>2026-04-18T08:31:21.225Z</time></trkpt><trkpt lat="43.5659506" lon="11.2708058"><ele>373.6666666666667</ele><time>2026-04-18T08:31:23.224Z</time></trkpt><trkpt lat="43.5660089" lon="11.2708951"><ele>372.3333333333333</ele><time>2026-04-18T08:31:26.224Z</time></trkpt><trkpt lat="43.566038" lon="11.2709742"><ele>371.0</ele><time>2026-04-18T08:31:29.225Z</time></trkpt><trkpt lat="43.5660668" lon="11.2710925"><ele>369.66666666666663</ele><time>2026-04-18T08:31:32.223Z</time></trkpt><trkpt lat="43.5660643" lon="11.2711857"><ele>368.3333333333333</ele><time>2026-04-18T08:31:41.223Z</time></trkpt><trkpt lat="43.5660464" lon="11.2712811"><ele>367.0</ele><time>2026-04-18T08:31:44.224Z</time></trkpt><trkpt lat="43.5660569" lon="11.2714032"><ele>365.4285714285714</ele><time>2026-04-18T08:31:56.224Z</time></trkpt><trkpt lat="43.5660615" lon="11.2714903"><ele>363.8571428571429</ele><time>2026-04-18T08:31:59.224Z</time></trkpt><trkpt lat="43.5660371" lon="11.2715942"><ele>362.2857142857143</ele><time>2026-04-18T08:32:03.225Z</time></trkpt><trkpt lat="43.5660043" lon="11.2716832"><ele>360.71428571428567</ele><time>2026-04-18T08:32:07.225Z</time></trkpt><trkpt lat="43.5659843" lon="11.2717848"><ele>359.1428571428571</ele><time>2026-04-18T08:32:15.225Z</time></trkpt><trkpt lat="43.5659758" lon="11.2718748"><ele>357.57142857142856</ele><time>2026-04-18T08:32:19.223Z</time></trkpt><trkpt lat="43.5660017" lon="11.2717899"><ele>356.0</ele><time>2026-04-18T08:32:57.224Z</time></trkpt><trkpt lat="43.5660445" lon="11.2717153"><ele>356.0</ele><time>2026-04-18T08:34:10.224Z</time></trkpt><trkpt lat="43.5660849" lon="11.2716395"><ele>356.0</ele><time>2026-04-18T08:34:13.223Z</time></trkpt><trkpt lat="43.5661017" lon="11.2715368"><ele>356.0</ele><time>2026-04-18T08:34:16.224Z</time></trkpt><trkpt lat="43.5661059" lon="11.2714351"><ele>356.0</ele><time>2026-04-18T08:34:19.224Z</time></trkpt><trkpt lat="43.5660951" lon="11.271322"><ele>356.0</ele><time>2026-04-18T08:34:29.223Z</time></trkpt><trkpt lat="43.5661123" lon="11.2712081"><ele>356.0</ele><time>2026-04-18T08:34:32.223Z</time></trkpt><trkpt lat="43.566103" lon="11.2711008"><ele>358.20000000000005</ele><time>2026-04-18T08:34:34.223Z</time></trkpt><trkpt lat="43.5660698" lon="11.2709997"><ele>360.40000000000003</ele><time>2026-04-18T08:34:36.224Z</time></trkpt><trkpt lat="43.566023" lon="11.2708957"><ele>362.6</ele><time>2026-04-18T08:34:39.223Z</time></trkpt><trkpt lat="43.5659553" lon="11.2708022"><ele>364.8</ele><time>2026-04-18T08:34:41.224Z</time></trkpt><trkpt lat="43.5658966" lon="11.2707213"><ele>367.0</ele><time>2026-04-18T08:34:43.223Z</time></trkpt><trkpt lat="43.565819" lon="11.2706257"><ele>368.3333333333333</ele><time>2026-04-18T08:34:45.224Z</time></trkpt><trkpt lat="43.5657709" lon="11.2705466"><ele>369.66666666666663</ele><time>2026-04-18T08:34:47.224Z</time></trkpt><trkpt lat="43.565741" lon="11.2704408"><ele>371.0</ele><time>2026-04-18T08:34:49.223Z</time></trkpt><trkpt lat="43.5657096" lon="11.2703098"><ele>372.3333333333333</ele><time>2026-04-18T08:34:51.224Z</time></trkpt><trkpt lat="43.5656688" lon="11.2702086"><ele>373.6666666666667</ele><time>2026-04-18T08:34:53.223Z</time></trkpt><trkpt lat="43.5656411" lon="11.2701135"><ele>375.0</ele><time>2026-04-18T08:34:55.224Z</time></trkpt><trkpt lat="43.5656063" lon="11.2699815"><ele>375.0</ele><time>2026-04-18T08:34:57.223Z</time></trkpt><trkpt lat="43.5655945" lon="11.2698384"><ele>375.0</ele><time>2026-04-18T08:34:59.223Z</time></trkpt><trkpt lat="43.5655826" lon="11.2697239"><ele>375.0</ele><time>2026-04-18T08:35:01.224Z</time></trkpt><trkpt lat="43.5655667" lon="11.2695939"><ele>375.0</ele><time>2026-04-18T08:35:03.224Z</time></trkpt><trkpt lat="43.5655594" lon="11.2694801"><ele>375.0</ele><time>2026-04-18T08:35:05.225Z</time></trkpt><trkpt lat="43.565558" lon="11.2693865"><ele>375.0</ele><time>2026-04-18T08:35:07.224Z</time></trkpt><trkpt lat="43.5655541" lon="11.2692712"><ele>375.14285714285717</ele><time>2026-04-18T08:35:09.224Z</time></trkpt><trkpt lat="43.5655431" lon="11.2691703"><ele>375.2857142857143</ele><time>2026-04-18T08:35:11.224Z</time></trkpt><trkpt lat="43.5655216" lon="11.2690521"><ele>375.42857142857144</ele><time>2026-04-18T08:35:14.224Z</time></trkpt><trkpt lat="43.565518" lon="11.2689531"><ele>375.57142857142856</ele><time>2026-04-18T08:35:17.223Z</time></trkpt><trkpt lat="43.5655799" lon="11.2689277"><ele>375.71428571428567</ele><time>2026-04-18T08:35:21.224Z</time></trkpt><trkpt lat="43.5655456" lon="11.2690053"><ele>375.85714285714283</ele><time>2026-04-18T08:35:40.224Z</time></trkpt><trkpt lat="43.5654756" lon="11.2690401"><ele>376.0</ele><time>2026-04-18T08:35:42.224Z</time></trkpt><trkpt lat="43.5654183" lon="11.2691189"><ele>378.0</ele><time>2026-04-18T08:35:44.224Z</time></trkpt><trkpt lat="43.5653602" lon="11.2692199"><ele>380.0</ele><time>2026-04-18T08:35:46.223Z</time></trkpt><trkpt lat="43.5652866" lon="11.26937"><ele>382.0</ele><time>2026-04-18T08:35:48.224Z</time></trkpt><trkpt lat="43.5652495" lon="11.2694438"><ele>384.0</ele><time>2026-04-18T08:35:49.224Z</time></trkpt><trkpt lat="43.56517" lon="11.2695685"><ele>386.0</ele><time>2026-04-18T08:35:51.223Z</time></trkpt><trkpt lat="43.5651085" lon="11.2696028"><ele>385.99999999999994</ele><time>2026-04-18T08:35:52.223Z</time></trkpt><trkpt lat="43.5650518" lon="11.2696731"><ele>386.0</ele><time>2026-04-18T08:35:53.224Z</time></trkpt><trkpt lat="43.5649943" lon="11.2697624"><ele>386.0</ele><time>2026-04-18T08:35:54.224Z</time></trkpt><trkpt lat="43.564937" lon="11.2698444"><ele>386.0</ele><time>2026-04-18T08:35:55.223Z</time></trkpt><trkpt lat="43.5648562" lon="11.2699124"><ele>385.99999999999994</ele><time>2026-04-18T08:35:56.223Z</time></trkpt><trkpt lat="43.5647857" lon="11.2699666"><ele>386.0</ele><time>2026-04-18T08:35:57.224Z</time></trkpt><trkpt lat="43.5647089" lon="11.2700213"><ele>384.66666666666663</ele><time>2026-04-18T08:35:58.224Z</time></trkpt><trkpt lat="43.5646395" lon="11.2700464"><ele>383.3333333333333</ele><time>2026-04-18T08:35:59.224Z</time></trkpt><trkpt lat="43.5645607" lon="11.2700815"><ele>382.0</ele><time>2026-04-18T08:36:01.224Z</time></trkpt><trkpt lat="43.5644841" lon="11.2701424"><ele>380.66666666666663</ele><time>2026-04-18T08:36:04.223Z</time></trkpt><trkpt lat="43.5644066" lon="11.2701919"><ele>379.3333333333333</ele><time>2026-04-18T08:36:06.224Z</time></trkpt><trkpt lat="43.5643074" lon="11.2702317"><ele>378.0</ele><time>2026-04-18T08:36:08.224Z</time></trkpt><trkpt lat="43.5642022" lon="11.2702759"><ele>378.0</ele><time>2026-04-18T08:36:10.224Z</time></trkpt><trkpt lat="43.5641379" lon="11.2703277"><ele>378.0</ele><time>2026-04-18T08:36:11.224Z</time></trkpt><trkpt lat="43.564071" lon="11.2703785"><ele>378.0</ele><time>2026-04-18T08:36:12.223Z</time></trkpt><trkpt lat="43.5639565" lon="11.2703974"><ele>378.0</ele><time>2026-04-18T08:36:14.224Z</time></trkpt><trkpt lat="43.5638889" lon="11.2703823"><ele>378.0</ele><time>2026-04-18T08:36:15.224Z</time></trkpt><trkpt lat="43.563824" lon="11.2703797"><ele>378.0</ele><time>2026-04-18T08:36:16.223Z</time></trkpt><trkpt lat="43.5637246" lon="11.2704155"><ele>377.79999999999995</ele><time>2026-04-18T08:36:18.223Z</time></trkpt><trkpt lat="43.563628" lon="11.2704919"><ele>377.6</ele><time>2026-04-18T08:36:20.223Z</time></trkpt><trkpt lat="43.5635768" lon="11.2705432"><ele>377.4</ele><time>2026-04-18T08:36:21.224Z</time></trkpt><trkpt lat="43.5634769" lon="11.2706109"><ele>377.20000000000005</ele><time>2026-04-18T08:36:23.223Z</time></trkpt><trkpt lat="43.5633913" lon="11.2706784"><ele>377.0</ele><time>2026-04-18T08:36:25.223Z</time></trkpt><trkpt lat="43.5633518" lon="11.2708112"><ele>373.8</ele><time>2026-04-18T08:36:27.223Z</time></trkpt><trkpt lat="43.5633361" lon="11.270959"><ele>370.6</ele><time>2026-04-18T08:36:29.224Z</time></trkpt><trkpt lat="43.5633882" lon="11.2710904"><ele>367.40000000000003</ele><time>2026-04-18T08:36:31.224Z</time></trkpt><trkpt lat="43.5634034" lon="11.27124"><ele>364.20000000000005</ele><time>2026-04-18T08:36:33.224Z</time></trkpt><trkpt lat="43.5633952" lon="11.2713796"><ele>361.0</ele><time>2026-04-18T08:36:35.224Z</time></trkpt><trkpt lat="43.5633161" lon="11.2714655"><ele>358.4</ele><time>2026-04-18T08:36:37.223Z</time></trkpt><trkpt lat="43.5632246" lon="11.2715073"><ele>355.8</ele><time>2026-04-18T08:36:39.224Z</time></trkpt><trkpt lat="43.5631229" lon="11.271524"><ele>353.2</ele><time>2026-04-18T08:36:41.223Z</time></trkpt><trkpt lat="43.5630349" lon="11.2715169"><ele>350.59999999999997</ele><time>2026-04-18T08:36:43.224Z</time></trkpt><trkpt lat="43.5629426" lon="11.2715068"><ele>348.0</ele><time>2026-04-18T08:36:45.224Z</time></trkpt><trkpt lat="43.5628287" lon="11.2715019"><ele>347.8333333333333</ele><time>2026-04-18T08:36:47.224Z</time></trkpt><trkpt lat="43.5627486" lon="11.2715172"><ele>347.6666666666667</ele><time>2026-04-18T08:36:50.222Z</time></trkpt><trkpt lat="43.5626842" lon="11.2715233"><ele>347.5</ele><time>2026-04-18T08:36:54.224Z</time></trkpt><trkpt lat="43.5626197" lon="11.2715949"><ele>347.33333333333337</ele><time>2026-04-18T08:37:16.222Z</time></trkpt><trkpt lat="43.5625138" lon="11.2716232"><ele>347.1666666666667</ele><time>2026-04-18T08:37:18.224Z</time></trkpt><trkpt lat="43.5624161" lon="11.2716464"><ele>347.0</ele><time>2026-04-18T08:37:20.224Z</time></trkpt><trkpt lat="43.5623122" lon="11.2716598"><ele>347.0</ele><time>2026-04-18T08:37:22.224Z</time></trkpt><trkpt lat="43.5622238" lon="11.2716673"><ele>347.0</ele><time>2026-04-18T08:37:24.224Z</time></trkpt><trkpt lat="43.5621454" lon="11.2716493"><ele>347.0</ele><time>2026-04-18T08:37:26.223Z</time></trkpt><trkpt lat="43.5620714" lon="11.2716"><ele>347.0</ele><time>2026-04-18T08:37:28.223Z</time></trkpt><trkpt lat="43.5619968" lon="11.2715012"><ele>347.0</ele><time>2026-04-18T08:37:30.223Z</time></trkpt><trkpt lat="43.5619233" lon="11.2714063"><ele>348.8</ele><time>2026-04-18T08:37:32.224Z</time></trkpt><trkpt lat="43.5618588" lon="11.2713594"><ele>350.6</ele><time>2026-04-18T08:37:33.224Z</time></trkpt><trkpt lat="43.5617729" lon="11.271303"><ele>352.40000000000003</ele><time>2026-04-18T08:37:35.224Z</time></trkpt><trkpt lat="43.5616425" lon="11.2713148"><ele>354.20000000000005</ele><time>2026-04-18T08:37:37.224Z</time></trkpt><trkpt lat="43.5615517" lon="11.2713368"><ele>356.0</ele><time>2026-04-18T08:37:38.223Z</time></trkpt><trkpt lat="43.5614698" lon="11.2713519"><ele>356.0</ele><time>2026-04-18T08:37:39.224Z</time></trkpt><trkpt lat="43.5613736" lon="11.271383"><ele>356.0</ele><time>2026-04-18T08:37:41.224Z</time></trkpt><trkpt lat="43.5613006" lon="11.2714396"><ele>356.0</ele><time>2026-04-18T08:37:43.223Z</time></trkpt><trkpt lat="43.561204" lon="11.2713956"><ele>356.0</ele><time>2026-04-18T08:37:46.224Z</time></trkpt><trkpt lat="43.5611219" lon="11.2713399"><ele>356.0</ele><time>2026-04-18T08:37:48.222Z</time></trkpt><trkpt lat="43.5610081" lon="11.2713493"><ele>354.1666666666667</ele><time>2026-04-18T08:37:50.224Z</time></trkpt><trkpt lat="43.5609057" lon="11.2713866"><ele>352.33333333333337</ele><time>2026-04-18T08:37:52.224Z</time></trkpt><trkpt lat="43.5608199" lon="11.2714237"><ele>350.5</ele><time>2026-04-18T08:37:54.224Z</time></trkpt><trkpt lat="43.5607645" lon="11.2714844"><ele>348.6666666666667</ele><time>2026-04-18T08:37:56.224Z</time></trkpt><trkpt lat="43.5606987" lon="11.2715289"><ele>346.8333333333333</ele><time>2026-04-18T08:37:58.223Z</time></trkpt><trkpt lat="43.5606021" lon="11.2715733"><ele>345.0</ele><time>2026-04-18T08:38:00.224Z</time></trkpt><trkpt lat="43.5605002" lon="11.2715986"><ele>341.6</ele><time>2026-04-18T08:38:02.223Z</time></trkpt><trkpt lat="43.560391" lon="11.2715975"><ele>338.2</ele><time>2026-04-18T08:38:04.224Z</time></trkpt><trkpt lat="43.5602795" lon="11.2716012"><ele>334.79999999999995</ele><time>2026-04-18T08:38:06.223Z</time></trkpt><trkpt lat="43.5601681" lon="11.2716018"><ele>331.4</ele><time>2026-04-18T08:38:08.223Z</time></trkpt><trkpt lat="43.5600796" lon="11.2716196"><ele>328.0</ele><time>2026-04-18T08:38:10.224Z</time></trkpt><trkpt lat="43.5599604" lon="11.2716458"><ele>326.16666666666663</ele><time>2026-04-18T08:38:12.223Z</time></trkpt><trkpt lat="43.5598961" lon="11.2716551"><ele>324.3333333333333</ele><time>2026-04-18T08:38:13.223Z</time></trkpt><trkpt lat="43.5598333" lon="11.2716829"><ele>322.5</ele><time>2026-04-18T08:38:14.224Z</time></trkpt><trkpt lat="43.5597704" lon="11.2717005"><ele>320.6666666666667</ele><time>2026-04-18T08:38:15.223Z</time></trkpt><trkpt lat="43.5597006" lon="11.2717259"><ele>318.83333333333337</ele><time>2026-04-18T08:38:16.224Z</time></trkpt><trkpt lat="43.5595827" lon="11.2717468"><ele>317.0</ele><time>2026-04-18T08:38:18.224Z</time></trkpt><trkpt lat="43.5594705" lon="11.2717814"><ele>313.0</ele><time>2026-04-18T08:38:20.223Z</time></trkpt><trkpt lat="43.5593507" lon="11.271808"><ele>309.0</ele><time>2026-04-18T08:38:22.224Z</time></trkpt><trkpt lat="43.559235" lon="11.2718218"><ele>305.0</ele><time>2026-04-18T08:38:24.223Z</time></trkpt><trkpt lat="43.5591385" lon="11.2718451"><ele>301.0</ele><time>2026-04-18T08:38:26.223Z</time></trkpt><trkpt lat="43.5590327" lon="11.2719044"><ele>301.0</ele><time>2026-04-18T08:38:28.223Z</time></trkpt><trkpt lat="43.5589407" lon="11.2719491"><ele>301.0</ele><time>2026-04-18T08:38:30.223Z</time></trkpt><trkpt lat="43.55886" lon="11.2719492"><ele>301.0</ele><time>2026-04-18T08:38:32.222Z</time></trkpt><trkpt lat="43.558775" lon="11.2719743"><ele>301.0</ele><time>2026-04-18T08:38:34.223Z</time></trkpt><trkpt lat="43.5587328" lon="11.2720652"><ele>301.0</ele><time>2026-04-18T08:38:36.223Z</time></trkpt><trkpt lat="43.5587242" lon="11.2721909"><ele>301.0</ele><time>2026-04-18T08:38:38.223Z</time></trkpt><trkpt lat="43.558789" lon="11.2722953"><ele>298.2</ele><time>2026-04-18T08:38:40.222Z</time></trkpt><trkpt lat="43.558874" lon="11.2723608"><ele>295.40000000000003</ele><time>2026-04-18T08:38:42.223Z</time></trkpt><trkpt lat="43.5589695" lon="11.2724181"><ele>292.6</ele><time>2026-04-18T08:38:44.224Z</time></trkpt><trkpt lat="43.5590632" lon="11.2724797"><ele>289.8</ele><time>2026-04-18T08:38:46.224Z</time></trkpt><trkpt lat="43.5591516" lon="11.2725103"><ele>287.0</ele><time>2026-04-18T08:38:48.223Z</time></trkpt><trkpt lat="43.5592434" lon="11.2725241"><ele>287.0</ele><time>2026-04-18T08:38:50.223Z</time></trkpt><trkpt lat="43.5593087" lon="11.2725926"><ele>287.0</ele><time>2026-04-18T08:38:52.223Z</time></trkpt><trkpt lat="43.5593859" lon="11.2727085"><ele>287.0</ele><time>2026-04-18T08:38:54.223Z</time></trkpt><trkpt lat="43.5594437" lon="11.2728281"><ele>287.0</ele><time>2026-04-18T08:38:56.223Z</time></trkpt><trkpt lat="43.5594794" lon="11.2729068"><ele>287.0</ele><time>2026-04-18T08:38:59.223Z</time></trkpt><trkpt lat="43.5595334" lon="11.2729914"><ele>287.0</ele><time>2026-04-18T08:39:02.223Z</time></trkpt><trkpt lat="43.559595" lon="11.2730322"><ele>287.5</ele><time>2026-04-18T08:39:04.224Z</time></trkpt><trkpt lat="43.5596767" lon="11.2730667"><ele>288.0</ele><time>2026-04-18T08:39:06.223Z</time></trkpt><trkpt lat="43.5597577" lon="11.2731255"><ele>288.5</ele><time>2026-04-18T08:39:08.223Z</time></trkpt><trkpt lat="43.5598355" lon="11.2731597"><ele>289.0</ele><time>2026-04-18T08:39:10.224Z</time></trkpt><trkpt lat="43.5599149" lon="11.273199"><ele>289.5</ele><time>2026-04-18T08:39:12.224Z</time></trkpt><trkpt lat="43.5599855" lon="11.2732233"><ele>290.0</ele><time>2026-04-18T08:39:14.224Z</time></trkpt><trkpt lat="43.5600643" lon="11.2732402"><ele>290.0</ele><time>2026-04-18T08:39:16.223Z</time></trkpt><trkpt lat="43.5601898" lon="11.2732709"><ele>290.0</ele><time>2026-04-18T08:39:18.224Z</time></trkpt><trkpt lat="43.5602825" lon="11.2733415"><ele>290.0</ele><time>2026-04-18T08:39:20.223Z</time></trkpt><trkpt lat="43.5603638" lon="11.2734082"><ele>290.0</ele><time>2026-04-18T08:39:22.223Z</time></trkpt><trkpt lat="43.560485" lon="11.2734486"><ele>291.4</ele><time>2026-04-18T08:39:24.223Z</time></trkpt><trkpt lat="43.5605903" lon="11.2734582"><ele>292.8</ele><time>2026-04-18T08:39:26.224Z</time></trkpt><trkpt lat="43.5606981" lon="11.2734737"><ele>294.2</ele><time>2026-04-18T08:39:28.224Z</time></trkpt><trkpt lat="43.5608017" lon="11.2735022"><ele>295.6</ele><time>2026-04-18T08:39:30.223Z</time></trkpt><trkpt lat="43.5608823" lon="11.2735525"><ele>297.0</ele><time>2026-04-18T08:39:32.223Z</time></trkpt><trkpt lat="43.5609228" lon="11.2736383"><ele>297.0</ele><time>2026-04-18T08:39:34.224Z</time></trkpt><trkpt lat="43.560916" lon="11.2737604"><ele>297.0</ele><time>2026-04-18T08:39:36.224Z</time></trkpt><trkpt lat="43.5608728" lon="11.2738861"><ele>297.0</ele><time>2026-04-18T08:39:38.224Z</time></trkpt><trkpt lat="43.5608341" lon="11.2740133"><ele>297.0</ele><time>2026-04-18T08:39:40.223Z</time></trkpt><trkpt lat="43.560826" lon="11.2741589"><ele>297.0</ele><time>2026-04-18T08:39:42.224Z</time></trkpt><trkpt lat="43.5608466" lon="11.2743329"><ele>299.6</ele><time>2026-04-18T08:39:44.225Z</time></trkpt><trkpt lat="43.5608604" lon="11.2744214"><ele>302.2</ele><time>2026-04-18T08:39:45.223Z</time></trkpt><trkpt lat="43.5608863" lon="11.274561"><ele>304.8</ele><time>2026-04-18T08:39:47.223Z</time></trkpt><trkpt lat="43.5609191" lon="11.2747002"><ele>307.4</ele><time>2026-04-18T08:39:49.223Z</time></trkpt><trkpt lat="43.5609821" lon="11.2748241"><ele>310.0</ele><time>2026-04-18T08:39:51.223Z</time></trkpt><trkpt lat="43.5610329" lon="11.2749443"><ele>310.8333333333333</ele><time>2026-04-18T08:39:53.224Z</time></trkpt><trkpt lat="43.5610646" lon="11.27502"><ele>311.66666666666663</ele><time>2026-04-18T08:39:54.225Z</time></trkpt><trkpt lat="43.5610888" lon="11.2751034"><ele>312.5</ele><time>2026-04-18T08:39:55.222Z</time></trkpt><trkpt lat="43.5611497" lon="11.2752519"><ele>313.3333333333333</ele><time>2026-04-18T08:39:57.223Z</time></trkpt><trkpt lat="43.5612022" lon="11.2753931"><ele>314.1666666666667</ele><time>2026-04-18T08:39:59.223Z</time></trkpt><trkpt lat="43.5612399" lon="11.275469"><ele>315.0</ele><time>2026-04-18T08:40:00.222Z</time></trkpt><trkpt lat="43.5612817" lon="11.2755388"><ele>319.4</ele><time>2026-04-18T08:40:01.223Z</time></trkpt><trkpt lat="43.5613606" lon="11.2756532"><ele>323.8</ele><time>2026-04-18T08:40:03.222Z</time></trkpt><trkpt lat="43.5614207" lon="11.2757863"><ele>328.20000000000005</ele><time>2026-04-18T08:40:05.224Z</time></trkpt><trkpt lat="43.5614792" lon="11.2759459"><ele>332.6</ele><time>2026-04-18T08:40:07.223Z</time></trkpt><trkpt lat="43.5615069" lon="11.2760373"><ele>337.0</ele><time>2026-04-18T08:40:08.224Z</time></trkpt><trkpt lat="43.5615288" lon="11.2761279"><ele>337.0</ele><time>2026-04-18T08:40:09.223Z</time></trkpt><trkpt lat="43.5615587" lon="11.2762251"><ele>337.0</ele><time>2026-04-18T08:40:10.223Z</time></trkpt><trkpt lat="43.5615811" lon="11.2763063"><ele>337.0</ele><time>2026-04-18T08:40:11.223Z</time></trkpt><trkpt lat="43.5616139" lon="11.2764814"><ele>337.0</ele><time>2026-04-18T08:40:13.223Z</time></trkpt><trkpt lat="43.5616473" lon="11.2765964"><ele>337.0</ele><time>2026-04-18T08:40:14.224Z</time></trkpt><trkpt lat="43.5616719" lon="11.2767011"><ele>337.0</ele><time>2026-04-18T08:40:15.223Z</time></trkpt><trkpt lat="43.5616929" lon="11.276803"><ele>337.16666666666663</ele><time>2026-04-18T08:40:16.222Z</time></trkpt><trkpt lat="43.5617218" lon="11.2769463"><ele>337.3333333333333</ele><time>2026-04-18T08:40:18.222Z</time></trkpt><trkpt lat="43.5617733" lon="11.2770781"><ele>337.5</ele><time>2026-04-18T08:40:20.224Z</time></trkpt><trkpt lat="43.5618107" lon="11.2771562"><ele>337.6666666666667</ele><time>2026-04-18T08:40:21.224Z</time></trkpt><trkpt lat="43.5618533" lon="11.2772387"><ele>337.83333333333337</ele><time>2026-04-18T08:40:22.224Z</time></trkpt><trkpt lat="43.5618949" lon="11.2773214"><ele>338.0</ele><time>2026-04-18T08:40:23.223Z</time></trkpt><trkpt lat="43.5619344" lon="11.2774053"><ele>338.0</ele><time>2026-04-18T08:40:24.223Z</time></trkpt><trkpt lat="43.5619813" lon="11.2774899"><ele>338.0</ele><time>2026-04-18T08:40:25.222Z</time></trkpt><trkpt lat="43.5620302" lon="11.2775796"><ele>338.0</ele><time>2026-04-18T08:40:26.223Z</time></trkpt><trkpt lat="43.5620853" lon="11.2776688"><ele>338.0</ele><time>2026-04-18T08:40:27.222Z</time></trkpt><trkpt lat="43.5621391" lon="11.2777626"><ele>338.0</ele><time>2026-04-18T08:40:28.223Z</time></trkpt><trkpt lat="43.5621884" lon="11.2778512"><ele>338.0</ele><time>2026-04-18T08:40:29.222Z</time></trkpt><trkpt lat="43.5622466" lon="11.2779469"><ele>341.5</ele><time>2026-04-18T08:40:30.223Z</time></trkpt><trkpt lat="43.5622981" lon="11.2780459"><ele>345.0</ele><time>2026-04-18T08:40:31.224Z</time></trkpt><trkpt lat="43.5623565" lon="11.2781475"><ele>348.5</ele><time>2026-04-18T08:40:32.222Z</time></trkpt><trkpt lat="43.5624017" lon="11.2782347"><ele>352.0</ele><time>2026-04-18T08:40:33.224Z</time></trkpt><trkpt lat="43.5624365" lon="11.2783129"><ele>355.5</ele><time>2026-04-18T08:40:34.224Z</time></trkpt><trkpt lat="43.562464" lon="11.2783941"><ele>359.0</ele><time>2026-04-18T08:40:35.222Z</time></trkpt><trkpt lat="43.5625515" lon="11.2785264"><ele>359.0</ele><time>2026-04-18T08:40:37.223Z</time></trkpt><trkpt lat="43.5625999" lon="11.2785876"><ele>359.0</ele><time>2026-04-18T08:40:38.223Z</time></trkpt><trkpt lat="43.5626584" lon="11.2786604"><ele>359.0</ele><time>2026-04-18T08:40:39.224Z</time></trkpt><trkpt lat="43.5627464" lon="11.2787565"><ele>359.0</ele><time>2026-04-18T08:40:41.223Z</time></trkpt><trkpt lat="43.5628694" lon="11.2788451"><ele>359.0</ele><time>2026-04-18T08:40:43.223Z</time></trkpt><trkpt lat="43.5629422" lon="11.2788713"><ele>361.6</ele><time>2026-04-18T08:40:44.223Z</time></trkpt><trkpt lat="43.5630204" lon="11.2788806"><ele>364.2</ele><time>2026-04-18T08:40:45.224Z</time></trkpt><trkpt lat="43.563119" lon="11.2788832"><ele>366.8</ele><time>2026-04-18T08:40:46.223Z</time></trkpt><trkpt lat="43.5632086" lon="11.2788923"><ele>369.40000000000003</ele><time>2026-04-18T08:40:47.224Z</time></trkpt><trkpt lat="43.5632814" lon="11.2788875"><ele>372.0</ele><time>2026-04-18T08:40:48.222Z</time></trkpt><trkpt lat="43.5633882" lon="11.278923"><ele>371.6</ele><time>2026-04-18T08:40:50.223Z</time></trkpt><trkpt lat="43.5634896" lon="11.2789504"><ele>371.20000000000005</ele><time>2026-04-18T08:40:52.224Z</time></trkpt><trkpt lat="43.5635682" lon="11.2790127"><ele>370.8</ele><time>2026-04-18T08:40:55.223Z</time></trkpt><trkpt lat="43.563617" lon="11.2791"><ele>370.4</ele><time>2026-04-18T08:40:57.222Z</time></trkpt><trkpt lat="43.5636668" lon="11.2792333"><ele>370.0</ele><time>2026-04-18T08:40:59.222Z</time></trkpt><trkpt lat="43.5637256" lon="11.2793879"><ele>371.2</ele><time>2026-04-18T08:41:01.224Z</time></trkpt><trkpt lat="43.5637879" lon="11.2795189"><ele>372.4</ele><time>2026-04-18T08:41:03.222Z</time></trkpt><trkpt lat="43.5638255" lon="11.2796141"><ele>373.6</ele><time>2026-04-18T08:41:05.223Z</time></trkpt><trkpt lat="43.5638674" lon="11.2797034"><ele>374.8</ele><time>2026-04-18T08:41:07.223Z</time></trkpt><trkpt lat="43.5639537" lon="11.2797917"><ele>376.0</ele><time>2026-04-18T08:41:09.223Z</time></trkpt><trkpt lat="43.5640464" lon="11.2798845"><ele>376.66666666666663</ele><time>2026-04-18T08:41:11.223Z</time></trkpt><trkpt lat="43.5640962" lon="11.2799384"><ele>377.3333333333333</ele><time>2026-04-18T08:41:12.223Z</time></trkpt><trkpt lat="43.5641543" lon="11.2799888"><ele>378.0</ele><time>2026-04-18T08:41:13.223Z</time></trkpt><trkpt lat="43.5642546" lon="11.2801025"><ele>378.6666666666667</ele><time>2026-04-18T08:41:15.223Z</time></trkpt><trkpt lat="43.564295" lon="11.2801843"><ele>379.33333333333337</ele><time>2026-04-18T08:41:16.223Z</time></trkpt><trkpt lat="43.5643363" lon="11.2802719"><ele>380.0</ele><time>2026-04-18T08:41:17.222Z</time></trkpt><trkpt lat="43.564376" lon="11.280359"><ele>380.0</ele><time>2026-04-18T08:41:18.223Z</time></trkpt><trkpt lat="43.5643896" lon="11.2804957"><ele>380.0</ele><time>2026-04-18T08:41:20.223Z</time></trkpt><trkpt lat="43.5643168" lon="11.2806147"><ele>380.0</ele><time>2026-04-18T08:41:22.223Z</time></trkpt><trkpt lat="43.5642554" lon="11.2806688"><ele>380.0</ele><time>2026-04-18T08:41:23.222Z</time></trkpt><trkpt lat="43.5641901" lon="11.2807538"><ele>380.0</ele><time>2026-04-18T08:41:24.223Z</time></trkpt><trkpt lat="43.5641215" lon="11.2808533"><ele>381.2</ele><time>2026-04-18T08:41:25.223Z</time></trkpt><trkpt lat="43.5640598" lon="11.280958"><ele>382.4</ele><time>2026-04-18T08:41:26.222Z</time></trkpt><trkpt lat="43.5639882" lon="11.2810452"><ele>383.6</ele><time>2026-04-18T08:41:27.224Z</time></trkpt><trkpt lat="43.5639296" lon="11.2811053"><ele>384.8</ele><time>2026-04-18T08:41:28.223Z</time></trkpt><trkpt lat="43.563846" lon="11.2812115"><ele>386.0</ele><time>2026-04-18T08:41:30.224Z</time></trkpt><trkpt lat="43.5638519" lon="11.2813641"><ele>387.99999999999994</ele><time>2026-04-18T08:41:32.222Z</time></trkpt><trkpt lat="43.5638777" lon="11.2814452"><ele>390.0</ele><time>2026-04-18T08:41:33.222Z</time></trkpt><trkpt lat="43.5639127" lon="11.281538"><ele>392.0</ele><time>2026-04-18T08:41:34.223Z</time></trkpt><trkpt lat="43.5639595" lon="11.2816502"><ele>394.0</ele><time>2026-04-18T08:41:35.222Z</time></trkpt><trkpt lat="43.5640073" lon="11.2817689"><ele>395.99999999999994</ele><time>2026-04-18T08:41:36.225Z</time></trkpt><trkpt lat="43.5640541" lon="11.2818847"><ele>398.0</ele><time>2026-04-18T08:41:37.223Z</time></trkpt><trkpt lat="43.5641015" lon="11.2820095"><ele>398.0</ele><time>2026-04-18T08:41:38.223Z</time></trkpt><trkpt lat="43.5641532" lon="11.2821479"><ele>398.0</ele><time>2026-04-18T08:41:39.223Z</time></trkpt><trkpt lat="43.5642035" lon="11.2822848"><ele>398.0</ele><time>2026-04-18T08:41:40.223Z</time></trkpt><trkpt lat="43.5642454" lon="11.2824202"><ele>398.0</ele><time>2026-04-18T08:41:41.222Z</time></trkpt><trkpt lat="43.5642757" lon="11.2825594"><ele>398.0</ele><time>2026-04-18T08:41:42.223Z</time></trkpt><trkpt lat="43.5642998" lon="11.2827143"><ele>400.5</ele><time>2026-04-18T08:41:43.223Z</time></trkpt><trkpt lat="43.5643279" lon="11.2828688"><ele>403.0</ele><time>2026-04-18T08:41:44.222Z</time></trkpt><trkpt lat="43.5643699" lon="11.2830172"><ele>405.5</ele><time>2026-04-18T08:41:45.222Z</time></trkpt><trkpt lat="43.5644238" lon="11.2831583"><ele>408.0</ele><time>2026-04-18T08:41:46.223Z</time></trkpt><trkpt lat="43.5644682" lon="11.2832903"><ele>408.8333333333333</ele><time>2026-04-18T08:41:47.222Z</time></trkpt><trkpt lat="43.5645065" lon="11.2834048"><ele>409.66666666666663</ele><time>2026-04-18T08:41:48.223Z</time></trkpt><trkpt lat="43.5645412" lon="11.2835003"><ele>410.5</ele><time>2026-04-18T08:41:49.224Z</time></trkpt><trkpt lat="43.5645517" lon="11.2835921"><ele>411.3333333333333</ele><time>2026-04-18T08:41:50.223Z</time></trkpt><trkpt lat="43.5645599" lon="11.2836887"><ele>412.16666666666663</ele><time>2026-04-18T08:41:51.223Z</time></trkpt><trkpt lat="43.5645708" lon="11.2838457"><ele>413.0</ele><time>2026-04-18T08:41:53.221Z</time></trkpt><trkpt lat="43.5645946" lon="11.2840147"><ele>415.49999999999994</ele><time>2026-04-18T08:41:55.223Z</time></trkpt><trkpt lat="43.5646161" lon="11.284117"><ele>418.0</ele><time>2026-04-18T08:41:56.222Z</time></trkpt><trkpt lat="43.56464" lon="11.2842315"><ele>420.5</ele><time>2026-04-18T08:41:57.222Z</time></trkpt><trkpt lat="43.5646678" lon="11.2843455"><ele>423.0</ele><time>2026-04-18T08:41:58.223Z</time></trkpt><trkpt lat="43.5646931" lon="11.2844695"><ele>425.49999999999994</ele><time>2026-04-18T08:41:59.222Z</time></trkpt><trkpt lat="43.5647132" lon="11.2845972"><ele>428.0</ele><time>2026-04-18T08:42:00.223Z</time></trkpt><trkpt lat="43.5647344" lon="11.2847279"><ele>429.4</ele><time>2026-04-18T08:42:01.223Z</time></trkpt><trkpt lat="43.5647516" lon="11.2848602"><ele>430.79999999999995</ele><time>2026-04-18T08:42:02.224Z</time></trkpt><trkpt lat="43.5647663" lon="11.2849867"><ele>432.2</ele><time>2026-04-18T08:42:03.223Z</time></trkpt><trkpt lat="43.5647771" lon="11.2851154"><ele>433.6</ele><time>2026-04-18T08:42:04.223Z</time></trkpt><trkpt lat="43.5647835" lon="11.2852634"><ele>435.0</ele><time>2026-04-18T08:42:05.223Z</time></trkpt><trkpt lat="43.5647845" lon="11.2853999"><ele>435.0</ele><time>2026-04-18T08:42:06.222Z</time></trkpt><trkpt lat="43.5648023" lon="11.2855371"><ele>435.0</ele><time>2026-04-18T08:42:07.223Z</time></trkpt><trkpt lat="43.5648157" lon="11.2856776"><ele>435.0</ele><time>2026-04-18T08:42:08.223Z</time></trkpt><trkpt lat="43.564815" lon="11.285824"><ele>435.0</ele><time>2026-04-18T08:42:09.223Z</time></trkpt><trkpt lat="43.5647971" lon="11.2859649"><ele>435.0</ele><time>2026-04-18T08:42:10.223Z</time></trkpt><trkpt lat="43.5647743" lon="11.2861144"><ele>436.5</ele><time>2026-04-18T08:42:11.223Z</time></trkpt><trkpt lat="43.5647515" lon="11.2862657"><ele>438.0</ele><time>2026-04-18T08:42:12.223Z</time></trkpt><trkpt lat="43.5647264" lon="11.286415"><ele>439.5</ele><time>2026-04-18T08:42:13.222Z</time></trkpt><trkpt lat="43.564703" lon="11.2865677"><ele>441.0</ele><time>2026-04-18T08:42:14.223Z</time></trkpt><trkpt lat="43.564688" lon="11.2867291"><ele>441.0</ele><time>2026-04-18T08:42:15.223Z</time></trkpt><trkpt lat="43.5646874" lon="11.2869001"><ele>441.0</ele><time>2026-04-18T08:42:16.224Z</time></trkpt><trkpt lat="43.5646945" lon="11.287077"><ele>441.0</ele><time>2026-04-18T08:42:17.222Z</time></trkpt><trkpt lat="43.5646862" lon="11.28724"><ele>441.0</ele><time>2026-04-18T08:42:18.223Z</time></trkpt><trkpt lat="43.5646668" lon="11.2873922"><ele>441.20000000000005</ele><time>2026-04-18T08:42:19.223Z</time></trkpt><trkpt lat="43.5646258" lon="11.2875465"><ele>441.40000000000003</ele><time>2026-04-18T08:42:20.222Z</time></trkpt><trkpt lat="43.5645861" lon="11.2876949"><ele>441.6</ele><time>2026-04-18T08:42:21.222Z</time></trkpt><trkpt lat="43.5645425" lon="11.2878268"><ele>441.8</ele><time>2026-04-18T08:42:22.223Z</time></trkpt><trkpt lat="43.5645109" lon="11.2879407"><ele>442.0</ele><time>2026-04-18T08:42:23.223Z</time></trkpt><trkpt lat="43.5644771" lon="11.2880383"><ele>442.8</ele><time>2026-04-18T08:42:24.224Z</time></trkpt><trkpt lat="43.5644138" lon="11.2881655"><ele>443.6</ele><time>2026-04-18T08:42:26.222Z</time></trkpt><trkpt lat="43.5643485" lon="11.2881795"><ele>444.40000000000003</ele><time>2026-04-18T08:42:28.223Z</time></trkpt><trkpt lat="43.5642813" lon="11.2881076"><ele>445.20000000000005</ele><time>2026-04-18T08:42:30.223Z</time></trkpt><trkpt lat="43.5642127" lon="11.2879578"><ele>446.0</ele><time>2026-04-18T08:42:32.222Z</time></trkpt><trkpt lat="43.5641622" lon="11.2878797"><ele>445.99999999999994</ele><time>2026-04-18T08:42:33.223Z</time></trkpt><trkpt lat="43.5641179" lon="11.2877951"><ele>446.0</ele><time>2026-04-18T08:42:34.222Z</time></trkpt><trkpt lat="43.5640716" lon="11.2877198"><ele>446.0</ele><time>2026-04-18T08:42:35.223Z</time></trkpt><trkpt lat="43.5640136" lon="11.2876402"><ele>446.0</ele><time>2026-04-18T08:42:36.224Z</time></trkpt><trkpt lat="43.5639594" lon="11.2875609"><ele>445.99999999999994</ele><time>2026-04-18T08:42:37.223Z</time></trkpt><trkpt lat="43.5639041" lon="11.2874823"><ele>446.0</ele><time>2026-04-18T08:42:38.222Z</time></trkpt><trkpt lat="43.563838" lon="11.2874131"><ele>446.0</ele><time>2026-04-18T08:42:39.223Z</time></trkpt><trkpt lat="43.5637524" lon="11.2873499"><ele>446.0</ele><time>2026-04-18T08:42:40.223Z</time></trkpt><trkpt lat="43.5636685" lon="11.2873135"><ele>446.0</ele><time>2026-04-18T08:42:41.222Z</time></trkpt><trkpt lat="43.5635822" lon="11.2872878"><ele>446.0</ele><time>2026-04-18T08:42:42.223Z</time></trkpt><trkpt lat="43.563494" lon="11.2872705"><ele>446.0</ele><time>2026-04-18T08:42:43.222Z</time></trkpt><trkpt lat="43.5634045" lon="11.2872522"><ele>445.49999999999994</ele><time>2026-04-18T08:42:44.223Z</time></trkpt><trkpt lat="43.5633104" lon="11.2872366"><ele>445.0</ele><time>2026-04-18T08:42:45.223Z</time></trkpt><trkpt lat="43.5632242" lon="11.2872232"><ele>444.5</ele><time>2026-04-18T08:42:46.223Z</time></trkpt><trkpt lat="43.5631408" lon="11.287207"><ele>444.0</ele><time>2026-04-18T08:42:47.223Z</time></trkpt><trkpt lat="43.5630602" lon="11.287207"><ele>443.49999999999994</ele><time>2026-04-18T08:42:48.223Z</time></trkpt><trkpt lat="43.5629943" lon="11.2872211"><ele>443.0</ele><time>2026-04-18T08:42:49.223Z</time></trkpt><trkpt lat="43.5629216" lon="11.287256"><ele>443.57142857142856</ele><time>2026-04-18T08:42:50.223Z</time></trkpt><trkpt lat="43.5628622" lon="11.2873057"><ele>444.14285714285717</ele><time>2026-04-18T08:42:51.223Z</time></trkpt><trkpt lat="43.5628073" lon="11.2873587"><ele>444.71428571428567</ele><time>2026-04-18T08:42:52.222Z</time></trkpt><trkpt lat="43.5627524" lon="11.2874083"><ele>445.2857142857143</ele><time>2026-04-18T08:42:53.223Z</time></trkpt><trkpt lat="43.5626926" lon="11.2874503"><ele>445.85714285714283</ele><time>2026-04-18T08:42:54.222Z</time></trkpt><trkpt lat="43.5626228" lon="11.2874908"><ele>446.4285714285714</ele><time>2026-04-18T08:42:55.223Z</time></trkpt><trkpt lat="43.5625456" lon="11.2875263"><ele>447.0</ele><time>2026-04-18T08:42:56.223Z</time></trkpt><trkpt lat="43.562468" lon="11.2875558"><ele>447.0</ele><time>2026-04-18T08:42:57.223Z</time></trkpt><trkpt lat="43.562387" lon="11.2875881"><ele>447.0</ele><time>2026-04-18T08:42:58.223Z</time></trkpt><trkpt lat="43.5623103" lon="11.287629"><ele>447.0</ele><time>2026-04-18T08:42:59.223Z</time></trkpt><trkpt lat="43.5622439" lon="11.2876579"><ele>447.0</ele><time>2026-04-18T08:43:00.222Z</time></trkpt><trkpt lat="43.5621519" lon="11.2877155"><ele>447.0</ele><time>2026-04-18T08:43:02.223Z</time></trkpt><trkpt lat="43.5620889" lon="11.287733"><ele>447.0</ele><time>2026-04-18T08:43:04.223Z</time></trkpt><trkpt lat="43.5620474" lon="11.2878318"><ele>447.0</ele><time>2026-04-18T08:43:07.222Z</time></trkpt><trkpt lat="43.562057" lon="11.2879438"><ele>447.0</ele><time>2026-04-18T08:43:09.223Z</time></trkpt><trkpt lat="43.5620689" lon="11.2880698"><ele>447.0</ele><time>2026-04-18T08:43:11.224Z</time></trkpt><trkpt lat="43.5620913" lon="11.2881625"><ele>447.0</ele><time>2026-04-18T08:43:13.223Z</time></trkpt><trkpt lat="43.5621374" lon="11.2882438"><ele>447.0</ele><time>2026-04-18T08:43:16.224Z</time></trkpt><trkpt lat="43.5621841" lon="11.2883597"><ele>447.0</ele><time>2026-04-18T08:43:19.222Z</time></trkpt><trkpt lat="43.5621792" lon="11.2884833"><ele>445.20000000000005</ele><time>2026-04-18T08:43:21.223Z</time></trkpt><trkpt lat="43.5621742" lon="11.2886298"><ele>443.40000000000003</ele><time>2026-04-18T08:43:23.223Z</time></trkpt><trkpt lat="43.5621707" lon="11.2887805"><ele>441.59999999999997</ele><time>2026-04-18T08:43:25.223Z</time></trkpt><trkpt lat="43.5621621" lon="11.2889369"><ele>439.79999999999995</ele><time>2026-04-18T08:43:27.222Z</time></trkpt><trkpt lat="43.5621378" lon="11.2890745"><ele>438.0</ele><time>2026-04-18T08:43:29.224Z</time></trkpt><trkpt lat="43.5621062" lon="11.2892196"><ele>437.59999999999997</ele><time>2026-04-18T08:43:31.223Z</time></trkpt><trkpt lat="43.5620479" lon="11.2893646"><ele>437.19999999999993</ele><time>2026-04-18T08:43:33.224Z</time></trkpt><trkpt lat="43.5619681" lon="11.2894553"><ele>436.8</ele><time>2026-04-18T08:43:35.223Z</time></trkpt><trkpt lat="43.561869" lon="11.2894975"><ele>436.4</ele><time>2026-04-18T08:43:37.222Z</time></trkpt><trkpt lat="43.5617713" lon="11.2895446"><ele>436.0</ele><time>2026-04-18T08:43:39.223Z</time></trkpt><trkpt lat="43.5616791" lon="11.2895942"><ele>434.8</ele><time>2026-04-18T08:43:41.223Z</time></trkpt><trkpt lat="43.5616032" lon="11.2896418"><ele>433.6</ele><time>2026-04-18T08:43:43.222Z</time></trkpt><trkpt lat="43.5615158" lon="11.2896736"><ele>432.4</ele><time>2026-04-18T08:43:45.223Z</time></trkpt><trkpt lat="43.5614172" lon="11.2896844"><ele>431.2</ele><time>2026-04-18T08:43:47.223Z</time></trkpt><trkpt lat="43.5613118" lon="11.2897045"><ele>430.0</ele><time>2026-04-18T08:43:49.222Z</time></trkpt><trkpt lat="43.5611954" lon="11.2897458"><ele>429.4</ele><time>2026-04-18T08:43:51.223Z</time></trkpt><trkpt lat="43.5610967" lon="11.2897744"><ele>428.8</ele><time>2026-04-18T08:43:53.222Z</time></trkpt><trkpt lat="43.5609987" lon="11.2898043"><ele>428.20000000000005</ele><time>2026-04-18T08:43:55.223Z</time></trkpt><trkpt lat="43.5608958" lon="11.289828"><ele>427.6</ele><time>2026-04-18T08:43:57.222Z</time></trkpt><trkpt lat="43.560796" lon="11.2898475"><ele>427.0</ele><time>2026-04-18T08:43:59.223Z</time></trkpt><trkpt lat="43.5607326" lon="11.2898621"><ele>427.00000000000006</ele><time>2026-04-18T08:44:00.223Z</time></trkpt><trkpt lat="43.5606648" lon="11.2898754"><ele>427.0</ele><time>2026-04-18T08:44:01.222Z</time></trkpt><trkpt lat="43.5605922" lon="11.2898984"><ele>427.0</ele><time>2026-04-18T08:44:02.223Z</time></trkpt><trkpt lat="43.5605083" lon="11.2899386"><ele>427.0</ele><time>2026-04-18T08:44:03.222Z</time></trkpt><trkpt lat="43.5604268" lon="11.2899744"><ele>427.00000000000006</ele><time>2026-04-18T08:44:04.222Z</time></trkpt><trkpt lat="43.5603397" lon="11.2900057"><ele>427.0</ele><time>2026-04-18T08:44:05.223Z</time></trkpt><trkpt lat="43.5602499" lon="11.2900444"><ele>425.40000000000003</ele><time>2026-04-18T08:44:06.222Z</time></trkpt><trkpt lat="43.560168" lon="11.2900754"><ele>423.80000000000007</ele><time>2026-04-18T08:44:07.223Z</time></trkpt><trkpt lat="43.5600833" lon="11.2901103"><ele>422.2</ele><time>2026-04-18T08:44:08.223Z</time></trkpt><trkpt lat="43.5599943" lon="11.2901372"><ele>420.6</ele><time>2026-04-18T08:44:09.222Z</time></trkpt><trkpt lat="43.5599012" lon="11.290166"><ele>419.0</ele><time>2026-04-18T08:44:10.222Z</time></trkpt><trkpt lat="43.5598032" lon="11.2901905"><ele>419.0</ele><time>2026-04-18T08:44:11.223Z</time></trkpt><trkpt lat="43.5597034" lon="11.2902124"><ele>419.0</ele><time>2026-04-18T08:44:12.222Z</time></trkpt><trkpt lat="43.5595972" lon="11.2902313"><ele>419.0</ele><time>2026-04-18T08:44:13.222Z</time></trkpt><trkpt lat="43.5594916" lon="11.2902693"><ele>419.0</ele><time>2026-04-18T08:44:14.223Z</time></trkpt><trkpt lat="43.559397" lon="11.290293"><ele>419.0</ele><time>2026-04-18T08:44:15.223Z</time></trkpt><trkpt lat="43.5593154" lon="11.2903086"><ele>418.3333333333333</ele><time>2026-04-18T08:44:16.223Z</time></trkpt><trkpt lat="43.5592418" lon="11.2903129"><ele>417.66666666666663</ele><time>2026-04-18T08:44:17.223Z</time></trkpt><trkpt lat="43.5591666" lon="11.290319"><ele>417.0</ele><time>2026-04-18T08:44:18.223Z</time></trkpt><trkpt lat="43.5590991" lon="11.2903224"><ele>416.33333333333337</ele><time>2026-04-18T08:44:19.223Z</time></trkpt><trkpt lat="43.5590336" lon="11.290348"><ele>415.6666666666667</ele><time>2026-04-18T08:44:20.223Z</time></trkpt><trkpt lat="43.5589326" lon="11.2904198"><ele>415.0</ele><time>2026-04-18T08:44:22.223Z</time></trkpt><trkpt lat="43.5588588" lon="11.290549"><ele>416.4</ele><time>2026-04-18T08:44:24.223Z</time></trkpt><trkpt lat="43.5587974" lon="11.2906983"><ele>417.8</ele><time>2026-04-18T08:44:26.223Z</time></trkpt><trkpt lat="43.5587703" lon="11.2907842"><ele>419.20000000000005</ele><time>2026-04-18T08:44:27.223Z</time></trkpt><trkpt lat="43.5587322" lon="11.2909372"><ele>420.6</ele><time>2026-04-18T08:44:29.223Z</time></trkpt><trkpt lat="43.5586595" lon="11.2910576"><ele>422.0</ele><time>2026-04-18T08:44:31.222Z</time></trkpt><trkpt lat="43.5585762" lon="11.2911521"><ele>422.0</ele><time>2026-04-18T08:44:33.223Z</time></trkpt><trkpt lat="43.5584978" lon="11.2912433"><ele>422.0</ele><time>2026-04-18T08:44:35.222Z</time></trkpt><trkpt lat="43.5584284" lon="11.2913234"><ele>422.0</ele><time>2026-04-18T08:44:37.223Z</time></trkpt><trkpt lat="43.5583418" lon="11.2914226"><ele>422.0</ele><time>2026-04-18T08:44:39.223Z</time></trkpt><trkpt lat="43.5582497" lon="11.2915197"><ele>422.0</ele><time>2026-04-18T08:44:41.223Z</time></trkpt><trkpt lat="43.5581681" lon="11.291597"><ele>421.66666666666663</ele><time>2026-04-18T08:44:43.223Z</time></trkpt><trkpt lat="43.5581038" lon="11.2916524"><ele>421.3333333333333</ele><time>2026-04-18T08:44:45.223Z</time></trkpt><trkpt lat="43.5580475" lon="11.2917321"><ele>421.0</ele><time>2026-04-18T08:44:47.223Z</time></trkpt><trkpt lat="43.5579872" lon="11.2917913"><ele>420.66666666666663</ele><time>2026-04-18T08:44:49.223Z</time></trkpt><trkpt lat="43.5578996" lon="11.2917782"><ele>420.3333333333333</ele><time>2026-04-18T08:44:52.223Z</time></trkpt><trkpt lat="43.5578434" lon="11.2917188"><ele>420.0</ele><time>2026-04-18T08:44:54.223Z</time></trkpt><trkpt lat="43.5577698" lon="11.2916605"><ele>420.0</ele><time>2026-04-18T08:44:56.222Z</time></trkpt><trkpt lat="43.55771" lon="11.2915856"><ele>420.0</ele><time>2026-04-18T08:44:58.223Z</time></trkpt><trkpt lat="43.5576338" lon="11.2915036"><ele>420.0</ele><time>2026-04-18T08:45:00.223Z</time></trkpt><trkpt lat="43.5575596" lon="11.2914149"><ele>420.0</ele><time>2026-04-18T08:45:02.223Z</time></trkpt><trkpt lat="43.5574957" lon="11.2913236"><ele>420.0</ele><time>2026-04-18T08:45:04.223Z</time></trkpt><trkpt lat="43.5574357" lon="11.2912633"><ele>420.0</ele><time>2026-04-18T08:45:06.223Z</time></trkpt><trkpt lat="43.5573617" lon="11.291269"><ele>420.0</ele><time>2026-04-18T08:45:08.223Z</time></trkpt><trkpt lat="43.5572932" lon="11.2913487"><ele>420.0</ele><time>2026-04-18T08:45:10.224Z</time></trkpt><trkpt lat="43.5572606" lon="11.2914556"><ele>420.0</ele><time>2026-04-18T08:45:13.223Z</time></trkpt><trkpt lat="43.5572733" lon="11.2915521"><ele>420.0</ele><time>2026-04-18T08:45:15.223Z</time></trkpt><trkpt lat="43.5572602" lon="11.2916555"><ele>420.0</ele><time>2026-04-18T08:45:17.223Z</time></trkpt><trkpt lat="43.5572453" lon="11.2917713"><ele>420.0</ele><time>2026-04-18T08:45:19.222Z</time></trkpt><trkpt lat="43.5572546" lon="11.2919002"><ele>420.0</ele><time>2026-04-18T08:45:21.223Z</time></trkpt><trkpt lat="43.557239" lon="11.2920102"><ele>420.0</ele><time>2026-04-18T08:45:23.223Z</time></trkpt><trkpt lat="43.5571916" lon="11.2920724"><ele>420.0</ele><time>2026-04-18T08:45:25.223Z</time></trkpt><trkpt lat="43.5571147" lon="11.2921238"><ele>420.0</ele><time>2026-04-18T08:45:27.222Z</time></trkpt><trkpt lat="43.5570408" lon="11.2921874"><ele>420.0</ele><time>2026-04-18T08:45:29.223Z</time></trkpt><trkpt lat="43.5569691" lon="11.2922499"><ele>420.0</ele><time>2026-04-18T08:45:31.222Z</time></trkpt><trkpt lat="43.5568817" lon="11.2923268"><ele>421.6</ele><time>2026-04-18T08:45:33.223Z</time></trkpt><trkpt lat="43.5568129" lon="11.2923884"><ele>423.2</ele><time>2026-04-18T08:45:35.222Z</time></trkpt><trkpt lat="43.5567722" lon="11.2924731"><ele>424.79999999999995</ele><time>2026-04-18T08:45:37.223Z</time></trkpt><trkpt lat="43.5567801" lon="11.2925883"><ele>426.4</ele><time>2026-04-18T08:45:39.222Z</time></trkpt><trkpt lat="43.5567927" lon="11.2927448"><ele>428.0</ele><time>2026-04-18T08:45:41.223Z</time></trkpt><trkpt lat="43.5568093" lon="11.2929102"><ele>428.0</ele><time>2026-04-18T08:45:43.223Z</time></trkpt><trkpt lat="43.5568239" lon="11.293063"><ele>427.99999999999994</ele><time>2026-04-18T08:45:45.223Z</time></trkpt><trkpt lat="43.556833" lon="11.2932205"><ele>427.99999999999994</ele><time>2026-04-18T08:45:47.223Z</time></trkpt><trkpt lat="43.5568508" lon="11.2933558"><ele>428.0</ele><time>2026-04-18T08:45:49.223Z</time></trkpt><trkpt lat="43.5568148" lon="11.293467"><ele>428.0</ele><time>2026-04-18T08:45:52.223Z</time></trkpt><trkpt lat="43.5567268" lon="11.2935032"><ele>429.8333333333333</ele><time>2026-04-18T08:45:54.223Z</time></trkpt><trkpt lat="43.5566168" lon="11.2935231"><ele>431.66666666666663</ele><time>2026-04-18T08:45:56.222Z</time></trkpt><trkpt lat="43.5565462" lon="11.2935515"><ele>433.5</ele><time>2026-04-18T08:45:57.223Z</time></trkpt><trkpt lat="43.5564635" lon="11.2935842"><ele>435.33333333333337</ele><time>2026-04-18T08:45:58.223Z</time></trkpt><trkpt lat="43.5563905" lon="11.2936113"><ele>437.1666666666667</ele><time>2026-04-18T08:45:59.223Z</time></trkpt><trkpt lat="43.5563135" lon="11.2936423"><ele>439.0</ele><time>2026-04-18T08:46:00.223Z</time></trkpt><trkpt lat="43.5562392" lon="11.2936686"><ele>439.1666666666667</ele><time>2026-04-18T08:46:01.222Z</time></trkpt><trkpt lat="43.5561564" lon="11.293698"><ele>439.33333333333337</ele><time>2026-04-18T08:46:02.223Z</time></trkpt><trkpt lat="43.5560695" lon="11.2937229"><ele>439.5</ele><time>2026-04-18T08:46:03.223Z</time></trkpt><trkpt lat="43.5559933" lon="11.2937384"><ele>439.66666666666663</ele><time>2026-04-18T08:46:04.223Z</time></trkpt><trkpt lat="43.5559299" lon="11.2937623"><ele>439.8333333333333</ele><time>2026-04-18T08:46:05.223Z</time></trkpt><trkpt lat="43.5558183" lon="11.2937988"><ele>440.0</ele><time>2026-04-18T08:46:07.222Z</time></trkpt><trkpt lat="43.5557421" lon="11.2938326"><ele>439.99999999999994</ele><time>2026-04-18T08:46:09.223Z</time></trkpt><trkpt lat="43.5556722" lon="11.2937498"><ele>440.0</ele><time>2026-04-18T08:46:12.222Z</time></trkpt><trkpt lat="43.5556448" lon="11.2936447"><ele>440.0</ele><time>2026-04-18T08:46:14.223Z</time></trkpt><trkpt lat="43.5556138" lon="11.293519"><ele>440.0</ele><time>2026-04-18T08:46:16.223Z</time></trkpt><trkpt lat="43.5555838" lon="11.2933964"><ele>439.99999999999994</ele><time>2026-04-18T08:46:18.222Z</time></trkpt><trkpt lat="43.555556" lon="11.2932897"><ele>440.0</ele><time>2026-04-18T08:46:20.223Z</time></trkpt><trkpt lat="43.5555242" lon="11.2931838"><ele>438.66666666666663</ele><time>2026-04-18T08:46:22.223Z</time></trkpt><trkpt lat="43.5554885" lon="11.2930839"><ele>437.3333333333333</ele><time>2026-04-18T08:46:24.223Z</time></trkpt><trkpt lat="43.5554282" lon="11.2930179"><ele>436.0</ele><time>2026-04-18T08:46:26.223Z</time></trkpt><trkpt lat="43.5553462" lon="11.2929829"><ele>434.66666666666663</ele><time>2026-04-18T08:46:28.223Z</time></trkpt><trkpt lat="43.5552561" lon="11.29295"><ele>433.3333333333333</ele><time>2026-04-18T08:46:30.223Z</time></trkpt><trkpt lat="43.5551494" lon="11.2929495"><ele>432.0</ele><time>2026-04-18T08:46:32.223Z</time></trkpt><trkpt lat="43.5550242" lon="11.2929612"><ele>431.2857142857143</ele><time>2026-04-18T08:46:34.223Z</time></trkpt><trkpt lat="43.5549555" lon="11.2929661"><ele>430.57142857142856</ele><time>2026-04-18T08:46:35.223Z</time></trkpt><trkpt lat="43.5548884" lon="11.2929778"><ele>429.8571428571429</ele><time>2026-04-18T08:46:36.223Z</time></trkpt><trkpt lat="43.5548163" lon="11.2929911"><ele>429.1428571428571</ele><time>2026-04-18T08:46:37.223Z</time></trkpt><trkpt lat="43.554743" lon="11.2930093"><ele>428.42857142857144</ele><time>2026-04-18T08:46:38.223Z</time></trkpt><trkpt lat="43.5546699" lon="11.2930203"><ele>427.7142857142857</ele><time>2026-04-18T08:46:39.222Z</time></trkpt><trkpt lat="43.5546055" lon="11.293031"><ele>427.0</ele><time>2026-04-18T08:46:40.223Z</time></trkpt><trkpt lat="43.5544903" lon="11.2930609"><ele>426.0</ele><time>2026-04-18T08:46:42.223Z</time></trkpt><trkpt lat="43.5544204" lon="11.2931249"><ele>425.00000000000006</ele><time>2026-04-18T08:46:43.223Z</time></trkpt><trkpt lat="43.5543716" lon="11.2931803"><ele>424.0</ele><time>2026-04-18T08:46:44.223Z</time></trkpt><trkpt lat="43.5542824" lon="11.29326"><ele>423.0</ele><time>2026-04-18T08:46:46.223Z</time></trkpt><trkpt lat="43.5541978" lon="11.2933488"><ele>422.0</ele><time>2026-04-18T08:46:48.222Z</time></trkpt><trkpt lat="43.5541046" lon="11.2934219"><ele>422.0</ele><time>2026-04-18T08:46:50.223Z</time></trkpt><trkpt lat="43.554034" lon="11.2935256"><ele>422.0</ele><time>2026-04-18T08:46:52.222Z</time></trkpt><trkpt lat="43.5539875" lon="11.2936665"><ele>422.0</ele><time>2026-04-18T08:46:54.223Z</time></trkpt><trkpt lat="43.553951" lon="11.2938118"><ele>422.0</ele><time>2026-04-18T08:46:56.223Z</time></trkpt><trkpt lat="43.5538994" lon="11.2939484"><ele>422.0</ele><time>2026-04-18T08:46:58.223Z</time></trkpt><trkpt lat="43.5538203" lon="11.2940766"><ele>421.8</ele><time>2026-04-18T08:47:00.222Z</time></trkpt><trkpt lat="43.5537447" lon="11.2942171"><ele>421.6</ele><time>2026-04-18T08:47:02.223Z</time></trkpt><trkpt lat="43.5536607" lon="11.2943463"><ele>421.40000000000003</ele><time>2026-04-18T08:47:04.223Z</time></trkpt><trkpt lat="43.5536187" lon="11.2944112"><ele>421.20000000000005</ele><time>2026-04-18T08:47:05.223Z</time></trkpt><trkpt lat="43.5535728" lon="11.2944763"><ele>421.0</ele><time>2026-04-18T08:47:06.222Z</time></trkpt><trkpt lat="43.5535281" lon="11.2945503"><ele>421.0</ele><time>2026-04-18T08:47:07.222Z</time></trkpt><trkpt lat="43.5534893" lon="11.2946224"><ele>421.0</ele><time>2026-04-18T08:47:08.223Z</time></trkpt><trkpt lat="43.5534499" lon="11.294696"><ele>421.0</ele><time>2026-04-18T08:47:09.223Z</time></trkpt><trkpt lat="43.5533716" lon="11.2948356"><ele>421.0</ele><time>2026-04-18T08:47:11.223Z</time></trkpt><trkpt lat="43.553296" lon="11.2949744"><ele>421.0</ele><time>2026-04-18T08:47:13.223Z</time></trkpt><trkpt lat="43.5532572" lon="11.2950584"><ele>422.00000000000006</ele><time>2026-04-18T08:47:14.222Z</time></trkpt><trkpt lat="43.5532211" lon="11.2951399"><ele>423.0</ele><time>2026-04-18T08:47:15.223Z</time></trkpt><trkpt lat="43.5531779" lon="11.2952299"><ele>424.0</ele><time>2026-04-18T08:47:16.223Z</time></trkpt><trkpt lat="43.5531333" lon="11.2953211"><ele>425.0</ele><time>2026-04-18T08:47:17.222Z</time></trkpt><trkpt lat="43.5530867" lon="11.2954223"><ele>426.00000000000006</ele><time>2026-04-18T08:47:18.222Z</time></trkpt><trkpt lat="43.5530355" lon="11.2955361"><ele>427.0</ele><time>2026-04-18T08:47:19.223Z</time></trkpt><trkpt lat="43.5529931" lon="11.2956494"><ele>428.00000000000006</ele><time>2026-04-18T08:47:20.223Z</time></trkpt><trkpt lat="43.5529544" lon="11.2957668"><ele>429.0</ele><time>2026-04-18T08:47:21.222Z</time></trkpt><trkpt lat="43.5529219" lon="11.295878"><ele>430.0</ele><time>2026-04-18T08:47:22.223Z</time></trkpt><trkpt lat="43.5528748" lon="11.2959795"><ele>431.0</ele><time>2026-04-18T08:47:23.222Z</time></trkpt><trkpt lat="43.5528222" lon="11.2960749"><ele>432.00000000000006</ele><time>2026-04-18T08:47:24.224Z</time></trkpt><trkpt lat="43.5527593" lon="11.2961445"><ele>433.0</ele><time>2026-04-18T08:47:25.222Z</time></trkpt><trkpt lat="43.5526947" lon="11.2962091"><ele>433.00000000000006</ele><time>2026-04-18T08:47:26.223Z</time></trkpt><trkpt lat="43.5526295" lon="11.2962768"><ele>433.0</ele><time>2026-04-18T08:47:27.223Z</time></trkpt><trkpt lat="43.5525587" lon="11.2963432"><ele>433.0</ele><time>2026-04-18T08:47:28.223Z</time></trkpt><trkpt lat="43.5524841" lon="11.2964011"><ele>433.0</ele><time>2026-04-18T08:47:29.223Z</time></trkpt><trkpt lat="43.5524051" lon="11.2964599"><ele>433.00000000000006</ele><time>2026-04-18T08:47:30.223Z</time></trkpt><trkpt lat="43.552323" lon="11.2965353"><ele>433.0</ele><time>2026-04-18T08:47:31.224Z</time></trkpt><trkpt lat="43.5522456" lon="11.2965975"><ele>435.6666666666667</ele><time>2026-04-18T08:47:32.223Z</time></trkpt><trkpt lat="43.55216" lon="11.2966585"><ele>438.33333333333337</ele><time>2026-04-18T08:47:33.222Z</time></trkpt><trkpt lat="43.5520878" lon="11.2967237"><ele>441.0</ele><time>2026-04-18T08:47:34.222Z</time></trkpt><trkpt lat="43.5520098" lon="11.2967892"><ele>443.66666666666663</ele><time>2026-04-18T08:47:35.222Z</time></trkpt><trkpt lat="43.5519351" lon="11.2968462"><ele>446.3333333333333</ele><time>2026-04-18T08:47:36.222Z</time></trkpt><trkpt lat="43.5518656" lon="11.2968953"><ele>449.0</ele><time>2026-04-18T08:47:37.223Z</time></trkpt><trkpt lat="43.5517924" lon="11.2969398"><ele>449.0</ele><time>2026-04-18T08:47:38.223Z</time></trkpt><trkpt lat="43.5517228" lon="11.2969835"><ele>449.0</ele><time>2026-04-18T08:47:39.222Z</time></trkpt><trkpt lat="43.5516684" lon="11.2970407"><ele>449.0</ele><time>2026-04-18T08:47:40.223Z</time></trkpt><trkpt lat="43.5515864" lon="11.2971467"><ele>449.0</ele><time>2026-04-18T08:47:42.224Z</time></trkpt><trkpt lat="43.5515208" lon="11.2972616"><ele>449.0</ele><time>2026-04-18T08:47:44.223Z</time></trkpt><trkpt lat="43.5514625" lon="11.2973814"><ele>448.66666666666663</ele><time>2026-04-18T08:47:46.222Z</time></trkpt><trkpt lat="43.5514144" lon="11.2974516"><ele>448.3333333333333</ele><time>2026-04-18T08:47:47.223Z</time></trkpt><trkpt lat="43.5513668" lon="11.29755"><ele>448.0</ele><time>2026-04-18T08:47:48.223Z</time></trkpt><trkpt lat="43.5513362" lon="11.2976504"><ele>447.66666666666663</ele><time>2026-04-18T08:47:49.223Z</time></trkpt><trkpt lat="43.5512792" lon="11.2977556"><ele>447.3333333333333</ele><time>2026-04-18T08:47:50.222Z</time></trkpt><trkpt lat="43.5512133" lon="11.2978516"><ele>447.0</ele><time>2026-04-18T08:47:51.223Z</time></trkpt><trkpt lat="43.5511427" lon="11.2979399"><ele>447.0</ele><time>2026-04-18T08:47:52.223Z</time></trkpt><trkpt lat="43.5510702" lon="11.2980159"><ele>447.00000000000006</ele><time>2026-04-18T08:47:53.223Z</time></trkpt><trkpt lat="43.5509929" lon="11.2980941"><ele>447.00000000000006</ele><time>2026-04-18T08:47:54.223Z</time></trkpt><trkpt lat="43.5509118" lon="11.2981711"><ele>447.0</ele><time>2026-04-18T08:47:55.223Z</time></trkpt><trkpt lat="43.5508512" lon="11.298242"><ele>447.0</ele><time>2026-04-18T08:47:56.221Z</time></trkpt><trkpt lat="43.5507787" lon="11.2983129"><ele>449.6</ele><time>2026-04-18T08:47:57.223Z</time></trkpt><trkpt lat="43.5507023" lon="11.2983757"><ele>452.20000000000005</ele><time>2026-04-18T08:47:58.222Z</time></trkpt><trkpt lat="43.5506221" lon="11.2984353"><ele>454.8</ele><time>2026-04-18T08:47:59.223Z</time></trkpt><trkpt lat="43.5505435" lon="11.2985094"><ele>457.4</ele><time>2026-04-18T08:48:00.223Z</time></trkpt><trkpt lat="43.5504625" lon="11.2985767"><ele>460.0</ele><time>2026-04-18T08:48:01.223Z</time></trkpt><trkpt lat="43.550382" lon="11.2986534"><ele>459.4</ele><time>2026-04-18T08:48:02.222Z</time></trkpt><trkpt lat="43.5502992" lon="11.298725"><ele>458.8</ele><time>2026-04-18T08:48:03.223Z</time></trkpt><trkpt lat="43.5502087" lon="11.2987928"><ele>458.20000000000005</ele><time>2026-04-18T08:48:04.223Z</time></trkpt><trkpt lat="43.5501193" lon="11.2988654"><ele>457.6</ele><time>2026-04-18T08:48:05.223Z</time></trkpt><trkpt lat="43.5500371" lon="11.2989431"><ele>457.0</ele><time>2026-04-18T08:48:06.223Z</time></trkpt><trkpt lat="43.549961" lon="11.2990288"><ele>457.0</ele><time>2026-04-18T08:48:07.223Z</time></trkpt><trkpt lat="43.5498865" lon="11.2991238"><ele>457.0</ele><time>2026-04-18T08:48:08.222Z</time></trkpt><trkpt lat="43.5498193" lon="11.2992439"><ele>457.0</ele><time>2026-04-18T08:48:09.221Z</time></trkpt><trkpt lat="43.5497494" lon="11.2993792"><ele>457.0</ele><time>2026-04-18T08:48:10.222Z</time></trkpt><trkpt lat="43.5496774" lon="11.2995266"><ele>457.0</ele><time>2026-04-18T08:48:11.223Z</time></trkpt><trkpt lat="43.5496079" lon="11.2996682"><ele>457.0</ele><time>2026-04-18T08:48:12.222Z</time></trkpt><trkpt lat="43.5495404" lon="11.2998122"><ele>457.0</ele><time>2026-04-18T08:48:13.223Z</time></trkpt><trkpt lat="43.5494726" lon="11.2999586"><ele>457.0</ele><time>2026-04-18T08:48:14.222Z</time></trkpt><trkpt lat="43.549396" lon="11.3001134"><ele>457.5</ele><time>2026-04-18T08:48:15.221Z</time></trkpt><trkpt lat="43.5493199" lon="11.3002752"><ele>458.0</ele><time>2026-04-18T08:48:16.224Z</time></trkpt><trkpt lat="43.549241" lon="11.3004328"><ele>458.5</ele><time>2026-04-18T08:48:17.222Z</time></trkpt><trkpt lat="43.5491586" lon="11.3005895"><ele>459.0</ele><time>2026-04-18T08:48:18.223Z</time></trkpt><trkpt lat="43.54908" lon="11.3007379"><ele>459.0</ele><time>2026-04-18T08:48:19.222Z</time></trkpt><trkpt lat="43.5490007" lon="11.300889"><ele>459.0</ele><time>2026-04-18T08:48:20.223Z</time></trkpt><trkpt lat="43.5489225" lon="11.3010434"><ele>459.0</ele><time>2026-04-18T08:48:21.223Z</time></trkpt><trkpt lat="43.5488543" lon="11.3011783"><ele>459.0</ele><time>2026-04-18T08:48:22.223Z</time></trkpt><trkpt lat="43.5487935" lon="11.3012977"><ele>459.0</ele><time>2026-04-18T08:48:23.223Z</time></trkpt><trkpt lat="43.5487488" lon="11.3014078"><ele>459.0</ele><time>2026-04-18T08:48:24.222Z</time></trkpt><trkpt lat="43.548713" lon="11.3015284"><ele>459.0</ele><time>2026-04-18T08:48:25.223Z</time></trkpt><trkpt lat="43.5486832" lon="11.3016663"><ele>459.0</ele><time>2026-04-18T08:48:26.222Z</time></trkpt><trkpt lat="43.5486583" lon="11.3018127"><ele>459.0</ele><time>2026-04-18T08:48:27.223Z</time></trkpt><trkpt lat="43.5486214" lon="11.3019504"><ele>458.5</ele><time>2026-04-18T08:48:28.222Z</time></trkpt><trkpt lat="43.5485696" lon="11.3020914"><ele>458.0</ele><time>2026-04-18T08:48:29.223Z</time></trkpt><trkpt lat="43.5484986" lon="11.3022304"><ele>457.5</ele><time>2026-04-18T08:48:30.222Z</time></trkpt><trkpt lat="43.548422" lon="11.3023765"><ele>457.0</ele><time>2026-04-18T08:48:31.222Z</time></trkpt><trkpt lat="43.5483508" lon="11.3025298"><ele>458.5</ele><time>2026-04-18T08:48:32.223Z</time></trkpt><trkpt lat="43.5482781" lon="11.302674"><ele>460.0</ele><time>2026-04-18T08:48:33.223Z</time></trkpt><trkpt lat="43.5482074" lon="11.3028106"><ele>461.5</ele><time>2026-04-18T08:48:34.223Z</time></trkpt><trkpt lat="43.5481489" lon="11.3029506"><ele>463.0</ele><time>2026-04-18T08:48:35.223Z</time></trkpt><trkpt lat="43.5481017" lon="11.3030955"><ele>464.79999999999995</ele><time>2026-04-18T08:48:36.223Z</time></trkpt><trkpt lat="43.5480658" lon="11.303247"><ele>466.59999999999997</ele><time>2026-04-18T08:48:37.223Z</time></trkpt><trkpt lat="43.548038" lon="11.3033819"><ele>468.40000000000003</ele><time>2026-04-18T08:48:38.223Z</time></trkpt><trkpt lat="43.5480172" lon="11.3034985"><ele>470.20000000000005</ele><time>2026-04-18T08:48:39.223Z</time></trkpt><trkpt lat="43.5480032" lon="11.3036045"><ele>472.0</ele><time>2026-04-18T08:48:40.223Z</time></trkpt><trkpt lat="43.5479914" lon="11.3037081"><ele>472.0</ele><time>2026-04-18T08:48:41.223Z</time></trkpt><trkpt lat="43.5479843" lon="11.3038192"><ele>472.00000000000006</ele><time>2026-04-18T08:48:42.222Z</time></trkpt><trkpt lat="43.5479819" lon="11.3039456"><ele>472.00000000000006</ele><time>2026-04-18T08:48:43.223Z</time></trkpt><trkpt lat="43.5479839" lon="11.3040843"><ele>472.0</ele><time>2026-04-18T08:48:44.221Z</time></trkpt><trkpt lat="43.5479996" lon="11.3042401"><ele>472.0</ele><time>2026-04-18T08:48:45.223Z</time></trkpt><trkpt lat="43.5480171" lon="11.3044038"><ele>472.20000000000005</ele><time>2026-04-18T08:48:46.222Z</time></trkpt><trkpt lat="43.5480455" lon="11.304566"><ele>472.40000000000003</ele><time>2026-04-18T08:48:47.223Z</time></trkpt><trkpt lat="43.5480845" lon="11.3047133"><ele>472.59999999999997</ele><time>2026-04-18T08:48:48.223Z</time></trkpt><trkpt lat="43.5481205" lon="11.304846"><ele>472.79999999999995</ele><time>2026-04-18T08:48:49.223Z</time></trkpt><trkpt lat="43.5481578" lon="11.3049587"><ele>473.0</ele><time>2026-04-18T08:48:50.222Z</time></trkpt><trkpt lat="43.5481916" lon="11.3050615"><ele>472.99999999999994</ele><time>2026-04-18T08:48:51.223Z</time></trkpt><trkpt lat="43.5482247" lon="11.305148"><ele>473.0</ele><time>2026-04-18T08:48:52.223Z</time></trkpt><trkpt lat="43.548251" lon="11.3052278"><ele>473.0</ele><time>2026-04-18T08:48:53.222Z</time></trkpt><trkpt lat="43.5483005" lon="11.3053515"><ele>473.0</ele><time>2026-04-18T08:48:55.223Z</time></trkpt><trkpt lat="43.5482551" lon="11.3054587"><ele>472.99999999999994</ele><time>2026-04-18T08:48:59.222Z</time></trkpt><trkpt lat="43.5481767" lon="11.3054886"><ele>473.0</ele><time>2026-04-18T08:49:01.223Z</time></trkpt><trkpt lat="43.5480984" lon="11.3055006"><ele>472.99999999999994</ele><time>2026-04-18T08:49:03.222Z</time></trkpt><trkpt lat="43.5480337" lon="11.3055071"><ele>473.0</ele><time>2026-04-18T08:49:06.221Z</time></trkpt><trkpt lat="43.548016" lon="11.3055962"><ele>473.0</ele><time>2026-04-18T08:49:09.224Z</time></trkpt><trkpt lat="43.5479284" lon="11.3056163"><ele>473.0</ele><time>2026-04-18T08:49:12.222Z</time></trkpt><trkpt lat="43.547846" lon="11.3055607"><ele>472.99999999999994</ele><time>2026-04-18T08:49:14.223Z</time></trkpt><trkpt lat="43.5477444" lon="11.3055113"><ele>473.0</ele><time>2026-04-18T08:49:16.222Z</time></trkpt><trkpt lat="43.5476416" lon="11.3054675"><ele>469.79999999999995</ele><time>2026-04-18T08:49:18.222Z</time></trkpt><trkpt lat="43.5475446" lon="11.3054272"><ele>466.59999999999997</ele><time>2026-04-18T08:49:20.223Z</time></trkpt><trkpt lat="43.5474383" lon="11.3053886"><ele>463.40000000000003</ele><time>2026-04-18T08:49:22.223Z</time></trkpt><trkpt lat="43.5473442" lon="11.3053339"><ele>460.20000000000005</ele><time>2026-04-18T08:49:24.222Z</time></trkpt><trkpt lat="43.5472589" lon="11.3052847"><ele>457.0</ele><time>2026-04-18T08:49:26.221Z</time></trkpt><trkpt lat="43.5471851" lon="11.3052513"><ele>457.00000000000006</ele><time>2026-04-18T08:49:28.222Z</time></trkpt><trkpt lat="43.5470932" lon="11.3052228"><ele>457.0</ele><time>2026-04-18T08:49:31.223Z</time></trkpt><trkpt lat="43.5470295" lon="11.3051963"><ele>457.0</ele><time>2026-04-18T08:49:33.223Z</time></trkpt><trkpt lat="43.5469453" lon="11.3051583"><ele>457.0</ele><time>2026-04-18T08:49:36.221Z</time></trkpt><trkpt lat="43.5468894" lon="11.3051035"><ele>457.00000000000006</ele><time>2026-04-18T08:49:39.222Z</time></trkpt><trkpt lat="43.5468214" lon="11.3050669"><ele>457.0</ele><time>2026-04-18T08:49:43.223Z</time></trkpt><trkpt lat="43.5467501" lon="11.3050769"><ele>455.50000000000006</ele><time>2026-04-18T08:49:46.222Z</time></trkpt><trkpt lat="43.5467075" lon="11.3051942"><ele>454.0</ele><time>2026-04-18T08:49:49.223Z</time></trkpt><trkpt lat="43.5466894" lon="11.3052957"><ele>452.5</ele><time>2026-04-18T08:49:51.222Z</time></trkpt><trkpt lat="43.5466575" lon="11.3053995"><ele>451.0</ele><time>2026-04-18T08:49:53.222Z</time></trkpt><trkpt lat="43.5466316" lon="11.3055069"><ele>449.50000000000006</ele><time>2026-04-18T08:49:55.223Z</time></trkpt><trkpt lat="43.5465986" lon="11.30563"><ele>448.0</ele><time>2026-04-18T08:49:57.223Z</time></trkpt><trkpt lat="43.5465745" lon="11.3057508"><ele>448.00000000000006</ele><time>2026-04-18T08:49:59.223Z</time></trkpt><trkpt lat="43.5465566" lon="11.3058629"><ele>448.0</ele><time>2026-04-18T08:50:01.221Z</time></trkpt><trkpt lat="43.5465443" lon="11.305989"><ele>448.0</ele><time>2026-04-18T08:50:03.223Z</time></trkpt><trkpt lat="43.5465291" lon="11.306109"><ele>448.0</ele><time>2026-04-18T08:50:05.223Z</time></trkpt><trkpt lat="43.5465129" lon="11.3062354"><ele>448.00000000000006</ele><time>2026-04-18T08:50:07.222Z</time></trkpt><trkpt lat="43.5464987" lon="11.3063392"><ele>448.0</ele><time>2026-04-18T08:50:09.224Z</time></trkpt><trkpt lat="43.546482" lon="11.306427"><ele>448.00000000000006</ele><time>2026-04-18T08:50:11.223Z</time></trkpt><trkpt lat="43.5464032" lon="11.3064617"><ele>448.0</ele><time>2026-04-18T08:50:14.222Z</time></trkpt><trkpt lat="43.5463248" lon="11.3064183"><ele>448.0</ele><time>2026-04-18T08:50:16.222Z</time></trkpt><trkpt lat="43.5462473" lon="11.3063568"><ele>448.0</ele><time>2026-04-18T08:50:18.222Z</time></trkpt><trkpt lat="43.546172" lon="11.3063013"><ele>448.00000000000006</ele><time>2026-04-18T08:50:20.223Z</time></trkpt><trkpt lat="43.5460904" lon="11.3062782"><ele>448.0</ele><time>2026-04-18T08:50:22.223Z</time></trkpt><trkpt lat="43.5460348" lon="11.3063617"><ele>446.83333333333337</ele><time>2026-04-18T08:50:25.223Z</time></trkpt><trkpt lat="43.5460296" lon="11.3065077"><ele>445.6666666666667</ele><time>2026-04-18T08:50:27.222Z</time></trkpt><trkpt lat="43.5460219" lon="11.3065957"><ele>444.5</ele><time>2026-04-18T08:50:28.222Z</time></trkpt><trkpt lat="43.5460117" lon="11.3066894"><ele>443.33333333333337</ele><time>2026-04-18T08:50:29.221Z</time></trkpt><trkpt lat="43.545997" lon="11.3068007"><ele>442.1666666666667</ele><time>2026-04-18T08:50:30.223Z</time></trkpt><trkpt lat="43.5459858" lon="11.3069116"><ele>441.0</ele><time>2026-04-18T08:50:31.222Z</time></trkpt><trkpt lat="43.5459721" lon="11.3070341"><ele>441.0</ele><time>2026-04-18T08:50:32.222Z</time></trkpt><trkpt lat="43.5459581" lon="11.3071597"><ele>441.0</ele><time>2026-04-18T08:50:33.222Z</time></trkpt><trkpt lat="43.5459442" lon="11.3072896"><ele>441.0</ele><time>2026-04-18T08:50:34.222Z</time></trkpt><trkpt lat="43.5459322" lon="11.3074241"><ele>441.0</ele><time>2026-04-18T08:50:35.223Z</time></trkpt><trkpt lat="43.5459119" lon="11.3075525"><ele>441.0</ele><time>2026-04-18T08:50:36.222Z</time></trkpt><trkpt lat="43.5459008" lon="11.3076891"><ele>441.1666666666667</ele><time>2026-04-18T08:50:37.223Z</time></trkpt><trkpt lat="43.545886" lon="11.3078184"><ele>441.33333333333337</ele><time>2026-04-18T08:50:38.221Z</time></trkpt><trkpt lat="43.5458764" lon="11.3079439"><ele>441.5</ele><time>2026-04-18T08:50:39.223Z</time></trkpt><trkpt lat="43.5458683" lon="11.3080616"><ele>441.6666666666667</ele><time>2026-04-18T08:50:40.223Z</time></trkpt><trkpt lat="43.5458636" lon="11.308181"><ele>441.83333333333337</ele><time>2026-04-18T08:50:41.223Z</time></trkpt><trkpt lat="43.5458563" lon="11.3082703"><ele>442.0</ele><time>2026-04-18T08:50:42.222Z</time></trkpt><trkpt lat="43.5458473" lon="11.3083605"><ele>443.0</ele><time>2026-04-18T08:50:44.223Z</time></trkpt><trkpt lat="43.5458237" lon="11.3084938"><ele>444.00000000000006</ele><time>2026-04-18T08:50:47.222Z</time></trkpt><trkpt lat="43.5457993" lon="11.3086364"><ele>445.00000000000006</ele><time>2026-04-18T08:50:49.223Z</time></trkpt><trkpt lat="43.5457852" lon="11.3087753"><ele>446.0</ele><time>2026-04-18T08:50:51.222Z</time></trkpt><trkpt lat="43.5458061" lon="11.3088825"><ele>447.0</ele><time>2026-04-18T08:50:55.222Z</time></trkpt><trkpt lat="43.5457707" lon="11.308972"><ele>448.1666666666667</ele><time>2026-04-18T08:50:58.223Z</time></trkpt><trkpt lat="43.5457067" lon="11.3090864"><ele>449.33333333333337</ele><time>2026-04-18T08:51:00.222Z</time></trkpt><trkpt lat="43.5456609" lon="11.3091677"><ele>450.5</ele><time>2026-04-18T08:51:01.222Z</time></trkpt><trkpt lat="43.5456187" lon="11.3092549"><ele>451.6666666666667</ele><time>2026-04-18T08:51:02.222Z</time></trkpt><trkpt lat="43.54557" lon="11.3093409"><ele>452.83333333333337</ele><time>2026-04-18T08:51:03.223Z</time></trkpt><trkpt lat="43.5455257" lon="11.3094218"><ele>454.0</ele><time>2026-04-18T08:51:04.222Z</time></trkpt><trkpt lat="43.5454911" lon="11.3095071"><ele>454.0</ele><time>2026-04-18T08:51:05.222Z</time></trkpt><trkpt lat="43.5454253" lon="11.3096323"><ele>454.0</ele><time>2026-04-18T08:51:07.223Z</time></trkpt><trkpt lat="43.545434" lon="11.309721"><ele>454.0</ele><time>2026-04-18T08:51:10.222Z</time></trkpt><trkpt lat="43.545473" lon="11.3096519"><ele>454.0</ele><time>2026-04-18T08:51:12.222Z</time></trkpt><trkpt lat="43.5455166" lon="11.3095062"><ele>454.0</ele><time>2026-04-18T08:51:14.223Z</time></trkpt><trkpt lat="43.5455761" lon="11.3093694"><ele>454.00000000000006</ele><time>2026-04-18T08:51:16.223Z</time></trkpt><trkpt lat="43.5456101" lon="11.3092958"><ele>454.0</ele><time>2026-04-18T08:51:17.222Z</time></trkpt><trkpt lat="43.5456474" lon="11.3092115"><ele>454.0</ele><time>2026-04-18T08:51:18.223Z</time></trkpt><trkpt lat="43.5456858" lon="11.3091213"><ele>454.0</ele><time>2026-04-18T08:51:19.222Z</time></trkpt><trkpt lat="43.5457242" lon="11.3090353"><ele>454.00000000000006</ele><time>2026-04-18T08:51:20.221Z</time></trkpt><trkpt lat="43.5457759" lon="11.308903"><ele>454.0</ele><time>2026-04-18T08:51:22.223Z</time></trkpt><trkpt lat="43.5457879" lon="11.308759"><ele>452.6</ele><time>2026-04-18T08:51:24.223Z</time></trkpt><trkpt lat="43.5457942" lon="11.3085874"><ele>451.2</ele><time>2026-04-18T08:51:26.223Z</time></trkpt><trkpt lat="43.545806" lon="11.3084241"><ele>449.80000000000007</ele><time>2026-04-18T08:51:28.222Z</time></trkpt><trkpt lat="43.5458173" lon="11.3082984"><ele>448.40000000000003</ele><time>2026-04-18T08:51:30.221Z</time></trkpt><trkpt lat="43.5457453" lon="11.3082403"><ele>447.0</ele><time>2026-04-18T08:51:33.223Z</time></trkpt><trkpt lat="43.545646" lon="11.3083174"><ele>447.0</ele><time>2026-04-18T08:51:35.222Z</time></trkpt><trkpt lat="43.5455558" lon="11.3084307"><ele>447.0</ele><time>2026-04-18T08:51:37.221Z</time></trkpt><trkpt lat="43.5455036" lon="11.3084874"><ele>447.0</ele><time>2026-04-18T08:51:38.223Z</time></trkpt><trkpt lat="43.5454523" lon="11.3085436"><ele>447.0</ele><time>2026-04-18T08:51:39.222Z</time></trkpt><trkpt lat="43.5453996" lon="11.3086036"><ele>447.0</ele><time>2026-04-18T08:51:40.221Z</time></trkpt><trkpt lat="43.5453362" lon="11.3086764"><ele>447.0</ele><time>2026-04-18T08:51:41.222Z</time></trkpt><trkpt lat="43.5452704" lon="11.3087337"><ele>446.2857142857143</ele><time>2026-04-18T08:51:42.223Z</time></trkpt><trkpt lat="43.5452054" lon="11.3087889"><ele>445.57142857142856</ele><time>2026-04-18T08:51:43.223Z</time></trkpt><trkpt lat="43.5451364" lon="11.3088309"><ele>444.8571428571429</ele><time>2026-04-18T08:51:44.224Z</time></trkpt><trkpt lat="43.5450691" lon="11.3088706"><ele>444.1428571428571</ele><time>2026-04-18T08:51:45.222Z</time></trkpt><trkpt lat="43.5450039" lon="11.3089082"><ele>443.42857142857144</ele><time>2026-04-18T08:51:46.222Z</time></trkpt><trkpt lat="43.5449453" lon="11.3089535"><ele>442.7142857142857</ele><time>2026-04-18T08:51:47.223Z</time></trkpt><trkpt lat="43.5448861" lon="11.3090145"><ele>442.0</ele><time>2026-04-18T08:51:48.223Z</time></trkpt><trkpt lat="43.5448241" lon="11.3090695"><ele>442.00000000000006</ele><time>2026-04-18T08:51:49.223Z</time></trkpt><trkpt lat="43.5447647" lon="11.3091296"><ele>442.0</ele><time>2026-04-18T08:51:50.223Z</time></trkpt><trkpt lat="43.5447019" lon="11.3091905"><ele>442.0</ele><time>2026-04-18T08:51:51.222Z</time></trkpt><trkpt lat="43.544632" lon="11.3092518"><ele>442.0</ele><time>2026-04-18T08:51:52.222Z</time></trkpt><trkpt lat="43.5445694" lon="11.3093042"><ele>442.0</ele><time>2026-04-18T08:51:53.223Z</time></trkpt><trkpt lat="43.5445147" lon="11.3093662"><ele>442.00000000000006</ele><time>2026-04-18T08:51:54.221Z</time></trkpt><trkpt lat="43.5444683" lon="11.3094303"><ele>442.0</ele><time>2026-04-18T08:51:55.223Z</time></trkpt><trkpt lat="43.5443866" lon="11.3095374"><ele>439.6666666666667</ele><time>2026-04-18T08:51:57.223Z</time></trkpt><trkpt lat="43.5442961" lon="11.3096187"><ele>437.33333333333337</ele><time>2026-04-18T08:51:59.223Z</time></trkpt><trkpt lat="43.5441738" lon="11.3095986"><ele>435.0</ele><time>2026-04-18T08:52:01.222Z</time></trkpt><trkpt lat="43.5441121" lon="11.3095662"><ele>432.66666666666663</ele><time>2026-04-18T08:52:02.222Z</time></trkpt><trkpt lat="43.5440431" lon="11.3095346"><ele>430.3333333333333</ele><time>2026-04-18T08:52:03.223Z</time></trkpt><trkpt lat="43.543971" lon="11.309504"><ele>428.0</ele><time>2026-04-18T08:52:04.223Z</time></trkpt><trkpt lat="43.5438925" lon="11.3094676"><ele>427.99999999999994</ele><time>2026-04-18T08:52:05.223Z</time></trkpt><trkpt lat="43.5438127" lon="11.3094313"><ele>428.0</ele><time>2026-04-18T08:52:06.222Z</time></trkpt><trkpt lat="43.5437345" lon="11.3093952"><ele>428.0</ele><time>2026-04-18T08:52:07.221Z</time></trkpt><trkpt lat="43.5436509" lon="11.3093605"><ele>428.0</ele><time>2026-04-18T08:52:08.223Z</time></trkpt><trkpt lat="43.5435629" lon="11.3093197"><ele>427.99999999999994</ele><time>2026-04-18T08:52:09.223Z</time></trkpt><trkpt lat="43.5434872" lon="11.3092798"><ele>428.0</ele><time>2026-04-18T08:52:10.223Z</time></trkpt><trkpt lat="43.5434026" lon="11.3092424"><ele>425.49999999999994</ele><time>2026-04-18T08:52:11.222Z</time></trkpt><trkpt lat="43.5433074" lon="11.3092018"><ele>423.0</ele><time>2026-04-18T08:52:12.223Z</time></trkpt><trkpt lat="43.5432259" lon="11.30916"><ele>420.5</ele><time>2026-04-18T08:52:13.221Z</time></trkpt><trkpt lat="43.543146" lon="11.3091282"><ele>418.0</ele><time>2026-04-18T08:52:14.223Z</time></trkpt><trkpt lat="43.5430641" lon="11.309094"><ele>415.49999999999994</ele><time>2026-04-18T08:52:15.221Z</time></trkpt><trkpt lat="43.5429871" lon="11.3090575"><ele>413.0</ele><time>2026-04-18T08:52:16.222Z</time></trkpt><trkpt lat="43.542914" lon="11.3090265"><ele>410.8333333333333</ele><time>2026-04-18T08:52:17.222Z</time></trkpt><trkpt lat="43.5428394" lon="11.3089957"><ele>408.66666666666663</ele><time>2026-04-18T08:52:18.223Z</time></trkpt><trkpt lat="43.5427649" lon="11.3089615"><ele>406.5</ele><time>2026-04-18T08:52:19.223Z</time></trkpt><trkpt lat="43.5426836" lon="11.3089244"><ele>404.33333333333337</ele><time>2026-04-18T08:52:20.221Z</time></trkpt><trkpt lat="43.5426047" lon="11.3088916"><ele>402.1666666666667</ele><time>2026-04-18T08:52:21.223Z</time></trkpt><trkpt lat="43.542525" lon="11.3088576"><ele>400.0</ele><time>2026-04-18T08:52:22.223Z</time></trkpt><trkpt lat="43.542457" lon="11.3088239"><ele>399.7142857142857</ele><time>2026-04-18T08:52:23.222Z</time></trkpt><trkpt lat="43.5423842" lon="11.3087968"><ele>399.42857142857144</ele><time>2026-04-18T08:52:24.222Z</time></trkpt><trkpt lat="43.5423209" lon="11.3087651"><ele>399.1428571428571</ele><time>2026-04-18T08:52:25.222Z</time></trkpt><trkpt lat="43.5422605" lon="11.3087358"><ele>398.8571428571429</ele><time>2026-04-18T08:52:26.222Z</time></trkpt><trkpt lat="43.5421969" lon="11.308704"><ele>398.57142857142856</ele><time>2026-04-18T08:52:27.221Z</time></trkpt><trkpt lat="43.5421337" lon="11.3086713"><ele>398.2857142857143</ele><time>2026-04-18T08:52:28.222Z</time></trkpt><trkpt lat="43.5420691" lon="11.3086375"><ele>398.0</ele><time>2026-04-18T08:52:29.222Z</time></trkpt><trkpt lat="43.5420058" lon="11.3086064"><ele>396.3333333333333</ele><time>2026-04-18T08:52:30.222Z</time></trkpt><trkpt lat="43.5419421" lon="11.3085797"><ele>394.66666666666663</ele><time>2026-04-18T08:52:31.221Z</time></trkpt><trkpt lat="43.5418733" lon="11.3085487"><ele>393.0</ele><time>2026-04-18T08:52:32.222Z</time></trkpt><trkpt lat="43.541813" lon="11.3085231"><ele>391.33333333333337</ele><time>2026-04-18T08:52:33.221Z</time></trkpt><trkpt lat="43.5417524" lon="11.3084962"><ele>389.6666666666667</ele><time>2026-04-18T08:52:34.223Z</time></trkpt><trkpt lat="43.541645" lon="11.308447"><ele>388.0</ele><time>2026-04-18T08:52:36.222Z</time></trkpt><trkpt lat="43.5415376" lon="11.3083996"><ele>388.0</ele><time>2026-04-18T08:52:38.223Z</time></trkpt><trkpt lat="43.5414245" lon="11.3083435"><ele>388.0</ele><time>2026-04-18T08:52:40.222Z</time></trkpt><trkpt lat="43.5412997" lon="11.308296"><ele>388.0</ele><time>2026-04-18T08:52:42.222Z</time></trkpt><trkpt lat="43.5412335" lon="11.3082697"><ele>388.0</ele><time>2026-04-18T08:52:43.222Z</time></trkpt><trkpt lat="43.5411664" lon="11.3082358"><ele>388.0</ele><time>2026-04-18T08:52:44.223Z</time></trkpt><trkpt lat="43.5410986" lon="11.3082071"><ele>385.6666666666667</ele><time>2026-04-18T08:52:45.222Z</time></trkpt><trkpt lat="43.5410355" lon="11.308189"><ele>383.33333333333337</ele><time>2026-04-18T08:52:46.222Z</time></trkpt><trkpt lat="43.5409032" lon="11.3081521"><ele>381.0</ele><time>2026-04-18T08:52:48.223Z</time></trkpt><trkpt lat="43.5408265" lon="11.3081333"><ele>378.6666666666667</ele><time>2026-04-18T08:52:49.223Z</time></trkpt><trkpt lat="43.54076" lon="11.3081082"><ele>376.33333333333337</ele><time>2026-04-18T08:52:50.222Z</time></trkpt><trkpt lat="43.54068" lon="11.308082"><ele>374.0</ele><time>2026-04-18T08:52:51.223Z</time></trkpt><trkpt lat="43.5406008" lon="11.3080548"><ele>372.6</ele><time>2026-04-18T08:52:52.223Z</time></trkpt><trkpt lat="43.5405373" lon="11.3080338"><ele>371.2</ele><time>2026-04-18T08:52:53.222Z</time></trkpt><trkpt lat="43.5404691" lon="11.3080141"><ele>369.8</ele><time>2026-04-18T08:52:54.223Z</time></trkpt><trkpt lat="43.5403523" lon="11.3079782"><ele>368.40000000000003</ele><time>2026-04-18T08:52:56.223Z</time></trkpt><trkpt lat="43.5402384" lon="11.307937"><ele>367.0</ele><time>2026-04-18T08:52:58.221Z</time></trkpt><trkpt lat="43.5401146" lon="11.3079349"><ele>364.8</ele><time>2026-04-18T08:53:00.222Z</time></trkpt><trkpt lat="43.5400036" lon="11.3080195"><ele>362.6</ele><time>2026-04-18T08:53:02.222Z</time></trkpt><trkpt lat="43.5399488" lon="11.3080675"><ele>360.40000000000003</ele><time>2026-04-18T08:53:03.221Z</time></trkpt><trkpt lat="43.5398924" lon="11.3081095"><ele>358.20000000000005</ele><time>2026-04-18T08:53:04.221Z</time></trkpt><trkpt lat="43.5398083" lon="11.3082163"><ele>356.0</ele><time>2026-04-18T08:53:06.221Z</time></trkpt><trkpt lat="43.5397865" lon="11.3083547"><ele>356.0</ele><time>2026-04-18T08:53:08.222Z</time></trkpt><trkpt lat="43.5398184" lon="11.3084787"><ele>356.0</ele><time>2026-04-18T08:53:10.222Z</time></trkpt><trkpt lat="43.5397731" lon="11.3085618"><ele>356.0</ele><time>2026-04-18T08:53:12.221Z</time></trkpt><trkpt lat="43.5396982" lon="11.308545"><ele>356.0</ele><time>2026-04-18T08:53:14.222Z</time></trkpt><trkpt lat="43.5396121" lon="11.3085228"><ele>356.0</ele><time>2026-04-18T08:53:16.222Z</time></trkpt><trkpt lat="43.5395121" lon="11.3086025"><ele>356.20000000000005</ele><time>2026-04-18T08:53:18.222Z</time></trkpt><trkpt lat="43.5394645" lon="11.3087569"><ele>356.40000000000003</ele><time>2026-04-18T08:53:20.221Z</time></trkpt><trkpt lat="43.539403" lon="11.308859"><ele>356.6</ele><time>2026-04-18T08:53:22.221Z</time></trkpt><trkpt lat="43.5393267" lon="11.3088579"><ele>356.8</ele><time>2026-04-18T08:53:24.222Z</time></trkpt><trkpt lat="43.5392933" lon="11.3087768"><ele>357.0</ele><time>2026-04-18T08:53:25.222Z</time></trkpt><trkpt lat="43.5392005" lon="11.3086384"><ele>357.0</ele><time>2026-04-18T08:53:27.223Z</time></trkpt><trkpt lat="43.5391471" lon="11.3085724"><ele>357.0</ele><time>2026-04-18T08:53:28.221Z</time></trkpt><trkpt lat="43.5390862" lon="11.3084998"><ele>357.0</ele><time>2026-04-18T08:53:29.222Z</time></trkpt><trkpt lat="43.539026" lon="11.3084213"><ele>357.0</ele><time>2026-04-18T08:53:30.222Z</time></trkpt><trkpt lat="43.5389647" lon="11.308338"><ele>357.0</ele><time>2026-04-18T08:53:31.221Z</time></trkpt><trkpt lat="43.5389109" lon="11.3082613"><ele>357.0</ele><time>2026-04-18T08:53:32.222Z</time></trkpt><trkpt lat="43.5388574" lon="11.3081891"><ele>357.0</ele><time>2026-04-18T08:53:33.222Z</time></trkpt><trkpt lat="43.5388084" lon="11.3081159"><ele>357.0</ele><time>2026-04-18T08:53:34.222Z</time></trkpt><trkpt lat="43.5387594" lon="11.3080579"><ele>357.0</ele><time>2026-04-18T08:53:35.221Z</time></trkpt><trkpt lat="43.5386885" lon="11.3079395"><ele>357.0</ele><time>2026-04-18T08:53:37.222Z</time></trkpt><trkpt lat="43.5386471" lon="11.3078434"><ele>357.0</ele><time>2026-04-18T08:53:39.222Z</time></trkpt><trkpt lat="43.5385902" lon="11.3077528"><ele>357.0</ele><time>2026-04-18T08:53:41.223Z</time></trkpt><trkpt lat="43.5385283" lon="11.3076763"><ele>356.5</ele><time>2026-04-18T08:53:43.222Z</time></trkpt><trkpt lat="43.5384559" lon="11.3076129"><ele>356.0</ele><time>2026-04-18T08:53:45.222Z</time></trkpt><trkpt lat="43.5383912" lon="11.3075623"><ele>355.5</ele><time>2026-04-18T08:53:48.222Z</time></trkpt><trkpt lat="43.5382948" lon="11.3075647"><ele>355.0</ele><time>2026-04-18T08:58:45.221Z</time></trkpt><trkpt lat="43.5381971" lon="11.3076537"><ele>354.5</ele><time>2026-04-18T08:58:47.222Z</time></trkpt><trkpt lat="43.5381407" lon="11.3077041"><ele>354.0</ele><time>2026-04-18T08:58:48.222Z</time></trkpt><trkpt lat="43.5380765" lon="11.3077569"><ele>354.0</ele><time>2026-04-18T08:58:49.221Z</time></trkpt><trkpt lat="43.5380162" lon="11.3078039"><ele>354.0</ele><time>2026-04-18T08:58:50.221Z</time></trkpt><trkpt lat="43.537957" lon="11.3078473"><ele>354.0</ele><time>2026-04-18T08:58:51.22Z</time></trkpt><trkpt lat="43.5378987" lon="11.3078953"><ele>354.0</ele><time>2026-04-18T08:58:52.221Z</time></trkpt><trkpt lat="43.5378398" lon="11.3079472"><ele>354.0</ele><time>2026-04-18T08:58:53.221Z</time></trkpt><trkpt lat="43.5377735" lon="11.307995"><ele>354.0</ele><time>2026-04-18T08:58:54.222Z</time></trkpt><trkpt lat="43.5377099" lon="11.308043"><ele>354.0</ele><time>2026-04-18T08:58:55.222Z</time></trkpt><trkpt lat="43.5376453" lon="11.3080865"><ele>356.7142857142857</ele><time>2026-04-18T08:58:56.222Z</time></trkpt><trkpt lat="43.5375752" lon="11.308133"><ele>359.4285714285714</ele><time>2026-04-18T08:58:57.221Z</time></trkpt><trkpt lat="43.5375118" lon="11.3081849"><ele>362.1428571428571</ele><time>2026-04-18T08:58:58.222Z</time></trkpt><trkpt lat="43.5374549" lon="11.3082385"><ele>364.8571428571429</ele><time>2026-04-18T08:58:59.222Z</time></trkpt><trkpt lat="43.5374158" lon="11.3083129"><ele>367.57142857142856</ele><time>2026-04-18T08:59:00.221Z</time></trkpt><trkpt lat="43.5373841" lon="11.3083953"><ele>370.2857142857143</ele><time>2026-04-18T08:59:01.222Z</time></trkpt><trkpt lat="43.5373615" lon="11.3084846"><ele>373.0</ele><time>2026-04-18T08:59:02.22Z</time></trkpt><trkpt lat="43.5373106" lon="11.3086254"><ele>373.0</ele><time>2026-04-18T08:59:04.222Z</time></trkpt><trkpt lat="43.5372457" lon="11.3087428"><ele>373.0</ele><time>2026-04-18T08:59:06.222Z</time></trkpt><trkpt lat="43.5372108" lon="11.3088949"><ele>373.0</ele><time>2026-04-18T08:59:08.22Z</time></trkpt><trkpt lat="43.5372067" lon="11.3090352"><ele>373.0</ele><time>2026-04-18T08:59:10.221Z</time></trkpt><trkpt lat="43.5372125" lon="11.3091844"><ele>373.0</ele><time>2026-04-18T08:59:12.22Z</time></trkpt><trkpt lat="43.5372296" lon="11.3093321"><ele>374.4</ele><time>2026-04-18T08:59:14.221Z</time></trkpt><trkpt lat="43.537236" lon="11.3094812"><ele>375.79999999999995</ele><time>2026-04-18T08:59:16.22Z</time></trkpt><trkpt lat="43.5372036" lon="11.3096141"><ele>377.2</ele><time>2026-04-18T08:59:18.221Z</time></trkpt><trkpt lat="43.5371303" lon="11.3097269"><ele>378.6</ele><time>2026-04-18T08:59:20.222Z</time></trkpt><trkpt lat="43.5370199" lon="11.3098018"><ele>380.0</ele><time>2026-04-18T08:59:22.222Z</time></trkpt><trkpt lat="43.5369007" lon="11.3098741"><ele>381.6666666666667</ele><time>2026-04-18T08:59:24.22Z</time></trkpt><trkpt lat="43.5368373" lon="11.3099196"><ele>383.33333333333337</ele><time>2026-04-18T08:59:25.221Z</time></trkpt><trkpt lat="43.536778" lon="11.3099767"><ele>385.0</ele><time>2026-04-18T08:59:26.221Z</time></trkpt><trkpt lat="43.5367149" lon="11.3100508"><ele>386.6666666666667</ele><time>2026-04-18T08:59:27.221Z</time></trkpt><trkpt lat="43.5366612" lon="11.3101301"><ele>388.3333333333333</ele><time>2026-04-18T08:59:28.222Z</time></trkpt><trkpt lat="43.536607" lon="11.3102088"><ele>390.0</ele><time>2026-04-18T08:59:29.221Z</time></trkpt><trkpt lat="43.5365628" lon="11.3102878"><ele>390.0</ele><time>2026-04-18T08:59:30.221Z</time></trkpt><trkpt lat="43.5365178" lon="11.310361"><ele>390.0</ele><time>2026-04-18T08:59:31.22Z</time></trkpt><trkpt lat="43.5364689" lon="11.3104368"><ele>390.0</ele><time>2026-04-18T08:59:32.22Z</time></trkpt><trkpt lat="43.5364225" lon="11.3105107"><ele>390.0</ele><time>2026-04-18T08:59:33.221Z</time></trkpt><trkpt lat="43.5363711" lon="11.310586"><ele>390.0</ele><time>2026-04-18T08:59:34.222Z</time></trkpt><trkpt lat="43.5363261" lon="11.310672"><ele>390.0</ele><time>2026-04-18T08:59:35.221Z</time></trkpt><trkpt lat="43.5362814" lon="11.310751"><ele>390.0</ele><time>2026-04-18T08:59:36.221Z</time></trkpt><trkpt lat="43.5362314" lon="11.3108305"><ele>392.0</ele><time>2026-04-18T08:59:37.221Z</time></trkpt><trkpt lat="43.5361822" lon="11.3109066"><ele>394.0</ele><time>2026-04-18T08:59:38.222Z</time></trkpt><trkpt lat="43.5361356" lon="11.3109826"><ele>396.0</ele><time>2026-04-18T08:59:39.221Z</time></trkpt><trkpt lat="43.5360906" lon="11.3110611"><ele>398.0</ele><time>2026-04-18T08:59:40.22Z</time></trkpt><trkpt lat="43.536045" lon="11.3111418"><ele>400.0</ele><time>2026-04-18T08:59:41.221Z</time></trkpt><trkpt lat="43.5360048" lon="11.3112198"><ele>402.0</ele><time>2026-04-18T08:59:42.222Z</time></trkpt><trkpt lat="43.5359649" lon="11.3113086"><ele>404.0</ele><time>2026-04-18T08:59:43.222Z</time></trkpt><trkpt lat="43.5359205" lon="11.3113912"><ele>405.42857142857144</ele><time>2026-04-18T08:59:44.222Z</time></trkpt><trkpt lat="43.5358761" lon="11.3114756"><ele>406.85714285714283</ele><time>2026-04-18T08:59:45.221Z</time></trkpt><trkpt lat="43.5358295" lon="11.3115606"><ele>408.28571428571433</ele><time>2026-04-18T08:59:46.222Z</time></trkpt><trkpt lat="43.5357829" lon="11.3116397"><ele>409.7142857142857</ele><time>2026-04-18T08:59:47.222Z</time></trkpt><trkpt lat="43.5357358" lon="11.3117214"><ele>411.14285714285717</ele><time>2026-04-18T08:59:48.222Z</time></trkpt><trkpt lat="43.5356949" lon="11.3118022"><ele>412.5714285714286</ele><time>2026-04-18T08:59:49.222Z</time></trkpt><trkpt lat="43.535655" lon="11.3118886"><ele>414.0</ele><time>2026-04-18T08:59:50.221Z</time></trkpt><trkpt lat="43.5356099" lon="11.3119696"><ele>414.00000000000006</ele><time>2026-04-18T08:59:51.221Z</time></trkpt><trkpt lat="43.5355664" lon="11.3120537"><ele>414.0</ele><time>2026-04-18T08:59:52.222Z</time></trkpt><trkpt lat="43.5355271" lon="11.3121348"><ele>414.0</ele><time>2026-04-18T08:59:53.222Z</time></trkpt><trkpt lat="43.5354764" lon="11.3122195"><ele>414.0</ele><time>2026-04-18T08:59:54.221Z</time></trkpt><trkpt lat="43.5354281" lon="11.3123028"><ele>414.0</ele><time>2026-04-18T08:59:55.221Z</time></trkpt><trkpt lat="43.5353849" lon="11.31238"><ele>414.00000000000006</ele><time>2026-04-18T08:59:56.221Z</time></trkpt><trkpt lat="43.535355" lon="11.3124597"><ele>414.0</ele><time>2026-04-18T08:59:57.22Z</time></trkpt><trkpt lat="43.5353514" lon="11.3125484"><ele>415.1666666666667</ele><time>2026-04-18T08:59:58.222Z</time></trkpt><trkpt lat="43.535363" lon="11.3126494"><ele>416.33333333333337</ele><time>2026-04-18T08:59:59.221Z</time></trkpt><trkpt lat="43.5353984" lon="11.3127843"><ele>417.5</ele><time>2026-04-18T09:00:01.221Z</time></trkpt><trkpt lat="43.5352965" lon="11.3127481"><ele>418.6666666666667</ele><time>2026-04-18T09:00:05.222Z</time></trkpt><trkpt lat="43.5352514" lon="11.3126856"><ele>419.83333333333337</ele><time>2026-04-18T09:00:06.221Z</time></trkpt><trkpt lat="43.5351953" lon="11.3126023"><ele>421.0</ele><time>2026-04-18T09:00:07.22Z</time></trkpt><trkpt lat="43.53514" lon="11.3125269"><ele>423.00000000000006</ele><time>2026-04-18T09:00:08.221Z</time></trkpt><trkpt lat="43.5350916" lon="11.3124514"><ele>425.0</ele><time>2026-04-18T09:00:09.221Z</time></trkpt><trkpt lat="43.5350339" lon="11.3123196"><ele>427.0</ele><time>2026-04-18T09:00:11.221Z</time></trkpt><trkpt lat="43.5349537" lon="11.3122819"><ele>429.0</ele><time>2026-04-18T09:00:14.222Z</time></trkpt><trkpt lat="43.5350015" lon="11.3124048"><ele>431.00000000000006</ele><time>2026-04-18T09:00:17.222Z</time></trkpt><trkpt lat="43.535052" lon="11.3124689"><ele>433.0</ele><time>2026-04-18T09:00:18.221Z</time></trkpt><trkpt lat="43.5351064" lon="11.3125407"><ele>433.0</ele><time>2026-04-18T09:00:19.222Z</time></trkpt><trkpt lat="43.5351675" lon="11.3126165"><ele>432.99999999999994</ele><time>2026-04-18T09:00:20.221Z</time></trkpt><trkpt lat="43.5352324" lon="11.3126975"><ele>432.99999999999994</ele><time>2026-04-18T09:00:21.222Z</time></trkpt><trkpt lat="43.5352992" lon="11.3127917"><ele>433.0</ele><time>2026-04-18T09:00:22.221Z</time></trkpt><trkpt lat="43.5353705" lon="11.3128899"><ele>433.0</ele><time>2026-04-18T09:00:23.22Z</time></trkpt><trkpt lat="43.5354353" lon="11.3129871"><ele>432.00000000000006</ele><time>2026-04-18T09:00:24.222Z</time></trkpt><trkpt lat="43.5354929" lon="11.3130688"><ele>431.0</ele><time>2026-04-18T09:00:25.221Z</time></trkpt><trkpt lat="43.5355449" lon="11.3131449"><ele>430.0</ele><time>2026-04-18T09:00:26.221Z</time></trkpt><trkpt lat="43.5355929" lon="11.313206"><ele>429.0</ele><time>2026-04-18T09:00:27.221Z</time></trkpt><trkpt lat="43.5356516" lon="11.3133052"><ele>428.00000000000006</ele><time>2026-04-18T09:00:29.221Z</time></trkpt><trkpt lat="43.5355839" lon="11.3133356"><ele>427.0</ele><time>2026-04-18T09:00:32.221Z</time></trkpt><trkpt lat="43.5354784" lon="11.31327"><ele>428.20000000000005</ele><time>2026-04-18T09:00:34.222Z</time></trkpt><trkpt lat="43.5353824" lon="11.3131972"><ele>429.40000000000003</ele><time>2026-04-18T09:00:36.221Z</time></trkpt><trkpt lat="43.5352932" lon="11.3131273"><ele>430.59999999999997</ele><time>2026-04-18T09:00:38.221Z</time></trkpt><trkpt lat="43.5351983" lon="11.3130672"><ele>431.79999999999995</ele><time>2026-04-18T09:00:40.221Z</time></trkpt><trkpt lat="43.5350877" lon="11.3130395"><ele>433.0</ele><time>2026-04-18T09:00:42.22Z</time></trkpt><trkpt lat="43.5350144" lon="11.3130288"><ele>433.00000000000006</ele><time>2026-04-18T09:00:43.222Z</time></trkpt><trkpt lat="43.5349309" lon="11.3130208"><ele>433.0</ele><time>2026-04-18T09:00:44.222Z</time></trkpt><trkpt lat="43.5348484" lon="11.3130087"><ele>433.0</ele><time>2026-04-18T09:00:45.22Z</time></trkpt><trkpt lat="43.5347638" lon="11.3129992"><ele>433.0</ele><time>2026-04-18T09:00:46.221Z</time></trkpt><trkpt lat="43.5346711" lon="11.3129933"><ele>433.00000000000006</ele><time>2026-04-18T09:00:47.221Z</time></trkpt><trkpt lat="43.5345807" lon="11.3129894"><ele>433.0</ele><time>2026-04-18T09:00:48.221Z</time></trkpt><trkpt lat="43.5344948" lon="11.3129835"><ele>435.50000000000006</ele><time>2026-04-18T09:00:49.222Z</time></trkpt><trkpt lat="43.5344174" lon="11.3129818"><ele>438.0</ele><time>2026-04-18T09:00:50.221Z</time></trkpt><trkpt lat="43.5343542" lon="11.3129775"><ele>440.5</ele><time>2026-04-18T09:00:51.222Z</time></trkpt><trkpt lat="43.5342856" lon="11.3129684"><ele>443.0</ele><time>2026-04-18T09:00:53.221Z</time></trkpt><trkpt lat="43.5341791" lon="11.31296"><ele>445.50000000000006</ele><time>2026-04-18T09:01:01.221Z</time></trkpt><trkpt lat="43.5341118" lon="11.3129486"><ele>448.0</ele><time>2026-04-18T09:01:03.222Z</time></trkpt><trkpt lat="43.5340372" lon="11.3130041"><ele>449.79999999999995</ele><time>2026-04-18T09:01:06.221Z</time></trkpt><trkpt lat="43.5340943" lon="11.3131168"><ele>451.59999999999997</ele><time>2026-04-18T09:01:09.22Z</time></trkpt><trkpt lat="43.5341739" lon="11.3132114"><ele>453.40000000000003</ele><time>2026-04-18T09:01:11.22Z</time></trkpt><trkpt lat="43.5342633" lon="11.3133359"><ele>455.20000000000005</ele><time>2026-04-18T09:01:13.222Z</time></trkpt><trkpt lat="43.5343173" lon="11.313405"><ele>457.0</ele><time>2026-04-18T09:01:14.223Z</time></trkpt><trkpt lat="43.5343679" lon="11.3134695"><ele>457.00000000000006</ele><time>2026-04-18T09:01:15.221Z</time></trkpt><trkpt lat="43.534437" lon="11.3135362"><ele>457.0</ele><time>2026-04-18T09:01:16.222Z</time></trkpt><trkpt lat="43.5345015" lon="11.3136116"><ele>457.0</ele><time>2026-04-18T09:01:17.22Z</time></trkpt><trkpt lat="43.5345675" lon="11.3136955"><ele>457.0</ele><time>2026-04-18T09:01:18.22Z</time></trkpt><trkpt lat="43.5346359" lon="11.3137794"><ele>457.00000000000006</ele><time>2026-04-18T09:01:19.221Z</time></trkpt><trkpt lat="43.5347043" lon="11.3138626"><ele>457.0</ele><time>2026-04-18T09:01:20.222Z</time></trkpt><trkpt lat="43.5347643" lon="11.3139479"><ele>456.83333333333337</ele><time>2026-04-18T09:01:21.222Z</time></trkpt><trkpt lat="43.5348173" lon="11.3140348"><ele>456.6666666666667</ele><time>2026-04-18T09:01:22.22Z</time></trkpt><trkpt lat="43.5348559" lon="11.314122"><ele>456.5</ele><time>2026-04-18T09:01:23.221Z</time></trkpt><trkpt lat="43.534891" lon="11.3142089"><ele>456.33333333333337</ele><time>2026-04-18T09:01:24.221Z</time></trkpt><trkpt lat="43.5349227" lon="11.3142913"><ele>456.1666666666667</ele><time>2026-04-18T09:01:25.221Z</time></trkpt><trkpt lat="43.5349525" lon="11.3144655"><ele>456.0</ele><time>2026-04-18T09:01:27.221Z</time></trkpt><trkpt lat="43.5349513" lon="11.3145723"><ele>456.0</ele><time>2026-04-18T09:01:28.222Z</time></trkpt><trkpt lat="43.5349543" lon="11.3146825"><ele>456.0</ele><time>2026-04-18T09:01:29.221Z</time></trkpt><trkpt lat="43.5349605" lon="11.314783"><ele>456.0</ele><time>2026-04-18T09:01:30.221Z</time></trkpt><trkpt lat="43.5349619" lon="11.3148737"><ele>456.0</ele><time>2026-04-18T09:01:31.22Z</time></trkpt><trkpt lat="43.534959" lon="11.3150433"><ele>456.0</ele><time>2026-04-18T09:01:33.221Z</time></trkpt><trkpt lat="43.5349838" lon="11.3152288"><ele>456.0</ele><time>2026-04-18T09:01:35.222Z</time></trkpt><trkpt lat="43.5350073" lon="11.3153352"><ele>456.0</ele><time>2026-04-18T09:01:36.22Z</time></trkpt><trkpt lat="43.5350392" lon="11.3154594"><ele>456.0</ele><time>2026-04-18T09:01:37.222Z</time></trkpt><trkpt lat="43.5350795" lon="11.3155869"><ele>456.0</ele><time>2026-04-18T09:01:38.22Z</time></trkpt><trkpt lat="43.5351299" lon="11.3157241"><ele>456.0</ele><time>2026-04-18T09:01:39.221Z</time></trkpt><trkpt lat="43.5351786" lon="11.3158464"><ele>456.0</ele><time>2026-04-18T09:01:40.222Z</time></trkpt><trkpt lat="43.5352173" lon="11.3159609"><ele>456.0</ele><time>2026-04-18T09:01:41.22Z</time></trkpt><trkpt lat="43.535258" lon="11.3160775"><ele>456.0</ele><time>2026-04-18T09:01:42.22Z</time></trkpt><trkpt lat="43.5352943" lon="11.3161916"><ele>456.0</ele><time>2026-04-18T09:01:43.22Z</time></trkpt><trkpt lat="43.5353325" lon="11.3163136"><ele>456.0</ele><time>2026-04-18T09:01:44.22Z</time></trkpt><trkpt lat="43.5353806" lon="11.3164421"><ele>456.0</ele><time>2026-04-18T09:01:45.221Z</time></trkpt><trkpt lat="43.5354337" lon="11.3165614"><ele>456.0</ele><time>2026-04-18T09:01:46.221Z</time></trkpt><trkpt lat="43.5355023" lon="11.316685"><ele>456.0</ele><time>2026-04-18T09:01:47.222Z</time></trkpt><trkpt lat="43.5355817" lon="11.3167934"><ele>456.0</ele><time>2026-04-18T09:01:48.22Z</time></trkpt><trkpt lat="43.5356428" lon="11.3169211"><ele>456.0</ele><time>2026-04-18T09:01:49.222Z</time></trkpt><trkpt lat="43.535693" lon="11.3170618"><ele>456.0</ele><time>2026-04-18T09:01:50.22Z</time></trkpt><trkpt lat="43.5357404" lon="11.3172048"><ele>456.0</ele><time>2026-04-18T09:01:51.221Z</time></trkpt><trkpt lat="43.535802" lon="11.3173384"><ele>456.0</ele><time>2026-04-18T09:01:52.222Z</time></trkpt><trkpt lat="43.535867" lon="11.3174631"><ele>456.0</ele><time>2026-04-18T09:01:53.221Z</time></trkpt><trkpt lat="43.5359407" lon="11.3175845"><ele>458.25</ele><time>2026-04-18T09:01:54.22Z</time></trkpt><trkpt lat="43.5360107" lon="11.3177085"><ele>460.5</ele><time>2026-04-18T09:01:55.22Z</time></trkpt><trkpt lat="43.5360709" lon="11.3178371"><ele>462.75</ele><time>2026-04-18T09:01:56.221Z</time></trkpt><trkpt lat="43.536119" lon="11.3179785"><ele>465.0</ele><time>2026-04-18T09:01:57.221Z</time></trkpt><trkpt lat="43.5361625" lon="11.3181207"><ele>465.6</ele><time>2026-04-18T09:01:58.222Z</time></trkpt><trkpt lat="43.5362119" lon="11.3182739"><ele>466.2</ele><time>2026-04-18T09:01:59.221Z</time></trkpt><trkpt lat="43.5362563" lon="11.3184215"><ele>466.79999999999995</ele><time>2026-04-18T09:02:00.221Z</time></trkpt><trkpt lat="43.536295" lon="11.3185479"><ele>467.4</ele><time>2026-04-18T09:02:01.22Z</time></trkpt><trkpt lat="43.5363393" lon="11.3186707"><ele>468.0</ele><time>2026-04-18T09:02:02.22Z</time></trkpt><trkpt lat="43.5363809" lon="11.3187826"><ele>469.4</ele><time>2026-04-18T09:02:03.222Z</time></trkpt><trkpt lat="43.5364327" lon="11.3188651"><ele>470.79999999999995</ele><time>2026-04-18T09:02:04.22Z</time></trkpt><trkpt lat="43.5364996" lon="11.3189285"><ele>472.2</ele><time>2026-04-18T09:02:05.222Z</time></trkpt><trkpt lat="43.5365915" lon="11.3189466"><ele>473.6</ele><time>2026-04-18T09:02:06.22Z</time></trkpt><trkpt lat="43.5366973" lon="11.3189602"><ele>475.0</ele><time>2026-04-18T09:02:07.22Z</time></trkpt><trkpt lat="43.5367987" lon="11.318972"><ele>475.0</ele><time>2026-04-18T09:02:08.221Z</time></trkpt><trkpt lat="43.5369004" lon="11.3190075"><ele>475.0</ele><time>2026-04-18T09:02:09.221Z</time></trkpt><trkpt lat="43.5370145" lon="11.3190561"><ele>475.0</ele><time>2026-04-18T09:02:10.222Z</time></trkpt><trkpt lat="43.5371281" lon="11.3191285"><ele>475.0</ele><time>2026-04-18T09:02:11.221Z</time></trkpt><trkpt lat="43.5372401" lon="11.3192309"><ele>478.25</ele><time>2026-04-18T09:02:12.22Z</time></trkpt><trkpt lat="43.5373394" lon="11.3193367"><ele>481.5</ele><time>2026-04-18T09:02:13.222Z</time></trkpt><trkpt lat="43.5374576" lon="11.3194349"><ele>484.75</ele><time>2026-04-18T09:02:14.22Z</time></trkpt><trkpt lat="43.5375874" lon="11.3195154"><ele>488.0</ele><time>2026-04-18T09:02:15.221Z</time></trkpt><trkpt lat="43.5377177" lon="11.3195859"><ele>488.0</ele><time>2026-04-18T09:02:16.221Z</time></trkpt><trkpt lat="43.5378384" lon="11.3196382"><ele>488.0</ele><time>2026-04-18T09:02:17.221Z</time></trkpt><trkpt lat="43.5379545" lon="11.3196644"><ele>488.0</ele><time>2026-04-18T09:02:18.221Z</time></trkpt><trkpt lat="43.538064" lon="11.3196461"><ele>488.0</ele><time>2026-04-18T09:02:19.221Z</time></trkpt><trkpt lat="43.5381591" lon="11.3196007"><ele>488.16666666666663</ele><time>2026-04-18T09:02:20.22Z</time></trkpt><trkpt lat="43.5382544" lon="11.3195655"><ele>488.3333333333333</ele><time>2026-04-18T09:02:21.22Z</time></trkpt><trkpt lat="43.5383409" lon="11.31956"><ele>488.5</ele><time>2026-04-18T09:02:22.22Z</time></trkpt><trkpt lat="43.5384197" lon="11.3195522"><ele>488.66666666666663</ele><time>2026-04-18T09:02:23.22Z</time></trkpt><trkpt lat="43.5384951" lon="11.3195573"><ele>488.8333333333333</ele><time>2026-04-18T09:02:24.221Z</time></trkpt><trkpt lat="43.5385749" lon="11.3195726"><ele>489.0</ele><time>2026-04-18T09:02:25.221Z</time></trkpt><trkpt lat="43.5386659" lon="11.3196084"><ele>488.25</ele><time>2026-04-18T09:02:26.22Z</time></trkpt><trkpt lat="43.5387688" lon="11.319645"><ele>487.5</ele><time>2026-04-18T09:02:27.22Z</time></trkpt><trkpt lat="43.5388811" lon="11.3196775"><ele>486.75</ele><time>2026-04-18T09:02:28.221Z</time></trkpt><trkpt lat="43.5389988" lon="11.3197099"><ele>486.0</ele><time>2026-04-18T09:02:29.221Z</time></trkpt><trkpt lat="43.5391236" lon="11.3197459"><ele>488.75</ele><time>2026-04-18T09:02:30.22Z</time></trkpt><trkpt lat="43.5392547" lon="11.3197819"><ele>491.5</ele><time>2026-04-18T09:02:31.221Z</time></trkpt><trkpt lat="43.5393739" lon="11.319813"><ele>494.25</ele><time>2026-04-18T09:02:32.22Z</time></trkpt><trkpt lat="43.5394997" lon="11.3198364"><ele>497.0</ele><time>2026-04-18T09:02:33.221Z</time></trkpt><trkpt lat="43.5396265" lon="11.3198618"><ele>497.5</ele><time>2026-04-18T09:02:34.221Z</time></trkpt><trkpt lat="43.5397561" lon="11.3198761"><ele>498.0</ele><time>2026-04-18T09:02:35.221Z</time></trkpt><trkpt lat="43.5398854" lon="11.3198825"><ele>498.5</ele><time>2026-04-18T09:02:36.221Z</time></trkpt><trkpt lat="43.5400179" lon="11.3198872"><ele>499.0</ele><time>2026-04-18T09:02:37.222Z</time></trkpt><trkpt lat="43.5401412" lon="11.3198938"><ele>499.0</ele><time>2026-04-18T09:02:38.221Z</time></trkpt><trkpt lat="43.5402749" lon="11.3199062"><ele>499.0</ele><time>2026-04-18T09:02:39.22Z</time></trkpt><trkpt lat="43.5404171" lon="11.3199173"><ele>499.0</ele><time>2026-04-18T09:02:40.221Z</time></trkpt><trkpt lat="43.5405583" lon="11.3199371"><ele>499.0</ele><time>2026-04-18T09:02:41.22Z</time></trkpt><trkpt lat="43.5406804" lon="11.3199664"><ele>499.1666666666667</ele><time>2026-04-18T09:02:42.22Z</time></trkpt><trkpt lat="43.5407917" lon="11.3199924"><ele>499.33333333333337</ele><time>2026-04-18T09:02:43.221Z</time></trkpt><trkpt lat="43.5408871" lon="11.3200177"><ele>499.5</ele><time>2026-04-18T09:02:44.221Z</time></trkpt><trkpt lat="43.5409698" lon="11.320038"><ele>499.66666666666663</ele><time>2026-04-18T09:02:45.222Z</time></trkpt><trkpt lat="43.5410474" lon="11.3200519"><ele>499.8333333333333</ele><time>2026-04-18T09:02:46.221Z</time></trkpt><trkpt lat="43.5411167" lon="11.3200695"><ele>500.0</ele><time>2026-04-18T09:02:47.221Z</time></trkpt><trkpt lat="43.5411805" lon="11.3200791"><ele>499.99999999999994</ele><time>2026-04-18T09:02:48.221Z</time></trkpt><trkpt lat="43.5412432" lon="11.3201229"><ele>500.0</ele><time>2026-04-18T09:02:50.22Z</time></trkpt><trkpt lat="43.5412088" lon="11.3202032"><ele>500.0</ele><time>2026-04-18T09:02:53.221Z</time></trkpt><trkpt lat="43.5411258" lon="11.3202772"><ele>500.0</ele><time>2026-04-18T09:02:55.221Z</time></trkpt><trkpt lat="43.5410775" lon="11.3203357"><ele>499.99999999999994</ele><time>2026-04-18T09:02:56.221Z</time></trkpt><trkpt lat="43.5410285" lon="11.3204103"><ele>500.0</ele><time>2026-04-18T09:02:57.221Z</time></trkpt><trkpt lat="43.54098" lon="11.3205073"><ele>501.0</ele><time>2026-04-18T09:02:58.221Z</time></trkpt><trkpt lat="43.5409329" lon="11.3206058"><ele>502.0</ele><time>2026-04-18T09:02:59.22Z</time></trkpt><trkpt lat="43.5408819" lon="11.3207081"><ele>503.0</ele><time>2026-04-18T09:03:00.222Z</time></trkpt><trkpt lat="43.5408331" lon="11.3208172"><ele>504.0</ele><time>2026-04-18T09:03:01.221Z</time></trkpt><trkpt lat="43.5407833" lon="11.3209364"><ele>505.0</ele><time>2026-04-18T09:03:02.22Z</time></trkpt><trkpt lat="43.5407315" lon="11.3210654"><ele>505.0</ele><time>2026-04-18T09:03:03.221Z</time></trkpt><trkpt lat="43.5406741" lon="11.3211928"><ele>505.0</ele><time>2026-04-18T09:03:04.221Z</time></trkpt><trkpt lat="43.5406236" lon="11.3213101"><ele>505.0</ele><time>2026-04-18T09:03:05.221Z</time></trkpt><trkpt lat="43.5405683" lon="11.3214287"><ele>505.0</ele><time>2026-04-18T09:03:06.22Z</time></trkpt><trkpt lat="43.5405096" lon="11.3215627"><ele>505.0</ele><time>2026-04-18T09:03:07.221Z</time></trkpt><trkpt lat="43.5404543" lon="11.321684"><ele>504.50000000000006</ele><time>2026-04-18T09:03:08.22Z</time></trkpt><trkpt lat="43.5404044" lon="11.3217957"><ele>504.0</ele><time>2026-04-18T09:03:09.221Z</time></trkpt><trkpt lat="43.540363" lon="11.3218915"><ele>503.5</ele><time>2026-04-18T09:03:10.221Z</time></trkpt><trkpt lat="43.5403284" lon="11.3219856"><ele>503.0</ele><time>2026-04-18T09:03:11.221Z</time></trkpt><trkpt lat="43.5402991" lon="11.3220736"><ele>502.50000000000006</ele><time>2026-04-18T09:03:12.221Z</time></trkpt><trkpt lat="43.5402642" lon="11.3222378"><ele>502.0</ele><time>2026-04-18T09:03:14.22Z</time></trkpt><trkpt lat="43.5402562" lon="11.3223242"><ele>504.40000000000003</ele><time>2026-04-18T09:03:15.221Z</time></trkpt><trkpt lat="43.540207" lon="11.3224642"><ele>506.80000000000007</ele><time>2026-04-18T09:03:17.222Z</time></trkpt><trkpt lat="43.5401441" lon="11.3225946"><ele>509.2</ele><time>2026-04-18T09:03:19.221Z</time></trkpt><trkpt lat="43.5400942" lon="11.3226626"><ele>511.6</ele><time>2026-04-18T09:03:20.221Z</time></trkpt><trkpt lat="43.5400415" lon="11.3227118"><ele>514.0</ele><time>2026-04-18T09:03:21.221Z</time></trkpt><trkpt lat="43.5399472" lon="11.3227968"><ele>514.0</ele><time>2026-04-18T09:03:23.221Z</time></trkpt><trkpt lat="43.5398337" lon="11.3228889"><ele>514.0</ele><time>2026-04-18T09:03:25.222Z</time></trkpt><trkpt lat="43.5397763" lon="11.322971"><ele>514.0</ele><time>2026-04-18T09:03:26.221Z</time></trkpt><trkpt lat="43.5397174" lon="11.3230574"><ele>514.0</ele><time>2026-04-18T09:03:27.221Z</time></trkpt><trkpt lat="43.5396486" lon="11.3231923"><ele>514.0</ele><time>2026-04-18T09:03:28.22Z</time></trkpt><trkpt lat="43.5395808" lon="11.3233287"><ele>512.2</ele><time>2026-04-18T09:03:29.221Z</time></trkpt><trkpt lat="43.5395123" lon="11.3234718"><ele>510.4</ele><time>2026-04-18T09:03:30.22Z</time></trkpt><trkpt lat="43.5394488" lon="11.3236091"><ele>508.6</ele><time>2026-04-18T09:03:31.221Z</time></trkpt><trkpt lat="43.5393883" lon="11.3237305"><ele>506.8</ele><time>2026-04-18T09:03:32.221Z</time></trkpt><trkpt lat="43.5393374" lon="11.323839"><ele>505.0</ele><time>2026-04-18T09:03:33.221Z</time></trkpt><trkpt lat="43.5392937" lon="11.3239567"><ele>505.0</ele><time>2026-04-18T09:03:34.221Z</time></trkpt><trkpt lat="43.5392435" lon="11.3240604"><ele>505.0</ele><time>2026-04-18T09:03:35.221Z</time></trkpt><trkpt lat="43.5391874" lon="11.3241788"><ele>505.0</ele><time>2026-04-18T09:03:36.221Z</time></trkpt><trkpt lat="43.5391307" lon="11.3242965"><ele>505.0</ele><time>2026-04-18T09:03:37.22Z</time></trkpt><trkpt lat="43.5390861" lon="11.3244247"><ele>505.0</ele><time>2026-04-18T09:03:38.221Z</time></trkpt><trkpt lat="43.539047" lon="11.324557"><ele>505.00000000000006</ele><time>2026-04-18T09:03:39.221Z</time></trkpt><trkpt lat="43.5390168" lon="11.3246598"><ele>505.0</ele><time>2026-04-18T09:03:40.221Z</time></trkpt><trkpt lat="43.5389837" lon="11.324773"><ele>505.0</ele><time>2026-04-18T09:03:41.221Z</time></trkpt><trkpt lat="43.5389493" lon="11.3248791"><ele>505.0</ele><time>2026-04-18T09:03:42.221Z</time></trkpt><trkpt lat="43.538906" lon="11.3249943"><ele>505.00000000000006</ele><time>2026-04-18T09:03:43.221Z</time></trkpt><trkpt lat="43.5388606" lon="11.3251151"><ele>505.0</ele><time>2026-04-18T09:03:44.221Z</time></trkpt><trkpt lat="43.5388173" lon="11.3252503"><ele>504.6</ele><time>2026-04-18T09:03:45.221Z</time></trkpt><trkpt lat="43.538774" lon="11.3253831"><ele>504.2</ele><time>2026-04-18T09:03:46.22Z</time></trkpt><trkpt lat="43.538737" lon="11.3255199"><ele>503.79999999999995</ele><time>2026-04-18T09:03:47.221Z</time></trkpt><trkpt lat="43.5387076" lon="11.3256534"><ele>503.4</ele><time>2026-04-18T09:03:48.221Z</time></trkpt><trkpt lat="43.5386806" lon="11.3257886"><ele>503.0</ele><time>2026-04-18T09:03:49.22Z</time></trkpt><trkpt lat="43.5386642" lon="11.3259226"><ele>503.0</ele><time>2026-04-18T09:03:50.219Z</time></trkpt><trkpt lat="43.5386666" lon="11.3260645"><ele>503.0</ele><time>2026-04-18T09:03:51.221Z</time></trkpt><trkpt lat="43.5386789" lon="11.326223"><ele>503.0</ele><time>2026-04-18T09:03:52.22Z</time></trkpt><trkpt lat="43.5387157" lon="11.3263779"><ele>503.0</ele><time>2026-04-18T09:03:53.222Z</time></trkpt><trkpt lat="43.5387454" lon="11.3265432"><ele>506.4</ele><time>2026-04-18T09:03:54.221Z</time></trkpt><trkpt lat="43.5387791" lon="11.3266916"><ele>509.79999999999995</ele><time>2026-04-18T09:03:55.22Z</time></trkpt><trkpt lat="43.5388011" lon="11.326823"><ele>513.2</ele><time>2026-04-18T09:03:56.221Z</time></trkpt><trkpt lat="43.5388081" lon="11.3269628"><ele>516.6</ele><time>2026-04-18T09:03:57.22Z</time></trkpt><trkpt lat="43.5387922" lon="11.3271135"><ele>520.0</ele><time>2026-04-18T09:03:58.221Z</time></trkpt><trkpt lat="43.5387573" lon="11.3272705"><ele>517.75</ele><time>2026-04-18T09:03:59.221Z</time></trkpt><trkpt lat="43.5387079" lon="11.3274236"><ele>515.5</ele><time>2026-04-18T09:04:00.22Z</time></trkpt><trkpt lat="43.5386472" lon="11.3275777"><ele>513.25</ele><time>2026-04-18T09:04:01.22Z</time></trkpt><trkpt lat="43.5385731" lon="11.3277234"><ele>511.0</ele><time>2026-04-18T09:04:02.221Z</time></trkpt><trkpt lat="43.5384961" lon="11.3278468"><ele>511.00000000000006</ele><time>2026-04-18T09:04:03.221Z</time></trkpt><trkpt lat="43.5384231" lon="11.3279602"><ele>511.0</ele><time>2026-04-18T09:04:04.221Z</time></trkpt><trkpt lat="43.53836" lon="11.3280528"><ele>511.0</ele><time>2026-04-18T09:04:05.22Z</time></trkpt><trkpt lat="43.5383081" lon="11.3281309"><ele>511.0</ele><time>2026-04-18T09:04:06.221Z</time></trkpt><trkpt lat="43.5382573" lon="11.3282127"><ele>511.00000000000006</ele><time>2026-04-18T09:04:07.221Z</time></trkpt><trkpt lat="43.5382053" lon="11.3282885"><ele>511.0</ele><time>2026-04-18T09:04:08.221Z</time></trkpt><trkpt lat="43.5381549" lon="11.3283817"><ele>512.8333333333334</ele><time>2026-04-18T09:04:09.221Z</time></trkpt><trkpt lat="43.5381101" lon="11.3284811"><ele>514.6666666666667</ele><time>2026-04-18T09:04:10.22Z</time></trkpt><trkpt lat="43.5380774" lon="11.3285814"><ele>516.5</ele><time>2026-04-18T09:04:11.22Z</time></trkpt><trkpt lat="43.5380512" lon="11.3286886"><ele>518.3333333333334</ele><time>2026-04-18T09:04:12.221Z</time></trkpt><trkpt lat="43.5380317" lon="11.3288182"><ele>520.1666666666666</ele><time>2026-04-18T09:04:13.221Z</time></trkpt><trkpt lat="43.5380187" lon="11.3289563"><ele>522.0</ele><time>2026-04-18T09:04:14.221Z</time></trkpt><trkpt lat="43.5380153" lon="11.3291038"><ele>522.75</ele><time>2026-04-18T09:04:15.22Z</time></trkpt><trkpt lat="43.5380109" lon="11.3292575"><ele>523.5</ele><time>2026-04-18T09:04:16.221Z</time></trkpt><trkpt lat="43.5380145" lon="11.3294234"><ele>524.25</ele><time>2026-04-18T09:04:17.221Z</time></trkpt><trkpt lat="43.5380278" lon="11.3296037"><ele>525.0</ele><time>2026-04-18T09:04:18.22Z</time></trkpt><trkpt lat="43.538044" lon="11.3297956"><ele>525.0</ele><time>2026-04-18T09:04:19.221Z</time></trkpt><trkpt lat="43.5380538" lon="11.3299769"><ele>525.0</ele><time>2026-04-18T09:04:20.221Z</time></trkpt><trkpt lat="43.5380615" lon="11.3301369"><ele>525.0</ele><time>2026-04-18T09:04:21.22Z</time></trkpt><trkpt lat="43.5380739" lon="11.3302923"><ele>525.0</ele><time>2026-04-18T09:04:22.221Z</time></trkpt><trkpt lat="43.5380816" lon="11.3304449"><ele>523.25</ele><time>2026-04-18T09:04:23.22Z</time></trkpt><trkpt lat="43.5380939" lon="11.3306014"><ele>521.5</ele><time>2026-04-18T09:04:24.221Z</time></trkpt><trkpt lat="43.538112" lon="11.3307595"><ele>519.75</ele><time>2026-04-18T09:04:25.22Z</time></trkpt><trkpt lat="43.5381313" lon="11.3309259"><ele>518.0</ele><time>2026-04-18T09:04:26.221Z</time></trkpt><trkpt lat="43.5381442" lon="11.3310708"><ele>518.0</ele><time>2026-04-18T09:04:27.22Z</time></trkpt><trkpt lat="43.5381468" lon="11.3312126"><ele>518.0</ele><time>2026-04-18T09:04:28.221Z</time></trkpt><trkpt lat="43.5381283" lon="11.3313497"><ele>518.0</ele><time>2026-04-18T09:04:29.22Z</time></trkpt><trkpt lat="43.538104" lon="11.3314858"><ele>518.0</ele><time>2026-04-18T09:04:30.22Z</time></trkpt><trkpt lat="43.5380649" lon="11.3316183"><ele>518.0</ele><time>2026-04-18T09:04:31.22Z</time></trkpt><trkpt lat="43.5380005" lon="11.3317596"><ele>517.0</ele><time>2026-04-18T09:04:32.22Z</time></trkpt><trkpt lat="43.5379256" lon="11.3318818"><ele>516.0</ele><time>2026-04-18T09:04:33.221Z</time></trkpt><trkpt lat="43.5378494" lon="11.3320031"><ele>515.0</ele><time>2026-04-18T09:04:34.221Z</time></trkpt><trkpt lat="43.5377738" lon="11.3321146"><ele>514.0</ele><time>2026-04-18T09:04:35.221Z</time></trkpt><trkpt lat="43.5377013" lon="11.3322378"><ele>512.75</ele><time>2026-04-18T09:04:36.221Z</time></trkpt><trkpt lat="43.5376405" lon="11.3323773"><ele>511.5</ele><time>2026-04-18T09:04:37.22Z</time></trkpt><trkpt lat="43.5375874" lon="11.3325438"><ele>510.25</ele><time>2026-04-18T09:04:38.221Z</time></trkpt><trkpt lat="43.5375365" lon="11.3327153"><ele>509.0</ele><time>2026-04-18T09:04:39.221Z</time></trkpt><trkpt lat="43.5374924" lon="11.3328782"><ele>509.0</ele><time>2026-04-18T09:04:40.221Z</time></trkpt><trkpt lat="43.5374567" lon="11.3330285"><ele>509.0</ele><time>2026-04-18T09:04:41.221Z</time></trkpt><trkpt lat="43.5374266" lon="11.3331686"><ele>509.0</ele><time>2026-04-18T09:04:42.22Z</time></trkpt><trkpt lat="43.5374028" lon="11.3332951"><ele>509.0</ele><time>2026-04-18T09:04:43.22Z</time></trkpt><trkpt lat="43.5373897" lon="11.3334238"><ele>509.0</ele><time>2026-04-18T09:04:44.221Z</time></trkpt><trkpt lat="43.5374168" lon="11.333552"><ele>508.75</ele><time>2026-04-18T09:04:45.221Z</time></trkpt><trkpt lat="43.5374263" lon="11.3336976"><ele>508.5</ele><time>2026-04-18T09:04:46.221Z</time></trkpt><trkpt lat="43.5374315" lon="11.3338482"><ele>508.25</ele><time>2026-04-18T09:04:47.221Z</time></trkpt><trkpt lat="43.5374161" lon="11.3340151"><ele>508.0</ele><time>2026-04-18T09:04:48.221Z</time></trkpt><trkpt lat="43.5373989" lon="11.334179"><ele>508.33333333333337</ele><time>2026-04-18T09:04:49.22Z</time></trkpt><trkpt lat="43.5373866" lon="11.3343328"><ele>508.6666666666667</ele><time>2026-04-18T09:04:50.22Z</time></trkpt><trkpt lat="43.5373689" lon="11.334456"><ele>509.0</ele><time>2026-04-18T09:04:51.22Z</time></trkpt><trkpt lat="43.5373511" lon="11.3345714"><ele>509.33333333333337</ele><time>2026-04-18T09:04:52.219Z</time></trkpt><trkpt lat="43.537331" lon="11.3346681"><ele>509.6666666666667</ele><time>2026-04-18T09:04:53.221Z</time></trkpt><trkpt lat="43.5373075" lon="11.3347753"><ele>510.0</ele><time>2026-04-18T09:04:54.219Z</time></trkpt><trkpt lat="43.5372775" lon="11.3348894"><ele>511.2</ele><time>2026-04-18T09:04:55.221Z</time></trkpt><trkpt lat="43.5372431" lon="11.3350241"><ele>512.4</ele><time>2026-04-18T09:04:56.22Z</time></trkpt><trkpt lat="43.5372078" lon="11.3351559"><ele>513.6</ele><time>2026-04-18T09:04:57.221Z</time></trkpt><trkpt lat="43.5371693" lon="11.3352865"><ele>514.8</ele><time>2026-04-18T09:04:58.22Z</time></trkpt><trkpt lat="43.5371196" lon="11.3354151"><ele>516.0</ele><time>2026-04-18T09:04:59.221Z</time></trkpt><trkpt lat="43.5370601" lon="11.3355367"><ele>518.4</ele><time>2026-04-18T09:05:00.221Z</time></trkpt><trkpt lat="43.5370077" lon="11.335647"><ele>520.8</ele><time>2026-04-18T09:05:01.221Z</time></trkpt><trkpt lat="43.5369206" lon="11.3357126"><ele>523.1999999999999</ele><time>2026-04-18T09:05:02.221Z</time></trkpt><trkpt lat="43.5368266" lon="11.3357774"><ele>525.6</ele><time>2026-04-18T09:05:03.221Z</time></trkpt><trkpt lat="43.536714" lon="11.3358326"><ele>528.0</ele><time>2026-04-18T09:05:04.221Z</time></trkpt><trkpt lat="43.5365972" lon="11.3358877"><ele>528.0</ele><time>2026-04-18T09:05:05.219Z</time></trkpt><trkpt lat="43.5364854" lon="11.335943"><ele>528.0</ele><time>2026-04-18T09:05:06.22Z</time></trkpt><trkpt lat="43.5363803" lon="11.3359898"><ele>528.0</ele><time>2026-04-18T09:05:07.222Z</time></trkpt><trkpt lat="43.5362737" lon="11.3360166"><ele>528.0</ele><time>2026-04-18T09:05:08.22Z</time></trkpt><trkpt lat="43.5361739" lon="11.3360039"><ele>528.0</ele><time>2026-04-18T09:05:09.22Z</time></trkpt><trkpt lat="43.5360747" lon="11.3359795"><ele>528.1666666666666</ele><time>2026-04-18T09:05:10.221Z</time></trkpt><trkpt lat="43.5359862" lon="11.3359626"><ele>528.3333333333334</ele><time>2026-04-18T09:05:11.221Z</time></trkpt><trkpt lat="43.5359106" lon="11.3359822"><ele>528.5</ele><time>2026-04-18T09:05:12.221Z</time></trkpt><trkpt lat="43.5358507" lon="11.336042"><ele>528.6666666666667</ele><time>2026-04-18T09:05:13.221Z</time></trkpt><trkpt lat="43.535805" lon="11.3361259"><ele>528.8333333333334</ele><time>2026-04-18T09:05:14.221Z</time></trkpt><trkpt lat="43.5357771" lon="11.3362292"><ele>529.0</ele><time>2026-04-18T09:05:15.221Z</time></trkpt><trkpt lat="43.5357632" lon="11.3363484"><ele>532.2</ele><time>2026-04-18T09:05:16.221Z</time></trkpt><trkpt lat="43.5357588" lon="11.3364714"><ele>535.4</ele><time>2026-04-18T09:05:17.221Z</time></trkpt><trkpt lat="43.5357346" lon="11.3365852"><ele>538.6</ele><time>2026-04-18T09:05:18.219Z</time></trkpt><trkpt lat="43.5356854" lon="11.3366833"><ele>541.8</ele><time>2026-04-18T09:05:19.221Z</time></trkpt><trkpt lat="43.5356204" lon="11.3367644"><ele>545.0</ele><time>2026-04-18T09:05:20.221Z</time></trkpt><trkpt lat="43.5355373" lon="11.3368433"><ele>545.0</ele><time>2026-04-18T09:05:21.221Z</time></trkpt><trkpt lat="43.5354404" lon="11.3369244"><ele>545.0</ele><time>2026-04-18T09:05:22.22Z</time></trkpt><trkpt lat="43.5353346" lon="11.337007"><ele>545.0</ele><time>2026-04-18T09:05:23.221Z</time></trkpt><trkpt lat="43.5352286" lon="11.3370969"><ele>545.0</ele><time>2026-04-18T09:05:24.221Z</time></trkpt><trkpt lat="43.5351138" lon="11.3371952"><ele>548.5</ele><time>2026-04-18T09:05:25.221Z</time></trkpt><trkpt lat="43.5349966" lon="11.3372892"><ele>552.0</ele><time>2026-04-18T09:05:26.22Z</time></trkpt><trkpt lat="43.5348846" lon="11.3373811"><ele>555.5</ele><time>2026-04-18T09:05:27.221Z</time></trkpt><trkpt lat="43.5347799" lon="11.3374829"><ele>559.0</ele><time>2026-04-18T09:05:28.22Z</time></trkpt><trkpt lat="43.5346733" lon="11.3375835"><ele>559.0</ele><time>2026-04-18T09:05:29.221Z</time></trkpt><trkpt lat="43.534569" lon="11.3376756"><ele>559.0</ele><time>2026-04-18T09:05:30.22Z</time></trkpt><trkpt lat="43.534477" lon="11.3377687"><ele>559.0</ele><time>2026-04-18T09:05:31.221Z</time></trkpt><trkpt lat="43.5344065" lon="11.337849"><ele>559.0</ele><time>2026-04-18T09:05:32.22Z</time></trkpt><trkpt lat="43.5343623" lon="11.3379451"><ele>559.0</ele><time>2026-04-18T09:05:33.22Z</time></trkpt><trkpt lat="43.5343379" lon="11.3380409"><ele>558.5</ele><time>2026-04-18T09:05:34.221Z</time></trkpt><trkpt lat="43.5343389" lon="11.3381393"><ele>558.0</ele><time>2026-04-18T09:05:35.221Z</time></trkpt><trkpt lat="43.5343562" lon="11.3382361"><ele>557.5</ele><time>2026-04-18T09:05:36.22Z</time></trkpt><trkpt lat="43.5343824" lon="11.3383202"><ele>557.0</ele><time>2026-04-18T09:05:37.219Z</time></trkpt><trkpt lat="43.53443" lon="11.3384079"><ele>556.5</ele><time>2026-04-18T09:05:38.22Z</time></trkpt><trkpt lat="43.5344736" lon="11.3385001"><ele>556.0</ele><time>2026-04-18T09:05:39.22Z</time></trkpt><trkpt lat="43.5345253" lon="11.338594"><ele>560.6</ele><time>2026-04-18T09:05:40.22Z</time></trkpt><trkpt lat="43.5345752" lon="11.3386924"><ele>565.2</ele><time>2026-04-18T09:05:41.22Z</time></trkpt><trkpt lat="43.5346266" lon="11.338802"><ele>569.8</ele><time>2026-04-18T09:05:42.221Z</time></trkpt><trkpt lat="43.5346841" lon="11.3389117"><ele>574.4</ele><time>2026-04-18T09:05:43.221Z</time></trkpt><trkpt lat="43.534742" lon="11.3390219"><ele>579.0</ele><time>2026-04-18T09:05:44.221Z</time></trkpt><trkpt lat="43.5348001" lon="11.3391487"><ele>580.25</ele><time>2026-04-18T09:05:45.221Z</time></trkpt><trkpt lat="43.534861" lon="11.3392919"><ele>581.5</ele><time>2026-04-18T09:05:46.222Z</time></trkpt><trkpt lat="43.5349208" lon="11.3394342"><ele>582.75</ele><time>2026-04-18T09:05:47.221Z</time></trkpt><trkpt lat="43.5349837" lon="11.3395749"><ele>584.0</ele><time>2026-04-18T09:05:48.221Z</time></trkpt><trkpt lat="43.5350493" lon="11.3397133"><ele>582.0</ele><time>2026-04-18T09:05:49.221Z</time></trkpt><trkpt lat="43.535115" lon="11.3398481"><ele>580.0</ele><time>2026-04-18T09:05:50.221Z</time></trkpt><trkpt lat="43.5351894" lon="11.339975"><ele>578.0</ele><time>2026-04-18T09:05:51.22Z</time></trkpt><trkpt lat="43.5352778" lon="11.34009"><ele>576.0</ele><time>2026-04-18T09:05:52.221Z</time></trkpt><trkpt lat="43.5353755" lon="11.3401931"><ele>583.25</ele><time>2026-04-18T09:05:53.221Z</time></trkpt><trkpt lat="43.5354757" lon="11.3402857"><ele>590.5</ele><time>2026-04-18T09:05:54.221Z</time></trkpt><trkpt lat="43.5355829" lon="11.3403686"><ele>597.75</ele><time>2026-04-18T09:05:55.22Z</time></trkpt><trkpt lat="43.5356958" lon="11.3404483"><ele>605.0</ele><time>2026-04-18T09:05:56.221Z</time></trkpt><trkpt lat="43.5358103" lon="11.3405209"><ele>606.5</ele><time>2026-04-18T09:05:57.221Z</time></trkpt><trkpt lat="43.5359281" lon="11.340595"><ele>608.0</ele><time>2026-04-18T09:05:58.221Z</time></trkpt><trkpt lat="43.5360463" lon="11.340672"><ele>609.5</ele><time>2026-04-18T09:05:59.221Z</time></trkpt><trkpt lat="43.5361621" lon="11.3407575"><ele>611.0</ele><time>2026-04-18T09:06:00.221Z</time></trkpt><trkpt lat="43.5362767" lon="11.3408514"><ele>611.0</ele><time>2026-04-18T09:06:01.221Z</time></trkpt><trkpt lat="43.5363881" lon="11.3409545"><ele>611.0</ele><time>2026-04-18T09:06:02.221Z</time></trkpt><trkpt lat="43.5364957" lon="11.3410422"><ele>611.0</ele><time>2026-04-18T09:06:03.219Z</time></trkpt><trkpt lat="43.5366035" lon="11.3411096"><ele>611.0</ele><time>2026-04-18T09:06:04.221Z</time></trkpt><trkpt lat="43.5367131" lon="11.3411723"><ele>611.0</ele><time>2026-04-18T09:06:05.221Z</time></trkpt><trkpt lat="43.5368157" lon="11.3412331"><ele>611.0</ele><time>2026-04-18T09:06:06.221Z</time></trkpt><trkpt lat="43.5368974" lon="11.3412959"><ele>611.0</ele><time>2026-04-18T09:06:07.221Z</time></trkpt><trkpt lat="43.5369549" lon="11.3413712"><ele>611.0</ele><time>2026-04-18T09:06:08.22Z</time></trkpt><trkpt lat="43.5369849" lon="11.3414528"><ele>611.0</ele><time>2026-04-18T09:06:09.22Z</time></trkpt><trkpt lat="43.5369968" lon="11.3415381"><ele>611.0</ele><time>2026-04-18T09:06:10.221Z</time></trkpt><trkpt lat="43.537005" lon="11.3416396"><ele>611.2</ele><time>2026-04-18T09:06:11.221Z</time></trkpt><trkpt lat="43.5370109" lon="11.3417554"><ele>611.4000000000001</ele><time>2026-04-18T09:06:12.221Z</time></trkpt><trkpt lat="43.5370177" lon="11.3418823"><ele>611.6</ele><time>2026-04-18T09:06:13.221Z</time></trkpt><trkpt lat="43.53702" lon="11.3420118"><ele>611.8000000000001</ele><time>2026-04-18T09:06:14.22Z</time></trkpt><trkpt lat="43.5370231" lon="11.3421477"><ele>612.0</ele><time>2026-04-18T09:06:15.221Z</time></trkpt><trkpt lat="43.5370249" lon="11.3422923"><ele>612.0</ele><time>2026-04-18T09:06:16.221Z</time></trkpt><trkpt lat="43.5370231" lon="11.3424368"><ele>612.0</ele><time>2026-04-18T09:06:17.221Z</time></trkpt><trkpt lat="43.5370143" lon="11.3425775"><ele>612.0</ele><time>2026-04-18T09:06:18.22Z</time></trkpt><trkpt lat="43.5370077" lon="11.3427239"><ele>612.0</ele><time>2026-04-18T09:06:19.221Z</time></trkpt><trkpt lat="43.5370063" lon="11.3428771"><ele>612.0</ele><time>2026-04-18T09:06:20.221Z</time></trkpt><trkpt lat="43.5370066" lon="11.3430346"><ele>615.25</ele><time>2026-04-18T09:06:21.22Z</time></trkpt><trkpt lat="43.5370046" lon="11.3431992"><ele>618.5</ele><time>2026-04-18T09:06:22.221Z</time></trkpt><trkpt lat="43.5369936" lon="11.3433614"><ele>621.75</ele><time>2026-04-18T09:06:23.221Z</time></trkpt><trkpt lat="43.5369672" lon="11.3435156"><ele>625.0</ele><time>2026-04-18T09:06:24.219Z</time></trkpt><trkpt lat="43.5369247" lon="11.3436674"><ele>625.0</ele><time>2026-04-18T09:06:25.221Z</time></trkpt><trkpt lat="43.5368815" lon="11.3438233"><ele>625.0</ele><time>2026-04-18T09:06:26.22Z</time></trkpt><trkpt lat="43.5368362" lon="11.3439801"><ele>625.0</ele><time>2026-04-18T09:06:27.22Z</time></trkpt><trkpt lat="43.5367991" lon="11.3441214"><ele>625.0</ele><time>2026-04-18T09:06:28.221Z</time></trkpt><trkpt lat="43.5367683" lon="11.3442436"><ele>625.0</ele><time>2026-04-18T09:06:29.221Z</time></trkpt><trkpt lat="43.5367376" lon="11.3443671"><ele>627.0</ele><time>2026-04-18T09:06:30.219Z</time></trkpt><trkpt lat="43.5366957" lon="11.3445053"><ele>629.0</ele><time>2026-04-18T09:06:31.22Z</time></trkpt><trkpt lat="43.5366459" lon="11.3446627"><ele>631.0</ele><time>2026-04-18T09:06:32.219Z</time></trkpt><trkpt lat="43.5365902" lon="11.3448255"><ele>633.0</ele><time>2026-04-18T09:06:33.221Z</time></trkpt><trkpt lat="43.5365334" lon="11.3449901"><ele>633.75</ele><time>2026-04-18T09:06:34.221Z</time></trkpt><trkpt lat="43.5364781" lon="11.3451514"><ele>634.5</ele><time>2026-04-18T09:06:35.221Z</time></trkpt><trkpt lat="43.5364237" lon="11.345312"><ele>635.25</ele><time>2026-04-18T09:06:36.22Z</time></trkpt><trkpt lat="43.5363662" lon="11.3454811"><ele>636.0</ele><time>2026-04-18T09:06:37.22Z</time></trkpt><trkpt lat="43.5363013" lon="11.3456662"><ele>636.0</ele><time>2026-04-18T09:06:38.22Z</time></trkpt><trkpt lat="43.5362296" lon="11.3458614"><ele>636.0</ele><time>2026-04-18T09:06:39.221Z</time></trkpt><trkpt lat="43.5361632" lon="11.3460546"><ele>636.0</ele><time>2026-04-18T09:06:40.22Z</time></trkpt><trkpt lat="43.5361045" lon="11.3462257"><ele>638.75</ele><time>2026-04-18T09:06:41.22Z</time></trkpt><trkpt lat="43.5360518" lon="11.3463821"><ele>641.5</ele><time>2026-04-18T09:06:42.219Z</time></trkpt><trkpt lat="43.5360072" lon="11.3465241"><ele>644.25</ele><time>2026-04-18T09:06:43.221Z</time></trkpt><trkpt lat="43.535959" lon="11.3466615"><ele>647.0</ele><time>2026-04-18T09:06:44.219Z</time></trkpt><trkpt lat="43.5358901" lon="11.3467685"><ele>647.0</ele><time>2026-04-18T09:06:45.221Z</time></trkpt><trkpt lat="43.5358027" lon="11.346867"><ele>647.0</ele><time>2026-04-18T09:06:46.22Z</time></trkpt><trkpt lat="43.5356902" lon="11.3469666"><ele>647.0</ele><time>2026-04-18T09:06:47.221Z</time></trkpt><trkpt lat="43.535573" lon="11.3470719"><ele>647.0</ele><time>2026-04-18T09:06:48.219Z</time></trkpt><trkpt lat="43.5354567" lon="11.3471822"><ele>649.0</ele><time>2026-04-18T09:06:49.221Z</time></trkpt><trkpt lat="43.5353352" lon="11.3472926"><ele>651.0</ele><time>2026-04-18T09:06:50.221Z</time></trkpt><trkpt lat="43.5352237" lon="11.3474001"><ele>653.0</ele><time>2026-04-18T09:06:51.221Z</time></trkpt><trkpt lat="43.5351114" lon="11.3474954"><ele>655.0</ele><time>2026-04-18T09:06:52.22Z</time></trkpt><trkpt lat="43.5349904" lon="11.3475942"><ele>655.0</ele><time>2026-04-18T09:06:53.221Z</time></trkpt><trkpt lat="43.5348644" lon="11.3476985"><ele>655.0</ele><time>2026-04-18T09:06:54.219Z</time></trkpt><trkpt lat="43.5347292" lon="11.347812"><ele>655.0</ele><time>2026-04-18T09:06:55.221Z</time></trkpt><trkpt lat="43.5345831" lon="11.3479366"><ele>654.0</ele><time>2026-04-18T09:06:56.22Z</time></trkpt><trkpt lat="43.5344351" lon="11.3480604"><ele>653.0</ele><time>2026-04-18T09:06:57.221Z</time></trkpt><trkpt lat="43.5342803" lon="11.3481961"><ele>652.0</ele><time>2026-04-18T09:06:58.221Z</time></trkpt><trkpt lat="43.5341148" lon="11.3483377"><ele>652.0</ele><time>2026-04-18T09:06:59.221Z</time></trkpt><trkpt lat="43.533941" lon="11.348485"><ele>652.0</ele><time>2026-04-18T09:07:00.22Z</time></trkpt><trkpt lat="43.533765" lon="11.3486362"><ele>652.0</ele><time>2026-04-18T09:07:01.221Z</time></trkpt><trkpt lat="43.5335976" lon="11.3487765"><ele>654.3333333333334</ele><time>2026-04-18T09:07:02.22Z</time></trkpt><trkpt lat="43.5334448" lon="11.3489018"><ele>656.6666666666666</ele><time>2026-04-18T09:07:03.221Z</time></trkpt><trkpt lat="43.5332923" lon="11.3490311"><ele>659.0</ele><time>2026-04-18T09:07:04.22Z</time></trkpt><trkpt lat="43.5331351" lon="11.3491571"><ele>659.0</ele><time>2026-04-18T09:07:05.221Z</time></trkpt><trkpt lat="43.5329877" lon="11.3492841"><ele>659.0</ele><time>2026-04-18T09:07:06.221Z</time></trkpt><trkpt lat="43.5328519" lon="11.349399"><ele>659.0</ele><time>2026-04-18T09:07:07.221Z</time></trkpt><trkpt lat="43.5327282" lon="11.3495058"><ele>657.5</ele><time>2026-04-18T09:07:08.221Z</time></trkpt><trkpt lat="43.532607" lon="11.3496154"><ele>656.0</ele><time>2026-04-18T09:07:09.219Z</time></trkpt><trkpt lat="43.5324863" lon="11.349718"><ele>654.5</ele><time>2026-04-18T09:07:10.219Z</time></trkpt><trkpt lat="43.5323748" lon="11.3498035"><ele>653.0</ele><time>2026-04-18T09:07:11.221Z</time></trkpt><trkpt lat="43.5322773" lon="11.3498764"><ele>652.5999999999999</ele><time>2026-04-18T09:07:12.221Z</time></trkpt><trkpt lat="43.532191" lon="11.3499497"><ele>652.1999999999999</ele><time>2026-04-18T09:07:13.22Z</time></trkpt><trkpt lat="43.5321142" lon="11.3500393"><ele>651.8</ele><time>2026-04-18T09:07:14.221Z</time></trkpt><trkpt lat="43.5320412" lon="11.3501441"><ele>651.4</ele><time>2026-04-18T09:07:15.221Z</time></trkpt><trkpt lat="43.5319703" lon="11.3502669"><ele>651.0</ele><time>2026-04-18T09:07:16.221Z</time></trkpt><trkpt lat="43.53191" lon="11.3504076"><ele>653.75</ele><time>2026-04-18T09:07:17.22Z</time></trkpt><trkpt lat="43.5318606" lon="11.3505524"><ele>656.5</ele><time>2026-04-18T09:07:18.219Z</time></trkpt><trkpt lat="43.5318246" lon="11.3506954"><ele>659.25</ele><time>2026-04-18T09:07:19.22Z</time></trkpt><trkpt lat="43.5318039" lon="11.3508503"><ele>662.0</ele><time>2026-04-18T09:07:20.22Z</time></trkpt><trkpt lat="43.5317874" lon="11.3510208"><ele>662.0</ele><time>2026-04-18T09:07:21.221Z</time></trkpt><trkpt lat="43.5317776" lon="11.3512112"><ele>662.0</ele><time>2026-04-18T09:07:22.22Z</time></trkpt><trkpt lat="43.5317545" lon="11.3514193"><ele>662.0</ele><time>2026-04-18T09:07:23.22Z</time></trkpt><trkpt lat="43.5317265" lon="11.3516373"><ele>663.6666666666666</ele><time>2026-04-18T09:07:24.22Z</time></trkpt><trkpt lat="43.5317033" lon="11.3518624"><ele>665.3333333333334</ele><time>2026-04-18T09:07:25.22Z</time></trkpt><trkpt lat="43.5316766" lon="11.3520995"><ele>667.0</ele><time>2026-04-18T09:07:26.221Z</time></trkpt><trkpt lat="43.5316481" lon="11.3523507"><ele>667.3333333333334</ele><time>2026-04-18T09:07:27.221Z</time></trkpt><trkpt lat="43.5316239" lon="11.3526065"><ele>667.6666666666666</ele><time>2026-04-18T09:07:28.219Z</time></trkpt><trkpt lat="43.5315965" lon="11.3528362"><ele>668.0</ele><time>2026-04-18T09:07:29.22Z</time></trkpt><trkpt lat="43.5315712" lon="11.3530547"><ele>667.0</ele><time>2026-04-18T09:07:30.22Z</time></trkpt><trkpt lat="43.5315428" lon="11.3532741"><ele>666.0</ele><time>2026-04-18T09:07:31.221Z</time></trkpt><trkpt lat="43.5315188" lon="11.3534839"><ele>665.0</ele><time>2026-04-18T09:07:32.221Z</time></trkpt><trkpt lat="43.5314909" lon="11.3536869"><ele>665.0</ele><time>2026-04-18T09:07:33.22Z</time></trkpt><trkpt lat="43.5314626" lon="11.3538678"><ele>665.0</ele><time>2026-04-18T09:07:34.221Z</time></trkpt><trkpt lat="43.5314232" lon="11.3540547"><ele>665.0</ele><time>2026-04-18T09:07:35.221Z</time></trkpt><trkpt lat="43.5313747" lon="11.3542388"><ele>665.0</ele><time>2026-04-18T09:07:36.22Z</time></trkpt><trkpt lat="43.5313162" lon="11.3544278"><ele>664.25</ele><time>2026-04-18T09:07:37.22Z</time></trkpt><trkpt lat="43.531262" lon="11.3546199"><ele>663.5</ele><time>2026-04-18T09:07:38.221Z</time></trkpt><trkpt lat="43.5312139" lon="11.3547985"><ele>662.75</ele><time>2026-04-18T09:07:39.22Z</time></trkpt><trkpt lat="43.53116" lon="11.3549712"><ele>662.0</ele><time>2026-04-18T09:07:40.22Z</time></trkpt><trkpt lat="43.5310979" lon="11.3551403"><ele>662.0</ele><time>2026-04-18T09:07:41.22Z</time></trkpt><trkpt lat="43.5310254" lon="11.3552997"><ele>662.0</ele><time>2026-04-18T09:07:42.221Z</time></trkpt><trkpt lat="43.5309533" lon="11.3554447"><ele>662.0</ele><time>2026-04-18T09:07:43.221Z</time></trkpt><trkpt lat="43.5308813" lon="11.3555771"><ele>662.0</ele><time>2026-04-18T09:07:44.221Z</time></trkpt><trkpt lat="43.5308082" lon="11.355677"><ele>662.4000000000001</ele><time>2026-04-18T09:07:45.22Z</time></trkpt><trkpt lat="43.5307201" lon="11.3557548"><ele>662.8000000000001</ele><time>2026-04-18T09:07:46.221Z</time></trkpt><trkpt lat="43.5306211" lon="11.3558048"><ele>663.2</ele><time>2026-04-18T09:07:47.22Z</time></trkpt><trkpt lat="43.5305177" lon="11.3558276"><ele>663.6</ele><time>2026-04-18T09:07:48.221Z</time></trkpt><trkpt lat="43.5304093" lon="11.3558148"><ele>664.0</ele><time>2026-04-18T09:07:49.22Z</time></trkpt><trkpt lat="43.5302894" lon="11.3557848"><ele>664.5</ele><time>2026-04-18T09:07:50.22Z</time></trkpt><trkpt lat="43.530174" lon="11.3557146"><ele>665.0</ele><time>2026-04-18T09:07:51.221Z</time></trkpt><trkpt lat="43.5300502" lon="11.3556505"><ele>665.5</ele><time>2026-04-18T09:07:52.22Z</time></trkpt><trkpt lat="43.5299327" lon="11.3555795"><ele>666.0</ele><time>2026-04-18T09:07:53.22Z</time></trkpt><trkpt lat="43.5298076" lon="11.35552"><ele>663.5</ele><time>2026-04-18T09:07:54.219Z</time></trkpt><trkpt lat="43.5296707" lon="11.3554714"><ele>661.0</ele><time>2026-04-18T09:07:55.22Z</time></trkpt><trkpt lat="43.5295298" lon="11.3554238"><ele>658.5</ele><time>2026-04-18T09:07:56.22Z</time></trkpt><trkpt lat="43.5293895" lon="11.355378"><ele>656.0</ele><time>2026-04-18T09:07:57.22Z</time></trkpt><trkpt lat="43.529267" lon="11.3553375"><ele>656.0</ele><time>2026-04-18T09:07:58.221Z</time></trkpt><trkpt lat="43.5291451" lon="11.3553086"><ele>656.0</ele><time>2026-04-18T09:07:59.221Z</time></trkpt><trkpt lat="43.5290229" lon="11.3553025"><ele>656.0</ele><time>2026-04-18T09:08:00.22Z</time></trkpt><trkpt lat="43.5289062" lon="11.3553288"><ele>656.0</ele><time>2026-04-18T09:08:01.22Z</time></trkpt><trkpt lat="43.5287787" lon="11.3553894"><ele>654.25</ele><time>2026-04-18T09:08:02.22Z</time></trkpt><trkpt lat="43.5286623" lon="11.3554592"><ele>652.5</ele><time>2026-04-18T09:08:03.22Z</time></trkpt><trkpt lat="43.528551" lon="11.3555305"><ele>650.75</ele><time>2026-04-18T09:08:04.219Z</time></trkpt><trkpt lat="43.5284529" lon="11.3555976"><ele>649.0</ele><time>2026-04-18T09:08:05.22Z</time></trkpt><trkpt lat="43.5283552" lon="11.3556583"><ele>651.75</ele><time>2026-04-18T09:08:06.22Z</time></trkpt><trkpt lat="43.5282512" lon="11.3557052"><ele>654.5</ele><time>2026-04-18T09:08:07.219Z</time></trkpt><trkpt lat="43.5281386" lon="11.3557354"><ele>657.25</ele><time>2026-04-18T09:08:08.22Z</time></trkpt><trkpt lat="43.5280255" lon="11.3557393"><ele>660.0</ele><time>2026-04-18T09:08:09.221Z</time></trkpt><trkpt lat="43.5278905" lon="11.3557204"><ele>660.0</ele><time>2026-04-18T09:08:10.22Z</time></trkpt><trkpt lat="43.5277616" lon="11.3556921"><ele>660.0</ele><time>2026-04-18T09:08:11.22Z</time></trkpt><trkpt lat="43.5276451" lon="11.3556628"><ele>660.0</ele><time>2026-04-18T09:08:12.221Z</time></trkpt><trkpt lat="43.5275213" lon="11.3556417"><ele>660.0</ele><time>2026-04-18T09:08:13.222Z</time></trkpt><trkpt lat="43.5274105" lon="11.3556231"><ele>660.0</ele><time>2026-04-18T09:08:14.22Z</time></trkpt><trkpt lat="43.5272968" lon="11.3556143"><ele>660.0</ele><time>2026-04-18T09:08:15.22Z</time></trkpt><trkpt lat="43.527175" lon="11.3556301"><ele>660.0</ele><time>2026-04-18T09:08:16.22Z</time></trkpt><trkpt lat="43.5270566" lon="11.3556514"><ele>660.0</ele><time>2026-04-18T09:08:17.221Z</time></trkpt><trkpt lat="43.5269386" lon="11.3556586"><ele>660.25</ele><time>2026-04-18T09:08:18.22Z</time></trkpt><trkpt lat="43.5268219" lon="11.3556384"><ele>660.5</ele><time>2026-04-18T09:08:19.221Z</time></trkpt><trkpt lat="43.5267014" lon="11.3555758"><ele>660.75</ele><time>2026-04-18T09:08:20.22Z</time></trkpt><trkpt lat="43.5265694" lon="11.3555055"><ele>661.0</ele><time>2026-04-18T09:08:21.22Z</time></trkpt><trkpt lat="43.5264197" lon="11.3554299"><ele>657.0</ele><time>2026-04-18T09:08:22.22Z</time></trkpt><trkpt lat="43.5262732" lon="11.3553577"><ele>653.0</ele><time>2026-04-18T09:08:23.221Z</time></trkpt><trkpt lat="43.5261259" lon="11.3552869"><ele>649.0</ele><time>2026-04-18T09:08:24.22Z</time></trkpt><trkpt lat="43.5259983" lon="11.3552154"><ele>645.0</ele><time>2026-04-18T09:08:25.22Z</time></trkpt><trkpt lat="43.5258787" lon="11.3551389"><ele>645.0</ele><time>2026-04-18T09:08:26.221Z</time></trkpt><trkpt lat="43.5257586" lon="11.35507"><ele>645.0</ele><time>2026-04-18T09:08:27.22Z</time></trkpt><trkpt lat="43.5256468" lon="11.355006"><ele>645.0</ele><time>2026-04-18T09:08:28.221Z</time></trkpt><trkpt lat="43.5255423" lon="11.3549419"><ele>645.0</ele><time>2026-04-18T09:08:29.222Z</time></trkpt><trkpt lat="43.5254465" lon="11.3548856"><ele>645.0</ele><time>2026-04-18T09:08:30.222Z</time></trkpt><trkpt lat="43.5253268" lon="11.354864"><ele>645.0</ele><time>2026-04-18T09:08:31.22Z</time></trkpt><trkpt lat="43.5252043" lon="11.3548696"><ele>645.0</ele><time>2026-04-18T09:08:32.221Z</time></trkpt><trkpt lat="43.5250689" lon="11.3548699"><ele>645.0</ele><time>2026-04-18T09:08:33.221Z</time></trkpt><trkpt lat="43.5249296" lon="11.3548397"><ele>645.0</ele><time>2026-04-18T09:08:34.221Z</time></trkpt><trkpt lat="43.5247874" lon="11.3547932"><ele>645.0</ele><time>2026-04-18T09:08:35.22Z</time></trkpt><trkpt lat="43.5246474" lon="11.3547392"><ele>645.0</ele><time>2026-04-18T09:08:36.221Z</time></trkpt><trkpt lat="43.5245153" lon="11.3546921"><ele>645.0</ele><time>2026-04-18T09:08:37.221Z</time></trkpt><trkpt lat="43.5243979" lon="11.3546402"><ele>643.2</ele><time>2026-04-18T09:08:38.22Z</time></trkpt><trkpt lat="43.524297" lon="11.3545785"><ele>641.4</ele><time>2026-04-18T09:08:39.22Z</time></trkpt><trkpt lat="43.5242241" lon="11.354507"><ele>639.6</ele><time>2026-04-18T09:08:40.221Z</time></trkpt><trkpt lat="43.5241822" lon="11.3544165"><ele>637.8</ele><time>2026-04-18T09:08:41.221Z</time></trkpt><trkpt lat="43.5241615" lon="11.3542817"><ele>636.0</ele><time>2026-04-18T09:08:42.221Z</time></trkpt><trkpt lat="43.5241392" lon="11.3541226"><ele>636.0</ele><time>2026-04-18T09:08:43.221Z</time></trkpt><trkpt lat="43.5241198" lon="11.3539656"><ele>636.0</ele><time>2026-04-18T09:08:44.221Z</time></trkpt><trkpt lat="43.5240931" lon="11.3538165"><ele>636.0</ele><time>2026-04-18T09:08:45.221Z</time></trkpt><trkpt lat="43.5240615" lon="11.3536819"><ele>636.0</ele><time>2026-04-18T09:08:46.219Z</time></trkpt><trkpt lat="43.5240247" lon="11.3535748"><ele>636.0</ele><time>2026-04-18T09:08:47.22Z</time></trkpt><trkpt lat="43.5239684" lon="11.353508"><ele>633.2</ele><time>2026-04-18T09:08:48.221Z</time></trkpt><trkpt lat="43.5239024" lon="11.3534687"><ele>630.4000000000001</ele><time>2026-04-18T09:08:49.22Z</time></trkpt><trkpt lat="43.5238267" lon="11.353463"><ele>627.6</ele><time>2026-04-18T09:08:50.219Z</time></trkpt><trkpt lat="43.5237348" lon="11.3534892"><ele>624.8000000000001</ele><time>2026-04-18T09:08:51.221Z</time></trkpt><trkpt lat="43.5236285" lon="11.3535251"><ele>622.0</ele><time>2026-04-18T09:08:52.221Z</time></trkpt><trkpt lat="43.5235174" lon="11.353583"><ele>621.25</ele><time>2026-04-18T09:08:53.221Z</time></trkpt><trkpt lat="43.5234041" lon="11.3536723"><ele>620.5</ele><time>2026-04-18T09:08:54.221Z</time></trkpt><trkpt lat="43.5232919" lon="11.3537821"><ele>619.75</ele><time>2026-04-18T09:08:55.22Z</time></trkpt><trkpt lat="43.5231614" lon="11.3538838"><ele>619.0</ele><time>2026-04-18T09:08:56.221Z</time></trkpt><trkpt lat="43.5230431" lon="11.3539558"><ele>622.0</ele><time>2026-04-18T09:08:57.22Z</time></trkpt><trkpt lat="43.5229095" lon="11.3540022"><ele>625.0</ele><time>2026-04-18T09:08:58.22Z</time></trkpt><trkpt lat="43.5227775" lon="11.354031"><ele>628.0</ele><time>2026-04-18T09:08:59.221Z</time></trkpt><trkpt lat="43.5226521" lon="11.3540277"><ele>631.0</ele><time>2026-04-18T09:09:00.22Z</time></trkpt><trkpt lat="43.5225373" lon="11.3539958"><ele>631.0</ele><time>2026-04-18T09:09:01.221Z</time></trkpt><trkpt lat="43.522439" lon="11.353929"><ele>631.0</ele><time>2026-04-18T09:09:02.22Z</time></trkpt><trkpt lat="43.5223449" lon="11.3538755"><ele>631.0</ele><time>2026-04-18T09:09:03.221Z</time></trkpt><trkpt lat="43.5222545" lon="11.3538462"><ele>631.0</ele><time>2026-04-18T09:09:04.22Z</time></trkpt><trkpt lat="43.5221744" lon="11.3538389"><ele>631.0</ele><time>2026-04-18T09:09:05.221Z</time></trkpt><trkpt lat="43.5221" lon="11.353845"><ele>628.8</ele><time>2026-04-18T09:09:06.22Z</time></trkpt><trkpt lat="43.5220289" lon="11.3539195"><ele>626.6</ele><time>2026-04-18T09:09:07.219Z</time></trkpt><trkpt lat="43.5219416" lon="11.3540008"><ele>624.4</ele><time>2026-04-18T09:09:08.219Z</time></trkpt><trkpt lat="43.5218623" lon="11.3540809"><ele>622.2</ele><time>2026-04-18T09:09:09.221Z</time></trkpt><trkpt lat="43.521784" lon="11.3541452"><ele>620.0</ele><time>2026-04-18T09:09:10.22Z</time></trkpt><trkpt lat="43.5217081" lon="11.354221"><ele>620.0</ele><time>2026-04-18T09:09:11.221Z</time></trkpt><trkpt lat="43.5216677" lon="11.3543176"><ele>620.0</ele><time>2026-04-18T09:09:12.219Z</time></trkpt><trkpt lat="43.5216397" lon="11.3544385"><ele>620.0</ele><time>2026-04-18T09:09:13.221Z</time></trkpt><trkpt lat="43.5216057" lon="11.3545851"><ele>620.0</ele><time>2026-04-18T09:09:14.221Z</time></trkpt><trkpt lat="43.5215814" lon="11.3547357"><ele>620.0</ele><time>2026-04-18T09:09:15.22Z</time></trkpt><trkpt lat="43.5215596" lon="11.354879"><ele>619.6</ele><time>2026-04-18T09:09:16.221Z</time></trkpt><trkpt lat="43.521547" lon="11.3550059"><ele>619.2</ele><time>2026-04-18T09:09:17.221Z</time></trkpt><trkpt lat="43.521551" lon="11.3551223"><ele>618.8</ele><time>2026-04-18T09:09:18.22Z</time></trkpt><trkpt lat="43.5215823" lon="11.3552445"><ele>618.4</ele><time>2026-04-18T09:09:19.221Z</time></trkpt><trkpt lat="43.5216247" lon="11.3553679"><ele>618.0</ele><time>2026-04-18T09:09:20.221Z</time></trkpt><trkpt lat="43.5216829" lon="11.3555045"><ele>616.4</ele><time>2026-04-18T09:09:21.22Z</time></trkpt><trkpt lat="43.5217456" lon="11.3556354"><ele>614.8</ele><time>2026-04-18T09:09:22.22Z</time></trkpt><trkpt lat="43.5217965" lon="11.3557631"><ele>613.2</ele><time>2026-04-18T09:09:23.221Z</time></trkpt><trkpt lat="43.5218425" lon="11.3558783"><ele>611.6</ele><time>2026-04-18T09:09:24.219Z</time></trkpt><trkpt lat="43.5218735" lon="11.3560029"><ele>610.0</ele><time>2026-04-18T09:09:25.22Z</time></trkpt><trkpt lat="43.5218775" lon="11.3561468"><ele>610.0</ele><time>2026-04-18T09:09:26.22Z</time></trkpt><trkpt lat="43.5218718" lon="11.3563015"><ele>610.0</ele><time>2026-04-18T09:09:27.22Z</time></trkpt><trkpt lat="43.5218596" lon="11.3564593"><ele>610.0</ele><time>2026-04-18T09:09:28.22Z</time></trkpt><trkpt lat="43.5218576" lon="11.3566087"><ele>610.0</ele><time>2026-04-18T09:09:29.22Z</time></trkpt><trkpt lat="43.5218753" lon="11.3567546"><ele>610.0</ele><time>2026-04-18T09:09:30.22Z</time></trkpt><trkpt lat="43.5219085" lon="11.3568946"><ele>609.2</ele><time>2026-04-18T09:09:31.22Z</time></trkpt><trkpt lat="43.5219539" lon="11.3570191"><ele>608.4</ele><time>2026-04-18T09:09:32.221Z</time></trkpt><trkpt lat="43.5219889" lon="11.3571316"><ele>607.6</ele><time>2026-04-18T09:09:33.221Z</time></trkpt><trkpt lat="43.521998" lon="11.3572275"><ele>606.8</ele><time>2026-04-18T09:09:34.22Z</time></trkpt><trkpt lat="43.5219323" lon="11.3573421"><ele>606.0</ele><time>2026-04-18T09:09:36.221Z</time></trkpt><trkpt lat="43.5218108" lon="11.3572874"><ele>608.2</ele><time>2026-04-18T09:09:38.22Z</time></trkpt><trkpt lat="43.5217439" lon="11.3572401"><ele>610.4000000000001</ele><time>2026-04-18T09:09:39.221Z</time></trkpt><trkpt lat="43.5216596" lon="11.3572309"><ele>612.6</ele><time>2026-04-18T09:09:40.221Z</time></trkpt><trkpt lat="43.5215783" lon="11.3572503"><ele>614.8000000000001</ele><time>2026-04-18T09:09:41.221Z</time></trkpt><trkpt lat="43.5214787" lon="11.357314"><ele>617.0</ele><time>2026-04-18T09:09:42.22Z</time></trkpt><trkpt lat="43.5213731" lon="11.3573997"><ele>617.0</ele><time>2026-04-18T09:09:43.221Z</time></trkpt><trkpt lat="43.5212647" lon="11.3574793"><ele>617.0</ele><time>2026-04-18T09:09:44.221Z</time></trkpt><trkpt lat="43.5211428" lon="11.3575687"><ele>617.0</ele><time>2026-04-18T09:09:45.219Z</time></trkpt><trkpt lat="43.5210228" lon="11.3576313"><ele>617.0</ele><time>2026-04-18T09:09:46.219Z</time></trkpt><trkpt lat="43.5209097" lon="11.3576938"><ele>615.3333333333333</ele><time>2026-04-18T09:09:47.221Z</time></trkpt><trkpt lat="43.5208098" lon="11.357743"><ele>613.6666666666666</ele><time>2026-04-18T09:09:48.221Z</time></trkpt><trkpt lat="43.5207214" lon="11.3577858"><ele>612.0</ele><time>2026-04-18T09:09:49.22Z</time></trkpt><trkpt lat="43.5206503" lon="11.3578415"><ele>610.3333333333334</ele><time>2026-04-18T09:09:50.22Z</time></trkpt><trkpt lat="43.520608" lon="11.357922"><ele>608.6666666666667</ele><time>2026-04-18T09:09:51.219Z</time></trkpt><trkpt lat="43.5205799" lon="11.3580169"><ele>607.0</ele><time>2026-04-18T09:09:52.221Z</time></trkpt><trkpt lat="43.5205672" lon="11.3581268"><ele>607.0</ele><time>2026-04-18T09:09:53.221Z</time></trkpt><trkpt lat="43.5205822" lon="11.3582255"><ele>607.0</ele><time>2026-04-18T09:09:54.221Z</time></trkpt><trkpt lat="43.5206199" lon="11.3583255"><ele>607.0</ele><time>2026-04-18T09:09:55.219Z</time></trkpt><trkpt lat="43.5206665" lon="11.3584185"><ele>607.0</ele><time>2026-04-18T09:09:56.22Z</time></trkpt><trkpt lat="43.5207257" lon="11.358511"><ele>607.0</ele><time>2026-04-18T09:09:57.22Z</time></trkpt><trkpt lat="43.5207945" lon="11.358616"><ele>607.0</ele><time>2026-04-18T09:09:58.221Z</time></trkpt><trkpt lat="43.5208729" lon="11.3587239"><ele>607.0</ele><time>2026-04-18T09:09:59.219Z</time></trkpt><trkpt lat="43.5209622" lon="11.3588374"><ele>607.0</ele><time>2026-04-18T09:10:00.221Z</time></trkpt><trkpt lat="43.5210514" lon="11.3589706"><ele>607.0</ele><time>2026-04-18T09:10:01.22Z</time></trkpt><trkpt lat="43.521126" lon="11.3591032"><ele>607.0</ele><time>2026-04-18T09:10:02.22Z</time></trkpt><trkpt lat="43.5211771" lon="11.3592364"><ele>604.2</ele><time>2026-04-18T09:10:03.22Z</time></trkpt><trkpt lat="43.521206" lon="11.3593671"><ele>601.4000000000001</ele><time>2026-04-18T09:10:04.22Z</time></trkpt><trkpt lat="43.5212083" lon="11.3594968"><ele>598.5999999999999</ele><time>2026-04-18T09:10:05.22Z</time></trkpt><trkpt lat="43.5211887" lon="11.3596305"><ele>595.8</ele><time>2026-04-18T09:10:06.22Z</time></trkpt><trkpt lat="43.5211462" lon="11.3597372"><ele>593.0</ele><time>2026-04-18T09:10:07.221Z</time></trkpt><trkpt lat="43.5211017" lon="11.359848"><ele>591.1999999999999</ele><time>2026-04-18T09:10:08.221Z</time></trkpt><trkpt lat="43.5210801" lon="11.3599708"><ele>589.4</ele><time>2026-04-18T09:10:09.222Z</time></trkpt><trkpt lat="43.5210829" lon="11.360105"><ele>587.5999999999999</ele><time>2026-04-18T09:10:10.221Z</time></trkpt><trkpt lat="43.5211102" lon="11.3602502"><ele>585.8</ele><time>2026-04-18T09:10:11.22Z</time></trkpt><trkpt lat="43.5211354" lon="11.3603869"><ele>584.0</ele><time>2026-04-18T09:10:12.221Z</time></trkpt><trkpt lat="43.5211746" lon="11.3604919"><ele>588.6</ele><time>2026-04-18T09:10:13.22Z</time></trkpt><trkpt lat="43.5212526" lon="11.360602"><ele>593.2</ele><time>2026-04-18T09:10:14.219Z</time></trkpt><trkpt lat="43.5213336" lon="11.3606933"><ele>597.8000000000001</ele><time>2026-04-18T09:10:15.22Z</time></trkpt><trkpt lat="43.521418" lon="11.3607954"><ele>602.4</ele><time>2026-04-18T09:10:16.22Z</time></trkpt><trkpt lat="43.5215052" lon="11.3609111"><ele>607.0</ele><time>2026-04-18T09:10:17.22Z</time></trkpt><trkpt lat="43.5215763" lon="11.3610372"><ele>607.0</ele><time>2026-04-18T09:10:18.221Z</time></trkpt><trkpt lat="43.5216271" lon="11.3611732"><ele>607.0</ele><time>2026-04-18T09:10:19.221Z</time></trkpt><trkpt lat="43.5216928" lon="11.3613089"><ele>607.0</ele><time>2026-04-18T09:10:20.221Z</time></trkpt><trkpt lat="43.5217709" lon="11.3614323"><ele>607.0</ele><time>2026-04-18T09:10:21.221Z</time></trkpt><trkpt lat="43.5218501" lon="11.361523"><ele>609.0</ele><time>2026-04-18T09:10:22.221Z</time></trkpt><trkpt lat="43.5219295" lon="11.361601"><ele>611.0</ele><time>2026-04-18T09:10:23.221Z</time></trkpt><trkpt lat="43.5220043" lon="11.3616566"><ele>613.0</ele><time>2026-04-18T09:10:24.22Z</time></trkpt><trkpt lat="43.5220732" lon="11.3617235"><ele>615.0</ele><time>2026-04-18T09:10:25.22Z</time></trkpt><trkpt lat="43.5221128" lon="11.3617919"><ele>617.0</ele><time>2026-04-18T09:10:26.221Z</time></trkpt><trkpt lat="43.5221151" lon="11.3619114"><ele>619.0</ele><time>2026-04-18T09:10:28.22Z</time></trkpt><trkpt lat="43.5220201" lon="11.3619382"><ele>614.8333333333334</ele><time>2026-04-18T09:10:30.219Z</time></trkpt><trkpt lat="43.5219465" lon="11.3619146"><ele>610.6666666666667</ele><time>2026-04-18T09:10:31.221Z</time></trkpt><trkpt lat="43.5218671" lon="11.3618813"><ele>606.5</ele><time>2026-04-18T09:10:32.22Z</time></trkpt><trkpt lat="43.5217874" lon="11.3618417"><ele>602.3333333333334</ele><time>2026-04-18T09:10:33.22Z</time></trkpt><trkpt lat="43.5217009" lon="11.3618136"><ele>598.1666666666666</ele><time>2026-04-18T09:10:34.221Z</time></trkpt><trkpt lat="43.5216111" lon="11.3618152"><ele>594.0</ele><time>2026-04-18T09:10:35.221Z</time></trkpt><trkpt lat="43.5215044" lon="11.361835"><ele>594.0</ele><time>2026-04-18T09:10:36.22Z</time></trkpt><trkpt lat="43.5213846" lon="11.3618724"><ele>594.0</ele><time>2026-04-18T09:10:37.221Z</time></trkpt><trkpt lat="43.521271" lon="11.3618948"><ele>594.0</ele><time>2026-04-18T09:10:38.221Z</time></trkpt><trkpt lat="43.5211323" lon="11.3619127"><ele>594.0</ele><time>2026-04-18T09:10:39.221Z</time></trkpt><trkpt lat="43.5209958" lon="11.3619123"><ele>587.6666666666666</ele><time>2026-04-18T09:10:40.221Z</time></trkpt><trkpt lat="43.5208359" lon="11.3618993"><ele>581.3333333333333</ele><time>2026-04-18T09:10:41.22Z</time></trkpt><trkpt lat="43.5206803" lon="11.3618577"><ele>575.0</ele><time>2026-04-18T09:10:42.221Z</time></trkpt><trkpt lat="43.5205196" lon="11.3618179"><ele>574.75</ele><time>2026-04-18T09:10:43.221Z</time></trkpt><trkpt lat="43.5203821" lon="11.3617673"><ele>574.5</ele><time>2026-04-18T09:10:44.22Z</time></trkpt><trkpt lat="43.5202527" lon="11.3617164"><ele>574.25</ele><time>2026-04-18T09:10:45.221Z</time></trkpt><trkpt lat="43.5201355" lon="11.3616458"><ele>574.0</ele><time>2026-04-18T09:10:46.219Z</time></trkpt><trkpt lat="43.5200346" lon="11.3615681"><ele>574.0</ele><time>2026-04-18T09:10:47.221Z</time></trkpt><trkpt lat="43.5199372" lon="11.3614924"><ele>574.0</ele><time>2026-04-18T09:10:48.221Z</time></trkpt><trkpt lat="43.5198241" lon="11.3614341"><ele>574.0</ele><time>2026-04-18T09:10:49.221Z</time></trkpt><trkpt lat="43.5197185" lon="11.3613932"><ele>574.0</ele><time>2026-04-18T09:10:50.221Z</time></trkpt><trkpt lat="43.5196223" lon="11.3613589"><ele>574.0</ele><time>2026-04-18T09:10:51.22Z</time></trkpt><trkpt lat="43.5195252" lon="11.3613447"><ele>573.8</ele><time>2026-04-18T09:10:52.22Z</time></trkpt><trkpt lat="43.5194277" lon="11.3613615"><ele>573.5999999999999</ele><time>2026-04-18T09:10:53.22Z</time></trkpt><trkpt lat="43.5193258" lon="11.3614124"><ele>573.4</ele><time>2026-04-18T09:10:54.22Z</time></trkpt><trkpt lat="43.5192301" lon="11.3614605"><ele>573.1999999999999</ele><time>2026-04-18T09:10:55.221Z</time></trkpt><trkpt lat="43.5191323" lon="11.3614871"><ele>573.0</ele><time>2026-04-18T09:10:56.221Z</time></trkpt><trkpt lat="43.5190373" lon="11.3614741"><ele>573.0</ele><time>2026-04-18T09:10:57.22Z</time></trkpt><trkpt lat="43.5189561" lon="11.3614456"><ele>573.0</ele><time>2026-04-18T09:10:58.22Z</time></trkpt><trkpt lat="43.5188846" lon="11.3614304"><ele>573.0</ele><time>2026-04-18T09:10:59.221Z</time></trkpt><trkpt lat="43.5188128" lon="11.3614632"><ele>573.0</ele><time>2026-04-18T09:11:00.22Z</time></trkpt><trkpt lat="43.5187565" lon="11.3616104"><ele>573.0</ele><time>2026-04-18T09:11:02.221Z</time></trkpt><trkpt lat="43.5187694" lon="11.3617214"><ele>573.0</ele><time>2026-04-18T09:11:03.221Z</time></trkpt><trkpt lat="43.5188026" lon="11.3618231"><ele>573.0</ele><time>2026-04-18T09:11:04.221Z</time></trkpt><trkpt lat="43.5188458" lon="11.3619075"><ele>573.0</ele><time>2026-04-18T09:11:05.221Z</time></trkpt><trkpt lat="43.518883" lon="11.3619949"><ele>573.0</ele><time>2026-04-18T09:11:06.22Z</time></trkpt><trkpt lat="43.5189004" lon="11.3620823"><ele>573.0</ele><time>2026-04-18T09:11:07.221Z</time></trkpt><trkpt lat="43.5189007" lon="11.362172"><ele>573.0</ele><time>2026-04-18T09:11:08.222Z</time></trkpt><trkpt lat="43.5187896" lon="11.3622066"><ele>573.0</ele><time>2026-04-18T09:11:10.221Z</time></trkpt><trkpt lat="43.5187212" lon="11.3621761"><ele>571.4</ele><time>2026-04-18T09:11:11.221Z</time></trkpt><trkpt lat="43.5186489" lon="11.3621011"><ele>569.8</ele><time>2026-04-18T09:11:12.22Z</time></trkpt><trkpt lat="43.5185768" lon="11.3620098"><ele>568.2</ele><time>2026-04-18T09:11:13.22Z</time></trkpt><trkpt lat="43.5184876" lon="11.3619276"><ele>566.6</ele><time>2026-04-18T09:11:14.22Z</time></trkpt><trkpt lat="43.5184058" lon="11.3618398"><ele>565.0</ele><time>2026-04-18T09:11:15.221Z</time></trkpt><trkpt lat="43.5183179" lon="11.361767"><ele>565.0</ele><time>2026-04-18T09:11:16.22Z</time></trkpt><trkpt lat="43.5182305" lon="11.3617135"><ele>565.0</ele><time>2026-04-18T09:11:17.22Z</time></trkpt><trkpt lat="43.518151" lon="11.3616803"><ele>565.0</ele><time>2026-04-18T09:11:18.22Z</time></trkpt><trkpt lat="43.5180348" lon="11.3617292"><ele>565.0</ele><time>2026-04-18T09:11:19.22Z</time></trkpt><trkpt lat="43.5179404" lon="11.3617916"><ele>565.0</ele><time>2026-04-18T09:11:20.22Z</time></trkpt><trkpt lat="43.5178414" lon="11.3618645"><ele>565.0</ele><time>2026-04-18T09:11:21.22Z</time></trkpt><trkpt lat="43.5177597" lon="11.3619288"><ele>565.0</ele><time>2026-04-18T09:11:22.22Z</time></trkpt><trkpt lat="43.5176764" lon="11.3619881"><ele>565.0</ele><time>2026-04-18T09:11:23.22Z</time></trkpt><trkpt lat="43.5176037" lon="11.3619671"><ele>565.0</ele><time>2026-04-18T09:11:24.221Z</time></trkpt><trkpt lat="43.517545" lon="11.3619097"><ele>565.0</ele><time>2026-04-18T09:11:25.219Z</time></trkpt><trkpt lat="43.5174938" lon="11.3618098"><ele>565.0</ele><time>2026-04-18T09:11:26.221Z</time></trkpt><trkpt lat="43.5174607" lon="11.3616917"><ele>565.0</ele><time>2026-04-18T09:11:27.22Z</time></trkpt><trkpt lat="43.5174217" lon="11.361559"><ele>565.0</ele><time>2026-04-18T09:11:28.221Z</time></trkpt><trkpt lat="43.5173709" lon="11.3613987"><ele>565.0</ele><time>2026-04-18T09:11:29.221Z</time></trkpt><trkpt lat="43.517313" lon="11.3612439"><ele>565.0</ele><time>2026-04-18T09:11:30.221Z</time></trkpt><trkpt lat="43.5172211" lon="11.3610974"><ele>563.25</ele><time>2026-04-18T09:11:31.221Z</time></trkpt><trkpt lat="43.5171214" lon="11.3609697"><ele>561.5</ele><time>2026-04-18T09:11:32.22Z</time></trkpt><trkpt lat="43.5170082" lon="11.3608473"><ele>559.75</ele><time>2026-04-18T09:11:33.22Z</time></trkpt><trkpt lat="43.5169178" lon="11.3607404"><ele>558.0</ele><time>2026-04-18T09:11:34.219Z</time></trkpt><trkpt lat="43.5168277" lon="11.3606486"><ele>558.0</ele><time>2026-04-18T09:11:35.221Z</time></trkpt><trkpt lat="43.51673" lon="11.3605785"><ele>558.0</ele><time>2026-04-18T09:11:36.221Z</time></trkpt><trkpt lat="43.5166372" lon="11.3605305"><ele>558.0</ele><time>2026-04-18T09:11:37.219Z</time></trkpt><trkpt lat="43.5165327" lon="11.3604989"><ele>558.0</ele><time>2026-04-18T09:11:38.221Z</time></trkpt><trkpt lat="43.5164256" lon="11.3604905"><ele>558.0</ele><time>2026-04-18T09:11:39.219Z</time></trkpt><trkpt lat="43.5163168" lon="11.3605169"><ele>555.75</ele><time>2026-04-18T09:11:40.22Z</time></trkpt><trkpt lat="43.5162108" lon="11.360571"><ele>553.5</ele><time>2026-04-18T09:11:41.22Z</time></trkpt><trkpt lat="43.5161113" lon="11.3606602"><ele>551.25</ele><time>2026-04-18T09:11:42.22Z</time></trkpt><trkpt lat="43.516023" lon="11.3607759"><ele>549.0</ele><time>2026-04-18T09:11:43.22Z</time></trkpt><trkpt lat="43.5159356" lon="11.3609084"><ele>549.0</ele><time>2026-04-18T09:11:44.22Z</time></trkpt><trkpt lat="43.515866" lon="11.3610374"><ele>549.0</ele><time>2026-04-18T09:11:45.22Z</time></trkpt><trkpt lat="43.5157715" lon="11.3611468"><ele>549.0</ele><time>2026-04-18T09:11:46.22Z</time></trkpt><trkpt lat="43.515682" lon="11.3612113"><ele>549.0</ele><time>2026-04-18T09:11:47.221Z</time></trkpt><trkpt lat="43.5155636" lon="11.3612564"><ele>549.0</ele><time>2026-04-18T09:11:48.219Z</time></trkpt><trkpt lat="43.5154377" lon="11.3612733"><ele>549.0</ele><time>2026-04-18T09:11:49.219Z</time></trkpt><trkpt lat="43.5153077" lon="11.3612806"><ele>549.0</ele><time>2026-04-18T09:11:50.22Z</time></trkpt><trkpt lat="43.5151741" lon="11.3612997"><ele>549.0</ele><time>2026-04-18T09:11:51.22Z</time></trkpt><trkpt lat="43.5150427" lon="11.3613333"><ele>547.75</ele><time>2026-04-18T09:11:52.219Z</time></trkpt><trkpt lat="43.5149121" lon="11.361401"><ele>546.5</ele><time>2026-04-18T09:11:53.221Z</time></trkpt><trkpt lat="43.5147751" lon="11.3614747"><ele>545.25</ele><time>2026-04-18T09:11:54.221Z</time></trkpt><trkpt lat="43.5146409" lon="11.3615515"><ele>544.0</ele><time>2026-04-18T09:11:55.22Z</time></trkpt><trkpt lat="43.5144817" lon="11.3616523"><ele>544.0</ele><time>2026-04-18T09:11:56.221Z</time></trkpt><trkpt lat="43.5143477" lon="11.3617394"><ele>544.0</ele><time>2026-04-18T09:11:57.22Z</time></trkpt><trkpt lat="43.5142119" lon="11.361835"><ele>544.0</ele><time>2026-04-18T09:11:58.22Z</time></trkpt><trkpt lat="43.51409" lon="11.3619406"><ele>544.0</ele><time>2026-04-18T09:11:59.22Z</time></trkpt><trkpt lat="43.5139709" lon="11.3620667"><ele>544.0</ele><time>2026-04-18T09:12:00.219Z</time></trkpt><trkpt lat="43.513846" lon="11.3621964"><ele>544.0</ele><time>2026-04-18T09:12:01.219Z</time></trkpt><trkpt lat="43.5137187" lon="11.3623044"><ele>544.0</ele><time>2026-04-18T09:12:02.22Z</time></trkpt><trkpt lat="43.5135991" lon="11.3623895"><ele>544.0</ele><time>2026-04-18T09:12:03.221Z</time></trkpt><trkpt lat="43.5135002" lon="11.3624691"><ele>546.0</ele><time>2026-04-18T09:12:04.221Z</time></trkpt><trkpt lat="43.5134092" lon="11.3625583"><ele>548.0</ele><time>2026-04-18T09:12:05.221Z</time></trkpt><trkpt lat="43.5133396" lon="11.3626601"><ele>550.0</ele><time>2026-04-18T09:12:06.221Z</time></trkpt><trkpt lat="43.5132741" lon="11.3627577"><ele>552.0</ele><time>2026-04-18T09:12:07.22Z</time></trkpt><trkpt lat="43.5132199" lon="11.362856"><ele>554.0</ele><time>2026-04-18T09:12:08.22Z</time></trkpt><trkpt lat="43.5131868" lon="11.3629602"><ele>554.5</ele><time>2026-04-18T09:12:09.22Z</time></trkpt><trkpt lat="43.5131784" lon="11.3630768"><ele>555.0</ele><time>2026-04-18T09:12:10.22Z</time></trkpt><trkpt lat="43.5131877" lon="11.3632056"><ele>555.5</ele><time>2026-04-18T09:12:11.219Z</time></trkpt><trkpt lat="43.5131972" lon="11.3633268"><ele>556.0</ele><time>2026-04-18T09:12:12.221Z</time></trkpt><trkpt lat="43.5131842" lon="11.3634432"><ele>556.5</ele><time>2026-04-18T09:12:13.22Z</time></trkpt><trkpt lat="43.5131378" lon="11.3635516"><ele>557.0</ele><time>2026-04-18T09:12:14.22Z</time></trkpt><trkpt lat="43.5130658" lon="11.3636404"><ele>557.0</ele><time>2026-04-18T09:12:15.22Z</time></trkpt><trkpt lat="43.5129626" lon="11.3637122"><ele>557.0</ele><time>2026-04-18T09:12:16.22Z</time></trkpt><trkpt lat="43.5128521" lon="11.3637878"><ele>557.0</ele><time>2026-04-18T09:12:17.221Z</time></trkpt><trkpt lat="43.5127449" lon="11.3638674"><ele>557.0</ele><time>2026-04-18T09:12:18.22Z</time></trkpt><trkpt lat="43.512626" lon="11.3639546"><ele>553.75</ele><time>2026-04-18T09:12:19.22Z</time></trkpt><trkpt lat="43.5125203" lon="11.3640797"><ele>550.5</ele><time>2026-04-18T09:12:20.22Z</time></trkpt><trkpt lat="43.5124149" lon="11.3642125"><ele>547.25</ele><time>2026-04-18T09:12:21.221Z</time></trkpt><trkpt lat="43.5123154" lon="11.3643479"><ele>544.0</ele><time>2026-04-18T09:12:22.22Z</time></trkpt><trkpt lat="43.5122221" lon="11.3644804"><ele>544.0</ele><time>2026-04-18T09:12:23.219Z</time></trkpt><trkpt lat="43.512133" lon="11.3646092"><ele>544.0</ele><time>2026-04-18T09:12:24.221Z</time></trkpt><trkpt lat="43.5120435" lon="11.3647378"><ele>544.0</ele><time>2026-04-18T09:12:25.22Z</time></trkpt><trkpt lat="43.5119681" lon="11.3648353"><ele>544.0</ele><time>2026-04-18T09:12:26.221Z</time></trkpt><trkpt lat="43.5119127" lon="11.3649127"><ele>544.0</ele><time>2026-04-18T09:12:27.22Z</time></trkpt><trkpt lat="43.511851" lon="11.364999"><ele>545.6666666666667</ele><time>2026-04-18T09:12:29.221Z</time></trkpt><trkpt lat="43.5117939" lon="11.3650489"><ele>547.3333333333334</ele><time>2026-04-18T09:12:31.22Z</time></trkpt><trkpt lat="43.5117388" lon="11.3651012"><ele>549.0</ele><time>2026-04-18T09:12:34.221Z</time></trkpt><trkpt lat="43.511814" lon="11.365066"><ele>550.6666666666666</ele><time>2026-04-18T09:12:39.221Z</time></trkpt><trkpt lat="43.5118833" lon="11.364962"><ele>552.3333333333333</ele><time>2026-04-18T09:12:41.22Z</time></trkpt><trkpt lat="43.5119546" lon="11.3648507"><ele>554.0</ele><time>2026-04-18T09:12:43.22Z</time></trkpt><trkpt lat="43.5120354" lon="11.3647517"><ele>552.3333333333333</ele><time>2026-04-18T09:12:45.22Z</time></trkpt><trkpt lat="43.5121093" lon="11.3646448"><ele>550.6666666666666</ele><time>2026-04-18T09:12:47.22Z</time></trkpt><trkpt lat="43.5121701" lon="11.3645618"><ele>549.0</ele><time>2026-04-18T09:12:49.221Z</time></trkpt><trkpt lat="43.5122084" lon="11.3644747"><ele>547.3333333333334</ele><time>2026-04-18T09:12:51.221Z</time></trkpt><trkpt lat="43.5121561" lon="11.3644104"><ele>545.6666666666667</ele><time>2026-04-18T09:13:01.22Z</time></trkpt><trkpt lat="43.5121234" lon="11.3644892"><ele>544.0</ele><time>2026-04-18T09:13:05.221Z</time></trkpt><trkpt lat="43.5121259" lon="11.3645911"><ele>546.0</ele><time>2026-04-18T09:13:07.221Z</time></trkpt><trkpt lat="43.5120679" lon="11.3646902"><ele>548.0</ele><time>2026-04-18T09:13:09.22Z</time></trkpt><trkpt lat="43.5119764" lon="11.364817"><ele>550.0</ele><time>2026-04-18T09:13:11.22Z</time></trkpt><trkpt lat="43.5119309" lon="11.3648816"><ele>552.0</ele><time>2026-04-18T09:13:12.221Z</time></trkpt><trkpt lat="43.5118494" lon="11.3649922"><ele>554.0</ele><time>2026-04-18T09:13:14.221Z</time></trkpt><trkpt lat="43.5117531" lon="11.3650819"><ele>554.0</ele><time>2026-04-18T09:13:16.22Z</time></trkpt><trkpt lat="43.5116695" lon="11.365183"><ele>554.0</ele><time>2026-04-18T09:13:18.22Z</time></trkpt><trkpt lat="43.5115803" lon="11.3652934"><ele>554.0</ele><time>2026-04-18T09:13:20.221Z</time></trkpt><trkpt lat="43.5115309" lon="11.3653479"><ele>554.0</ele><time>2026-04-18T09:13:21.219Z</time></trkpt><trkpt lat="43.5114527" lon="11.3654392"><ele>554.0</ele><time>2026-04-18T09:13:23.22Z</time></trkpt><trkpt lat="43.5113849" lon="11.365502"><ele>551.8333333333333</ele><time>2026-04-18T09:13:25.22Z</time></trkpt><trkpt lat="43.5112929" lon="11.3655391"><ele>549.6666666666666</ele><time>2026-04-18T09:13:27.22Z</time></trkpt><trkpt lat="43.5111723" lon="11.365567"><ele>547.5</ele><time>2026-04-18T09:13:29.221Z</time></trkpt><trkpt lat="43.5110979" lon="11.3655833"><ele>545.3333333333334</ele><time>2026-04-18T09:13:30.22Z</time></trkpt><trkpt lat="43.5110271" lon="11.3655997"><ele>543.1666666666667</ele><time>2026-04-18T09:13:31.219Z</time></trkpt><trkpt lat="43.5109584" lon="11.3656185"><ele>541.0</ele><time>2026-04-18T09:13:32.22Z</time></trkpt><trkpt lat="43.5108845" lon="11.3656649"><ele>541.0</ele><time>2026-04-18T09:13:33.22Z</time></trkpt><trkpt lat="43.5108179" lon="11.3657106"><ele>541.0</ele><time>2026-04-18T09:13:34.22Z</time></trkpt><trkpt lat="43.5107501" lon="11.365762"><ele>541.0</ele><time>2026-04-18T09:13:35.22Z</time></trkpt><trkpt lat="43.5106826" lon="11.3658191"><ele>541.0</ele><time>2026-04-18T09:13:36.22Z</time></trkpt><trkpt lat="43.5106165" lon="11.3658697"><ele>541.0</ele><time>2026-04-18T09:13:37.22Z</time></trkpt><trkpt lat="43.5105511" lon="11.3659155"><ele>541.0</ele><time>2026-04-18T09:13:38.219Z</time></trkpt><trkpt lat="43.5104736" lon="11.3659671"><ele>540.2</ele><time>2026-04-18T09:13:39.219Z</time></trkpt><trkpt lat="43.5103895" lon="11.3660353"><ele>539.4000000000001</ele><time>2026-04-18T09:13:40.221Z</time></trkpt><trkpt lat="43.510301" lon="11.3661098"><ele>538.6</ele><time>2026-04-18T09:13:41.219Z</time></trkpt><trkpt lat="43.5102166" lon="11.3661716"><ele>537.8000000000001</ele><time>2026-04-18T09:13:42.22Z</time></trkpt><trkpt lat="43.5101355" lon="11.366222"><ele>537.0</ele><time>2026-04-18T09:13:43.221Z</time></trkpt><trkpt lat="43.5100607" lon="11.366279"><ele>536.9999999999999</ele><time>2026-04-18T09:13:44.219Z</time></trkpt><trkpt lat="43.5099862" lon="11.3663307"><ele>537.0</ele><time>2026-04-18T09:13:45.219Z</time></trkpt><trkpt lat="43.5099149" lon="11.36639"><ele>537.0</ele><time>2026-04-18T09:13:46.22Z</time></trkpt><trkpt lat="43.509875" lon="11.366467"><ele>537.0</ele><time>2026-04-18T09:13:47.22Z</time></trkpt><trkpt lat="43.5098511" lon="11.3665538"><ele>537.0</ele><time>2026-04-18T09:13:48.22Z</time></trkpt><trkpt lat="43.5098655" lon="11.3666403"><ele>536.9999999999999</ele><time>2026-04-18T09:13:49.219Z</time></trkpt><trkpt lat="43.5099114" lon="11.3667148"><ele>537.0</ele><time>2026-04-18T09:13:50.221Z</time></trkpt><trkpt lat="43.5099743" lon="11.3667624"><ele>536.1428571428571</ele><time>2026-04-18T09:13:51.219Z</time></trkpt><trkpt lat="43.5100476" lon="11.3667828"><ele>535.2857142857142</ele><time>2026-04-18T09:13:52.219Z</time></trkpt><trkpt lat="43.5101019" lon="11.3668441"><ele>534.4285714285714</ele><time>2026-04-18T09:13:53.22Z</time></trkpt><trkpt lat="43.5101464" lon="11.3669211"><ele>533.5714285714286</ele><time>2026-04-18T09:13:54.221Z</time></trkpt><trkpt lat="43.5101163" lon="11.3670041"><ele>532.7142857142858</ele><time>2026-04-18T09:13:55.22Z</time></trkpt><trkpt lat="43.5100717" lon="11.3670828"><ele>531.8571428571429</ele><time>2026-04-18T09:13:56.22Z</time></trkpt><trkpt lat="43.5100033" lon="11.367132"><ele>531.0</ele><time>2026-04-18T09:13:57.22Z</time></trkpt><trkpt lat="43.5099179" lon="11.3671688"><ele>527.8</ele><time>2026-04-18T09:13:58.221Z</time></trkpt><trkpt lat="43.5098256" lon="11.3672272"><ele>524.6</ele><time>2026-04-18T09:13:59.219Z</time></trkpt><trkpt lat="43.5097403" lon="11.3673158"><ele>521.4</ele><time>2026-04-18T09:14:00.219Z</time></trkpt><trkpt lat="43.5096568" lon="11.3674008"><ele>518.2</ele><time>2026-04-18T09:14:01.218Z</time></trkpt><trkpt lat="43.5095647" lon="11.3674713"><ele>515.0</ele><time>2026-04-18T09:14:02.219Z</time></trkpt><trkpt lat="43.5094772" lon="11.3675057"><ele>515.0</ele><time>2026-04-18T09:14:03.219Z</time></trkpt><trkpt lat="43.5093861" lon="11.3675197"><ele>515.0</ele><time>2026-04-18T09:14:04.221Z</time></trkpt><trkpt lat="43.5092973" lon="11.3674981"><ele>515.0</ele><time>2026-04-18T09:14:05.219Z</time></trkpt><trkpt lat="43.5092148" lon="11.3674642"><ele>515.0</ele><time>2026-04-18T09:14:06.22Z</time></trkpt><trkpt lat="43.5091201" lon="11.3674236"><ele>515.0</ele><time>2026-04-18T09:14:07.219Z</time></trkpt><trkpt lat="43.5090214" lon="11.3673743"><ele>515.0</ele><time>2026-04-18T09:14:08.22Z</time></trkpt><trkpt lat="43.5089146" lon="11.3673377"><ele>515.0</ele><time>2026-04-18T09:14:09.22Z</time></trkpt><trkpt lat="43.508806" lon="11.3673172"><ele>515.0</ele><time>2026-04-18T09:14:10.219Z</time></trkpt><trkpt lat="43.5086952" lon="11.367295"><ele>515.0</ele><time>2026-04-18T09:14:11.22Z</time></trkpt><trkpt lat="43.5085934" lon="11.3672553"><ele>515.0</ele><time>2026-04-18T09:14:12.219Z</time></trkpt><trkpt lat="43.5084965" lon="11.367195"><ele>514.0</ele><time>2026-04-18T09:14:13.22Z</time></trkpt><trkpt lat="43.5084245" lon="11.3671273"><ele>513.0</ele><time>2026-04-18T09:14:14.221Z</time></trkpt><trkpt lat="43.5083618" lon="11.3670734"><ele>512.0</ele><time>2026-04-18T09:14:15.22Z</time></trkpt><trkpt lat="43.5082951" lon="11.3670531"><ele>511.0</ele><time>2026-04-18T09:14:16.221Z</time></trkpt><trkpt lat="43.508231" lon="11.3670812"><ele>510.0</ele><time>2026-04-18T09:14:17.22Z</time></trkpt><trkpt lat="43.5081931" lon="11.367158"><ele>509.0</ele><time>2026-04-18T09:14:18.221Z</time></trkpt><trkpt lat="43.5081814" lon="11.3672498"><ele>508.0</ele><time>2026-04-18T09:14:19.22Z</time></trkpt><trkpt lat="43.5081893" lon="11.3673407"><ele>508.00000000000006</ele><time>2026-04-18T09:14:20.22Z</time></trkpt><trkpt lat="43.5082058" lon="11.3674631"><ele>508.0</ele><time>2026-04-18T09:14:22.22Z</time></trkpt><trkpt lat="43.5082534" lon="11.3675293"><ele>508.0</ele><time>2026-04-18T09:14:26.221Z</time></trkpt><trkpt lat="43.5082358" lon="11.3674183"><ele>508.0</ele><time>2026-04-18T09:14:30.22Z</time></trkpt><trkpt lat="43.5082082" lon="11.3673112"><ele>508.00000000000006</ele><time>2026-04-18T09:14:32.221Z</time></trkpt><trkpt lat="43.5082101" lon="11.3672057"><ele>508.0</ele><time>2026-04-18T09:14:34.219Z</time></trkpt><trkpt lat="43.508247" lon="11.3671183"><ele>508.00000000000006</ele><time>2026-04-18T09:14:36.221Z</time></trkpt><trkpt lat="43.5082909" lon="11.3670494"><ele>508.0</ele><time>2026-04-18T09:14:38.22Z</time></trkpt><trkpt lat="43.508314" lon="11.3669677"><ele>508.0</ele><time>2026-04-18T09:14:40.221Z</time></trkpt><trkpt lat="43.5082946" lon="11.3668592"><ele>508.0</ele><time>2026-04-18T09:14:42.22Z</time></trkpt><trkpt lat="43.5082624" lon="11.3667432"><ele>508.00000000000006</ele><time>2026-04-18T09:14:44.219Z</time></trkpt><trkpt lat="43.5082259" lon="11.3666369"><ele>508.0</ele><time>2026-04-18T09:14:46.22Z</time></trkpt><trkpt lat="43.508185" lon="11.3665285"><ele>508.00000000000006</ele><time>2026-04-18T09:14:48.22Z</time></trkpt><trkpt lat="43.5081458" lon="11.3664149"><ele>508.0</ele><time>2026-04-18T09:14:50.22Z</time></trkpt><trkpt lat="43.5081086" lon="11.3662987"><ele>508.0</ele><time>2026-04-18T09:14:52.221Z</time></trkpt><trkpt lat="43.5080671" lon="11.366172"><ele>508.0</ele><time>2026-04-18T09:14:54.22Z</time></trkpt><trkpt lat="43.5080331" lon="11.3660779"><ele>508.00000000000006</ele><time>2026-04-18T09:14:56.22Z</time></trkpt><trkpt lat="43.5079747" lon="11.366019"><ele>508.0</ele><time>2026-04-18T09:15:00.219Z</time></trkpt><trkpt lat="43.5078991" lon="11.3660784"><ele>505.6666666666667</ele><time>2026-04-18T09:15:03.221Z</time></trkpt><trkpt lat="43.5078262" lon="11.3661434"><ele>503.33333333333337</ele><time>2026-04-18T09:15:06.22Z</time></trkpt><trkpt lat="43.5077545" lon="11.3661568"><ele>501.0</ele><time>2026-04-18T09:15:11.22Z</time></trkpt><trkpt lat="43.5077268" lon="11.3660603"><ele>498.66666666666663</ele><time>2026-04-18T09:15:16.219Z</time></trkpt><trkpt lat="43.5077723" lon="11.3659572"><ele>496.3333333333333</ele><time>2026-04-18T09:15:19.219Z</time></trkpt><trkpt lat="43.5077722" lon="11.3658635"><ele>494.0</ele><time>2026-04-18T09:15:21.219Z</time></trkpt><trkpt lat="43.5077271" lon="11.3657856"><ele>493.99999999999994</ele><time>2026-04-18T09:15:24.221Z</time></trkpt><trkpt lat="43.5076711" lon="11.3657298"><ele>494.0</ele><time>2026-04-18T09:15:28.219Z</time></trkpt><trkpt lat="43.5076483" lon="11.3656091"><ele>494.0</ele><time>2026-04-18T09:15:31.22Z</time></trkpt><trkpt lat="43.5076211" lon="11.3655142"><ele>494.0</ele><time>2026-04-18T09:15:33.22Z</time></trkpt><trkpt lat="43.5076011" lon="11.3654228"><ele>493.99999999999994</ele><time>2026-04-18T09:15:35.22Z</time></trkpt><trkpt lat="43.5075837" lon="11.3653337"><ele>494.0</ele><time>2026-04-18T09:15:38.22Z</time></trkpt><trkpt lat="43.5075028" lon="11.3653206"><ele>494.66666666666663</ele><time>2026-04-18T09:15:46.22Z</time></trkpt><trkpt lat="43.5074304" lon="11.3653103"><ele>495.3333333333333</ele><time>2026-04-18T09:15:49.22Z</time></trkpt><trkpt lat="43.5073615" lon="11.3652744"><ele>496.0</ele><time>2026-04-18T09:15:52.219Z</time></trkpt><trkpt lat="43.5072665" lon="11.3652929"><ele>496.66666666666663</ele><time>2026-04-18T09:15:55.22Z</time></trkpt><trkpt lat="43.5071776" lon="11.3653234"><ele>497.3333333333333</ele><time>2026-04-18T09:15:58.22Z</time></trkpt><trkpt lat="43.5071138" lon="11.3653663"><ele>498.0</ele><time>2026-04-18T09:16:00.221Z</time></trkpt><trkpt lat="43.5070384" lon="11.3653846"><ele>496.6666666666667</ele><time>2026-04-18T09:16:02.22Z</time></trkpt><trkpt lat="43.5069475" lon="11.3654067"><ele>495.33333333333337</ele><time>2026-04-18T09:16:04.22Z</time></trkpt><trkpt lat="43.506859" lon="11.3654478"><ele>494.0</ele><time>2026-04-18T09:16:06.22Z</time></trkpt><trkpt lat="43.5067678" lon="11.3654571"><ele>492.6666666666667</ele><time>2026-04-18T09:16:08.218Z</time></trkpt><trkpt lat="43.506691" lon="11.365458"><ele>491.33333333333337</ele><time>2026-04-18T09:16:10.219Z</time></trkpt><trkpt lat="43.5066255" lon="11.3655202"><ele>490.0</ele><time>2026-04-18T09:16:13.22Z</time></trkpt><trkpt lat="43.5066309" lon="11.3656179"><ele>489.4</ele><time>2026-04-18T09:16:15.22Z</time></trkpt><trkpt lat="43.5066513" lon="11.3657382"><ele>488.8</ele><time>2026-04-18T09:16:17.22Z</time></trkpt><trkpt lat="43.5066686" lon="11.3658608"><ele>488.20000000000005</ele><time>2026-04-18T09:16:19.22Z</time></trkpt><trkpt lat="43.5066917" lon="11.3659993"><ele>487.6</ele><time>2026-04-18T09:16:21.22Z</time></trkpt><trkpt lat="43.5067182" lon="11.3661406"><ele>487.0</ele><time>2026-04-18T09:16:23.22Z</time></trkpt><trkpt lat="43.5067504" lon="11.3662948"><ele>485.0</ele><time>2026-04-18T09:16:25.22Z</time></trkpt><trkpt lat="43.5067856" lon="11.3664492"><ele>483.00000000000006</ele><time>2026-04-18T09:16:27.22Z</time></trkpt><trkpt lat="43.5068065" lon="11.3665743"><ele>481.00000000000006</ele><time>2026-04-18T09:16:29.22Z</time></trkpt><trkpt lat="43.5068306" lon="11.3667004"><ele>479.0</ele><time>2026-04-18T09:16:31.22Z</time></trkpt><trkpt lat="43.5068648" lon="11.3668344"><ele>477.0</ele><time>2026-04-18T09:16:33.22Z</time></trkpt><trkpt lat="43.506903" lon="11.3669864"><ele>477.0</ele><time>2026-04-18T09:16:35.22Z</time></trkpt><trkpt lat="43.5069337" lon="11.367123"><ele>477.0</ele><time>2026-04-18T09:16:37.219Z</time></trkpt><trkpt lat="43.5069745" lon="11.3672382"><ele>477.0</ele><time>2026-04-18T09:16:39.219Z</time></trkpt><trkpt lat="43.5069721" lon="11.3673503"><ele>477.0</ele><time>2026-04-18T09:16:41.219Z</time></trkpt><trkpt lat="43.5069255" lon="11.3674158"><ele>477.0</ele><time>2026-04-18T09:16:43.219Z</time></trkpt><trkpt lat="43.506854" lon="11.3674526"><ele>477.0</ele><time>2026-04-18T09:16:45.22Z</time></trkpt><trkpt lat="43.5067582" lon="11.3674872"><ele>475.40000000000003</ele><time>2026-04-18T09:16:47.22Z</time></trkpt><trkpt lat="43.5066635" lon="11.3674959"><ele>473.80000000000007</ele><time>2026-04-18T09:16:49.222Z</time></trkpt><trkpt lat="43.5065713" lon="11.3674811"><ele>472.2</ele><time>2026-04-18T09:16:51.22Z</time></trkpt><trkpt lat="43.5065047" lon="11.3675437"><ele>470.6</ele><time>2026-04-18T09:16:53.22Z</time></trkpt><trkpt lat="43.5064891" lon="11.36766"><ele>469.0</ele><time>2026-04-18T09:16:55.221Z</time></trkpt><trkpt lat="43.5065121" lon="11.3678174"><ele>469.0</ele><time>2026-04-18T09:16:57.22Z</time></trkpt><trkpt lat="43.506539" lon="11.3679713"><ele>469.0</ele><time>2026-04-18T09:16:59.22Z</time></trkpt><trkpt lat="43.5065655" lon="11.3681006"><ele>469.0</ele><time>2026-04-18T09:17:01.221Z</time></trkpt><trkpt lat="43.5065945" lon="11.368232"><ele>469.0</ele><time>2026-04-18T09:17:03.22Z</time></trkpt><trkpt lat="43.5066105" lon="11.3683485"><ele>469.0</ele><time>2026-04-18T09:17:05.221Z</time></trkpt><trkpt lat="43.5066204" lon="11.368442"><ele>467.79999999999995</ele><time>2026-04-18T09:17:14.22Z</time></trkpt><trkpt lat="43.5066846" lon="11.3684297"><ele>466.59999999999997</ele><time>2026-04-18T09:17:16.22Z</time></trkpt><trkpt lat="43.5067947" lon="11.3683744"><ele>465.4</ele><time>2026-04-18T09:17:18.22Z</time></trkpt><trkpt lat="43.5069182" lon="11.3683254"><ele>464.2</ele><time>2026-04-18T09:17:20.22Z</time></trkpt><trkpt lat="43.5069856" lon="11.3682968"><ele>463.0</ele><time>2026-04-18T09:17:21.219Z</time></trkpt><trkpt lat="43.5070662" lon="11.3682727"><ele>465.33333333333337</ele><time>2026-04-18T09:17:22.22Z</time></trkpt><trkpt lat="43.50714" lon="11.3682592"><ele>467.6666666666667</ele><time>2026-04-18T09:17:23.22Z</time></trkpt><trkpt lat="43.50721" lon="11.3682529"><ele>470.0</ele><time>2026-04-18T09:17:24.22Z</time></trkpt><trkpt lat="43.507285" lon="11.3682667"><ele>472.33333333333337</ele><time>2026-04-18T09:17:25.22Z</time></trkpt><trkpt lat="43.5073542" lon="11.3682944"><ele>474.6666666666667</ele><time>2026-04-18T09:17:26.22Z</time></trkpt><trkpt lat="43.507432" lon="11.3683619"><ele>477.0</ele><time>2026-04-18T09:17:28.22Z</time></trkpt><trkpt lat="43.5074689" lon="11.3684463"><ele>477.0</ele><time>2026-04-18T09:18:00.22Z</time></trkpt><trkpt lat="43.507485" lon="11.3685356"><ele>477.0</ele><time>2026-04-18T09:18:02.221Z</time></trkpt><trkpt lat="43.5075132" lon="11.3686292"><ele>477.0</ele><time>2026-04-18T09:18:04.219Z</time></trkpt><trkpt lat="43.5075416" lon="11.3687159"><ele>477.0</ele><time>2026-04-18T09:18:06.219Z</time></trkpt><trkpt lat="43.5075693" lon="11.3688196"><ele>477.0</ele><time>2026-04-18T09:18:08.219Z</time></trkpt><trkpt lat="43.5076082" lon="11.3689153"><ele>477.0</ele><time>2026-04-18T09:18:10.219Z</time></trkpt><trkpt lat="43.5076811" lon="11.3690071"><ele>474.71428571428567</ele><time>2026-04-18T09:18:13.219Z</time></trkpt><trkpt lat="43.5077393" lon="11.3690684"><ele>472.4285714285714</ele><time>2026-04-18T09:18:15.22Z</time></trkpt><trkpt lat="43.5077964" lon="11.3691371"><ele>470.1428571428571</ele><time>2026-04-18T09:18:17.22Z</time></trkpt><trkpt lat="43.5078352" lon="11.3692245"><ele>467.8571428571429</ele><time>2026-04-18T09:18:19.22Z</time></trkpt><trkpt lat="43.5078616" lon="11.3693054"><ele>465.5714285714286</ele><time>2026-04-18T09:18:21.22Z</time></trkpt><trkpt lat="43.5078657" lon="11.3694054"><ele>463.28571428571433</ele><time>2026-04-18T09:18:23.22Z</time></trkpt><trkpt lat="43.5078528" lon="11.3695053"><ele>461.0</ele><time>2026-04-18T09:18:25.22Z</time></trkpt><trkpt lat="43.5078496" lon="11.3695941"><ele>460.99999999999994</ele><time>2026-04-18T09:18:27.219Z</time></trkpt><trkpt lat="43.5078429" lon="11.3696818"><ele>461.0</ele><time>2026-04-18T09:18:29.22Z</time></trkpt><trkpt lat="43.5078499" lon="11.3697994"><ele>461.0</ele><time>2026-04-18T09:18:32.22Z</time></trkpt><trkpt lat="43.5078822" lon="11.369905"><ele>461.0</ele><time>2026-04-18T09:18:35.22Z</time></trkpt><trkpt lat="43.5079343" lon="11.369995"><ele>460.99999999999994</ele><time>2026-04-18T09:18:38.219Z</time></trkpt><trkpt lat="43.5079914" lon="11.3700468"><ele>461.0</ele><time>2026-04-18T09:18:40.22Z</time></trkpt><trkpt lat="43.5080595" lon="11.3700795"><ele>459.99999999999994</ele><time>2026-04-18T09:18:42.219Z</time></trkpt><trkpt lat="43.5081496" lon="11.3701252"><ele>459.0</ele><time>2026-04-18T09:18:45.22Z</time></trkpt><trkpt lat="43.5082273" lon="11.3701528"><ele>458.0</ele><time>2026-04-18T09:18:47.22Z</time></trkpt><trkpt lat="43.5083042" lon="11.3701416"><ele>457.0</ele><time>2026-04-18T09:18:50.219Z</time></trkpt><trkpt lat="43.508382" lon="11.3701518"><ele>455.99999999999994</ele><time>2026-04-18T09:18:53.22Z</time></trkpt><trkpt lat="43.5084086" lon="11.3702449"><ele>455.0</ele><time>2026-04-18T09:18:56.22Z</time></trkpt><trkpt lat="43.5084033" lon="11.3703525"><ele>455.0</ele><time>2026-04-18T09:18:59.219Z</time></trkpt><trkpt lat="43.5083883" lon="11.3704889"><ele>455.0</ele><time>2026-04-18T09:19:02.22Z</time></trkpt><trkpt lat="43.5083922" lon="11.3705983"><ele>455.0</ele><time>2026-04-18T09:19:04.22Z</time></trkpt><trkpt lat="43.5084409" lon="11.3707134"><ele>455.0</ele><time>2026-04-18T09:19:06.22Z</time></trkpt><trkpt lat="43.508495" lon="11.3708341"><ele>455.0</ele><time>2026-04-18T09:19:08.22Z</time></trkpt><trkpt lat="43.5085501" lon="11.370935"><ele>452.49999999999994</ele><time>2026-04-18T09:19:10.22Z</time></trkpt><trkpt lat="43.5086092" lon="11.371007"><ele>450.0</ele><time>2026-04-18T09:19:12.22Z</time></trkpt><trkpt lat="43.5086826" lon="11.3710793"><ele>447.5</ele><time>2026-04-18T09:19:14.22Z</time></trkpt><trkpt lat="43.5087774" lon="11.3710813"><ele>445.0</ele><time>2026-04-18T09:19:16.22Z</time></trkpt><trkpt lat="43.5088635" lon="11.3710658"><ele>442.49999999999994</ele><time>2026-04-18T09:19:18.22Z</time></trkpt><trkpt lat="43.508936" lon="11.371068"><ele>440.0</ele><time>2026-04-18T09:19:20.22Z</time></trkpt><trkpt lat="43.5090179" lon="11.3710948"><ele>439.99999999999994</ele><time>2026-04-18T09:19:26.22Z</time></trkpt><trkpt lat="43.5090934" lon="11.3710774"><ele>440.0</ele><time>2026-04-18T09:19:28.219Z</time></trkpt><trkpt lat="43.50916" lon="11.3710886"><ele>440.0</ele><time>2026-04-18T09:19:30.22Z</time></trkpt><trkpt lat="43.5091832" lon="11.3712189"><ele>440.0</ele><time>2026-04-18T09:19:32.22Z</time></trkpt><trkpt lat="43.5091684" lon="11.3713536"><ele>439.99999999999994</ele><time>2026-04-18T09:19:34.218Z</time></trkpt><trkpt lat="43.5091025" lon="11.3714586"><ele>440.0</ele><time>2026-04-18T09:19:36.219Z</time></trkpt><trkpt lat="43.5090467" lon="11.3715047"><ele>438.3333333333333</ele><time>2026-04-18T09:19:37.218Z</time></trkpt><trkpt lat="43.5089798" lon="11.3715462"><ele>436.66666666666663</ele><time>2026-04-18T09:19:38.219Z</time></trkpt><trkpt lat="43.5089049" lon="11.3715787"><ele>435.0</ele><time>2026-04-18T09:19:39.22Z</time></trkpt><trkpt lat="43.5088239" lon="11.3716323"><ele>433.33333333333337</ele><time>2026-04-18T09:19:40.219Z</time></trkpt><trkpt lat="43.5087473" lon="11.371687"><ele>431.6666666666667</ele><time>2026-04-18T09:19:41.219Z</time></trkpt><trkpt lat="43.5086776" lon="11.3717401"><ele>430.0</ele><time>2026-04-18T09:19:42.22Z</time></trkpt><trkpt lat="43.5086208" lon="11.3717813"><ele>428.83333333333337</ele><time>2026-04-18T09:19:43.22Z</time></trkpt><trkpt lat="43.508554" lon="11.3718953"><ele>427.6666666666667</ele><time>2026-04-18T09:19:45.22Z</time></trkpt><trkpt lat="43.508518" lon="11.3720082"><ele>426.5</ele><time>2026-04-18T09:19:47.22Z</time></trkpt><trkpt lat="43.5084478" lon="11.3720339"><ele>425.33333333333337</ele><time>2026-04-18T09:19:50.22Z</time></trkpt><trkpt lat="43.508387" lon="11.3719634"><ele>424.1666666666667</ele><time>2026-04-18T09:19:52.22Z</time></trkpt><trkpt lat="43.5083177" lon="11.37188"><ele>423.0</ele><time>2026-04-18T09:19:54.218Z</time></trkpt><trkpt lat="43.5082485" lon="11.3718522"><ele>423.0</ele><time>2026-04-18T09:19:56.219Z</time></trkpt><trkpt lat="43.5081398" lon="11.3719015"><ele>423.0</ele><time>2026-04-18T09:19:58.22Z</time></trkpt><trkpt lat="43.5080811" lon="11.3719478"><ele>423.0</ele><time>2026-04-18T09:19:59.219Z</time></trkpt><trkpt lat="43.5079798" lon="11.372012"><ele>423.0</ele><time>2026-04-18T09:20:01.22Z</time></trkpt><trkpt lat="43.5078552" lon="11.3720329"><ele>423.0</ele><time>2026-04-18T09:20:03.22Z</time></trkpt><trkpt lat="43.5077746" lon="11.3720374"><ele>422.2857142857143</ele><time>2026-04-18T09:20:04.219Z</time></trkpt><trkpt lat="43.5077031" lon="11.3720355"><ele>421.5714285714286</ele><time>2026-04-18T09:20:05.219Z</time></trkpt><trkpt lat="43.5076361" lon="11.3720367"><ele>420.8571428571429</ele><time>2026-04-18T09:20:06.22Z</time></trkpt><trkpt lat="43.5075654" lon="11.3720352"><ele>420.1428571428571</ele><time>2026-04-18T09:20:07.22Z</time></trkpt><trkpt lat="43.5074868" lon="11.372052"><ele>419.42857142857144</ele><time>2026-04-18T09:20:08.22Z</time></trkpt><trkpt lat="43.5074128" lon="11.3720619"><ele>418.7142857142857</ele><time>2026-04-18T09:20:09.22Z</time></trkpt><trkpt lat="43.5073299" lon="11.3720833"><ele>418.0</ele><time>2026-04-18T09:20:10.22Z</time></trkpt><trkpt lat="43.5072308" lon="11.3721003"><ele>418.00000000000006</ele><time>2026-04-18T09:20:11.22Z</time></trkpt><trkpt lat="43.5071231" lon="11.3721199"><ele>418.0</ele><time>2026-04-18T09:20:12.22Z</time></trkpt><trkpt lat="43.5070425" lon="11.3721449"><ele>418.0</ele><time>2026-04-18T09:20:13.22Z</time></trkpt><trkpt lat="43.5069694" lon="11.3721623"><ele>418.0</ele><time>2026-04-18T09:20:14.22Z</time></trkpt><trkpt lat="43.5069063" lon="11.3721776"><ele>418.00000000000006</ele><time>2026-04-18T09:20:15.22Z</time></trkpt><trkpt lat="43.5068377" lon="11.3721895"><ele>418.0</ele><time>2026-04-18T09:20:16.219Z</time></trkpt><trkpt lat="43.5067445" lon="11.3722489"><ele>418.2</ele><time>2026-04-18T09:20:18.22Z</time></trkpt><trkpt lat="43.506682" lon="11.3723783"><ele>418.4</ele><time>2026-04-18T09:20:20.219Z</time></trkpt><trkpt lat="43.5066244" lon="11.3724847"><ele>418.59999999999997</ele><time>2026-04-18T09:20:22.22Z</time></trkpt><trkpt lat="43.5065664" lon="11.3726506"><ele>418.79999999999995</ele><time>2026-04-18T09:20:24.22Z</time></trkpt><trkpt lat="43.5065408" lon="11.3727522"><ele>419.0</ele><time>2026-04-18T09:20:25.22Z</time></trkpt><trkpt lat="43.5065029" lon="11.3728554"><ele>419.0</ele><time>2026-04-18T09:20:26.219Z</time></trkpt><trkpt lat="43.5064558" lon="11.3729709"><ele>419.0</ele><time>2026-04-18T09:20:27.22Z</time></trkpt><trkpt lat="43.5064164" lon="11.3730688"><ele>419.0</ele><time>2026-04-18T09:20:28.221Z</time></trkpt><trkpt lat="43.5063638" lon="11.3731831"><ele>419.0</ele><time>2026-04-18T09:20:29.22Z</time></trkpt><trkpt lat="43.5063206" lon="11.3733004"><ele>419.0</ele><time>2026-04-18T09:20:30.219Z</time></trkpt><trkpt lat="43.5062695" lon="11.3734122"><ele>418.99999999999994</ele><time>2026-04-18T09:20:31.219Z</time></trkpt><trkpt lat="43.5062242" lon="11.373522"><ele>419.0</ele><time>2026-04-18T09:20:32.219Z</time></trkpt><trkpt lat="43.506186" lon="11.373627"><ele>419.0</ele><time>2026-04-18T09:20:33.22Z</time></trkpt><trkpt lat="43.5061216" lon="11.3737508"><ele>419.0</ele><time>2026-04-18T09:20:35.218Z</time></trkpt><trkpt lat="43.5060898" lon="11.3738282"><ele>418.99999999999994</ele><time>2026-04-18T09:20:36.22Z</time></trkpt><trkpt lat="43.506051" lon="11.3739128"><ele>419.0</ele><time>2026-04-18T09:20:37.22Z</time></trkpt><trkpt lat="43.5059889" lon="11.374077"><ele>420.8333333333333</ele><time>2026-04-18T09:20:39.219Z</time></trkpt><trkpt lat="43.5059437" lon="11.3741699"><ele>422.66666666666663</ele><time>2026-04-18T09:20:40.219Z</time></trkpt><trkpt lat="43.5059053" lon="11.3742665"><ele>424.5</ele><time>2026-04-18T09:20:41.22Z</time></trkpt><trkpt lat="43.5058745" lon="11.3743583"><ele>426.33333333333337</ele><time>2026-04-18T09:20:42.219Z</time></trkpt><trkpt lat="43.5058429" lon="11.3744625"><ele>428.1666666666667</ele><time>2026-04-18T09:20:43.22Z</time></trkpt><trkpt lat="43.5058058" lon="11.3745559"><ele>430.0</ele><time>2026-04-18T09:20:44.22Z</time></trkpt><trkpt lat="43.5057453" lon="11.3746141"><ele>430.00000000000006</ele><time>2026-04-18T09:20:45.22Z</time></trkpt><trkpt lat="43.5056756" lon="11.3746546"><ele>430.0</ele><time>2026-04-18T09:20:46.22Z</time></trkpt><trkpt lat="43.5055929" lon="11.3746988"><ele>430.0</ele><time>2026-04-18T09:20:47.219Z</time></trkpt><trkpt lat="43.5055139" lon="11.3747414"><ele>430.0</ele><time>2026-04-18T09:20:48.22Z</time></trkpt><trkpt lat="43.5054434" lon="11.3747828"><ele>430.00000000000006</ele><time>2026-04-18T09:20:49.219Z</time></trkpt><trkpt lat="43.5053524" lon="11.3748699"><ele>430.0</ele><time>2026-04-18T09:20:51.218Z</time></trkpt><trkpt lat="43.5053201" lon="11.3749684"><ele>429.7142857142857</ele><time>2026-04-18T09:20:53.22Z</time></trkpt><trkpt lat="43.5052835" lon="11.3750479"><ele>429.42857142857144</ele><time>2026-04-18T09:21:09.22Z</time></trkpt><trkpt lat="43.5052229" lon="11.3751013"><ele>429.14285714285717</ele><time>2026-04-18T09:21:11.219Z</time></trkpt><trkpt lat="43.5051706" lon="11.3751757"><ele>428.8571428571429</ele><time>2026-04-18T09:21:13.22Z</time></trkpt><trkpt lat="43.5051285" lon="11.3752639"><ele>428.57142857142856</ele><time>2026-04-18T09:21:15.22Z</time></trkpt><trkpt lat="43.5051093" lon="11.3753514"><ele>428.28571428571433</ele><time>2026-04-18T09:21:17.219Z</time></trkpt><trkpt lat="43.5051077" lon="11.3754447"><ele>428.0</ele><time>2026-04-18T09:21:19.22Z</time></trkpt><trkpt lat="43.5051286" lon="11.3755512"><ele>427.49999999999994</ele><time>2026-04-18T09:21:21.219Z</time></trkpt><trkpt lat="43.505197" lon="11.375709"><ele>427.0</ele><time>2026-04-18T09:21:23.219Z</time></trkpt><trkpt lat="43.5052458" lon="11.3757942"><ele>426.5</ele><time>2026-04-18T09:21:24.219Z</time></trkpt><trkpt lat="43.5052819" lon="11.3758772"><ele>426.0</ele><time>2026-04-18T09:21:25.219Z</time></trkpt><trkpt lat="43.5053026" lon="11.3759677"><ele>425.49999999999994</ele><time>2026-04-18T09:21:26.219Z</time></trkpt><trkpt lat="43.5053035" lon="11.3760674"><ele>425.0</ele><time>2026-04-18T09:21:27.22Z</time></trkpt><trkpt lat="43.5052935" lon="11.3761739"><ele>425.0</ele><time>2026-04-18T09:21:28.22Z</time></trkpt><trkpt lat="43.5052724" lon="11.3762975"><ele>425.0</ele><time>2026-04-18T09:21:29.219Z</time></trkpt><trkpt lat="43.5052581" lon="11.3764384"><ele>425.0</ele><time>2026-04-18T09:21:30.22Z</time></trkpt><trkpt lat="43.5052402" lon="11.3765861"><ele>425.0</ele><time>2026-04-18T09:21:31.22Z</time></trkpt><trkpt lat="43.5052087" lon="11.376714"><ele>425.0</ele><time>2026-04-18T09:21:32.219Z</time></trkpt><trkpt lat="43.5051658" lon="11.376815"><ele>424.6</ele><time>2026-04-18T09:21:33.218Z</time></trkpt><trkpt lat="43.5051035" lon="11.3769008"><ele>424.2</ele><time>2026-04-18T09:21:34.219Z</time></trkpt><trkpt lat="43.5050321" lon="11.3769769"><ele>423.79999999999995</ele><time>2026-04-18T09:21:35.22Z</time></trkpt><trkpt lat="43.5049608" lon="11.3770718"><ele>423.4</ele><time>2026-04-18T09:21:36.22Z</time></trkpt><trkpt lat="43.5048962" lon="11.3771837"><ele>423.0</ele><time>2026-04-18T09:21:37.219Z</time></trkpt><trkpt lat="43.5048408" lon="11.3772973"><ele>424.79999999999995</ele><time>2026-04-18T09:21:38.22Z</time></trkpt><trkpt lat="43.5047818" lon="11.3774284"><ele>426.6</ele><time>2026-04-18T09:21:39.219Z</time></trkpt><trkpt lat="43.5047222" lon="11.3775589"><ele>428.40000000000003</ele><time>2026-04-18T09:21:40.219Z</time></trkpt><trkpt lat="43.5046686" lon="11.3776779"><ele>430.20000000000005</ele><time>2026-04-18T09:21:41.219Z</time></trkpt><trkpt lat="43.5046233" lon="11.3777619"><ele>432.0</ele><time>2026-04-18T09:21:42.219Z</time></trkpt><trkpt lat="43.5045561" lon="11.3778448"><ele>432.0</ele><time>2026-04-18T09:21:44.219Z</time></trkpt><trkpt lat="43.5044873" lon="11.3779183"><ele>432.0</ele><time>2026-04-18T09:21:49.219Z</time></trkpt><trkpt lat="43.5044394" lon="11.3780387"><ele>432.0</ele><time>2026-04-18T09:21:51.221Z</time></trkpt><trkpt lat="43.5044377" lon="11.3781907"><ele>432.0</ele><time>2026-04-18T09:21:53.218Z</time></trkpt><trkpt lat="43.5044378" lon="11.3783068"><ele>432.0</ele><time>2026-04-18T09:21:55.22Z</time></trkpt><trkpt lat="43.5044424" lon="11.3783937"><ele>432.0</ele><time>2026-04-18T09:21:59.177Z</time></trkpt><trkpt lat="43.5044838" lon="11.3784758"><ele>432.1666666666667</ele><time>2026-04-18T09:22:01.218Z</time></trkpt><trkpt lat="43.5045054" lon="11.3785654"><ele>432.33333333333337</ele><time>2026-04-18T09:22:03.171Z</time></trkpt><trkpt lat="43.5045023" lon="11.3786535"><ele>432.5</ele><time>2026-04-18T09:22:04.219Z</time></trkpt><trkpt lat="43.5045089" lon="11.3787481"><ele>432.6666666666667</ele><time>2026-04-18T09:22:05.22Z</time></trkpt><trkpt lat="43.5045375" lon="11.3788909"><ele>432.83333333333337</ele><time>2026-04-18T09:22:07.219Z</time></trkpt><trkpt lat="43.504546" lon="11.3790762"><ele>433.0</ele><time>2026-04-18T09:22:09.218Z</time></trkpt><trkpt lat="43.5045393" lon="11.3791819"><ele>431.83333333333337</ele><time>2026-04-18T09:22:10.22Z</time></trkpt><trkpt lat="43.5045295" lon="11.3792904"><ele>430.6666666666667</ele><time>2026-04-18T09:22:11.22Z</time></trkpt><trkpt lat="43.5045241" lon="11.3794121"><ele>429.5</ele><time>2026-04-18T09:22:12.22Z</time></trkpt><trkpt lat="43.5045165" lon="11.3795262"><ele>428.33333333333337</ele><time>2026-04-18T09:22:13.22Z</time></trkpt><trkpt lat="43.5045127" lon="11.3796323"><ele>427.1666666666667</ele><time>2026-04-18T09:22:14.219Z</time></trkpt><trkpt lat="43.5045096" lon="11.379741"><ele>426.0</ele><time>2026-04-18T09:22:15.22Z</time></trkpt><trkpt lat="43.5045035" lon="11.3798627"><ele>425.3333333333333</ele><time>2026-04-18T09:22:16.22Z</time></trkpt><trkpt lat="43.5044941" lon="11.379981"><ele>424.66666666666663</ele><time>2026-04-18T09:22:17.218Z</time></trkpt><trkpt lat="43.5044815" lon="11.3800957"><ele>424.0</ele><time>2026-04-18T09:22:18.22Z</time></trkpt><trkpt lat="43.5044697" lon="11.3802039"><ele>423.3333333333333</ele><time>2026-04-18T09:22:19.22Z</time></trkpt><trkpt lat="43.5044596" lon="11.3803026"><ele>422.66666666666663</ele><time>2026-04-18T09:22:20.22Z</time></trkpt><trkpt lat="43.5044437" lon="11.380406"><ele>422.0</ele><time>2026-04-18T09:22:21.22Z</time></trkpt><trkpt lat="43.504432" lon="11.3805046"><ele>420.99999999999994</ele><time>2026-04-18T09:22:22.219Z</time></trkpt><trkpt lat="43.5044202" lon="11.3806086"><ele>420.0</ele><time>2026-04-18T09:22:23.22Z</time></trkpt><trkpt lat="43.5044041" lon="11.3807172"><ele>419.0</ele><time>2026-04-18T09:22:24.219Z</time></trkpt><trkpt lat="43.5043868" lon="11.3808296"><ele>418.0</ele><time>2026-04-18T09:22:25.22Z</time></trkpt><trkpt lat="43.5043754" lon="11.3809489"><ele>416.99999999999994</ele><time>2026-04-18T09:22:26.218Z</time></trkpt><trkpt lat="43.5043665" lon="11.3810744"><ele>416.0</ele><time>2026-04-18T09:22:27.22Z</time></trkpt><trkpt lat="43.5043517" lon="11.3811999"><ele>416.0</ele><time>2026-04-18T09:22:28.219Z</time></trkpt><trkpt lat="43.5043416" lon="11.3813262"><ele>416.0</ele><time>2026-04-18T09:22:29.22Z</time></trkpt><trkpt lat="43.5043297" lon="11.3814539"><ele>416.0</ele><time>2026-04-18T09:22:30.219Z</time></trkpt><trkpt lat="43.5043085" lon="11.3815799"><ele>416.0</ele><time>2026-04-18T09:22:31.219Z</time></trkpt><trkpt lat="43.5042821" lon="11.3816967"><ele>416.0</ele><time>2026-04-18T09:22:32.22Z</time></trkpt><trkpt lat="43.5042384" lon="11.3818082"><ele>414.4</ele><time>2026-04-18T09:22:33.219Z</time></trkpt><trkpt lat="43.5041925" lon="11.3819203"><ele>412.8</ele><time>2026-04-18T09:22:34.218Z</time></trkpt><trkpt lat="43.5041453" lon="11.3820318"><ele>411.2</ele><time>2026-04-18T09:22:35.218Z</time></trkpt><trkpt lat="43.5041001" lon="11.3821408"><ele>409.59999999999997</ele><time>2026-04-18T09:22:36.219Z</time></trkpt><trkpt lat="43.5040588" lon="11.3822519"><ele>408.0</ele><time>2026-04-18T09:22:37.22Z</time></trkpt><trkpt lat="43.5040283" lon="11.3823565"><ele>406.1666666666667</ele><time>2026-04-18T09:22:38.22Z</time></trkpt><trkpt lat="43.5040041" lon="11.3824664"><ele>404.33333333333337</ele><time>2026-04-18T09:22:39.221Z</time></trkpt><trkpt lat="43.503991" lon="11.3825681"><ele>402.5</ele><time>2026-04-18T09:22:40.22Z</time></trkpt><trkpt lat="43.5039762" lon="11.3826728"><ele>400.6666666666667</ele><time>2026-04-18T09:22:41.218Z</time></trkpt><trkpt lat="43.5039689" lon="11.382766"><ele>398.83333333333337</ele><time>2026-04-18T09:22:42.219Z</time></trkpt><trkpt lat="43.5039527" lon="11.3828591"><ele>397.0</ele><time>2026-04-18T09:22:43.218Z</time></trkpt><trkpt lat="43.5039501" lon="11.3829746"><ele>396.6666666666667</ele><time>2026-04-18T09:22:44.22Z</time></trkpt><trkpt lat="43.503933" lon="11.3830695"><ele>396.33333333333337</ele><time>2026-04-18T09:22:45.218Z</time></trkpt><trkpt lat="43.5039035" lon="11.3831652"><ele>396.0</ele><time>2026-04-18T09:22:46.22Z</time></trkpt><trkpt lat="43.5038646" lon="11.3832638"><ele>395.66666666666663</ele><time>2026-04-18T09:22:47.22Z</time></trkpt><trkpt lat="43.503835" lon="11.3833592"><ele>395.3333333333333</ele><time>2026-04-18T09:22:48.22Z</time></trkpt><trkpt lat="43.5037973" lon="11.3834586"><ele>395.0</ele><time>2026-04-18T09:22:49.22Z</time></trkpt><trkpt lat="43.5037614" lon="11.3835496"><ele>393.85714285714283</ele><time>2026-04-18T09:22:50.219Z</time></trkpt><trkpt lat="43.503727" lon="11.3836381"><ele>392.7142857142857</ele><time>2026-04-18T09:22:51.219Z</time></trkpt><trkpt lat="43.5036966" lon="11.3837183"><ele>391.57142857142856</ele><time>2026-04-18T09:22:52.219Z</time></trkpt><trkpt lat="43.5036523" lon="11.3837918"><ele>390.42857142857144</ele><time>2026-04-18T09:22:53.22Z</time></trkpt><trkpt lat="43.5035853" lon="11.3838819"><ele>389.28571428571433</ele><time>2026-04-18T09:22:55.22Z</time></trkpt><trkpt lat="43.5035231" lon="11.3839386"><ele>388.14285714285717</ele><time>2026-04-18T09:23:13.218Z</time></trkpt><trkpt lat="43.5034638" lon="11.3839741"><ele>387.0</ele><time>2026-04-18T09:23:15.219Z</time></trkpt><trkpt lat="43.5033918" lon="11.383989"><ele>387.0</ele><time>2026-04-18T09:23:17.22Z</time></trkpt><trkpt lat="43.5033233" lon="11.3840149"><ele>387.0</ele><time>2026-04-18T09:23:19.22Z</time></trkpt><trkpt lat="43.5032643" lon="11.384095"><ele>387.0</ele><time>2026-04-18T09:23:21.219Z</time></trkpt><trkpt lat="43.5032445" lon="11.3842002"><ele>387.0</ele><time>2026-04-18T09:23:23.22Z</time></trkpt><trkpt lat="43.5032286" lon="11.3842894"><ele>387.0</ele><time>2026-04-18T09:23:25.219Z</time></trkpt><trkpt lat="43.5031994" lon="11.3843995"><ele>387.0</ele><time>2026-04-18T09:23:28.22Z</time></trkpt><trkpt lat="43.5031627" lon="11.3845102"><ele>387.0</ele><time>2026-04-18T09:23:31.219Z</time></trkpt><trkpt lat="43.5031995" lon="11.3845866"><ele>387.0</ele><time>2026-04-18T09:23:34.219Z</time></trkpt><trkpt lat="43.5032783" lon="11.3845886"><ele>387.0</ele><time>2026-04-18T09:23:36.219Z</time></trkpt><trkpt lat="43.5033687" lon="11.384585"><ele>387.0</ele><time>2026-04-18T09:23:38.219Z</time></trkpt><trkpt lat="43.5034773" lon="11.3845958"><ele>387.0</ele><time>2026-04-18T09:23:40.219Z</time></trkpt><trkpt lat="43.5035986" lon="11.3845987"><ele>387.0</ele><time>2026-04-18T09:23:42.219Z</time></trkpt><trkpt lat="43.5036613" lon="11.3846132"><ele>387.0</ele><time>2026-04-18T09:23:43.219Z</time></trkpt><trkpt lat="43.5037688" lon="11.3846021"><ele>387.0</ele><time>2026-04-18T09:23:45.219Z</time></trkpt><trkpt lat="43.5038605" lon="11.3845505"><ele>387.0</ele><time>2026-04-18T09:23:47.218Z</time></trkpt><trkpt lat="43.5039584" lon="11.384584"><ele>387.0</ele><time>2026-04-18T09:23:49.22Z</time></trkpt><trkpt lat="43.5040792" lon="11.3846263"><ele>389.0</ele><time>2026-04-18T09:23:51.219Z</time></trkpt><trkpt lat="43.5041431" lon="11.3846433"><ele>391.0</ele><time>2026-04-18T09:23:52.218Z</time></trkpt><trkpt lat="43.5042615" lon="11.3846609"><ele>393.0</ele><time>2026-04-18T09:23:54.22Z</time></trkpt><trkpt lat="43.504378" lon="11.3846599"><ele>395.0</ele><time>2026-04-18T09:23:56.22Z</time></trkpt><trkpt lat="43.5044459" lon="11.3846515"><ele>397.0</ele><time>2026-04-18T09:23:57.218Z</time></trkpt><trkpt lat="43.5045155" lon="11.3846432"><ele>399.0</ele><time>2026-04-18T09:23:58.22Z</time></trkpt><trkpt lat="43.504605" lon="11.3846508"><ele>402.0</ele><time>2026-04-18T09:24:00.219Z</time></trkpt><trkpt lat="43.5046838" lon="11.3846562"><ele>405.0</ele><time>2026-04-18T09:24:02.219Z</time></trkpt><trkpt lat="43.50472" lon="11.3845796"><ele>408.0</ele><time>2026-04-18T09:24:06.22Z</time></trkpt><trkpt lat="43.5047411" lon="11.3844581"><ele>411.0</ele><time>2026-04-18T09:24:14.219Z</time></trkpt><trkpt lat="43.5047698" lon="11.3843476"><ele>414.0</ele><time>2026-04-18T09:24:17.219Z</time></trkpt><trkpt lat="43.5047547" lon="11.3844436"><ele>417.0</ele><time>2026-04-18T09:24:23.218Z</time></trkpt><trkpt lat="43.504729" lon="11.3845273"><ele>417.0</ele><time>2026-04-18T09:24:25.221Z</time></trkpt><trkpt lat="43.5047061" lon="11.3846311"><ele>417.0</ele><time>2026-04-18T09:24:27.219Z</time></trkpt><trkpt lat="43.5046346" lon="11.3846531"><ele>417.0</ele><time>2026-04-18T09:24:29.219Z</time></trkpt><trkpt lat="43.5045397" lon="11.3846537"><ele>417.0</ele><time>2026-04-18T09:24:31.219Z</time></trkpt><trkpt lat="43.5044538" lon="11.3846647"><ele>417.0</ele><time>2026-04-18T09:24:33.218Z</time></trkpt><trkpt lat="43.5043701" lon="11.3846664"><ele>417.0</ele><time>2026-04-18T09:24:35.22Z</time></trkpt><trkpt lat="43.5042837" lon="11.384676"><ele>413.40000000000003</ele><time>2026-04-18T09:24:37.219Z</time></trkpt><trkpt lat="43.504192" lon="11.384667"><ele>409.8</ele><time>2026-04-18T09:24:39.219Z</time></trkpt><trkpt lat="43.504095" lon="11.3846336"><ele>406.2</ele><time>2026-04-18T09:24:41.219Z</time></trkpt><trkpt lat="43.5039987" lon="11.3846052"><ele>402.6</ele><time>2026-04-18T09:24:43.219Z</time></trkpt><trkpt lat="43.5039279" lon="11.3845737"><ele>399.0</ele><time>2026-04-18T09:24:45.219Z</time></trkpt><trkpt lat="43.5038368" lon="11.3845601"><ele>399.0</ele><time>2026-04-18T09:24:48.219Z</time></trkpt><trkpt lat="43.5037767" lon="11.3846097"><ele>399.0</ele><time>2026-04-18T09:24:51.22Z</time></trkpt><trkpt lat="43.5037119" lon="11.3846336"><ele>399.0</ele><time>2026-04-18T09:24:53.22Z</time></trkpt><trkpt lat="43.5036237" lon="11.3846147"><ele>399.0</ele><time>2026-04-18T09:24:55.219Z</time></trkpt><trkpt lat="43.5035587" lon="11.3846668"><ele>399.0</ele><time>2026-04-18T09:24:58.219Z</time></trkpt><trkpt lat="43.5035286" lon="11.384759"><ele>399.0</ele><time>2026-04-18T09:25:00.219Z</time></trkpt><trkpt lat="43.503498" lon="11.3848597"><ele>396.6666666666667</ele><time>2026-04-18T09:25:02.219Z</time></trkpt><trkpt lat="43.5034647" lon="11.3849597"><ele>394.33333333333337</ele><time>2026-04-18T09:25:04.219Z</time></trkpt><trkpt lat="43.50344" lon="11.3850688"><ele>392.0</ele><time>2026-04-18T09:25:06.22Z</time></trkpt><trkpt lat="43.5034099" lon="11.3851831"><ele>389.6666666666667</ele><time>2026-04-18T09:25:08.219Z</time></trkpt><trkpt lat="43.5033757" lon="11.385302"><ele>387.33333333333337</ele><time>2026-04-18T09:25:10.218Z</time></trkpt><trkpt lat="43.5033393" lon="11.3854256"><ele>385.0</ele><time>2026-04-18T09:25:12.22Z</time></trkpt><trkpt lat="43.5032984" lon="11.3855534"><ele>384.00000000000006</ele><time>2026-04-18T09:25:14.219Z</time></trkpt><trkpt lat="43.5032762" lon="11.3856955"><ele>383.0</ele><time>2026-04-18T09:25:16.218Z</time></trkpt><trkpt lat="43.503243" lon="11.3858258"><ele>382.0</ele><time>2026-04-18T09:25:18.218Z</time></trkpt><trkpt lat="43.5032297" lon="11.3859121"><ele>381.0</ele><time>2026-04-18T09:25:20.218Z</time></trkpt><trkpt lat="43.5032232" lon="11.3860194"><ele>380.0</ele><time>2026-04-18T09:25:24.219Z</time></trkpt><trkpt lat="43.5032414" lon="11.3861136"><ele>379.0</ele><time>2026-04-18T09:25:26.219Z</time></trkpt><trkpt lat="43.5033008" lon="11.3862243"><ele>379.0</ele><time>2026-04-18T09:25:28.219Z</time></trkpt><trkpt lat="43.5033615" lon="11.3863181"><ele>379.0</ele><time>2026-04-18T09:25:30.219Z</time></trkpt><trkpt lat="43.5034241" lon="11.3863604"><ele>379.0</ele><time>2026-04-18T09:25:32.219Z</time></trkpt><trkpt lat="43.5034947" lon="11.3864076"><ele>379.0</ele><time>2026-04-18T09:25:34.219Z</time></trkpt><trkpt lat="43.503561" lon="11.3864581"><ele>379.0</ele><time>2026-04-18T09:25:36.218Z</time></trkpt><trkpt lat="43.5036292" lon="11.3865169"><ele>379.0</ele><time>2026-04-18T09:25:38.219Z</time></trkpt><trkpt lat="43.5036945" lon="11.3865773"><ele>379.5714285714286</ele><time>2026-04-18T09:25:40.219Z</time></trkpt><trkpt lat="43.5037753" lon="11.3866287"><ele>380.14285714285717</ele><time>2026-04-18T09:25:42.218Z</time></trkpt><trkpt lat="43.5038336" lon="11.3866818"><ele>380.7142857142857</ele><time>2026-04-18T09:25:44.219Z</time></trkpt><trkpt lat="43.5038936" lon="11.3867684"><ele>381.28571428571433</ele><time>2026-04-18T09:25:47.22Z</time></trkpt><trkpt lat="43.5039405" lon="11.3868394"><ele>381.85714285714283</ele><time>2026-04-18T09:25:50.219Z</time></trkpt><trkpt lat="43.5039991" lon="11.3868743"><ele>382.42857142857144</ele><time>2026-04-18T09:26:02.218Z</time></trkpt><trkpt lat="43.5040624" lon="11.3868572"><ele>383.0</ele><time>2026-04-18T09:26:13.218Z</time></trkpt><trkpt lat="43.5041302" lon="11.3868534"><ele>383.0</ele><time>2026-04-18T09:26:17.22Z</time></trkpt><trkpt lat="43.5042041" lon="11.3868445"><ele>383.0</ele><time>2026-04-18T09:26:20.218Z</time></trkpt><trkpt lat="43.5041401" lon="11.3868513"><ele>383.0</ele><time>2026-04-18T09:27:35.218Z</time></trkpt><trkpt lat="43.5040717" lon="11.3868562"><ele>383.0</ele><time>2026-04-18T09:27:40.218Z</time></trkpt><trkpt lat="43.5039885" lon="11.3868661"><ele>383.0</ele><time>2026-04-18T09:27:44.219Z</time></trkpt><trkpt lat="43.5039371" lon="11.3869347"><ele>383.0</ele><time>2026-04-18T09:27:47.218Z</time></trkpt><trkpt lat="43.503976" lon="11.3870223"><ele>383.0</ele><time>2026-04-18T09:27:50.219Z</time></trkpt><trkpt lat="43.5040612" lon="11.3870611"><ele>383.0</ele><time>2026-04-18T09:27:53.218Z</time></trkpt><trkpt lat="43.5041478" lon="11.3870933"><ele>383.0</ele><time>2026-04-18T09:27:55.218Z</time></trkpt><trkpt lat="43.5042223" lon="11.3871289"><ele>383.0</ele><time>2026-04-18T09:27:57.219Z</time></trkpt><trkpt lat="43.5043164" lon="11.3871834"><ele>383.0</ele><time>2026-04-18T09:27:59.218Z</time></trkpt><trkpt lat="43.5044073" lon="11.3872436"><ele>383.0</ele><time>2026-04-18T09:28:01.219Z</time></trkpt><trkpt lat="43.5045113" lon="11.3872929"><ele>382.59999999999997</ele><time>2026-04-18T09:28:03.22Z</time></trkpt><trkpt lat="43.5046307" lon="11.3873192"><ele>382.2</ele><time>2026-04-18T09:28:05.219Z</time></trkpt><trkpt lat="43.5047339" lon="11.3873586"><ele>381.8</ele><time>2026-04-18T09:28:07.219Z</time></trkpt><trkpt lat="43.5048322" lon="11.3873899"><ele>381.4</ele><time>2026-04-18T09:28:09.219Z</time></trkpt><trkpt lat="43.5049027" lon="11.3873751"><ele>381.0</ele><time>2026-04-18T09:28:11.219Z</time></trkpt><trkpt lat="43.5049026" lon="11.3872867"><ele>384.20000000000005</ele><time>2026-04-18T09:28:14.219Z</time></trkpt><trkpt lat="43.5048803" lon="11.3871705"><ele>387.40000000000003</ele><time>2026-04-18T09:28:17.219Z</time></trkpt><trkpt lat="43.5049366" lon="11.3871279"><ele>390.6</ele><time>2026-04-18T09:28:19.219Z</time></trkpt><trkpt lat="43.5050401" lon="11.3871268"><ele>393.8</ele><time>2026-04-18T09:28:21.219Z</time></trkpt><trkpt lat="43.5051435" lon="11.3871113"><ele>397.0</ele><time>2026-04-18T09:28:23.219Z</time></trkpt><trkpt lat="43.5052609" lon="11.3870238"><ele>397.0</ele><time>2026-04-18T09:28:25.219Z</time></trkpt><trkpt lat="43.5053727" lon="11.386991"><ele>397.0</ele><time>2026-04-18T09:28:27.218Z</time></trkpt><trkpt lat="43.5054743" lon="11.3870068"><ele>397.0</ele><time>2026-04-18T09:28:29.219Z</time></trkpt><trkpt lat="43.5055594" lon="11.3870429"><ele>397.0</ele><time>2026-04-18T09:28:31.219Z</time></trkpt><trkpt lat="43.5056371" lon="11.3870726"><ele>397.0</ele><time>2026-04-18T09:28:33.219Z</time></trkpt><trkpt lat="43.5057309" lon="11.3870864"><ele>398.00000000000006</ele><time>2026-04-18T09:28:35.219Z</time></trkpt><trkpt lat="43.5058404" lon="11.3870857"><ele>399.0</ele><time>2026-04-18T09:28:37.219Z</time></trkpt><trkpt lat="43.5058967" lon="11.3871269"><ele>400.0</ele><time>2026-04-18T09:28:39.219Z</time></trkpt><trkpt lat="43.5059148" lon="11.3872139"><ele>401.0</ele><time>2026-04-18T09:28:41.219Z</time></trkpt><trkpt lat="43.5059569" lon="11.3872846"><ele>402.00000000000006</ele><time>2026-04-18T09:28:43.22Z</time></trkpt><trkpt lat="43.5060159" lon="11.3873549"><ele>403.0</ele><time>2026-04-18T09:28:45.219Z</time></trkpt><trkpt lat="43.5060788" lon="11.387451"><ele>399.50000000000006</ele><time>2026-04-18T09:28:47.217Z</time></trkpt><trkpt lat="43.5061281" lon="11.3875116"><ele>396.0</ele><time>2026-04-18T09:28:49.218Z</time></trkpt><trkpt lat="43.5061745" lon="11.3875755"><ele>392.5</ele><time>2026-04-18T09:28:51.219Z</time></trkpt><trkpt lat="43.5061955" lon="11.3876603"><ele>389.0</ele><time>2026-04-18T09:28:55.219Z</time></trkpt><trkpt lat="43.5060924" lon="11.3876369"><ele>385.5</ele><time>2026-04-18T09:28:58.218Z</time></trkpt><trkpt lat="43.5060048" lon="11.387627"><ele>382.0</ele><time>2026-04-18T09:29:00.219Z</time></trkpt><trkpt lat="43.5059193" lon="11.3876329"><ele>382.0</ele><time>2026-04-18T09:29:02.219Z</time></trkpt><trkpt lat="43.5058001" lon="11.3876842"><ele>382.0</ele><time>2026-04-18T09:29:04.218Z</time></trkpt><trkpt lat="43.505728" lon="11.3877245"><ele>382.0</ele><time>2026-04-18T09:29:05.218Z</time></trkpt><trkpt lat="43.5056509" lon="11.3877678"><ele>382.0</ele><time>2026-04-18T09:29:06.218Z</time></trkpt><trkpt lat="43.505589" lon="11.3878074"><ele>382.0</ele><time>2026-04-18T09:29:07.217Z</time></trkpt><trkpt lat="43.5055262" lon="11.3878535"><ele>382.0</ele><time>2026-04-18T09:29:08.219Z</time></trkpt><trkpt lat="43.5054617" lon="11.3879026"><ele>381.8333333333333</ele><time>2026-04-18T09:29:09.219Z</time></trkpt><trkpt lat="43.505396" lon="11.3879192"><ele>381.66666666666663</ele><time>2026-04-18T09:29:10.219Z</time></trkpt><trkpt lat="43.5053258" lon="11.3879305"><ele>381.5</ele><time>2026-04-18T09:29:11.218Z</time></trkpt><trkpt lat="43.5052394" lon="11.3879299"><ele>381.3333333333333</ele><time>2026-04-18T09:29:12.22Z</time></trkpt><trkpt lat="43.5051677" lon="11.3879257"><ele>381.1666666666667</ele><time>2026-04-18T09:29:13.218Z</time></trkpt><trkpt lat="43.5050887" lon="11.3879184"><ele>381.0</ele><time>2026-04-18T09:29:14.219Z</time></trkpt><trkpt lat="43.5050056" lon="11.3879241"><ele>381.0</ele><time>2026-04-18T09:29:15.219Z</time></trkpt><trkpt lat="43.504936" lon="11.3879561"><ele>381.0</ele><time>2026-04-18T09:29:16.218Z</time></trkpt><trkpt lat="43.5048646" lon="11.3880156"><ele>381.0</ele><time>2026-04-18T09:29:17.219Z</time></trkpt><trkpt lat="43.5047853" lon="11.3881095"><ele>381.0</ele><time>2026-04-18T09:29:18.219Z</time></trkpt><trkpt lat="43.5047013" lon="11.388218"><ele>381.0</ele><time>2026-04-18T09:29:19.219Z</time></trkpt><trkpt lat="43.5046146" lon="11.3883072"><ele>380.4</ele><time>2026-04-18T09:29:20.218Z</time></trkpt><trkpt lat="43.5045326" lon="11.3884032"><ele>379.8</ele><time>2026-04-18T09:29:21.219Z</time></trkpt><trkpt lat="43.5044516" lon="11.38849"><ele>379.2</ele><time>2026-04-18T09:29:22.219Z</time></trkpt><trkpt lat="43.5043476" lon="11.3885508"><ele>378.59999999999997</ele><time>2026-04-18T09:29:24.219Z</time></trkpt><trkpt lat="43.5042416" lon="11.388547"><ele>378.0</ele><time>2026-04-18T09:29:26.219Z</time></trkpt><trkpt lat="43.5041758" lon="11.3885093"><ele>378.0</ele><time>2026-04-18T09:29:27.217Z</time></trkpt><trkpt lat="43.504053" lon="11.3885323"><ele>378.0</ele><time>2026-04-18T09:29:29.219Z</time></trkpt><trkpt lat="43.5039824" lon="11.3885842"><ele>378.0</ele><time>2026-04-18T09:29:30.219Z</time></trkpt><trkpt lat="43.5039302" lon="11.3886542"><ele>378.0</ele><time>2026-04-18T09:29:31.219Z</time></trkpt><trkpt lat="43.5038988" lon="11.3887346"><ele>378.0</ele><time>2026-04-18T09:29:32.218Z</time></trkpt><trkpt lat="43.5038662" lon="11.388822"><ele>378.0</ele><time>2026-04-18T09:29:33.217Z</time></trkpt><trkpt lat="43.5037879" lon="11.3889088"><ele>381.2</ele><time>2026-04-18T09:29:35.219Z</time></trkpt><trkpt lat="43.5036679" lon="11.388905"><ele>384.4</ele><time>2026-04-18T09:29:37.218Z</time></trkpt><trkpt lat="43.5035548" lon="11.3889443"><ele>387.59999999999997</ele><time>2026-04-18T09:29:39.219Z</time></trkpt><trkpt lat="43.5034761" lon="11.3890888"><ele>390.79999999999995</ele><time>2026-04-18T09:29:41.219Z</time></trkpt><trkpt lat="43.5034489" lon="11.3891833"><ele>394.0</ele><time>2026-04-18T09:29:42.219Z</time></trkpt><trkpt lat="43.5034208" lon="11.3892767"><ele>394.00000000000006</ele><time>2026-04-18T09:29:43.218Z</time></trkpt><trkpt lat="43.5033815" lon="11.3893689"><ele>394.0</ele><time>2026-04-18T09:29:44.218Z</time></trkpt><trkpt lat="43.5033353" lon="11.3894706"><ele>394.0</ele><time>2026-04-18T09:29:45.218Z</time></trkpt><trkpt lat="43.5032966" lon="11.389583"><ele>394.0</ele><time>2026-04-18T09:29:46.218Z</time></trkpt><trkpt lat="43.5032604" lon="11.3896864"><ele>394.00000000000006</ele><time>2026-04-18T09:29:47.218Z</time></trkpt><trkpt lat="43.503217" lon="11.3897595"><ele>394.0</ele><time>2026-04-18T09:29:48.217Z</time></trkpt><trkpt lat="43.5031413" lon="11.3898315"><ele>396.00000000000006</ele><time>2026-04-18T09:29:49.219Z</time></trkpt><trkpt lat="43.5030811" lon="11.3899021"><ele>398.0</ele><time>2026-04-18T09:29:50.218Z</time></trkpt><trkpt lat="43.5030263" lon="11.3899969"><ele>400.0</ele><time>2026-04-18T09:29:51.219Z</time></trkpt><trkpt lat="43.5029833" lon="11.3901013"><ele>402.0</ele><time>2026-04-18T09:29:52.218Z</time></trkpt><trkpt lat="43.5029485" lon="11.3901983"><ele>404.00000000000006</ele><time>2026-04-18T09:29:53.217Z</time></trkpt><trkpt lat="43.5029309" lon="11.3902917"><ele>406.0</ele><time>2026-04-18T09:29:54.219Z</time></trkpt><trkpt lat="43.5029388" lon="11.3903853"><ele>406.0</ele><time>2026-04-18T09:29:55.217Z</time></trkpt><trkpt lat="43.5029545" lon="11.3904726"><ele>406.0</ele><time>2026-04-18T09:29:56.219Z</time></trkpt><trkpt lat="43.5029705" lon="11.3905591"><ele>406.0</ele><time>2026-04-18T09:29:57.217Z</time></trkpt><trkpt lat="43.5029879" lon="11.3906504"><ele>406.0</ele><time>2026-04-18T09:29:58.219Z</time></trkpt><trkpt lat="43.503003" lon="11.3907532"><ele>406.0</ele><time>2026-04-18T09:29:59.218Z</time></trkpt><trkpt lat="43.5030156" lon="11.390854"><ele>406.0</ele><time>2026-04-18T09:30:00.218Z</time></trkpt><trkpt lat="43.5030244" lon="11.3909476"><ele>406.0</ele><time>2026-04-18T09:30:01.219Z</time></trkpt><trkpt lat="43.5030281" lon="11.3910693"><ele>406.1666666666667</ele><time>2026-04-18T09:30:02.219Z</time></trkpt><trkpt lat="43.5030238" lon="11.3911897"><ele>406.33333333333337</ele><time>2026-04-18T09:30:03.218Z</time></trkpt><trkpt lat="43.5030163" lon="11.3913007"><ele>406.5</ele><time>2026-04-18T09:30:04.218Z</time></trkpt><trkpt lat="43.5029983" lon="11.3914024"><ele>406.66666666666663</ele><time>2026-04-18T09:30:05.217Z</time></trkpt><trkpt lat="43.5029707" lon="11.3914971"><ele>406.8333333333333</ele><time>2026-04-18T09:30:06.219Z</time></trkpt><trkpt lat="43.5029316" lon="11.3915868"><ele>407.0</ele><time>2026-04-18T09:30:07.219Z</time></trkpt><trkpt lat="43.5028915" lon="11.3916678"><ele>405.7142857142857</ele><time>2026-04-18T09:30:08.217Z</time></trkpt><trkpt lat="43.502844" lon="11.3917435"><ele>404.42857142857144</ele><time>2026-04-18T09:30:09.219Z</time></trkpt><trkpt lat="43.5027973" lon="11.3918205"><ele>403.1428571428571</ele><time>2026-04-18T09:30:10.219Z</time></trkpt><trkpt lat="43.502754" lon="11.391903"><ele>401.8571428571429</ele><time>2026-04-18T09:30:11.219Z</time></trkpt><trkpt lat="43.5027296" lon="11.3919972"><ele>400.57142857142856</ele><time>2026-04-18T09:30:12.218Z</time></trkpt><trkpt lat="43.502714" lon="11.3920956"><ele>399.2857142857143</ele><time>2026-04-18T09:30:13.219Z</time></trkpt><trkpt lat="43.5026983" lon="11.3921947"><ele>398.0</ele><time>2026-04-18T09:30:14.219Z</time></trkpt><trkpt lat="43.5026867" lon="11.3922985"><ele>396.66666666666663</ele><time>2026-04-18T09:30:15.219Z</time></trkpt><trkpt lat="43.5026834" lon="11.3923987"><ele>395.3333333333333</ele><time>2026-04-18T09:30:16.219Z</time></trkpt><trkpt lat="43.5026855" lon="11.3925085"><ele>394.0</ele><time>2026-04-18T09:30:17.219Z</time></trkpt><trkpt lat="43.5026804" lon="11.3926159"><ele>392.66666666666663</ele><time>2026-04-18T09:30:18.219Z</time></trkpt><trkpt lat="43.5026702" lon="11.3927191"><ele>391.3333333333333</ele><time>2026-04-18T09:30:19.219Z</time></trkpt><trkpt lat="43.5026553" lon="11.3928166"><ele>390.0</ele><time>2026-04-18T09:30:20.217Z</time></trkpt><trkpt lat="43.5026368" lon="11.3929165"><ele>388.5</ele><time>2026-04-18T09:30:21.218Z</time></trkpt><trkpt lat="43.5026155" lon="11.3930212"><ele>387.0</ele><time>2026-04-18T09:30:22.218Z</time></trkpt><trkpt lat="43.5025879" lon="11.3931177"><ele>385.5</ele><time>2026-04-18T09:30:23.219Z</time></trkpt><trkpt lat="43.5025539" lon="11.3932259"><ele>384.0</ele><time>2026-04-18T09:30:24.219Z</time></trkpt><trkpt lat="43.502514" lon="11.3933238"><ele>382.5</ele><time>2026-04-18T09:30:25.217Z</time></trkpt><trkpt lat="43.5024753" lon="11.3934258"><ele>381.0</ele><time>2026-04-18T09:30:26.218Z</time></trkpt><trkpt lat="43.5024434" lon="11.3935167"><ele>381.0</ele><time>2026-04-18T09:30:27.218Z</time></trkpt><trkpt lat="43.5023979" lon="11.3936221"><ele>381.0</ele><time>2026-04-18T09:30:28.218Z</time></trkpt><trkpt lat="43.5023539" lon="11.3937474"><ele>381.0</ele><time>2026-04-18T09:30:29.219Z</time></trkpt><trkpt lat="43.5023049" lon="11.3938788"><ele>381.0</ele><time>2026-04-18T09:30:30.219Z</time></trkpt><trkpt lat="43.5022527" lon="11.3940179"><ele>381.0</ele><time>2026-04-18T09:30:31.218Z</time></trkpt><trkpt lat="43.5022045" lon="11.3941608"><ele>380.0</ele><time>2026-04-18T09:30:32.218Z</time></trkpt><trkpt lat="43.502154" lon="11.3943013"><ele>379.0</ele><time>2026-04-18T09:30:33.218Z</time></trkpt><trkpt lat="43.5020943" lon="11.39444"><ele>378.0</ele><time>2026-04-18T09:30:34.219Z</time></trkpt><trkpt lat="43.5020314" lon="11.3945903"><ele>377.0</ele><time>2026-04-18T09:30:35.219Z</time></trkpt><trkpt lat="43.5019715" lon="11.3947459"><ele>376.0</ele><time>2026-04-18T09:30:36.218Z</time></trkpt><trkpt lat="43.5019045" lon="11.3949077"><ele>375.0</ele><time>2026-04-18T09:30:37.218Z</time></trkpt><trkpt lat="43.501844" lon="11.3950754"><ele>374.0</ele><time>2026-04-18T09:30:38.219Z</time></trkpt><trkpt lat="43.5017876" lon="11.3952279"><ele>373.0</ele><time>2026-04-18T09:30:39.219Z</time></trkpt><trkpt lat="43.5017338" lon="11.3953662"><ele>373.0</ele><time>2026-04-18T09:30:40.219Z</time></trkpt><trkpt lat="43.5016849" lon="11.3954888"><ele>373.0</ele><time>2026-04-18T09:30:41.219Z</time></trkpt><trkpt lat="43.5016492" lon="11.3955858"><ele>373.0</ele><time>2026-04-18T09:30:42.218Z</time></trkpt><trkpt lat="43.501606" lon="11.3956508"><ele>373.0</ele><time>2026-04-18T09:30:44.219Z</time></trkpt><trkpt lat="43.5015615" lon="11.3957475"><ele>373.0</ele><time>2026-04-18T09:30:56.218Z</time></trkpt><trkpt lat="43.5015192" lon="11.3958464"><ele>373.0</ele><time>2026-04-18T09:30:58.218Z</time></trkpt><trkpt lat="43.5014435" lon="11.3958945"><ele>373.59999999999997</ele><time>2026-04-18T09:31:00.218Z</time></trkpt><trkpt lat="43.5013776" lon="11.3959251"><ele>374.2</ele><time>2026-04-18T09:31:02.217Z</time></trkpt><trkpt lat="43.5013155" lon="11.3959754"><ele>374.8</ele><time>2026-04-18T09:31:04.218Z</time></trkpt><trkpt lat="43.501214" lon="11.3961012"><ele>375.4</ele><time>2026-04-18T09:31:06.217Z</time></trkpt><trkpt lat="43.5011517" lon="11.3961897"><ele>376.0</ele><time>2026-04-18T09:31:07.218Z</time></trkpt><trkpt lat="43.5010914" lon="11.3962944"><ele>377.5</ele><time>2026-04-18T09:31:08.218Z</time></trkpt><trkpt lat="43.5010327" lon="11.3964253"><ele>379.0</ele><time>2026-04-18T09:31:09.219Z</time></trkpt><trkpt lat="43.5009694" lon="11.3965714"><ele>380.5</ele><time>2026-04-18T09:31:10.218Z</time></trkpt><trkpt lat="43.5009207" lon="11.3967326"><ele>382.0</ele><time>2026-04-18T09:31:11.218Z</time></trkpt><trkpt lat="43.5008897" lon="11.3968994"><ele>382.0</ele><time>2026-04-18T09:31:12.218Z</time></trkpt><trkpt lat="43.5008874" lon="11.3970819"><ele>382.0</ele><time>2026-04-18T09:31:13.219Z</time></trkpt><trkpt lat="43.5009055" lon="11.3972697"><ele>382.0</ele><time>2026-04-18T09:31:14.217Z</time></trkpt><trkpt lat="43.5009152" lon="11.3974674"><ele>382.0</ele><time>2026-04-18T09:31:15.218Z</time></trkpt><trkpt lat="43.5008998" lon="11.3976655"><ele>384.75</ele><time>2026-04-18T09:31:16.218Z</time></trkpt><trkpt lat="43.5008524" lon="11.39786"><ele>387.5</ele><time>2026-04-18T09:31:17.218Z</time></trkpt><trkpt lat="43.5007829" lon="11.3980439"><ele>390.25</ele><time>2026-04-18T09:31:18.219Z</time></trkpt><trkpt lat="43.5007127" lon="11.3982065"><ele>393.0</ele><time>2026-04-18T09:31:19.218Z</time></trkpt><trkpt lat="43.5006536" lon="11.3983455"><ele>394.4</ele><time>2026-04-18T09:31:20.218Z</time></trkpt><trkpt lat="43.5005942" lon="11.3984641"><ele>395.79999999999995</ele><time>2026-04-18T09:31:21.219Z</time></trkpt><trkpt lat="43.500549" lon="11.3985691"><ele>397.2</ele><time>2026-04-18T09:31:22.218Z</time></trkpt><trkpt lat="43.5005123" lon="11.3986683"><ele>398.6</ele><time>2026-04-18T09:31:23.217Z</time></trkpt><trkpt lat="43.5004877" lon="11.3987885"><ele>400.0</ele><time>2026-04-18T09:31:24.218Z</time></trkpt><trkpt lat="43.5004868" lon="11.3989239"><ele>400.8</ele><time>2026-04-18T09:31:25.219Z</time></trkpt><trkpt lat="43.5005063" lon="11.3990597"><ele>401.6</ele><time>2026-04-18T09:31:26.218Z</time></trkpt><trkpt lat="43.500525" lon="11.3992122"><ele>402.4</ele><time>2026-04-18T09:31:27.219Z</time></trkpt><trkpt lat="43.5005489" lon="11.3993642"><ele>403.2</ele><time>2026-04-18T09:31:28.218Z</time></trkpt><trkpt lat="43.5005658" lon="11.3995214"><ele>404.0</ele><time>2026-04-18T09:31:29.217Z</time></trkpt><trkpt lat="43.5005661" lon="11.3996592"><ele>403.79999999999995</ele><time>2026-04-18T09:31:30.218Z</time></trkpt><trkpt lat="43.5005382" lon="11.3998009"><ele>403.59999999999997</ele><time>2026-04-18T09:31:31.219Z</time></trkpt><trkpt lat="43.5004966" lon="11.3999369"><ele>403.4</ele><time>2026-04-18T09:31:32.219Z</time></trkpt><trkpt lat="43.5004233" lon="11.4000522"><ele>403.2</ele><time>2026-04-18T09:31:33.218Z</time></trkpt><trkpt lat="43.5003163" lon="11.4001263"><ele>403.0</ele><time>2026-04-18T09:31:34.218Z</time></trkpt><trkpt lat="43.5001787" lon="11.4001686"><ele>399.5</ele><time>2026-04-18T09:31:35.217Z</time></trkpt><trkpt lat="43.5000424" lon="11.4001943"><ele>396.0</ele><time>2026-04-18T09:31:36.218Z</time></trkpt><trkpt lat="43.4999034" lon="11.4002159"><ele>392.5</ele><time>2026-04-18T09:31:37.219Z</time></trkpt><trkpt lat="43.4997667" lon="11.400233"><ele>389.0</ele><time>2026-04-18T09:31:38.218Z</time></trkpt><trkpt lat="43.4996198" lon="11.4002554"><ele>387.25</ele><time>2026-04-18T09:31:39.218Z</time></trkpt><trkpt lat="43.4994693" lon="11.400279"><ele>385.5</ele><time>2026-04-18T09:31:40.219Z</time></trkpt><trkpt lat="43.4993257" lon="11.4003024"><ele>383.75</ele><time>2026-04-18T09:31:41.219Z</time></trkpt><trkpt lat="43.4991906" lon="11.4003311"><ele>382.0</ele><time>2026-04-18T09:31:42.217Z</time></trkpt><trkpt lat="43.499062" lon="11.4003619"><ele>382.0</ele><time>2026-04-18T09:31:43.219Z</time></trkpt><trkpt lat="43.4989361" lon="11.4004386"><ele>382.0</ele><time>2026-04-18T09:31:44.217Z</time></trkpt><trkpt lat="43.4988094" lon="11.4005358"><ele>382.0</ele><time>2026-04-18T09:31:45.219Z</time></trkpt><trkpt lat="43.4986739" lon="11.4006573"><ele>382.0</ele><time>2026-04-18T09:31:46.218Z</time></trkpt><trkpt lat="43.498528" lon="11.4007837"><ele>383.3333333333333</ele><time>2026-04-18T09:31:47.218Z</time></trkpt><trkpt lat="43.4983774" lon="11.4009159"><ele>384.66666666666663</ele><time>2026-04-18T09:31:48.219Z</time></trkpt><trkpt lat="43.4982254" lon="11.401054"><ele>386.0</ele><time>2026-04-18T09:31:49.218Z</time></trkpt><trkpt lat="43.4980797" lon="11.4011919"><ele>386.0</ele><time>2026-04-18T09:31:50.219Z</time></trkpt><trkpt lat="43.4979459" lon="11.4013259"><ele>386.0</ele><time>2026-04-18T09:31:51.219Z</time></trkpt><trkpt lat="43.4978255" lon="11.4014857"><ele>386.0</ele><time>2026-04-18T09:31:52.218Z</time></trkpt><trkpt lat="43.4977093" lon="11.4016528"><ele>388.0</ele><time>2026-04-18T09:31:53.218Z</time></trkpt><trkpt lat="43.4976018" lon="11.4018257"><ele>390.0</ele><time>2026-04-18T09:31:54.219Z</time></trkpt><trkpt lat="43.4975083" lon="11.4019903"><ele>392.0</ele><time>2026-04-18T09:31:55.218Z</time></trkpt><trkpt lat="43.497423" lon="11.402156"><ele>391.0</ele><time>2026-04-18T09:31:56.22Z</time></trkpt><trkpt lat="43.4973572" lon="11.4023432"><ele>390.0</ele><time>2026-04-18T09:31:57.216Z</time></trkpt><trkpt lat="43.4973008" lon="11.4025481"><ele>389.0</ele><time>2026-04-18T09:31:58.218Z</time></trkpt><trkpt lat="43.497247" lon="11.402754"><ele>389.0</ele><time>2026-04-18T09:31:59.219Z</time></trkpt><trkpt lat="43.4971817" lon="11.4029499"><ele>389.0</ele><time>2026-04-18T09:32:00.219Z</time></trkpt><trkpt lat="43.4971169" lon="11.403126"><ele>389.0</ele><time>2026-04-18T09:32:01.218Z</time></trkpt><trkpt lat="43.4970412" lon="11.4032905"><ele>389.0</ele><time>2026-04-18T09:32:02.217Z</time></trkpt><trkpt lat="43.4969484" lon="11.4034438"><ele>390.75</ele><time>2026-04-18T09:32:03.217Z</time></trkpt><trkpt lat="43.4968414" lon="11.403574"><ele>392.5</ele><time>2026-04-18T09:32:04.217Z</time></trkpt><trkpt lat="43.4967323" lon="11.4036697"><ele>394.25</ele><time>2026-04-18T09:32:05.217Z</time></trkpt><trkpt lat="43.4966321" lon="11.4037748"><ele>396.0</ele><time>2026-04-18T09:32:06.219Z</time></trkpt><trkpt lat="43.4965713" lon="11.4039096"><ele>396.75</ele><time>2026-04-18T09:32:07.219Z</time></trkpt><trkpt lat="43.4965347" lon="11.4040578"><ele>397.5</ele><time>2026-04-18T09:32:08.218Z</time></trkpt><trkpt lat="43.4965233" lon="11.4042329"><ele>398.25</ele><time>2026-04-18T09:32:09.219Z</time></trkpt><trkpt lat="43.4965275" lon="11.4044121"><ele>399.0</ele><time>2026-04-18T09:32:10.219Z</time></trkpt><trkpt lat="43.4965231" lon="11.4045978"><ele>399.5</ele><time>2026-04-18T09:32:11.218Z</time></trkpt><trkpt lat="43.4965101" lon="11.4047884"><ele>400.0</ele><time>2026-04-18T09:32:12.218Z</time></trkpt><trkpt lat="43.4964921" lon="11.4049535"><ele>400.5</ele><time>2026-04-18T09:32:13.218Z</time></trkpt><trkpt lat="43.4964928" lon="11.4051117"><ele>401.0</ele><time>2026-04-18T09:32:14.218Z</time></trkpt><trkpt lat="43.4965148" lon="11.4052654"><ele>401.0</ele><time>2026-04-18T09:32:15.217Z</time></trkpt><trkpt lat="43.496555" lon="11.4054164"><ele>401.0</ele><time>2026-04-18T09:32:16.218Z</time></trkpt><trkpt lat="43.4966085" lon="11.4055681"><ele>401.0</ele><time>2026-04-18T09:32:17.217Z</time></trkpt><trkpt lat="43.496689" lon="11.4056984"><ele>401.0</ele><time>2026-04-18T09:32:18.218Z</time></trkpt><trkpt lat="43.4967797" lon="11.4058231"><ele>401.75</ele><time>2026-04-18T09:32:19.217Z</time></trkpt><trkpt lat="43.496853" lon="11.4059764"><ele>402.5</ele><time>2026-04-18T09:32:20.217Z</time></trkpt><trkpt lat="43.496937" lon="11.4061396"><ele>403.25</ele><time>2026-04-18T09:32:21.218Z</time></trkpt><trkpt lat="43.497002" lon="11.4063072"><ele>404.0</ele><time>2026-04-18T09:32:22.219Z</time></trkpt><trkpt lat="43.4970631" lon="11.4064649"><ele>405.0</ele><time>2026-04-18T09:32:23.218Z</time></trkpt><trkpt lat="43.4971014" lon="11.406631"><ele>406.0</ele><time>2026-04-18T09:32:24.216Z</time></trkpt><trkpt lat="43.4971292" lon="11.4068113"><ele>407.0</ele><time>2026-04-18T09:32:25.219Z</time></trkpt><trkpt lat="43.497128" lon="11.4069995"><ele>408.0</ele><time>2026-04-18T09:32:26.218Z</time></trkpt><trkpt lat="43.4970978" lon="11.4072008"><ele>408.0</ele><time>2026-04-18T09:32:27.219Z</time></trkpt><trkpt lat="43.4970712" lon="11.4074067"><ele>408.0</ele><time>2026-04-18T09:32:28.219Z</time></trkpt><trkpt lat="43.4970599" lon="11.4076015"><ele>408.0</ele><time>2026-04-18T09:32:29.219Z</time></trkpt><trkpt lat="43.4970694" lon="11.4077793"><ele>408.0</ele><time>2026-04-18T09:32:30.218Z</time></trkpt><trkpt lat="43.497115" lon="11.4079354"><ele>410.5</ele><time>2026-04-18T09:32:31.217Z</time></trkpt><trkpt lat="43.4971895" lon="11.4080779"><ele>413.0</ele><time>2026-04-18T09:32:32.218Z</time></trkpt><trkpt lat="43.4972755" lon="11.4082167"><ele>415.5</ele><time>2026-04-18T09:32:33.219Z</time></trkpt><trkpt lat="43.4973688" lon="11.4083544"><ele>418.0</ele><time>2026-04-18T09:32:34.218Z</time></trkpt><trkpt lat="43.4974629" lon="11.4084888"><ele>418.0</ele><time>2026-04-18T09:32:35.219Z</time></trkpt><trkpt lat="43.4975444" lon="11.4086379"><ele>418.0</ele><time>2026-04-18T09:32:36.219Z</time></trkpt><trkpt lat="43.4976356" lon="11.408806"><ele>418.0</ele><time>2026-04-18T09:32:37.218Z</time></trkpt><trkpt lat="43.4977258" lon="11.4089806"><ele>418.0</ele><time>2026-04-18T09:32:38.217Z</time></trkpt><trkpt lat="43.4978179" lon="11.4091695"><ele>419.33333333333337</ele><time>2026-04-18T09:32:39.218Z</time></trkpt><trkpt lat="43.4979042" lon="11.4093508"><ele>420.66666666666663</ele><time>2026-04-18T09:32:40.219Z</time></trkpt><trkpt lat="43.4979934" lon="11.4095281"><ele>422.0</ele><time>2026-04-18T09:32:41.218Z</time></trkpt><trkpt lat="43.4980769" lon="11.4097073"><ele>427.0</ele><time>2026-04-18T09:32:42.218Z</time></trkpt><trkpt lat="43.4981557" lon="11.4098739"><ele>432.0</ele><time>2026-04-18T09:32:43.218Z</time></trkpt><trkpt lat="43.4982334" lon="11.4100163"><ele>437.0</ele><time>2026-04-18T09:32:44.218Z</time></trkpt><trkpt lat="43.4982854" lon="11.4101413"><ele>442.0</ele><time>2026-04-18T09:32:45.218Z</time></trkpt><trkpt lat="43.4982967" lon="11.4102517"><ele>442.0</ele><time>2026-04-18T09:32:46.218Z</time></trkpt><trkpt lat="43.4982805" lon="11.410353"><ele>442.00000000000006</ele><time>2026-04-18T09:32:47.217Z</time></trkpt><trkpt lat="43.4982277" lon="11.4104339"><ele>442.00000000000006</ele><time>2026-04-18T09:32:48.218Z</time></trkpt><trkpt lat="43.4981587" lon="11.410523"><ele>442.0</ele><time>2026-04-18T09:32:49.218Z</time></trkpt><trkpt lat="43.4981017" lon="11.4106306"><ele>442.0</ele><time>2026-04-18T09:32:50.219Z</time></trkpt><trkpt lat="43.4980577" lon="11.4107618"><ele>444.6</ele><time>2026-04-18T09:32:51.219Z</time></trkpt><trkpt lat="43.4980292" lon="11.4109108"><ele>447.20000000000005</ele><time>2026-04-18T09:32:52.218Z</time></trkpt><trkpt lat="43.4980128" lon="11.4110689"><ele>449.8</ele><time>2026-04-18T09:32:53.218Z</time></trkpt><trkpt lat="43.4980085" lon="11.4112188"><ele>452.4</ele><time>2026-04-18T09:32:54.218Z</time></trkpt><trkpt lat="43.4980229" lon="11.41136"><ele>455.0</ele><time>2026-04-18T09:32:55.218Z</time></trkpt><trkpt lat="43.4980624" lon="11.4114964"><ele>456.8333333333333</ele><time>2026-04-18T09:32:56.218Z</time></trkpt><trkpt lat="43.4981083" lon="11.4116041"><ele>458.66666666666663</ele><time>2026-04-18T09:32:57.218Z</time></trkpt><trkpt lat="43.498152" lon="11.4116842"><ele>460.5</ele><time>2026-04-18T09:32:58.218Z</time></trkpt><trkpt lat="43.49819" lon="11.4117584"><ele>462.33333333333337</ele><time>2026-04-18T09:32:59.218Z</time></trkpt><trkpt lat="43.4982591" lon="11.4118692"><ele>464.1666666666667</ele><time>2026-04-18T09:33:01.218Z</time></trkpt><trkpt lat="43.4983478" lon="11.4118951"><ele>466.0</ele><time>2026-04-18T09:33:04.218Z</time></trkpt><trkpt lat="43.498425" lon="11.4117921"><ele>466.00000000000006</ele><time>2026-04-18T09:33:06.219Z</time></trkpt><trkpt lat="43.4984693" lon="11.4117241"><ele>466.0</ele><time>2026-04-18T09:33:07.218Z</time></trkpt><trkpt lat="43.4985232" lon="11.4116521"><ele>466.0</ele><time>2026-04-18T09:33:08.219Z</time></trkpt><trkpt lat="43.498583" lon="11.4115891"><ele>466.0</ele><time>2026-04-18T09:33:09.219Z</time></trkpt><trkpt lat="43.4986519" lon="11.4115344"><ele>466.00000000000006</ele><time>2026-04-18T09:33:10.217Z</time></trkpt><trkpt lat="43.4987358" lon="11.4114879"><ele>466.0</ele><time>2026-04-18T09:33:11.218Z</time></trkpt><trkpt lat="43.498814" lon="11.4114447"><ele>467.0</ele><time>2026-04-18T09:33:12.218Z</time></trkpt><trkpt lat="43.4988958" lon="11.4114005"><ele>468.0</ele><time>2026-04-18T09:33:13.219Z</time></trkpt><trkpt lat="43.4989908" lon="11.4113606"><ele>469.0</ele><time>2026-04-18T09:33:14.218Z</time></trkpt><trkpt lat="43.4990895" lon="11.4113052"><ele>470.0</ele><time>2026-04-18T09:33:15.219Z</time></trkpt><trkpt lat="43.4991885" lon="11.411243"><ele>471.0</ele><time>2026-04-18T09:33:16.216Z</time></trkpt><trkpt lat="43.4992884" lon="11.4111658"><ele>471.0</ele><time>2026-04-18T09:33:17.218Z</time></trkpt><trkpt lat="43.4993816" lon="11.4110745"><ele>471.0</ele><time>2026-04-18T09:33:18.217Z</time></trkpt><trkpt lat="43.499469" lon="11.4110081"><ele>471.0</ele><time>2026-04-18T09:33:19.218Z</time></trkpt><trkpt lat="43.4995493" lon="11.4109635"><ele>471.0</ele><time>2026-04-18T09:33:20.218Z</time></trkpt><trkpt lat="43.4996338" lon="11.4109112"><ele>471.0</ele><time>2026-04-18T09:33:21.219Z</time></trkpt><trkpt lat="43.4997223" lon="11.4108561"><ele>474.8</ele><time>2026-04-18T09:33:22.219Z</time></trkpt><trkpt lat="43.4998056" lon="11.4108141"><ele>478.6</ele><time>2026-04-18T09:33:23.219Z</time></trkpt><trkpt lat="43.4998889" lon="11.4107786"><ele>482.4</ele><time>2026-04-18T09:33:24.219Z</time></trkpt><trkpt lat="43.4999821" lon="11.4107498"><ele>486.2</ele><time>2026-04-18T09:33:25.219Z</time></trkpt><trkpt lat="43.5000816" lon="11.4107363"><ele>490.0</ele><time>2026-04-18T09:33:26.218Z</time></trkpt><trkpt lat="43.5001822" lon="11.4107136"><ele>490.0</ele><time>2026-04-18T09:33:27.217Z</time></trkpt><trkpt lat="43.5002882" lon="11.4106887"><ele>490.0</ele><time>2026-04-18T09:33:28.218Z</time></trkpt><trkpt lat="43.5003898" lon="11.4106543"><ele>490.0</ele><time>2026-04-18T09:33:29.218Z</time></trkpt><trkpt lat="43.5004795" lon="11.4106232"><ele>490.0</ele><time>2026-04-18T09:33:30.218Z</time></trkpt><trkpt lat="43.500554" lon="11.4105995"><ele>490.0</ele><time>2026-04-18T09:33:31.218Z</time></trkpt><trkpt lat="43.5006364" lon="11.4105838"><ele>491.33333333333337</ele><time>2026-04-18T09:33:32.218Z</time></trkpt><trkpt lat="43.5007151" lon="11.4105797"><ele>492.6666666666667</ele><time>2026-04-18T09:33:33.219Z</time></trkpt><trkpt lat="43.5007975" lon="11.4105959"><ele>494.0</ele><time>2026-04-18T09:33:34.219Z</time></trkpt><trkpt lat="43.5008806" lon="11.4106346"><ele>495.33333333333337</ele><time>2026-04-18T09:33:35.219Z</time></trkpt><trkpt lat="43.5009522" lon="11.4106927"><ele>496.6666666666667</ele><time>2026-04-18T09:33:36.217Z</time></trkpt><trkpt lat="43.5010236" lon="11.4107623"><ele>498.0</ele><time>2026-04-18T09:33:37.218Z</time></trkpt><trkpt lat="43.5010914" lon="11.4108328"><ele>498.0</ele><time>2026-04-18T09:33:38.219Z</time></trkpt><trkpt lat="43.5011512" lon="11.4109017"><ele>498.0</ele><time>2026-04-18T09:33:39.217Z</time></trkpt><trkpt lat="43.5012259" lon="11.4109624"><ele>498.0</ele><time>2026-04-18T09:33:40.218Z</time></trkpt><trkpt lat="43.5013093" lon="11.4110167"><ele>498.0</ele><time>2026-04-18T09:33:41.218Z</time></trkpt><trkpt lat="43.501389" lon="11.4110502"><ele>498.0</ele><time>2026-04-18T09:33:42.217Z</time></trkpt><trkpt lat="43.5014775" lon="11.4110658"><ele>498.0</ele><time>2026-04-18T09:33:43.218Z</time></trkpt><trkpt lat="43.5015563" lon="11.4110625"><ele>498.5</ele><time>2026-04-18T09:33:44.219Z</time></trkpt><trkpt lat="43.501628" lon="11.4110285"><ele>499.0</ele><time>2026-04-18T09:33:45.218Z</time></trkpt><trkpt lat="43.5016967" lon="11.410967"><ele>499.5</ele><time>2026-04-18T09:33:46.217Z</time></trkpt><trkpt lat="43.5017552" lon="11.4108766"><ele>500.0</ele><time>2026-04-18T09:33:47.219Z</time></trkpt><trkpt lat="43.5018007" lon="11.4107694"><ele>500.5</ele><time>2026-04-18T09:33:48.217Z</time></trkpt><trkpt lat="43.5018462" lon="11.4106583"><ele>501.0</ele><time>2026-04-18T09:33:49.218Z</time></trkpt><trkpt lat="43.5018996" lon="11.410553"><ele>501.3333333333333</ele><time>2026-04-18T09:33:50.218Z</time></trkpt><trkpt lat="43.5019561" lon="11.4104539"><ele>501.66666666666663</ele><time>2026-04-18T09:33:51.218Z</time></trkpt><trkpt lat="43.5020139" lon="11.4103768"><ele>502.0</ele><time>2026-04-18T09:33:52.218Z</time></trkpt><trkpt lat="43.5020786" lon="11.4103113"><ele>502.3333333333333</ele><time>2026-04-18T09:33:53.218Z</time></trkpt><trkpt lat="43.5021495" lon="11.4102394"><ele>502.66666666666663</ele><time>2026-04-18T09:33:54.218Z</time></trkpt><trkpt lat="43.5022292" lon="11.4101705"><ele>503.0</ele><time>2026-04-18T09:33:55.218Z</time></trkpt><trkpt lat="43.5023057" lon="11.4101143"><ele>502.99999999999994</ele><time>2026-04-18T09:33:56.219Z</time></trkpt><trkpt lat="43.5023804" lon="11.4100647"><ele>503.0</ele><time>2026-04-18T09:33:57.218Z</time></trkpt><trkpt lat="43.5024471" lon="11.410015"><ele>503.0</ele><time>2026-04-18T09:33:58.218Z</time></trkpt><trkpt lat="43.5025005" lon="11.4099667"><ele>503.0</ele><time>2026-04-18T09:33:59.217Z</time></trkpt><trkpt lat="43.5025795" lon="11.4099284"><ele>502.99999999999994</ele><time>2026-04-18T09:34:01.218Z</time></trkpt><trkpt lat="43.5026289" lon="11.4100037"><ele>503.0</ele><time>2026-04-18T09:34:03.219Z</time></trkpt><trkpt lat="43.5026741" lon="11.4101827"><ele>503.0</ele><time>2026-04-18T09:34:05.218Z</time></trkpt><trkpt lat="43.5026866" lon="11.4103063"><ele>502.99999999999994</ele><time>2026-04-18T09:34:06.218Z</time></trkpt><trkpt lat="43.5026782" lon="11.4104219"><ele>502.99999999999994</ele><time>2026-04-18T09:34:07.218Z</time></trkpt><trkpt lat="43.5026673" lon="11.4105445"><ele>503.0</ele><time>2026-04-18T09:34:08.217Z</time></trkpt><trkpt lat="43.5026562" lon="11.4106734"><ele>503.0</ele><time>2026-04-18T09:34:09.219Z</time></trkpt><trkpt lat="43.5026545" lon="11.4108089"><ele>505.4</ele><time>2026-04-18T09:34:10.218Z</time></trkpt><trkpt lat="43.5026606" lon="11.4109462"><ele>507.79999999999995</ele><time>2026-04-18T09:34:11.217Z</time></trkpt><trkpt lat="43.502672" lon="11.4110981"><ele>510.2</ele><time>2026-04-18T09:34:12.219Z</time></trkpt><trkpt lat="43.5026823" lon="11.411248"><ele>512.6</ele><time>2026-04-18T09:34:13.218Z</time></trkpt><trkpt lat="43.5026691" lon="11.4113903"><ele>515.0</ele><time>2026-04-18T09:34:14.217Z</time></trkpt><trkpt lat="43.5026491" lon="11.4115337"><ele>517.0</ele><time>2026-04-18T09:34:15.218Z</time></trkpt><trkpt lat="43.5026361" lon="11.4116722"><ele>519.0</ele><time>2026-04-18T09:34:16.218Z</time></trkpt><trkpt lat="43.5026307" lon="11.4118087"><ele>521.0</ele><time>2026-04-18T09:34:17.218Z</time></trkpt><trkpt lat="43.5026292" lon="11.4119356"><ele>523.0</ele><time>2026-04-18T09:34:18.219Z</time></trkpt><trkpt lat="43.5026415" lon="11.4120584"><ele>525.0</ele><time>2026-04-18T09:34:19.218Z</time></trkpt><trkpt lat="43.5026703" lon="11.4121803"><ele>527.4</ele><time>2026-04-18T09:34:20.218Z</time></trkpt><trkpt lat="43.5027117" lon="11.4123127"><ele>529.8</ele><time>2026-04-18T09:34:21.218Z</time></trkpt><trkpt lat="43.5027594" lon="11.4124365"><ele>532.2</ele><time>2026-04-18T09:34:22.217Z</time></trkpt><trkpt lat="43.5028082" lon="11.4125675"><ele>534.6</ele><time>2026-04-18T09:34:23.218Z</time></trkpt><trkpt lat="43.5028588" lon="11.412693"><ele>537.0</ele><time>2026-04-18T09:34:24.218Z</time></trkpt><trkpt lat="43.502893" lon="11.4128"><ele>536.1666666666666</ele><time>2026-04-18T09:34:25.219Z</time></trkpt><trkpt lat="43.5029161" lon="11.4128953"><ele>535.3333333333334</ele><time>2026-04-18T09:34:26.218Z</time></trkpt><trkpt lat="43.5029172" lon="11.412999"><ele>534.5</ele><time>2026-04-18T09:34:27.218Z</time></trkpt><trkpt lat="43.5029042" lon="11.4131092"><ele>533.6666666666667</ele><time>2026-04-18T09:34:28.217Z</time></trkpt><trkpt lat="43.5028883" lon="11.4132267"><ele>532.8333333333334</ele><time>2026-04-18T09:34:29.218Z</time></trkpt><trkpt lat="43.5028701" lon="11.4133508"><ele>532.0</ele><time>2026-04-18T09:34:30.218Z</time></trkpt><trkpt lat="43.5028575" lon="11.4134848"><ele>534.4</ele><time>2026-04-18T09:34:31.217Z</time></trkpt><trkpt lat="43.5028488" lon="11.413614"><ele>536.8000000000001</ele><time>2026-04-18T09:34:32.219Z</time></trkpt><trkpt lat="43.50286" lon="11.4137519"><ele>539.2</ele><time>2026-04-18T09:34:33.217Z</time></trkpt><trkpt lat="43.5028742" lon="11.4138698"><ele>541.6</ele><time>2026-04-18T09:34:34.218Z</time></trkpt><trkpt lat="43.5028924" lon="11.4139752"><ele>544.0</ele><time>2026-04-18T09:34:35.218Z</time></trkpt><trkpt lat="43.5029469" lon="11.4141014"><ele>545.5</ele><time>2026-04-18T09:34:37.218Z</time></trkpt><trkpt lat="43.5030297" lon="11.4141941"><ele>547.0</ele><time>2026-04-18T09:34:39.218Z</time></trkpt><trkpt lat="43.5031341" lon="11.4142763"><ele>548.5</ele><time>2026-04-18T09:34:41.217Z</time></trkpt><trkpt lat="43.5031817" lon="11.4143386"><ele>550.0</ele><time>2026-04-18T09:34:42.218Z</time></trkpt><trkpt lat="43.5032194" lon="11.4144129"><ele>551.5</ele><time>2026-04-18T09:34:43.219Z</time></trkpt><trkpt lat="43.5032548" lon="11.4144967"><ele>553.0</ele><time>2026-04-18T09:34:44.218Z</time></trkpt><trkpt lat="43.5032886" lon="11.4145781"><ele>554.3333333333334</ele><time>2026-04-18T09:34:45.218Z</time></trkpt><trkpt lat="43.5033288" lon="11.4146571"><ele>555.6666666666667</ele><time>2026-04-18T09:34:46.218Z</time></trkpt><trkpt lat="43.5033856" lon="11.4147433"><ele>557.0</ele><time>2026-04-18T09:34:47.219Z</time></trkpt><trkpt lat="43.5034421" lon="11.4148288"><ele>558.3333333333334</ele><time>2026-04-18T09:34:48.217Z</time></trkpt><trkpt lat="43.5035105" lon="11.4149128"><ele>559.6666666666666</ele><time>2026-04-18T09:34:49.218Z</time></trkpt><trkpt lat="43.5035747" lon="11.4150187"><ele>561.0</ele><time>2026-04-18T09:34:50.217Z</time></trkpt><trkpt lat="43.50363" lon="11.4151134"><ele>561.0</ele><time>2026-04-18T09:34:51.219Z</time></trkpt><trkpt lat="43.5036958" lon="11.4151825"><ele>561.0</ele><time>2026-04-18T09:34:52.217Z</time></trkpt><trkpt lat="43.5037673" lon="11.4152435"><ele>561.0</ele><time>2026-04-18T09:34:53.217Z</time></trkpt><trkpt lat="43.5038481" lon="11.4152887"><ele>561.0</ele><time>2026-04-18T09:34:54.218Z</time></trkpt><trkpt lat="43.503938" lon="11.4153165"><ele>561.0</ele><time>2026-04-18T09:34:55.218Z</time></trkpt><trkpt lat="43.5040554" lon="11.4153465"><ele>560.6</ele><time>2026-04-18T09:34:56.218Z</time></trkpt><trkpt lat="43.5041605" lon="11.4153796"><ele>560.2</ele><time>2026-04-18T09:34:57.219Z</time></trkpt><trkpt lat="43.5042764" lon="11.4154103"><ele>559.8</ele><time>2026-04-18T09:34:58.218Z</time></trkpt><trkpt lat="43.5043732" lon="11.4154454"><ele>559.4</ele><time>2026-04-18T09:34:59.218Z</time></trkpt><trkpt lat="43.5044605" lon="11.41549"><ele>559.0</ele><time>2026-04-18T09:35:00.218Z</time></trkpt><trkpt lat="43.5045398" lon="11.4155552"><ele>563.0</ele><time>2026-04-18T09:35:01.217Z</time></trkpt><trkpt lat="43.5046193" lon="11.4156072"><ele>567.0</ele><time>2026-04-18T09:35:02.217Z</time></trkpt><trkpt lat="43.5047012" lon="11.4156521"><ele>571.0</ele><time>2026-04-18T09:35:03.217Z</time></trkpt><trkpt lat="43.5047937" lon="11.4156652"><ele>575.0</ele><time>2026-04-18T09:35:04.218Z</time></trkpt><trkpt lat="43.5048857" lon="11.4156671"><ele>579.0</ele><time>2026-04-18T09:35:05.218Z</time></trkpt><trkpt lat="43.5049708" lon="11.41566"><ele>583.0</ele><time>2026-04-18T09:35:06.218Z</time></trkpt><trkpt lat="43.5050527" lon="11.41568"><ele>583.0</ele><time>2026-04-18T09:35:07.217Z</time></trkpt><trkpt lat="43.5051452" lon="11.4157052"><ele>583.0</ele><time>2026-04-18T09:35:08.218Z</time></trkpt><trkpt lat="43.5052327" lon="11.4157373"><ele>583.0</ele><time>2026-04-18T09:35:09.218Z</time></trkpt><trkpt lat="43.505315" lon="11.4157703"><ele>583.0</ele><time>2026-04-18T09:35:10.218Z</time></trkpt><trkpt lat="43.5053742" lon="11.4158366"><ele>583.0</ele><time>2026-04-18T09:35:11.218Z</time></trkpt><trkpt lat="43.5054311" lon="11.4159144"><ele>583.0</ele><time>2026-04-18T09:35:12.218Z</time></trkpt><trkpt lat="43.5054936" lon="11.4160022"><ele>582.1666666666667</ele><time>2026-04-18T09:35:13.217Z</time></trkpt><trkpt lat="43.505521" lon="11.4161109"><ele>581.3333333333334</ele><time>2026-04-18T09:35:14.217Z</time></trkpt><trkpt lat="43.5055642" lon="11.416216"><ele>580.5</ele><time>2026-04-18T09:35:15.218Z</time></trkpt><trkpt lat="43.5056049" lon="11.4163269"><ele>579.6666666666666</ele><time>2026-04-18T09:35:16.218Z</time></trkpt><trkpt lat="43.5056524" lon="11.4164157"><ele>578.8333333333333</ele><time>2026-04-18T09:35:17.218Z</time></trkpt><trkpt lat="43.5057112" lon="11.4164795"><ele>578.0</ele><time>2026-04-18T09:35:18.218Z</time></trkpt><trkpt lat="43.5058473" lon="11.4165067"><ele>578.1666666666666</ele><time>2026-04-18T09:35:20.218Z</time></trkpt><trkpt lat="43.5059313" lon="11.4164751"><ele>578.3333333333333</ele><time>2026-04-18T09:35:21.218Z</time></trkpt><trkpt lat="43.5060056" lon="11.4164401"><ele>578.5</ele><time>2026-04-18T09:35:22.219Z</time></trkpt><trkpt lat="43.5060812" lon="11.4164038"><ele>578.6666666666666</ele><time>2026-04-18T09:35:23.22Z</time></trkpt><trkpt lat="43.5061686" lon="11.4163541"><ele>578.8333333333334</ele><time>2026-04-18T09:35:24.217Z</time></trkpt><trkpt lat="43.5062455" lon="11.4163267"><ele>579.0</ele><time>2026-04-18T09:35:25.218Z</time></trkpt><trkpt lat="43.5063206" lon="11.4162955"><ele>582.1666666666666</ele><time>2026-04-18T09:35:26.218Z</time></trkpt><trkpt lat="43.5063907" lon="11.4163427"><ele>585.3333333333334</ele><time>2026-04-18T09:35:27.218Z</time></trkpt><trkpt lat="43.5064733" lon="11.4164876"><ele>588.5</ele><time>2026-04-18T09:35:29.219Z</time></trkpt><trkpt lat="43.5065057" lon="11.4165845"><ele>591.6666666666667</ele><time>2026-04-18T09:35:30.218Z</time></trkpt><trkpt lat="43.5065377" lon="11.4166639"><ele>594.8333333333334</ele><time>2026-04-18T09:35:31.218Z</time></trkpt><trkpt lat="43.5065677" lon="11.4167444"><ele>598.0</ele><time>2026-04-18T09:35:32.218Z</time></trkpt><trkpt lat="43.5066687" lon="11.4168448"><ele>598.0</ele><time>2026-04-18T09:35:34.217Z</time></trkpt><trkpt lat="43.5067369" lon="11.4169057"><ele>598.0</ele><time>2026-04-18T09:35:35.218Z</time></trkpt><trkpt lat="43.5067911" lon="11.4169685"><ele>598.0</ele><time>2026-04-18T09:35:36.218Z</time></trkpt><trkpt lat="43.5068355" lon="11.4170956"><ele>598.0</ele><time>2026-04-18T09:35:38.217Z</time></trkpt><trkpt lat="43.5068621" lon="11.4172929"><ele>598.0</ele><time>2026-04-18T09:35:40.217Z</time></trkpt><trkpt lat="43.5068889" lon="11.4174158"><ele>600.0</ele><time>2026-04-18T09:35:41.217Z</time></trkpt><trkpt lat="43.5069193" lon="11.4175307"><ele>602.0</ele><time>2026-04-18T09:35:42.218Z</time></trkpt><trkpt lat="43.5069291" lon="11.4176401"><ele>604.0</ele><time>2026-04-18T09:35:43.217Z</time></trkpt><trkpt lat="43.506941" lon="11.4177457"><ele>606.0</ele><time>2026-04-18T09:35:44.217Z</time></trkpt><trkpt lat="43.5069594" lon="11.4178606"><ele>608.0</ele><time>2026-04-18T09:35:45.217Z</time></trkpt><trkpt lat="43.5069753" lon="11.4179747"><ele>610.0</ele><time>2026-04-18T09:35:46.218Z</time></trkpt><trkpt lat="43.5069977" lon="11.4180786"><ele>611.3333333333334</ele><time>2026-04-18T09:35:47.218Z</time></trkpt><trkpt lat="43.5070143" lon="11.4181947"><ele>612.6666666666667</ele><time>2026-04-18T09:35:48.217Z</time></trkpt><trkpt lat="43.5070148" lon="11.4182885"><ele>614.0</ele><time>2026-04-18T09:35:49.218Z</time></trkpt><trkpt lat="43.5069827" lon="11.4184431"><ele>615.3333333333334</ele><time>2026-04-18T09:35:51.218Z</time></trkpt><trkpt lat="43.50693" lon="11.4185065"><ele>616.6666666666666</ele><time>2026-04-18T09:35:52.218Z</time></trkpt><trkpt lat="43.506879" lon="11.4185671"><ele>618.0</ele><time>2026-04-18T09:35:53.218Z</time></trkpt><trkpt lat="43.5068268" lon="11.4186286"><ele>618.0</ele><time>2026-04-18T09:35:54.218Z</time></trkpt><trkpt lat="43.5067685" lon="11.4187284"><ele>618.0</ele><time>2026-04-18T09:35:56.219Z</time></trkpt><trkpt lat="43.5067454" lon="11.4188159"><ele>618.0</ele><time>2026-04-18T09:35:57.218Z</time></trkpt><trkpt lat="43.5067359" lon="11.418915"><ele>618.0</ele><time>2026-04-18T09:35:58.219Z</time></trkpt><trkpt lat="43.5066898" lon="11.4190511"><ele>618.0</ele><time>2026-04-18T09:36:00.218Z</time></trkpt><trkpt lat="43.5066333" lon="11.419113"><ele>618.0</ele><time>2026-04-18T09:36:01.217Z</time></trkpt><trkpt lat="43.5065267" lon="11.419188"><ele>616.5</ele><time>2026-04-18T09:36:03.217Z</time></trkpt><trkpt lat="43.5064298" lon="11.419283"><ele>615.0</ele><time>2026-04-18T09:36:05.217Z</time></trkpt><trkpt lat="43.5064281" lon="11.4193988"><ele>613.5</ele><time>2026-04-18T09:36:06.218Z</time></trkpt><trkpt lat="43.506428" lon="11.419501"><ele>612.0</ele><time>2026-04-18T09:36:07.218Z</time></trkpt><trkpt lat="43.5064239" lon="11.4195965"><ele>610.5</ele><time>2026-04-18T09:36:08.217Z</time></trkpt><trkpt lat="43.5063968" lon="11.4196871"><ele>609.0</ele><time>2026-04-18T09:36:09.218Z</time></trkpt><trkpt lat="43.5063677" lon="11.4197642"><ele>608.0</ele><time>2026-04-18T09:36:10.218Z</time></trkpt><trkpt lat="43.5063007" lon="11.4198654"><ele>607.0</ele><time>2026-04-18T09:36:12.218Z</time></trkpt><trkpt lat="43.5062675" lon="11.4199766"><ele>606.0</ele><time>2026-04-18T09:36:14.218Z</time></trkpt><trkpt lat="43.5062806" lon="11.4201342"><ele>605.0</ele><time>2026-04-18T09:36:16.217Z</time></trkpt><trkpt lat="43.506364" lon="11.4201436"><ele>604.0</ele><time>2026-04-18T09:36:17.218Z</time></trkpt><trkpt lat="43.5064087" lon="11.4202672"><ele>604.0</ele><time>2026-04-18T09:36:19.218Z</time></trkpt><trkpt lat="43.5064866" lon="11.4202612"><ele>604.0</ele><time>2026-04-18T09:36:20.217Z</time></trkpt><trkpt lat="43.5065662" lon="11.4202752"><ele>604.0</ele><time>2026-04-18T09:36:21.217Z</time></trkpt><trkpt lat="43.5066391" lon="11.4202794"><ele>604.0</ele><time>2026-04-18T09:36:22.217Z</time></trkpt><trkpt lat="43.5067363" lon="11.420284"><ele>604.0</ele><time>2026-04-18T09:36:23.218Z</time></trkpt><trkpt lat="43.5068033" lon="11.4202937"><ele>604.0</ele><time>2026-04-18T09:36:24.218Z</time></trkpt><trkpt lat="43.5069493" lon="11.4203258"><ele>604.0</ele><time>2026-04-18T09:36:26.218Z</time></trkpt><trkpt lat="43.5070192" lon="11.4203742"><ele>604.0</ele><time>2026-04-18T09:36:27.218Z</time></trkpt><trkpt lat="43.5070818" lon="11.4204195"><ele>604.0</ele><time>2026-04-18T09:36:28.218Z</time></trkpt><trkpt lat="43.5071501" lon="11.4204496"><ele>604.0</ele><time>2026-04-18T09:36:29.217Z</time></trkpt><trkpt lat="43.5072064" lon="11.4205015"><ele>604.0</ele><time>2026-04-18T09:36:30.217Z</time></trkpt><trkpt lat="43.5072681" lon="11.4205546"><ele>604.0</ele><time>2026-04-18T09:36:31.218Z</time></trkpt><trkpt lat="43.5073497" lon="11.4206152"><ele>601.3333333333334</ele><time>2026-04-18T09:36:32.218Z</time></trkpt><trkpt lat="43.5073914" lon="11.4207061"><ele>598.6666666666667</ele><time>2026-04-18T09:36:33.218Z</time></trkpt><trkpt lat="43.507432" lon="11.4208029"><ele>596.0</ele><time>2026-04-18T09:36:34.218Z</time></trkpt><trkpt lat="43.5074575" lon="11.4209067"><ele>593.3333333333334</ele><time>2026-04-18T09:36:35.217Z</time></trkpt><trkpt lat="43.5074515" lon="11.4209958"><ele>590.6666666666666</ele><time>2026-04-18T09:36:36.217Z</time></trkpt><trkpt lat="43.5074847" lon="11.4211103"><ele>588.0</ele><time>2026-04-18T09:36:37.218Z</time></trkpt><trkpt lat="43.5075138" lon="11.4212106"><ele>589.0</ele><time>2026-04-18T09:36:38.218Z</time></trkpt><trkpt lat="43.5074964" lon="11.4213338"><ele>590.0</ele><time>2026-04-18T09:36:39.218Z</time></trkpt><trkpt lat="43.5075991" lon="11.4214718"><ele>591.0</ele><time>2026-04-18T09:36:41.217Z</time></trkpt><trkpt lat="43.5076835" lon="11.4215866"><ele>592.0</ele><time>2026-04-18T09:36:43.217Z</time></trkpt><trkpt lat="43.5077189" lon="11.4216694"><ele>593.0</ele><time>2026-04-18T09:36:44.218Z</time></trkpt><trkpt lat="43.5077365" lon="11.4217727"><ele>593.0</ele><time>2026-04-18T09:36:45.218Z</time></trkpt><trkpt lat="43.5077114" lon="11.4219324"><ele>593.0</ele><time>2026-04-18T09:36:47.217Z</time></trkpt><trkpt lat="43.5076971" lon="11.4221241"><ele>593.0</ele><time>2026-04-18T09:36:49.218Z</time></trkpt><trkpt lat="43.5076708" lon="11.4222516"><ele>593.0</ele><time>2026-04-18T09:36:50.217Z</time></trkpt><trkpt lat="43.5076551" lon="11.4223579"><ele>593.0</ele><time>2026-04-18T09:36:51.218Z</time></trkpt><trkpt lat="43.5076212" lon="11.4224994"><ele>592.8</ele><time>2026-04-18T09:36:53.217Z</time></trkpt><trkpt lat="43.5075832" lon="11.422582"><ele>592.5999999999999</ele><time>2026-04-18T09:36:54.218Z</time></trkpt><trkpt lat="43.5075255" lon="11.4226447"><ele>592.4000000000001</ele><time>2026-04-18T09:36:55.218Z</time></trkpt><trkpt lat="43.5074938" lon="11.4227818"><ele>592.2</ele><time>2026-04-18T09:36:57.218Z</time></trkpt><trkpt lat="43.5075201" lon="11.4229349"><ele>592.0</ele><time>2026-04-18T09:36:59.218Z</time></trkpt><trkpt lat="43.5075782" lon="11.4230486"><ele>591.5</ele><time>2026-04-18T09:37:01.218Z</time></trkpt><trkpt lat="43.5075378" lon="11.4232079"><ele>591.0</ele><time>2026-04-18T09:37:03.217Z</time></trkpt><trkpt lat="43.5075225" lon="11.4233349"><ele>590.5</ele><time>2026-04-18T09:37:04.218Z</time></trkpt><trkpt lat="43.5075186" lon="11.4234374"><ele>590.0</ele><time>2026-04-18T09:37:05.218Z</time></trkpt><trkpt lat="43.5075258" lon="11.4235341"><ele>589.5</ele><time>2026-04-18T09:37:06.218Z</time></trkpt><trkpt lat="43.5075433" lon="11.4236259"><ele>589.0</ele><time>2026-04-18T09:37:07.218Z</time></trkpt><trkpt lat="43.5075605" lon="11.4237223"><ele>588.8333333333334</ele><time>2026-04-18T09:37:08.218Z</time></trkpt><trkpt lat="43.5076329" lon="11.4238157"><ele>588.6666666666667</ele><time>2026-04-18T09:37:09.218Z</time></trkpt><trkpt lat="43.5076657" lon="11.4238973"><ele>588.5</ele><time>2026-04-18T09:37:10.218Z</time></trkpt><trkpt lat="43.5077024" lon="11.4239818"><ele>588.3333333333334</ele><time>2026-04-18T09:37:11.218Z</time></trkpt><trkpt lat="43.5077385" lon="11.4240595"><ele>588.1666666666666</ele><time>2026-04-18T09:37:12.218Z</time></trkpt><trkpt lat="43.5077604" lon="11.4241754"><ele>588.0</ele><time>2026-04-18T09:37:14.218Z</time></trkpt><trkpt lat="43.507746" lon="11.4242955"><ele>588.0</ele><time>2026-04-18T09:37:15.217Z</time></trkpt><trkpt lat="43.5077376" lon="11.4244223"><ele>588.0</ele><time>2026-04-18T09:37:16.218Z</time></trkpt><trkpt lat="43.5077271" lon="11.4245527"><ele>588.0</ele><time>2026-04-18T09:37:17.218Z</time></trkpt><trkpt lat="43.5077178" lon="11.4246909"><ele>588.0</ele><time>2026-04-18T09:37:18.217Z</time></trkpt><trkpt lat="43.5077137" lon="11.4248171"><ele>588.0</ele><time>2026-04-18T09:37:19.217Z</time></trkpt><trkpt lat="43.5076971" lon="11.4249357"><ele>589.0</ele><time>2026-04-18T09:37:20.218Z</time></trkpt><trkpt lat="43.5076488" lon="11.4250351"><ele>590.0</ele><time>2026-04-18T09:37:21.218Z</time></trkpt><trkpt lat="43.5076042" lon="11.4251427"><ele>591.0</ele><time>2026-04-18T09:37:22.218Z</time></trkpt><trkpt lat="43.5075685" lon="11.4252954"><ele>592.0</ele><time>2026-04-18T09:37:24.217Z</time></trkpt><trkpt lat="43.507523" lon="11.4254378"><ele>593.0</ele><time>2026-04-18T09:37:26.218Z</time></trkpt><trkpt lat="43.5074863" lon="11.4255172"><ele>594.1999999999999</ele><time>2026-04-18T09:37:27.217Z</time></trkpt><trkpt lat="43.5074489" lon="11.425588"><ele>595.4</ele><time>2026-04-18T09:37:28.218Z</time></trkpt><trkpt lat="43.5074171" lon="11.425762"><ele>596.5999999999999</ele><time>2026-04-18T09:37:30.218Z</time></trkpt><trkpt lat="43.507431" lon="11.425923"><ele>597.8</ele><time>2026-04-18T09:37:32.218Z</time></trkpt><trkpt lat="43.5074589" lon="11.4260266"><ele>599.0</ele><time>2026-04-18T09:37:34.217Z</time></trkpt><trkpt lat="43.5075632" lon="11.4260232"><ele>599.0</ele><time>2026-04-18T09:37:37.218Z</time></trkpt><trkpt lat="43.5076245" lon="11.4259858"><ele>599.0</ele><time>2026-04-18T09:37:38.217Z</time></trkpt><trkpt lat="43.5076927" lon="11.4259308"><ele>599.0</ele><time>2026-04-18T09:37:39.217Z</time></trkpt><trkpt lat="43.5077592" lon="11.4258613"><ele>599.0</ele><time>2026-04-18T09:37:40.218Z</time></trkpt><trkpt lat="43.507826" lon="11.4257883"><ele>599.0</ele><time>2026-04-18T09:37:41.218Z</time></trkpt><trkpt lat="43.5078969" lon="11.4257152"><ele>599.0</ele><time>2026-04-18T09:37:42.217Z</time></trkpt><trkpt lat="43.5079736" lon="11.4256409"><ele>599.8</ele><time>2026-04-18T09:37:43.218Z</time></trkpt><trkpt lat="43.5080524" lon="11.4255776"><ele>600.5999999999999</ele><time>2026-04-18T09:37:44.218Z</time></trkpt><trkpt lat="43.508117" lon="11.425504"><ele>601.4</ele><time>2026-04-18T09:37:45.218Z</time></trkpt><trkpt lat="43.5081666" lon="11.4254156"><ele>602.1999999999999</ele><time>2026-04-18T09:37:46.218Z</time></trkpt><trkpt lat="43.5082619" lon="11.425336"><ele>603.0</ele><time>2026-04-18T09:37:48.218Z</time></trkpt><trkpt lat="43.5083539" lon="11.4254156"><ele>603.0</ele><time>2026-04-18T09:37:50.218Z</time></trkpt><trkpt lat="43.508389" lon="11.4254916"><ele>603.0</ele><time>2026-04-18T09:37:51.217Z</time></trkpt><trkpt lat="43.5084404" lon="11.4255487"><ele>603.0</ele><time>2026-04-18T09:37:52.217Z</time></trkpt><trkpt lat="43.5085134" lon="11.4255972"><ele>603.0</ele><time>2026-04-18T09:37:53.218Z</time></trkpt><trkpt lat="43.5085933" lon="11.4256309"><ele>603.0</ele><time>2026-04-18T09:37:54.218Z</time></trkpt><trkpt lat="43.5086761" lon="11.425648"><ele>603.0</ele><time>2026-04-18T09:37:55.218Z</time></trkpt><trkpt lat="43.5087509" lon="11.4256333"><ele>603.8333333333334</ele><time>2026-04-18T09:37:56.218Z</time></trkpt><trkpt lat="43.5088155" lon="11.4256097"><ele>604.6666666666666</ele><time>2026-04-18T09:37:57.218Z</time></trkpt><trkpt lat="43.5088755" lon="11.4255812"><ele>605.5</ele><time>2026-04-18T09:37:58.217Z</time></trkpt><trkpt lat="43.5089683" lon="11.4255389"><ele>606.3333333333333</ele><time>2026-04-18T09:38:00.218Z</time></trkpt><trkpt lat="43.509047" lon="11.4255213"><ele>607.1666666666666</ele><time>2026-04-18T09:38:02.218Z</time></trkpt><trkpt lat="43.5091542" lon="11.4255084"><ele>608.0</ele><time>2026-04-18T09:38:04.217Z</time></trkpt><trkpt lat="43.509247" lon="11.4254746"><ele>608.0</ele><time>2026-04-18T09:38:06.217Z</time></trkpt><trkpt lat="43.5093311" lon="11.4254787"><ele>608.0</ele><time>2026-04-18T09:38:08.218Z</time></trkpt><trkpt lat="43.5094152" lon="11.4255003"><ele>608.0</ele><time>2026-04-18T09:38:10.218Z</time></trkpt><trkpt lat="43.5095045" lon="11.4254791"><ele>608.0</ele><time>2026-04-18T09:38:12.217Z</time></trkpt><trkpt lat="43.5096083" lon="11.4254038"><ele>608.0</ele><time>2026-04-18T09:38:14.218Z</time></trkpt><trkpt lat="43.5097177" lon="11.425329"><ele>607.0</ele><time>2026-04-18T09:38:16.218Z</time></trkpt><trkpt lat="43.509832" lon="11.4252805"><ele>606.0</ele><time>2026-04-18T09:38:18.217Z</time></trkpt><trkpt lat="43.5099491" lon="11.4251989"><ele>605.0</ele><time>2026-04-18T09:38:20.217Z</time></trkpt><trkpt lat="43.510012" lon="11.4251386"><ele>604.0</ele><time>2026-04-18T09:38:21.218Z</time></trkpt><trkpt lat="43.5100697" lon="11.4250652"><ele>603.0</ele><time>2026-04-18T09:38:22.217Z</time></trkpt><trkpt lat="43.5101571" lon="11.4249495"><ele>603.0</ele><time>2026-04-18T09:38:24.217Z</time></trkpt><trkpt lat="43.5102761" lon="11.424853"><ele>603.0</ele><time>2026-04-18T09:38:26.218Z</time></trkpt><trkpt lat="43.5103385" lon="11.4247997"><ele>603.0</ele><time>2026-04-18T09:38:27.218Z</time></trkpt><trkpt lat="43.5104049" lon="11.4247378"><ele>603.0</ele><time>2026-04-18T09:38:28.218Z</time></trkpt><trkpt lat="43.5104834" lon="11.4246786"><ele>603.0</ele><time>2026-04-18T09:38:29.217Z</time></trkpt><trkpt lat="43.5105602" lon="11.4246293"><ele>605.0</ele><time>2026-04-18T09:38:30.218Z</time></trkpt><trkpt lat="43.5106221" lon="11.4245999"><ele>607.0</ele><time>2026-04-18T09:38:31.217Z</time></trkpt><trkpt lat="43.5107412" lon="11.4245592"><ele>609.0</ele><time>2026-04-18T09:38:33.217Z</time></trkpt><trkpt lat="43.5108169" lon="11.4245427"><ele>611.0</ele><time>2026-04-18T09:38:34.217Z</time></trkpt><trkpt lat="43.510904" lon="11.4245258"><ele>613.0</ele><time>2026-04-18T09:38:35.218Z</time></trkpt><trkpt lat="43.5109882" lon="11.4245001"><ele>615.0</ele><time>2026-04-18T09:38:36.218Z</time></trkpt><trkpt lat="43.5110651" lon="11.4244774"><ele>615.0</ele><time>2026-04-18T09:38:37.217Z</time></trkpt><trkpt lat="43.5111377" lon="11.424456"><ele>615.0</ele><time>2026-04-18T09:38:38.217Z</time></trkpt><trkpt lat="43.5112075" lon="11.4244185"><ele>615.0</ele><time>2026-04-18T09:38:39.218Z</time></trkpt><trkpt lat="43.511286" lon="11.4243801"><ele>615.0</ele><time>2026-04-18T09:38:40.218Z</time></trkpt><trkpt lat="43.5113676" lon="11.4243377"><ele>615.0</ele><time>2026-04-18T09:38:41.217Z</time></trkpt><trkpt lat="43.5114394" lon="11.4243089"><ele>615.0</ele><time>2026-04-18T09:38:42.217Z</time></trkpt><trkpt lat="43.5115067" lon="11.4242874"><ele>617.6666666666666</ele><time>2026-04-18T09:38:43.217Z</time></trkpt><trkpt lat="43.5115745" lon="11.4242714"><ele>620.3333333333334</ele><time>2026-04-18T09:38:44.218Z</time></trkpt><trkpt lat="43.5116475" lon="11.4242542"><ele>623.0</ele><time>2026-04-18T09:38:45.217Z</time></trkpt><trkpt lat="43.5117251" lon="11.4242338"><ele>625.6666666666667</ele><time>2026-04-18T09:38:46.218Z</time></trkpt><trkpt lat="43.5118074" lon="11.424212"><ele>628.3333333333334</ele><time>2026-04-18T09:38:47.217Z</time></trkpt><trkpt lat="43.5118971" lon="11.4241904"><ele>631.0</ele><time>2026-04-18T09:38:48.218Z</time></trkpt><trkpt lat="43.5119849" lon="11.4241701"><ele>631.0</ele><time>2026-04-18T09:38:49.218Z</time></trkpt><trkpt lat="43.5120534" lon="11.4241536"><ele>631.0</ele><time>2026-04-18T09:38:50.218Z</time></trkpt><trkpt lat="43.5121325" lon="11.4241292"><ele>631.0</ele><time>2026-04-18T09:38:52.217Z</time></trkpt><trkpt lat="43.5121859" lon="11.4241832"><ele>631.0</ele><time>2026-04-18T09:48:29.217Z</time></trkpt><trkpt lat="43.5122598" lon="11.4242867"><ele>631.0</ele><time>2026-04-18T09:48:31.217Z</time></trkpt><trkpt lat="43.5123063" lon="11.4243513"><ele>631.0</ele><time>2026-04-18T09:48:32.217Z</time></trkpt><trkpt lat="43.5123597" lon="11.4244198"><ele>632.0</ele><time>2026-04-18T09:48:33.217Z</time></trkpt><trkpt lat="43.5124152" lon="11.4244806"><ele>633.0</ele><time>2026-04-18T09:48:34.216Z</time></trkpt><trkpt lat="43.5124649" lon="11.4245479"><ele>634.0</ele><time>2026-04-18T09:48:35.217Z</time></trkpt><trkpt lat="43.5125165" lon="11.4246187"><ele>635.0</ele><time>2026-04-18T09:48:36.216Z</time></trkpt><trkpt lat="43.5125708" lon="11.4246795"><ele>636.0</ele><time>2026-04-18T09:48:37.217Z</time></trkpt><trkpt lat="43.51266" lon="11.4247761"><ele>637.0</ele><time>2026-04-18T09:48:39.217Z</time></trkpt><trkpt lat="43.5127237" lon="11.4248981"><ele>638.25</ele><time>2026-04-18T09:48:41.216Z</time></trkpt><trkpt lat="43.5127657" lon="11.4250329"><ele>639.5</ele><time>2026-04-18T09:48:43.217Z</time></trkpt><trkpt lat="43.5128405" lon="11.4251422"><ele>640.75</ele><time>2026-04-18T09:48:45.218Z</time></trkpt><trkpt lat="43.5129378" lon="11.4252415"><ele>642.0</ele><time>2026-04-18T09:48:47.217Z</time></trkpt><trkpt lat="43.5130383" lon="11.425332"><ele>642.0</ele><time>2026-04-18T09:48:49.217Z</time></trkpt><trkpt lat="43.5131342" lon="11.4254016"><ele>642.0</ele><time>2026-04-18T09:48:51.217Z</time></trkpt><trkpt lat="43.5132261" lon="11.4254884"><ele>642.0</ele><time>2026-04-18T09:48:53.217Z</time></trkpt><trkpt lat="43.5133034" lon="11.4255939"><ele>642.0</ele><time>2026-04-18T09:48:55.217Z</time></trkpt><trkpt lat="43.5133727" lon="11.4257194"><ele>642.0</ele><time>2026-04-18T09:48:57.217Z</time></trkpt><trkpt lat="43.5134216" lon="11.4258672"><ele>646.4000000000001</ele><time>2026-04-18T09:48:59.217Z</time></trkpt><trkpt lat="43.5134827" lon="11.4260011"><ele>650.8000000000001</ele><time>2026-04-18T09:49:01.216Z</time></trkpt><trkpt lat="43.5135501" lon="11.4261158"><ele>655.2</ele><time>2026-04-18T09:49:03.216Z</time></trkpt><trkpt lat="43.5136417" lon="11.4262086"><ele>659.6</ele><time>2026-04-18T09:49:05.217Z</time></trkpt><trkpt lat="43.5136958" lon="11.4262548"><ele>664.0</ele><time>2026-04-18T09:49:06.217Z</time></trkpt><trkpt lat="43.5137441" lon="11.4263648"><ele>669.0</ele><time>2026-04-18T09:49:08.217Z</time></trkpt><trkpt lat="43.5138284" lon="11.4264686"><ele>674.0</ele><time>2026-04-18T09:49:10.216Z</time></trkpt><trkpt lat="43.5139409" lon="11.4265304"><ele>679.0</ele><time>2026-04-18T09:49:12.217Z</time></trkpt><trkpt lat="43.514055" lon="11.426572"><ele>684.0</ele><time>2026-04-18T09:49:14.217Z</time></trkpt><trkpt lat="43.5141579" lon="11.4265532"><ele>684.0</ele><time>2026-04-18T09:49:16.217Z</time></trkpt><trkpt lat="43.514263" lon="11.4265358"><ele>684.0</ele><time>2026-04-18T09:49:18.217Z</time></trkpt><trkpt lat="43.5143673" lon="11.4265228"><ele>684.0</ele><time>2026-04-18T09:49:20.217Z</time></trkpt><trkpt lat="43.5144901" lon="11.426531"><ele>684.0</ele><time>2026-04-18T09:49:22.217Z</time></trkpt><trkpt lat="43.5145853" lon="11.4265746"><ele>684.0</ele><time>2026-04-18T09:49:24.217Z</time></trkpt><trkpt lat="43.5145493" lon="11.4266537"><ele>684.0</ele><time>2026-04-18T09:49:52.217Z</time></trkpt><trkpt lat="43.5143899" lon="11.426555"><ele>684.0</ele><time>2026-04-18T09:49:54.217Z</time></trkpt><trkpt lat="43.5143234" lon="11.4265599"><ele>684.0</ele><time>2026-04-18T09:49:56.217Z</time></trkpt><trkpt lat="43.5142586" lon="11.426571"><ele>684.0</ele><time>2026-04-18T09:49:58.215Z</time></trkpt><trkpt lat="43.514184" lon="11.4265731"><ele>684.0</ele><time>2026-04-18T09:50:00.217Z</time></trkpt><trkpt lat="43.5141101" lon="11.4265711"><ele>684.0</ele><time>2026-04-18T09:50:02.217Z</time></trkpt><trkpt lat="43.5139983" lon="11.4265724"><ele>684.0</ele><time>2026-04-18T09:50:04.216Z</time></trkpt><trkpt lat="43.5138922" lon="11.4265162"><ele>684.0</ele><time>2026-04-18T09:50:06.217Z</time></trkpt><trkpt lat="43.5138098" lon="11.4264419"><ele>684.0</ele><time>2026-04-18T09:50:08.216Z</time></trkpt><trkpt lat="43.5137435" lon="11.4263536"><ele>684.0</ele><time>2026-04-18T09:50:10.217Z</time></trkpt><trkpt lat="43.5136841" lon="11.426246"><ele>680.0</ele><time>2026-04-18T09:50:12.216Z</time></trkpt><trkpt lat="43.5135922" lon="11.426162"><ele>676.0</ele><time>2026-04-18T09:50:14.216Z</time></trkpt><trkpt lat="43.5135045" lon="11.4260572"><ele>672.0</ele><time>2026-04-18T09:50:16.217Z</time></trkpt><trkpt lat="43.513458" lon="11.4259631"><ele>668.0</ele><time>2026-04-18T09:50:18.217Z</time></trkpt><trkpt lat="43.513414" lon="11.4258336"><ele>664.0</ele><time>2026-04-18T09:50:20.217Z</time></trkpt><trkpt lat="43.5133528" lon="11.42569"><ele>664.0</ele><time>2026-04-18T09:50:22.217Z</time></trkpt><trkpt lat="43.5132726" lon="11.4255712"><ele>664.0</ele><time>2026-04-18T09:50:24.216Z</time></trkpt><trkpt lat="43.5131861" lon="11.4254618"><ele>664.0</ele><time>2026-04-18T09:50:26.217Z</time></trkpt><trkpt lat="43.5130851" lon="11.4253807"><ele>664.0</ele><time>2026-04-18T09:50:28.215Z</time></trkpt><trkpt lat="43.5129879" lon="11.4252985"><ele>661.2</ele><time>2026-04-18T09:50:30.217Z</time></trkpt><trkpt lat="43.512939" lon="11.4252354"><ele>658.4000000000001</ele><time>2026-04-18T09:50:31.217Z</time></trkpt><trkpt lat="43.512856" lon="11.4251451"><ele>655.6</ele><time>2026-04-18T09:50:33.216Z</time></trkpt><trkpt lat="43.5128159" lon="11.4250756"><ele>652.8</ele><time>2026-04-18T09:50:34.217Z</time></trkpt><trkpt lat="43.5127659" lon="11.424933"><ele>650.0</ele><time>2026-04-18T09:50:36.217Z</time></trkpt><trkpt lat="43.5126977" lon="11.4248021"><ele>650.0</ele><time>2026-04-18T09:50:38.217Z</time></trkpt><trkpt lat="43.5126108" lon="11.4247233"><ele>650.0</ele><time>2026-04-18T09:50:40.216Z</time></trkpt><trkpt lat="43.5125236" lon="11.4246411"><ele>650.0</ele><time>2026-04-18T09:50:42.216Z</time></trkpt><trkpt lat="43.5124733" lon="11.4245694"><ele>650.0</ele><time>2026-04-18T09:50:44.215Z</time></trkpt><trkpt lat="43.5125348" lon="11.4245133"><ele>650.0</ele><time>2026-04-18T09:50:49.217Z</time></trkpt><trkpt lat="43.5126128" lon="11.4245455"><ele>650.0</ele><time>2026-04-18T09:50:51.216Z</time></trkpt><trkpt lat="43.5126895" lon="11.4246079"><ele>650.0</ele><time>2026-04-18T09:50:53.216Z</time></trkpt><trkpt lat="43.5127586" lon="11.4246835"><ele>650.0</ele><time>2026-04-18T09:50:55.216Z</time></trkpt><trkpt lat="43.5127993" lon="11.4247874"><ele>650.0</ele><time>2026-04-18T09:50:57.217Z</time></trkpt><trkpt lat="43.5128596" lon="11.424909"><ele>650.0</ele><time>2026-04-18T09:50:59.217Z</time></trkpt><trkpt lat="43.512938" lon="11.4250088"><ele>650.0</ele><time>2026-04-18T09:51:01.216Z</time></trkpt><trkpt lat="43.513" lon="11.425078"><ele>648.4</ele><time>2026-04-18T09:51:03.217Z</time></trkpt><trkpt lat="43.513069" lon="11.425128"><ele>646.8</ele><time>2026-04-18T09:51:05.216Z</time></trkpt><trkpt lat="43.5131303" lon="11.4251585"><ele>645.2</ele><time>2026-04-18T09:51:13.216Z</time></trkpt><trkpt lat="43.5131533" lon="11.4252578"><ele>643.6</ele><time>2026-04-18T09:51:16.216Z</time></trkpt><trkpt lat="43.5133393" lon="11.4253659"><ele>642.0</ele><time>2026-04-18T09:51:19.217Z</time></trkpt><trkpt lat="43.5134184" lon="11.4254343"><ele>645.3333333333334</ele><time>2026-04-18T09:51:21.216Z</time></trkpt><trkpt lat="43.5134863" lon="11.4255081"><ele>648.6666666666666</ele><time>2026-04-18T09:51:23.216Z</time></trkpt><trkpt lat="43.5135489" lon="11.4255847"><ele>652.0</ele><time>2026-04-18T09:51:25.217Z</time></trkpt><trkpt lat="43.5136126" lon="11.4256319"><ele>655.3333333333333</ele><time>2026-04-18T09:51:27.217Z</time></trkpt><trkpt lat="43.5136756" lon="11.4256433"><ele>658.6666666666666</ele><time>2026-04-18T09:51:29.217Z</time></trkpt><trkpt lat="43.5137451" lon="11.4256851"><ele>662.0</ele><time>2026-04-18T09:51:31.217Z</time></trkpt><trkpt lat="43.5138183" lon="11.4257112"><ele>662.0</ele><time>2026-04-18T09:51:33.217Z</time></trkpt><trkpt lat="43.513898" lon="11.4257011"><ele>662.0</ele><time>2026-04-18T09:51:35.216Z</time></trkpt><trkpt lat="43.5139734" lon="11.4256853"><ele>662.0</ele><time>2026-04-18T09:51:37.217Z</time></trkpt><trkpt lat="43.5140396" lon="11.4256382"><ele>662.0</ele><time>2026-04-18T09:51:41.216Z</time></trkpt><trkpt lat="43.5140856" lon="11.4255597"><ele>662.0</ele><time>2026-04-18T09:51:46.217Z</time></trkpt><trkpt lat="43.514175" lon="11.4255079"><ele>662.0</ele><time>2026-04-18T09:51:49.217Z</time></trkpt><trkpt lat="43.5142487" lon="11.4254868"><ele>662.0</ele><time>2026-04-18T09:51:51.217Z</time></trkpt><trkpt lat="43.5143403" lon="11.4255019"><ele>662.0</ele><time>2026-04-18T09:51:53.215Z</time></trkpt><trkpt lat="43.5144369" lon="11.4255495"><ele>662.0</ele><time>2026-04-18T09:51:55.216Z</time></trkpt><trkpt lat="43.5145142" lon="11.425617"><ele>662.0</ele><time>2026-04-18T09:51:57.217Z</time></trkpt><trkpt lat="43.5146011" lon="11.4256897"><ele>662.0</ele><time>2026-04-18T09:51:59.217Z</time></trkpt><trkpt lat="43.5146874" lon="11.4257388"><ele>661.2857142857143</ele><time>2026-04-18T09:52:01.216Z</time></trkpt><trkpt lat="43.5147534" lon="11.4257751"><ele>660.5714285714286</ele><time>2026-04-18T09:52:03.216Z</time></trkpt><trkpt lat="43.5148091" lon="11.4258414"><ele>659.8571428571429</ele><time>2026-04-18T09:52:06.217Z</time></trkpt><trkpt lat="43.5148557" lon="11.4259072"><ele>659.1428571428571</ele><time>2026-04-18T09:52:08.216Z</time></trkpt><trkpt lat="43.5149116" lon="11.4259612"><ele>658.4285714285714</ele><time>2026-04-18T09:52:10.217Z</time></trkpt><trkpt lat="43.5149861" lon="11.4259878"><ele>657.7142857142857</ele><time>2026-04-18T09:52:12.217Z</time></trkpt><trkpt lat="43.5150641" lon="11.4260249"><ele>657.0</ele><time>2026-04-18T09:52:16.217Z</time></trkpt><trkpt lat="43.5151416" lon="11.4260428"><ele>657.0</ele><time>2026-04-18T09:52:19.217Z</time></trkpt><trkpt lat="43.5152142" lon="11.4259773"><ele>657.0</ele><time>2026-04-18T09:52:21.217Z</time></trkpt><trkpt lat="43.5152876" lon="11.4258829"><ele>657.0</ele><time>2026-04-18T09:52:23.217Z</time></trkpt><trkpt lat="43.5153336" lon="11.4257602"><ele>657.0</ele><time>2026-04-18T09:52:25.217Z</time></trkpt><trkpt lat="43.5153514" lon="11.4256352"><ele>657.0</ele><time>2026-04-18T09:52:27.215Z</time></trkpt><trkpt lat="43.5153788" lon="11.4255246"><ele>656.6666666666666</ele><time>2026-04-18T09:52:29.217Z</time></trkpt><trkpt lat="43.5154112" lon="11.4254188"><ele>656.3333333333334</ele><time>2026-04-18T09:52:31.216Z</time></trkpt><trkpt lat="43.5154536" lon="11.4253174"><ele>656.0</ele><time>2026-04-18T09:52:33.216Z</time></trkpt><trkpt lat="43.5155057" lon="11.4252244"><ele>655.6666666666667</ele><time>2026-04-18T09:52:35.215Z</time></trkpt><trkpt lat="43.5155469" lon="11.4251458"><ele>655.3333333333334</ele><time>2026-04-18T09:52:36.215Z</time></trkpt><trkpt lat="43.5155975" lon="11.4250519"><ele>655.0</ele><time>2026-04-18T09:52:38.215Z</time></trkpt><trkpt lat="43.5156519" lon="11.4249735"><ele>655.0</ele><time>2026-04-18T09:52:40.217Z</time></trkpt><trkpt lat="43.5157116" lon="11.4249364"><ele>655.0</ele><time>2026-04-18T09:52:43.216Z</time></trkpt><trkpt lat="43.5157871" lon="11.4249169"><ele>655.0</ele><time>2026-04-18T09:53:17.216Z</time></trkpt><trkpt lat="43.5158604" lon="11.4249265"><ele>655.0</ele><time>2026-04-18T09:53:19.216Z</time></trkpt><trkpt lat="43.5159474" lon="11.4249123"><ele>655.0</ele><time>2026-04-18T09:53:21.216Z</time></trkpt><trkpt lat="43.5160546" lon="11.4248651"><ele>655.0</ele><time>2026-04-18T09:53:23.216Z</time></trkpt><trkpt lat="43.5161636" lon="11.4248142"><ele>654.3333333333334</ele><time>2026-04-18T09:53:25.216Z</time></trkpt><trkpt lat="43.5162706" lon="11.4247957"><ele>653.6666666666667</ele><time>2026-04-18T09:53:27.217Z</time></trkpt><trkpt lat="43.5163543" lon="11.4248029"><ele>653.0</ele><time>2026-04-18T09:53:29.217Z</time></trkpt><trkpt lat="43.5164406" lon="11.4248329"><ele>652.3333333333334</ele><time>2026-04-18T09:53:31.217Z</time></trkpt><trkpt lat="43.5165108" lon="11.4248802"><ele>651.6666666666666</ele><time>2026-04-18T09:53:33.216Z</time></trkpt><trkpt lat="43.5165761" lon="11.4249163"><ele>651.0</ele><time>2026-04-18T09:53:35.215Z</time></trkpt><trkpt lat="43.5166544" lon="11.4249609"><ele>651.0</ele><time>2026-04-18T09:53:37.216Z</time></trkpt><trkpt lat="43.5167545" lon="11.4249508"><ele>651.0</ele><time>2026-04-18T09:53:39.216Z</time></trkpt><trkpt lat="43.5168487" lon="11.4249129"><ele>651.0</ele><time>2026-04-18T09:53:41.217Z</time></trkpt><trkpt lat="43.5169232" lon="11.4249131"><ele>651.0</ele><time>2026-04-18T09:53:43.216Z</time></trkpt><trkpt lat="43.5169879" lon="11.4249726"><ele>651.0</ele><time>2026-04-18T09:53:45.216Z</time></trkpt><trkpt lat="43.5170667" lon="11.425022"><ele>651.0</ele><time>2026-04-18T09:53:47.216Z</time></trkpt><trkpt lat="43.5171198" lon="11.4250754"><ele>650.3333333333334</ele><time>2026-04-18T09:53:49.217Z</time></trkpt><trkpt lat="43.5171973" lon="11.4251309"><ele>649.6666666666666</ele><time>2026-04-18T09:53:52.216Z</time></trkpt><trkpt lat="43.5172767" lon="11.4250758"><ele>649.0</ele><time>2026-04-18T09:53:55.215Z</time></trkpt><trkpt lat="43.5173258" lon="11.4250087"><ele>648.3333333333333</ele><time>2026-04-18T09:53:56.215Z</time></trkpt><trkpt lat="43.5173775" lon="11.4249586"><ele>647.6666666666666</ele><time>2026-04-18T09:53:57.217Z</time></trkpt><trkpt lat="43.5174794" lon="11.4248922"><ele>647.0</ele><time>2026-04-18T09:53:59.217Z</time></trkpt><trkpt lat="43.5175424" lon="11.4248599"><ele>647.0</ele><time>2026-04-18T09:54:00.217Z</time></trkpt><trkpt lat="43.5176336" lon="11.4247689"><ele>647.0</ele><time>2026-04-18T09:54:02.217Z</time></trkpt><trkpt lat="43.5177158" lon="11.424689"><ele>647.0</ele><time>2026-04-18T09:54:04.216Z</time></trkpt><trkpt lat="43.5178111" lon="11.4246963"><ele>647.0</ele><time>2026-04-18T09:54:06.215Z</time></trkpt><trkpt lat="43.5178688" lon="11.4247321"><ele>647.0</ele><time>2026-04-18T09:54:07.216Z</time></trkpt><trkpt lat="43.5179728" lon="11.4248289"><ele>648.6666666666666</ele><time>2026-04-18T09:54:09.215Z</time></trkpt><trkpt lat="43.5180171" lon="11.4248915"><ele>650.3333333333333</ele><time>2026-04-18T09:54:10.215Z</time></trkpt><trkpt lat="43.5181057" lon="11.4249573"><ele>652.0</ele><time>2026-04-18T09:54:12.216Z</time></trkpt><trkpt lat="43.5181972" lon="11.4249464"><ele>653.6666666666666</ele><time>2026-04-18T09:54:14.217Z</time></trkpt><trkpt lat="43.5182874" lon="11.4248876"><ele>655.3333333333334</ele><time>2026-04-18T09:54:16.216Z</time></trkpt><trkpt lat="43.5183733" lon="11.4248438"><ele>657.0</ele><time>2026-04-18T09:54:18.216Z</time></trkpt><trkpt lat="43.5184642" lon="11.4247928"><ele>657.0</ele><time>2026-04-18T09:54:20.216Z</time></trkpt><trkpt lat="43.5185437" lon="11.4247464"><ele>657.0</ele><time>2026-04-18T09:54:22.216Z</time></trkpt><trkpt lat="43.5186097" lon="11.4246847"><ele>657.0</ele><time>2026-04-18T09:54:24.216Z</time></trkpt><trkpt lat="43.5186858" lon="11.4246385"><ele>657.0</ele><time>2026-04-18T09:54:26.217Z</time></trkpt><trkpt lat="43.5187758" lon="11.4245771"><ele>657.0</ele><time>2026-04-18T09:54:28.216Z</time></trkpt><trkpt lat="43.5188818" lon="11.4245705"><ele>656.8333333333334</ele><time>2026-04-18T09:54:30.216Z</time></trkpt><trkpt lat="43.5189458" lon="11.4245945"><ele>656.6666666666666</ele><time>2026-04-18T09:54:31.217Z</time></trkpt><trkpt lat="43.5190147" lon="11.4246308"><ele>656.5</ele><time>2026-04-18T09:54:32.215Z</time></trkpt><trkpt lat="43.5190865" lon="11.4246871"><ele>656.3333333333333</ele><time>2026-04-18T09:54:33.217Z</time></trkpt><trkpt lat="43.5191494" lon="11.4247444"><ele>656.1666666666666</ele><time>2026-04-18T09:54:34.216Z</time></trkpt><trkpt lat="43.5192199" lon="11.4247977"><ele>656.0</ele><time>2026-04-18T09:54:35.216Z</time></trkpt><trkpt lat="43.519281" lon="11.4248556"><ele>656.0</ele><time>2026-04-18T09:54:36.216Z</time></trkpt><trkpt lat="43.5193365" lon="11.4249077"><ele>656.0</ele><time>2026-04-18T09:54:37.215Z</time></trkpt><trkpt lat="43.5193902" lon="11.424961"><ele>656.0</ele><time>2026-04-18T09:54:38.217Z</time></trkpt><trkpt lat="43.519468" lon="11.4250711"><ele>656.0</ele><time>2026-04-18T09:54:40.217Z</time></trkpt><trkpt lat="43.5195642" lon="11.4251623"><ele>656.0</ele><time>2026-04-18T09:54:42.216Z</time></trkpt><trkpt lat="43.5196175" lon="11.4252144"><ele>656.0</ele><time>2026-04-18T09:54:43.216Z</time></trkpt><trkpt lat="43.5196729" lon="11.425261"><ele>655.0</ele><time>2026-04-18T09:54:44.216Z</time></trkpt><trkpt lat="43.5197868" lon="11.4253437"><ele>654.0</ele><time>2026-04-18T09:54:46.216Z</time></trkpt><trkpt lat="43.5198538" lon="11.4254635"><ele>653.0</ele><time>2026-04-18T09:54:48.216Z</time></trkpt><trkpt lat="43.5198984" lon="11.425554"><ele>652.0</ele><time>2026-04-18T09:54:50.216Z</time></trkpt><trkpt lat="43.5199859" lon="11.4255453"><ele>651.0</ele><time>2026-04-18T09:54:53.217Z</time></trkpt><trkpt lat="43.5200746" lon="11.4254956"><ele>651.0</ele><time>2026-04-18T09:54:55.216Z</time></trkpt><trkpt lat="43.5201591" lon="11.4254294"><ele>651.0</ele><time>2026-04-18T09:54:57.216Z</time></trkpt><trkpt lat="43.5202425" lon="11.4253584"><ele>651.0</ele><time>2026-04-18T09:54:59.216Z</time></trkpt><trkpt lat="43.5203509" lon="11.4252921"><ele>651.0</ele><time>2026-04-18T09:55:01.217Z</time></trkpt><trkpt lat="43.5204078" lon="11.4252503"><ele>651.0</ele><time>2026-04-18T09:55:02.215Z</time></trkpt><trkpt lat="43.5205203" lon="11.4251561"><ele>650.6666666666666</ele><time>2026-04-18T09:55:04.215Z</time></trkpt><trkpt lat="43.5205884" lon="11.4251065"><ele>650.3333333333334</ele><time>2026-04-18T09:55:05.216Z</time></trkpt><trkpt lat="43.5206505" lon="11.4250562"><ele>650.0</ele><time>2026-04-18T09:55:06.215Z</time></trkpt><trkpt lat="43.5207146" lon="11.4250055"><ele>649.6666666666667</ele><time>2026-04-18T09:55:07.216Z</time></trkpt><trkpt lat="43.5207762" lon="11.4249602"><ele>649.3333333333334</ele><time>2026-04-18T09:55:08.217Z</time></trkpt><trkpt lat="43.5208586" lon="11.4248576"><ele>649.0</ele><time>2026-04-18T09:55:10.216Z</time></trkpt><trkpt lat="43.5209066" lon="11.4247386"><ele>647.6</ele><time>2026-04-18T09:55:12.216Z</time></trkpt><trkpt lat="43.5209535" lon="11.4246131"><ele>646.2</ele><time>2026-04-18T09:55:14.216Z</time></trkpt><trkpt lat="43.5210067" lon="11.4245045"><ele>644.8000000000001</ele><time>2026-04-18T09:55:16.216Z</time></trkpt><trkpt lat="43.5210437" lon="11.4243828"><ele>643.4000000000001</ele><time>2026-04-18T09:55:18.216Z</time></trkpt><trkpt lat="43.5210292" lon="11.4242396"><ele>642.0</ele><time>2026-04-18T09:55:20.216Z</time></trkpt><trkpt lat="43.5209802" lon="11.4240686"><ele>641.9999999999999</ele><time>2026-04-18T09:55:22.216Z</time></trkpt><trkpt lat="43.5209493" lon="11.4239808"><ele>642.0</ele><time>2026-04-18T09:55:23.215Z</time></trkpt><trkpt lat="43.520911" lon="11.4238916"><ele>642.0</ele><time>2026-04-18T09:55:24.217Z</time></trkpt><trkpt lat="43.5208628" lon="11.4238106"><ele>642.0</ele><time>2026-04-18T09:55:25.215Z</time></trkpt><trkpt lat="43.5208174" lon="11.4237279"><ele>642.0</ele><time>2026-04-18T09:55:26.216Z</time></trkpt><trkpt lat="43.5207843" lon="11.4236373"><ele>641.9999999999999</ele><time>2026-04-18T09:55:27.216Z</time></trkpt><trkpt lat="43.5207591" lon="11.4235419"><ele>642.0</ele><time>2026-04-18T09:55:28.217Z</time></trkpt><trkpt lat="43.5207511" lon="11.4234386"><ele>640.5</ele><time>2026-04-18T09:55:29.217Z</time></trkpt><trkpt lat="43.5207441" lon="11.4233417"><ele>639.0</ele><time>2026-04-18T09:55:30.217Z</time></trkpt><trkpt lat="43.5207538" lon="11.4232454"><ele>637.5</ele><time>2026-04-18T09:55:31.216Z</time></trkpt><trkpt lat="43.5207816" lon="11.4231328"><ele>636.0</ele><time>2026-04-18T09:55:32.215Z</time></trkpt><trkpt lat="43.5208145" lon="11.4230072"><ele>634.5</ele><time>2026-04-18T09:55:33.217Z</time></trkpt><trkpt lat="43.5208463" lon="11.4228614"><ele>633.0</ele><time>2026-04-18T09:55:34.216Z</time></trkpt><trkpt lat="43.5208752" lon="11.4227055"><ele>632.3333333333334</ele><time>2026-04-18T09:55:35.216Z</time></trkpt><trkpt lat="43.5208992" lon="11.4225617"><ele>631.6666666666666</ele><time>2026-04-18T09:55:36.217Z</time></trkpt><trkpt lat="43.5209378" lon="11.4224227"><ele>631.0</ele><time>2026-04-18T09:55:37.217Z</time></trkpt><trkpt lat="43.5209692" lon="11.4223076"><ele>630.3333333333333</ele><time>2026-04-18T09:55:38.216Z</time></trkpt><trkpt lat="43.521012" lon="11.4222314"><ele>629.6666666666666</ele><time>2026-04-18T09:55:39.216Z</time></trkpt><trkpt lat="43.5210711" lon="11.4221772"><ele>629.0</ele><time>2026-04-18T09:55:40.216Z</time></trkpt><trkpt lat="43.5211353" lon="11.4221335"><ele>628.8333333333333</ele><time>2026-04-18T09:55:41.216Z</time></trkpt><trkpt lat="43.5212073" lon="11.4220779"><ele>628.6666666666666</ele><time>2026-04-18T09:55:42.217Z</time></trkpt><trkpt lat="43.5212693" lon="11.4220013"><ele>628.5</ele><time>2026-04-18T09:55:43.217Z</time></trkpt><trkpt lat="43.5213118" lon="11.4219101"><ele>628.3333333333334</ele><time>2026-04-18T09:55:44.216Z</time></trkpt><trkpt lat="43.5213546" lon="11.4218204"><ele>628.1666666666667</ele><time>2026-04-18T09:55:45.215Z</time></trkpt><trkpt lat="43.5214571" lon="11.4217267"><ele>628.0</ele><time>2026-04-18T09:55:47.217Z</time></trkpt><trkpt lat="43.5215208" lon="11.4216947"><ele>629.8333333333334</ele><time>2026-04-18T09:55:48.216Z</time></trkpt><trkpt lat="43.521594" lon="11.4216632"><ele>631.6666666666667</ele><time>2026-04-18T09:55:49.216Z</time></trkpt><trkpt lat="43.5216707" lon="11.4216278"><ele>633.5</ele><time>2026-04-18T09:55:50.216Z</time></trkpt><trkpt lat="43.5217588" lon="11.4216024"><ele>635.3333333333334</ele><time>2026-04-18T09:55:51.216Z</time></trkpt><trkpt lat="43.5218439" lon="11.4215828"><ele>637.1666666666666</ele><time>2026-04-18T09:55:52.216Z</time></trkpt><trkpt lat="43.5219283" lon="11.4215782"><ele>639.0</ele><time>2026-04-18T09:55:53.216Z</time></trkpt><trkpt lat="43.5220105" lon="11.4215729"><ele>640.3333333333334</ele><time>2026-04-18T09:55:54.216Z</time></trkpt><trkpt lat="43.5220784" lon="11.4215474"><ele>641.6666666666666</ele><time>2026-04-18T09:55:55.215Z</time></trkpt><trkpt lat="43.522159" lon="11.4214787"><ele>643.0</ele><time>2026-04-18T09:55:57.216Z</time></trkpt><trkpt lat="43.5221689" lon="11.4213644"><ele>644.3333333333333</ele><time>2026-04-18T09:56:00.215Z</time></trkpt><trkpt lat="43.522189" lon="11.4212194"><ele>645.6666666666666</ele><time>2026-04-18T09:56:02.216Z</time></trkpt><trkpt lat="43.5222066" lon="11.4211258"><ele>647.0</ele><time>2026-04-18T09:56:03.216Z</time></trkpt><trkpt lat="43.5222269" lon="11.4210143"><ele>647.0</ele><time>2026-04-18T09:56:04.215Z</time></trkpt><trkpt lat="43.5222458" lon="11.4209103"><ele>647.0</ele><time>2026-04-18T09:56:05.216Z</time></trkpt><trkpt lat="43.5222689" lon="11.4208064"><ele>647.0</ele><time>2026-04-18T09:56:06.216Z</time></trkpt><trkpt lat="43.5222898" lon="11.4207067"><ele>647.0</ele><time>2026-04-18T09:56:07.215Z</time></trkpt><trkpt lat="43.5223226" lon="11.4206071"><ele>647.0</ele><time>2026-04-18T09:56:09.216Z</time></trkpt><trkpt lat="43.5222785" lon="11.4207163"><ele>647.0</ele><time>2026-04-18T09:56:19.216Z</time></trkpt><trkpt lat="43.5222648" lon="11.4208024"><ele>647.0</ele><time>2026-04-18T09:56:20.216Z</time></trkpt><trkpt lat="43.5222408" lon="11.4209139"><ele>647.0</ele><time>2026-04-18T09:56:21.216Z</time></trkpt><trkpt lat="43.5222155" lon="11.4210206"><ele>647.0</ele><time>2026-04-18T09:56:22.216Z</time></trkpt><trkpt lat="43.5221964" lon="11.4211257"><ele>647.0</ele><time>2026-04-18T09:56:23.217Z</time></trkpt><trkpt lat="43.5221746" lon="11.4212202"><ele>647.0</ele><time>2026-04-18T09:56:24.216Z</time></trkpt><trkpt lat="43.5221507" lon="11.4213524"><ele>647.0</ele><time>2026-04-18T09:56:26.215Z</time></trkpt><trkpt lat="43.5221744" lon="11.4214334"><ele>647.8333333333333</ele><time>2026-04-18T09:56:28.216Z</time></trkpt><trkpt lat="43.5222544" lon="11.4214432"><ele>648.6666666666666</ele><time>2026-04-18T09:56:31.215Z</time></trkpt><trkpt lat="43.5223258" lon="11.4213854"><ele>649.5</ele><time>2026-04-18T09:56:33.215Z</time></trkpt><trkpt lat="43.5224013" lon="11.42133"><ele>650.3333333333334</ele><time>2026-04-18T09:56:35.216Z</time></trkpt><trkpt lat="43.5224852" lon="11.421348"><ele>651.1666666666667</ele><time>2026-04-18T09:56:37.216Z</time></trkpt><trkpt lat="43.5225857" lon="11.4213455"><ele>652.0</ele><time>2026-04-18T09:56:39.216Z</time></trkpt><trkpt lat="43.5226944" lon="11.4214008"><ele>652.0</ele><time>2026-04-18T09:56:41.215Z</time></trkpt><trkpt lat="43.5227531" lon="11.421433"><ele>652.0</ele><time>2026-04-18T09:56:42.215Z</time></trkpt><trkpt lat="43.5228169" lon="11.4214706"><ele>652.0</ele><time>2026-04-18T09:56:43.215Z</time></trkpt><trkpt lat="43.522885" lon="11.4215092"><ele>652.0</ele><time>2026-04-18T09:56:44.216Z</time></trkpt><trkpt lat="43.5229564" lon="11.4215465"><ele>652.0</ele><time>2026-04-18T09:56:45.216Z</time></trkpt><trkpt lat="43.52303" lon="11.4215673"><ele>652.0</ele><time>2026-04-18T09:56:46.216Z</time></trkpt><trkpt lat="43.5230981" lon="11.4215636"><ele>652.0</ele><time>2026-04-18T09:56:47.215Z</time></trkpt><trkpt lat="43.5231621" lon="11.4215519"><ele>654.3333333333334</ele><time>2026-04-18T09:56:48.216Z</time></trkpt><trkpt lat="43.5232865" lon="11.42156"><ele>656.6666666666667</ele><time>2026-04-18T09:56:50.216Z</time></trkpt><trkpt lat="43.5233522" lon="11.421576"><ele>659.0</ele><time>2026-04-18T09:56:51.216Z</time></trkpt><trkpt lat="43.5234223" lon="11.4215909"><ele>661.3333333333334</ele><time>2026-04-18T09:56:52.216Z</time></trkpt><trkpt lat="43.5234972" lon="11.4216094"><ele>663.6666666666666</ele><time>2026-04-18T09:56:53.216Z</time></trkpt><trkpt lat="43.5235776" lon="11.4216175"><ele>666.0</ele><time>2026-04-18T09:56:54.216Z</time></trkpt><trkpt lat="43.523656" lon="11.4216153"><ele>667.1666666666666</ele><time>2026-04-18T09:56:55.215Z</time></trkpt><trkpt lat="43.5237347" lon="11.4216034"><ele>668.3333333333334</ele><time>2026-04-18T09:56:56.216Z</time></trkpt><trkpt lat="43.5238107" lon="11.4215925"><ele>669.5</ele><time>2026-04-18T09:56:57.216Z</time></trkpt><trkpt lat="43.5238874" lon="11.4215829"><ele>670.6666666666667</ele><time>2026-04-18T09:56:58.215Z</time></trkpt><trkpt lat="43.5239554" lon="11.4215782"><ele>671.8333333333334</ele><time>2026-04-18T09:56:59.216Z</time></trkpt><trkpt lat="43.5240638" lon="11.4215817"><ele>673.0</ele><time>2026-04-18T09:57:01.215Z</time></trkpt><trkpt lat="43.5241373" lon="11.4216115"><ele>673.0</ele><time>2026-04-18T09:57:03.216Z</time></trkpt><trkpt lat="43.5240307" lon="11.4215951"><ele>673.0</ele><time>2026-04-18T09:57:51.216Z</time></trkpt><trkpt lat="43.5239454" lon="11.4215925"><ele>673.0</ele><time>2026-04-18T09:57:53.215Z</time></trkpt><trkpt lat="43.5238429" lon="11.4215965"><ele>673.0</ele><time>2026-04-18T09:57:55.216Z</time></trkpt><trkpt lat="43.5237473" lon="11.4216043"><ele>673.0</ele><time>2026-04-18T09:57:57.216Z</time></trkpt><trkpt lat="43.5236381" lon="11.4216056"><ele>671.5999999999999</ele><time>2026-04-18T09:57:59.215Z</time></trkpt><trkpt lat="43.5235182" lon="11.4216031"><ele>670.1999999999999</ele><time>2026-04-18T09:58:01.215Z</time></trkpt><trkpt lat="43.5233952" lon="11.4215984"><ele>668.8</ele><time>2026-04-18T09:58:03.216Z</time></trkpt><trkpt lat="43.5232976" lon="11.4215681"><ele>667.4</ele><time>2026-04-18T09:58:05.216Z</time></trkpt><trkpt lat="43.5232049" lon="11.4215406"><ele>666.0</ele><time>2026-04-18T09:58:07.215Z</time></trkpt><trkpt lat="43.5230937" lon="11.4215473"><ele>666.0</ele><time>2026-04-18T09:58:09.216Z</time></trkpt><trkpt lat="43.5230255" lon="11.4215536"><ele>666.0</ele><time>2026-04-18T09:58:10.216Z</time></trkpt><trkpt lat="43.5229509" lon="11.4215457"><ele>666.0</ele><time>2026-04-18T09:58:11.216Z</time></trkpt><trkpt lat="43.5228759" lon="11.421519"><ele>666.0</ele><time>2026-04-18T09:58:12.216Z</time></trkpt><trkpt lat="43.5227997" lon="11.4214762"><ele>666.0</ele><time>2026-04-18T09:58:13.216Z</time></trkpt><trkpt lat="43.5227307" lon="11.4214279"><ele>666.0</ele><time>2026-04-18T09:58:14.216Z</time></trkpt><trkpt lat="43.5226622" lon="11.4213843"><ele>663.6666666666666</ele><time>2026-04-18T09:58:15.216Z</time></trkpt><trkpt lat="43.5225959" lon="11.4213454"><ele>661.3333333333334</ele><time>2026-04-18T09:58:16.216Z</time></trkpt><trkpt lat="43.5225296" lon="11.4213141"><ele>659.0</ele><time>2026-04-18T09:58:17.216Z</time></trkpt><trkpt lat="43.5224635" lon="11.4213135"><ele>656.6666666666667</ele><time>2026-04-18T09:58:18.216Z</time></trkpt><trkpt lat="43.5223985" lon="11.4213334"><ele>654.3333333333334</ele><time>2026-04-18T09:58:19.216Z</time></trkpt><trkpt lat="43.5223317" lon="11.4213738"><ele>652.0</ele><time>2026-04-18T09:58:20.216Z</time></trkpt><trkpt lat="43.5222355" lon="11.421437"><ele>652.0</ele><time>2026-04-18T09:58:22.216Z</time></trkpt><trkpt lat="43.5221719" lon="11.4214755"><ele>652.0</ele><time>2026-04-18T09:58:24.216Z</time></trkpt><trkpt lat="43.5221459" lon="11.4213759"><ele>652.0</ele><time>2026-04-18T09:58:44.216Z</time></trkpt><trkpt lat="43.5220906" lon="11.4214414"><ele>652.0</ele><time>2026-04-18T09:58:56.216Z</time></trkpt><trkpt lat="43.5220607" lon="11.4215347"><ele>652.0</ele><time>2026-04-18T09:58:58.216Z</time></trkpt><trkpt lat="43.5219675" lon="11.4215786"><ele>652.0</ele><time>2026-04-18T09:59:00.216Z</time></trkpt><trkpt lat="43.5218416" lon="11.4215794"><ele>650.1428571428572</ele><time>2026-04-18T09:59:02.215Z</time></trkpt><trkpt lat="43.5217712" lon="11.4215863"><ele>648.2857142857142</ele><time>2026-04-18T09:59:03.216Z</time></trkpt><trkpt lat="43.5217011" lon="11.4216077"><ele>646.4285714285714</ele><time>2026-04-18T09:59:04.216Z</time></trkpt><trkpt lat="43.5216336" lon="11.4216396"><ele>644.5714285714287</ele><time>2026-04-18T09:59:05.216Z</time></trkpt><trkpt lat="43.5215657" lon="11.4216676"><ele>642.7142857142858</ele><time>2026-04-18T09:59:06.215Z</time></trkpt><trkpt lat="43.521495" lon="11.4216868"><ele>640.8571428571429</ele><time>2026-04-18T09:59:07.216Z</time></trkpt><trkpt lat="43.5214261" lon="11.4217126"><ele>639.0</ele><time>2026-04-18T09:59:08.216Z</time></trkpt><trkpt lat="43.5213305" lon="11.4218201"><ele>639.0</ele><time>2026-04-18T09:59:10.215Z</time></trkpt><trkpt lat="43.5213132" lon="11.421909"><ele>639.0</ele><time>2026-04-18T09:59:11.216Z</time></trkpt><trkpt lat="43.521273" lon="11.421999"><ele>639.0</ele><time>2026-04-18T09:59:12.215Z</time></trkpt><trkpt lat="43.5211864" lon="11.4220978"><ele>639.0</ele><time>2026-04-18T09:59:14.216Z</time></trkpt><trkpt lat="43.5210796" lon="11.4221615"><ele>639.0</ele><time>2026-04-18T09:59:16.216Z</time></trkpt><trkpt lat="43.5209913" lon="11.4222544"><ele>637.3333333333334</ele><time>2026-04-18T09:59:18.216Z</time></trkpt><trkpt lat="43.5209576" lon="11.4223316"><ele>635.6666666666666</ele><time>2026-04-18T09:59:19.217Z</time></trkpt><trkpt lat="43.5209285" lon="11.4224133"><ele>634.0</ele><time>2026-04-18T09:59:20.216Z</time></trkpt><trkpt lat="43.5209026" lon="11.4225178"><ele>632.3333333333333</ele><time>2026-04-18T09:59:21.216Z</time></trkpt><trkpt lat="43.5208882" lon="11.4226343"><ele>630.6666666666666</ele><time>2026-04-18T09:59:22.214Z</time></trkpt><trkpt lat="43.5208744" lon="11.4227455"><ele>629.0</ele><time>2026-04-18T09:59:23.216Z</time></trkpt><trkpt lat="43.5208482" lon="11.4228575"><ele>629.8</ele><time>2026-04-18T09:59:24.215Z</time></trkpt><trkpt lat="43.5208157" lon="11.4229991"><ele>630.5999999999999</ele><time>2026-04-18T09:59:25.216Z</time></trkpt><trkpt lat="43.5207789" lon="11.4231338"><ele>631.4</ele><time>2026-04-18T09:59:26.216Z</time></trkpt><trkpt lat="43.5207515" lon="11.4232605"><ele>632.1999999999999</ele><time>2026-04-18T09:59:27.216Z</time></trkpt><trkpt lat="43.5207375" lon="11.4233855"><ele>633.0</ele><time>2026-04-18T09:59:28.216Z</time></trkpt><trkpt lat="43.5207472" lon="11.4235003"><ele>633.0</ele><time>2026-04-18T09:59:29.214Z</time></trkpt><trkpt lat="43.5207711" lon="11.4235976"><ele>633.0</ele><time>2026-04-18T09:59:30.216Z</time></trkpt><trkpt lat="43.5208053" lon="11.4236861"><ele>633.0</ele><time>2026-04-18T09:59:31.215Z</time></trkpt><trkpt lat="43.5208495" lon="11.4237705"><ele>633.0</ele><time>2026-04-18T09:59:32.215Z</time></trkpt><trkpt lat="43.5208959" lon="11.4238455"><ele>633.0</ele><time>2026-04-18T09:59:33.215Z</time></trkpt><trkpt lat="43.5209377" lon="11.4239255"><ele>633.0</ele><time>2026-04-18T09:59:34.215Z</time></trkpt><trkpt lat="43.5209656" lon="11.4240112"><ele>633.0</ele><time>2026-04-18T09:59:35.214Z</time></trkpt><trkpt lat="43.5210045" lon="11.4241723"><ele>634.5</ele><time>2026-04-18T09:59:37.216Z</time></trkpt><trkpt lat="43.5210257" lon="11.4243189"><ele>636.0</ele><time>2026-04-18T09:59:39.216Z</time></trkpt><trkpt lat="43.5210372" lon="11.4244044"><ele>637.5</ele><time>2026-04-18T09:59:42.217Z</time></trkpt><trkpt lat="43.521007" lon="11.4245256"><ele>639.0</ele><time>2026-04-18T09:59:45.215Z</time></trkpt><trkpt lat="43.5209448" lon="11.4245903"><ele>640.5</ele><time>2026-04-18T09:59:47.215Z</time></trkpt><trkpt lat="43.5208727" lon="11.424634"><ele>642.0</ele><time>2026-04-18T09:59:49.215Z</time></trkpt><trkpt lat="43.5208533" lon="11.4247392"><ele>642.0</ele><time>2026-04-18T09:59:52.214Z</time></trkpt><trkpt lat="43.5209314" lon="11.424729"><ele>642.0</ele><time>2026-04-18T09:59:55.216Z</time></trkpt><trkpt lat="43.5209738" lon="11.4246179"><ele>642.0</ele><time>2026-04-18T09:59:57.216Z</time></trkpt><trkpt lat="43.5210227" lon="11.424495"><ele>642.0</ele><time>2026-04-18T09:59:59.215Z</time></trkpt><trkpt lat="43.5210436" lon="11.4243688"><ele>642.0</ele><time>2026-04-18T10:00:01.215Z</time></trkpt><trkpt lat="43.5210156" lon="11.4241936"><ele>642.0</ele><time>2026-04-18T10:00:03.216Z</time></trkpt><trkpt lat="43.5209896" lon="11.4240885"><ele>642.0</ele><time>2026-04-18T10:00:04.216Z</time></trkpt><trkpt lat="43.5209541" lon="11.4239807"><ele>642.0</ele><time>2026-04-18T10:00:05.215Z</time></trkpt><trkpt lat="43.5209069" lon="11.4238785"><ele>642.0</ele><time>2026-04-18T10:00:06.216Z</time></trkpt><trkpt lat="43.5208553" lon="11.4237757"><ele>642.0</ele><time>2026-04-18T10:00:07.215Z</time></trkpt><trkpt lat="43.5208078" lon="11.4236836"><ele>642.0</ele><time>2026-04-18T10:00:08.216Z</time></trkpt><trkpt lat="43.5207696" lon="11.4235936"><ele>640.5</ele><time>2026-04-18T10:00:09.215Z</time></trkpt><trkpt lat="43.5207448" lon="11.4235014"><ele>639.0</ele><time>2026-04-18T10:00:10.215Z</time></trkpt><trkpt lat="43.5207411" lon="11.4234059"><ele>637.5</ele><time>2026-04-18T10:00:11.214Z</time></trkpt><trkpt lat="43.520747" lon="11.4233024"><ele>636.0</ele><time>2026-04-18T10:00:12.215Z</time></trkpt><trkpt lat="43.5207587" lon="11.423205"><ele>634.5</ele><time>2026-04-18T10:00:13.216Z</time></trkpt><trkpt lat="43.5207864" lon="11.4230951"><ele>633.0</ele><time>2026-04-18T10:00:14.215Z</time></trkpt><trkpt lat="43.5208202" lon="11.4229663"><ele>632.1999999999999</ele><time>2026-04-18T10:00:15.215Z</time></trkpt><trkpt lat="43.5208472" lon="11.42283"><ele>631.4</ele><time>2026-04-18T10:00:16.216Z</time></trkpt><trkpt lat="43.5208754" lon="11.4226924"><ele>630.5999999999999</ele><time>2026-04-18T10:00:17.216Z</time></trkpt><trkpt lat="43.5208979" lon="11.4225634"><ele>629.8</ele><time>2026-04-18T10:00:18.215Z</time></trkpt><trkpt lat="43.5209279" lon="11.4224361"><ele>629.0</ele><time>2026-04-18T10:00:19.216Z</time></trkpt><trkpt lat="43.5209597" lon="11.4223395"><ele>629.0</ele><time>2026-04-18T10:00:20.216Z</time></trkpt><trkpt lat="43.520994" lon="11.4222665"><ele>629.0</ele><time>2026-04-18T10:00:21.215Z</time></trkpt><trkpt lat="43.5210497" lon="11.4222118"><ele>629.0</ele><time>2026-04-18T10:00:22.215Z</time></trkpt><trkpt lat="43.5211173" lon="11.4221694"><ele>629.0</ele><time>2026-04-18T10:00:23.215Z</time></trkpt><trkpt lat="43.5211827" lon="11.4221425"><ele>629.0</ele><time>2026-04-18T10:00:24.215Z</time></trkpt><trkpt lat="43.5212411" lon="11.4220854"><ele>629.0</ele><time>2026-04-18T10:00:25.215Z</time></trkpt><trkpt lat="43.5212849" lon="11.4220069"><ele>629.0</ele><time>2026-04-18T10:00:26.214Z</time></trkpt><trkpt lat="43.5213148" lon="11.4219059"><ele>630.4285714285714</ele><time>2026-04-18T10:00:27.216Z</time></trkpt><trkpt lat="43.5213542" lon="11.4218264"><ele>631.8571428571429</ele><time>2026-04-18T10:00:28.215Z</time></trkpt><trkpt lat="43.5214066" lon="11.4217682"><ele>633.2857142857143</ele><time>2026-04-18T10:00:29.215Z</time></trkpt><trkpt lat="43.521465" lon="11.4217347"><ele>634.7142857142858</ele><time>2026-04-18T10:00:30.215Z</time></trkpt><trkpt lat="43.5215324" lon="11.4217039"><ele>636.1428571428571</ele><time>2026-04-18T10:00:31.216Z</time></trkpt><trkpt lat="43.5215969" lon="11.4216754"><ele>637.5714285714287</ele><time>2026-04-18T10:00:32.216Z</time></trkpt><trkpt lat="43.5216718" lon="11.4216443"><ele>639.0</ele><time>2026-04-18T10:00:33.216Z</time></trkpt><trkpt lat="43.5217527" lon="11.4216132"><ele>639.0</ele><time>2026-04-18T10:00:34.216Z</time></trkpt><trkpt lat="43.521829" lon="11.4215965"><ele>639.0</ele><time>2026-04-18T10:00:35.215Z</time></trkpt><trkpt lat="43.5218967" lon="11.4215932"><ele>639.0</ele><time>2026-04-18T10:00:36.216Z</time></trkpt><trkpt lat="43.5219633" lon="11.4215834"><ele>639.0</ele><time>2026-04-18T10:00:37.216Z</time></trkpt><trkpt lat="43.5220732" lon="11.4215561"><ele>639.0</ele><time>2026-04-18T10:00:39.217Z</time></trkpt><trkpt lat="43.522133" lon="11.421446"><ele>639.0</ele><time>2026-04-18T10:00:41.215Z</time></trkpt><trkpt lat="43.5221506" lon="11.4213574"><ele>640.6</ele><time>2026-04-18T10:00:42.216Z</time></trkpt><trkpt lat="43.5221711" lon="11.4212546"><ele>642.2</ele><time>2026-04-18T10:00:43.216Z</time></trkpt><trkpt lat="43.5221921" lon="11.4211428"><ele>643.8000000000001</ele><time>2026-04-18T10:00:44.215Z</time></trkpt><trkpt lat="43.5222193" lon="11.421014"><ele>645.4</ele><time>2026-04-18T10:00:45.214Z</time></trkpt><trkpt lat="43.5222439" lon="11.4208732"><ele>647.0</ele><time>2026-04-18T10:00:46.215Z</time></trkpt><trkpt lat="43.5222784" lon="11.4207169"><ele>647.0</ele><time>2026-04-18T10:00:47.215Z</time></trkpt><trkpt lat="43.5223038" lon="11.4205616"><ele>647.0</ele><time>2026-04-18T10:00:48.215Z</time></trkpt><trkpt lat="43.5223117" lon="11.4204077"><ele>647.0</ele><time>2026-04-18T10:00:49.215Z</time></trkpt><trkpt lat="43.5223135" lon="11.420264"><ele>647.0</ele><time>2026-04-18T10:00:50.216Z</time></trkpt><trkpt lat="43.5223148" lon="11.4201352"><ele>647.0</ele><time>2026-04-18T10:00:51.215Z</time></trkpt><trkpt lat="43.5223188" lon="11.4200322"><ele>646.0</ele><time>2026-04-18T10:00:52.216Z</time></trkpt><trkpt lat="43.5222913" lon="11.4198849"><ele>645.0</ele><time>2026-04-18T10:00:54.215Z</time></trkpt><trkpt lat="43.5222435" lon="11.4198201"><ele>644.0</ele><time>2026-04-18T10:00:57.215Z</time></trkpt><trkpt lat="43.5222558" lon="11.4199113"><ele>643.0</ele><time>2026-04-18T10:01:14.215Z</time></trkpt><trkpt lat="43.5223149" lon="11.4200075"><ele>642.0</ele><time>2026-04-18T10:01:16.215Z</time></trkpt><trkpt lat="43.5223162" lon="11.4201983"><ele>642.0</ele><time>2026-04-18T10:01:18.215Z</time></trkpt><trkpt lat="43.5223196" lon="11.4203084"><ele>642.0</ele><time>2026-04-18T10:01:19.215Z</time></trkpt><trkpt lat="43.5223202" lon="11.42041"><ele>642.0</ele><time>2026-04-18T10:01:20.215Z</time></trkpt><trkpt lat="43.522326" lon="11.4205503"><ele>642.0</ele><time>2026-04-18T10:01:22.215Z</time></trkpt><trkpt lat="43.5223973" lon="11.4205596"><ele>642.0</ele><time>2026-04-18T10:01:26.214Z</time></trkpt><trkpt lat="43.5224663" lon="11.4205285"><ele>642.0</ele><time>2026-04-18T10:01:28.214Z</time></trkpt><trkpt lat="43.5225478" lon="11.4204624"><ele>642.0</ele><time>2026-04-18T10:01:30.215Z</time></trkpt><trkpt lat="43.5226286" lon="11.4204089"><ele>642.0</ele><time>2026-04-18T10:01:32.216Z</time></trkpt><trkpt lat="43.5227039" lon="11.4203651"><ele>642.0</ele><time>2026-04-18T10:01:34.215Z</time></trkpt><trkpt lat="43.5227932" lon="11.4203223"><ele>642.0</ele><time>2026-04-18T10:01:36.215Z</time></trkpt><trkpt lat="43.5228869" lon="11.420324"><ele>642.0</ele><time>2026-04-18T10:01:38.214Z</time></trkpt><trkpt lat="43.5229799" lon="11.4203647"><ele>644.3333333333334</ele><time>2026-04-18T10:01:40.215Z</time></trkpt><trkpt lat="43.5230543" lon="11.4203883"><ele>646.6666666666666</ele><time>2026-04-18T10:01:42.215Z</time></trkpt><trkpt lat="43.5231412" lon="11.4203972"><ele>649.0</ele><time>2026-04-18T10:01:44.216Z</time></trkpt><trkpt lat="43.5232389" lon="11.4204028"><ele>651.3333333333333</ele><time>2026-04-18T10:01:47.216Z</time></trkpt><trkpt lat="43.5233142" lon="11.4204144"><ele>653.6666666666666</ele><time>2026-04-18T10:01:49.215Z</time></trkpt><trkpt lat="43.5233982" lon="11.4203943"><ele>656.0</ele><time>2026-04-18T10:01:51.215Z</time></trkpt><trkpt lat="43.5234792" lon="11.4203717"><ele>656.0</ele><time>2026-04-18T10:01:53.215Z</time></trkpt><trkpt lat="43.5235616" lon="11.4203886"><ele>656.0</ele><time>2026-04-18T10:02:02.216Z</time></trkpt><trkpt lat="43.523647" lon="11.420415"><ele>656.0</ele><time>2026-04-18T10:02:05.216Z</time></trkpt><trkpt lat="43.5237085" lon="11.4204355"><ele>656.0</ele><time>2026-04-18T10:02:09.215Z</time></trkpt><trkpt lat="43.5237852" lon="11.4204815"><ele>656.0</ele><time>2026-04-18T10:02:12.215Z</time></trkpt><trkpt lat="43.5238503" lon="11.4205388"><ele>656.0</ele><time>2026-04-18T10:02:14.216Z</time></trkpt><trkpt lat="43.5239055" lon="11.4205819"><ele>658.5714285714286</ele><time>2026-04-18T10:02:16.216Z</time></trkpt><trkpt lat="43.5239651" lon="11.4206288"><ele>661.1428571428571</ele><time>2026-04-18T10:02:18.215Z</time></trkpt><trkpt lat="43.5240159" lon="11.4206853"><ele>663.7142857142858</ele><time>2026-04-18T10:02:20.215Z</time></trkpt><trkpt lat="43.5240486" lon="11.4207873"><ele>666.2857142857142</ele><time>2026-04-18T10:02:22.215Z</time></trkpt><trkpt lat="43.5240568" lon="11.4208851"><ele>668.8571428571429</ele><time>2026-04-18T10:02:24.215Z</time></trkpt><trkpt lat="43.5240951" lon="11.4209791"><ele>671.4285714285714</ele><time>2026-04-18T10:02:26.215Z</time></trkpt><trkpt lat="43.5241555" lon="11.4210529"><ele>674.0</ele><time>2026-04-18T10:02:28.214Z</time></trkpt><trkpt lat="43.524226" lon="11.4211301"><ele>674.0</ele><time>2026-04-18T10:02:30.214Z</time></trkpt><trkpt lat="43.5242909" lon="11.4212277"><ele>674.0</ele><time>2026-04-18T10:02:32.215Z</time></trkpt><trkpt lat="43.5243578" lon="11.4213462"><ele>674.0</ele><time>2026-04-18T10:02:34.214Z</time></trkpt><trkpt lat="43.5244183" lon="11.4214516"><ele>674.0</ele><time>2026-04-18T10:02:36.215Z</time></trkpt><trkpt lat="43.5244888" lon="11.4215483"><ele>674.0</ele><time>2026-04-18T10:02:38.214Z</time></trkpt><trkpt lat="43.5245551" lon="11.4216364"><ele>675.3333333333333</ele><time>2026-04-18T10:02:40.215Z</time></trkpt><trkpt lat="43.5245997" lon="11.4217107"><ele>676.6666666666666</ele><time>2026-04-18T10:02:42.215Z</time></trkpt><trkpt lat="43.5246646" lon="11.4217806"><ele>678.0</ele><time>2026-04-18T10:02:44.215Z</time></trkpt><trkpt lat="43.524736" lon="11.42182"><ele>679.3333333333334</ele><time>2026-04-18T10:02:46.215Z</time></trkpt><trkpt lat="43.5248243" lon="11.42186"><ele>680.6666666666667</ele><time>2026-04-18T10:02:49.216Z</time></trkpt><trkpt lat="43.5249237" lon="11.4218984"><ele>682.0</ele><time>2026-04-18T10:02:52.215Z</time></trkpt><trkpt lat="43.5250536" lon="11.4219288"><ele>682.0</ele><time>2026-04-18T10:02:54.214Z</time></trkpt><trkpt lat="43.5251242" lon="11.4219337"><ele>682.0</ele><time>2026-04-18T10:02:55.215Z</time></trkpt><trkpt lat="43.5252377" lon="11.4219477"><ele>682.0</ele><time>2026-04-18T10:02:57.215Z</time></trkpt><trkpt lat="43.5252967" lon="11.4219788"><ele>682.0</ele><time>2026-04-18T10:02:59.215Z</time></trkpt><trkpt lat="43.5252314" lon="11.4219046"><ele>682.0</ele><time>2026-04-18T10:03:04.214Z</time></trkpt><trkpt lat="43.5251172" lon="11.4219187"><ele>682.0</ele><time>2026-04-18T10:03:06.216Z</time></trkpt><trkpt lat="43.5250521" lon="11.4219089"><ele>682.0</ele><time>2026-04-18T10:03:07.214Z</time></trkpt><trkpt lat="43.5249853" lon="11.4218941"><ele>682.0</ele><time>2026-04-18T10:03:08.216Z</time></trkpt><trkpt lat="43.5249196" lon="11.4218777"><ele>682.0</ele><time>2026-04-18T10:03:09.216Z</time></trkpt><trkpt lat="43.5248156" lon="11.4218355"><ele>682.0</ele><time>2026-04-18T10:03:11.215Z</time></trkpt><trkpt lat="43.5248487" lon="11.4219192"><ele>682.0</ele><time>2026-04-18T10:03:22.215Z</time></trkpt><trkpt lat="43.524901" lon="11.422018"><ele>682.0</ele><time>2026-04-18T10:03:24.215Z</time></trkpt><trkpt lat="43.5249393" lon="11.4221195"><ele>681.5</ele><time>2026-04-18T10:03:26.214Z</time></trkpt><trkpt lat="43.5249726" lon="11.4222211"><ele>681.0</ele><time>2026-04-18T10:03:28.215Z</time></trkpt><trkpt lat="43.5250044" lon="11.4223094"><ele>680.5</ele><time>2026-04-18T10:03:30.215Z</time></trkpt><trkpt lat="43.5250302" lon="11.4224035"><ele>680.0</ele><time>2026-04-18T10:03:44.215Z</time></trkpt><trkpt lat="43.5250161" lon="11.4225187"><ele>679.5</ele><time>2026-04-18T10:03:46.215Z</time></trkpt><trkpt lat="43.5249988" lon="11.4226356"><ele>679.0</ele><time>2026-04-18T10:03:48.214Z</time></trkpt><trkpt lat="43.5249697" lon="11.422732"><ele>679.0</ele><time>2026-04-18T10:03:50.215Z</time></trkpt><trkpt lat="43.5249229" lon="11.4228305"><ele>679.0</ele><time>2026-04-18T10:03:53.216Z</time></trkpt><trkpt lat="43.5248866" lon="11.4229097"><ele>679.0</ele><time>2026-04-18T10:03:55.215Z</time></trkpt><trkpt lat="43.5248525" lon="11.422989"><ele>679.0</ele><time>2026-04-18T10:03:57.215Z</time></trkpt><trkpt lat="43.5248187" lon="11.4230648"><ele>679.0</ele><time>2026-04-18T10:03:59.214Z</time></trkpt><trkpt lat="43.5247589" lon="11.4231282"><ele>679.0</ele><time>2026-04-18T10:04:01.215Z</time></trkpt><trkpt lat="43.5246936" lon="11.4231969"><ele>679.0</ele><time>2026-04-18T10:04:03.215Z</time></trkpt><trkpt lat="43.5246486" lon="11.4232815"><ele>678.8333333333334</ele><time>2026-04-18T10:04:05.215Z</time></trkpt><trkpt lat="43.5246165" lon="11.4233671"><ele>678.6666666666667</ele><time>2026-04-18T10:04:07.216Z</time></trkpt><trkpt lat="43.524541" lon="11.4234185"><ele>678.5</ele><time>2026-04-18T10:04:09.214Z</time></trkpt><trkpt lat="43.5244501" lon="11.4234956"><ele>678.3333333333334</ele><time>2026-04-18T10:04:11.215Z</time></trkpt><trkpt lat="43.5243796" lon="11.4235333"><ele>678.1666666666666</ele><time>2026-04-18T10:04:13.216Z</time></trkpt><trkpt lat="43.524317" lon="11.4236075"><ele>678.0</ele><time>2026-04-18T10:04:15.216Z</time></trkpt><trkpt lat="43.5242688" lon="11.423684"><ele>680.5</ele><time>2026-04-18T10:04:17.214Z</time></trkpt><trkpt lat="43.5242597" lon="11.4238217"><ele>683.0</ele><time>2026-04-18T10:04:20.214Z</time></trkpt><trkpt lat="43.5242906" lon="11.4239149"><ele>685.5</ele><time>2026-04-18T10:04:21.214Z</time></trkpt><trkpt lat="43.5242845" lon="11.4240116"><ele>688.0</ele><time>2026-04-18T10:04:23.215Z</time></trkpt><trkpt lat="43.5242921" lon="11.4241316"><ele>690.5</ele><time>2026-04-18T10:04:25.215Z</time></trkpt><trkpt lat="43.5242915" lon="11.4242682"><ele>693.0</ele><time>2026-04-18T10:04:27.214Z</time></trkpt><trkpt lat="43.5242902" lon="11.4244271"><ele>693.0</ele><time>2026-04-18T10:04:29.214Z</time></trkpt><trkpt lat="43.5243629" lon="11.4245166"><ele>693.0</ele><time>2026-04-18T10:04:31.215Z</time></trkpt><trkpt lat="43.5243866" lon="11.4246203"><ele>693.0</ele><time>2026-04-18T10:04:41.215Z</time></trkpt><trkpt lat="43.524354" lon="11.4247096"><ele>693.0</ele><time>2026-04-18T10:04:45.215Z</time></trkpt><trkpt lat="43.5243062" lon="11.4247842"><ele>693.0</ele><time>2026-04-18T10:04:48.214Z</time></trkpt><trkpt lat="43.5242755" lon="11.4248647"><ele>693.0</ele><time>2026-04-18T10:04:50.214Z</time></trkpt><trkpt lat="43.5242298" lon="11.4249513"><ele>694.6666666666666</ele><time>2026-04-18T10:04:52.215Z</time></trkpt><trkpt lat="43.5241963" lon="11.4250285"><ele>696.3333333333334</ele><time>2026-04-18T10:04:54.215Z</time></trkpt><trkpt lat="43.524158" lon="11.4251223"><ele>698.0</ele><time>2026-04-18T10:04:56.214Z</time></trkpt><trkpt lat="43.5241149" lon="11.4252257"><ele>699.6666666666667</ele><time>2026-04-18T10:04:58.215Z</time></trkpt><trkpt lat="43.5240739" lon="11.4253348"><ele>701.3333333333334</ele><time>2026-04-18T10:05:00.215Z</time></trkpt><trkpt lat="43.5239937" lon="11.4254006"><ele>703.0</ele><time>2026-04-18T10:05:02.215Z</time></trkpt><trkpt lat="43.5239356" lon="11.4254644"><ele>701.3333333333334</ele><time>2026-04-18T10:05:04.215Z</time></trkpt><trkpt lat="43.5238728" lon="11.4255403"><ele>699.6666666666667</ele><time>2026-04-18T10:05:06.215Z</time></trkpt><trkpt lat="43.5238087" lon="11.425611"><ele>698.0</ele><time>2026-04-18T10:05:08.214Z</time></trkpt><trkpt lat="43.5237433" lon="11.4256875"><ele>696.3333333333334</ele><time>2026-04-18T10:05:10.214Z</time></trkpt><trkpt lat="43.5236718" lon="11.4257684"><ele>694.6666666666666</ele><time>2026-04-18T10:05:12.216Z</time></trkpt><trkpt lat="43.523621" lon="11.4258916"><ele>693.0</ele><time>2026-04-18T10:05:14.215Z</time></trkpt><trkpt lat="43.5236242" lon="11.4259957"><ele>693.0</ele><time>2026-04-18T10:05:16.215Z</time></trkpt><trkpt lat="43.5236811" lon="11.4260894"><ele>693.0</ele><time>2026-04-18T10:05:18.214Z</time></trkpt><trkpt lat="43.5237546" lon="11.4261989"><ele>693.0</ele><time>2026-04-18T10:05:20.214Z</time></trkpt><trkpt lat="43.523803" lon="11.426317"><ele>693.0</ele><time>2026-04-18T10:05:22.215Z</time></trkpt><trkpt lat="43.523844" lon="11.4263975"><ele>693.0</ele><time>2026-04-18T10:05:24.215Z</time></trkpt><trkpt lat="43.5238642" lon="11.426487"><ele>693.0</ele><time>2026-04-18T10:05:26.214Z</time></trkpt><trkpt lat="43.5238717" lon="11.4266023"><ele>696.5</ele><time>2026-04-18T10:05:28.214Z</time></trkpt><trkpt lat="43.5238587" lon="11.4267033"><ele>700.0</ele><time>2026-04-18T10:05:30.215Z</time></trkpt><trkpt lat="43.5238698" lon="11.4268188"><ele>703.5</ele><time>2026-04-18T10:05:32.215Z</time></trkpt><trkpt lat="43.5239111" lon="11.4269202"><ele>707.0</ele><time>2026-04-18T10:05:34.215Z</time></trkpt><trkpt lat="43.5239491" lon="11.4270349"><ele>710.5</ele><time>2026-04-18T10:05:36.215Z</time></trkpt><trkpt lat="43.5239932" lon="11.4271607"><ele>714.0</ele><time>2026-04-18T10:05:38.214Z</time></trkpt><trkpt lat="43.524041" lon="11.4272828"><ele>714.0</ele><time>2026-04-18T10:05:40.214Z</time></trkpt><trkpt lat="43.5241105" lon="11.4274051"><ele>714.0</ele><time>2026-04-18T10:05:42.215Z</time></trkpt><trkpt lat="43.5241553" lon="11.4274794"><ele>714.0</ele><time>2026-04-18T10:05:43.215Z</time></trkpt><trkpt lat="43.5241876" lon="11.4275574"><ele>714.0</ele><time>2026-04-18T10:05:45.214Z</time></trkpt><trkpt lat="43.5242094" lon="11.4276544"><ele>714.0</ele><time>2026-04-18T10:05:53.215Z</time></trkpt><trkpt lat="43.5242631" lon="11.4277402"><ele>714.0</ele><time>2026-04-18T10:05:55.215Z</time></trkpt><trkpt lat="43.5243117" lon="11.4278331"><ele>714.0</ele><time>2026-04-18T10:05:57.215Z</time></trkpt><trkpt lat="43.5243577" lon="11.4279128"><ele>714.0</ele><time>2026-04-18T10:05:59.215Z</time></trkpt><trkpt lat="43.5243363" lon="11.4278289"><ele>714.0</ele><time>2026-04-18T10:06:25.214Z</time></trkpt><trkpt lat="43.5242886" lon="11.4277362"><ele>714.0</ele><time>2026-04-18T10:06:27.215Z</time></trkpt><trkpt lat="43.5242396" lon="11.4276445"><ele>714.0</ele><time>2026-04-18T10:06:29.214Z</time></trkpt><trkpt lat="43.5241729" lon="11.4275426"><ele>714.0</ele><time>2026-04-18T10:06:32.214Z</time></trkpt><trkpt lat="43.5241301" lon="11.4274642"><ele>714.0</ele><time>2026-04-18T10:06:34.215Z</time></trkpt><trkpt lat="43.5240831" lon="11.4274026"><ele>714.0</ele><time>2026-04-18T10:06:37.215Z</time></trkpt><trkpt lat="43.5240433" lon="11.4273315"><ele>714.0</ele><time>2026-04-18T10:06:41.214Z</time></trkpt><trkpt lat="43.523997" lon="11.4272229"><ele>714.0</ele><time>2026-04-18T10:06:44.215Z</time></trkpt><trkpt lat="43.5239625" lon="11.4271254"><ele>714.0</ele><time>2026-04-18T10:06:46.215Z</time></trkpt><trkpt lat="43.5239223" lon="11.4270265"><ele>714.0</ele><time>2026-04-18T10:06:48.214Z</time></trkpt><trkpt lat="43.5238766" lon="11.4269228"><ele>715.3333333333334</ele><time>2026-04-18T10:06:50.215Z</time></trkpt><trkpt lat="43.5238116" lon="11.4268907"><ele>716.6666666666666</ele><time>2026-04-18T10:06:55.215Z</time></trkpt><trkpt lat="43.5237435" lon="11.4269728"><ele>718.0</ele><time>2026-04-18T10:06:59.215Z</time></trkpt><trkpt lat="43.5236868" lon="11.4270462"><ele>719.3333333333333</ele><time>2026-04-18T10:07:01.215Z</time></trkpt><trkpt lat="43.5236551" lon="11.4271795"><ele>720.6666666666666</ele><time>2026-04-18T10:07:03.215Z</time></trkpt><trkpt lat="43.5236121" lon="11.427289"><ele>722.0</ele><time>2026-04-18T10:07:05.215Z</time></trkpt><trkpt lat="43.5235866" lon="11.4274108"><ele>717.6</ele><time>2026-04-18T10:07:07.215Z</time></trkpt><trkpt lat="43.5235686" lon="11.4275118"><ele>713.2</ele><time>2026-04-18T10:07:10.215Z</time></trkpt><trkpt lat="43.5235587" lon="11.4276395"><ele>708.8</ele><time>2026-04-18T10:07:12.215Z</time></trkpt><trkpt lat="43.5235817" lon="11.4277566"><ele>704.4</ele><time>2026-04-18T10:07:14.215Z</time></trkpt><trkpt lat="43.5236327" lon="11.4278876"><ele>700.0</ele><time>2026-04-18T10:07:16.215Z</time></trkpt><trkpt lat="43.5236842" lon="11.4280313"><ele>699.6666666666667</ele><time>2026-04-18T10:07:18.215Z</time></trkpt><trkpt lat="43.5236993" lon="11.4281287"><ele>699.3333333333334</ele><time>2026-04-18T10:07:20.214Z</time></trkpt><trkpt lat="43.5237385" lon="11.428197"><ele>699.0</ele><time>2026-04-18T10:07:23.215Z</time></trkpt><trkpt lat="43.5237683" lon="11.4282863"><ele>698.6666666666666</ele><time>2026-04-18T10:07:29.215Z</time></trkpt><trkpt lat="43.5237709" lon="11.4284219"><ele>698.3333333333333</ele><time>2026-04-18T10:07:31.214Z</time></trkpt><trkpt lat="43.5237688" lon="11.4285517"><ele>698.0</ele><time>2026-04-18T10:07:33.214Z</time></trkpt><trkpt lat="43.5237756" lon="11.4286683"><ele>699.6666666666666</ele><time>2026-04-18T10:07:35.215Z</time></trkpt><trkpt lat="43.5237847" lon="11.4287712"><ele>701.3333333333333</ele><time>2026-04-18T10:07:37.214Z</time></trkpt><trkpt lat="43.5237797" lon="11.4288801"><ele>703.0</ele><time>2026-04-18T10:07:39.214Z</time></trkpt><trkpt lat="43.5237855" lon="11.4289724"><ele>704.6666666666666</ele><time>2026-04-18T10:07:41.214Z</time></trkpt><trkpt lat="43.5237913" lon="11.4291051"><ele>706.3333333333334</ele><time>2026-04-18T10:07:43.214Z</time></trkpt><trkpt lat="43.5238168" lon="11.4292502"><ele>708.0</ele><time>2026-04-18T10:07:45.215Z</time></trkpt><trkpt lat="43.5238445" lon="11.429367"><ele>708.0</ele><time>2026-04-18T10:07:47.215Z</time></trkpt><trkpt lat="43.5238742" lon="11.4294589"><ele>708.0</ele><time>2026-04-18T10:07:50.215Z</time></trkpt><trkpt lat="43.5237943" lon="11.4295568"><ele>708.0</ele><time>2026-04-18T10:07:54.215Z</time></trkpt><trkpt lat="43.5237496" lon="11.4296198"><ele>708.0</ele><time>2026-04-18T10:07:55.215Z</time></trkpt><trkpt lat="43.5236999" lon="11.4296927"><ele>708.0</ele><time>2026-04-18T10:07:56.216Z</time></trkpt><trkpt lat="43.5236365" lon="11.4297718"><ele>708.0</ele><time>2026-04-18T10:07:57.213Z</time></trkpt><trkpt lat="43.5235671" lon="11.4298505"><ele>707.8333333333334</ele><time>2026-04-18T10:07:58.215Z</time></trkpt><trkpt lat="43.5235129" lon="11.4299037"><ele>707.6666666666666</ele><time>2026-04-18T10:07:59.214Z</time></trkpt><trkpt lat="43.5234266" lon="11.429967"><ele>707.5</ele><time>2026-04-18T10:08:01.215Z</time></trkpt><trkpt lat="43.5233434" lon="11.4299752"><ele>707.3333333333333</ele><time>2026-04-18T10:08:03.215Z</time></trkpt><trkpt lat="43.5232827" lon="11.4298974"><ele>707.1666666666666</ele><time>2026-04-18T10:08:05.215Z</time></trkpt><trkpt lat="43.5232126" lon="11.4297985"><ele>707.0</ele><time>2026-04-18T10:08:07.215Z</time></trkpt><trkpt lat="43.5231501" lon="11.4296661"><ele>707.2</ele><time>2026-04-18T10:08:09.214Z</time></trkpt><trkpt lat="43.5230944" lon="11.4295357"><ele>707.4000000000001</ele><time>2026-04-18T10:08:11.215Z</time></trkpt><trkpt lat="43.5230472" lon="11.4294105"><ele>707.5999999999999</ele><time>2026-04-18T10:08:13.215Z</time></trkpt><trkpt lat="43.5229899" lon="11.4292747"><ele>707.8</ele><time>2026-04-18T10:08:15.214Z</time></trkpt><trkpt lat="43.5229275" lon="11.4291678"><ele>708.0</ele><time>2026-04-18T10:08:17.215Z</time></trkpt><trkpt lat="43.5228095" lon="11.429119"><ele>708.4285714285714</ele><time>2026-04-18T10:08:19.215Z</time></trkpt><trkpt lat="43.5227403" lon="11.4291141"><ele>708.8571428571428</ele><time>2026-04-18T10:08:20.213Z</time></trkpt><trkpt lat="43.5226773" lon="11.4291363"><ele>709.2857142857142</ele><time>2026-04-18T10:08:21.215Z</time></trkpt><trkpt lat="43.5226116" lon="11.4291692"><ele>709.7142857142858</ele><time>2026-04-18T10:08:22.214Z</time></trkpt><trkpt lat="43.5225327" lon="11.4291968"><ele>710.1428571428571</ele><time>2026-04-18T10:08:23.215Z</time></trkpt><trkpt lat="43.5224595" lon="11.4292243"><ele>710.5714285714286</ele><time>2026-04-18T10:08:24.214Z</time></trkpt><trkpt lat="43.5223838" lon="11.4292306"><ele>711.0</ele><time>2026-04-18T10:08:25.214Z</time></trkpt><trkpt lat="43.5223085" lon="11.4292493"><ele>711.0</ele><time>2026-04-18T10:08:26.214Z</time></trkpt><trkpt lat="43.5222312" lon="11.4292812"><ele>711.0</ele><time>2026-04-18T10:08:27.213Z</time></trkpt><trkpt lat="43.5221448" lon="11.429307"><ele>711.0</ele><time>2026-04-18T10:08:28.215Z</time></trkpt><trkpt lat="43.522068" lon="11.4293202"><ele>711.0</ele><time>2026-04-18T10:08:29.215Z</time></trkpt><trkpt lat="43.5219533" lon="11.4292809"><ele>711.0</ele><time>2026-04-18T10:08:31.214Z</time></trkpt><trkpt lat="43.5218467" lon="11.4292295"><ele>712.1666666666666</ele><time>2026-04-18T10:08:33.214Z</time></trkpt><trkpt lat="43.5217829" lon="11.4292338"><ele>713.3333333333334</ele><time>2026-04-18T10:08:34.214Z</time></trkpt><trkpt lat="43.5217189" lon="11.4292421"><ele>714.5</ele><time>2026-04-18T10:08:35.215Z</time></trkpt><trkpt lat="43.5216477" lon="11.4292593"><ele>715.6666666666667</ele><time>2026-04-18T10:08:36.215Z</time></trkpt><trkpt lat="43.5215718" lon="11.4292653"><ele>716.8333333333334</ele><time>2026-04-18T10:08:37.215Z</time></trkpt><trkpt lat="43.5214728" lon="11.4292707"><ele>718.0</ele><time>2026-04-18T10:08:38.215Z</time></trkpt><trkpt lat="43.521364" lon="11.4292669"><ele>718.0</ele><time>2026-04-18T10:08:39.215Z</time></trkpt><trkpt lat="43.521245" lon="11.4292531"><ele>718.0</ele><time>2026-04-18T10:08:40.215Z</time></trkpt><trkpt lat="43.5211303" lon="11.4292471"><ele>718.0</ele><time>2026-04-18T10:08:41.214Z</time></trkpt><trkpt lat="43.5210157" lon="11.4292154"><ele>718.0</ele><time>2026-04-18T10:08:42.214Z</time></trkpt><trkpt lat="43.5209164" lon="11.4291799"><ele>718.6666666666667</ele><time>2026-04-18T10:08:43.214Z</time></trkpt><trkpt lat="43.5208394" lon="11.4291548"><ele>719.3333333333334</ele><time>2026-04-18T10:08:44.215Z</time></trkpt><trkpt lat="43.5207551" lon="11.4291401"><ele>720.0</ele><time>2026-04-18T10:08:45.215Z</time></trkpt><trkpt lat="43.5206722" lon="11.4291185"><ele>720.6666666666666</ele><time>2026-04-18T10:08:46.215Z</time></trkpt><trkpt lat="43.5206295" lon="11.4291834"><ele>721.3333333333333</ele><time>2026-04-18T10:09:23.215Z</time></trkpt><trkpt lat="43.5206352" lon="11.4293237"><ele>722.0</ele><time>2026-04-18T10:09:26.215Z</time></trkpt><trkpt lat="43.5206083" lon="11.42942"><ele>722.0</ele><time>2026-04-18T10:09:28.214Z</time></trkpt><trkpt lat="43.5205247" lon="11.4295129"><ele>722.0</ele><time>2026-04-18T10:09:30.215Z</time></trkpt><trkpt lat="43.5203937" lon="11.4295698"><ele>722.0</ele><time>2026-04-18T10:09:32.215Z</time></trkpt><trkpt lat="43.5202938" lon="11.4296036"><ele>722.0</ele><time>2026-04-18T10:09:33.214Z</time></trkpt><trkpt lat="43.5202007" lon="11.4296267"><ele>722.0</ele><time>2026-04-18T10:09:34.214Z</time></trkpt><trkpt lat="43.5201195" lon="11.4296526"><ele>721.0</ele><time>2026-04-18T10:09:35.215Z</time></trkpt><trkpt lat="43.5200607" lon="11.4296858"><ele>720.0</ele><time>2026-04-18T10:09:36.214Z</time></trkpt><trkpt lat="43.5200015" lon="11.4297379"><ele>719.0</ele><time>2026-04-18T10:09:37.214Z</time></trkpt><trkpt lat="43.5199373" lon="11.4298028"><ele>718.0</ele><time>2026-04-18T10:09:38.214Z</time></trkpt><trkpt lat="43.5198763" lon="11.4298605"><ele>717.0</ele><time>2026-04-18T10:09:39.215Z</time></trkpt><trkpt lat="43.5198227" lon="11.4299163"><ele>716.0</ele><time>2026-04-18T10:09:40.215Z</time></trkpt><trkpt lat="43.5197406" lon="11.4300522"><ele>716.0</ele><time>2026-04-18T10:09:42.214Z</time></trkpt><trkpt lat="43.5197218" lon="11.4301513"><ele>716.0</ele><time>2026-04-18T10:09:43.215Z</time></trkpt><trkpt lat="43.5196974" lon="11.4302489"><ele>716.0</ele><time>2026-04-18T10:09:44.215Z</time></trkpt><trkpt lat="43.5196725" lon="11.4303445"><ele>716.0</ele><time>2026-04-18T10:09:45.213Z</time></trkpt><trkpt lat="43.5196527" lon="11.4304576"><ele>716.0</ele><time>2026-04-18T10:09:47.213Z</time></trkpt><trkpt lat="43.5196195" lon="11.4305424"><ele>716.0</ele><time>2026-04-18T10:09:49.214Z</time></trkpt><trkpt lat="43.5196179" lon="11.4306604"><ele>716.0</ele><time>2026-04-18T10:09:51.214Z</time></trkpt><trkpt lat="43.5196405" lon="11.4307461"><ele>716.0</ele><time>2026-04-18T10:09:52.213Z</time></trkpt><trkpt lat="43.5196863" lon="11.4308975"><ele>716.0</ele><time>2026-04-18T10:09:54.215Z</time></trkpt><trkpt lat="43.5197096" lon="11.4309827"><ele>716.0</ele><time>2026-04-18T10:09:55.215Z</time></trkpt><trkpt lat="43.5197226" lon="11.4310835"><ele>716.0</ele><time>2026-04-18T10:09:56.214Z</time></trkpt><trkpt lat="43.5197299" lon="11.4311718"><ele>716.0</ele><time>2026-04-18T10:09:57.215Z</time></trkpt><trkpt lat="43.5197095" lon="11.4313419"><ele>716.0</ele><time>2026-04-18T10:09:59.215Z</time></trkpt><trkpt lat="43.5196972" lon="11.4314372"><ele>716.0</ele><time>2026-04-18T10:10:00.215Z</time></trkpt><trkpt lat="43.5196751" lon="11.4315467"><ele>716.0</ele><time>2026-04-18T10:10:01.212Z</time></trkpt><trkpt lat="43.5196488" lon="11.4316575"><ele>716.0</ele><time>2026-04-18T10:10:02.214Z</time></trkpt><trkpt lat="43.5196097" lon="11.4317466"><ele>716.0</ele><time>2026-04-18T10:10:03.215Z</time></trkpt><trkpt lat="43.5195693" lon="11.4318342"><ele>716.0</ele><time>2026-04-18T10:10:04.214Z</time></trkpt><trkpt lat="43.5195193" lon="11.431915"><ele>718.5</ele><time>2026-04-18T10:10:05.214Z</time></trkpt><trkpt lat="43.5194252" lon="11.4319468"><ele>721.0</ele><time>2026-04-18T10:10:06.214Z</time></trkpt><trkpt lat="43.5193578" lon="11.4319645"><ele>723.5</ele><time>2026-04-18T10:10:07.214Z</time></trkpt><trkpt lat="43.5192894" lon="11.4319741"><ele>726.0</ele><time>2026-04-18T10:10:08.215Z</time></trkpt><trkpt lat="43.5192216" lon="11.4319607"><ele>728.5</ele><time>2026-04-18T10:10:09.214Z</time></trkpt><trkpt lat="43.5191498" lon="11.4319388"><ele>731.0</ele><time>2026-04-18T10:10:10.214Z</time></trkpt><trkpt lat="43.5190335" lon="11.4319584"><ele>731.0</ele><time>2026-04-18T10:10:12.216Z</time></trkpt><trkpt lat="43.5189147" lon="11.4319968"><ele>731.0</ele><time>2026-04-18T10:10:14.215Z</time></trkpt><trkpt lat="43.5188301" lon="11.432111"><ele>731.0</ele><time>2026-04-18T10:10:16.215Z</time></trkpt><trkpt lat="43.5187966" lon="11.4321865"><ele>731.0</ele><time>2026-04-18T10:10:17.215Z</time></trkpt><trkpt lat="43.5187515" lon="11.4323295"><ele>731.0</ele><time>2026-04-18T10:10:19.214Z</time></trkpt><trkpt lat="43.5187258" lon="11.4324439"><ele>732.4</ele><time>2026-04-18T10:10:21.214Z</time></trkpt><trkpt lat="43.5186959" lon="11.4325845"><ele>733.8</ele><time>2026-04-18T10:10:23.215Z</time></trkpt><trkpt lat="43.5186437" lon="11.4327361"><ele>735.1999999999999</ele><time>2026-04-18T10:10:25.213Z</time></trkpt><trkpt lat="43.5186136" lon="11.4328581"><ele>736.5999999999999</ele><time>2026-04-18T10:10:27.215Z</time></trkpt><trkpt lat="43.5185592" lon="11.4329449"><ele>738.0</ele><time>2026-04-18T10:10:29.214Z</time></trkpt><trkpt lat="43.518519" lon="11.4330842"><ele>735.5</ele><time>2026-04-18T10:10:31.215Z</time></trkpt><trkpt lat="43.5184857" lon="11.4331737"><ele>733.0</ele><time>2026-04-18T10:10:33.215Z</time></trkpt><trkpt lat="43.5184954" lon="11.4332679"><ele>730.5</ele><time>2026-04-18T10:10:37.214Z</time></trkpt><trkpt lat="43.5185462" lon="11.4331906"><ele>728.0</ele><time>2026-04-18T10:10:41.215Z</time></trkpt><trkpt lat="43.5186209" lon="11.4331378"><ele>725.5</ele><time>2026-04-18T10:10:44.214Z</time></trkpt><trkpt lat="43.51867" lon="11.4330805"><ele>723.0</ele><time>2026-04-18T10:10:46.215Z</time></trkpt><trkpt lat="43.5187531" lon="11.4330438"><ele>722.6666666666666</ele><time>2026-04-18T10:10:49.213Z</time></trkpt><trkpt lat="43.5188175" lon="11.4330314"><ele>722.3333333333334</ele><time>2026-04-18T10:10:51.215Z</time></trkpt><trkpt lat="43.5188996" lon="11.4329939"><ele>722.0</ele><time>2026-04-18T10:10:53.215Z</time></trkpt><trkpt lat="43.5189617" lon="11.4329009"><ele>721.6666666666667</ele><time>2026-04-18T10:10:55.214Z</time></trkpt><trkpt lat="43.5190356" lon="11.4328351"><ele>721.3333333333334</ele><time>2026-04-18T10:10:57.215Z</time></trkpt><trkpt lat="43.5191348" lon="11.4328481"><ele>721.0</ele><time>2026-04-18T10:11:00.215Z</time></trkpt><trkpt lat="43.5192465" lon="11.4329257"><ele>717.8</ele><time>2026-04-18T10:11:02.213Z</time></trkpt><trkpt lat="43.5193009" lon="11.4329756"><ele>714.5999999999999</ele><time>2026-04-18T10:11:03.214Z</time></trkpt><trkpt lat="43.519401" lon="11.4330731"><ele>711.4</ele><time>2026-04-18T10:11:05.215Z</time></trkpt><trkpt lat="43.5194963" lon="11.4331091"><ele>708.2</ele><time>2026-04-18T10:11:07.214Z</time></trkpt><trkpt lat="43.5195901" lon="11.4331267"><ele>705.0</ele><time>2026-04-18T10:11:09.214Z</time></trkpt><trkpt lat="43.5196976" lon="11.4331574"><ele>703.8</ele><time>2026-04-18T10:11:11.214Z</time></trkpt><trkpt lat="43.5197625" lon="11.4331711"><ele>702.6</ele><time>2026-04-18T10:11:13.214Z</time></trkpt><trkpt lat="43.5198489" lon="11.4331848"><ele>701.4000000000001</ele><time>2026-04-18T10:11:15.214Z</time></trkpt><trkpt lat="43.5199518" lon="11.4332179"><ele>700.2</ele><time>2026-04-18T10:11:17.214Z</time></trkpt><trkpt lat="43.5200494" lon="11.4332758"><ele>699.0</ele><time>2026-04-18T10:11:19.215Z</time></trkpt><trkpt lat="43.5201254" lon="11.4333715"><ele>699.0</ele><time>2026-04-18T10:11:21.215Z</time></trkpt><trkpt lat="43.5201688" lon="11.4334364"><ele>699.0</ele><time>2026-04-18T10:11:23.215Z</time></trkpt><trkpt lat="43.520241" lon="11.4335377"><ele>699.0</ele><time>2026-04-18T10:11:25.214Z</time></trkpt><trkpt lat="43.5202967" lon="11.4336031"><ele>699.0</ele><time>2026-04-18T10:11:27.214Z</time></trkpt><trkpt lat="43.5203509" lon="11.4337053"><ele>699.0</ele><time>2026-04-18T10:11:30.215Z</time></trkpt><trkpt lat="43.5203957" lon="11.4338034"><ele>699.0</ele><time>2026-04-18T10:11:32.213Z</time></trkpt><trkpt lat="43.5204406" lon="11.4338922"><ele>692.75</ele><time>2026-04-18T10:11:34.214Z</time></trkpt><trkpt lat="43.5205127" lon="11.4339681"><ele>686.5</ele><time>2026-04-18T10:11:36.215Z</time></trkpt><trkpt lat="43.5205866" lon="11.4340234"><ele>680.25</ele><time>2026-04-18T10:11:38.214Z</time></trkpt><trkpt lat="43.5208079" lon="11.4339875"><ele>674.0</ele><time>2026-04-18T10:11:43.215Z</time></trkpt><trkpt lat="43.5209604" lon="11.4339872"><ele>674.0</ele><time>2026-04-18T10:11:56.213Z</time></trkpt><trkpt lat="43.521032" lon="11.4340374"><ele>674.0</ele><time>2026-04-18T10:12:24.213Z</time></trkpt><trkpt lat="43.5210763" lon="11.4341017"><ele>674.0</ele><time>2026-04-18T10:12:26.213Z</time></trkpt><trkpt lat="43.5211329" lon="11.4341711"><ele>674.0</ele><time>2026-04-18T10:12:28.213Z</time></trkpt><trkpt lat="43.5211901" lon="11.4342189"><ele>674.0</ele><time>2026-04-18T10:12:29.214Z</time></trkpt><trkpt lat="43.5212676" lon="11.4342766"><ele>674.0</ele><time>2026-04-18T10:12:31.213Z</time></trkpt><trkpt lat="43.5213509" lon="11.4343317"><ele>672.1666666666666</ele><time>2026-04-18T10:12:33.214Z</time></trkpt><trkpt lat="43.5214245" lon="11.4343811"><ele>670.3333333333333</ele><time>2026-04-18T10:12:35.214Z</time></trkpt><trkpt lat="43.5214729" lon="11.4344546"><ele>668.5</ele><time>2026-04-18T10:12:37.215Z</time></trkpt><trkpt lat="43.5215135" lon="11.4345274"><ele>666.6666666666666</ele><time>2026-04-18T10:12:39.215Z</time></trkpt><trkpt lat="43.5215849" lon="11.434647"><ele>664.8333333333334</ele><time>2026-04-18T10:12:41.213Z</time></trkpt><trkpt lat="43.5216814" lon="11.4347191"><ele>663.0</ele><time>2026-04-18T10:12:43.214Z</time></trkpt><trkpt lat="43.5217387" lon="11.4347956"><ele>662.5</ele><time>2026-04-18T10:12:45.214Z</time></trkpt><trkpt lat="43.5217753" lon="11.4348822"><ele>662.0</ele><time>2026-04-18T10:12:47.214Z</time></trkpt><trkpt lat="43.521813" lon="11.4349613"><ele>661.5</ele><time>2026-04-18T10:12:49.215Z</time></trkpt><trkpt lat="43.5218632" lon="11.4350447"><ele>661.0</ele><time>2026-04-18T10:12:51.216Z</time></trkpt><trkpt lat="43.5219411" lon="11.4351434"><ele>660.5</ele><time>2026-04-18T10:12:53.213Z</time></trkpt><trkpt lat="43.5220152" lon="11.4352397"><ele>660.0</ele><time>2026-04-18T10:12:55.213Z</time></trkpt><trkpt lat="43.5220751" lon="11.4353347"><ele>657.2</ele><time>2026-04-18T10:12:57.213Z</time></trkpt><trkpt lat="43.5221505" lon="11.4354264"><ele>654.4</ele><time>2026-04-18T10:12:59.216Z</time></trkpt><trkpt lat="43.5222263" lon="11.4355475"><ele>651.5999999999999</ele><time>2026-04-18T10:13:01.213Z</time></trkpt><trkpt lat="43.5222716" lon="11.4356229"><ele>648.8</ele><time>2026-04-18T10:13:02.214Z</time></trkpt><trkpt lat="43.5223044" lon="11.4357006"><ele>646.0</ele><time>2026-04-18T10:13:03.214Z</time></trkpt><trkpt lat="43.5223632" lon="11.4358279"><ele>646.0</ele><time>2026-04-18T10:13:05.214Z</time></trkpt><trkpt lat="43.5224483" lon="11.4359334"><ele>646.0</ele><time>2026-04-18T10:13:07.213Z</time></trkpt><trkpt lat="43.5225404" lon="11.4360428"><ele>646.0</ele><time>2026-04-18T10:13:09.214Z</time></trkpt><trkpt lat="43.5226199" lon="11.4361601"><ele>646.0</ele><time>2026-04-18T10:13:11.214Z</time></trkpt><trkpt lat="43.5226525" lon="11.4362643"><ele>646.0</ele><time>2026-04-18T10:13:13.213Z</time></trkpt><trkpt lat="43.5226393" lon="11.4363577"><ele>645.5</ele><time>2026-04-18T10:13:15.214Z</time></trkpt><trkpt lat="43.5226505" lon="11.4364603"><ele>645.0</ele><time>2026-04-18T10:13:17.213Z</time></trkpt><trkpt lat="43.5227094" lon="11.4365783"><ele>644.5</ele><time>2026-04-18T10:13:19.214Z</time></trkpt><trkpt lat="43.5227471" lon="11.4366718"><ele>644.0</ele><time>2026-04-18T10:13:21.215Z</time></trkpt><trkpt lat="43.5226726" lon="11.436704"><ele>643.5</ele><time>2026-04-18T10:13:31.214Z</time></trkpt><trkpt lat="43.5226152" lon="11.4367905"><ele>643.0</ele><time>2026-04-18T10:13:34.215Z</time></trkpt><trkpt lat="43.522556" lon="11.4368598"><ele>643.0</ele><time>2026-04-18T10:13:37.213Z</time></trkpt><trkpt lat="43.522504" lon="11.4369251"><ele>643.0</ele><time>2026-04-18T10:13:39.213Z</time></trkpt><trkpt lat="43.5224501" lon="11.4369882"><ele>643.0</ele><time>2026-04-18T10:13:41.215Z</time></trkpt><trkpt lat="43.5223734" lon="11.437057"><ele>643.0</ele><time>2026-04-18T10:13:44.215Z</time></trkpt><trkpt lat="43.5223059" lon="11.4370793"><ele>643.0</ele><time>2026-04-18T10:13:46.214Z</time></trkpt><trkpt lat="43.5222163" lon="11.437029"><ele>643.0</ele><time>2026-04-18T10:13:48.214Z</time></trkpt><trkpt lat="43.5221288" lon="11.436936"><ele>643.0</ele><time>2026-04-18T10:13:50.215Z</time></trkpt><trkpt lat="43.5220684" lon="11.4368437"><ele>643.0</ele><time>2026-04-18T10:13:52.214Z</time></trkpt><trkpt lat="43.5220082" lon="11.4367764"><ele>643.0</ele><time>2026-04-18T10:13:54.215Z</time></trkpt><trkpt lat="43.521956" lon="11.4367052"><ele>643.0</ele><time>2026-04-18T10:13:57.214Z</time></trkpt><trkpt lat="43.5219071" lon="11.4366264"><ele>643.0</ele><time>2026-04-18T10:13:59.216Z</time></trkpt><trkpt lat="43.5218578" lon="11.4365384"><ele>643.0</ele><time>2026-04-18T10:14:01.214Z</time></trkpt><trkpt lat="43.5217809" lon="11.4364899"><ele>643.8333333333334</ele><time>2026-04-18T10:14:04.213Z</time></trkpt><trkpt lat="43.5217196" lon="11.4364318"><ele>644.6666666666667</ele><time>2026-04-18T10:14:11.213Z</time></trkpt><trkpt lat="43.5216615" lon="11.436366"><ele>645.5</ele><time>2026-04-18T10:14:14.213Z</time></trkpt><trkpt lat="43.5216039" lon="11.4362871"><ele>646.3333333333334</ele><time>2026-04-18T10:14:17.214Z</time></trkpt><trkpt lat="43.521539" lon="11.4362232"><ele>647.1666666666666</ele><time>2026-04-18T10:14:20.214Z</time></trkpt><trkpt lat="43.5214429" lon="11.4361524"><ele>648.0</ele><time>2026-04-18T10:14:22.215Z</time></trkpt><trkpt lat="43.521365" lon="11.4361023"><ele>648.0</ele><time>2026-04-18T10:14:24.214Z</time></trkpt><trkpt lat="43.5212963" lon="11.4361603"><ele>648.0</ele><time>2026-04-18T10:14:26.214Z</time></trkpt><trkpt lat="43.5212379" lon="11.4362457"><ele>648.0</ele><time>2026-04-18T10:14:28.214Z</time></trkpt><trkpt lat="43.521162" lon="11.43634"><ele>648.0</ele><time>2026-04-18T10:14:30.214Z</time></trkpt><trkpt lat="43.5211189" lon="11.43648"><ele>648.0</ele><time>2026-04-18T10:14:32.215Z</time></trkpt><trkpt lat="43.5210866" lon="11.4366062"><ele>648.1666666666666</ele><time>2026-04-18T10:14:34.214Z</time></trkpt><trkpt lat="43.5210547" lon="11.4367087"><ele>648.3333333333334</ele><time>2026-04-18T10:14:36.214Z</time></trkpt><trkpt lat="43.5210103" lon="11.4368113"><ele>648.5</ele><time>2026-04-18T10:14:38.213Z</time></trkpt><trkpt lat="43.5209356" lon="11.4368957"><ele>648.6666666666667</ele><time>2026-04-18T10:14:40.214Z</time></trkpt><trkpt lat="43.5208684" lon="11.436972"><ele>648.8333333333334</ele><time>2026-04-18T10:14:42.213Z</time></trkpt><trkpt lat="43.5207924" lon="11.4369844"><ele>649.0</ele><time>2026-04-18T10:14:45.213Z</time></trkpt><trkpt lat="43.5207911" lon="11.4370795"><ele>649.0</ele><time>2026-04-18T10:14:48.214Z</time></trkpt><trkpt lat="43.5208527" lon="11.4370977"><ele>649.0</ele><time>2026-04-18T10:15:01.214Z</time></trkpt><trkpt lat="43.5209065" lon="11.4371687"><ele>649.0</ele><time>2026-04-18T10:15:07.214Z</time></trkpt><trkpt lat="43.5208056" lon="11.4371333"><ele>649.0</ele><time>2026-04-18T10:15:17.214Z</time></trkpt><trkpt lat="43.5207983" lon="11.4372754"><ele>649.0</ele><time>2026-04-18T10:15:21.213Z</time></trkpt><trkpt lat="43.5208214" lon="11.4374063"><ele>649.0</ele><time>2026-04-18T10:15:23.214Z</time></trkpt><trkpt lat="43.5208516" lon="11.4375394"><ele>650.1666666666667</ele><time>2026-04-18T10:15:25.214Z</time></trkpt><trkpt lat="43.5208462" lon="11.4376721"><ele>651.3333333333334</ele><time>2026-04-18T10:15:27.214Z</time></trkpt><trkpt lat="43.5208737" lon="11.4377507"><ele>652.5</ele><time>2026-04-18T10:15:28.214Z</time></trkpt><trkpt lat="43.5209163" lon="11.4378651"><ele>653.6666666666666</ele><time>2026-04-18T10:15:30.214Z</time></trkpt><trkpt lat="43.520917" lon="11.4379777"><ele>654.8333333333333</ele><time>2026-04-18T10:15:32.214Z</time></trkpt><trkpt lat="43.5208765" lon="11.438063"><ele>656.0</ele><time>2026-04-18T10:15:39.214Z</time></trkpt><trkpt lat="43.5207977" lon="11.43805"><ele>656.5</ele><time>2026-04-18T10:15:42.213Z</time></trkpt><trkpt lat="43.5207184" lon="11.43807"><ele>657.0</ele><time>2026-04-18T10:15:44.214Z</time></trkpt><trkpt lat="43.5206484" lon="11.4380861"><ele>657.5</ele><time>2026-04-18T10:15:46.213Z</time></trkpt><trkpt lat="43.520577" lon="11.4381006"><ele>658.0</ele><time>2026-04-18T10:15:48.213Z</time></trkpt><trkpt lat="43.5204972" lon="11.4381158"><ele>658.5</ele><time>2026-04-18T10:15:50.214Z</time></trkpt><trkpt lat="43.5204194" lon="11.4381586"><ele>659.0</ele><time>2026-04-18T10:15:52.213Z</time></trkpt><trkpt lat="43.5203263" lon="11.4381987"><ele>663.3333333333333</ele><time>2026-04-18T10:15:54.213Z</time></trkpt><trkpt lat="43.5202477" lon="11.4382214"><ele>667.6666666666666</ele><time>2026-04-18T10:15:56.214Z</time></trkpt><trkpt lat="43.5201558" lon="11.4382423"><ele>672.0</ele><time>2026-04-18T10:15:58.214Z</time></trkpt><trkpt lat="43.5200887" lon="11.4382095"><ele>676.3333333333334</ele><time>2026-04-18T10:16:00.213Z</time></trkpt><trkpt lat="43.5199928" lon="11.4381921"><ele>680.6666666666667</ele><time>2026-04-18T10:16:03.214Z</time></trkpt><trkpt lat="43.5199027" lon="11.4382501"><ele>685.0</ele><time>2026-04-18T10:16:05.214Z</time></trkpt><trkpt lat="43.5198213" lon="11.4383007"><ele>685.0</ele><time>2026-04-18T10:16:07.214Z</time></trkpt><trkpt lat="43.5197438" lon="11.4383353"><ele>685.0</ele><time>2026-04-18T10:16:09.214Z</time></trkpt><trkpt lat="43.5196526" lon="11.4383241"><ele>685.0</ele><time>2026-04-18T10:16:11.213Z</time></trkpt><trkpt lat="43.5195723" lon="11.4383168"><ele>685.0</ele><time>2026-04-18T10:16:13.214Z</time></trkpt><trkpt lat="43.5194867" lon="11.4383578"><ele>685.0</ele><time>2026-04-18T10:16:15.213Z</time></trkpt><trkpt lat="43.5194072" lon="11.4384235"><ele>685.0</ele><time>2026-04-18T10:16:17.214Z</time></trkpt><trkpt lat="43.5193029" lon="11.4383791"><ele>688.6</ele><time>2026-04-18T10:16:19.214Z</time></trkpt><trkpt lat="43.5191811" lon="11.4383699"><ele>692.2</ele><time>2026-04-18T10:16:21.215Z</time></trkpt><trkpt lat="43.5191147" lon="11.4383659"><ele>695.8</ele><time>2026-04-18T10:16:22.214Z</time></trkpt><trkpt lat="43.5190012" lon="11.4384426"><ele>699.4</ele><time>2026-04-18T10:16:24.214Z</time></trkpt><trkpt lat="43.5189012" lon="11.4385109"><ele>703.0</ele><time>2026-04-18T10:16:26.213Z</time></trkpt><trkpt lat="43.518799" lon="11.4385805"><ele>705.1666666666667</ele><time>2026-04-18T10:16:28.214Z</time></trkpt><trkpt lat="43.5186923" lon="11.4386273"><ele>707.3333333333334</ele><time>2026-04-18T10:16:30.214Z</time></trkpt><trkpt lat="43.5186042" lon="11.4386449"><ele>709.5</ele><time>2026-04-18T10:16:32.214Z</time></trkpt><trkpt lat="43.5185471" lon="11.4386889"><ele>711.6666666666666</ele><time>2026-04-18T10:16:34.213Z</time></trkpt><trkpt lat="43.5185162" lon="11.4387784"><ele>713.8333333333333</ele><time>2026-04-18T10:16:37.213Z</time></trkpt><trkpt lat="43.5184352" lon="11.438783"><ele>716.0</ele><time>2026-04-18T10:16:40.214Z</time></trkpt><trkpt lat="43.5183664" lon="11.4387434"><ele>716.0</ele><time>2026-04-18T10:16:43.215Z</time></trkpt><trkpt lat="43.51842" lon="11.4388471"><ele>716.0</ele><time>2026-04-18T10:16:45.214Z</time></trkpt><trkpt lat="43.5185197" lon="11.4387605"><ele>716.0</ele><time>2026-04-18T10:16:47.214Z</time></trkpt><trkpt lat="43.5185904" lon="11.438692"><ele>716.0</ele><time>2026-04-18T10:16:49.215Z</time></trkpt><trkpt lat="43.5186687" lon="11.4386603"><ele>716.0</ele><time>2026-04-18T10:16:51.214Z</time></trkpt><trkpt lat="43.5187482" lon="11.4386348"><ele>713.4</ele><time>2026-04-18T10:16:53.214Z</time></trkpt><trkpt lat="43.5188293" lon="11.4385704"><ele>710.8</ele><time>2026-04-18T10:16:55.214Z</time></trkpt><trkpt lat="43.5189069" lon="11.4384658"><ele>708.1999999999999</ele><time>2026-04-18T10:16:57.214Z</time></trkpt><trkpt lat="43.5190098" lon="11.4383817"><ele>705.5999999999999</ele><time>2026-04-18T10:16:59.214Z</time></trkpt><trkpt lat="43.5191132" lon="11.438375"><ele>703.0</ele><time>2026-04-18T10:17:01.213Z</time></trkpt><trkpt lat="43.5192153" lon="11.4383922"><ele>703.0</ele><time>2026-04-18T10:17:03.213Z</time></trkpt><trkpt lat="43.5193241" lon="11.4384075"><ele>703.0</ele><time>2026-04-18T10:17:05.214Z</time></trkpt><trkpt lat="43.5194134" lon="11.4384071"><ele>703.0</ele><time>2026-04-18T10:17:07.213Z</time></trkpt><trkpt lat="43.5194845" lon="11.4383828"><ele>703.0</ele><time>2026-04-18T10:17:09.214Z</time></trkpt><trkpt lat="43.5195572" lon="11.438349"><ele>703.0</ele><time>2026-04-18T10:17:12.213Z</time></trkpt><trkpt lat="43.5196286" lon="11.4383742"><ele>703.0</ele><time>2026-04-18T10:17:15.214Z</time></trkpt><trkpt lat="43.5197026" lon="11.4383724"><ele>700.0</ele><time>2026-04-18T10:17:17.212Z</time></trkpt><trkpt lat="43.5197703" lon="11.4383322"><ele>697.0</ele><time>2026-04-18T10:17:19.212Z</time></trkpt><trkpt lat="43.5198367" lon="11.4382607"><ele>694.0</ele><time>2026-04-18T10:17:21.214Z</time></trkpt><trkpt lat="43.5199179" lon="11.4382126"><ele>691.0</ele><time>2026-04-18T10:17:23.214Z</time></trkpt><trkpt lat="43.5199894" lon="11.4382282"><ele>688.0</ele><time>2026-04-18T10:17:25.214Z</time></trkpt><trkpt lat="43.5200704" lon="11.4382572"><ele>685.0</ele><time>2026-04-18T10:17:27.214Z</time></trkpt><trkpt lat="43.5201608" lon="11.4382589"><ele>685.0</ele><time>2026-04-18T10:17:29.213Z</time></trkpt><trkpt lat="43.5202636" lon="11.4382305"><ele>685.0</ele><time>2026-04-18T10:17:31.214Z</time></trkpt><trkpt lat="43.5203569" lon="11.4381881"><ele>685.0</ele><time>2026-04-18T10:17:33.214Z</time></trkpt><trkpt lat="43.5204369" lon="11.4381691"><ele>685.0</ele><time>2026-04-18T10:17:35.213Z</time></trkpt><trkpt lat="43.5205271" lon="11.4381442"><ele>685.0</ele><time>2026-04-18T10:17:37.214Z</time></trkpt><trkpt lat="43.5206245" lon="11.4381275"><ele>680.6666666666667</ele><time>2026-04-18T10:17:39.214Z</time></trkpt><trkpt lat="43.520706" lon="11.4381075"><ele>676.3333333333334</ele><time>2026-04-18T10:17:41.213Z</time></trkpt><trkpt lat="43.520806" lon="11.4380855"><ele>672.0</ele><time>2026-04-18T10:18:24.213Z</time></trkpt><trkpt lat="43.5208553" lon="11.4380229"><ele>667.6666666666666</ele><time>2026-04-18T10:18:33.213Z</time></trkpt><trkpt lat="43.5208458" lon="11.4379027"><ele>663.3333333333333</ele><time>2026-04-18T10:18:36.213Z</time></trkpt><trkpt lat="43.5208276" lon="11.4378194"><ele>659.0</ele><time>2026-04-18T10:18:38.212Z</time></trkpt><trkpt lat="43.5208007" lon="11.437721"><ele>658.4000000000001</ele><time>2026-04-18T10:18:40.213Z</time></trkpt><trkpt lat="43.5207975" lon="11.4375727"><ele>657.8</ele><time>2026-04-18T10:18:42.214Z</time></trkpt><trkpt lat="43.5207764" lon="11.4374465"><ele>657.2</ele><time>2026-04-18T10:18:44.212Z</time></trkpt><trkpt lat="43.5207533" lon="11.4373135"><ele>656.5999999999999</ele><time>2026-04-18T10:18:46.213Z</time></trkpt><trkpt lat="43.5207267" lon="11.4372083"><ele>656.0</ele><time>2026-04-18T10:18:48.214Z</time></trkpt><trkpt lat="43.5207041" lon="11.4371052"><ele>654.8333333333333</ele><time>2026-04-18T10:18:51.213Z</time></trkpt><trkpt lat="43.5207343" lon="11.4370247"><ele>653.6666666666666</ele><time>2026-04-18T10:18:54.214Z</time></trkpt><trkpt lat="43.5208183" lon="11.4369884"><ele>652.5</ele><time>2026-04-18T10:18:57.213Z</time></trkpt><trkpt lat="43.5208893" lon="11.4369414"><ele>651.3333333333334</ele><time>2026-04-18T10:18:59.213Z</time></trkpt><trkpt lat="43.5209614" lon="11.4368525"><ele>650.1666666666667</ele><time>2026-04-18T10:19:01.214Z</time></trkpt><trkpt lat="43.5210014" lon="11.4367446"><ele>649.0</ele><time>2026-04-18T10:19:03.212Z</time></trkpt><trkpt lat="43.5210312" lon="11.436641"><ele>649.0</ele><time>2026-04-18T10:19:05.213Z</time></trkpt><trkpt lat="43.5210529" lon="11.4365341"><ele>649.0</ele><time>2026-04-18T10:19:07.214Z</time></trkpt><trkpt lat="43.5210671" lon="11.4364222"><ele>649.0</ele><time>2026-04-18T10:19:09.214Z</time></trkpt><trkpt lat="43.5211228" lon="11.4363469"><ele>649.0</ele><time>2026-04-18T10:19:12.214Z</time></trkpt><trkpt lat="43.5212031" lon="11.4363829"><ele>649.0</ele><time>2026-04-18T10:19:15.214Z</time></trkpt><trkpt lat="43.5212418" lon="11.4364574"><ele>649.0</ele><time>2026-04-18T10:19:17.213Z</time></trkpt><trkpt lat="43.5212844" lon="11.4365505"><ele>647.1428571428571</ele><time>2026-04-18T10:19:19.214Z</time></trkpt><trkpt lat="43.5213222" lon="11.4366367"><ele>645.2857142857142</ele><time>2026-04-18T10:19:21.214Z</time></trkpt><trkpt lat="43.5213684" lon="11.4367169"><ele>643.4285714285713</ele><time>2026-04-18T10:19:23.213Z</time></trkpt><trkpt lat="43.5214261" lon="11.4367528"><ele>641.5714285714286</ele><time>2026-04-18T10:19:25.213Z</time></trkpt><trkpt lat="43.5214828" lon="11.4367907"><ele>639.7142857142858</ele><time>2026-04-18T10:19:27.214Z</time></trkpt><trkpt lat="43.5215405" lon="11.4368819"><ele>637.8571428571428</ele><time>2026-04-18T10:19:31.213Z</time></trkpt><trkpt lat="43.5215509" lon="11.4369892"><ele>636.0</ele><time>2026-04-18T10:19:34.214Z</time></trkpt><trkpt lat="43.5215607" lon="11.4370867"><ele>635.0</ele><time>2026-04-18T10:19:36.213Z</time></trkpt><trkpt lat="43.521585" lon="11.4371704"><ele>634.0</ele><time>2026-04-18T10:19:38.214Z</time></trkpt><trkpt lat="43.5216247" lon="11.4372859"><ele>633.0</ele><time>2026-04-18T10:19:41.214Z</time></trkpt><trkpt lat="43.5216614" lon="11.4373855"><ele>632.0</ele><time>2026-04-18T10:19:43.214Z</time></trkpt><trkpt lat="43.5217032" lon="11.4374943"><ele>631.0</ele><time>2026-04-18T10:19:46.213Z</time></trkpt><trkpt lat="43.5217229" lon="11.4375838"><ele>630.0</ele><time>2026-04-18T10:19:48.214Z</time></trkpt><trkpt lat="43.5217425" lon="11.4376803"><ele>630.0</ele><time>2026-04-18T10:19:50.214Z</time></trkpt><trkpt lat="43.5217754" lon="11.4377775"><ele>630.0</ele><time>2026-04-18T10:19:53.214Z</time></trkpt><trkpt lat="43.5217982" lon="11.4378731"><ele>630.0</ele><time>2026-04-18T10:19:55.214Z</time></trkpt><trkpt lat="43.5218035" lon="11.43796"><ele>630.0</ele><time>2026-04-18T10:19:57.214Z</time></trkpt><trkpt lat="43.5218116" lon="11.4380774"><ele>630.0</ele><time>2026-04-18T10:20:00.214Z</time></trkpt><trkpt lat="43.5218226" lon="11.4381935"><ele>630.0</ele><time>2026-04-18T10:20:02.214Z</time></trkpt><trkpt lat="43.5218151" lon="11.4382981"><ele>629.0</ele><time>2026-04-18T10:20:04.213Z</time></trkpt><trkpt lat="43.5217821" lon="11.4384129"><ele>628.0</ele><time>2026-04-18T10:20:06.214Z</time></trkpt><trkpt lat="43.5217546" lon="11.4384975"><ele>627.0</ele><time>2026-04-18T10:20:09.213Z</time></trkpt><trkpt lat="43.5218138" lon="11.4385875"><ele>626.0</ele><time>2026-04-18T10:20:12.214Z</time></trkpt><trkpt lat="43.5218855" lon="11.4386744"><ele>625.0</ele><time>2026-04-18T10:20:15.213Z</time></trkpt><trkpt lat="43.5219166" lon="11.4388324"><ele>624.2</ele><time>2026-04-18T10:20:17.213Z</time></trkpt><trkpt lat="43.5219521" lon="11.4389645"><ele>623.4</ele><time>2026-04-18T10:20:19.214Z</time></trkpt><trkpt lat="43.521976" lon="11.4391076"><ele>622.6</ele><time>2026-04-18T10:20:21.213Z</time></trkpt><trkpt lat="43.522018" lon="11.4392426"><ele>621.8</ele><time>2026-04-18T10:20:23.213Z</time></trkpt><trkpt lat="43.5219969" lon="11.4394078"><ele>621.0</ele><time>2026-04-18T10:20:25.213Z</time></trkpt><trkpt lat="43.5219757" lon="11.4394956"><ele>621.0</ele><time>2026-04-18T10:20:26.214Z</time></trkpt><trkpt lat="43.5219491" lon="11.4395873"><ele>621.0</ele><time>2026-04-18T10:20:27.213Z</time></trkpt><trkpt lat="43.5219358" lon="11.4396751"><ele>621.0</ele><time>2026-04-18T10:20:28.213Z</time></trkpt><trkpt lat="43.5219011" lon="11.4397574"><ele>621.0</ele><time>2026-04-18T10:20:29.212Z</time></trkpt><trkpt lat="43.5218369" lon="11.439905"><ele>621.0</ele><time>2026-04-18T10:20:31.214Z</time></trkpt><trkpt lat="43.5217969" lon="11.4400279"><ele>621.0</ele><time>2026-04-18T10:20:33.213Z</time></trkpt><trkpt lat="43.5218251" lon="11.4401214"><ele>620.3333333333334</ele><time>2026-04-18T10:20:35.214Z</time></trkpt><trkpt lat="43.5218935" lon="11.4402438"><ele>619.6666666666666</ele><time>2026-04-18T10:20:37.212Z</time></trkpt><trkpt lat="43.5219239" lon="11.4403392"><ele>619.0</ele><time>2026-04-18T10:20:39.212Z</time></trkpt><trkpt lat="43.5219559" lon="11.4404318"><ele>618.3333333333333</ele><time>2026-04-18T10:20:41.213Z</time></trkpt><trkpt lat="43.5219561" lon="11.4405403"><ele>617.6666666666666</ele><time>2026-04-18T10:20:44.213Z</time></trkpt><trkpt lat="43.5219708" lon="11.440665"><ele>617.0</ele><time>2026-04-18T10:20:47.213Z</time></trkpt><trkpt lat="43.5219452" lon="11.4407606"><ele>615.1428571428572</ele><time>2026-04-18T10:20:49.212Z</time></trkpt><trkpt lat="43.5218916" lon="11.4408219"><ele>613.2857142857142</ele><time>2026-04-18T10:20:51.213Z</time></trkpt><trkpt lat="43.5218281" lon="11.4408822"><ele>611.4285714285714</ele><time>2026-04-18T10:20:53.213Z</time></trkpt><trkpt lat="43.5217702" lon="11.4409576"><ele>609.5714285714287</ele><time>2026-04-18T10:20:55.213Z</time></trkpt><trkpt lat="43.5217548" lon="11.4410439"><ele>607.7142857142858</ele><time>2026-04-18T10:20:56.213Z</time></trkpt><trkpt lat="43.5217246" lon="11.4411419"><ele>605.8571428571429</ele><time>2026-04-18T10:20:58.214Z</time></trkpt><trkpt lat="43.5216843" lon="11.4412293"><ele>604.0</ele><time>2026-04-18T10:21:01.213Z</time></trkpt><trkpt lat="43.5216388" lon="11.4412921"><ele>599.5</ele><time>2026-04-18T10:21:03.213Z</time></trkpt><trkpt lat="43.5215838" lon="11.4413818"><ele>595.0</ele><time>2026-04-18T10:21:05.214Z</time></trkpt><trkpt lat="43.5215294" lon="11.4414882"><ele>590.5</ele><time>2026-04-18T10:21:07.213Z</time></trkpt><trkpt lat="43.5214745" lon="11.4415839"><ele>586.0</ele><time>2026-04-18T10:21:09.212Z</time></trkpt><trkpt lat="43.521433" lon="11.441677"><ele>581.5</ele><time>2026-04-18T10:21:11.213Z</time></trkpt><trkpt lat="43.5214018" lon="11.4417789"><ele>577.0</ele><time>2026-04-18T10:21:13.213Z</time></trkpt><trkpt lat="43.5213713" lon="11.4418678"><ele>577.0</ele><time>2026-04-18T10:21:15.213Z</time></trkpt><trkpt lat="43.5213425" lon="11.4419654"><ele>577.0</ele><time>2026-04-18T10:21:17.213Z</time></trkpt><trkpt lat="43.5213161" lon="11.442077"><ele>577.0</ele><time>2026-04-18T10:21:19.213Z</time></trkpt><trkpt lat="43.5212828" lon="11.4421675"><ele>577.0</ele><time>2026-04-18T10:21:21.213Z</time></trkpt><trkpt lat="43.5212426" lon="11.4422706"><ele>577.0</ele><time>2026-04-18T10:21:23.213Z</time></trkpt><trkpt lat="43.521181" lon="11.4423898"><ele>577.0</ele><time>2026-04-18T10:21:25.213Z</time></trkpt><trkpt lat="43.5211195" lon="11.4425964"><ele>576.5</ele><time>2026-04-18T10:21:26.213Z</time></trkpt><trkpt lat="43.5210837" lon="11.44271"><ele>576.0</ele><time>2026-04-18T10:21:28.213Z</time></trkpt><trkpt lat="43.5210502" lon="11.4428398"><ele>575.5</ele><time>2026-04-18T10:21:30.212Z</time></trkpt><trkpt lat="43.5210294" lon="11.4429304"><ele>575.0</ele><time>2026-04-18T10:21:31.213Z</time></trkpt><trkpt lat="43.5210059" lon="11.4430206"><ele>574.5</ele><time>2026-04-18T10:21:32.212Z</time></trkpt><trkpt lat="43.5209882" lon="11.4431577"><ele>574.0</ele><time>2026-04-18T10:21:34.213Z</time></trkpt><trkpt lat="43.5209569" lon="11.4433011"><ele>574.0</ele><time>2026-04-18T10:21:36.212Z</time></trkpt><trkpt lat="43.5209362" lon="11.4434289"><ele>574.0</ele><time>2026-04-18T10:21:38.212Z</time></trkpt><trkpt lat="43.5209188" lon="11.4435667"><ele>574.0</ele><time>2026-04-18T10:21:40.213Z</time></trkpt><trkpt lat="43.5208975" lon="11.4436812"><ele>574.0</ele><time>2026-04-18T10:21:42.213Z</time></trkpt><trkpt lat="43.5208418" lon="11.4437862"><ele>574.0</ele><time>2026-04-18T10:21:44.213Z</time></trkpt><trkpt lat="43.5207679" lon="11.4438724"><ele>569.6</ele><time>2026-04-18T10:21:46.213Z</time></trkpt><trkpt lat="43.520712" lon="11.4439621"><ele>565.2</ele><time>2026-04-18T10:21:48.213Z</time></trkpt><trkpt lat="43.5206706" lon="11.4440646"><ele>560.8000000000001</ele><time>2026-04-18T10:21:51.213Z</time></trkpt><trkpt lat="43.5206839" lon="11.4442392"><ele>556.4</ele><time>2026-04-18T10:21:54.213Z</time></trkpt><trkpt lat="43.5206947" lon="11.4443514"><ele>552.0</ele><time>2026-04-18T10:21:56.212Z</time></trkpt><trkpt lat="43.5207137" lon="11.4444831"><ele>552.0</ele><time>2026-04-18T10:21:58.213Z</time></trkpt><trkpt lat="43.5206971" lon="11.4445785"><ele>552.0</ele><time>2026-04-18T10:22:00.213Z</time></trkpt><trkpt lat="43.5207138" lon="11.4447134"><ele>552.0</ele><time>2026-04-18T10:22:02.213Z</time></trkpt><trkpt lat="43.520731" lon="11.4448678"><ele>552.0</ele><time>2026-04-18T10:22:04.213Z</time></trkpt><trkpt lat="43.5206779" lon="11.4449282"><ele>552.0</ele><time>2026-04-18T10:22:06.213Z</time></trkpt><trkpt lat="43.5205794" lon="11.4449833"><ele>551.4</ele><time>2026-04-18T10:22:08.213Z</time></trkpt><trkpt lat="43.5204981" lon="11.4450771"><ele>550.8000000000001</ele><time>2026-04-18T10:22:10.213Z</time></trkpt><trkpt lat="43.520444" lon="11.4451682"><ele>550.2</ele><time>2026-04-18T10:22:12.213Z</time></trkpt><trkpt lat="43.5204113" lon="11.4452807"><ele>549.6</ele><time>2026-04-18T10:22:14.213Z</time></trkpt><trkpt lat="43.5203964" lon="11.4454006"><ele>549.0</ele><time>2026-04-18T10:22:16.213Z</time></trkpt><trkpt lat="43.5203812" lon="11.4455565"><ele>545.0</ele><time>2026-04-18T10:22:18.213Z</time></trkpt><trkpt lat="43.5204077" lon="11.4456956"><ele>541.0</ele><time>2026-04-18T10:22:20.214Z</time></trkpt><trkpt lat="43.5204437" lon="11.4458086"><ele>537.0</ele><time>2026-04-18T10:22:22.212Z</time></trkpt><trkpt lat="43.5204803" lon="11.4459001"><ele>533.0</ele><time>2026-04-18T10:22:24.214Z</time></trkpt><trkpt lat="43.5204637" lon="11.4460203"><ele>529.0</ele><time>2026-04-18T10:22:27.214Z</time></trkpt><trkpt lat="43.5204415" lon="11.4461267"><ele>525.0</ele><time>2026-04-18T10:22:29.214Z</time></trkpt><trkpt lat="43.5204211" lon="11.446255"><ele>524.3333333333334</ele><time>2026-04-18T10:22:31.213Z</time></trkpt><trkpt lat="43.5204574" lon="11.4463664"><ele>523.6666666666666</ele><time>2026-04-18T10:22:33.214Z</time></trkpt><trkpt lat="43.5204929" lon="11.4464408"><ele>523.0</ele><time>2026-04-18T10:22:35.213Z</time></trkpt><trkpt lat="43.5205295" lon="11.4465223"><ele>522.3333333333333</ele><time>2026-04-18T10:22:37.214Z</time></trkpt><trkpt lat="43.5205612" lon="11.4466207"><ele>521.6666666666666</ele><time>2026-04-18T10:22:39.213Z</time></trkpt><trkpt lat="43.520626" lon="11.4467236"><ele>521.0</ele><time>2026-04-18T10:22:41.213Z</time></trkpt><trkpt lat="43.5206893" lon="11.4468119"><ele>521.0</ele><time>2026-04-18T10:22:43.214Z</time></trkpt><trkpt lat="43.5206844" lon="11.4469234"><ele>521.0</ele><time>2026-04-18T10:22:45.212Z</time></trkpt><trkpt lat="43.5206087" lon="11.4469925"><ele>521.0</ele><time>2026-04-18T10:22:47.213Z</time></trkpt><trkpt lat="43.52063" lon="11.44709"><ele>521.0</ele><time>2026-04-18T10:22:55.213Z</time></trkpt><trkpt lat="43.5207123" lon="11.4471527"><ele>521.0</ele><time>2026-04-18T10:22:57.213Z</time></trkpt><trkpt lat="43.5207779" lon="11.4472319"><ele>521.0</ele><time>2026-04-18T10:22:59.213Z</time></trkpt><trkpt lat="43.520835" lon="11.4472731"><ele>519.5</ele><time>2026-04-18T10:23:00.214Z</time></trkpt><trkpt lat="43.5209316" lon="11.4473617"><ele>518.0</ele><time>2026-04-18T10:23:02.213Z</time></trkpt><trkpt lat="43.5209988" lon="11.447376"><ele>516.5</ele><time>2026-04-18T10:23:04.212Z</time></trkpt><trkpt lat="43.5210665" lon="11.4474292"><ele>515.0</ele><time>2026-04-18T10:23:07.214Z</time></trkpt><trkpt lat="43.5211361" lon="11.4474134"><ele>513.5</ele><time>2026-04-18T10:23:10.213Z</time></trkpt><trkpt lat="43.5211794" lon="11.4473202"><ele>512.0</ele><time>2026-04-18T10:23:14.213Z</time></trkpt><trkpt lat="43.5212134" lon="11.4472349"><ele>509.49999999999994</ele><time>2026-04-18T10:23:31.214Z</time></trkpt><trkpt lat="43.5212572" lon="11.4472989"><ele>507.0</ele><time>2026-04-18T10:23:34.214Z</time></trkpt><trkpt lat="43.5213167" lon="11.4474106"><ele>504.5</ele><time>2026-04-18T10:23:36.213Z</time></trkpt><trkpt lat="43.5213868" lon="11.4475269"><ele>502.0</ele><time>2026-04-18T10:23:38.213Z</time></trkpt><trkpt lat="43.5214408" lon="11.4476268"><ele>499.49999999999994</ele><time>2026-04-18T10:23:40.212Z</time></trkpt><trkpt lat="43.5214818" lon="11.4477143"><ele>497.0</ele><time>2026-04-18T10:23:42.213Z</time></trkpt><trkpt lat="43.5215183" lon="11.4477946"><ele>497.0</ele><time>2026-04-18T10:23:45.213Z</time></trkpt><trkpt lat="43.5215723" lon="11.4478579"><ele>497.00000000000006</ele><time>2026-04-18T10:24:19.212Z</time></trkpt><trkpt lat="43.521659" lon="11.4479051"><ele>497.00000000000006</ele><time>2026-04-18T10:24:21.213Z</time></trkpt><trkpt lat="43.5217742" lon="11.4479354"><ele>497.0</ele><time>2026-04-18T10:24:23.213Z</time></trkpt><trkpt lat="43.5218787" lon="11.447981"><ele>497.0</ele><time>2026-04-18T10:24:25.213Z</time></trkpt><trkpt lat="43.521982" lon="11.4480167"><ele>495.6</ele><time>2026-04-18T10:24:27.213Z</time></trkpt><trkpt lat="43.5220756" lon="11.4480422"><ele>494.20000000000005</ele><time>2026-04-18T10:24:29.214Z</time></trkpt><trkpt lat="43.5221501" lon="11.4481172"><ele>492.8</ele><time>2026-04-18T10:24:31.214Z</time></trkpt><trkpt lat="43.5222003" lon="11.448278"><ele>491.4</ele><time>2026-04-18T10:24:33.213Z</time></trkpt><trkpt lat="43.5222152" lon="11.4483633"><ele>490.0</ele><time>2026-04-18T10:24:34.213Z</time></trkpt><trkpt lat="43.5222531" lon="11.4485167"><ele>490.0</ele><time>2026-04-18T10:24:36.213Z</time></trkpt><trkpt lat="43.5223162" lon="11.4486431"><ele>490.0</ele><time>2026-04-18T10:24:38.213Z</time></trkpt><trkpt lat="43.5223825" lon="11.448751"><ele>490.0</ele><time>2026-04-18T10:24:40.214Z</time></trkpt><trkpt lat="43.522453" lon="11.4488466"><ele>490.0</ele><time>2026-04-18T10:24:42.213Z</time></trkpt><trkpt lat="43.5225259" lon="11.4489432"><ele>490.0</ele><time>2026-04-18T10:24:44.212Z</time></trkpt><trkpt lat="43.5225966" lon="11.4490367"><ele>490.50000000000006</ele><time>2026-04-18T10:24:46.213Z</time></trkpt><trkpt lat="43.522659" lon="11.4491344"><ele>491.0</ele><time>2026-04-18T10:24:48.212Z</time></trkpt><trkpt lat="43.5227233" lon="11.4492154"><ele>491.5</ele><time>2026-04-18T10:24:50.213Z</time></trkpt><trkpt lat="43.5227815" lon="11.4492733"><ele>492.0</ele><time>2026-04-18T10:24:52.213Z</time></trkpt><trkpt lat="43.5228476" lon="11.4493305"><ele>492.50000000000006</ele><time>2026-04-18T10:24:55.213Z</time></trkpt><trkpt lat="43.5229354" lon="11.4493634"><ele>493.0</ele><time>2026-04-18T10:26:16.208Z</time></trkpt><trkpt lat="43.5230676" lon="11.4493782"><ele>489.5</ele><time>2026-04-18T10:26:18.208Z</time></trkpt><trkpt lat="43.5231633" lon="11.4493962"><ele>486.0</ele><time>2026-04-18T10:26:19.207Z</time></trkpt><trkpt lat="43.523279" lon="11.4494134"><ele>482.5</ele><time>2026-04-18T10:26:20.208Z</time></trkpt><trkpt lat="43.5234005" lon="11.4494319"><ele>479.0</ele><time>2026-04-18T10:26:21.207Z</time></trkpt><trkpt lat="43.5235288" lon="11.4494546"><ele>479.0</ele><time>2026-04-18T10:26:22.207Z</time></trkpt><trkpt lat="43.5236518" lon="11.4494719"><ele>479.0</ele><time>2026-04-18T10:26:23.208Z</time></trkpt><trkpt lat="43.5237713" lon="11.4494957"><ele>479.0</ele><time>2026-04-18T10:26:24.208Z</time></trkpt><trkpt lat="43.523881" lon="11.4495176"><ele>479.0</ele><time>2026-04-18T10:26:25.208Z</time></trkpt><trkpt lat="43.5239742" lon="11.4495501"><ele>475.79999999999995</ele><time>2026-04-18T10:26:26.208Z</time></trkpt><trkpt lat="43.5240499" lon="11.4496055"><ele>472.59999999999997</ele><time>2026-04-18T10:26:27.208Z</time></trkpt><trkpt lat="43.5241021" lon="11.4496785"><ele>469.4</ele><time>2026-04-18T10:26:28.208Z</time></trkpt><trkpt lat="43.5241429" lon="11.4497614"><ele>466.2</ele><time>2026-04-18T10:26:29.208Z</time></trkpt><trkpt lat="43.5241292" lon="11.449858"><ele>463.0</ele><time>2026-04-18T10:26:30.208Z</time></trkpt><trkpt lat="43.52396" lon="11.4499698"><ele>463.0</ele><time>2026-04-18T10:26:32.208Z</time></trkpt><trkpt lat="43.5238729" lon="11.4500346"><ele>463.0</ele><time>2026-04-18T10:26:33.208Z</time></trkpt><trkpt lat="43.5237795" lon="11.4501115"><ele>463.0</ele><time>2026-04-18T10:26:34.207Z</time></trkpt><trkpt lat="43.5236181" lon="11.4502282"><ele>463.0</ele><time>2026-04-18T10:26:35.208Z</time></trkpt><trkpt lat="43.5234893" lon="11.4503208"><ele>461.25</ele><time>2026-04-18T10:26:36.208Z</time></trkpt><trkpt lat="43.5233691" lon="11.4504104"><ele>459.5</ele><time>2026-04-18T10:26:37.207Z</time></trkpt><trkpt lat="43.5232578" lon="11.450501"><ele>457.75</ele><time>2026-04-18T10:26:38.208Z</time></trkpt><trkpt lat="43.5231539" lon="11.4506011"><ele>456.0</ele><time>2026-04-18T10:26:39.208Z</time></trkpt><trkpt lat="43.523064" lon="11.4507194"><ele>456.0</ele><time>2026-04-18T10:26:40.208Z</time></trkpt><trkpt lat="43.5229839" lon="11.4508319"><ele>456.0</ele><time>2026-04-18T10:26:41.208Z</time></trkpt><trkpt lat="43.5229168" lon="11.450937"><ele>456.0</ele><time>2026-04-18T10:26:42.207Z</time></trkpt><trkpt lat="43.5228795" lon="11.4510567"><ele>456.0</ele><time>2026-04-18T10:26:43.208Z</time></trkpt><trkpt lat="43.5228729" lon="11.4511943"><ele>456.0</ele><time>2026-04-18T10:26:44.208Z</time></trkpt><trkpt lat="43.522878" lon="11.4513642"><ele>456.6</ele><time>2026-04-18T10:26:45.207Z</time></trkpt><trkpt lat="43.5228847" lon="11.451533"><ele>457.20000000000005</ele><time>2026-04-18T10:26:46.208Z</time></trkpt><trkpt lat="43.5228825" lon="11.4516726"><ele>457.79999999999995</ele><time>2026-04-18T10:26:47.208Z</time></trkpt><trkpt lat="43.5228746" lon="11.4518081"><ele>458.4</ele><time>2026-04-18T10:26:48.208Z</time></trkpt><trkpt lat="43.5228688" lon="11.4519521"><ele>459.0</ele><time>2026-04-18T10:26:49.207Z</time></trkpt><trkpt lat="43.5228097" lon="11.4520553"><ele>459.0</ele><time>2026-04-18T10:26:50.208Z</time></trkpt><trkpt lat="43.5226884" lon="11.4520418"><ele>459.0</ele><time>2026-04-18T10:26:51.208Z</time></trkpt><trkpt lat="43.5226448" lon="11.4521352"><ele>459.0</ele><time>2026-04-18T10:26:52.208Z</time></trkpt><trkpt lat="43.5226566" lon="11.4522448"><ele>459.0</ele><time>2026-04-18T10:26:53.208Z</time></trkpt><trkpt lat="43.5226992" lon="11.4523315"><ele>459.0</ele><time>2026-04-18T10:26:54.208Z</time></trkpt><trkpt lat="43.5227636" lon="11.4523834"><ele>459.0</ele><time>2026-04-18T10:26:55.207Z</time></trkpt><trkpt lat="43.5228347" lon="11.4523877"><ele>455.79999999999995</ele><time>2026-04-18T10:26:56.208Z</time></trkpt><trkpt lat="43.5229086" lon="11.4523494"><ele>452.59999999999997</ele><time>2026-04-18T10:26:57.208Z</time></trkpt><trkpt lat="43.5229985" lon="11.4522807"><ele>449.4</ele><time>2026-04-18T10:26:58.207Z</time></trkpt><trkpt lat="43.5230919" lon="11.4522059"><ele>446.2</ele><time>2026-04-18T10:26:59.208Z</time></trkpt><trkpt lat="43.5231742" lon="11.4521282"><ele>443.0</ele><time>2026-04-18T10:27:00.208Z</time></trkpt><trkpt lat="43.5232352" lon="11.4520455"><ele>443.0</ele><time>2026-04-18T10:27:01.208Z</time></trkpt><trkpt lat="43.5232648" lon="11.4519479"><ele>442.99999999999994</ele><time>2026-04-18T10:27:02.208Z</time></trkpt><trkpt lat="43.5232669" lon="11.4518285"><ele>442.99999999999994</ele><time>2026-04-18T10:27:03.208Z</time></trkpt><trkpt lat="43.5232546" lon="11.4516948"><ele>443.0</ele><time>2026-04-18T10:27:04.208Z</time></trkpt><trkpt lat="43.5232698" lon="11.4515478"><ele>443.0</ele><time>2026-04-18T10:27:05.208Z</time></trkpt><trkpt lat="43.5233009" lon="11.4514005"><ele>445.59999999999997</ele><time>2026-04-18T10:27:06.208Z</time></trkpt><trkpt lat="43.5233427" lon="11.4512578"><ele>448.19999999999993</ele><time>2026-04-18T10:27:07.208Z</time></trkpt><trkpt lat="43.5234099" lon="11.4511489"><ele>450.8</ele><time>2026-04-18T10:27:08.207Z</time></trkpt><trkpt lat="43.5234994" lon="11.4510683"><ele>453.4</ele><time>2026-04-18T10:27:09.208Z</time></trkpt><trkpt lat="43.5236118" lon="11.4510211"><ele>456.0</ele><time>2026-04-18T10:27:10.208Z</time></trkpt><trkpt lat="43.5237284" lon="11.450984"><ele>451.5</ele><time>2026-04-18T10:27:11.207Z</time></trkpt><trkpt lat="43.5238506" lon="11.45095"><ele>447.0</ele><time>2026-04-18T10:27:12.208Z</time></trkpt><trkpt lat="43.5239883" lon="11.4509018"><ele>442.5</ele><time>2026-04-18T10:27:13.208Z</time></trkpt><trkpt lat="43.5241413" lon="11.4508607"><ele>438.0</ele><time>2026-04-18T10:27:14.207Z</time></trkpt><trkpt lat="43.5243126" lon="11.4508413"><ele>438.0</ele><time>2026-04-18T10:27:15.207Z</time></trkpt><trkpt lat="43.5244767" lon="11.4508469"><ele>438.0</ele><time>2026-04-18T10:27:16.208Z</time></trkpt><trkpt lat="43.5246401" lon="11.4508807"><ele>438.0</ele><time>2026-04-18T10:27:17.208Z</time></trkpt><trkpt lat="43.5247937" lon="11.450941"><ele>435.75</ele><time>2026-04-18T10:27:18.208Z</time></trkpt><trkpt lat="43.524937" lon="11.4510154"><ele>433.5</ele><time>2026-04-18T10:27:19.208Z</time></trkpt><trkpt lat="43.5250716" lon="11.4510906"><ele>431.25</ele><time>2026-04-18T10:27:20.207Z</time></trkpt><trkpt lat="43.5252032" lon="11.4511692"><ele>429.0</ele><time>2026-04-18T10:27:21.208Z</time></trkpt><trkpt lat="43.5253286" lon="11.4512251"><ele>425.25</ele><time>2026-04-18T10:27:22.208Z</time></trkpt><trkpt lat="43.5254627" lon="11.4512406"><ele>421.5</ele><time>2026-04-18T10:27:23.208Z</time></trkpt><trkpt lat="43.5256064" lon="11.4512376"><ele>417.75</ele><time>2026-04-18T10:27:24.207Z</time></trkpt><trkpt lat="43.5257479" lon="11.4512457"><ele>414.0</ele><time>2026-04-18T10:27:25.208Z</time></trkpt><trkpt lat="43.5258938" lon="11.4512745"><ele>410.33333333333337</ele><time>2026-04-18T10:27:26.208Z</time></trkpt><trkpt lat="43.5260462" lon="11.4513383"><ele>406.6666666666667</ele><time>2026-04-18T10:27:27.208Z</time></trkpt><trkpt lat="43.5262037" lon="11.4514157"><ele>403.0</ele><time>2026-04-18T10:27:28.207Z</time></trkpt><trkpt lat="43.5263557" lon="11.4515047"><ele>400.33333333333337</ele><time>2026-04-18T10:27:29.208Z</time></trkpt><trkpt lat="43.5265061" lon="11.4515918"><ele>397.66666666666663</ele><time>2026-04-18T10:27:30.208Z</time></trkpt><trkpt lat="43.5266525" lon="11.4516781"><ele>395.0</ele><time>2026-04-18T10:27:31.208Z</time></trkpt><trkpt lat="43.5267994" lon="11.4517512"><ele>395.0</ele><time>2026-04-18T10:27:32.207Z</time></trkpt><trkpt lat="43.5269501" lon="11.4518292"><ele>395.0</ele><time>2026-04-18T10:27:33.208Z</time></trkpt><trkpt lat="43.5270964" lon="11.4518931"><ele>395.0</ele><time>2026-04-18T10:27:34.208Z</time></trkpt><trkpt lat="43.5272336" lon="11.4519442"><ele>392.0</ele><time>2026-04-18T10:27:35.207Z</time></trkpt><trkpt lat="43.5273795" lon="11.4519832"><ele>389.0</ele><time>2026-04-18T10:27:36.208Z</time></trkpt><trkpt lat="43.5275172" lon="11.4520078"><ele>386.0</ele><time>2026-04-18T10:27:37.208Z</time></trkpt><trkpt lat="43.5276455" lon="11.4520389"><ele>383.0</ele><time>2026-04-18T10:27:38.208Z</time></trkpt><trkpt lat="43.527738" lon="11.4520817"><ele>383.4</ele><time>2026-04-18T10:27:39.208Z</time></trkpt><trkpt lat="43.5278075" lon="11.4521356"><ele>383.79999999999995</ele><time>2026-04-18T10:27:40.207Z</time></trkpt><trkpt lat="43.5278673" lon="11.452223"><ele>384.2</ele><time>2026-04-18T10:27:41.207Z</time></trkpt><trkpt lat="43.5279358" lon="11.4523122"><ele>384.6</ele><time>2026-04-18T10:27:42.208Z</time></trkpt><trkpt lat="43.5280102" lon="11.4524171"><ele>385.0</ele><time>2026-04-18T10:27:43.207Z</time></trkpt><trkpt lat="43.5280918" lon="11.4525298"><ele>384.0</ele><time>2026-04-18T10:27:44.207Z</time></trkpt><trkpt lat="43.5281763" lon="11.4526524"><ele>383.0</ele><time>2026-04-18T10:27:45.208Z</time></trkpt><trkpt lat="43.5282629" lon="11.4527682"><ele>382.0</ele><time>2026-04-18T10:27:46.208Z</time></trkpt><trkpt lat="43.5283485" lon="11.4528686"><ele>381.0</ele><time>2026-04-18T10:27:47.208Z</time></trkpt><trkpt lat="43.5284433" lon="11.4529371"><ele>382.0</ele><time>2026-04-18T10:27:48.207Z</time></trkpt><trkpt lat="43.5285537" lon="11.4529966"><ele>383.0</ele><time>2026-04-18T10:27:49.207Z</time></trkpt><trkpt lat="43.5286682" lon="11.4530799"><ele>384.0</ele><time>2026-04-18T10:27:50.207Z</time></trkpt><trkpt lat="43.5287746" lon="11.4531645"><ele>385.0</ele><time>2026-04-18T10:27:51.208Z</time></trkpt><trkpt lat="43.5288781" lon="11.4532201"><ele>385.75</ele><time>2026-04-18T10:27:52.208Z</time></trkpt><trkpt lat="43.5289832" lon="11.4532422"><ele>386.5</ele><time>2026-04-18T10:27:53.207Z</time></trkpt><trkpt lat="43.5290948" lon="11.4532362"><ele>387.25</ele><time>2026-04-18T10:27:54.208Z</time></trkpt><trkpt lat="43.529209" lon="11.4532052"><ele>388.0</ele><time>2026-04-18T10:27:55.208Z</time></trkpt><trkpt lat="43.5293272" lon="11.4531888"><ele>388.0</ele><time>2026-04-18T10:27:56.207Z</time></trkpt><trkpt lat="43.5294495" lon="11.4531847"><ele>388.0</ele><time>2026-04-18T10:27:57.208Z</time></trkpt><trkpt lat="43.5295834" lon="11.4532054"><ele>388.0</ele><time>2026-04-18T10:27:58.208Z</time></trkpt><trkpt lat="43.5297293" lon="11.4532486"><ele>388.0</ele><time>2026-04-18T10:27:59.208Z</time></trkpt><trkpt lat="43.5298724" lon="11.4533026"><ele>386.0</ele><time>2026-04-18T10:28:00.208Z</time></trkpt><trkpt lat="43.5300134" lon="11.453345"><ele>384.0</ele><time>2026-04-18T10:28:01.208Z</time></trkpt><trkpt lat="43.5301402" lon="11.453388"><ele>382.0</ele><time>2026-04-18T10:28:02.208Z</time></trkpt><trkpt lat="43.5302666" lon="11.4534285"><ele>380.0</ele><time>2026-04-18T10:28:03.208Z</time></trkpt><trkpt lat="43.530379" lon="11.4534796"><ele>378.0</ele><time>2026-04-18T10:28:04.207Z</time></trkpt><trkpt lat="43.5304807" lon="11.4535445"><ele>376.0</ele><time>2026-04-18T10:28:05.208Z</time></trkpt><trkpt lat="43.5305848" lon="11.4536276"><ele>374.0</ele><time>2026-04-18T10:28:06.207Z</time></trkpt><trkpt lat="43.5306829" lon="11.4537058"><ele>372.0</ele><time>2026-04-18T10:28:07.207Z</time></trkpt><trkpt lat="43.5307792" lon="11.4537752"><ele>371.40000000000003</ele><time>2026-04-18T10:28:08.208Z</time></trkpt><trkpt lat="43.5308722" lon="11.4538249"><ele>370.8</ele><time>2026-04-18T10:28:09.208Z</time></trkpt><trkpt lat="43.5309798" lon="11.4538483"><ele>370.2</ele><time>2026-04-18T10:28:10.207Z</time></trkpt><trkpt lat="43.5310813" lon="11.4538399"><ele>369.6</ele><time>2026-04-18T10:28:11.208Z</time></trkpt><trkpt lat="43.5311814" lon="11.4538573"><ele>369.0</ele><time>2026-04-18T10:28:12.208Z</time></trkpt><trkpt lat="43.5312726" lon="11.4539035"><ele>369.0</ele><time>2026-04-18T10:28:13.208Z</time></trkpt><trkpt lat="43.5313483" lon="11.4539944"><ele>369.0</ele><time>2026-04-18T10:28:14.208Z</time></trkpt><trkpt lat="43.5314073" lon="11.4541235"><ele>369.0</ele><time>2026-04-18T10:28:15.208Z</time></trkpt><trkpt lat="43.5314365" lon="11.4542809"><ele>369.0</ele><time>2026-04-18T10:28:16.208Z</time></trkpt><trkpt lat="43.5314313" lon="11.4544408"><ele>369.0</ele><time>2026-04-18T10:28:17.208Z</time></trkpt><trkpt lat="43.531403" lon="11.4545931"><ele>367.0</ele><time>2026-04-18T10:28:18.207Z</time></trkpt><trkpt lat="43.5313754" lon="11.4547454"><ele>365.0</ele><time>2026-04-18T10:28:19.208Z</time></trkpt><trkpt lat="43.5313642" lon="11.454885"><ele>363.0</ele><time>2026-04-18T10:28:20.208Z</time></trkpt><trkpt lat="43.5313684" lon="11.454995"><ele>361.0</ele><time>2026-04-18T10:28:21.208Z</time></trkpt><trkpt lat="43.5313975" lon="11.4550964"><ele>359.0</ele><time>2026-04-18T10:28:22.208Z</time></trkpt><trkpt lat="43.5314475" lon="11.4552196"><ele>359.0</ele><time>2026-04-18T10:28:23.207Z</time></trkpt><trkpt lat="43.5315046" lon="11.4553714"><ele>359.0</ele><time>2026-04-18T10:28:24.207Z</time></trkpt><trkpt lat="43.5315563" lon="11.4555276"><ele>359.0</ele><time>2026-04-18T10:28:25.207Z</time></trkpt><trkpt lat="43.5316065" lon="11.455687"><ele>359.0</ele><time>2026-04-18T10:28:26.208Z</time></trkpt><trkpt lat="43.5316649" lon="11.4558556"><ele>357.5</ele><time>2026-04-18T10:28:27.208Z</time></trkpt><trkpt lat="43.5317183" lon="11.4560351"><ele>356.0</ele><time>2026-04-18T10:28:28.207Z</time></trkpt><trkpt lat="43.5317746" lon="11.45621"><ele>354.5</ele><time>2026-04-18T10:28:29.208Z</time></trkpt><trkpt lat="43.5318272" lon="11.4563859"><ele>353.0</ele><time>2026-04-18T10:28:30.207Z</time></trkpt><trkpt lat="43.5318816" lon="11.4565412"><ele>351.25</ele><time>2026-04-18T10:28:31.208Z</time></trkpt><trkpt lat="43.5319528" lon="11.4566746"><ele>349.5</ele><time>2026-04-18T10:28:32.208Z</time></trkpt><trkpt lat="43.5320408" lon="11.4567897"><ele>347.75</ele><time>2026-04-18T10:28:33.208Z</time></trkpt><trkpt lat="43.5321374" lon="11.4569029"><ele>346.0</ele><time>2026-04-18T10:28:34.208Z</time></trkpt><trkpt lat="43.5322352" lon="11.4570184"><ele>343.8</ele><time>2026-04-18T10:28:35.208Z</time></trkpt><trkpt lat="43.5323357" lon="11.457132"><ele>341.6</ele><time>2026-04-18T10:28:36.208Z</time></trkpt><trkpt lat="43.5324222" lon="11.4572409"><ele>339.4</ele><time>2026-04-18T10:28:37.208Z</time></trkpt><trkpt lat="43.5324874" lon="11.457339"><ele>337.2</ele><time>2026-04-18T10:28:38.208Z</time></trkpt><trkpt lat="43.5325279" lon="11.4574474"><ele>335.0</ele><time>2026-04-18T10:28:39.208Z</time></trkpt><trkpt lat="43.5325356" lon="11.4575699"><ele>335.0</ele><time>2026-04-18T10:28:40.208Z</time></trkpt><trkpt lat="43.532514" lon="11.4577103"><ele>335.0</ele><time>2026-04-18T10:28:41.208Z</time></trkpt><trkpt lat="43.5324654" lon="11.457848"><ele>335.0</ele><time>2026-04-18T10:28:42.208Z</time></trkpt><trkpt lat="43.5324133" lon="11.4579862"><ele>335.0</ele><time>2026-04-18T10:28:43.208Z</time></trkpt><trkpt lat="43.5323818" lon="11.4581134"><ele>335.0</ele><time>2026-04-18T10:28:44.208Z</time></trkpt><trkpt lat="43.5323839" lon="11.4582406"><ele>333.2</ele><time>2026-04-18T10:28:45.208Z</time></trkpt><trkpt lat="43.532424" lon="11.4583465"><ele>331.4</ele><time>2026-04-18T10:28:46.208Z</time></trkpt><trkpt lat="43.5325024" lon="11.4584369"><ele>329.6</ele><time>2026-04-18T10:28:47.207Z</time></trkpt><trkpt lat="43.532598" lon="11.4585203"><ele>327.8</ele><time>2026-04-18T10:28:48.207Z</time></trkpt><trkpt lat="43.5326939" lon="11.4586065"><ele>326.0</ele><time>2026-04-18T10:28:49.208Z</time></trkpt><trkpt lat="43.5327996" lon="11.4586888"><ele>324.40000000000003</ele><time>2026-04-18T10:28:50.207Z</time></trkpt><trkpt lat="43.5329029" lon="11.4587597"><ele>322.8</ele><time>2026-04-18T10:28:51.208Z</time></trkpt><trkpt lat="43.532996" lon="11.4588208"><ele>321.20000000000005</ele><time>2026-04-18T10:28:52.208Z</time></trkpt><trkpt lat="43.5330892" lon="11.458867"><ele>319.6</ele><time>2026-04-18T10:28:53.208Z</time></trkpt><trkpt lat="43.5331858" lon="11.4589273"><ele>318.0</ele><time>2026-04-18T10:28:54.207Z</time></trkpt><trkpt lat="43.533279" lon="11.4590195"><ele>317.6</ele><time>2026-04-18T10:28:55.208Z</time></trkpt><trkpt lat="43.5333457" lon="11.459131"><ele>317.20000000000005</ele><time>2026-04-18T10:28:56.207Z</time></trkpt><trkpt lat="43.5333984" lon="11.4592644"><ele>316.8</ele><time>2026-04-18T10:28:57.208Z</time></trkpt><trkpt lat="43.533449" lon="11.4594075"><ele>316.40000000000003</ele><time>2026-04-18T10:28:58.208Z</time></trkpt><trkpt lat="43.5334952" lon="11.4595513"><ele>316.0</ele><time>2026-04-18T10:28:59.208Z</time></trkpt><trkpt lat="43.5335461" lon="11.4596863"><ele>314.8</ele><time>2026-04-18T10:29:00.208Z</time></trkpt><trkpt lat="43.5335999" lon="11.4598081"><ele>313.6</ele><time>2026-04-18T10:29:01.208Z</time></trkpt><trkpt lat="43.5336581" lon="11.4599215"><ele>312.4</ele><time>2026-04-18T10:29:02.208Z</time></trkpt><trkpt lat="43.5337241" lon="11.4600334"><ele>311.2</ele><time>2026-04-18T10:29:03.208Z</time></trkpt><trkpt lat="43.5338075" lon="11.4601443"><ele>310.0</ele><time>2026-04-18T10:29:04.207Z</time></trkpt><trkpt lat="43.5339055" lon="11.4602473"><ele>308.8</ele><time>2026-04-18T10:29:05.208Z</time></trkpt><trkpt lat="43.5340066" lon="11.4603285"><ele>307.6</ele><time>2026-04-18T10:29:06.208Z</time></trkpt><trkpt lat="43.5341065" lon="11.4604026"><ele>306.4</ele><time>2026-04-18T10:29:07.208Z</time></trkpt><trkpt lat="43.5342003" lon="11.4604686"><ele>305.2</ele><time>2026-04-18T10:29:08.208Z</time></trkpt><trkpt lat="43.5342784" lon="11.4605413"><ele>304.0</ele><time>2026-04-18T10:29:09.208Z</time></trkpt><trkpt lat="43.5343511" lon="11.4606285"><ele>303.59999999999997</ele><time>2026-04-18T10:29:10.208Z</time></trkpt><trkpt lat="43.5344177" lon="11.4607324"><ele>303.2</ele><time>2026-04-18T10:29:11.208Z</time></trkpt><trkpt lat="43.5344849" lon="11.46086"><ele>302.79999999999995</ele><time>2026-04-18T10:29:12.207Z</time></trkpt><trkpt lat="43.534542" lon="11.4609909"><ele>302.4</ele><time>2026-04-18T10:29:13.208Z</time></trkpt><trkpt lat="43.5345914" lon="11.4611218"><ele>302.0</ele><time>2026-04-18T10:29:14.208Z</time></trkpt><trkpt lat="43.5346416" lon="11.4612427"><ele>299.8</ele><time>2026-04-18T10:29:15.208Z</time></trkpt><trkpt lat="43.5346953" lon="11.4613497"><ele>297.6</ele><time>2026-04-18T10:29:16.207Z</time></trkpt><trkpt lat="43.5347493" lon="11.4614555"><ele>295.40000000000003</ele><time>2026-04-18T10:29:17.208Z</time></trkpt><trkpt lat="43.5347929" lon="11.461533"><ele>293.2</ele><time>2026-04-18T10:29:18.208Z</time></trkpt><trkpt lat="43.5348516" lon="11.4616234"><ele>291.0</ele><time>2026-04-18T10:29:20.207Z</time></trkpt><trkpt lat="43.5349545" lon="11.4615824"><ele>291.0</ele><time>2026-04-18T10:29:24.208Z</time></trkpt><trkpt lat="43.5349952" lon="11.4614942"><ele>291.0</ele><time>2026-04-18T10:29:25.208Z</time></trkpt><trkpt lat="43.535049" lon="11.4613869"><ele>291.0</ele><time>2026-04-18T10:29:26.208Z</time></trkpt><trkpt lat="43.535111" lon="11.4612606"><ele>291.0</ele><time>2026-04-18T10:29:27.208Z</time></trkpt><trkpt lat="43.5351823" lon="11.4611122"><ele>291.0</ele><time>2026-04-18T10:29:28.207Z</time></trkpt><trkpt lat="43.5352624" lon="11.4609587"><ele>292.0</ele><time>2026-04-18T10:29:29.207Z</time></trkpt><trkpt lat="43.5353532" lon="11.4607788"><ele>293.0</ele><time>2026-04-18T10:29:30.207Z</time></trkpt><trkpt lat="43.5354394" lon="11.4606058"><ele>294.0</ele><time>2026-04-18T10:29:31.208Z</time></trkpt><trkpt lat="43.5355195" lon="11.4604473"><ele>290.5</ele><time>2026-04-18T10:29:32.208Z</time></trkpt><trkpt lat="43.5355954" lon="11.4602941"><ele>287.0</ele><time>2026-04-18T10:29:33.208Z</time></trkpt><trkpt lat="43.535674" lon="11.4601236"><ele>283.5</ele><time>2026-04-18T10:29:34.208Z</time></trkpt><trkpt lat="43.5357356" lon="11.4599515"><ele>280.0</ele><time>2026-04-18T10:29:35.208Z</time></trkpt><trkpt lat="43.5357721" lon="11.4597729"><ele>279.5</ele><time>2026-04-18T10:29:36.208Z</time></trkpt><trkpt lat="43.5357819" lon="11.4595979"><ele>279.0</ele><time>2026-04-18T10:29:37.207Z</time></trkpt><trkpt lat="43.5357731" lon="11.4594317"><ele>278.5</ele><time>2026-04-18T10:29:38.207Z</time></trkpt><trkpt lat="43.5357255" lon="11.4592681"><ele>278.0</ele><time>2026-04-18T10:29:39.207Z</time></trkpt><trkpt lat="43.5356577" lon="11.45911"><ele>278.0</ele><time>2026-04-18T10:29:40.208Z</time></trkpt><trkpt lat="43.5355894" lon="11.4589611"><ele>278.0</ele><time>2026-04-18T10:29:41.208Z</time></trkpt><trkpt lat="43.535525" lon="11.4588173"><ele>278.0</ele><time>2026-04-18T10:29:42.208Z</time></trkpt><trkpt lat="43.5354671" lon="11.4586692"><ele>278.0</ele><time>2026-04-18T10:29:43.207Z</time></trkpt><trkpt lat="43.5354322" lon="11.4585055"><ele>276.5</ele><time>2026-04-18T10:29:44.208Z</time></trkpt><trkpt lat="43.535432" lon="11.4583251"><ele>275.0</ele><time>2026-04-18T10:29:45.207Z</time></trkpt><trkpt lat="43.5354473" lon="11.4581455"><ele>273.5</ele><time>2026-04-18T10:29:46.208Z</time></trkpt><trkpt lat="43.5354653" lon="11.4579775"><ele>272.0</ele><time>2026-04-18T10:29:47.207Z</time></trkpt><trkpt lat="43.5354802" lon="11.4578114"><ele>271.0</ele><time>2026-04-18T10:29:48.207Z</time></trkpt><trkpt lat="43.5355" lon="11.4576527"><ele>270.0</ele><time>2026-04-18T10:29:49.208Z</time></trkpt><trkpt lat="43.5355152" lon="11.4575037"><ele>269.0</ele><time>2026-04-18T10:29:50.207Z</time></trkpt><trkpt lat="43.5355232" lon="11.4573867"><ele>268.0</ele><time>2026-04-18T10:29:51.207Z</time></trkpt><trkpt lat="43.5355372" lon="11.4572546"><ele>267.0</ele><time>2026-04-18T10:29:53.208Z</time></trkpt><trkpt lat="43.5355681" lon="11.4571293"><ele>269.1666666666667</ele><time>2026-04-18T10:29:55.208Z</time></trkpt><trkpt lat="43.5356498" lon="11.4570408"><ele>271.3333333333333</ele><time>2026-04-18T10:29:57.208Z</time></trkpt><trkpt lat="43.5357111" lon="11.4570081"><ele>273.5</ele><time>2026-04-18T10:29:58.208Z</time></trkpt><trkpt lat="43.5357772" lon="11.456968"><ele>275.66666666666663</ele><time>2026-04-18T10:29:59.207Z</time></trkpt><trkpt lat="43.5358437" lon="11.4569308"><ele>277.8333333333333</ele><time>2026-04-18T10:30:00.208Z</time></trkpt><trkpt lat="43.5359103" lon="11.4568877"><ele>280.0</ele><time>2026-04-18T10:30:01.208Z</time></trkpt><trkpt lat="43.5359709" lon="11.4568502"><ele>280.0</ele><time>2026-04-18T10:30:02.208Z</time></trkpt><trkpt lat="43.5360792" lon="11.4568158"><ele>280.0</ele><time>2026-04-18T10:30:04.207Z</time></trkpt><trkpt lat="43.5361955" lon="11.4568839"><ele>280.0</ele><time>2026-04-18T10:30:06.207Z</time></trkpt><trkpt lat="43.5362424" lon="11.4569561"><ele>280.0</ele><time>2026-04-18T10:30:07.207Z</time></trkpt><trkpt lat="43.5362871" lon="11.457032"><ele>280.0</ele><time>2026-04-18T10:30:08.208Z</time></trkpt><trkpt lat="43.5363589" lon="11.4571598"><ele>277.8333333333333</ele><time>2026-04-18T10:30:10.208Z</time></trkpt><trkpt lat="43.5364009" lon="11.4572379"><ele>275.66666666666663</ele><time>2026-04-18T10:30:12.207Z</time></trkpt><trkpt lat="43.5364417" lon="11.4573264"><ele>273.5</ele><time>2026-04-18T10:30:31.208Z</time></trkpt><trkpt lat="43.5365173" lon="11.4574491"><ele>271.3333333333333</ele><time>2026-04-18T10:30:33.208Z</time></trkpt><trkpt lat="43.5365666" lon="11.4575175"><ele>269.1666666666667</ele><time>2026-04-18T10:30:34.207Z</time></trkpt><trkpt lat="43.5366248" lon="11.4575887"><ele>267.0</ele><time>2026-04-18T10:30:35.207Z</time></trkpt><trkpt lat="43.5366976" lon="11.4576622"><ele>267.0</ele><time>2026-04-18T10:30:36.207Z</time></trkpt><trkpt lat="43.5367907" lon="11.4577284"><ele>267.0</ele><time>2026-04-18T10:30:37.207Z</time></trkpt><trkpt lat="43.5368938" lon="11.4577594"><ele>267.0</ele><time>2026-04-18T10:30:38.207Z</time></trkpt><trkpt lat="43.5369951" lon="11.4577636"><ele>267.0</ele><time>2026-04-18T10:30:39.208Z</time></trkpt><trkpt lat="43.53709" lon="11.4577233"><ele>267.0</ele><time>2026-04-18T10:30:40.207Z</time></trkpt><trkpt lat="43.5371807" lon="11.4576374"><ele>267.75</ele><time>2026-04-18T10:30:41.208Z</time></trkpt><trkpt lat="43.5372597" lon="11.4575057"><ele>268.5</ele><time>2026-04-18T10:30:42.207Z</time></trkpt><trkpt lat="43.5373283" lon="11.4573276"><ele>269.25</ele><time>2026-04-18T10:30:43.207Z</time></trkpt><trkpt lat="43.5373796" lon="11.4571349"><ele>270.0</ele><time>2026-04-18T10:30:44.208Z</time></trkpt><trkpt lat="43.5374327" lon="11.4569273"><ele>274.3333333333333</ele><time>2026-04-18T10:30:45.208Z</time></trkpt><trkpt lat="43.5374838" lon="11.4567143"><ele>278.66666666666663</ele><time>2026-04-18T10:30:46.207Z</time></trkpt><trkpt lat="43.5375317" lon="11.4565159"><ele>283.0</ele><time>2026-04-18T10:30:47.208Z</time></trkpt><trkpt lat="43.537548" lon="11.456324"><ele>284.66666666666663</ele><time>2026-04-18T10:30:48.208Z</time></trkpt><trkpt lat="43.5375269" lon="11.456128"><ele>286.3333333333333</ele><time>2026-04-18T10:30:49.208Z</time></trkpt><trkpt lat="43.5374724" lon="11.4559321"><ele>288.0</ele><time>2026-04-18T10:30:50.208Z</time></trkpt><trkpt lat="43.5374091" lon="11.4557344"><ele>288.0</ele><time>2026-04-18T10:30:51.208Z</time></trkpt><trkpt lat="43.5373773" lon="11.4555356"><ele>288.0</ele><time>2026-04-18T10:30:52.207Z</time></trkpt><trkpt lat="43.5373773" lon="11.4553521"><ele>288.0</ele><time>2026-04-18T10:30:53.208Z</time></trkpt><trkpt lat="43.5374165" lon="11.4551787"><ele>288.0</ele><time>2026-04-18T10:30:54.208Z</time></trkpt><trkpt lat="43.5374942" lon="11.4550369"><ele>288.75</ele><time>2026-04-18T10:30:55.208Z</time></trkpt><trkpt lat="43.537575" lon="11.4549134"><ele>289.5</ele><time>2026-04-18T10:30:56.208Z</time></trkpt><trkpt lat="43.5376363" lon="11.454764"><ele>290.25</ele><time>2026-04-18T10:30:57.208Z</time></trkpt><trkpt lat="43.5376667" lon="11.4546021"><ele>291.0</ele><time>2026-04-18T10:30:58.208Z</time></trkpt><trkpt lat="43.5376606" lon="11.4544348"><ele>293.0</ele><time>2026-04-18T10:30:59.208Z</time></trkpt><trkpt lat="43.5376153" lon="11.4542685"><ele>295.0</ele><time>2026-04-18T10:31:00.208Z</time></trkpt><trkpt lat="43.5375389" lon="11.4540986"><ele>297.0</ele><time>2026-04-18T10:31:01.208Z</time></trkpt><trkpt lat="43.5374607" lon="11.4539105"><ele>299.0</ele><time>2026-04-18T10:31:02.207Z</time></trkpt><trkpt lat="43.5373885" lon="11.4537077"><ele>299.33333333333337</ele><time>2026-04-18T10:31:03.208Z</time></trkpt><trkpt lat="43.5373207" lon="11.4534938"><ele>299.6666666666667</ele><time>2026-04-18T10:31:04.208Z</time></trkpt><trkpt lat="43.5372611" lon="11.4532621"><ele>300.0</ele><time>2026-04-18T10:31:05.208Z</time></trkpt><trkpt lat="43.5372061" lon="11.4530332"><ele>301.0</ele><time>2026-04-18T10:31:06.208Z</time></trkpt><trkpt lat="43.5371622" lon="11.4528298"><ele>302.0</ele><time>2026-04-18T10:31:07.208Z</time></trkpt><trkpt lat="43.5371386" lon="11.452655"><ele>303.0</ele><time>2026-04-18T10:31:08.208Z</time></trkpt><trkpt lat="43.5371494" lon="11.452519"><ele>304.0</ele><time>2026-04-18T10:31:09.207Z</time></trkpt><trkpt lat="43.537194" lon="11.4524182"><ele>304.0</ele><time>2026-04-18T10:31:10.208Z</time></trkpt><trkpt lat="43.5372696" lon="11.4523561"><ele>304.0</ele><time>2026-04-18T10:31:11.208Z</time></trkpt><trkpt lat="43.5373492" lon="11.4523574"><ele>304.0</ele><time>2026-04-18T10:31:12.208Z</time></trkpt><trkpt lat="43.5374357" lon="11.4524096"><ele>304.0</ele><time>2026-04-18T10:31:13.207Z</time></trkpt><trkpt lat="43.5375205" lon="11.4525004"><ele>304.0</ele><time>2026-04-18T10:31:14.207Z</time></trkpt><trkpt lat="43.5376051" lon="11.4526314"><ele>304.0</ele><time>2026-04-18T10:31:15.208Z</time></trkpt><trkpt lat="43.5376967" lon="11.4527942"><ele>304.0</ele><time>2026-04-18T10:31:16.207Z</time></trkpt><trkpt lat="43.5377888" lon="11.4529663"><ele>304.0</ele><time>2026-04-18T10:31:17.208Z</time></trkpt><trkpt lat="43.5378792" lon="11.4531349"><ele>303.25</ele><time>2026-04-18T10:31:18.207Z</time></trkpt><trkpt lat="43.5379655" lon="11.4532865"><ele>302.5</ele><time>2026-04-18T10:31:19.208Z</time></trkpt><trkpt lat="43.538049" lon="11.453412"><ele>301.75</ele><time>2026-04-18T10:31:20.208Z</time></trkpt><trkpt lat="43.5381329" lon="11.453511"><ele>301.0</ele><time>2026-04-18T10:31:21.208Z</time></trkpt><trkpt lat="43.5382172" lon="11.4535967"><ele>301.0</ele><time>2026-04-18T10:31:22.208Z</time></trkpt><trkpt lat="43.5383032" lon="11.4536562"><ele>301.0</ele><time>2026-04-18T10:31:23.207Z</time></trkpt><trkpt lat="43.538384" lon="11.4537084"><ele>301.0</ele><time>2026-04-18T10:31:24.208Z</time></trkpt><trkpt lat="43.5384686" lon="11.4537589"><ele>301.0</ele><time>2026-04-18T10:31:25.208Z</time></trkpt><trkpt lat="43.5385714" lon="11.4538106"><ele>301.0</ele><time>2026-04-18T10:31:26.208Z</time></trkpt><trkpt lat="43.5386939" lon="11.453878"><ele>298.0</ele><time>2026-04-18T10:31:27.208Z</time></trkpt><trkpt lat="43.538829" lon="11.4539619"><ele>295.0</ele><time>2026-04-18T10:31:28.207Z</time></trkpt><trkpt lat="43.53897" lon="11.4540527"><ele>292.0</ele><time>2026-04-18T10:31:29.208Z</time></trkpt><trkpt lat="43.5391075" lon="11.4541305"><ele>292.0</ele><time>2026-04-18T10:31:30.208Z</time></trkpt><trkpt lat="43.5392366" lon="11.4541906"><ele>292.0</ele><time>2026-04-18T10:31:31.208Z</time></trkpt><trkpt lat="43.5393731" lon="11.4542194"><ele>292.0</ele><time>2026-04-18T10:31:32.208Z</time></trkpt><trkpt lat="43.5395089" lon="11.4541873"><ele>292.0</ele><time>2026-04-18T10:31:33.208Z</time></trkpt><trkpt lat="43.5396244" lon="11.4541192"><ele>291.5</ele><time>2026-04-18T10:31:34.208Z</time></trkpt><trkpt lat="43.5397392" lon="11.4540642"><ele>291.0</ele><time>2026-04-18T10:31:35.208Z</time></trkpt><trkpt lat="43.5398623" lon="11.4540141"><ele>290.5</ele><time>2026-04-18T10:31:36.208Z</time></trkpt><trkpt lat="43.5399782" lon="11.4539503"><ele>290.0</ele><time>2026-04-18T10:31:37.208Z</time></trkpt><trkpt lat="43.5400814" lon="11.453891"><ele>290.0</ele><time>2026-04-18T10:31:38.207Z</time></trkpt><trkpt lat="43.5401858" lon="11.453829"><ele>290.0</ele><time>2026-04-18T10:31:39.207Z</time></trkpt><trkpt lat="43.5402951" lon="11.4537617"><ele>290.0</ele><time>2026-04-18T10:31:40.208Z</time></trkpt><trkpt lat="43.5403997" lon="11.4536797"><ele>290.0</ele><time>2026-04-18T10:31:41.208Z</time></trkpt><trkpt lat="43.5404897" lon="11.4535876"><ele>290.0</ele><time>2026-04-18T10:31:42.208Z</time></trkpt><trkpt lat="43.5405754" lon="11.4534992"><ele>290.0</ele><time>2026-04-18T10:31:43.208Z</time></trkpt><trkpt lat="43.5406605" lon="11.4534237"><ele>290.0</ele><time>2026-04-18T10:31:44.208Z</time></trkpt><trkpt lat="43.540751" lon="11.4533609"><ele>290.0</ele><time>2026-04-18T10:31:45.208Z</time></trkpt><trkpt lat="43.5408496" lon="11.4533119"><ele>290.0</ele><time>2026-04-18T10:31:46.208Z</time></trkpt><trkpt lat="43.5409576" lon="11.453277"><ele>290.0</ele><time>2026-04-18T10:31:47.207Z</time></trkpt><trkpt lat="43.5410677" lon="11.4532601"><ele>290.0</ele><time>2026-04-18T10:31:48.208Z</time></trkpt><trkpt lat="43.5411714" lon="11.4532593"><ele>290.0</ele><time>2026-04-18T10:31:49.208Z</time></trkpt><trkpt lat="43.5412694" lon="11.4532737"><ele>290.0</ele><time>2026-04-18T10:31:50.207Z</time></trkpt><trkpt lat="43.5413585" lon="11.4533026"><ele>290.0</ele><time>2026-04-18T10:31:51.207Z</time></trkpt><trkpt lat="43.5414426" lon="11.4533309"><ele>290.0</ele><time>2026-04-18T10:31:52.208Z</time></trkpt><trkpt lat="43.541531" lon="11.4533599"><ele>290.0</ele><time>2026-04-18T10:31:53.208Z</time></trkpt><trkpt lat="43.5416233" lon="11.4533878"><ele>290.0</ele><time>2026-04-18T10:31:54.207Z</time></trkpt><trkpt lat="43.5417134" lon="11.453418"><ele>290.0</ele><time>2026-04-18T10:31:55.208Z</time></trkpt><trkpt lat="43.5418027" lon="11.4534443"><ele>290.0</ele><time>2026-04-18T10:31:56.208Z</time></trkpt><trkpt lat="43.5418922" lon="11.4534609"><ele>290.0</ele><time>2026-04-18T10:31:57.207Z</time></trkpt><trkpt lat="43.5419807" lon="11.4534522"><ele>290.0</ele><time>2026-04-18T10:31:58.208Z</time></trkpt><trkpt lat="43.542078" lon="11.453418"><ele>290.0</ele><time>2026-04-18T10:31:59.207Z</time></trkpt><trkpt lat="43.5421673" lon="11.4533551"><ele>290.0</ele><time>2026-04-18T10:32:00.208Z</time></trkpt><trkpt lat="43.5422482" lon="11.4532696"><ele>290.0</ele><time>2026-04-18T10:32:01.207Z</time></trkpt><trkpt lat="43.5423183" lon="11.4531881"><ele>289.83333333333337</ele><time>2026-04-18T10:32:02.208Z</time></trkpt><trkpt lat="43.5423888" lon="11.453109"><ele>289.6666666666667</ele><time>2026-04-18T10:32:03.208Z</time></trkpt><trkpt lat="43.5424571" lon="11.4530325"><ele>289.5</ele><time>2026-04-18T10:32:04.208Z</time></trkpt><trkpt lat="43.5425208" lon="11.4529544"><ele>289.3333333333333</ele><time>2026-04-18T10:32:05.208Z</time></trkpt><trkpt lat="43.5425851" lon="11.452881"><ele>289.16666666666663</ele><time>2026-04-18T10:32:06.208Z</time></trkpt><trkpt lat="43.5426472" lon="11.4528151"><ele>289.0</ele><time>2026-04-18T10:32:07.207Z</time></trkpt><trkpt lat="43.5427115" lon="11.4527429"><ele>289.3333333333333</ele><time>2026-04-18T10:32:08.208Z</time></trkpt><trkpt lat="43.5427702" lon="11.4526568"><ele>289.66666666666663</ele><time>2026-04-18T10:32:09.208Z</time></trkpt><trkpt lat="43.5428277" lon="11.4525586"><ele>290.0</ele><time>2026-04-18T10:32:10.208Z</time></trkpt><trkpt lat="43.542881" lon="11.4524563"><ele>290.3333333333333</ele><time>2026-04-18T10:32:11.208Z</time></trkpt><trkpt lat="43.5429321" lon="11.4523625"><ele>290.6666666666667</ele><time>2026-04-18T10:32:12.207Z</time></trkpt><trkpt lat="43.5429825" lon="11.4522735"><ele>291.0</ele><time>2026-04-18T10:32:13.208Z</time></trkpt><trkpt lat="43.5430592" lon="11.4521601"><ele>288.3333333333333</ele><time>2026-04-18T10:32:15.207Z</time></trkpt><trkpt lat="43.5431012" lon="11.4520691"><ele>285.6666666666667</ele><time>2026-04-18T10:32:17.207Z</time></trkpt><trkpt lat="43.5430395" lon="11.4520035"><ele>283.0</ele><time>2026-04-18T10:32:20.208Z</time></trkpt><trkpt lat="43.5429748" lon="11.452007"><ele>280.33333333333337</ele><time>2026-04-18T10:32:22.208Z</time></trkpt><trkpt lat="43.5430063" lon="11.452121"><ele>277.6666666666667</ele><time>2026-04-18T10:32:25.207Z</time></trkpt><trkpt lat="43.5430744" lon="11.4521099"><ele>275.0</ele><time>2026-04-18T10:32:26.207Z</time></trkpt><trkpt lat="43.5431523" lon="11.4520512"><ele>275.0</ele><time>2026-04-18T10:32:27.208Z</time></trkpt><trkpt lat="43.5432316" lon="11.4519727"><ele>275.0</ele><time>2026-04-18T10:32:28.208Z</time></trkpt><trkpt lat="43.5433329" lon="11.4518899"><ele>275.0</ele><time>2026-04-18T10:32:29.208Z</time></trkpt><trkpt lat="43.5434516" lon="11.4517999"><ele>275.0</ele><time>2026-04-18T10:32:30.208Z</time></trkpt><trkpt lat="43.5435808" lon="11.451701"><ele>269.6666666666667</ele><time>2026-04-18T10:32:31.208Z</time></trkpt><trkpt lat="43.5437262" lon="11.4515981"><ele>264.3333333333333</ele><time>2026-04-18T10:32:32.207Z</time></trkpt><trkpt lat="43.5438774" lon="11.4514826"><ele>259.0</ele><time>2026-04-18T10:32:33.208Z</time></trkpt><trkpt lat="43.5440436" lon="11.451359"><ele>259.66666666666663</ele><time>2026-04-18T10:32:34.207Z</time></trkpt><trkpt lat="43.5442078" lon="11.4512319"><ele>260.3333333333333</ele><time>2026-04-18T10:32:35.208Z</time></trkpt><trkpt lat="43.5443613" lon="11.4511119"><ele>261.0</ele><time>2026-04-18T10:32:36.208Z</time></trkpt><trkpt lat="43.5445067" lon="11.4509975"><ele>264.0</ele><time>2026-04-18T10:32:37.208Z</time></trkpt><trkpt lat="43.5446444" lon="11.4508871"><ele>267.0</ele><time>2026-04-18T10:32:38.208Z</time></trkpt><trkpt lat="43.5447743" lon="11.4507857"><ele>270.0</ele><time>2026-04-18T10:32:39.208Z</time></trkpt><trkpt lat="43.5449" lon="11.450694"><ele>270.0</ele><time>2026-04-18T10:32:40.208Z</time></trkpt><trkpt lat="43.545015" lon="11.4505678"><ele>270.0</ele><time>2026-04-18T10:32:41.208Z</time></trkpt><trkpt lat="43.5451169" lon="11.4504011"><ele>270.0</ele><time>2026-04-18T10:32:42.207Z</time></trkpt><trkpt lat="43.5452102" lon="11.4502005"><ele>270.0</ele><time>2026-04-18T10:32:43.208Z</time></trkpt><trkpt lat="43.5452937" lon="11.4499877"><ele>270.0</ele><time>2026-04-18T10:32:44.208Z</time></trkpt><trkpt lat="43.545373" lon="11.4497821"><ele>270.0</ele><time>2026-04-18T10:32:45.207Z</time></trkpt><trkpt lat="43.5454564" lon="11.4496029"><ele>270.0</ele><time>2026-04-18T10:32:46.208Z</time></trkpt><trkpt lat="43.5455465" lon="11.4494646"><ele>270.0</ele><time>2026-04-18T10:32:47.208Z</time></trkpt><trkpt lat="43.5456568" lon="11.4493692"><ele>270.0</ele><time>2026-04-18T10:32:48.208Z</time></trkpt><trkpt lat="43.5457754" lon="11.4493252"><ele>270.0</ele><time>2026-04-18T10:32:49.208Z</time></trkpt><trkpt lat="43.5458913" lon="11.4493286"><ele>270.0</ele><time>2026-04-18T10:32:50.208Z</time></trkpt><trkpt lat="43.5459927" lon="11.4493809"><ele>270.0</ele><time>2026-04-18T10:32:51.208Z</time></trkpt><trkpt lat="43.5460746" lon="11.449465"><ele>270.0</ele><time>2026-04-18T10:32:52.207Z</time></trkpt><trkpt lat="43.5461442" lon="11.4495666"><ele>270.0</ele><time>2026-04-18T10:32:53.208Z</time></trkpt><trkpt lat="43.5462191" lon="11.4496846"><ele>270.0</ele><time>2026-04-18T10:32:54.208Z</time></trkpt><trkpt lat="43.5463039" lon="11.4498185"><ele>264.3333333333333</ele><time>2026-04-18T10:32:55.208Z</time></trkpt><trkpt lat="43.5464079" lon="11.4499657"><ele>258.66666666666663</ele><time>2026-04-18T10:32:56.207Z</time></trkpt><trkpt lat="43.5465276" lon="11.4501062"><ele>253.0</ele><time>2026-04-18T10:32:57.207Z</time></trkpt><trkpt lat="43.5466565" lon="11.4502295"><ele>253.0</ele><time>2026-04-18T10:32:58.208Z</time></trkpt><trkpt lat="43.5467825" lon="11.4503415"><ele>253.0</ele><time>2026-04-18T10:32:59.208Z</time></trkpt><trkpt lat="43.5468996" lon="11.4504576"><ele>253.0</ele><time>2026-04-18T10:33:00.208Z</time></trkpt><trkpt lat="43.547004" lon="11.4506057"><ele>253.0</ele><time>2026-04-18T10:33:01.208Z</time></trkpt><trkpt lat="43.5470993" lon="11.4507855"><ele>249.0</ele><time>2026-04-18T10:33:02.208Z</time></trkpt><trkpt lat="43.5471778" lon="11.4509778"><ele>245.0</ele><time>2026-04-18T10:33:03.208Z</time></trkpt><trkpt lat="43.5472542" lon="11.4511723"><ele>241.0</ele><time>2026-04-18T10:33:04.208Z</time></trkpt><trkpt lat="43.5473247" lon="11.4513628"><ele>241.0</ele><time>2026-04-18T10:33:05.208Z</time></trkpt><trkpt lat="43.5474159" lon="11.4515186"><ele>241.0</ele><time>2026-04-18T10:33:06.208Z</time></trkpt><trkpt lat="43.5475297" lon="11.4516364"><ele>241.0</ele><time>2026-04-18T10:33:07.208Z</time></trkpt><trkpt lat="43.5476618" lon="11.4517181"><ele>241.0</ele><time>2026-04-18T10:33:08.207Z</time></trkpt><trkpt lat="43.5478111" lon="11.4517656"><ele>238.0</ele><time>2026-04-18T10:33:09.208Z</time></trkpt><trkpt lat="43.5479709" lon="11.4517609"><ele>235.0</ele><time>2026-04-18T10:33:10.208Z</time></trkpt><trkpt lat="43.548123" lon="11.4517485"><ele>232.0</ele><time>2026-04-18T10:33:11.208Z</time></trkpt><trkpt lat="43.5482695" lon="11.4517256"><ele>232.0</ele><time>2026-04-18T10:33:12.207Z</time></trkpt><trkpt lat="43.5484139" lon="11.4516973"><ele>232.0</ele><time>2026-04-18T10:33:13.208Z</time></trkpt><trkpt lat="43.5485508" lon="11.4516527"><ele>232.0</ele><time>2026-04-18T10:33:14.207Z</time></trkpt><trkpt lat="43.5486785" lon="11.4516061"><ele>232.0</ele><time>2026-04-18T10:33:15.208Z</time></trkpt><trkpt lat="43.5487984" lon="11.4515684"><ele>230.75</ele><time>2026-04-18T10:33:16.208Z</time></trkpt><trkpt lat="43.5489153" lon="11.4515287"><ele>229.5</ele><time>2026-04-18T10:33:17.208Z</time></trkpt><trkpt lat="43.5490287" lon="11.4514917"><ele>228.25</ele><time>2026-04-18T10:33:18.208Z</time></trkpt><trkpt lat="43.5491464" lon="11.4514692"><ele>227.0</ele><time>2026-04-18T10:33:19.208Z</time></trkpt><trkpt lat="43.5492748" lon="11.4514755"><ele>227.0</ele><time>2026-04-18T10:33:20.208Z</time></trkpt><trkpt lat="43.5494068" lon="11.4515083"><ele>227.0</ele><time>2026-04-18T10:33:21.208Z</time></trkpt><trkpt lat="43.5495349" lon="11.4515572"><ele>227.0</ele><time>2026-04-18T10:33:22.208Z</time></trkpt><trkpt lat="43.5496587" lon="11.4516107"><ele>227.0</ele><time>2026-04-18T10:33:23.208Z</time></trkpt><trkpt lat="43.5497844" lon="11.4516694"><ele>225.0</ele><time>2026-04-18T10:33:24.208Z</time></trkpt><trkpt lat="43.549922" lon="11.4517309"><ele>223.0</ele><time>2026-04-18T10:33:25.207Z</time></trkpt><trkpt lat="43.5500648" lon="11.4517945"><ele>221.0</ele><time>2026-04-18T10:33:26.208Z</time></trkpt><trkpt lat="43.5502032" lon="11.451845"><ele>219.0</ele><time>2026-04-18T10:33:27.208Z</time></trkpt><trkpt lat="43.5503342" lon="11.4518984"><ele>216.75</ele><time>2026-04-18T10:33:28.208Z</time></trkpt><trkpt lat="43.5504606" lon="11.4519483"><ele>214.5</ele><time>2026-04-18T10:33:29.208Z</time></trkpt><trkpt lat="43.5505895" lon="11.4519945"><ele>212.25</ele><time>2026-04-18T10:33:30.208Z</time></trkpt><trkpt lat="43.5507096" lon="11.4520323"><ele>210.0</ele><time>2026-04-18T10:33:31.207Z</time></trkpt><trkpt lat="43.5508262" lon="11.4520758"><ele>209.0</ele><time>2026-04-18T10:33:32.208Z</time></trkpt><trkpt lat="43.550937" lon="11.4521251"><ele>208.0</ele><time>2026-04-18T10:33:33.207Z</time></trkpt><trkpt lat="43.551061" lon="11.4521684"><ele>207.0</ele><time>2026-04-18T10:33:34.208Z</time></trkpt><trkpt lat="43.551197" lon="11.4521965"><ele>206.0</ele><time>2026-04-18T10:33:35.208Z</time></trkpt><trkpt lat="43.5513374" lon="11.4521833"><ele>205.0</ele><time>2026-04-18T10:33:36.208Z</time></trkpt><trkpt lat="43.5514709" lon="11.4521394"><ele>204.0</ele><time>2026-04-18T10:33:37.208Z</time></trkpt><trkpt lat="43.5515948" lon="11.4520881"><ele>203.0</ele><time>2026-04-18T10:33:38.207Z</time></trkpt><trkpt lat="43.5517163" lon="11.452034"><ele>202.0</ele><time>2026-04-18T10:33:39.208Z</time></trkpt><trkpt lat="43.5518463" lon="11.4519736"><ele>202.0</ele><time>2026-04-18T10:33:40.208Z</time></trkpt><trkpt lat="43.5519846" lon="11.4518827"><ele>202.0</ele><time>2026-04-18T10:33:41.208Z</time></trkpt><trkpt lat="43.5521211" lon="11.4517518"><ele>202.0</ele><time>2026-04-18T10:33:42.208Z</time></trkpt><trkpt lat="43.5522686" lon="11.4516045"><ele>202.33333333333331</ele><time>2026-04-18T10:33:43.208Z</time></trkpt><trkpt lat="43.5524287" lon="11.4514425"><ele>202.66666666666669</ele><time>2026-04-18T10:33:44.208Z</time></trkpt><trkpt lat="43.5525903" lon="11.4512655"><ele>203.0</ele><time>2026-04-18T10:33:45.207Z</time></trkpt><trkpt lat="43.5527604" lon="11.4510893"><ele>200.66666666666669</ele><time>2026-04-18T10:33:46.207Z</time></trkpt><trkpt lat="43.5529268" lon="11.4509286"><ele>198.33333333333331</ele><time>2026-04-18T10:33:47.207Z</time></trkpt><trkpt lat="43.5531012" lon="11.450801"><ele>196.0</ele><time>2026-04-18T10:33:48.208Z</time></trkpt><trkpt lat="43.5532899" lon="11.4507236"><ele>196.0</ele><time>2026-04-18T10:33:49.208Z</time></trkpt><trkpt lat="43.5534855" lon="11.450672"><ele>196.0</ele><time>2026-04-18T10:33:50.207Z</time></trkpt><trkpt lat="43.5536772" lon="11.4506473"><ele>196.0</ele><time>2026-04-18T10:33:51.208Z</time></trkpt><trkpt lat="43.5538723" lon="11.4506526"><ele>194.33333333333331</ele><time>2026-04-18T10:33:52.208Z</time></trkpt><trkpt lat="43.5540759" lon="11.450703"><ele>192.66666666666666</ele><time>2026-04-18T10:33:53.208Z</time></trkpt><trkpt lat="43.5542824" lon="11.4507878"><ele>191.0</ele><time>2026-04-18T10:33:54.208Z</time></trkpt><trkpt lat="43.5544905" lon="11.4509095"><ele>188.5</ele><time>2026-04-18T10:33:55.208Z</time></trkpt><trkpt lat="43.5546995" lon="11.4510327"><ele>186.0</ele><time>2026-04-18T10:33:56.207Z</time></trkpt><trkpt lat="43.5549176" lon="11.4511522"><ele>186.0</ele><time>2026-04-18T10:33:57.208Z</time></trkpt><trkpt lat="43.5551185" lon="11.4512745"><ele>186.0</ele><time>2026-04-18T10:33:58.207Z</time></trkpt><trkpt lat="43.5553206" lon="11.451397"><ele>186.0</ele><time>2026-04-18T10:33:59.208Z</time></trkpt><trkpt lat="43.555523" lon="11.4515089"><ele>186.33333333333334</ele><time>2026-04-18T10:34:00.207Z</time></trkpt><trkpt lat="43.5557178" lon="11.4516191"><ele>186.66666666666669</ele><time>2026-04-18T10:34:01.208Z</time></trkpt><trkpt lat="43.5559105" lon="11.4517241"><ele>187.0</ele><time>2026-04-18T10:34:02.208Z</time></trkpt><trkpt lat="43.5560912" lon="11.4518125"><ele>187.33333333333334</ele><time>2026-04-18T10:34:03.208Z</time></trkpt><trkpt lat="43.5562647" lon="11.4518649"><ele>187.66666666666666</ele><time>2026-04-18T10:34:04.208Z</time></trkpt><trkpt lat="43.5564346" lon="11.4519087"><ele>188.0</ele><time>2026-04-18T10:34:05.208Z</time></trkpt><trkpt lat="43.5566103" lon="11.4519234"><ele>188.0</ele><time>2026-04-18T10:34:06.208Z</time></trkpt><trkpt lat="43.5567945" lon="11.451912"><ele>188.0</ele><time>2026-04-18T10:34:07.207Z</time></trkpt><trkpt lat="43.556979" lon="11.4518712"><ele>188.0</ele><time>2026-04-18T10:34:08.208Z</time></trkpt><trkpt lat="43.5571667" lon="11.4518193"><ele>188.33333333333331</ele><time>2026-04-18T10:34:09.208Z</time></trkpt><trkpt lat="43.5573577" lon="11.4517828"><ele>188.66666666666666</ele><time>2026-04-18T10:34:10.207Z</time></trkpt><trkpt lat="43.5575539" lon="11.4517674"><ele>189.0</ele><time>2026-04-18T10:34:11.208Z</time></trkpt><trkpt lat="43.5577487" lon="11.4517943"><ele>188.66666666666666</ele><time>2026-04-18T10:34:12.207Z</time></trkpt><trkpt lat="43.5579365" lon="11.4518517"><ele>188.33333333333331</ele><time>2026-04-18T10:34:13.208Z</time></trkpt><trkpt lat="43.5581191" lon="11.4519469"><ele>188.0</ele><time>2026-04-18T10:34:14.208Z</time></trkpt><trkpt lat="43.5582768" lon="11.4520662"><ele>188.66666666666666</ele><time>2026-04-18T10:34:15.207Z</time></trkpt><trkpt lat="43.5584138" lon="11.4522096"><ele>189.33333333333334</ele><time>2026-04-18T10:34:16.208Z</time></trkpt><trkpt lat="43.5585468" lon="11.4523743"><ele>190.0</ele><time>2026-04-18T10:34:17.207Z</time></trkpt><trkpt lat="43.5586728" lon="11.4525594"><ele>189.66666666666669</ele><time>2026-04-18T10:34:18.208Z</time></trkpt><trkpt lat="43.5588031" lon="11.4527607"><ele>189.33333333333334</ele><time>2026-04-18T10:34:19.208Z</time></trkpt><trkpt lat="43.5589427" lon="11.452974"><ele>189.0</ele><time>2026-04-18T10:34:20.208Z</time></trkpt><trkpt lat="43.5590854" lon="11.4532044"><ele>188.0</ele><time>2026-04-18T10:34:21.208Z</time></trkpt><trkpt lat="43.559235" lon="11.4534395"><ele>187.0</ele><time>2026-04-18T10:34:22.207Z</time></trkpt><trkpt lat="43.5593833" lon="11.4536781"><ele>187.33333333333334</ele><time>2026-04-18T10:34:23.208Z</time></trkpt><trkpt lat="43.5595296" lon="11.4539127"><ele>187.66666666666666</ele><time>2026-04-18T10:34:24.208Z</time></trkpt><trkpt lat="43.5596735" lon="11.4541481"><ele>188.0</ele><time>2026-04-18T10:34:25.208Z</time></trkpt><trkpt lat="43.5598076" lon="11.4543975"><ele>186.5</ele><time>2026-04-18T10:34:26.208Z</time></trkpt><trkpt lat="43.5599247" lon="11.4546743"><ele>185.0</ele><time>2026-04-18T10:34:27.208Z</time></trkpt><trkpt lat="43.5600231" lon="11.4549761"><ele>185.0</ele><time>2026-04-18T10:34:28.208Z</time></trkpt><trkpt lat="43.5601068" lon="11.4552938"><ele>185.0</ele><time>2026-04-18T10:34:29.208Z</time></trkpt><trkpt lat="43.5601853" lon="11.4556242"><ele>183.0</ele><time>2026-04-18T10:34:30.207Z</time></trkpt><trkpt lat="43.5602573" lon="11.4559625"><ele>181.0</ele><time>2026-04-18T10:34:31.207Z</time></trkpt><trkpt lat="43.5603265" lon="11.4563076"><ele>184.0</ele><time>2026-04-18T10:34:32.208Z</time></trkpt><trkpt lat="43.5603981" lon="11.4566614"><ele>187.0</ele><time>2026-04-18T10:34:33.208Z</time></trkpt><trkpt lat="43.5604645" lon="11.4570147"><ele>185.5</ele><time>2026-04-18T10:34:34.208Z</time></trkpt><trkpt lat="43.5605334" lon="11.4573735"><ele>184.0</ele><time>2026-04-18T10:34:35.208Z</time></trkpt><trkpt lat="43.5606008" lon="11.4577292"><ele>184.0</ele><time>2026-04-18T10:34:36.208Z</time></trkpt><trkpt lat="43.5606665" lon="11.4580771"><ele>184.0</ele><time>2026-04-18T10:34:37.208Z</time></trkpt><trkpt lat="43.5607319" lon="11.4584121"><ele>184.0</ele><time>2026-04-18T10:34:38.207Z</time></trkpt><trkpt lat="43.5607954" lon="11.4587303"><ele>184.0</ele><time>2026-04-18T10:34:39.207Z</time></trkpt><trkpt lat="43.5608601" lon="11.4590574"><ele>184.0</ele><time>2026-04-18T10:34:40.207Z</time></trkpt><trkpt lat="43.5609246" lon="11.4593896"><ele>184.0</ele><time>2026-04-18T10:34:41.208Z</time></trkpt><trkpt lat="43.5609927" lon="11.4597316"><ele>182.0</ele><time>2026-04-18T10:34:42.208Z</time></trkpt><trkpt lat="43.5610652" lon="11.4600885"><ele>180.0</ele><time>2026-04-18T10:34:43.207Z</time></trkpt><trkpt lat="43.5611346" lon="11.4604234"><ele>179.5</ele><time>2026-04-18T10:34:44.208Z</time></trkpt><trkpt lat="43.5611972" lon="11.4607416"><ele>179.0</ele><time>2026-04-18T10:34:45.208Z</time></trkpt><trkpt lat="43.5612575" lon="11.4610441"><ele>176.66666666666666</ele><time>2026-04-18T10:34:46.208Z</time></trkpt><trkpt lat="43.5613133" lon="11.4613426"><ele>174.33333333333334</ele><time>2026-04-18T10:34:47.207Z</time></trkpt><trkpt lat="43.5613691" lon="11.461637"><ele>172.0</ele><time>2026-04-18T10:34:48.208Z</time></trkpt><trkpt lat="43.5614123" lon="11.461945"><ele>170.5</ele><time>2026-04-18T10:34:49.207Z</time></trkpt><trkpt lat="43.5614382" lon="11.4622586"><ele>169.0</ele><time>2026-04-18T10:34:50.208Z</time></trkpt><trkpt lat="43.5614385" lon="11.4625796"><ele>169.0</ele><time>2026-04-18T10:34:51.207Z</time></trkpt><trkpt lat="43.5614267" lon="11.4628942"><ele>169.0</ele><time>2026-04-18T10:34:52.208Z</time></trkpt><trkpt lat="43.5614028" lon="11.4631878"><ele>169.0</ele><time>2026-04-18T10:34:53.207Z</time></trkpt><trkpt lat="43.5613835" lon="11.4634568"><ele>168.25</ele><time>2026-04-18T10:34:54.208Z</time></trkpt><trkpt lat="43.5613551" lon="11.4636903"><ele>167.5</ele><time>2026-04-18T10:34:55.207Z</time></trkpt><trkpt lat="43.5613337" lon="11.4638888"><ele>166.75</ele><time>2026-04-18T10:34:56.208Z</time></trkpt><trkpt lat="43.5613135" lon="11.4640514"><ele>166.0</ele><time>2026-04-18T10:34:57.207Z</time></trkpt><trkpt lat="43.5612936" lon="11.4641918"><ele>165.66666666666669</ele><time>2026-04-18T10:34:58.208Z</time></trkpt><trkpt lat="43.5612749" lon="11.4642811"><ele>165.33333333333334</ele><time>2026-04-18T10:34:59.208Z</time></trkpt><trkpt lat="43.5612031" lon="11.4643589"><ele>165.0</ele><time>2026-04-18T10:35:01.208Z</time></trkpt><trkpt lat="43.5611398" lon="11.464421"><ele>164.66666666666666</ele><time>2026-04-18T10:35:03.208Z</time></trkpt><trkpt lat="43.5611122" lon="11.4645198"><ele>164.33333333333331</ele><time>2026-04-18T10:35:05.208Z</time></trkpt><trkpt lat="43.5611097" lon="11.4646787"><ele>164.0</ele><time>2026-04-18T10:41:15.208Z</time></trkpt><trkpt lat="43.5611465" lon="11.46481"><ele>163.6</ele><time>2026-04-18T10:41:17.207Z</time></trkpt><trkpt lat="43.561178" lon="11.4649369"><ele>163.2</ele><time>2026-04-18T10:41:19.208Z</time></trkpt><trkpt lat="43.5611837" lon="11.4650372"><ele>162.79999999999998</ele><time>2026-04-18T10:41:20.207Z</time></trkpt><trkpt lat="43.5611874" lon="11.4651665"><ele>162.39999999999998</ele><time>2026-04-18T10:41:21.207Z</time></trkpt><trkpt lat="43.5611846" lon="11.4653084"><ele>162.0</ele><time>2026-04-18T10:41:22.208Z</time></trkpt><trkpt lat="43.5611823" lon="11.465472"><ele>162.0</ele><time>2026-04-18T10:41:23.208Z</time></trkpt><trkpt lat="43.561186" lon="11.4656563"><ele>162.0</ele><time>2026-04-18T10:41:24.207Z</time></trkpt><trkpt lat="43.5612015" lon="11.465863"><ele>162.0</ele><time>2026-04-18T10:41:25.208Z</time></trkpt><trkpt lat="43.5612301" lon="11.4660743"><ele>162.0</ele><time>2026-04-18T10:41:26.207Z</time></trkpt><trkpt lat="43.561268" lon="11.4662972"><ele>162.0</ele><time>2026-04-18T10:41:27.207Z</time></trkpt><trkpt lat="43.5613204" lon="11.4665317"><ele>162.0</ele><time>2026-04-18T10:41:28.208Z</time></trkpt><trkpt lat="43.5613743" lon="11.4667805"><ele>162.0</ele><time>2026-04-18T10:41:29.208Z</time></trkpt><trkpt lat="43.561441" lon="11.4670435"><ele>161.33333333333334</ele><time>2026-04-18T10:41:30.208Z</time></trkpt><trkpt lat="43.5615107" lon="11.4673222"><ele>160.66666666666669</ele><time>2026-04-18T10:41:31.207Z</time></trkpt><trkpt lat="43.5615712" lon="11.4676047"><ele>160.0</ele><time>2026-04-18T10:41:32.207Z</time></trkpt><trkpt lat="43.5616397" lon="11.4678835"><ele>159.66666666666669</ele><time>2026-04-18T10:41:33.208Z</time></trkpt><trkpt lat="43.5617101" lon="11.4681642"><ele>159.33333333333334</ele><time>2026-04-18T10:41:34.208Z</time></trkpt><trkpt lat="43.5617917" lon="11.4684416"><ele>159.0</ele><time>2026-04-18T10:41:35.207Z</time></trkpt><trkpt lat="43.5618866" lon="11.4687154"><ele>158.0</ele><time>2026-04-18T10:41:36.207Z</time></trkpt><trkpt lat="43.5619882" lon="11.4689955"><ele>157.0</ele><time>2026-04-18T10:41:37.208Z</time></trkpt><trkpt lat="43.5620919" lon="11.4692697"><ele>157.0</ele><time>2026-04-18T10:41:38.208Z</time></trkpt><trkpt lat="43.5621925" lon="11.4695504"><ele>157.0</ele><time>2026-04-18T10:41:39.208Z</time></trkpt><trkpt lat="43.5622907" lon="11.4698353"><ele>156.5</ele><time>2026-04-18T10:41:40.208Z</time></trkpt><trkpt lat="43.5623877" lon="11.4701245"><ele>156.0</ele><time>2026-04-18T10:41:41.208Z</time></trkpt><trkpt lat="43.5624853" lon="11.4704261"><ele>155.0</ele><time>2026-04-18T10:41:42.208Z</time></trkpt><trkpt lat="43.5625717" lon="11.4707286"><ele>154.0</ele><time>2026-04-18T10:41:43.208Z</time></trkpt><trkpt lat="43.5626511" lon="11.471031"><ele>154.5</ele><time>2026-04-18T10:41:44.208Z</time></trkpt><trkpt lat="43.5627292" lon="11.4713333"><ele>155.0</ele><time>2026-04-18T10:41:45.207Z</time></trkpt><trkpt lat="43.5628139" lon="11.4716326"><ele>154.66666666666666</ele><time>2026-04-18T10:41:46.207Z</time></trkpt><trkpt lat="43.5628949" lon="11.4719344"><ele>154.33333333333334</ele><time>2026-04-18T10:41:47.208Z</time></trkpt><trkpt lat="43.5629724" lon="11.4722114"><ele>154.0</ele><time>2026-04-18T10:41:48.208Z</time></trkpt><trkpt lat="43.5630402" lon="11.4724766"><ele>154.0</ele><time>2026-04-18T10:41:49.207Z</time></trkpt><trkpt lat="43.5631012" lon="11.4727303"><ele>154.0</ele><time>2026-04-18T10:41:50.207Z</time></trkpt><trkpt lat="43.5631458" lon="11.472983"><ele>154.0</ele><time>2026-04-18T10:41:51.208Z</time></trkpt><trkpt lat="43.5631666" lon="11.4732491"><ele>153.33333333333334</ele><time>2026-04-18T10:41:52.207Z</time></trkpt><trkpt lat="43.5631608" lon="11.4735224"><ele>152.66666666666666</ele><time>2026-04-18T10:41:53.208Z</time></trkpt><trkpt lat="43.5631423" lon="11.4738025"><ele>152.0</ele><time>2026-04-18T10:41:54.207Z</time></trkpt><trkpt lat="43.5631123" lon="11.4741013"><ele>152.0</ele><time>2026-04-18T10:41:55.208Z</time></trkpt><trkpt lat="43.5630838" lon="11.4744007"><ele>152.0</ele><time>2026-04-18T10:41:56.208Z</time></trkpt><trkpt lat="43.5630526" lon="11.4747062"><ele>152.0</ele><time>2026-04-18T10:41:57.208Z</time></trkpt><trkpt lat="43.5630198" lon="11.4750138"><ele>150.5</ele><time>2026-04-18T10:41:58.208Z</time></trkpt><trkpt lat="43.5629838" lon="11.4753252"><ele>149.0</ele><time>2026-04-18T10:41:59.208Z</time></trkpt><trkpt lat="43.5629455" lon="11.4756402"><ele>148.5</ele><time>2026-04-18T10:42:00.208Z</time></trkpt><trkpt lat="43.5629051" lon="11.4759553"><ele>148.0</ele><time>2026-04-18T10:42:01.208Z</time></trkpt><trkpt lat="43.5628655" lon="11.4762676"><ele>150.0</ele><time>2026-04-18T10:42:02.207Z</time></trkpt><trkpt lat="43.5628309" lon="11.4765874"><ele>152.0</ele><time>2026-04-18T10:42:03.207Z</time></trkpt><trkpt lat="43.562801" lon="11.4769034"><ele>151.33333333333331</ele><time>2026-04-18T10:42:04.208Z</time></trkpt><trkpt lat="43.5627802" lon="11.4772008"><ele>150.66666666666666</ele><time>2026-04-18T10:42:05.208Z</time></trkpt><trkpt lat="43.5627721" lon="11.4774875"><ele>150.0</ele><time>2026-04-18T10:42:06.208Z</time></trkpt><trkpt lat="43.5627907" lon="11.4777782"><ele>150.0</ele><time>2026-04-18T10:42:07.208Z</time></trkpt><trkpt lat="43.5628289" lon="11.4780763"><ele>150.0</ele><time>2026-04-18T10:42:08.208Z</time></trkpt><trkpt lat="43.5628859" lon="11.4783711"><ele>150.0</ele><time>2026-04-18T10:42:09.208Z</time></trkpt><trkpt lat="43.5629689" lon="11.4786605"><ele>148.5</ele><time>2026-04-18T10:42:10.207Z</time></trkpt><trkpt lat="43.5630683" lon="11.478949"><ele>147.0</ele><time>2026-04-18T10:42:11.208Z</time></trkpt><trkpt lat="43.5631802" lon="11.4792387"><ele>147.0</ele><time>2026-04-18T10:42:12.208Z</time></trkpt><trkpt lat="43.5632885" lon="11.4795063"><ele>147.0</ele><time>2026-04-18T10:42:13.208Z</time></trkpt><trkpt lat="43.5633934" lon="11.4797574"><ele>147.0</ele><time>2026-04-18T10:42:14.208Z</time></trkpt><trkpt lat="43.5634907" lon="11.4800049"><ele>146.66666666666666</ele><time>2026-04-18T10:42:15.208Z</time></trkpt><trkpt lat="43.5635896" lon="11.4802325"><ele>146.33333333333331</ele><time>2026-04-18T10:42:16.207Z</time></trkpt><trkpt lat="43.5636812" lon="11.4804495"><ele>146.0</ele><time>2026-04-18T10:42:17.208Z</time></trkpt><trkpt lat="43.5637778" lon="11.4806532"><ele>145.75</ele><time>2026-04-18T10:42:18.208Z</time></trkpt><trkpt lat="43.5638776" lon="11.4808339"><ele>145.5</ele><time>2026-04-18T10:42:19.208Z</time></trkpt><trkpt lat="43.5639697" lon="11.4809935"><ele>145.25</ele><time>2026-04-18T10:42:20.208Z</time></trkpt><trkpt lat="43.5640387" lon="11.481126"><ele>145.0</ele><time>2026-04-18T10:42:21.208Z</time></trkpt><trkpt lat="43.5640825" lon="11.481248"><ele>145.2</ele><time>2026-04-18T10:42:22.207Z</time></trkpt><trkpt lat="43.5640926" lon="11.4813645"><ele>145.4</ele><time>2026-04-18T10:42:23.208Z</time></trkpt><trkpt lat="43.5640708" lon="11.4814635"><ele>145.6</ele><time>2026-04-18T10:42:24.208Z</time></trkpt><trkpt lat="43.5640652" lon="11.4815875"><ele>145.8</ele><time>2026-04-18T10:42:25.207Z</time></trkpt><trkpt lat="43.5640959" lon="11.4817196"><ele>146.0</ele><time>2026-04-18T10:42:26.207Z</time></trkpt><trkpt lat="43.5641353" lon="11.4818726"><ele>146.0</ele><time>2026-04-18T10:42:27.208Z</time></trkpt><trkpt lat="43.5641579" lon="11.4820474"><ele>146.0</ele><time>2026-04-18T10:42:28.208Z</time></trkpt><trkpt lat="43.5641595" lon="11.4822373"><ele>146.0</ele><time>2026-04-18T10:42:29.208Z</time></trkpt><trkpt lat="43.5641624" lon="11.4824596"><ele>146.0</ele><time>2026-04-18T10:42:30.208Z</time></trkpt><trkpt lat="43.5641559" lon="11.4826912"><ele>149.0</ele><time>2026-04-18T10:42:31.208Z</time></trkpt><trkpt lat="43.5641527" lon="11.4829331"><ele>152.0</ele><time>2026-04-18T10:42:32.207Z</time></trkpt><trkpt lat="43.5641484" lon="11.4831746"><ele>155.0</ele><time>2026-04-18T10:42:33.207Z</time></trkpt><trkpt lat="43.5641517" lon="11.4834368"><ele>155.0</ele><time>2026-04-18T10:42:34.208Z</time></trkpt><trkpt lat="43.5641676" lon="11.483711"><ele>155.0</ele><time>2026-04-18T10:42:35.208Z</time></trkpt><trkpt lat="43.5642104" lon="11.4839884"><ele>155.0</ele><time>2026-04-18T10:42:36.207Z</time></trkpt><trkpt lat="43.5642726" lon="11.4842614"><ele>155.66666666666666</ele><time>2026-04-18T10:42:37.208Z</time></trkpt><trkpt lat="43.5643666" lon="11.4845307"><ele>156.33333333333334</ele><time>2026-04-18T10:42:38.207Z</time></trkpt><trkpt lat="43.5644805" lon="11.4847875"><ele>157.0</ele><time>2026-04-18T10:42:39.208Z</time></trkpt><trkpt lat="43.5646143" lon="11.4850188"><ele>155.0</ele><time>2026-04-18T10:42:40.208Z</time></trkpt><trkpt lat="43.5647701" lon="11.485238"><ele>153.0</ele><time>2026-04-18T10:42:41.207Z</time></trkpt><trkpt lat="43.5649426" lon="11.4854367"><ele>151.0</ele><time>2026-04-18T10:42:42.208Z</time></trkpt><trkpt lat="43.5651332" lon="11.4856075"><ele>152.5</ele><time>2026-04-18T10:42:43.208Z</time></trkpt><trkpt lat="43.5653425" lon="11.4857485"><ele>154.0</ele><time>2026-04-18T10:42:44.208Z</time></trkpt><trkpt lat="43.5655652" lon="11.4858666"><ele>154.0</ele><time>2026-04-18T10:42:45.208Z</time></trkpt><trkpt lat="43.56579" lon="11.4859761"><ele>154.0</ele><time>2026-04-18T10:42:46.208Z</time></trkpt><trkpt lat="43.5660104" lon="11.4860809"><ele>150.5</ele><time>2026-04-18T10:42:47.208Z</time></trkpt><trkpt lat="43.5662278" lon="11.4862009"><ele>147.0</ele><time>2026-04-18T10:42:48.208Z</time></trkpt><trkpt lat="43.5664329" lon="11.4863362"><ele>154.5</ele><time>2026-04-18T10:42:49.208Z</time></trkpt><trkpt lat="43.5666352" lon="11.486505"><ele>162.0</ele><time>2026-04-18T10:42:50.208Z</time></trkpt><trkpt lat="43.5668283" lon="11.4867052"><ele>162.0</ele><time>2026-04-18T10:42:51.208Z</time></trkpt><trkpt lat="43.5670213" lon="11.486921"><ele>162.0</ele><time>2026-04-18T10:42:52.208Z</time></trkpt><trkpt lat="43.5672089" lon="11.4871575"><ele>156.5</ele><time>2026-04-18T10:42:53.208Z</time></trkpt><trkpt lat="43.567395" lon="11.4874038"><ele>151.0</ele><time>2026-04-18T10:42:54.208Z</time></trkpt><trkpt lat="43.5675857" lon="11.4876491"><ele>151.0</ele><time>2026-04-18T10:42:55.208Z</time></trkpt><trkpt lat="43.5677779" lon="11.4878986"><ele>151.0</ele><time>2026-04-18T10:42:56.208Z</time></trkpt><trkpt lat="43.5679685" lon="11.4881543"><ele>146.5</ele><time>2026-04-18T10:42:57.208Z</time></trkpt><trkpt lat="43.5681545" lon="11.4884062"><ele>142.0</ele><time>2026-04-18T10:42:58.208Z</time></trkpt><trkpt lat="43.5683421" lon="11.4886572"><ele>142.5</ele><time>2026-04-18T10:42:59.208Z</time></trkpt><trkpt lat="43.5685318" lon="11.4889084"><ele>143.0</ele><time>2026-04-18T10:43:00.208Z</time></trkpt><trkpt lat="43.5687251" lon="11.4891618"><ele>143.0</ele><time>2026-04-18T10:43:01.208Z</time></trkpt><trkpt lat="43.5689109" lon="11.4894121"><ele>143.0</ele><time>2026-04-18T10:43:02.208Z</time></trkpt><trkpt lat="43.5690977" lon="11.4896585"><ele>148.0</ele><time>2026-04-18T10:43:03.208Z</time></trkpt><trkpt lat="43.5692855" lon="11.4899043"><ele>153.0</ele><time>2026-04-18T10:43:04.208Z</time></trkpt><trkpt lat="43.5694718" lon="11.4901524"><ele>150.5</ele><time>2026-04-18T10:43:05.208Z</time></trkpt><trkpt lat="43.5696608" lon="11.4904025"><ele>148.0</ele><time>2026-04-18T10:43:06.207Z</time></trkpt><trkpt lat="43.5698469" lon="11.4906519"><ele>148.0</ele><time>2026-04-18T10:43:07.208Z</time></trkpt><trkpt lat="43.5700206" lon="11.490883"><ele>148.0</ele><time>2026-04-18T10:43:08.207Z</time></trkpt><trkpt lat="43.570181" lon="11.4911076"><ele>146.66666666666669</ele><time>2026-04-18T10:43:09.208Z</time></trkpt><trkpt lat="43.5703293" lon="11.4913377"><ele>145.33333333333334</ele><time>2026-04-18T10:43:10.208Z</time></trkpt><trkpt lat="43.5704618" lon="11.4915876"><ele>144.0</ele><time>2026-04-18T10:43:11.208Z</time></trkpt><trkpt lat="43.5705801" lon="11.4918698"><ele>148.0</ele><time>2026-04-18T10:43:12.208Z</time></trkpt><trkpt lat="43.570683" lon="11.4921704"><ele>152.0</ele><time>2026-04-18T10:43:13.207Z</time></trkpt><trkpt lat="43.5707653" lon="11.49249"><ele>152.0</ele><time>2026-04-18T10:43:14.208Z</time></trkpt><trkpt lat="43.5708283" lon="11.4928293"><ele>152.0</ele><time>2026-04-18T10:43:15.207Z</time></trkpt><trkpt lat="43.5708818" lon="11.4931766"><ele>152.5</ele><time>2026-04-18T10:43:16.208Z</time></trkpt><trkpt lat="43.5709295" lon="11.4935352"><ele>153.0</ele><time>2026-04-18T10:43:17.208Z</time></trkpt><trkpt lat="43.5709747" lon="11.4938932"><ele>150.0</ele><time>2026-04-18T10:43:18.207Z</time></trkpt><trkpt lat="43.57103" lon="11.4942494"><ele>147.0</ele><time>2026-04-18T10:43:19.208Z</time></trkpt><trkpt lat="43.571085" lon="11.4946079"><ele>145.0</ele><time>2026-04-18T10:43:20.208Z</time></trkpt><trkpt lat="43.5711382" lon="11.4949667"><ele>143.0</ele><time>2026-04-18T10:43:21.208Z</time></trkpt><trkpt lat="43.571189" lon="11.4953286"><ele>141.5</ele><time>2026-04-18T10:43:22.207Z</time></trkpt><trkpt lat="43.5712462" lon="11.4956908"><ele>140.0</ele><time>2026-04-18T10:43:23.208Z</time></trkpt><trkpt lat="43.5713064" lon="11.4960518"><ele>140.5</ele><time>2026-04-18T10:43:24.208Z</time></trkpt><trkpt lat="43.5713744" lon="11.4964116"><ele>141.0</ele><time>2026-04-18T10:43:25.207Z</time></trkpt><trkpt lat="43.5714522" lon="11.4967651"><ele>142.0</ele><time>2026-04-18T10:43:26.208Z</time></trkpt><trkpt lat="43.5715384" lon="11.4971193"><ele>143.0</ele><time>2026-04-18T10:43:27.207Z</time></trkpt><trkpt lat="43.5716285" lon="11.4974697"><ele>143.0</ele><time>2026-04-18T10:43:28.208Z</time></trkpt><trkpt lat="43.5717245" lon="11.4978123"><ele>143.0</ele><time>2026-04-18T10:43:29.207Z</time></trkpt><trkpt lat="43.5718313" lon="11.4981509"><ele>144.0</ele><time>2026-04-18T10:43:30.208Z</time></trkpt><trkpt lat="43.5719376" lon="11.4984879"><ele>145.0</ele><time>2026-04-18T10:43:31.208Z</time></trkpt><trkpt lat="43.5720441" lon="11.4988311"><ele>141.5</ele><time>2026-04-18T10:43:32.207Z</time></trkpt><trkpt lat="43.5721493" lon="11.4991774"><ele>138.0</ele><time>2026-04-18T10:43:33.208Z</time></trkpt><trkpt lat="43.5722548" lon="11.4995231"><ele>138.5</ele><time>2026-04-18T10:43:34.208Z</time></trkpt><trkpt lat="43.5723601" lon="11.4998706"><ele>139.0</ele><time>2026-04-18T10:43:35.207Z</time></trkpt><trkpt lat="43.5724704" lon="11.5002146"><ele>139.5</ele><time>2026-04-18T10:43:36.208Z</time></trkpt><trkpt lat="43.5725882" lon="11.5005558"><ele>140.0</ele><time>2026-04-18T10:43:37.208Z</time></trkpt><trkpt lat="43.5727193" lon="11.5008839"><ele>139.0</ele><time>2026-04-18T10:43:38.208Z</time></trkpt><trkpt lat="43.5728729" lon="11.5011965"><ele>138.0</ele><time>2026-04-18T10:43:39.208Z</time></trkpt><trkpt lat="43.5730478" lon="11.5014871"><ele>138.0</ele><time>2026-04-18T10:43:40.208Z</time></trkpt><trkpt lat="43.5732435" lon="11.501761"><ele>138.0</ele><time>2026-04-18T10:43:41.208Z</time></trkpt><trkpt lat="43.5734532" lon="11.5020147"><ele>139.5</ele><time>2026-04-18T10:43:42.208Z</time></trkpt><trkpt lat="43.5736708" lon="11.5022544"><ele>141.0</ele><time>2026-04-18T10:43:43.208Z</time></trkpt><trkpt lat="43.5738979" lon="11.5024852"><ele>142.0</ele><time>2026-04-18T10:43:44.207Z</time></trkpt><trkpt lat="43.5741268" lon="11.5027168"><ele>143.0</ele><time>2026-04-18T10:43:45.208Z</time></trkpt><trkpt lat="43.5743541" lon="11.5029548"><ele>140.0</ele><time>2026-04-18T10:43:46.208Z</time></trkpt><trkpt lat="43.5745777" lon="11.5031967"><ele>137.0</ele><time>2026-04-18T10:43:47.208Z</time></trkpt><trkpt lat="43.5747865" lon="11.5034248"><ele>137.0</ele><time>2026-04-18T10:43:48.208Z</time></trkpt><trkpt lat="43.5749802" lon="11.5036365"><ele>137.0</ele><time>2026-04-18T10:43:49.207Z</time></trkpt><trkpt lat="43.5751582" lon="11.5038365"><ele>136.0</ele><time>2026-04-18T10:43:50.208Z</time></trkpt><trkpt lat="43.5753129" lon="11.5040543"><ele>135.0</ele><time>2026-04-18T10:43:51.207Z</time></trkpt><trkpt lat="43.5754476" lon="11.504307"><ele>134.0</ele><time>2026-04-18T10:43:52.208Z</time></trkpt><trkpt lat="43.5755617" lon="11.5045859"><ele>134.0</ele><time>2026-04-18T10:43:53.208Z</time></trkpt><trkpt lat="43.5756591" lon="11.5048703"><ele>134.0</ele><time>2026-04-18T10:43:54.208Z</time></trkpt><trkpt lat="43.5757298" lon="11.5051628"><ele>135.0</ele><time>2026-04-18T10:43:55.208Z</time></trkpt><trkpt lat="43.5757828" lon="11.5054768"><ele>136.0</ele><time>2026-04-18T10:43:56.208Z</time></trkpt><trkpt lat="43.5758173" lon="11.505796"><ele>136.0</ele><time>2026-04-18T10:43:57.207Z</time></trkpt><trkpt lat="43.5758471" lon="11.5060967"><ele>136.0</ele><time>2026-04-18T10:43:58.208Z</time></trkpt><trkpt lat="43.5758879" lon="11.5063704"><ele>136.0</ele><time>2026-04-18T10:43:59.208Z</time></trkpt><trkpt lat="43.5759446" lon="11.5066237"><ele>136.66666666666669</ele><time>2026-04-18T10:44:00.208Z</time></trkpt><trkpt lat="43.5760189" lon="11.5068641"><ele>137.33333333333334</ele><time>2026-04-18T10:44:01.208Z</time></trkpt><trkpt lat="43.5761125" lon="11.507085"><ele>138.0</ele><time>2026-04-18T10:44:02.207Z</time></trkpt><trkpt lat="43.5762236" lon="11.5072854"><ele>135.66666666666666</ele><time>2026-04-18T10:44:03.208Z</time></trkpt><trkpt lat="43.5763597" lon="11.5074741"><ele>133.33333333333331</ele><time>2026-04-18T10:44:04.207Z</time></trkpt><trkpt lat="43.5765078" lon="11.5076219"><ele>131.0</ele><time>2026-04-18T10:44:05.208Z</time></trkpt><trkpt lat="43.576663" lon="11.5077162"><ele>131.0</ele><time>2026-04-18T10:44:06.208Z</time></trkpt><trkpt lat="43.5768324" lon="11.5077908"><ele>131.0</ele><time>2026-04-18T10:44:07.208Z</time></trkpt><trkpt lat="43.5770148" lon="11.507838"><ele>131.0</ele><time>2026-04-18T10:44:08.208Z</time></trkpt><trkpt lat="43.5772042" lon="11.5078389"><ele>130.66666666666666</ele><time>2026-04-18T10:44:09.207Z</time></trkpt><trkpt lat="43.5774047" lon="11.5078019"><ele>130.33333333333334</ele><time>2026-04-18T10:44:10.208Z</time></trkpt><trkpt lat="43.577605" lon="11.5077344"><ele>130.0</ele><time>2026-04-18T10:44:11.208Z</time></trkpt><trkpt lat="43.577786" lon="11.5076768"><ele>130.33333333333334</ele><time>2026-04-18T10:44:12.208Z</time></trkpt><trkpt lat="43.5779546" lon="11.5076186"><ele>130.66666666666666</ele><time>2026-04-18T10:44:13.208Z</time></trkpt><trkpt lat="43.5781074" lon="11.5075556"><ele>131.0</ele><time>2026-04-18T10:44:14.208Z</time></trkpt><trkpt lat="43.5782349" lon="11.5075314"><ele>131.0</ele><time>2026-04-18T10:44:15.208Z</time></trkpt><trkpt lat="43.5783478" lon="11.5075291"><ele>131.0</ele><time>2026-04-18T10:44:16.207Z</time></trkpt><trkpt lat="43.5784437" lon="11.5075652"><ele>131.0</ele><time>2026-04-18T10:44:17.208Z</time></trkpt><trkpt lat="43.5785156" lon="11.5076344"><ele>131.0</ele><time>2026-04-18T10:44:18.208Z</time></trkpt><trkpt lat="43.5785917" lon="11.507713"><ele>131.0</ele><time>2026-04-18T10:44:19.207Z</time></trkpt><trkpt lat="43.5786768" lon="11.507797"><ele>132.0</ele><time>2026-04-18T10:44:20.207Z</time></trkpt><trkpt lat="43.5787678" lon="11.5078947"><ele>133.0</ele><time>2026-04-18T10:44:21.207Z</time></trkpt><trkpt lat="43.5788542" lon="11.5080243"><ele>134.0</ele><time>2026-04-18T10:44:22.207Z</time></trkpt><trkpt lat="43.5789271" lon="11.5081993"><ele>135.0</ele><time>2026-04-18T10:44:23.207Z</time></trkpt><trkpt lat="43.5790015" lon="11.5084103"><ele>135.33333333333334</ele><time>2026-04-18T10:44:24.207Z</time></trkpt><trkpt lat="43.5790637" lon="11.5086254"><ele>135.66666666666669</ele><time>2026-04-18T10:44:25.208Z</time></trkpt><trkpt lat="43.5791191" lon="11.5088601"><ele>136.0</ele><time>2026-04-18T10:44:26.208Z</time></trkpt><trkpt lat="43.5791525" lon="11.5090911"><ele>136.0</ele><time>2026-04-18T10:44:27.208Z</time></trkpt><trkpt lat="43.5791757" lon="11.5093032"><ele>136.0</ele><time>2026-04-18T10:44:28.207Z</time></trkpt><trkpt lat="43.5791951" lon="11.5094875"><ele>136.0</ele><time>2026-04-18T10:44:29.207Z</time></trkpt><trkpt lat="43.579208" lon="11.5096645"><ele>136.0</ele><time>2026-04-18T10:44:30.207Z</time></trkpt><trkpt lat="43.5792213" lon="11.5098139"><ele>135.4</ele><time>2026-04-18T10:44:31.208Z</time></trkpt><trkpt lat="43.5792328" lon="11.5099458"><ele>134.8</ele><time>2026-04-18T10:44:32.208Z</time></trkpt><trkpt lat="43.579237" lon="11.5100539"><ele>134.20000000000002</ele><time>2026-04-18T10:44:33.208Z</time></trkpt><trkpt lat="43.5792404" lon="11.5101782"><ele>133.6</ele><time>2026-04-18T10:44:35.208Z</time></trkpt><trkpt lat="43.5792345" lon="11.5103292"><ele>133.0</ele><time>2026-04-18T10:45:38.208Z</time></trkpt><trkpt lat="43.5792343" lon="11.5104635"><ele>132.75</ele><time>2026-04-18T10:45:40.208Z</time></trkpt><trkpt lat="43.5792655" lon="11.5105746"><ele>132.5</ele><time>2026-04-18T10:45:42.208Z</time></trkpt><trkpt lat="43.5794054" lon="11.5106346"><ele>132.25</ele><time>2026-04-18T10:45:44.207Z</time></trkpt><trkpt lat="43.5795064" lon="11.5106347"><ele>132.0</ele><time>2026-04-18T10:45:45.207Z</time></trkpt><trkpt lat="43.5796215" lon="11.5106083"><ele>131.33333333333334</ele><time>2026-04-18T10:45:46.208Z</time></trkpt><trkpt lat="43.5797478" lon="11.5105396"><ele>130.66666666666669</ele><time>2026-04-18T10:45:47.208Z</time></trkpt><trkpt lat="43.5798778" lon="11.5104272"><ele>130.0</ele><time>2026-04-18T10:45:48.207Z</time></trkpt><trkpt lat="43.5800126" lon="11.5103056"><ele>130.0</ele><time>2026-04-18T10:45:49.208Z</time></trkpt><trkpt lat="43.580154" lon="11.5101724"><ele>130.0</ele><time>2026-04-18T10:45:50.208Z</time></trkpt><trkpt lat="43.5803013" lon="11.5100314"><ele>130.0</ele><time>2026-04-18T10:45:51.207Z</time></trkpt><trkpt lat="43.5804578" lon="11.5098898"><ele>130.0</ele><time>2026-04-18T10:45:52.207Z</time></trkpt><trkpt lat="43.5806334" lon="11.5097541"><ele>130.0</ele><time>2026-04-18T10:45:53.208Z</time></trkpt><trkpt lat="43.5808233" lon="11.5096181"><ele>130.0</ele><time>2026-04-18T10:45:54.208Z</time></trkpt><trkpt lat="43.5810304" lon="11.5095063"><ele>130.66666666666669</ele><time>2026-04-18T10:45:55.207Z</time></trkpt><trkpt lat="43.5812405" lon="11.5093931"><ele>131.33333333333334</ele><time>2026-04-18T10:45:56.208Z</time></trkpt><trkpt lat="43.5814517" lon="11.5092996"><ele>132.0</ele><time>2026-04-18T10:45:57.208Z</time></trkpt><trkpt lat="43.5816495" lon="11.5092068"><ele>132.0</ele><time>2026-04-18T10:45:58.208Z</time></trkpt><trkpt lat="43.5818372" lon="11.5090963"><ele>132.0</ele><time>2026-04-18T10:45:59.208Z</time></trkpt><trkpt lat="43.5820162" lon="11.5089505"><ele>132.0</ele><time>2026-04-18T10:46:00.208Z</time></trkpt><trkpt lat="43.5821911" lon="11.508798"><ele>134.66666666666666</ele><time>2026-04-18T10:46:01.207Z</time></trkpt><trkpt lat="43.58237" lon="11.5086493"><ele>137.33333333333331</ele><time>2026-04-18T10:46:02.208Z</time></trkpt><trkpt lat="43.582528" lon="11.5085158"><ele>140.0</ele><time>2026-04-18T10:46:03.207Z</time></trkpt><trkpt lat="43.5826762" lon="11.5084003"><ele>140.0</ele><time>2026-04-18T10:46:04.208Z</time></trkpt><trkpt lat="43.5828229" lon="11.5083201"><ele>140.0</ele><time>2026-04-18T10:46:05.208Z</time></trkpt><trkpt lat="43.5829617" lon="11.5082905"><ele>140.0</ele><time>2026-04-18T10:46:06.208Z</time></trkpt><trkpt lat="43.5830916" lon="11.5082984"><ele>140.0</ele><time>2026-04-18T10:46:07.208Z</time></trkpt><trkpt lat="43.5831982" lon="11.5083317"><ele>138.33333333333331</ele><time>2026-04-18T10:46:08.207Z</time></trkpt><trkpt lat="43.5832794" lon="11.50834"><ele>136.66666666666666</ele><time>2026-04-18T10:46:09.208Z</time></trkpt><trkpt lat="43.5833749" lon="11.5083348"><ele>135.0</ele><time>2026-04-18T10:46:11.208Z</time></trkpt><trkpt lat="43.583451" lon="11.5082813"><ele>133.33333333333334</ele><time>2026-04-18T10:46:13.208Z</time></trkpt><trkpt lat="43.5835008" lon="11.5082122"><ele>131.66666666666669</ele><time>2026-04-18T10:46:14.208Z</time></trkpt><trkpt lat="43.5835562" lon="11.5081106"><ele>130.0</ele><time>2026-04-18T10:46:15.208Z</time></trkpt><trkpt lat="43.5836133" lon="11.5079804"><ele>129.5</ele><time>2026-04-18T10:46:16.208Z</time></trkpt><trkpt lat="43.5836771" lon="11.5078244"><ele>129.0</ele><time>2026-04-18T10:46:17.208Z</time></trkpt><trkpt lat="43.5837495" lon="11.5076564"><ele>128.5</ele><time>2026-04-18T10:46:18.207Z</time></trkpt><trkpt lat="43.5838305" lon="11.5074772"><ele>128.0</ele><time>2026-04-18T10:46:19.208Z</time></trkpt><trkpt lat="43.5839189" lon="11.5072901"><ele>128.0</ele><time>2026-04-18T10:46:20.207Z</time></trkpt><trkpt lat="43.5840097" lon="11.5071051"><ele>128.0</ele><time>2026-04-18T10:46:21.208Z</time></trkpt><trkpt lat="43.584104" lon="11.5069286"><ele>128.0</ele><time>2026-04-18T10:46:22.208Z</time></trkpt><trkpt lat="43.5841869" lon="11.5067572"><ele>129.33333333333331</ele><time>2026-04-18T10:46:23.208Z</time></trkpt><trkpt lat="43.584279" lon="11.5065859"><ele>130.66666666666666</ele><time>2026-04-18T10:46:24.208Z</time></trkpt><trkpt lat="43.5843677" lon="11.5064081"><ele>132.0</ele><time>2026-04-18T10:46:25.208Z</time></trkpt><trkpt lat="43.5844613" lon="11.5062291"><ele>130.66666666666666</ele><time>2026-04-18T10:46:26.207Z</time></trkpt><trkpt lat="43.5845504" lon="11.5060441"><ele>129.33333333333331</ele><time>2026-04-18T10:46:27.208Z</time></trkpt><trkpt lat="43.5846408" lon="11.5058615"><ele>128.0</ele><time>2026-04-18T10:46:28.208Z</time></trkpt><trkpt lat="43.5847314" lon="11.5056839"><ele>128.0</ele><time>2026-04-18T10:46:29.207Z</time></trkpt><trkpt lat="43.5848266" lon="11.5055164"><ele>128.0</ele><time>2026-04-18T10:46:30.207Z</time></trkpt><trkpt lat="43.5849284" lon="11.5053569"><ele>128.0</ele><time>2026-04-18T10:46:31.208Z</time></trkpt><trkpt lat="43.5850387" lon="11.5052077"><ele>127.66666666666666</ele><time>2026-04-18T10:46:32.208Z</time></trkpt><trkpt lat="43.5851536" lon="11.5050592"><ele>127.33333333333334</ele><time>2026-04-18T10:46:33.207Z</time></trkpt><trkpt lat="43.5852768" lon="11.5049125"><ele>127.0</ele><time>2026-04-18T10:46:34.208Z</time></trkpt><trkpt lat="43.5854073" lon="11.504773"><ele>127.0</ele><time>2026-04-18T10:46:35.208Z</time></trkpt><trkpt lat="43.5855465" lon="11.5046407"><ele>127.0</ele><time>2026-04-18T10:46:36.208Z</time></trkpt><trkpt lat="43.5856869" lon="11.5045413"><ele>127.0</ele><time>2026-04-18T10:46:37.208Z</time></trkpt><trkpt lat="43.5858205" lon="11.504443"><ele>127.66666666666667</ele><time>2026-04-18T10:46:38.207Z</time></trkpt><trkpt lat="43.5859574" lon="11.5043593"><ele>128.33333333333334</ele><time>2026-04-18T10:46:39.207Z</time></trkpt><trkpt lat="43.5861028" lon="11.5042839"><ele>129.0</ele><time>2026-04-18T10:46:40.207Z</time></trkpt><trkpt lat="43.5862601" lon="11.504216"><ele>129.0</ele><time>2026-04-18T10:46:41.208Z</time></trkpt><trkpt lat="43.5864198" lon="11.5041585"><ele>129.0</ele><time>2026-04-18T10:46:42.208Z</time></trkpt><trkpt lat="43.5865762" lon="11.5041082"><ele>129.0</ele><time>2026-04-18T10:46:43.207Z</time></trkpt><trkpt lat="43.5867184" lon="11.5040411"><ele>129.0</ele><time>2026-04-18T10:46:44.207Z</time></trkpt><trkpt lat="43.5868381" lon="11.5039416"><ele>129.0</ele><time>2026-04-18T10:46:45.208Z</time></trkpt><trkpt lat="43.5869443" lon="11.5038283"><ele>129.0</ele><time>2026-04-18T10:46:46.208Z</time></trkpt><trkpt lat="43.5870398" lon="11.5037225"><ele>129.0</ele><time>2026-04-18T10:46:47.208Z</time></trkpt><trkpt lat="43.5871334" lon="11.5036169"><ele>129.25</ele><time>2026-04-18T10:46:48.208Z</time></trkpt><trkpt lat="43.587232" lon="11.5035076"><ele>129.5</ele><time>2026-04-18T10:46:49.207Z</time></trkpt><trkpt lat="43.5873389" lon="11.5033962"><ele>129.75</ele><time>2026-04-18T10:46:50.208Z</time></trkpt><trkpt lat="43.5874491" lon="11.5032875"><ele>130.0</ele><time>2026-04-18T10:46:51.208Z</time></trkpt><trkpt lat="43.5875619" lon="11.5031777"><ele>130.0</ele><time>2026-04-18T10:46:52.208Z</time></trkpt><trkpt lat="43.5876809" lon="11.503057"><ele>130.0</ele><time>2026-04-18T10:46:53.208Z</time></trkpt><trkpt lat="43.5877996" lon="11.502932"><ele>130.0</ele><time>2026-04-18T10:46:54.208Z</time></trkpt><trkpt lat="43.587924" lon="11.5028027"><ele>130.33333333333334</ele><time>2026-04-18T10:46:55.208Z</time></trkpt><trkpt lat="43.5880578" lon="11.5026618"><ele>130.66666666666666</ele><time>2026-04-18T10:46:56.208Z</time></trkpt><trkpt lat="43.5881931" lon="11.5025239"><ele>131.0</ele><time>2026-04-18T10:46:57.207Z</time></trkpt><trkpt lat="43.5883314" lon="11.5024023"><ele>131.0</ele><time>2026-04-18T10:46:58.208Z</time></trkpt><trkpt lat="43.5884791" lon="11.5022985"><ele>131.0</ele><time>2026-04-18T10:46:59.207Z</time></trkpt><trkpt lat="43.588649" lon="11.5022306"><ele>131.0</ele><time>2026-04-18T10:47:00.208Z</time></trkpt><trkpt lat="43.5888214" lon="11.5021889"><ele>130.33333333333331</ele><time>2026-04-18T10:47:01.208Z</time></trkpt><trkpt lat="43.588996" lon="11.502168"><ele>129.66666666666666</ele><time>2026-04-18T10:47:02.207Z</time></trkpt><trkpt lat="43.5891755" lon="11.5021583"><ele>129.0</ele><time>2026-04-18T10:47:03.207Z</time></trkpt><trkpt lat="43.5893564" lon="11.5021547"><ele>128.66666666666666</ele><time>2026-04-18T10:47:04.207Z</time></trkpt><trkpt lat="43.5895429" lon="11.502145"><ele>128.33333333333331</ele><time>2026-04-18T10:47:05.208Z</time></trkpt><trkpt lat="43.5897371" lon="11.5021401"><ele>128.0</ele><time>2026-04-18T10:47:06.208Z</time></trkpt><trkpt lat="43.5899312" lon="11.5021366"><ele>128.0</ele><time>2026-04-18T10:47:07.208Z</time></trkpt><trkpt lat="43.5901177" lon="11.5021336"><ele>128.0</ele><time>2026-04-18T10:47:08.208Z</time></trkpt><trkpt lat="43.5902999" lon="11.5021276"><ele>128.0</ele><time>2026-04-18T10:47:09.208Z</time></trkpt><trkpt lat="43.5904807" lon="11.5021277"><ele>127.66666666666666</ele><time>2026-04-18T10:47:10.208Z</time></trkpt><trkpt lat="43.5906603" lon="11.5021272"><ele>127.33333333333334</ele><time>2026-04-18T10:47:11.208Z</time></trkpt><trkpt lat="43.5908434" lon="11.5021244"><ele>127.0</ele><time>2026-04-18T10:47:12.208Z</time></trkpt><trkpt lat="43.5910286" lon="11.5021219"><ele>127.0</ele><time>2026-04-18T10:47:13.207Z</time></trkpt><trkpt lat="43.5912135" lon="11.5021235"><ele>127.0</ele><time>2026-04-18T10:47:14.208Z</time></trkpt><trkpt lat="43.5913843" lon="11.5021279"><ele>127.0</ele><time>2026-04-18T10:47:15.208Z</time></trkpt><trkpt lat="43.5915566" lon="11.5021319"><ele>127.0</ele><time>2026-04-18T10:47:16.207Z</time></trkpt><trkpt lat="43.5917318" lon="11.5021045"><ele>127.0</ele><time>2026-04-18T10:47:17.207Z</time></trkpt><trkpt lat="43.5919072" lon="11.5020329"><ele>127.0</ele><time>2026-04-18T10:47:18.208Z</time></trkpt><trkpt lat="43.5920713" lon="11.501911"><ele>128.33333333333334</ele><time>2026-04-18T10:47:19.208Z</time></trkpt><trkpt lat="43.5922198" lon="11.5017791"><ele>129.66666666666666</ele><time>2026-04-18T10:47:20.208Z</time></trkpt><trkpt lat="43.5923606" lon="11.5016475"><ele>131.0</ele><time>2026-04-18T10:47:21.208Z</time></trkpt><trkpt lat="43.5924977" lon="11.5015068"><ele>131.0</ele><time>2026-04-18T10:47:22.208Z</time></trkpt><trkpt lat="43.5926409" lon="11.5013764"><ele>131.0</ele><time>2026-04-18T10:47:23.208Z</time></trkpt><trkpt lat="43.5927843" lon="11.501244"><ele>131.0</ele><time>2026-04-18T10:47:24.208Z</time></trkpt><trkpt lat="43.5929231" lon="11.5011165"><ele>130.0</ele><time>2026-04-18T10:47:25.208Z</time></trkpt><trkpt lat="43.5930664" lon="11.5009803"><ele>129.0</ele><time>2026-04-18T10:47:26.208Z</time></trkpt><trkpt lat="43.5932054" lon="11.5008402"><ele>128.0</ele><time>2026-04-18T10:47:27.207Z</time></trkpt><trkpt lat="43.5933441" lon="11.5007175"><ele>128.0</ele><time>2026-04-18T10:47:28.208Z</time></trkpt><trkpt lat="43.5934766" lon="11.5005923"><ele>128.0</ele><time>2026-04-18T10:47:29.207Z</time></trkpt><trkpt lat="43.5936124" lon="11.5004637"><ele>128.0</ele><time>2026-04-18T10:47:30.208Z</time></trkpt><trkpt lat="43.5937443" lon="11.5003219"><ele>128.0</ele><time>2026-04-18T10:47:31.208Z</time></trkpt><trkpt lat="43.593869" lon="11.5001611"><ele>128.0</ele><time>2026-04-18T10:47:32.207Z</time></trkpt><trkpt lat="43.5939862" lon="11.4999741"><ele>128.0</ele><time>2026-04-18T10:47:33.208Z</time></trkpt><trkpt lat="43.5940987" lon="11.4997694"><ele>128.66666666666666</ele><time>2026-04-18T10:47:34.208Z</time></trkpt><trkpt lat="43.5942016" lon="11.4995332"><ele>129.33333333333334</ele><time>2026-04-18T10:47:35.208Z</time></trkpt><trkpt lat="43.5943153" lon="11.4992875"><ele>130.0</ele><time>2026-04-18T10:47:36.207Z</time></trkpt><trkpt lat="43.594434" lon="11.4990287"><ele>130.0</ele><time>2026-04-18T10:47:37.207Z</time></trkpt><trkpt lat="43.5945595" lon="11.4987642"><ele>130.0</ele><time>2026-04-18T10:47:38.208Z</time></trkpt><trkpt lat="43.5946809" lon="11.4984945"><ele>130.0</ele><time>2026-04-18T10:47:39.207Z</time></trkpt><trkpt lat="43.5947905" lon="11.4982239"><ele>130.0</ele><time>2026-04-18T10:47:40.208Z</time></trkpt><trkpt lat="43.5948989" lon="11.497957"><ele>130.0</ele><time>2026-04-18T10:47:41.208Z</time></trkpt><trkpt lat="43.595017" lon="11.4976881"><ele>130.66666666666669</ele><time>2026-04-18T10:47:42.208Z</time></trkpt><trkpt lat="43.5951531" lon="11.49744"><ele>131.33333333333334</ele><time>2026-04-18T10:47:43.207Z</time></trkpt><trkpt lat="43.5953017" lon="11.4972292"><ele>132.0</ele><time>2026-04-18T10:47:44.207Z</time></trkpt><trkpt lat="43.5954684" lon="11.4970428"><ele>132.0</ele><time>2026-04-18T10:47:45.208Z</time></trkpt><trkpt lat="43.5956445" lon="11.4968662"><ele>132.0</ele><time>2026-04-18T10:47:46.207Z</time></trkpt><trkpt lat="43.5958201" lon="11.4966819"><ele>132.0</ele><time>2026-04-18T10:47:47.207Z</time></trkpt><trkpt lat="43.5959723" lon="11.4964844"><ele>132.0</ele><time>2026-04-18T10:47:48.207Z</time></trkpt><trkpt lat="43.5960963" lon="11.4962752"><ele>132.0</ele><time>2026-04-18T10:47:49.208Z</time></trkpt><trkpt lat="43.5962007" lon="11.4960661"><ele>132.0</ele><time>2026-04-18T10:47:50.208Z</time></trkpt><trkpt lat="43.5963004" lon="11.4958561"><ele>131.33333333333334</ele><time>2026-04-18T10:47:51.208Z</time></trkpt><trkpt lat="43.596399" lon="11.4956403"><ele>130.66666666666669</ele><time>2026-04-18T10:47:52.208Z</time></trkpt><trkpt lat="43.5964964" lon="11.4954342"><ele>130.0</ele><time>2026-04-18T10:47:53.208Z</time></trkpt><trkpt lat="43.5965882" lon="11.495228"><ele>130.0</ele><time>2026-04-18T10:47:54.208Z</time></trkpt><trkpt lat="43.596673" lon="11.4950138"><ele>130.0</ele><time>2026-04-18T10:47:55.207Z</time></trkpt><trkpt lat="43.5967499" lon="11.4948173"><ele>130.0</ele><time>2026-04-18T10:47:56.207Z</time></trkpt><trkpt lat="43.5968262" lon="11.4946248"><ele>129.5</ele><time>2026-04-18T10:47:57.208Z</time></trkpt><trkpt lat="43.5969059" lon="11.4944455"><ele>129.0</ele><time>2026-04-18T10:47:58.207Z</time></trkpt><trkpt lat="43.5969933" lon="11.4942805"><ele>128.5</ele><time>2026-04-18T10:47:59.207Z</time></trkpt><trkpt lat="43.5970909" lon="11.4941293"><ele>128.0</ele><time>2026-04-18T10:48:00.207Z</time></trkpt><trkpt lat="43.5971993" lon="11.4939844"><ele>128.0</ele><time>2026-04-18T10:48:01.208Z</time></trkpt><trkpt lat="43.5973243" lon="11.4938619"><ele>128.0</ele><time>2026-04-18T10:48:02.208Z</time></trkpt><trkpt lat="43.5974642" lon="11.4937289"><ele>128.0</ele><time>2026-04-18T10:48:03.207Z</time></trkpt><trkpt lat="43.5976085" lon="11.4935868"><ele>128.0</ele><time>2026-04-18T10:48:04.207Z</time></trkpt><trkpt lat="43.5977671" lon="11.4934323"><ele>128.0</ele><time>2026-04-18T10:48:05.207Z</time></trkpt><trkpt lat="43.5979258" lon="11.4932691"><ele>128.0</ele><time>2026-04-18T10:48:06.208Z</time></trkpt><trkpt lat="43.5980792" lon="11.4931083"><ele>128.0</ele><time>2026-04-18T10:48:07.208Z</time></trkpt><trkpt lat="43.5982307" lon="11.4929396"><ele>128.0</ele><time>2026-04-18T10:48:08.207Z</time></trkpt><trkpt lat="43.5983759" lon="11.4927756"><ele>128.0</ele><time>2026-04-18T10:48:09.208Z</time></trkpt><trkpt lat="43.5985205" lon="11.4926067"><ele>128.33333333333331</ele><time>2026-04-18T10:48:10.208Z</time></trkpt><trkpt lat="43.5986658" lon="11.4924422"><ele>128.66666666666666</ele><time>2026-04-18T10:48:11.208Z</time></trkpt><trkpt lat="43.5988148" lon="11.4922938"><ele>129.0</ele><time>2026-04-18T10:48:12.207Z</time></trkpt><trkpt lat="43.5989625" lon="11.4921485"><ele>129.0</ele><time>2026-04-18T10:48:13.207Z</time></trkpt><trkpt lat="43.5991224" lon="11.4919934"><ele>129.0</ele><time>2026-04-18T10:48:14.208Z</time></trkpt><trkpt lat="43.5992965" lon="11.4918407"><ele>129.0</ele><time>2026-04-18T10:48:15.207Z</time></trkpt><trkpt lat="43.5994882" lon="11.4917006"><ele>128.66666666666666</ele><time>2026-04-18T10:48:16.208Z</time></trkpt><trkpt lat="43.5996881" lon="11.4915699"><ele>128.33333333333331</ele><time>2026-04-18T10:48:17.208Z</time></trkpt><trkpt lat="43.5998865" lon="11.4914326"><ele>128.0</ele><time>2026-04-18T10:48:18.208Z</time></trkpt><trkpt lat="43.6000767" lon="11.4912682"><ele>128.5</ele><time>2026-04-18T10:48:19.208Z</time></trkpt><trkpt lat="43.6002575" lon="11.4910636"><ele>129.0</ele><time>2026-04-18T10:48:20.208Z</time></trkpt><trkpt lat="43.6004218" lon="11.4908499"><ele>128.66666666666666</ele><time>2026-04-18T10:48:21.208Z</time></trkpt><trkpt lat="43.6005467" lon="11.4906686"><ele>128.33333333333331</ele><time>2026-04-18T10:48:22.207Z</time></trkpt><trkpt lat="43.6006483" lon="11.4905204"><ele>128.0</ele><time>2026-04-18T10:48:23.208Z</time></trkpt><trkpt lat="43.6007423" lon="11.4903758"><ele>128.0</ele><time>2026-04-18T10:48:24.207Z</time></trkpt><trkpt lat="43.6008481" lon="11.4902343"><ele>128.0</ele><time>2026-04-18T10:48:25.208Z</time></trkpt><trkpt lat="43.6009532" lon="11.4900806"><ele>128.0</ele><time>2026-04-18T10:48:26.207Z</time></trkpt><trkpt lat="43.6010644" lon="11.4899182"><ele>128.0</ele><time>2026-04-18T10:48:27.208Z</time></trkpt><trkpt lat="43.6011867" lon="11.4897599"><ele>128.0</ele><time>2026-04-18T10:48:28.207Z</time></trkpt><trkpt lat="43.6013122" lon="11.4895931"><ele>128.0</ele><time>2026-04-18T10:48:29.208Z</time></trkpt><trkpt lat="43.601457" lon="11.4894516"><ele>130.33333333333331</ele><time>2026-04-18T10:48:30.208Z</time></trkpt><trkpt lat="43.6016134" lon="11.489345"><ele>132.66666666666666</ele><time>2026-04-18T10:48:31.208Z</time></trkpt><trkpt lat="43.6017783" lon="11.4892865"><ele>135.0</ele><time>2026-04-18T10:48:32.208Z</time></trkpt><trkpt lat="43.6019486" lon="11.4892845"><ele>135.66666666666666</ele><time>2026-04-18T10:48:33.207Z</time></trkpt><trkpt lat="43.6021126" lon="11.4892949"><ele>136.33333333333331</ele><time>2026-04-18T10:48:34.208Z</time></trkpt><trkpt lat="43.6022769" lon="11.4893064"><ele>137.0</ele><time>2026-04-18T10:48:35.208Z</time></trkpt><trkpt lat="43.6024426" lon="11.489319"><ele>137.0</ele><time>2026-04-18T10:48:36.208Z</time></trkpt><trkpt lat="43.6026096" lon="11.4893309"><ele>137.0</ele><time>2026-04-18T10:48:37.208Z</time></trkpt><trkpt lat="43.6027815" lon="11.4893403"><ele>137.0</ele><time>2026-04-18T10:48:38.207Z</time></trkpt><trkpt lat="43.6029561" lon="11.4893442"><ele>137.33333333333331</ele><time>2026-04-18T10:48:39.208Z</time></trkpt><trkpt lat="43.6031173" lon="11.4893407"><ele>137.66666666666666</ele><time>2026-04-18T10:48:40.208Z</time></trkpt><trkpt lat="43.6032749" lon="11.4893267"><ele>138.0</ele><time>2026-04-18T10:48:41.207Z</time></trkpt><trkpt lat="43.6034201" lon="11.4892939"><ele>138.0</ele><time>2026-04-18T10:48:42.208Z</time></trkpt><trkpt lat="43.6035662" lon="11.489226"><ele>138.0</ele><time>2026-04-18T10:48:43.208Z</time></trkpt><trkpt lat="43.6037058" lon="11.4891164"><ele>138.0</ele><time>2026-04-18T10:48:44.207Z</time></trkpt><trkpt lat="43.6038259" lon="11.4889962"><ele>137.0</ele><time>2026-04-18T10:48:45.208Z</time></trkpt><trkpt lat="43.6039447" lon="11.4888834"><ele>136.0</ele><time>2026-04-18T10:48:46.208Z</time></trkpt><trkpt lat="43.6040566" lon="11.4887806"><ele>135.0</ele><time>2026-04-18T10:48:47.208Z</time></trkpt><trkpt lat="43.6041674" lon="11.488674"><ele>134.0</ele><time>2026-04-18T10:48:48.208Z</time></trkpt><trkpt lat="43.6042684" lon="11.4885722"><ele>134.0</ele><time>2026-04-18T10:48:49.207Z</time></trkpt><trkpt lat="43.6043706" lon="11.4884753"><ele>134.0</ele><time>2026-04-18T10:48:50.208Z</time></trkpt><trkpt lat="43.6044674" lon="11.4883894"><ele>134.0</ele><time>2026-04-18T10:48:51.208Z</time></trkpt><trkpt lat="43.6045594" lon="11.4882985"><ele>134.0</ele><time>2026-04-18T10:48:52.207Z</time></trkpt><trkpt lat="43.6046487" lon="11.4882229"><ele>134.5</ele><time>2026-04-18T10:48:53.208Z</time></trkpt><trkpt lat="43.6047418" lon="11.4881351"><ele>135.0</ele><time>2026-04-18T10:48:54.208Z</time></trkpt><trkpt lat="43.6048379" lon="11.4880421"><ele>135.5</ele><time>2026-04-18T10:48:55.207Z</time></trkpt><trkpt lat="43.6049345" lon="11.4879428"><ele>136.0</ele><time>2026-04-18T10:48:56.208Z</time></trkpt><trkpt lat="43.6050386" lon="11.4878416"><ele>136.0</ele><time>2026-04-18T10:48:57.208Z</time></trkpt><trkpt lat="43.6051471" lon="11.4877362"><ele>136.0</ele><time>2026-04-18T10:48:58.208Z</time></trkpt><trkpt lat="43.6052712" lon="11.4876467"><ele>136.0</ele><time>2026-04-18T10:48:59.208Z</time></trkpt><trkpt lat="43.6054061" lon="11.4875679"><ele>136.0</ele><time>2026-04-18T10:49:00.208Z</time></trkpt><trkpt lat="43.6055494" lon="11.4874942"><ele>136.0</ele><time>2026-04-18T10:49:01.207Z</time></trkpt><trkpt lat="43.6056987" lon="11.4874178"><ele>136.0</ele><time>2026-04-18T10:49:02.207Z</time></trkpt><trkpt lat="43.6058469" lon="11.4873392"><ele>136.0</ele><time>2026-04-18T10:49:03.207Z</time></trkpt><trkpt lat="43.6059931" lon="11.4872617"><ele>136.0</ele><time>2026-04-18T10:49:04.208Z</time></trkpt><trkpt lat="43.6061245" lon="11.4871947"><ele>136.0</ele><time>2026-04-18T10:49:05.208Z</time></trkpt><trkpt lat="43.6062462" lon="11.4871306"><ele>136.0</ele><time>2026-04-18T10:49:06.207Z</time></trkpt><trkpt lat="43.6063627" lon="11.4870724"><ele>136.0</ele><time>2026-04-18T10:49:07.208Z</time></trkpt><trkpt lat="43.6064793" lon="11.4870109"><ele>136.25</ele><time>2026-04-18T10:49:08.207Z</time></trkpt><trkpt lat="43.6066013" lon="11.4869527"><ele>136.5</ele><time>2026-04-18T10:49:09.208Z</time></trkpt><trkpt lat="43.6067273" lon="11.4868907"><ele>136.75</ele><time>2026-04-18T10:49:10.208Z</time></trkpt><trkpt lat="43.606847" lon="11.48683"><ele>137.0</ele><time>2026-04-18T10:49:11.207Z</time></trkpt><trkpt lat="43.6069717" lon="11.4867635"><ele>135.5</ele><time>2026-04-18T10:49:12.207Z</time></trkpt><trkpt lat="43.6070994" lon="11.4866816"><ele>134.0</ele><time>2026-04-18T10:49:13.208Z</time></trkpt><trkpt lat="43.6072187" lon="11.4865985"><ele>132.5</ele><time>2026-04-18T10:49:14.207Z</time></trkpt><trkpt lat="43.6073267" lon="11.4865016"><ele>131.0</ele><time>2026-04-18T10:49:15.208Z</time></trkpt><trkpt lat="43.6074403" lon="11.4863932"><ele>131.0</ele><time>2026-04-18T10:49:16.207Z</time></trkpt><trkpt lat="43.6075546" lon="11.4862871"><ele>131.0</ele><time>2026-04-18T10:49:17.207Z</time></trkpt><trkpt lat="43.6076776" lon="11.4861591"><ele>131.0</ele><time>2026-04-18T10:49:18.207Z</time></trkpt><trkpt lat="43.6078147" lon="11.4860238"><ele>129.33333333333331</ele><time>2026-04-18T10:49:19.207Z</time></trkpt><trkpt lat="43.6079506" lon="11.4858857"><ele>127.66666666666666</ele><time>2026-04-18T10:49:20.208Z</time></trkpt><trkpt lat="43.6081018" lon="11.4857403"><ele>126.0</ele><time>2026-04-18T10:49:21.208Z</time></trkpt><trkpt lat="43.6082599" lon="11.4855841"><ele>126.0</ele><time>2026-04-18T10:49:22.208Z</time></trkpt><trkpt lat="43.6084211" lon="11.485423"><ele>126.0</ele><time>2026-04-18T10:49:23.208Z</time></trkpt><trkpt lat="43.6085741" lon="11.4852627"><ele>126.0</ele><time>2026-04-18T10:49:24.208Z</time></trkpt><trkpt lat="43.6087214" lon="11.4851092"><ele>126.0</ele><time>2026-04-18T10:49:25.207Z</time></trkpt><trkpt lat="43.6088737" lon="11.484949"><ele>126.0</ele><time>2026-04-18T10:49:26.208Z</time></trkpt><trkpt lat="43.6090318" lon="11.4847872"><ele>126.0</ele><time>2026-04-18T10:49:27.207Z</time></trkpt><trkpt lat="43.6091923" lon="11.4846274"><ele>126.0</ele><time>2026-04-18T10:49:28.207Z</time></trkpt><trkpt lat="43.609356" lon="11.4844657"><ele>126.0</ele><time>2026-04-18T10:49:29.208Z</time></trkpt><trkpt lat="43.6095164" lon="11.4843163"><ele>126.0</ele><time>2026-04-18T10:49:30.208Z</time></trkpt><trkpt lat="43.6096625" lon="11.4841727"><ele>126.0</ele><time>2026-04-18T10:49:31.208Z</time></trkpt><trkpt lat="43.6098037" lon="11.4840353"><ele>126.0</ele><time>2026-04-18T10:49:32.208Z</time></trkpt><trkpt lat="43.6099338" lon="11.48391"><ele>126.0</ele><time>2026-04-18T10:49:33.208Z</time></trkpt><trkpt lat="43.6100522" lon="11.4837925"><ele>126.25</ele><time>2026-04-18T10:49:34.207Z</time></trkpt><trkpt lat="43.6101692" lon="11.4836823"><ele>126.5</ele><time>2026-04-18T10:49:35.207Z</time></trkpt><trkpt lat="43.6102819" lon="11.4835758"><ele>126.75</ele><time>2026-04-18T10:49:36.208Z</time></trkpt><trkpt lat="43.6103804" lon="11.4834749"><ele>127.0</ele><time>2026-04-18T10:49:37.208Z</time></trkpt><trkpt lat="43.6104727" lon="11.4833824"><ele>127.0</ele><time>2026-04-18T10:49:38.208Z</time></trkpt><trkpt lat="43.6105645" lon="11.4832975"><ele>126.99999999999999</ele><time>2026-04-18T10:49:39.207Z</time></trkpt><trkpt lat="43.610652" lon="11.4832154"><ele>126.99999999999999</ele><time>2026-04-18T10:49:40.208Z</time></trkpt><trkpt lat="43.6107385" lon="11.4831272"><ele>127.0</ele><time>2026-04-18T10:49:41.208Z</time></trkpt><trkpt lat="43.6108367" lon="11.4830308"><ele>127.0</ele><time>2026-04-18T10:49:42.208Z</time></trkpt><trkpt lat="43.6109365" lon="11.4829302"><ele>126.5</ele><time>2026-04-18T10:49:43.207Z</time></trkpt><trkpt lat="43.6110384" lon="11.4828294"><ele>126.0</ele><time>2026-04-18T10:49:44.208Z</time></trkpt><trkpt lat="43.6111447" lon="11.4827257"><ele>125.5</ele><time>2026-04-18T10:49:45.208Z</time></trkpt><trkpt lat="43.6112541" lon="11.4826239"><ele>125.0</ele><time>2026-04-18T10:49:46.208Z</time></trkpt><trkpt lat="43.6113608" lon="11.4825148"><ele>125.0</ele><time>2026-04-18T10:49:47.208Z</time></trkpt><trkpt lat="43.6114675" lon="11.4823995"><ele>125.0</ele><time>2026-04-18T10:49:48.208Z</time></trkpt><trkpt lat="43.6115771" lon="11.4822905"><ele>125.0</ele><time>2026-04-18T10:49:49.208Z</time></trkpt><trkpt lat="43.6116821" lon="11.4821791"><ele>125.0</ele><time>2026-04-18T10:49:50.207Z</time></trkpt><trkpt lat="43.6117913" lon="11.4820671"><ele>125.0</ele><time>2026-04-18T10:49:51.207Z</time></trkpt><trkpt lat="43.6119001" lon="11.4819575"><ele>125.0</ele><time>2026-04-18T10:49:52.207Z</time></trkpt><trkpt lat="43.6120111" lon="11.4818482"><ele>125.0</ele><time>2026-04-18T10:49:53.208Z</time></trkpt><trkpt lat="43.6121189" lon="11.4817376"><ele>125.0</ele><time>2026-04-18T10:49:54.208Z</time></trkpt><trkpt lat="43.6122256" lon="11.4816293"><ele>124.75</ele><time>2026-04-18T10:49:55.208Z</time></trkpt><trkpt lat="43.6123324" lon="11.4815276"><ele>124.5</ele><time>2026-04-18T10:49:56.208Z</time></trkpt><trkpt lat="43.6124312" lon="11.481425"><ele>124.25</ele><time>2026-04-18T10:49:57.208Z</time></trkpt><trkpt lat="43.6125349" lon="11.4813227"><ele>124.0</ele><time>2026-04-18T10:49:58.208Z</time></trkpt><trkpt lat="43.6126381" lon="11.4812181"><ele>124.0</ele><time>2026-04-18T10:49:59.207Z</time></trkpt><trkpt lat="43.6127418" lon="11.4811178"><ele>124.0</ele><time>2026-04-18T10:50:00.207Z</time></trkpt><trkpt lat="43.6128352" lon="11.481018"><ele>124.0</ele><time>2026-04-18T10:50:01.208Z</time></trkpt><trkpt lat="43.6129346" lon="11.4809223"><ele>124.0</ele><time>2026-04-18T10:50:02.208Z</time></trkpt><trkpt lat="43.6130287" lon="11.4808307"><ele>124.2</ele><time>2026-04-18T10:50:03.207Z</time></trkpt><trkpt lat="43.6131161" lon="11.4807417"><ele>124.4</ele><time>2026-04-18T10:50:04.207Z</time></trkpt><trkpt lat="43.6131983" lon="11.4806602"><ele>124.6</ele><time>2026-04-18T10:50:05.208Z</time></trkpt><trkpt lat="43.6132841" lon="11.4805765"><ele>124.8</ele><time>2026-04-18T10:50:06.207Z</time></trkpt><trkpt lat="43.6133722" lon="11.4804922"><ele>125.0</ele><time>2026-04-18T10:50:07.208Z</time></trkpt><trkpt lat="43.6134524" lon="11.4804131"><ele>125.0</ele><time>2026-04-18T10:50:08.208Z</time></trkpt><trkpt lat="43.6135281" lon="11.4803384"><ele>125.0</ele><time>2026-04-18T10:50:09.208Z</time></trkpt><trkpt lat="43.6135997" lon="11.4802706"><ele>125.0</ele><time>2026-04-18T10:50:10.208Z</time></trkpt><trkpt lat="43.6136724" lon="11.4801997"><ele>125.0</ele><time>2026-04-18T10:50:11.208Z</time></trkpt><trkpt lat="43.6137531" lon="11.4801197"><ele>125.0</ele><time>2026-04-18T10:50:12.207Z</time></trkpt><trkpt lat="43.6138305" lon="11.4800441"><ele>125.0</ele><time>2026-04-18T10:50:13.208Z</time></trkpt><trkpt lat="43.6139107" lon="11.4799614"><ele>125.0</ele><time>2026-04-18T10:50:14.208Z</time></trkpt><trkpt lat="43.6139976" lon="11.4798805"><ele>125.0</ele><time>2026-04-18T10:50:15.208Z</time></trkpt><trkpt lat="43.6140933" lon="11.4797894"><ele>125.0</ele><time>2026-04-18T10:50:16.208Z</time></trkpt><trkpt lat="43.61419" lon="11.4796949"><ele>125.0</ele><time>2026-04-18T10:50:17.207Z</time></trkpt><trkpt lat="43.6142905" lon="11.4796034"><ele>125.0</ele><time>2026-04-18T10:50:18.207Z</time></trkpt><trkpt lat="43.6143922" lon="11.4795022"><ele>125.0</ele><time>2026-04-18T10:50:19.208Z</time></trkpt><trkpt lat="43.6144945" lon="11.4794123"><ele>125.0</ele><time>2026-04-18T10:50:20.208Z</time></trkpt><trkpt lat="43.6145821" lon="11.4793225"><ele>125.0</ele><time>2026-04-18T10:50:21.208Z</time></trkpt><trkpt lat="43.6146706" lon="11.4792301"><ele>124.8</ele><time>2026-04-18T10:50:22.207Z</time></trkpt><trkpt lat="43.6147629" lon="11.479139"><ele>124.6</ele><time>2026-04-18T10:50:23.208Z</time></trkpt><trkpt lat="43.6148503" lon="11.4790487"><ele>124.4</ele><time>2026-04-18T10:50:24.208Z</time></trkpt><trkpt lat="43.6149331" lon="11.4789642"><ele>124.2</ele><time>2026-04-18T10:50:25.208Z</time></trkpt><trkpt lat="43.6150153" lon="11.4788888"><ele>124.0</ele><time>2026-04-18T10:50:26.207Z</time></trkpt><trkpt lat="43.6150969" lon="11.4788015"><ele>124.2</ele><time>2026-04-18T10:50:27.207Z</time></trkpt><trkpt lat="43.6151744" lon="11.4787123"><ele>124.4</ele><time>2026-04-18T10:50:28.208Z</time></trkpt><trkpt lat="43.6152488" lon="11.4786304"><ele>124.6</ele><time>2026-04-18T10:50:29.208Z</time></trkpt><trkpt lat="43.6153227" lon="11.4785521"><ele>124.8</ele><time>2026-04-18T10:50:30.208Z</time></trkpt><trkpt lat="43.6153933" lon="11.478471"><ele>125.0</ele><time>2026-04-18T10:50:31.207Z</time></trkpt><trkpt lat="43.6154645" lon="11.4783879"><ele>124.6</ele><time>2026-04-18T10:50:32.208Z</time></trkpt><trkpt lat="43.6155313" lon="11.4783043"><ele>124.2</ele><time>2026-04-18T10:50:33.208Z</time></trkpt><trkpt lat="43.615597" lon="11.4782252"><ele>123.80000000000001</ele><time>2026-04-18T10:50:34.208Z</time></trkpt><trkpt lat="43.6156656" lon="11.4781417"><ele>123.4</ele><time>2026-04-18T10:50:35.208Z</time></trkpt><trkpt lat="43.615732" lon="11.4780591"><ele>123.0</ele><time>2026-04-18T10:50:36.208Z</time></trkpt><trkpt lat="43.6158035" lon="11.4779679"><ele>122.83333333333333</ele><time>2026-04-18T10:50:37.208Z</time></trkpt><trkpt lat="43.6158692" lon="11.4778771"><ele>122.66666666666666</ele><time>2026-04-18T10:50:38.208Z</time></trkpt><trkpt lat="43.6159331" lon="11.4777947"><ele>122.5</ele><time>2026-04-18T10:50:39.208Z</time></trkpt><trkpt lat="43.615994" lon="11.4777169"><ele>122.33333333333333</ele><time>2026-04-18T10:50:40.208Z</time></trkpt><trkpt lat="43.6160563" lon="11.4776403"><ele>122.16666666666666</ele><time>2026-04-18T10:50:41.208Z</time></trkpt><trkpt lat="43.6161167" lon="11.4775646"><ele>122.0</ele><time>2026-04-18T10:50:42.208Z</time></trkpt><trkpt lat="43.6161798" lon="11.4774901"><ele>122.39999999999999</ele><time>2026-04-18T10:50:43.208Z</time></trkpt><trkpt lat="43.6162407" lon="11.4774048"><ele>122.79999999999998</ele><time>2026-04-18T10:50:44.207Z</time></trkpt><trkpt lat="43.6163129" lon="11.4773079"><ele>123.2</ele><time>2026-04-18T10:50:45.207Z</time></trkpt><trkpt lat="43.6163857" lon="11.4772066"><ele>123.6</ele><time>2026-04-18T10:50:46.207Z</time></trkpt><trkpt lat="43.616464" lon="11.477121"><ele>124.0</ele><time>2026-04-18T10:50:47.208Z</time></trkpt><trkpt lat="43.6165313" lon="11.4770392"><ele>124.0</ele><time>2026-04-18T10:50:48.207Z</time></trkpt><trkpt lat="43.6165901" lon="11.4769627"><ele>124.0</ele><time>2026-04-18T10:50:49.208Z</time></trkpt><trkpt lat="43.6166456" lon="11.4769066"><ele>124.0</ele><time>2026-04-18T10:50:50.207Z</time></trkpt><trkpt lat="43.6167366" lon="11.4768379"><ele>124.0</ele><time>2026-04-18T10:50:52.208Z</time></trkpt><trkpt lat="43.6168382" lon="11.4768224"><ele>124.0</ele><time>2026-04-18T10:50:54.208Z</time></trkpt><trkpt lat="43.61691" lon="11.4767027"><ele>124.0</ele><time>2026-04-18T10:50:56.208Z</time></trkpt><trkpt lat="43.6169411" lon="11.4766004"><ele>124.0</ele><time>2026-04-18T10:50:57.207Z</time></trkpt><trkpt lat="43.6169917" lon="11.4764866"><ele>124.0</ele><time>2026-04-18T10:50:58.207Z</time></trkpt><trkpt lat="43.6170651" lon="11.4763878"><ele>124.0</ele><time>2026-04-18T10:50:59.207Z</time></trkpt><trkpt lat="43.6171424" lon="11.4762847"><ele>124.0</ele><time>2026-04-18T10:51:00.208Z</time></trkpt><trkpt lat="43.6172219" lon="11.4761837"><ele>124.4</ele><time>2026-04-18T10:51:01.208Z</time></trkpt><trkpt lat="43.6173053" lon="11.4760875"><ele>124.80000000000001</ele><time>2026-04-18T10:51:02.207Z</time></trkpt><trkpt lat="43.6173904" lon="11.4759854"><ele>125.19999999999999</ele><time>2026-04-18T10:51:03.207Z</time></trkpt><trkpt lat="43.6174711" lon="11.4758742"><ele>125.6</ele><time>2026-04-18T10:51:04.208Z</time></trkpt><trkpt lat="43.6175509" lon="11.4757722"><ele>126.0</ele><time>2026-04-18T10:51:05.208Z</time></trkpt><trkpt lat="43.6176233" lon="11.4756775"><ele>126.0</ele><time>2026-04-18T10:51:06.208Z</time></trkpt><trkpt lat="43.6176953" lon="11.4755823"><ele>126.0</ele><time>2026-04-18T10:51:07.208Z</time></trkpt><trkpt lat="43.6177674" lon="11.4754896"><ele>126.0</ele><time>2026-04-18T10:51:08.207Z</time></trkpt><trkpt lat="43.6178344" lon="11.4753988"><ele>126.0</ele><time>2026-04-18T10:51:09.207Z</time></trkpt><trkpt lat="43.6179036" lon="11.4753217"><ele>126.0</ele><time>2026-04-18T10:51:10.208Z</time></trkpt><trkpt lat="43.6179651" lon="11.4752474"><ele>125.83333333333333</ele><time>2026-04-18T10:51:11.208Z</time></trkpt><trkpt lat="43.618022" lon="11.4751754"><ele>125.66666666666666</ele><time>2026-04-18T10:51:12.208Z</time></trkpt><trkpt lat="43.6180724" lon="11.4751178"><ele>125.5</ele><time>2026-04-18T10:51:13.208Z</time></trkpt><trkpt lat="43.6181295" lon="11.4750761"><ele>125.33333333333333</ele><time>2026-04-18T10:51:14.208Z</time></trkpt><trkpt lat="43.6182375" lon="11.4750732"><ele>125.16666666666666</ele><time>2026-04-18T10:51:16.208Z</time></trkpt><trkpt lat="43.618291" lon="11.4751352"><ele>125.0</ele><time>2026-04-18T10:51:17.208Z</time></trkpt><trkpt lat="43.6183456" lon="11.4752158"><ele>125.0</ele><time>2026-04-18T10:51:18.208Z</time></trkpt><trkpt lat="43.6184024" lon="11.4753118"><ele>125.0</ele><time>2026-04-18T10:51:19.208Z</time></trkpt><trkpt lat="43.6184674" lon="11.4754285"><ele>125.0</ele><time>2026-04-18T10:51:20.208Z</time></trkpt><trkpt lat="43.6185407" lon="11.4755547"><ele>125.0</ele><time>2026-04-18T10:51:21.207Z</time></trkpt><trkpt lat="43.6186225" lon="11.4756996"><ele>125.0</ele><time>2026-04-18T10:51:22.208Z</time></trkpt><trkpt lat="43.6187115" lon="11.4758447"><ele>124.75</ele><time>2026-04-18T10:51:23.208Z</time></trkpt><trkpt lat="43.6188052" lon="11.4759995"><ele>124.5</ele><time>2026-04-18T10:51:24.208Z</time></trkpt><trkpt lat="43.6188989" lon="11.4761561"><ele>124.25</ele><time>2026-04-18T10:51:25.208Z</time></trkpt><trkpt lat="43.6189954" lon="11.4763085"><ele>124.0</ele><time>2026-04-18T10:51:26.208Z</time></trkpt><trkpt lat="43.6190902" lon="11.4764635"><ele>123.66666666666667</ele><time>2026-04-18T10:51:27.207Z</time></trkpt><trkpt lat="43.6191877" lon="11.4766226"><ele>123.33333333333334</ele><time>2026-04-18T10:51:28.208Z</time></trkpt><trkpt lat="43.6192934" lon="11.4767782"><ele>123.0</ele><time>2026-04-18T10:51:29.208Z</time></trkpt><trkpt lat="43.6193966" lon="11.47694"><ele>123.0</ele><time>2026-04-18T10:51:30.208Z</time></trkpt><trkpt lat="43.6194872" lon="11.4770989"><ele>123.0</ele><time>2026-04-18T10:51:31.208Z</time></trkpt><trkpt lat="43.6195734" lon="11.477241"><ele>123.0</ele><time>2026-04-18T10:51:32.207Z</time></trkpt><trkpt lat="43.6196686" lon="11.4773999"><ele>123.0</ele><time>2026-04-18T10:51:33.208Z</time></trkpt><trkpt lat="43.6197575" lon="11.4775432"><ele>123.0</ele><time>2026-04-18T10:51:34.207Z</time></trkpt><trkpt lat="43.6198367" lon="11.4776776"><ele>123.0</ele><time>2026-04-18T10:51:35.207Z</time></trkpt><trkpt lat="43.6199001" lon="11.4777829"><ele>123.0</ele><time>2026-04-18T10:51:36.208Z</time></trkpt><trkpt lat="43.6199483" lon="11.4778583"><ele>123.0</ele><time>2026-04-18T10:51:37.208Z</time></trkpt><trkpt lat="43.6199882" lon="11.4779309"><ele>123.0</ele><time>2026-04-18T10:51:38.208Z</time></trkpt><trkpt lat="43.6200278" lon="11.4780111"><ele>123.0</ele><time>2026-04-18T10:51:39.208Z</time></trkpt><trkpt lat="43.6200828" lon="11.4781056"><ele>123.0</ele><time>2026-04-18T10:51:40.207Z</time></trkpt><trkpt lat="43.6201531" lon="11.4782248"><ele>123.0</ele><time>2026-04-18T10:51:41.207Z</time></trkpt><trkpt lat="43.6202351" lon="11.4783599"><ele>123.0</ele><time>2026-04-18T10:51:42.208Z</time></trkpt><trkpt lat="43.6203247" lon="11.4785022"><ele>123.0</ele><time>2026-04-18T10:51:43.207Z</time></trkpt><trkpt lat="43.6204161" lon="11.4786618"><ele>122.66666666666666</ele><time>2026-04-18T10:51:44.208Z</time></trkpt><trkpt lat="43.6205105" lon="11.4788332"><ele>122.33333333333333</ele><time>2026-04-18T10:51:45.207Z</time></trkpt><trkpt lat="43.6206067" lon="11.4789988"><ele>122.0</ele><time>2026-04-18T10:51:46.208Z</time></trkpt><trkpt lat="43.6207048" lon="11.4791557"><ele>122.0</ele><time>2026-04-18T10:51:47.207Z</time></trkpt><trkpt lat="43.6208084" lon="11.4793074"><ele>122.0</ele><time>2026-04-18T10:51:48.208Z</time></trkpt><trkpt lat="43.6209239" lon="11.4794245"><ele>122.0</ele><time>2026-04-18T10:51:49.208Z</time></trkpt><trkpt lat="43.6210639" lon="11.4794983"><ele>122.0</ele><time>2026-04-18T10:51:50.207Z</time></trkpt><trkpt lat="43.6212147" lon="11.4795238"><ele>123.0</ele><time>2026-04-18T10:51:51.207Z</time></trkpt><trkpt lat="43.6213681" lon="11.4794898"><ele>124.0</ele><time>2026-04-18T10:51:52.208Z</time></trkpt><trkpt lat="43.621519" lon="11.4794068"><ele>125.0</ele><time>2026-04-18T10:51:53.208Z</time></trkpt><trkpt lat="43.6216566" lon="11.4793048"><ele>125.0</ele><time>2026-04-18T10:51:54.208Z</time></trkpt><trkpt lat="43.6217705" lon="11.4791918"><ele>125.0</ele><time>2026-04-18T10:51:55.208Z</time></trkpt><trkpt lat="43.6218742" lon="11.4790807"><ele>125.0</ele><time>2026-04-18T10:51:56.207Z</time></trkpt><trkpt lat="43.6219674" lon="11.4789937"><ele>125.0</ele><time>2026-04-18T10:51:57.208Z</time></trkpt><trkpt lat="43.622057" lon="11.4789124"><ele>124.4</ele><time>2026-04-18T10:51:58.207Z</time></trkpt><trkpt lat="43.622142" lon="11.4788489"><ele>123.8</ele><time>2026-04-18T10:51:59.207Z</time></trkpt><trkpt lat="43.62221" lon="11.478815"><ele>123.19999999999999</ele><time>2026-04-18T10:52:00.208Z</time></trkpt><trkpt lat="43.6223241" lon="11.478794"><ele>122.6</ele><time>2026-04-18T10:52:02.207Z</time></trkpt><trkpt lat="43.6224076" lon="11.4788808"><ele>122.0</ele><time>2026-04-18T10:52:04.208Z</time></trkpt><trkpt lat="43.6224607" lon="11.4789697"><ele>122.0</ele><time>2026-04-18T10:52:05.208Z</time></trkpt><trkpt lat="43.6225258" lon="11.4790801"><ele>122.0</ele><time>2026-04-18T10:52:06.208Z</time></trkpt><trkpt lat="43.6225962" lon="11.479197"><ele>122.0</ele><time>2026-04-18T10:52:07.208Z</time></trkpt><trkpt lat="43.6226678" lon="11.4793201"><ele>122.0</ele><time>2026-04-18T10:52:08.208Z</time></trkpt><trkpt lat="43.6227528" lon="11.4794573"><ele>121.5</ele><time>2026-04-18T10:52:09.207Z</time></trkpt><trkpt lat="43.6228363" lon="11.4795974"><ele>121.0</ele><time>2026-04-18T10:52:10.207Z</time></trkpt><trkpt lat="43.622921" lon="11.4797295"><ele>120.5</ele><time>2026-04-18T10:52:11.208Z</time></trkpt><trkpt lat="43.6230011" lon="11.4798676"><ele>120.0</ele><time>2026-04-18T10:52:12.208Z</time></trkpt><trkpt lat="43.623073" lon="11.4799978"><ele>120.0</ele><time>2026-04-18T10:52:13.208Z</time></trkpt><trkpt lat="43.6231515" lon="11.4801299"><ele>120.0</ele><time>2026-04-18T10:52:14.207Z</time></trkpt><trkpt lat="43.6232316" lon="11.4802613"><ele>120.0</ele><time>2026-04-18T10:52:15.207Z</time></trkpt><trkpt lat="43.623304" lon="11.4803926"><ele>120.0</ele><time>2026-04-18T10:52:16.208Z</time></trkpt><trkpt lat="43.6233816" lon="11.4805251"><ele>120.6</ele><time>2026-04-18T10:52:17.208Z</time></trkpt><trkpt lat="43.6234568" lon="11.4806467"><ele>121.2</ele><time>2026-04-18T10:52:18.208Z</time></trkpt><trkpt lat="43.623524" lon="11.4807631"><ele>121.80000000000001</ele><time>2026-04-18T10:52:19.208Z</time></trkpt><trkpt lat="43.6235952" lon="11.4808835"><ele>122.4</ele><time>2026-04-18T10:52:20.208Z</time></trkpt><trkpt lat="43.6236652" lon="11.4809976"><ele>123.0</ele><time>2026-04-18T10:52:21.208Z</time></trkpt><trkpt lat="43.6237275" lon="11.48111"><ele>123.5</ele><time>2026-04-18T10:52:22.208Z</time></trkpt><trkpt lat="43.6237838" lon="11.4812035"><ele>124.0</ele><time>2026-04-18T10:52:23.208Z</time></trkpt><trkpt lat="43.6238347" lon="11.4813007"><ele>124.5</ele><time>2026-04-18T10:52:24.208Z</time></trkpt><trkpt lat="43.623877" lon="11.4813964"><ele>125.0</ele><time>2026-04-18T10:52:25.207Z</time></trkpt><trkpt lat="43.623909" lon="11.4814878"><ele>125.5</ele><time>2026-04-18T10:52:26.207Z</time></trkpt><trkpt lat="43.6239328" lon="11.4815804"><ele>126.0</ele><time>2026-04-18T10:52:27.208Z</time></trkpt><trkpt lat="43.6239373" lon="11.4816834"><ele>126.4</ele><time>2026-04-18T10:52:28.208Z</time></trkpt><trkpt lat="43.6239492" lon="11.481784"><ele>126.8</ele><time>2026-04-18T10:52:29.208Z</time></trkpt><trkpt lat="43.6240341" lon="11.481906"><ele>127.20000000000002</ele><time>2026-04-18T10:52:31.208Z</time></trkpt><trkpt lat="43.6241626" lon="11.4818797"><ele>127.60000000000001</ele><time>2026-04-18T10:52:33.208Z</time></trkpt><trkpt lat="43.6242224" lon="11.4817991"><ele>128.0</ele><time>2026-04-18T10:52:34.207Z</time></trkpt><trkpt lat="43.6242797" lon="11.4816828"><ele>128.0</ele><time>2026-04-18T10:52:35.208Z</time></trkpt><trkpt lat="43.6243463" lon="11.4815576"><ele>128.0</ele><time>2026-04-18T10:52:36.208Z</time></trkpt><trkpt lat="43.6244345" lon="11.481433"><ele>128.0</ele><time>2026-04-18T10:52:37.208Z</time></trkpt><trkpt lat="43.6245231" lon="11.4813078"><ele>128.0</ele><time>2026-04-18T10:52:38.208Z</time></trkpt><trkpt lat="43.6246104" lon="11.4811828"><ele>127.0</ele><time>2026-04-18T10:52:39.208Z</time></trkpt><trkpt lat="43.6246993" lon="11.4810483"><ele>126.0</ele><time>2026-04-18T10:52:40.208Z</time></trkpt><trkpt lat="43.6247962" lon="11.4809163"><ele>125.0</ele><time>2026-04-18T10:52:41.208Z</time></trkpt><trkpt lat="43.6248978" lon="11.4807758"><ele>124.0</ele><time>2026-04-18T10:52:42.207Z</time></trkpt><trkpt lat="43.6249987" lon="11.4806455"><ele>124.0</ele><time>2026-04-18T10:52:43.208Z</time></trkpt><trkpt lat="43.6251177" lon="11.4805274"><ele>124.0</ele><time>2026-04-18T10:52:44.208Z</time></trkpt><trkpt lat="43.6252554" lon="11.4804328"><ele>124.0</ele><time>2026-04-18T10:52:45.208Z</time></trkpt><trkpt lat="43.6254135" lon="11.4803472"><ele>124.66666666666667</ele><time>2026-04-18T10:52:46.208Z</time></trkpt><trkpt lat="43.6255761" lon="11.4802507"><ele>125.33333333333334</ele><time>2026-04-18T10:52:47.208Z</time></trkpt><trkpt lat="43.6257457" lon="11.480136"><ele>126.0</ele><time>2026-04-18T10:52:48.208Z</time></trkpt><trkpt lat="43.6259145" lon="11.4799975"><ele>126.0</ele><time>2026-04-18T10:52:49.208Z</time></trkpt><trkpt lat="43.6260771" lon="11.4798279"><ele>126.0</ele><time>2026-04-18T10:52:50.208Z</time></trkpt><trkpt lat="43.6262338" lon="11.4796511"><ele>126.0</ele><time>2026-04-18T10:52:51.207Z</time></trkpt><trkpt lat="43.6263941" lon="11.4794705"><ele>125.66666666666666</ele><time>2026-04-18T10:52:52.208Z</time></trkpt><trkpt lat="43.6265587" lon="11.479284"><ele>125.33333333333333</ele><time>2026-04-18T10:52:53.207Z</time></trkpt><trkpt lat="43.6267323" lon="11.4790946"><ele>125.0</ele><time>2026-04-18T10:52:54.207Z</time></trkpt><trkpt lat="43.6269013" lon="11.478914"><ele>124.66666666666666</ele><time>2026-04-18T10:52:55.208Z</time></trkpt><trkpt lat="43.6270687" lon="11.4787502"><ele>124.33333333333334</ele><time>2026-04-18T10:52:56.208Z</time></trkpt><trkpt lat="43.6272393" lon="11.4786217"><ele>124.0</ele><time>2026-04-18T10:52:57.208Z</time></trkpt><trkpt lat="43.6274058" lon="11.4785195"><ele>124.0</ele><time>2026-04-18T10:52:58.208Z</time></trkpt><trkpt lat="43.627557" lon="11.4784494"><ele>124.0</ele><time>2026-04-18T10:52:59.208Z</time></trkpt><trkpt lat="43.6276844" lon="11.4784028"><ele>124.0</ele><time>2026-04-18T10:53:00.208Z</time></trkpt><trkpt lat="43.6277879" lon="11.4783819"><ele>124.0</ele><time>2026-04-18T10:53:01.208Z</time></trkpt><trkpt lat="43.6278791" lon="11.4784133"><ele>123.50000000000001</ele><time>2026-04-18T10:53:02.208Z</time></trkpt><trkpt lat="43.6279571" lon="11.4784803"><ele>123.0</ele><time>2026-04-18T10:53:03.207Z</time></trkpt><trkpt lat="43.628036" lon="11.4785306"><ele>122.5</ele><time>2026-04-18T10:53:04.208Z</time></trkpt><trkpt lat="43.6281164" lon="11.4785258"><ele>122.0</ele><time>2026-04-18T10:53:05.207Z</time></trkpt><trkpt lat="43.6281931" lon="11.4784734"><ele>121.50000000000001</ele><time>2026-04-18T10:53:06.208Z</time></trkpt><trkpt lat="43.628265" lon="11.4783796"><ele>121.0</ele><time>2026-04-18T10:53:07.207Z</time></trkpt><trkpt lat="43.6283333" lon="11.4782503"><ele>121.0</ele><time>2026-04-18T10:53:08.207Z</time></trkpt><trkpt lat="43.6284065" lon="11.4781045"><ele>121.0</ele><time>2026-04-18T10:53:09.208Z</time></trkpt><trkpt lat="43.6284895" lon="11.4779566"><ele>121.0</ele><time>2026-04-18T10:53:10.208Z</time></trkpt><trkpt lat="43.6285778" lon="11.4778039"><ele>121.0</ele><time>2026-04-18T10:53:11.208Z</time></trkpt><trkpt lat="43.6286652" lon="11.4776466"><ele>121.75</ele><time>2026-04-18T10:53:12.207Z</time></trkpt><trkpt lat="43.6287497" lon="11.4774909"><ele>122.5</ele><time>2026-04-18T10:53:13.207Z</time></trkpt><trkpt lat="43.6288406" lon="11.4773244"><ele>123.25</ele><time>2026-04-18T10:53:14.208Z</time></trkpt><trkpt lat="43.6289344" lon="11.4771602"><ele>124.0</ele><time>2026-04-18T10:53:15.208Z</time></trkpt><trkpt lat="43.6290399" lon="11.4770136"><ele>124.0</ele><time>2026-04-18T10:53:16.207Z</time></trkpt><trkpt lat="43.6291693" lon="11.4768844"><ele>124.0</ele><time>2026-04-18T10:53:17.208Z</time></trkpt><trkpt lat="43.6293217" lon="11.4767644"><ele>124.0</ele><time>2026-04-18T10:53:18.207Z</time></trkpt><trkpt lat="43.6294954" lon="11.4766628"><ele>125.0</ele><time>2026-04-18T10:53:19.208Z</time></trkpt><trkpt lat="43.6296663" lon="11.4765661"><ele>126.0</ele><time>2026-04-18T10:53:20.208Z</time></trkpt><trkpt lat="43.6298425" lon="11.4764837"><ele>127.0</ele><time>2026-04-18T10:53:21.208Z</time></trkpt><trkpt lat="43.6300138" lon="11.4764018"><ele>127.0</ele><time>2026-04-18T10:53:22.208Z</time></trkpt><trkpt lat="43.6301833" lon="11.4763223"><ele>127.0</ele><time>2026-04-18T10:53:23.208Z</time></trkpt><trkpt lat="43.6303499" lon="11.4762447"><ele>127.0</ele><time>2026-04-18T10:53:24.208Z</time></trkpt><trkpt lat="43.6305056" lon="11.4761668"><ele>126.0</ele><time>2026-04-18T10:53:25.207Z</time></trkpt><trkpt lat="43.6306474" lon="11.4760868"><ele>125.0</ele><time>2026-04-18T10:53:26.208Z</time></trkpt><trkpt lat="43.6307815" lon="11.4759981"><ele>124.0</ele><time>2026-04-18T10:53:27.207Z</time></trkpt><trkpt lat="43.6309182" lon="11.4758998"><ele>124.0</ele><time>2026-04-18T10:53:28.208Z</time></trkpt><trkpt lat="43.6310495" lon="11.4757882"><ele>124.0</ele><time>2026-04-18T10:53:29.208Z</time></trkpt><trkpt lat="43.6311768" lon="11.4756718"><ele>124.0</ele><time>2026-04-18T10:53:30.208Z</time></trkpt><trkpt lat="43.6313032" lon="11.4755533"><ele>123.66666666666667</ele><time>2026-04-18T10:53:31.208Z</time></trkpt><trkpt lat="43.6314347" lon="11.4754254"><ele>123.33333333333334</ele><time>2026-04-18T10:53:32.208Z</time></trkpt><trkpt lat="43.6315591" lon="11.4752797"><ele>123.0</ele><time>2026-04-18T10:53:33.207Z</time></trkpt><trkpt lat="43.6316875" lon="11.4751036"><ele>123.0</ele><time>2026-04-18T10:53:34.207Z</time></trkpt><trkpt lat="43.6318191" lon="11.4749146"><ele>123.0</ele><time>2026-04-18T10:53:35.208Z</time></trkpt><trkpt lat="43.6319675" lon="11.4747109"><ele>123.0</ele><time>2026-04-18T10:53:36.207Z</time></trkpt><trkpt lat="43.6321139" lon="11.4745138"><ele>123.0</ele><time>2026-04-18T10:53:37.208Z</time></trkpt><trkpt lat="43.6322657" lon="11.474298"><ele>123.0</ele><time>2026-04-18T10:53:38.207Z</time></trkpt><trkpt lat="43.6324168" lon="11.4740788"><ele>123.0</ele><time>2026-04-18T10:53:39.207Z</time></trkpt><trkpt lat="43.6325714" lon="11.4738468"><ele>122.66666666666666</ele><time>2026-04-18T10:53:40.208Z</time></trkpt><trkpt lat="43.6327262" lon="11.4736191"><ele>122.33333333333333</ele><time>2026-04-18T10:53:41.208Z</time></trkpt><trkpt lat="43.6328684" lon="11.4733958"><ele>122.0</ele><time>2026-04-18T10:53:42.207Z</time></trkpt><trkpt lat="43.6330085" lon="11.4731802"><ele>122.33333333333333</ele><time>2026-04-18T10:53:43.208Z</time></trkpt><trkpt lat="43.6331588" lon="11.4729585"><ele>122.66666666666666</ele><time>2026-04-18T10:53:44.208Z</time></trkpt><trkpt lat="43.6333082" lon="11.4727269"><ele>123.0</ele><time>2026-04-18T10:53:45.208Z</time></trkpt><trkpt lat="43.633457" lon="11.4724925"><ele>123.0</ele><time>2026-04-18T10:53:46.208Z</time></trkpt><trkpt lat="43.6336097" lon="11.4722498"><ele>123.0</ele><time>2026-04-18T10:53:47.208Z</time></trkpt><trkpt lat="43.6337542" lon="11.4720312"><ele>123.0</ele><time>2026-04-18T10:53:48.207Z</time></trkpt><trkpt lat="43.6338727" lon="11.471849"><ele>123.0</ele><time>2026-04-18T10:53:49.207Z</time></trkpt><trkpt lat="43.6339612" lon="11.4717151"><ele>123.00000000000001</ele><time>2026-04-18T10:53:50.208Z</time></trkpt><trkpt lat="43.6340238" lon="11.4716174"><ele>123.00000000000001</ele><time>2026-04-18T10:53:51.208Z</time></trkpt><trkpt lat="43.6340877" lon="11.4715244"><ele>123.0</ele><time>2026-04-18T10:53:52.207Z</time></trkpt><trkpt lat="43.6341576" lon="11.471417"><ele>123.0</ele><time>2026-04-18T10:53:53.208Z</time></trkpt><trkpt lat="43.6342316" lon="11.4713014"><ele>123.25</ele><time>2026-04-18T10:53:54.207Z</time></trkpt><trkpt lat="43.6343226" lon="11.4711715"><ele>123.5</ele><time>2026-04-18T10:53:55.208Z</time></trkpt><trkpt lat="43.6344261" lon="11.4710219"><ele>123.75</ele><time>2026-04-18T10:53:56.208Z</time></trkpt><trkpt lat="43.6345384" lon="11.4708642"><ele>124.0</ele><time>2026-04-18T10:53:57.207Z</time></trkpt><trkpt lat="43.6346649" lon="11.4706997"><ele>123.33333333333334</ele><time>2026-04-18T10:53:58.208Z</time></trkpt><trkpt lat="43.6348024" lon="11.4705321"><ele>122.66666666666666</ele><time>2026-04-18T10:53:59.208Z</time></trkpt><trkpt lat="43.6349487" lon="11.470362"><ele>122.0</ele><time>2026-04-18T10:54:00.208Z</time></trkpt><trkpt lat="43.6351054" lon="11.4702074"><ele>122.0</ele><time>2026-04-18T10:54:01.208Z</time></trkpt><trkpt lat="43.635272" lon="11.4700665"><ele>122.0</ele><time>2026-04-18T10:54:02.208Z</time></trkpt><trkpt lat="43.6354489" lon="11.4699271"><ele>122.0</ele><time>2026-04-18T10:54:03.208Z</time></trkpt><trkpt lat="43.6356285" lon="11.4698051"><ele>122.33333333333333</ele><time>2026-04-18T10:54:04.208Z</time></trkpt><trkpt lat="43.6358001" lon="11.4697007"><ele>122.66666666666666</ele><time>2026-04-18T10:54:05.208Z</time></trkpt><trkpt lat="43.6359619" lon="11.4696075"><ele>123.0</ele><time>2026-04-18T10:54:06.207Z</time></trkpt><trkpt lat="43.6361243" lon="11.469522"><ele>123.0</ele><time>2026-04-18T10:54:07.207Z</time></trkpt><trkpt lat="43.6362919" lon="11.4694439"><ele>123.0</ele><time>2026-04-18T10:54:08.207Z</time></trkpt><trkpt lat="43.6364647" lon="11.4693672"><ele>123.0</ele><time>2026-04-18T10:54:09.207Z</time></trkpt><trkpt lat="43.6366426" lon="11.4692972"><ele>123.0</ele><time>2026-04-18T10:54:10.208Z</time></trkpt><trkpt lat="43.6368255" lon="11.4692241"><ele>123.0</ele><time>2026-04-18T10:54:11.208Z</time></trkpt><trkpt lat="43.637017" lon="11.4691529"><ele>123.0</ele><time>2026-04-18T10:54:12.208Z</time></trkpt><trkpt lat="43.6372196" lon="11.4690792"><ele>124.0</ele><time>2026-04-18T10:54:13.208Z</time></trkpt><trkpt lat="43.6374253" lon="11.4689981"><ele>125.0</ele><time>2026-04-18T10:54:14.208Z</time></trkpt><trkpt lat="43.6376358" lon="11.4689015"><ele>126.0</ele><time>2026-04-18T10:54:15.208Z</time></trkpt><trkpt lat="43.637852" lon="11.4688035"><ele>125.0</ele><time>2026-04-18T10:54:16.207Z</time></trkpt><trkpt lat="43.6380667" lon="11.4686929"><ele>124.0</ele><time>2026-04-18T10:54:17.207Z</time></trkpt><trkpt lat="43.638277" lon="11.4685726"><ele>124.0</ele><time>2026-04-18T10:54:18.208Z</time></trkpt><trkpt lat="43.638484" lon="11.4684452"><ele>124.0</ele><time>2026-04-18T10:54:19.208Z</time></trkpt><trkpt lat="43.6386793" lon="11.4683142"><ele>124.0</ele><time>2026-04-18T10:54:20.208Z</time></trkpt><trkpt lat="43.6388641" lon="11.4681847"><ele>124.0</ele><time>2026-04-18T10:54:21.208Z</time></trkpt><trkpt lat="43.6390402" lon="11.4680583"><ele>124.0</ele><time>2026-04-18T10:54:22.208Z</time></trkpt><trkpt lat="43.6392088" lon="11.467933"><ele>124.0</ele><time>2026-04-18T10:54:23.208Z</time></trkpt><trkpt lat="43.6393673" lon="11.4678092"><ele>123.66666666666667</ele><time>2026-04-18T10:54:24.208Z</time></trkpt><trkpt lat="43.639521" lon="11.4677008"><ele>123.33333333333334</ele><time>2026-04-18T10:54:25.207Z</time></trkpt><trkpt lat="43.6396757" lon="11.467585"><ele>123.0</ele><time>2026-04-18T10:54:26.208Z</time></trkpt><trkpt lat="43.6398324" lon="11.467472"><ele>123.0</ele><time>2026-04-18T10:54:27.208Z</time></trkpt><trkpt lat="43.6399942" lon="11.4673491"><ele>123.0</ele><time>2026-04-18T10:54:28.208Z</time></trkpt><trkpt lat="43.6401606" lon="11.4672224"><ele>123.0</ele><time>2026-04-18T10:54:29.208Z</time></trkpt><trkpt lat="43.6403284" lon="11.4670928"><ele>123.33333333333334</ele><time>2026-04-18T10:54:30.208Z</time></trkpt><trkpt lat="43.6404916" lon="11.4669766"><ele>123.66666666666667</ele><time>2026-04-18T10:54:31.208Z</time></trkpt><trkpt lat="43.6406441" lon="11.4668823"><ele>124.0</ele><time>2026-04-18T10:54:32.208Z</time></trkpt><trkpt lat="43.6407856" lon="11.4668011"><ele>124.0</ele><time>2026-04-18T10:54:33.207Z</time></trkpt><trkpt lat="43.6409044" lon="11.4667286"><ele>124.0</ele><time>2026-04-18T10:54:34.207Z</time></trkpt><trkpt lat="43.6410041" lon="11.4666719"><ele>124.0</ele><time>2026-04-18T10:54:35.208Z</time></trkpt><trkpt lat="43.6410994" lon="11.4666316"><ele>124.0</ele><time>2026-04-18T10:54:36.208Z</time></trkpt><trkpt lat="43.6411973" lon="11.4665856"><ele>124.0</ele><time>2026-04-18T10:54:37.208Z</time></trkpt><trkpt lat="43.6413067" lon="11.4665378"><ele>124.75</ele><time>2026-04-18T10:54:38.208Z</time></trkpt><trkpt lat="43.6414275" lon="11.4664825"><ele>125.5</ele><time>2026-04-18T10:54:39.208Z</time></trkpt><trkpt lat="43.6415535" lon="11.4664293"><ele>126.25</ele><time>2026-04-18T10:54:40.208Z</time></trkpt><trkpt lat="43.6416852" lon="11.4663705"><ele>127.0</ele><time>2026-04-18T10:54:41.208Z</time></trkpt><trkpt lat="43.6418185" lon="11.4663012"><ele>126.33333333333334</ele><time>2026-04-18T10:54:42.208Z</time></trkpt><trkpt lat="43.6419606" lon="11.4662575"><ele>125.66666666666666</ele><time>2026-04-18T10:54:43.208Z</time></trkpt><trkpt lat="43.6421142" lon="11.4662081"><ele>125.0</ele><time>2026-04-18T10:54:44.208Z</time></trkpt><trkpt lat="43.6422793" lon="11.4661698"><ele>125.0</ele><time>2026-04-18T10:54:45.207Z</time></trkpt><trkpt lat="43.6424506" lon="11.4661383"><ele>125.0</ele><time>2026-04-18T10:54:46.207Z</time></trkpt><trkpt lat="43.6426211" lon="11.4661112"><ele>125.0</ele><time>2026-04-18T10:54:47.208Z</time></trkpt><trkpt lat="43.6428063" lon="11.466099"><ele>125.33333333333333</ele><time>2026-04-18T10:54:48.208Z</time></trkpt><trkpt lat="43.6430038" lon="11.4660951"><ele>125.66666666666666</ele><time>2026-04-18T10:54:49.207Z</time></trkpt><trkpt lat="43.6432113" lon="11.4661017"><ele>126.0</ele><time>2026-04-18T10:54:50.208Z</time></trkpt><trkpt lat="43.6434158" lon="11.4661039"><ele>126.0</ele><time>2026-04-18T10:54:51.208Z</time></trkpt><trkpt lat="43.6436225" lon="11.4660925"><ele>126.0</ele><time>2026-04-18T10:54:52.207Z</time></trkpt><trkpt lat="43.6438359" lon="11.4660938"><ele>126.0</ele><time>2026-04-18T10:54:53.208Z</time></trkpt><trkpt lat="43.6440535" lon="11.4660993"><ele>126.0</ele><time>2026-04-18T10:54:54.207Z</time></trkpt><trkpt lat="43.644278" lon="11.4661065"><ele>126.0</ele><time>2026-04-18T10:54:55.208Z</time></trkpt><trkpt lat="43.6445061" lon="11.4661118"><ele>126.0</ele><time>2026-04-18T10:54:56.207Z</time></trkpt><trkpt lat="43.644742" lon="11.4661135"><ele>126.0</ele><time>2026-04-18T10:54:57.208Z</time></trkpt><trkpt lat="43.6449701" lon="11.4661174"><ele>126.0</ele><time>2026-04-18T10:54:58.207Z</time></trkpt><trkpt lat="43.6451887" lon="11.4661183"><ele>126.0</ele><time>2026-04-18T10:54:59.208Z</time></trkpt><trkpt lat="43.6454008" lon="11.4661124"><ele>126.0</ele><time>2026-04-18T10:55:00.208Z</time></trkpt><trkpt lat="43.6456195" lon="11.4661074"><ele>126.33333333333334</ele><time>2026-04-18T10:55:01.207Z</time></trkpt><trkpt lat="43.6458416" lon="11.4661095"><ele>126.66666666666667</ele><time>2026-04-18T10:55:02.208Z</time></trkpt><trkpt lat="43.6460674" lon="11.4661082"><ele>127.0</ele><time>2026-04-18T10:55:03.208Z</time></trkpt><trkpt lat="43.6462993" lon="11.4661152"><ele>127.0</ele><time>2026-04-18T10:55:04.208Z</time></trkpt><trkpt lat="43.6465377" lon="11.4661178"><ele>127.0</ele><time>2026-04-18T10:55:05.207Z</time></trkpt><trkpt lat="43.6467745" lon="11.4661204"><ele>127.0</ele><time>2026-04-18T10:55:06.208Z</time></trkpt><trkpt lat="43.6470088" lon="11.4661222"><ele>127.0</ele><time>2026-04-18T10:55:07.208Z</time></trkpt><trkpt lat="43.6472516" lon="11.4661237"><ele>127.0</ele><time>2026-04-18T10:55:08.207Z</time></trkpt><trkpt lat="43.6474963" lon="11.4661282"><ele>127.0</ele><time>2026-04-18T10:55:09.208Z</time></trkpt><trkpt lat="43.6477267" lon="11.4661285"><ele>127.0</ele><time>2026-04-18T10:55:10.207Z</time></trkpt><trkpt lat="43.6479435" lon="11.4661273"><ele>127.0</ele><time>2026-04-18T10:55:11.208Z</time></trkpt><trkpt lat="43.6481634" lon="11.4661151"><ele>127.0</ele><time>2026-04-18T10:55:12.208Z</time></trkpt><trkpt lat="43.6483857" lon="11.46612"><ele>127.0</ele><time>2026-04-18T10:55:13.208Z</time></trkpt><trkpt lat="43.6485982" lon="11.4661226"><ele>127.0</ele><time>2026-04-18T10:55:14.207Z</time></trkpt><trkpt lat="43.648804" lon="11.4661266"><ele>127.0</ele><time>2026-04-18T10:55:15.207Z</time></trkpt><trkpt lat="43.6489982" lon="11.46613"><ele>127.66666666666667</ele><time>2026-04-18T10:55:16.208Z</time></trkpt><trkpt lat="43.6491798" lon="11.4661416"><ele>128.33333333333334</ele><time>2026-04-18T10:55:17.207Z</time></trkpt><trkpt lat="43.6493452" lon="11.4661726"><ele>129.0</ele><time>2026-04-18T10:55:18.207Z</time></trkpt><trkpt lat="43.6495115" lon="11.4662435"><ele>128.66666666666666</ele><time>2026-04-18T10:55:19.207Z</time></trkpt><trkpt lat="43.6496718" lon="11.4663607"><ele>128.33333333333331</ele><time>2026-04-18T10:55:20.208Z</time></trkpt><trkpt lat="43.6498278" lon="11.4665131"><ele>128.0</ele><time>2026-04-18T10:55:21.208Z</time></trkpt><trkpt lat="43.6499761" lon="11.4667017"><ele>128.0</ele><time>2026-04-18T10:55:22.208Z</time></trkpt><trkpt lat="43.6501223" lon="11.466894"><ele>128.0</ele><time>2026-04-18T10:55:23.207Z</time></trkpt><trkpt lat="43.6502637" lon="11.4670961"><ele>128.0</ele><time>2026-04-18T10:55:24.207Z</time></trkpt><trkpt lat="43.6504028" lon="11.4672992"><ele>131.0</ele><time>2026-04-18T10:55:25.208Z</time></trkpt><trkpt lat="43.6505453" lon="11.4674797"><ele>134.0</ele><time>2026-04-18T10:55:26.208Z</time></trkpt><trkpt lat="43.6506925" lon="11.4676254"><ele>137.0</ele><time>2026-04-18T10:55:27.208Z</time></trkpt><trkpt lat="43.6508571" lon="11.4677287"><ele>137.0</ele><time>2026-04-18T10:55:28.207Z</time></trkpt><trkpt lat="43.6510134" lon="11.4677898"><ele>137.0</ele><time>2026-04-18T10:55:29.208Z</time></trkpt><trkpt lat="43.6511509" lon="11.4678355"><ele>137.0</ele><time>2026-04-18T10:55:30.208Z</time></trkpt><trkpt lat="43.65128" lon="11.4678766"><ele>137.0</ele><time>2026-04-18T10:55:31.208Z</time></trkpt><trkpt lat="43.6513967" lon="11.4679371"><ele>138.2</ele><time>2026-04-18T10:55:32.208Z</time></trkpt><trkpt lat="43.6514991" lon="11.4680132"><ele>139.39999999999998</ele><time>2026-04-18T10:55:33.208Z</time></trkpt><trkpt lat="43.6515815" lon="11.4680919"><ele>140.60000000000002</ele><time>2026-04-18T10:55:34.207Z</time></trkpt><trkpt lat="43.6516541" lon="11.4681951"><ele>141.8</ele><time>2026-04-18T10:55:35.208Z</time></trkpt><trkpt lat="43.6517021" lon="11.4683405"><ele>143.0</ele><time>2026-04-18T10:55:36.207Z</time></trkpt><trkpt lat="43.6517217" lon="11.4685172"><ele>143.0</ele><time>2026-04-18T10:55:37.208Z</time></trkpt><trkpt lat="43.651732" lon="11.4687112"><ele>143.0</ele><time>2026-04-18T10:55:38.208Z</time></trkpt><trkpt lat="43.6517346" lon="11.4689341"><ele>143.0</ele><time>2026-04-18T10:55:39.208Z</time></trkpt><trkpt lat="43.651735" lon="11.4691626"><ele>143.0</ele><time>2026-04-18T10:55:40.207Z</time></trkpt><trkpt lat="43.6517453" lon="11.4693975"><ele>143.0</ele><time>2026-04-18T10:55:41.208Z</time></trkpt><trkpt lat="43.6517585" lon="11.4696446"><ele>143.0</ele><time>2026-04-18T10:55:42.208Z</time></trkpt><trkpt lat="43.6517834" lon="11.4699077"><ele>142.66666666666666</ele><time>2026-04-18T10:55:43.208Z</time></trkpt><trkpt lat="43.6518217" lon="11.4701724"><ele>142.33333333333334</ele><time>2026-04-18T10:55:44.208Z</time></trkpt><trkpt lat="43.6518769" lon="11.4704482"><ele>142.0</ele><time>2026-04-18T10:55:45.208Z</time></trkpt><trkpt lat="43.6519437" lon="11.4707179"><ele>142.66666666666669</ele><time>2026-04-18T10:55:46.207Z</time></trkpt><trkpt lat="43.6520158" lon="11.4709804"><ele>143.33333333333334</ele><time>2026-04-18T10:55:47.208Z</time></trkpt><trkpt lat="43.6520892" lon="11.4712406"><ele>144.0</ele><time>2026-04-18T10:55:48.207Z</time></trkpt><trkpt lat="43.6521706" lon="11.4714868"><ele>141.33333333333334</ele><time>2026-04-18T10:55:49.208Z</time></trkpt><trkpt lat="43.6522605" lon="11.4717268"><ele>138.66666666666669</ele><time>2026-04-18T10:55:50.208Z</time></trkpt><trkpt lat="43.6523665" lon="11.4719625"><ele>136.0</ele><time>2026-04-18T10:55:51.208Z</time></trkpt><trkpt lat="43.6524842" lon="11.4721985"><ele>135.66666666666669</ele><time>2026-04-18T10:55:52.207Z</time></trkpt><trkpt lat="43.6526143" lon="11.4724351"><ele>135.33333333333334</ele><time>2026-04-18T10:55:53.208Z</time></trkpt><trkpt lat="43.6527448" lon="11.4726788"><ele>135.0</ele><time>2026-04-18T10:55:54.207Z</time></trkpt><trkpt lat="43.6528809" lon="11.4729286"><ele>133.0</ele><time>2026-04-18T10:55:55.208Z</time></trkpt><trkpt lat="43.6530201" lon="11.4731779"><ele>131.0</ele><time>2026-04-18T10:55:56.207Z</time></trkpt><trkpt lat="43.653168" lon="11.4734349"><ele>131.0</ele><time>2026-04-18T10:55:57.208Z</time></trkpt><trkpt lat="43.6533152" lon="11.4736923"><ele>131.0</ele><time>2026-04-18T10:55:58.208Z</time></trkpt><trkpt lat="43.6534636" lon="11.4739444"><ele>131.0</ele><time>2026-04-18T10:55:59.207Z</time></trkpt><trkpt lat="43.6536133" lon="11.4742078"><ele>131.0</ele><time>2026-04-18T10:56:00.208Z</time></trkpt><trkpt lat="43.6537625" lon="11.4744676"><ele>132.5</ele><time>2026-04-18T10:56:01.208Z</time></trkpt><trkpt lat="43.6539115" lon="11.4747291"><ele>134.0</ele><time>2026-04-18T10:56:02.208Z</time></trkpt><trkpt lat="43.6540622" lon="11.4749914"><ele>134.0</ele><time>2026-04-18T10:56:03.207Z</time></trkpt><trkpt lat="43.6542106" lon="11.4752575"><ele>134.0</ele><time>2026-04-18T10:56:04.208Z</time></trkpt><trkpt lat="43.6543603" lon="11.4755184"><ele>134.0</ele><time>2026-04-18T10:56:05.207Z</time></trkpt><trkpt lat="43.6545069" lon="11.4757894"><ele>134.0</ele><time>2026-04-18T10:56:06.208Z</time></trkpt><trkpt lat="43.6546609" lon="11.4760643"><ele>132.5</ele><time>2026-04-18T10:56:07.208Z</time></trkpt><trkpt lat="43.6548189" lon="11.4763426"><ele>131.0</ele><time>2026-04-18T10:56:08.208Z</time></trkpt><trkpt lat="43.6549839" lon="11.4766275"><ele>131.0</ele><time>2026-04-18T10:56:09.207Z</time></trkpt><trkpt lat="43.6551391" lon="11.4769167"><ele>131.0</ele><time>2026-04-18T10:56:10.208Z</time></trkpt><trkpt lat="43.6552847" lon="11.4772096"><ele>131.5</ele><time>2026-04-18T10:56:11.208Z</time></trkpt><trkpt lat="43.6554198" lon="11.4775155"><ele>132.0</ele><time>2026-04-18T10:56:12.207Z</time></trkpt><trkpt lat="43.6555387" lon="11.4778302"><ele>132.0</ele><time>2026-04-18T10:56:13.208Z</time></trkpt><trkpt lat="43.655643" lon="11.4781541"><ele>132.0</ele><time>2026-04-18T10:56:14.207Z</time></trkpt><trkpt lat="43.6557425" lon="11.4784844"><ele>133.0</ele><time>2026-04-18T10:56:15.208Z</time></trkpt><trkpt lat="43.6558444" lon="11.4787939"><ele>134.0</ele><time>2026-04-18T10:56:16.208Z</time></trkpt><trkpt lat="43.6559397" lon="11.4790911"><ele>134.0</ele><time>2026-04-18T10:56:17.208Z</time></trkpt><trkpt lat="43.6560317" lon="11.4793726"><ele>134.0</ele><time>2026-04-18T10:56:18.208Z</time></trkpt><trkpt lat="43.6561201" lon="11.4796423"><ele>134.0</ele><time>2026-04-18T10:56:19.208Z</time></trkpt><trkpt lat="43.6562067" lon="11.4799028"><ele>135.66666666666666</ele><time>2026-04-18T10:56:20.208Z</time></trkpt><trkpt lat="43.656288" lon="11.480171"><ele>137.33333333333334</ele><time>2026-04-18T10:56:21.208Z</time></trkpt><trkpt lat="43.6563672" lon="11.4804258"><ele>139.0</ele><time>2026-04-18T10:56:22.208Z</time></trkpt><trkpt lat="43.6564383" lon="11.480659"><ele>139.0</ele><time>2026-04-18T10:56:23.207Z</time></trkpt><trkpt lat="43.6565059" lon="11.4808862"><ele>139.0</ele><time>2026-04-18T10:56:24.208Z</time></trkpt><trkpt lat="43.6565618" lon="11.4810965"><ele>139.0</ele><time>2026-04-18T10:56:25.207Z</time></trkpt><trkpt lat="43.6566056" lon="11.481288"><ele>138.2</ele><time>2026-04-18T10:56:26.208Z</time></trkpt><trkpt lat="43.6566438" lon="11.4814594"><ele>137.4</ele><time>2026-04-18T10:56:27.208Z</time></trkpt><trkpt lat="43.6566758" lon="11.4816173"><ele>136.6</ele><time>2026-04-18T10:56:28.207Z</time></trkpt><trkpt lat="43.6567021" lon="11.4817564"><ele>135.8</ele><time>2026-04-18T10:56:29.207Z</time></trkpt><trkpt lat="43.6567308" lon="11.4818802"><ele>135.0</ele><time>2026-04-18T10:56:30.207Z</time></trkpt><trkpt lat="43.6567515" lon="11.4819906"><ele>134.83333333333334</ele><time>2026-04-18T10:56:31.208Z</time></trkpt><trkpt lat="43.6567684" lon="11.4821043"><ele>134.66666666666666</ele><time>2026-04-18T10:56:32.208Z</time></trkpt><trkpt lat="43.6567866" lon="11.482219"><ele>134.5</ele><time>2026-04-18T10:56:33.208Z</time></trkpt><trkpt lat="43.6568089" lon="11.482341"><ele>134.33333333333331</ele><time>2026-04-18T10:56:34.208Z</time></trkpt><trkpt lat="43.6568359" lon="11.4824652"><ele>134.16666666666666</ele><time>2026-04-18T10:56:35.208Z</time></trkpt><trkpt lat="43.6568627" lon="11.4825918"><ele>134.0</ele><time>2026-04-18T10:56:36.208Z</time></trkpt><trkpt lat="43.6568882" lon="11.4827151"><ele>134.0</ele><time>2026-04-18T10:56:37.208Z</time></trkpt><trkpt lat="43.6569164" lon="11.4828395"><ele>134.0</ele><time>2026-04-18T10:56:38.208Z</time></trkpt><trkpt lat="43.6569448" lon="11.4829696"><ele>134.0</ele><time>2026-04-18T10:56:39.207Z</time></trkpt><trkpt lat="43.6569766" lon="11.4831086"><ele>134.0</ele><time>2026-04-18T10:56:40.208Z</time></trkpt><trkpt lat="43.657004" lon="11.4832455"><ele>134.0</ele><time>2026-04-18T10:56:41.208Z</time></trkpt><trkpt lat="43.6570313" lon="11.4833893"><ele>135.0</ele><time>2026-04-18T10:56:42.208Z</time></trkpt><trkpt lat="43.6570553" lon="11.4835331"><ele>136.0</ele><time>2026-04-18T10:56:43.208Z</time></trkpt><trkpt lat="43.6570842" lon="11.48368"><ele>137.0</ele><time>2026-04-18T10:56:44.208Z</time></trkpt><trkpt lat="43.6571167" lon="11.4838281"><ele>138.0</ele><time>2026-04-18T10:56:45.208Z</time></trkpt><trkpt lat="43.6571555" lon="11.4839776"><ele>139.0</ele><time>2026-04-18T10:56:46.208Z</time></trkpt><trkpt lat="43.6572113" lon="11.4841209"><ele>139.0</ele><time>2026-04-18T10:56:47.208Z</time></trkpt><trkpt lat="43.6572805" lon="11.4842532"><ele>139.0</ele><time>2026-04-18T10:56:48.208Z</time></trkpt><trkpt lat="43.6573534" lon="11.4843713"><ele>139.0</ele><time>2026-04-18T10:56:49.208Z</time></trkpt><trkpt lat="43.6574312" lon="11.4844691"><ele>139.0</ele><time>2026-04-18T10:56:50.207Z</time></trkpt><trkpt lat="43.6575021" lon="11.4845611"><ele>139.0</ele><time>2026-04-18T10:56:51.208Z</time></trkpt><trkpt lat="43.6575685" lon="11.4846444"><ele>138.8</ele><time>2026-04-18T10:56:52.208Z</time></trkpt><trkpt lat="43.6576333" lon="11.4847278"><ele>138.60000000000002</ele><time>2026-04-18T10:56:53.208Z</time></trkpt><trkpt lat="43.6577" lon="11.4848173"><ele>138.4</ele><time>2026-04-18T10:56:54.208Z</time></trkpt><trkpt lat="43.6577666" lon="11.4848974"><ele>138.20000000000002</ele><time>2026-04-18T10:56:55.208Z</time></trkpt><trkpt lat="43.6578416" lon="11.4849821"><ele>138.0</ele><time>2026-04-18T10:56:56.208Z</time></trkpt><trkpt lat="43.6579104" lon="11.4850661"><ele>138.0</ele><time>2026-04-18T10:56:57.208Z</time></trkpt><trkpt lat="43.6579776" lon="11.485152"><ele>138.0</ele><time>2026-04-18T10:56:58.207Z</time></trkpt><trkpt lat="43.6580436" lon="11.4852391"><ele>138.0</ele><time>2026-04-18T10:56:59.207Z</time></trkpt><trkpt lat="43.6581114" lon="11.4853255"><ele>138.0</ele><time>2026-04-18T10:57:00.208Z</time></trkpt><trkpt lat="43.6581802" lon="11.485417"><ele>138.0</ele><time>2026-04-18T10:57:01.208Z</time></trkpt><trkpt lat="43.6582512" lon="11.4855107"><ele>138.0</ele><time>2026-04-18T10:57:02.208Z</time></trkpt><trkpt lat="43.6583234" lon="11.4856041"><ele>138.0</ele><time>2026-04-18T10:57:03.208Z</time></trkpt><trkpt lat="43.6584002" lon="11.4856956"><ele>138.0</ele><time>2026-04-18T10:57:04.207Z</time></trkpt><trkpt lat="43.6584762" lon="11.4857893"><ele>138.0</ele><time>2026-04-18T10:57:05.208Z</time></trkpt><trkpt lat="43.6585559" lon="11.4858937"><ele>138.0</ele><time>2026-04-18T10:57:06.208Z</time></trkpt><trkpt lat="43.6586318" lon="11.4859838"><ele>138.4</ele><time>2026-04-18T10:57:07.207Z</time></trkpt><trkpt lat="43.6587088" lon="11.4860726"><ele>138.8</ele><time>2026-04-18T10:57:08.207Z</time></trkpt><trkpt lat="43.6587879" lon="11.4861658"><ele>139.2</ele><time>2026-04-18T10:57:09.207Z</time></trkpt><trkpt lat="43.6588697" lon="11.4862625"><ele>139.6</ele><time>2026-04-18T10:57:10.208Z</time></trkpt><trkpt lat="43.6589534" lon="11.4863591"><ele>140.0</ele><time>2026-04-18T10:57:11.207Z</time></trkpt><trkpt lat="43.659036" lon="11.4864564"><ele>140.0</ele><time>2026-04-18T10:57:12.208Z</time></trkpt><trkpt lat="43.6591223" lon="11.4865566"><ele>140.0</ele><time>2026-04-18T10:57:13.208Z</time></trkpt><trkpt lat="43.6592109" lon="11.4866593"><ele>140.0</ele><time>2026-04-18T10:57:14.208Z</time></trkpt><trkpt lat="43.6593098" lon="11.4867682"><ele>140.0</ele><time>2026-04-18T10:57:15.208Z</time></trkpt><trkpt lat="43.6594054" lon="11.4868804"><ele>140.5</ele><time>2026-04-18T10:57:16.207Z</time></trkpt><trkpt lat="43.6594994" lon="11.4869927"><ele>141.0</ele><time>2026-04-18T10:57:17.207Z</time></trkpt><trkpt lat="43.659592" lon="11.4870982"><ele>141.5</ele><time>2026-04-18T10:57:18.207Z</time></trkpt><trkpt lat="43.6596826" lon="11.4872058"><ele>142.0</ele><time>2026-04-18T10:57:19.208Z</time></trkpt><trkpt lat="43.6597784" lon="11.4873177"><ele>142.0</ele><time>2026-04-18T10:57:20.207Z</time></trkpt><trkpt lat="43.6598831" lon="11.487443"><ele>142.0</ele><time>2026-04-18T10:57:21.208Z</time></trkpt><trkpt lat="43.6599928" lon="11.4875661"><ele>142.0</ele><time>2026-04-18T10:57:22.207Z</time></trkpt><trkpt lat="43.6601113" lon="11.487704"><ele>142.0</ele><time>2026-04-18T10:57:23.208Z</time></trkpt><trkpt lat="43.6602356" lon="11.4878444"><ele>142.66666666666669</ele><time>2026-04-18T10:57:24.208Z</time></trkpt><trkpt lat="43.6603608" lon="11.4879988"><ele>143.33333333333334</ele><time>2026-04-18T10:57:25.208Z</time></trkpt><trkpt lat="43.6604819" lon="11.4881541"><ele>144.0</ele><time>2026-04-18T10:57:26.207Z</time></trkpt><trkpt lat="43.6605954" lon="11.4883011"><ele>144.0</ele><time>2026-04-18T10:57:27.208Z</time></trkpt><trkpt lat="43.6607147" lon="11.488414"><ele>144.0</ele><time>2026-04-18T10:57:28.208Z</time></trkpt><trkpt lat="43.6608378" lon="11.4885025"><ele>144.0</ele><time>2026-04-18T10:57:29.208Z</time></trkpt><trkpt lat="43.6609804" lon="11.4885391"><ele>144.0</ele><time>2026-04-18T10:57:30.208Z</time></trkpt><trkpt lat="43.6611376" lon="11.4885453"><ele>144.66666666666666</ele><time>2026-04-18T10:57:31.207Z</time></trkpt><trkpt lat="43.6612932" lon="11.4885632"><ele>145.33333333333331</ele><time>2026-04-18T10:57:32.208Z</time></trkpt><trkpt lat="43.6614521" lon="11.4886231"><ele>146.0</ele><time>2026-04-18T10:57:33.207Z</time></trkpt><trkpt lat="43.6616062" lon="11.4887121"><ele>145.0</ele><time>2026-04-18T10:57:34.207Z</time></trkpt><trkpt lat="43.6617568" lon="11.4888382"><ele>144.0</ele><time>2026-04-18T10:57:35.208Z</time></trkpt><trkpt lat="43.6619002" lon="11.4889889"><ele>143.0</ele><time>2026-04-18T10:57:36.208Z</time></trkpt><trkpt lat="43.6620514" lon="11.4891824"><ele>143.0</ele><time>2026-04-18T10:57:37.207Z</time></trkpt><trkpt lat="43.6621995" lon="11.4893534"><ele>143.0</ele><time>2026-04-18T10:57:38.208Z</time></trkpt><trkpt lat="43.6623557" lon="11.4895119"><ele>143.0</ele><time>2026-04-18T10:57:39.208Z</time></trkpt><trkpt lat="43.6625278" lon="11.4896585"><ele>143.0</ele><time>2026-04-18T10:57:40.208Z</time></trkpt><trkpt lat="43.6627011" lon="11.4897647"><ele>143.0</ele><time>2026-04-18T10:57:41.208Z</time></trkpt><trkpt lat="43.6628636" lon="11.4898383"><ele>143.0</ele><time>2026-04-18T10:57:42.208Z</time></trkpt><trkpt lat="43.6630134" lon="11.4899165"><ele>143.0</ele><time>2026-04-18T10:57:43.208Z</time></trkpt><trkpt lat="43.6631641" lon="11.4900211"><ele>143.0</ele><time>2026-04-18T10:57:44.208Z</time></trkpt><trkpt lat="43.6633079" lon="11.4901536"><ele>143.0</ele><time>2026-04-18T10:57:45.208Z</time></trkpt><trkpt lat="43.6634457" lon="11.4903166"><ele>143.33333333333331</ele><time>2026-04-18T10:57:46.207Z</time></trkpt><trkpt lat="43.6635781" lon="11.490503"><ele>143.66666666666666</ele><time>2026-04-18T10:57:47.207Z</time></trkpt><trkpt lat="43.6637014" lon="11.4907067"><ele>144.0</ele><time>2026-04-18T10:57:48.207Z</time></trkpt><trkpt lat="43.6638237" lon="11.4909212"><ele>144.33333333333334</ele><time>2026-04-18T10:57:49.207Z</time></trkpt><trkpt lat="43.663946" lon="11.4911481"><ele>144.66666666666669</ele><time>2026-04-18T10:57:50.208Z</time></trkpt><trkpt lat="43.6640589" lon="11.4913588"><ele>145.0</ele><time>2026-04-18T10:57:51.208Z</time></trkpt><trkpt lat="43.6641664" lon="11.4915482"><ele>145.33333333333334</ele><time>2026-04-18T10:57:52.208Z</time></trkpt><trkpt lat="43.6642937" lon="11.4917043"><ele>145.66666666666666</ele><time>2026-04-18T10:57:53.207Z</time></trkpt><trkpt lat="43.6644303" lon="11.4918343"><ele>146.0</ele><time>2026-04-18T10:57:54.207Z</time></trkpt><trkpt lat="43.6646004" lon="11.4919072"><ele>146.33333333333331</ele><time>2026-04-18T10:57:55.207Z</time></trkpt><trkpt lat="43.6647793" lon="11.4919518"><ele>146.66666666666666</ele><time>2026-04-18T10:57:56.208Z</time></trkpt><trkpt lat="43.6649521" lon="11.4919638"><ele>147.0</ele><time>2026-04-18T10:57:57.207Z</time></trkpt><trkpt lat="43.6651128" lon="11.4920006"><ele>147.0</ele><time>2026-04-18T10:57:58.208Z</time></trkpt><trkpt lat="43.6652539" lon="11.4920805"><ele>147.0</ele><time>2026-04-18T10:57:59.208Z</time></trkpt><trkpt lat="43.6653762" lon="11.4921787"><ele>147.0</ele><time>2026-04-18T10:58:00.208Z</time></trkpt><trkpt lat="43.665487" lon="11.4923093"><ele>147.0</ele><time>2026-04-18T10:58:01.207Z</time></trkpt><trkpt lat="43.6655647" lon="11.4924643"><ele>147.4</ele><time>2026-04-18T10:58:02.207Z</time></trkpt><trkpt lat="43.6656184" lon="11.4926207"><ele>147.79999999999998</ele><time>2026-04-18T10:58:03.207Z</time></trkpt><trkpt lat="43.6656492" lon="11.4927722"><ele>148.2</ele><time>2026-04-18T10:58:04.207Z</time></trkpt><trkpt lat="43.6656686" lon="11.4928802"><ele>148.6</ele><time>2026-04-18T10:58:05.208Z</time></trkpt><trkpt lat="43.6657241" lon="11.4929613"><ele>149.0</ele><time>2026-04-18T10:58:07.207Z</time></trkpt><trkpt lat="43.6657889" lon="11.4929539"><ele>149.4</ele><time>2026-04-18T10:58:09.207Z</time></trkpt><trkpt lat="43.6658974" lon="11.4929423"><ele>149.8</ele><time>2026-04-18T10:58:11.207Z</time></trkpt><trkpt lat="43.6659782" lon="11.4929419"><ele>150.2</ele><time>2026-04-18T10:58:12.208Z</time></trkpt><trkpt lat="43.6660759" lon="11.4929385"><ele>150.6</ele><time>2026-04-18T10:58:13.207Z</time></trkpt><trkpt lat="43.6661875" lon="11.4929389"><ele>151.0</ele><time>2026-04-18T10:58:14.208Z</time></trkpt><trkpt lat="43.6663189" lon="11.4929364"><ele>151.33333333333334</ele><time>2026-04-18T10:58:15.207Z</time></trkpt><trkpt lat="43.6664588" lon="11.4929342"><ele>151.66666666666666</ele><time>2026-04-18T10:58:16.207Z</time></trkpt><trkpt lat="43.6666144" lon="11.4929375"><ele>152.0</ele><time>2026-04-18T10:58:17.207Z</time></trkpt><trkpt lat="43.6667751" lon="11.4929414"><ele>152.0</ele><time>2026-04-18T10:58:18.208Z</time></trkpt><trkpt lat="43.6669453" lon="11.4929574"><ele>152.0</ele><time>2026-04-18T10:58:19.208Z</time></trkpt><trkpt lat="43.6671093" lon="11.4930133"><ele>152.0</ele><time>2026-04-18T10:58:20.208Z</time></trkpt><trkpt lat="43.667257" lon="11.4931003"><ele>152.0</ele><time>2026-04-18T10:58:21.207Z</time></trkpt><trkpt lat="43.6673898" lon="11.4931964"><ele>152.0</ele><time>2026-04-18T10:58:22.208Z</time></trkpt><trkpt lat="43.6674992" lon="11.4933096"><ele>152.0</ele><time>2026-04-18T10:58:23.208Z</time></trkpt><trkpt lat="43.6675934" lon="11.4934373"><ele>152.0</ele><time>2026-04-18T10:58:24.207Z</time></trkpt><trkpt lat="43.667679" lon="11.4935843"><ele>152.0</ele><time>2026-04-18T10:58:25.208Z</time></trkpt><trkpt lat="43.667765" lon="11.4937511"><ele>152.0</ele><time>2026-04-18T10:58:26.208Z</time></trkpt><trkpt lat="43.6678653" lon="11.493908"><ele>152.0</ele><time>2026-04-18T10:58:27.207Z</time></trkpt><trkpt lat="43.6679678" lon="11.4940484"><ele>152.0</ele><time>2026-04-18T10:58:28.207Z</time></trkpt><trkpt lat="43.6680901" lon="11.4941599"><ele>153.0</ele><time>2026-04-18T10:58:29.208Z</time></trkpt><trkpt lat="43.6682076" lon="11.4942297"><ele>154.0</ele><time>2026-04-18T10:58:30.208Z</time></trkpt><trkpt lat="43.668322" lon="11.494251"><ele>155.0</ele><time>2026-04-18T10:58:31.208Z</time></trkpt><trkpt lat="43.6684348" lon="11.4942309"><ele>156.0</ele><time>2026-04-18T10:58:32.208Z</time></trkpt><trkpt lat="43.668547" lon="11.4941634"><ele>155.75</ele><time>2026-04-18T10:58:33.208Z</time></trkpt><trkpt lat="43.6686582" lon="11.4940695"><ele>155.5</ele><time>2026-04-18T10:58:34.208Z</time></trkpt><trkpt lat="43.6687802" lon="11.4939615"><ele>155.25</ele><time>2026-04-18T10:58:35.208Z</time></trkpt><trkpt lat="43.6689051" lon="11.4938412"><ele>155.0</ele><time>2026-04-18T10:58:36.208Z</time></trkpt><trkpt lat="43.6690376" lon="11.4937265"><ele>155.0</ele><time>2026-04-18T10:58:37.207Z</time></trkpt><trkpt lat="43.6691741" lon="11.4936413"><ele>155.0</ele><time>2026-04-18T10:58:38.207Z</time></trkpt><trkpt lat="43.6693093" lon="11.4935869"><ele>155.0</ele><time>2026-04-18T10:58:39.208Z</time></trkpt><trkpt lat="43.6694536" lon="11.4935547"><ele>155.0</ele><time>2026-04-18T10:58:40.208Z</time></trkpt><trkpt lat="43.669588" lon="11.4935436"><ele>155.25</ele><time>2026-04-18T10:58:41.208Z</time></trkpt><trkpt lat="43.669713" lon="11.4935482"><ele>155.5</ele><time>2026-04-18T10:58:42.208Z</time></trkpt><trkpt lat="43.6698421" lon="11.4935668"><ele>155.75</ele><time>2026-04-18T10:58:43.207Z</time></trkpt><trkpt lat="43.6699763" lon="11.4936192"><ele>156.0</ele><time>2026-04-18T10:58:44.208Z</time></trkpt><trkpt lat="43.6701004" lon="11.4936833"><ele>156.0</ele><time>2026-04-18T10:58:45.207Z</time></trkpt><trkpt lat="43.6702326" lon="11.4937398"><ele>156.0</ele><time>2026-04-18T10:58:46.207Z</time></trkpt><trkpt lat="43.6703726" lon="11.4937543"><ele>156.0</ele><time>2026-04-18T10:58:47.207Z</time></trkpt><trkpt lat="43.670529" lon="11.4937523"><ele>156.0</ele><time>2026-04-18T10:58:48.208Z</time></trkpt><trkpt lat="43.6706869" lon="11.4937485"><ele>156.0</ele><time>2026-04-18T10:58:49.207Z</time></trkpt><trkpt lat="43.670837" lon="11.4937418"><ele>156.0</ele><time>2026-04-18T10:58:50.207Z</time></trkpt><trkpt lat="43.6709765" lon="11.4937535"><ele>156.0</ele><time>2026-04-18T10:58:51.207Z</time></trkpt><trkpt lat="43.6711157" lon="11.4937895"><ele>156.0</ele><time>2026-04-18T10:58:52.208Z</time></trkpt><trkpt lat="43.671261" lon="11.4938422"><ele>156.66666666666666</ele><time>2026-04-18T10:58:53.207Z</time></trkpt><trkpt lat="43.6714125" lon="11.4939039"><ele>157.33333333333331</ele><time>2026-04-18T10:58:54.208Z</time></trkpt><trkpt lat="43.6715708" lon="11.49396"><ele>158.0</ele><time>2026-04-18T10:58:55.208Z</time></trkpt><trkpt lat="43.6717404" lon="11.4940189"><ele>158.0</ele><time>2026-04-18T10:58:56.208Z</time></trkpt><trkpt lat="43.6719168" lon="11.4940767"><ele>158.0</ele><time>2026-04-18T10:58:57.208Z</time></trkpt><trkpt lat="43.6720842" lon="11.4941652"><ele>158.0</ele><time>2026-04-18T10:58:58.208Z</time></trkpt><trkpt lat="43.6722675" lon="11.4942415"><ele>159.33333333333331</ele><time>2026-04-18T10:58:59.208Z</time></trkpt><trkpt lat="43.672443" lon="11.49433"><ele>160.66666666666666</ele><time>2026-04-18T10:59:00.207Z</time></trkpt><trkpt lat="43.6726116" lon="11.4943991"><ele>162.0</ele><time>2026-04-18T10:59:01.208Z</time></trkpt><trkpt lat="43.6727637" lon="11.4944763"><ele>162.66666666666666</ele><time>2026-04-18T10:59:02.207Z</time></trkpt><trkpt lat="43.6729048" lon="11.4945753"><ele>163.33333333333331</ele><time>2026-04-18T10:59:03.208Z</time></trkpt><trkpt lat="43.6730365" lon="11.4947133"><ele>164.0</ele><time>2026-04-18T10:59:04.208Z</time></trkpt><trkpt lat="43.6731433" lon="11.494862"><ele>164.0</ele><time>2026-04-18T10:59:05.208Z</time></trkpt><trkpt lat="43.6732436" lon="11.4949832"><ele>164.0</ele><time>2026-04-18T10:59:06.208Z</time></trkpt><trkpt lat="43.6733415" lon="11.4950788"><ele>164.0</ele><time>2026-04-18T10:59:07.208Z</time></trkpt><trkpt lat="43.6734598" lon="11.4951317"><ele>164.0</ele><time>2026-04-18T10:59:08.208Z</time></trkpt><trkpt lat="43.6735933" lon="11.4951582"><ele>164.33333333333331</ele><time>2026-04-18T10:59:09.207Z</time></trkpt><trkpt lat="43.6737354" lon="11.4951502"><ele>164.66666666666666</ele><time>2026-04-18T10:59:10.208Z</time></trkpt><trkpt lat="43.6738859" lon="11.4951141"><ele>165.0</ele><time>2026-04-18T10:59:11.208Z</time></trkpt><trkpt lat="43.6740497" lon="11.4950601"><ele>165.0</ele><time>2026-04-18T10:59:12.208Z</time></trkpt><trkpt lat="43.6742153" lon="11.4949966"><ele>165.0</ele><time>2026-04-18T10:59:13.208Z</time></trkpt><trkpt lat="43.6743741" lon="11.4949314"><ele>165.0</ele><time>2026-04-18T10:59:14.208Z</time></trkpt><trkpt lat="43.674526" lon="11.4948676"><ele>166.0</ele><time>2026-04-18T10:59:15.208Z</time></trkpt><trkpt lat="43.6746694" lon="11.4948034"><ele>167.0</ele><time>2026-04-18T10:59:16.207Z</time></trkpt><trkpt lat="43.674799" lon="11.4947485"><ele>168.0</ele><time>2026-04-18T10:59:17.208Z</time></trkpt><trkpt lat="43.6749237" lon="11.4947064"><ele>169.0</ele><time>2026-04-18T10:59:18.207Z</time></trkpt><trkpt lat="43.6750413" lon="11.4946926"><ele>169.0</ele><time>2026-04-18T10:59:19.208Z</time></trkpt><trkpt lat="43.6751672" lon="11.4947494"><ele>169.0</ele><time>2026-04-18T10:59:20.208Z</time></trkpt><trkpt lat="43.6752771" lon="11.4948575"><ele>169.0</ele><time>2026-04-18T10:59:21.208Z</time></trkpt><trkpt lat="43.6753839" lon="11.4950127"><ele>169.0</ele><time>2026-04-18T10:59:22.208Z</time></trkpt><trkpt lat="43.6754893" lon="11.495199"><ele>170.33333333333334</ele><time>2026-04-18T10:59:23.208Z</time></trkpt><trkpt lat="43.6755849" lon="11.4953939"><ele>171.66666666666666</ele><time>2026-04-18T10:59:24.208Z</time></trkpt><trkpt lat="43.675687" lon="11.4955929"><ele>173.0</ele><time>2026-04-18T10:59:25.207Z</time></trkpt><trkpt lat="43.6757966" lon="11.4958099"><ele>173.0</ele><time>2026-04-18T10:59:26.208Z</time></trkpt><trkpt lat="43.6759276" lon="11.4960227"><ele>173.0</ele><time>2026-04-18T10:59:27.208Z</time></trkpt><trkpt lat="43.6760573" lon="11.4962423"><ele>173.0</ele><time>2026-04-18T10:59:28.208Z</time></trkpt><trkpt lat="43.6761778" lon="11.4964415"><ele>173.33333333333331</ele><time>2026-04-18T10:59:29.207Z</time></trkpt><trkpt lat="43.6763023" lon="11.4966283"><ele>173.66666666666666</ele><time>2026-04-18T10:59:30.208Z</time></trkpt><trkpt lat="43.6764322" lon="11.4968111"><ele>174.0</ele><time>2026-04-18T10:59:31.207Z</time></trkpt><trkpt lat="43.6765692" lon="11.4969912"><ele>176.33333333333334</ele><time>2026-04-18T10:59:32.207Z</time></trkpt><trkpt lat="43.676714" lon="11.4971614"><ele>178.66666666666669</ele><time>2026-04-18T10:59:33.207Z</time></trkpt><trkpt lat="43.6768644" lon="11.4973254"><ele>181.0</ele><time>2026-04-18T10:59:34.208Z</time></trkpt><trkpt lat="43.6770146" lon="11.4974805"><ele>181.0</ele><time>2026-04-18T10:59:35.208Z</time></trkpt><trkpt lat="43.6771552" lon="11.4976264"><ele>181.0</ele><time>2026-04-18T10:59:36.208Z</time></trkpt><trkpt lat="43.6772866" lon="11.4977526"><ele>181.0</ele><time>2026-04-18T10:59:37.208Z</time></trkpt><trkpt lat="43.6774001" lon="11.4978718"><ele>182.20000000000002</ele><time>2026-04-18T10:59:38.208Z</time></trkpt><trkpt lat="43.6774966" lon="11.4979899"><ele>183.4</ele><time>2026-04-18T10:59:39.208Z</time></trkpt><trkpt lat="43.6775753" lon="11.498083"><ele>184.6</ele><time>2026-04-18T10:59:40.207Z</time></trkpt><trkpt lat="43.6776945" lon="11.4981052"><ele>185.8</ele><time>2026-04-18T10:59:42.208Z</time></trkpt><trkpt lat="43.6777592" lon="11.4980648"><ele>187.0</ele><time>2026-04-18T10:59:43.208Z</time></trkpt><trkpt lat="43.6778289" lon="11.4980475"><ele>187.0</ele><time>2026-04-18T10:59:44.208Z</time></trkpt><trkpt lat="43.6779026" lon="11.4980804"><ele>187.0</ele><time>2026-04-18T10:59:45.208Z</time></trkpt><trkpt lat="43.6779828" lon="11.4981689"><ele>187.0</ele><time>2026-04-18T10:59:46.208Z</time></trkpt><trkpt lat="43.6780694" lon="11.4982758"><ele>187.0</ele><time>2026-04-18T10:59:47.207Z</time></trkpt><trkpt lat="43.6781655" lon="11.4983999"><ele>187.0</ele><time>2026-04-18T10:59:48.208Z</time></trkpt><trkpt lat="43.6782563" lon="11.4985165"><ele>187.0</ele><time>2026-04-18T10:59:49.208Z</time></trkpt><trkpt lat="43.678341" lon="11.4986182"><ele>187.0</ele><time>2026-04-18T10:59:50.208Z</time></trkpt><trkpt lat="43.6784198" lon="11.4986876"><ele>187.0</ele><time>2026-04-18T10:59:51.208Z</time></trkpt><trkpt lat="43.6784985" lon="11.4987022"><ele>187.0</ele><time>2026-04-18T10:59:52.208Z</time></trkpt><trkpt lat="43.6785655" lon="11.4986667"><ele>187.0</ele><time>2026-04-18T10:59:53.208Z</time></trkpt><trkpt lat="43.6786007" lon="11.4985839"><ele>187.0</ele><time>2026-04-18T10:59:54.208Z</time></trkpt><trkpt lat="43.6786031" lon="11.4984669"><ele>187.0</ele><time>2026-04-18T10:59:55.207Z</time></trkpt><trkpt lat="43.6785808" lon="11.498329"><ele>187.0</ele><time>2026-04-18T10:59:56.208Z</time></trkpt><trkpt lat="43.6785543" lon="11.4981898"><ele>187.0</ele><time>2026-04-18T10:59:57.207Z</time></trkpt><trkpt lat="43.6785403" lon="11.4980698"><ele>187.0</ele><time>2026-04-18T10:59:58.208Z</time></trkpt><trkpt lat="43.6785511" lon="11.4979448"><ele>187.0</ele><time>2026-04-18T10:59:59.208Z</time></trkpt><trkpt lat="43.6785802" lon="11.4978236"><ele>192.0</ele><time>2026-04-18T11:00:00.208Z</time></trkpt><trkpt lat="43.6786425" lon="11.4976823"><ele>197.0</ele><time>2026-04-18T11:00:01.207Z</time></trkpt><trkpt lat="43.6787108" lon="11.4975537"><ele>202.0</ele><time>2026-04-18T11:00:02.207Z</time></trkpt><trkpt lat="43.6787901" lon="11.4974443"><ele>207.0</ele><time>2026-04-18T11:00:03.207Z</time></trkpt><trkpt lat="43.6788959" lon="11.497357"><ele>207.0</ele><time>2026-04-18T11:00:04.208Z</time></trkpt><trkpt lat="43.6790184" lon="11.4972731"><ele>207.0</ele><time>2026-04-18T11:00:05.208Z</time></trkpt><trkpt lat="43.6791385" lon="11.4971765"><ele>207.0</ele><time>2026-04-18T11:00:06.208Z</time></trkpt><trkpt lat="43.679263" lon="11.4970756"><ele>207.0</ele><time>2026-04-18T11:00:07.207Z</time></trkpt><trkpt lat="43.6793946" lon="11.4969737"><ele>214.33333333333331</ele><time>2026-04-18T11:00:08.208Z</time></trkpt><trkpt lat="43.6795419" lon="11.4968671"><ele>221.66666666666666</ele><time>2026-04-18T11:00:09.208Z</time></trkpt><trkpt lat="43.6796854" lon="11.4967536"><ele>229.0</ele><time>2026-04-18T11:00:10.208Z</time></trkpt><trkpt lat="43.6798297" lon="11.4966334"><ele>229.0</ele><time>2026-04-18T11:00:11.207Z</time></trkpt><trkpt lat="43.6799685" lon="11.496516"><ele>229.0</ele><time>2026-04-18T11:00:12.208Z</time></trkpt><trkpt lat="43.680071" lon="11.4964235"><ele>229.0</ele><time>2026-04-18T11:00:13.207Z</time></trkpt><trkpt lat="43.6801615" lon="11.4963374"><ele>229.0</ele><time>2026-04-18T11:00:14.208Z</time></trkpt><trkpt lat="43.6802419" lon="11.4962675"><ele>229.0</ele><time>2026-04-18T11:00:15.207Z</time></trkpt><trkpt lat="43.68032" lon="11.4962848"><ele>228.99999999999997</ele><time>2026-04-18T11:00:17.208Z</time></trkpt><trkpt lat="43.6803267" lon="11.4964043"><ele>228.99999999999997</ele><time>2026-04-18T11:00:19.208Z</time></trkpt><trkpt lat="43.6802703" lon="11.4965395"><ele>229.0</ele><time>2026-04-18T11:00:21.208Z</time></trkpt><trkpt lat="43.6802178" lon="11.496635"><ele>229.0</ele><time>2026-04-18T11:00:22.207Z</time></trkpt><trkpt lat="43.6801581" lon="11.496743"><ele>229.0</ele><time>2026-04-18T11:00:23.208Z</time></trkpt><trkpt lat="43.6800884" lon="11.4968575"><ele>228.99999999999997</ele><time>2026-04-18T11:00:24.208Z</time></trkpt><trkpt lat="43.6800197" lon="11.4969824"><ele>228.99999999999997</ele><time>2026-04-18T11:00:25.208Z</time></trkpt><trkpt lat="43.679967" lon="11.4971072"><ele>229.0</ele><time>2026-04-18T11:00:26.208Z</time></trkpt><trkpt lat="43.6799474" lon="11.4972376"><ele>229.0</ele><time>2026-04-18T11:00:27.208Z</time></trkpt><trkpt lat="43.6799727" lon="11.4973729"><ele>228.75</ele><time>2026-04-18T11:00:28.207Z</time></trkpt><trkpt lat="43.6800302" lon="11.4975301"><ele>228.5</ele><time>2026-04-18T11:00:29.207Z</time></trkpt><trkpt lat="43.6800837" lon="11.4976902"><ele>228.25</ele><time>2026-04-18T11:00:30.208Z</time></trkpt><trkpt lat="43.6801241" lon="11.4978705"><ele>228.0</ele><time>2026-04-18T11:00:31.208Z</time></trkpt><trkpt lat="43.6801649" lon="11.4980682"><ele>229.25</ele><time>2026-04-18T11:00:32.208Z</time></trkpt><trkpt lat="43.680201" lon="11.4982414"><ele>230.5</ele><time>2026-04-18T11:00:33.208Z</time></trkpt><trkpt lat="43.6802461" lon="11.4983982"><ele>231.75</ele><time>2026-04-18T11:00:34.207Z</time></trkpt><trkpt lat="43.6803108" lon="11.4985403"><ele>233.0</ele><time>2026-04-18T11:00:35.207Z</time></trkpt><trkpt lat="43.6804117" lon="11.4986753"><ele>235.25</ele><time>2026-04-18T11:00:36.208Z</time></trkpt><trkpt lat="43.6805024" lon="11.4988105"><ele>237.5</ele><time>2026-04-18T11:00:37.208Z</time></trkpt><trkpt lat="43.6805998" lon="11.4989672"><ele>239.75</ele><time>2026-04-18T11:00:38.208Z</time></trkpt><trkpt lat="43.6806869" lon="11.4991036"><ele>242.0</ele><time>2026-04-18T11:00:39.208Z</time></trkpt><trkpt lat="43.6807607" lon="11.4992492"><ele>242.0</ele><time>2026-04-18T11:00:40.208Z</time></trkpt><trkpt lat="43.680797" lon="11.4994143"><ele>242.0</ele><time>2026-04-18T11:00:41.208Z</time></trkpt><trkpt lat="43.680822" lon="11.4995938"><ele>242.0</ele><time>2026-04-18T11:00:42.208Z</time></trkpt><trkpt lat="43.6808412" lon="11.4997771"><ele>242.0</ele><time>2026-04-18T11:00:43.208Z</time></trkpt><trkpt lat="43.6808652" lon="11.4999637"><ele>242.5</ele><time>2026-04-18T11:00:44.207Z</time></trkpt><trkpt lat="43.6808977" lon="11.5001421"><ele>243.0</ele><time>2026-04-18T11:00:45.207Z</time></trkpt><trkpt lat="43.6809557" lon="11.5003075"><ele>243.5</ele><time>2026-04-18T11:00:46.208Z</time></trkpt><trkpt lat="43.6810445" lon="11.5004521"><ele>244.0</ele><time>2026-04-18T11:00:47.208Z</time></trkpt><trkpt lat="43.6811543" lon="11.5005879"><ele>247.75</ele><time>2026-04-18T11:00:48.207Z</time></trkpt><trkpt lat="43.6812662" lon="11.5007189"><ele>251.5</ele><time>2026-04-18T11:00:49.208Z</time></trkpt><trkpt lat="43.6813758" lon="11.500801"><ele>255.25</ele><time>2026-04-18T11:00:50.208Z</time></trkpt><trkpt lat="43.6814797" lon="11.5008837"><ele>259.0</ele><time>2026-04-18T11:00:51.208Z</time></trkpt><trkpt lat="43.6815689" lon="11.5009523"><ele>259.0</ele><time>2026-04-18T11:00:52.208Z</time></trkpt><trkpt lat="43.6816228" lon="11.5010348"><ele>259.0</ele><time>2026-04-18T11:00:53.208Z</time></trkpt><trkpt lat="43.681634" lon="11.5011393"><ele>259.0</ele><time>2026-04-18T11:00:54.208Z</time></trkpt><trkpt lat="43.6815981" lon="11.5012475"><ele>259.0</ele><time>2026-04-18T11:00:55.208Z</time></trkpt><trkpt lat="43.6815439" lon="11.5013711"><ele>259.0</ele><time>2026-04-18T11:00:56.208Z</time></trkpt><trkpt lat="43.6814922" lon="11.5015059"><ele>259.4</ele><time>2026-04-18T11:00:57.207Z</time></trkpt><trkpt lat="43.6814606" lon="11.5016326"><ele>259.79999999999995</ele><time>2026-04-18T11:00:58.208Z</time></trkpt><trkpt lat="43.6814569" lon="11.5017663"><ele>260.20000000000005</ele><time>2026-04-18T11:00:59.207Z</time></trkpt><trkpt lat="43.6815018" lon="11.5018949"><ele>260.6</ele><time>2026-04-18T11:01:00.207Z</time></trkpt><trkpt lat="43.6815681" lon="11.5020412"><ele>261.0</ele><time>2026-04-18T11:01:01.208Z</time></trkpt><trkpt lat="43.681633" lon="11.5022138"><ele>262.0</ele><time>2026-04-18T11:01:02.208Z</time></trkpt><trkpt lat="43.6816809" lon="11.5023948"><ele>263.0</ele><time>2026-04-18T11:01:03.208Z</time></trkpt><trkpt lat="43.6817298" lon="11.5025953"><ele>264.0</ele><time>2026-04-18T11:01:04.208Z</time></trkpt><trkpt lat="43.6817762" lon="11.5027906"><ele>265.0</ele><time>2026-04-18T11:01:05.207Z</time></trkpt><trkpt lat="43.6818219" lon="11.5029481"><ele>265.0</ele><time>2026-04-18T11:01:06.208Z</time></trkpt><trkpt lat="43.6818846" lon="11.5030765"><ele>265.0</ele><time>2026-04-18T11:01:07.207Z</time></trkpt><trkpt lat="43.6819795" lon="11.5031687"><ele>265.0</ele><time>2026-04-18T11:01:08.208Z</time></trkpt><trkpt lat="43.6820965" lon="11.5032344"><ele>265.0</ele><time>2026-04-18T11:01:09.208Z</time></trkpt><trkpt lat="43.6821925" lon="11.5033141"><ele>265.8</ele><time>2026-04-18T11:01:10.207Z</time></trkpt><trkpt lat="43.6822721" lon="11.5034187"><ele>266.6</ele><time>2026-04-18T11:01:11.208Z</time></trkpt><trkpt lat="43.6823133" lon="11.503539"><ele>267.4</ele><time>2026-04-18T11:01:12.208Z</time></trkpt><trkpt lat="43.6823133" lon="11.50368"><ele>268.2</ele><time>2026-04-18T11:01:13.208Z</time></trkpt><trkpt lat="43.6822855" lon="11.5038471"><ele>269.0</ele><time>2026-04-18T11:01:14.207Z</time></trkpt><trkpt lat="43.6822598" lon="11.5040444"><ele>269.25</ele><time>2026-04-18T11:01:15.208Z</time></trkpt><trkpt lat="43.6822547" lon="11.5042438"><ele>269.5</ele><time>2026-04-18T11:01:16.207Z</time></trkpt><trkpt lat="43.6822724" lon="11.5044398"><ele>269.75</ele><time>2026-04-18T11:01:17.207Z</time></trkpt><trkpt lat="43.6823127" lon="11.504627"><ele>270.0</ele><time>2026-04-18T11:01:18.207Z</time></trkpt><trkpt lat="43.6823582" lon="11.5047679"><ele>270.0</ele><time>2026-04-18T11:01:19.208Z</time></trkpt><trkpt lat="43.682418" lon="11.5048942"><ele>270.0</ele><time>2026-04-18T11:01:20.208Z</time></trkpt><trkpt lat="43.6825066" lon="11.5049959"><ele>270.0</ele><time>2026-04-18T11:01:21.208Z</time></trkpt><trkpt lat="43.6826342" lon="11.5050699"><ele>270.0</ele><time>2026-04-18T11:01:22.208Z</time></trkpt><trkpt lat="43.6827667" lon="11.5051374"><ele>270.0</ele><time>2026-04-18T11:01:23.207Z</time></trkpt><trkpt lat="43.6828781" lon="11.5052134"><ele>270.0</ele><time>2026-04-18T11:01:24.207Z</time></trkpt><trkpt lat="43.6829767" lon="11.5053146"><ele>270.0</ele><time>2026-04-18T11:01:25.208Z</time></trkpt><trkpt lat="43.6830583" lon="11.5054407"><ele>270.0</ele><time>2026-04-18T11:01:26.208Z</time></trkpt><trkpt lat="43.6831279" lon="11.5055838"><ele>271.25</ele><time>2026-04-18T11:01:27.208Z</time></trkpt><trkpt lat="43.683189" lon="11.5057494"><ele>272.5</ele><time>2026-04-18T11:01:28.207Z</time></trkpt><trkpt lat="43.6832609" lon="11.505927"><ele>273.75</ele><time>2026-04-18T11:01:29.208Z</time></trkpt><trkpt lat="43.6833449" lon="11.5060999"><ele>275.0</ele><time>2026-04-18T11:01:30.208Z</time></trkpt><trkpt lat="43.6834383" lon="11.5062815"><ele>275.25</ele><time>2026-04-18T11:01:31.208Z</time></trkpt><trkpt lat="43.683516" lon="11.5064531"><ele>275.5</ele><time>2026-04-18T11:01:32.207Z</time></trkpt><trkpt lat="43.683593" lon="11.5066046"><ele>275.75</ele><time>2026-04-18T11:01:33.207Z</time></trkpt><trkpt lat="43.6836426" lon="11.5067575"><ele>276.0</ele><time>2026-04-18T11:01:34.207Z</time></trkpt><trkpt lat="43.6836719" lon="11.5069185"><ele>277.25</ele><time>2026-04-18T11:01:35.207Z</time></trkpt><trkpt lat="43.6836894" lon="11.5070937"><ele>278.5</ele><time>2026-04-18T11:01:36.207Z</time></trkpt><trkpt lat="43.6836952" lon="11.5072817"><ele>279.75</ele><time>2026-04-18T11:01:37.208Z</time></trkpt><trkpt lat="43.6837012" lon="11.5074896"><ele>281.0</ele><time>2026-04-18T11:01:38.208Z</time></trkpt><trkpt lat="43.6837077" lon="11.5077021"><ele>282.25</ele><time>2026-04-18T11:01:39.208Z</time></trkpt><trkpt lat="43.683715" lon="11.5079122"><ele>283.5</ele><time>2026-04-18T11:01:40.208Z</time></trkpt><trkpt lat="43.6837195" lon="11.5081062"><ele>284.75</ele><time>2026-04-18T11:01:41.208Z</time></trkpt><trkpt lat="43.6837249" lon="11.5082666"><ele>286.0</ele><time>2026-04-18T11:01:42.208Z</time></trkpt><trkpt lat="43.6837483" lon="11.5084249"><ele>286.0</ele><time>2026-04-18T11:01:43.207Z</time></trkpt><trkpt lat="43.683821" lon="11.5085582"><ele>286.0</ele><time>2026-04-18T11:01:44.208Z</time></trkpt><trkpt lat="43.6839041" lon="11.5086833"><ele>286.0</ele><time>2026-04-18T11:01:45.208Z</time></trkpt><trkpt lat="43.6839884" lon="11.5088166"><ele>286.0</ele><time>2026-04-18T11:01:46.207Z</time></trkpt><trkpt lat="43.6840386" lon="11.5089575"><ele>286.75</ele><time>2026-04-18T11:01:47.208Z</time></trkpt><trkpt lat="43.6840668" lon="11.5091251"><ele>287.5</ele><time>2026-04-18T11:01:48.208Z</time></trkpt><trkpt lat="43.6840912" lon="11.5093139"><ele>288.25</ele><time>2026-04-18T11:01:49.208Z</time></trkpt><trkpt lat="43.684132" lon="11.509497"><ele>289.0</ele><time>2026-04-18T11:01:50.208Z</time></trkpt><trkpt lat="43.6841775" lon="11.509669"><ele>290.0</ele><time>2026-04-18T11:01:51.208Z</time></trkpt><trkpt lat="43.6842061" lon="11.5098352"><ele>291.0</ele><time>2026-04-18T11:01:52.208Z</time></trkpt><trkpt lat="43.6842375" lon="11.5099876"><ele>292.0</ele><time>2026-04-18T11:01:53.207Z</time></trkpt><trkpt lat="43.6842901" lon="11.5101367"><ele>293.0</ele><time>2026-04-18T11:01:54.208Z</time></trkpt><trkpt lat="43.6844129" lon="11.5102158"><ele>293.5</ele><time>2026-04-18T11:01:55.208Z</time></trkpt><trkpt lat="43.6845186" lon="11.5103122"><ele>294.0</ele><time>2026-04-18T11:01:56.208Z</time></trkpt><trkpt lat="43.6846157" lon="11.5104453"><ele>294.5</ele><time>2026-04-18T11:01:57.208Z</time></trkpt><trkpt lat="43.6847161" lon="11.5106079"><ele>295.0</ele><time>2026-04-18T11:01:58.207Z</time></trkpt><trkpt lat="43.6848255" lon="11.5107469"><ele>296.0</ele><time>2026-04-18T11:01:59.208Z</time></trkpt><trkpt lat="43.684926" lon="11.5108697"><ele>297.0</ele><time>2026-04-18T11:02:00.208Z</time></trkpt><trkpt lat="43.6850003" lon="11.5109975"><ele>298.0</ele><time>2026-04-18T11:02:01.208Z</time></trkpt><trkpt lat="43.6850541" lon="11.5111415"><ele>299.0</ele><time>2026-04-18T11:02:02.208Z</time></trkpt><trkpt lat="43.6851335" lon="11.5112873"><ele>300.0</ele><time>2026-04-18T11:02:03.208Z</time></trkpt><trkpt lat="43.6852443" lon="11.5114224"><ele>301.0</ele><time>2026-04-18T11:02:04.208Z</time></trkpt><trkpt lat="43.6853603" lon="11.5115246"><ele>302.0</ele><time>2026-04-18T11:02:05.207Z</time></trkpt><trkpt lat="43.6854715" lon="11.5116569"><ele>303.0</ele><time>2026-04-18T11:02:06.207Z</time></trkpt><trkpt lat="43.6855721" lon="11.5118158"><ele>304.3333333333333</ele><time>2026-04-18T11:02:07.208Z</time></trkpt><trkpt lat="43.6856722" lon="11.5119878"><ele>305.66666666666663</ele><time>2026-04-18T11:02:08.208Z</time></trkpt><trkpt lat="43.6857824" lon="11.5121578"><ele>307.0</ele><time>2026-04-18T11:02:09.208Z</time></trkpt><trkpt lat="43.6858838" lon="11.512326"><ele>308.0</ele><time>2026-04-18T11:02:10.208Z</time></trkpt><trkpt lat="43.6859766" lon="11.5124689"><ele>309.0</ele><time>2026-04-18T11:02:11.208Z</time></trkpt><trkpt lat="43.6860567" lon="11.5125953"><ele>310.0</ele><time>2026-04-18T11:02:12.207Z</time></trkpt><trkpt lat="43.6861275" lon="11.5127044"><ele>311.0</ele><time>2026-04-18T11:02:13.208Z</time></trkpt><trkpt lat="43.6861874" lon="11.5127952"><ele>311.1666666666667</ele><time>2026-04-18T11:02:14.208Z</time></trkpt><trkpt lat="43.6862229" lon="11.5128756"><ele>311.33333333333337</ele><time>2026-04-18T11:02:15.208Z</time></trkpt><trkpt lat="43.6862274" lon="11.5129767"><ele>311.5</ele><time>2026-04-18T11:02:17.207Z</time></trkpt><trkpt lat="43.6861511" lon="11.5130767"><ele>311.6666666666667</ele><time>2026-04-18T11:02:19.208Z</time></trkpt><trkpt lat="43.686088" lon="11.5131587"><ele>311.8333333333333</ele><time>2026-04-18T11:02:20.208Z</time></trkpt><trkpt lat="43.6860225" lon="11.5132491"><ele>312.0</ele><time>2026-04-18T11:02:21.208Z</time></trkpt><trkpt lat="43.6859615" lon="11.51336"><ele>312.0</ele><time>2026-04-18T11:02:22.208Z</time></trkpt><trkpt lat="43.6859098" lon="11.5134913"><ele>312.0</ele><time>2026-04-18T11:02:23.208Z</time></trkpt><trkpt lat="43.685895" lon="11.5136434"><ele>312.0</ele><time>2026-04-18T11:02:24.207Z</time></trkpt><trkpt lat="43.6859218" lon="11.5138023"><ele>312.0</ele><time>2026-04-18T11:02:25.207Z</time></trkpt><trkpt lat="43.6859751" lon="11.5139759"><ele>313.5</ele><time>2026-04-18T11:02:26.207Z</time></trkpt><trkpt lat="43.6860359" lon="11.5141462"><ele>315.0</ele><time>2026-04-18T11:02:27.207Z</time></trkpt><trkpt lat="43.6860998" lon="11.5143047"><ele>316.5</ele><time>2026-04-18T11:02:28.207Z</time></trkpt><trkpt lat="43.6861663" lon="11.5144433"><ele>318.0</ele><time>2026-04-18T11:02:29.208Z</time></trkpt><trkpt lat="43.6862561" lon="11.5145553"><ele>315.25</ele><time>2026-04-18T11:02:30.208Z</time></trkpt><trkpt lat="43.6863627" lon="11.5146228"><ele>312.5</ele><time>2026-04-18T11:02:31.208Z</time></trkpt><trkpt lat="43.6864771" lon="11.5146555"><ele>309.75</ele><time>2026-04-18T11:02:32.207Z</time></trkpt><trkpt lat="43.6865875" lon="11.5146786"><ele>307.0</ele><time>2026-04-18T11:02:33.208Z</time></trkpt><trkpt lat="43.6866895" lon="11.5147169"><ele>307.0</ele><time>2026-04-18T11:02:34.208Z</time></trkpt><trkpt lat="43.6867859" lon="11.5148018"><ele>307.0</ele><time>2026-04-18T11:02:35.208Z</time></trkpt><trkpt lat="43.6868497" lon="11.5149413"><ele>307.0</ele><time>2026-04-18T11:02:36.208Z</time></trkpt><trkpt lat="43.6868909" lon="11.5150896"><ele>307.0</ele><time>2026-04-18T11:02:37.207Z</time></trkpt><trkpt lat="43.6869203" lon="11.515251"><ele>307.4</ele><time>2026-04-18T11:02:38.208Z</time></trkpt><trkpt lat="43.6869331" lon="11.5154019"><ele>307.79999999999995</ele><time>2026-04-18T11:02:39.208Z</time></trkpt><trkpt lat="43.6869343" lon="11.5155397"><ele>308.2</ele><time>2026-04-18T11:02:40.207Z</time></trkpt><trkpt lat="43.6869123" lon="11.5156613"><ele>308.59999999999997</ele><time>2026-04-18T11:02:41.208Z</time></trkpt><trkpt lat="43.6868657" lon="11.5157671"><ele>309.0</ele><time>2026-04-18T11:02:42.208Z</time></trkpt><trkpt lat="43.6868076" lon="11.5158529"><ele>309.0</ele><time>2026-04-18T11:02:43.208Z</time></trkpt><trkpt lat="43.6867269" lon="11.515915"><ele>309.0</ele><time>2026-04-18T11:02:44.208Z</time></trkpt><trkpt lat="43.6866384" lon="11.5159727"><ele>309.0</ele><time>2026-04-18T11:02:45.208Z</time></trkpt><trkpt lat="43.6865556" lon="11.5160195"><ele>309.0</ele><time>2026-04-18T11:02:46.208Z</time></trkpt><trkpt lat="43.6864834" lon="11.5160675"><ele>309.0</ele><time>2026-04-18T11:02:47.207Z</time></trkpt><trkpt lat="43.686386" lon="11.5161434"><ele>310.59999999999997</ele><time>2026-04-18T11:02:49.208Z</time></trkpt><trkpt lat="43.6863783" lon="11.5162583"><ele>312.2</ele><time>2026-04-18T11:02:51.208Z</time></trkpt><trkpt lat="43.6864205" lon="11.516368"><ele>313.79999999999995</ele><time>2026-04-18T11:02:53.208Z</time></trkpt><trkpt lat="43.686483" lon="11.5165351"><ele>315.4</ele><time>2026-04-18T11:02:55.207Z</time></trkpt><trkpt lat="43.6865191" lon="11.5166393"><ele>317.0</ele><time>2026-04-18T11:02:56.208Z</time></trkpt><trkpt lat="43.6865571" lon="11.5167333"><ele>317.0</ele><time>2026-04-18T11:02:57.208Z</time></trkpt><trkpt lat="43.6865864" lon="11.5168327"><ele>317.0</ele><time>2026-04-18T11:02:58.208Z</time></trkpt><trkpt lat="43.6866209" lon="11.5169488"><ele>317.0</ele><time>2026-04-18T11:02:59.208Z</time></trkpt><trkpt lat="43.6866587" lon="11.51708"><ele>317.0</ele><time>2026-04-18T11:03:00.208Z</time></trkpt><trkpt lat="43.6866943" lon="11.5172188"><ele>317.0</ele><time>2026-04-18T11:03:01.208Z</time></trkpt><trkpt lat="43.6867303" lon="11.5173513"><ele>318.4</ele><time>2026-04-18T11:03:02.208Z</time></trkpt><trkpt lat="43.6867541" lon="11.5174804"><ele>319.79999999999995</ele><time>2026-04-18T11:03:03.208Z</time></trkpt><trkpt lat="43.6867499" lon="11.5176039"><ele>321.2</ele><time>2026-04-18T11:03:04.208Z</time></trkpt><trkpt lat="43.6867153" lon="11.5177181"><ele>322.59999999999997</ele><time>2026-04-18T11:03:05.208Z</time></trkpt><trkpt lat="43.6866644" lon="11.5178259"><ele>324.0</ele><time>2026-04-18T11:03:06.207Z</time></trkpt><trkpt lat="43.6866263" lon="11.5179291"><ele>326.0</ele><time>2026-04-18T11:03:07.208Z</time></trkpt><trkpt lat="43.6866282" lon="11.5180606"><ele>328.0</ele><time>2026-04-18T11:03:09.208Z</time></trkpt><trkpt lat="43.6867024" lon="11.5180802"><ele>330.0</ele><time>2026-04-18T11:03:11.208Z</time></trkpt><trkpt lat="43.6867656" lon="11.5180333"><ele>332.0</ele><time>2026-04-18T11:03:12.208Z</time></trkpt><trkpt lat="43.6868334" lon="11.518005"><ele>334.0</ele><time>2026-04-18T11:03:13.208Z</time></trkpt><trkpt lat="43.6869162" lon="11.5179829"><ele>336.0</ele><time>2026-04-18T11:03:14.207Z</time></trkpt><trkpt lat="43.6869999" lon="11.517962"><ele>336.1666666666667</ele><time>2026-04-18T11:03:15.208Z</time></trkpt><trkpt lat="43.6870821" lon="11.5179542"><ele>336.3333333333333</ele><time>2026-04-18T11:03:16.208Z</time></trkpt><trkpt lat="43.6871501" lon="11.5179497"><ele>336.5</ele><time>2026-04-18T11:03:17.208Z</time></trkpt><trkpt lat="43.6872211" lon="11.5179299"><ele>336.66666666666663</ele><time>2026-04-18T11:03:18.208Z</time></trkpt><trkpt lat="43.6872847" lon="11.5178751"><ele>336.8333333333333</ele><time>2026-04-18T11:03:19.208Z</time></trkpt><trkpt lat="43.6873385" lon="11.5177981"><ele>337.0</ele><time>2026-04-18T11:03:20.208Z</time></trkpt><trkpt lat="43.6873793" lon="11.5176968"><ele>337.0</ele><time>2026-04-18T11:03:21.207Z</time></trkpt><trkpt lat="43.6874142" lon="11.5175946"><ele>337.0</ele><time>2026-04-18T11:03:22.208Z</time></trkpt><trkpt lat="43.6874626" lon="11.5175168"><ele>337.0</ele><time>2026-04-18T11:03:23.208Z</time></trkpt><trkpt lat="43.68752" lon="11.5174653"><ele>337.0</ele><time>2026-04-18T11:03:24.208Z</time></trkpt><trkpt lat="43.6875937" lon="11.51746"><ele>337.0</ele><time>2026-04-18T11:03:25.207Z</time></trkpt><trkpt lat="43.6876715" lon="11.517501"><ele>337.0</ele><time>2026-04-18T11:03:26.208Z</time></trkpt><trkpt lat="43.6877484" lon="11.5175709"><ele>337.40000000000003</ele><time>2026-04-18T11:03:27.208Z</time></trkpt><trkpt lat="43.6878038" lon="11.5176678"><ele>337.8</ele><time>2026-04-18T11:03:28.208Z</time></trkpt><trkpt lat="43.6878345" lon="11.5177913"><ele>338.2</ele><time>2026-04-18T11:03:29.208Z</time></trkpt><trkpt lat="43.6878437" lon="11.5179414"><ele>338.6</ele><time>2026-04-18T11:03:30.208Z</time></trkpt><trkpt lat="43.6878421" lon="11.5181024"><ele>339.0</ele><time>2026-04-18T11:03:31.208Z</time></trkpt><trkpt lat="43.6878243" lon="11.5182449"><ele>340.0</ele><time>2026-04-18T11:03:32.208Z</time></trkpt><trkpt lat="43.6878056" lon="11.5183725"><ele>341.0</ele><time>2026-04-18T11:03:33.207Z</time></trkpt><trkpt lat="43.6877699" lon="11.5184829"><ele>342.0</ele><time>2026-04-18T11:03:34.208Z</time></trkpt><trkpt lat="43.687732" lon="11.5185597"><ele>343.0</ele><time>2026-04-18T11:03:35.207Z</time></trkpt><trkpt lat="43.6876444" lon="11.5186542"><ele>344.0</ele><time>2026-04-18T11:03:37.208Z</time></trkpt><trkpt lat="43.6875912" lon="11.5187305"><ele>345.0</ele><time>2026-04-18T11:03:40.208Z</time></trkpt><trkpt lat="43.6875252" lon="11.5186948"><ele>345.0</ele><time>2026-04-18T11:05:02.208Z</time></trkpt><trkpt lat="43.6875549" lon="11.5187762"><ele>345.0</ele><time>2026-04-18T11:08:02.208Z</time></trkpt><trkpt lat="43.6875915" lon="11.5186921"><ele>345.0</ele><time>2026-04-18T11:39:50.211Z</time></trkpt><trkpt lat="43.6876743" lon="11.5186179"><ele>345.0</ele><time>2026-04-18T11:39:54.212Z</time></trkpt><trkpt lat="43.6877506" lon="11.5185347"><ele>345.0</ele><time>2026-04-18T11:39:57.212Z</time></trkpt><trkpt lat="43.6877994" lon="11.5184382"><ele>345.0</ele><time>2026-04-18T11:39:59.212Z</time></trkpt><trkpt lat="43.6878403" lon="11.5182704"><ele>345.0</ele><time>2026-04-18T11:40:01.213Z</time></trkpt><trkpt lat="43.6878717" lon="11.5181196"><ele>345.0</ele><time>2026-04-18T11:40:03.205Z</time></trkpt><trkpt lat="43.6878764" lon="11.517967"><ele>345.0</ele><time>2026-04-18T11:40:05.211Z</time></trkpt><trkpt lat="43.6878767" lon="11.5177993"><ele>345.0</ele><time>2026-04-18T11:40:07.209Z</time></trkpt><trkpt lat="43.6878521" lon="11.5177114"><ele>345.0</ele><time>2026-04-18T11:40:08.212Z</time></trkpt><trkpt lat="43.6878145" lon="11.5176326"><ele>344.14285714285717</ele><time>2026-04-18T11:40:09.207Z</time></trkpt><trkpt lat="43.687767" lon="11.5175489"><ele>343.2857142857143</ele><time>2026-04-18T11:40:10.208Z</time></trkpt><trkpt lat="43.6877141" lon="11.5174696"><ele>342.42857142857144</ele><time>2026-04-18T11:40:11.206Z</time></trkpt><trkpt lat="43.6876481" lon="11.5174347"><ele>341.57142857142856</ele><time>2026-04-18T11:40:12.211Z</time></trkpt><trkpt lat="43.6875847" lon="11.5174157"><ele>340.7142857142857</ele><time>2026-04-18T11:40:13.214Z</time></trkpt><trkpt lat="43.6875207" lon="11.5174392"><ele>339.85714285714283</ele><time>2026-04-18T11:40:14.205Z</time></trkpt><trkpt lat="43.6874644" lon="11.5175056"><ele>339.0</ele><time>2026-04-18T11:40:15.208Z</time></trkpt><trkpt lat="43.6874212" lon="11.5175935"><ele>338.6666666666667</ele><time>2026-04-18T11:40:16.215Z</time></trkpt><trkpt lat="43.6873858" lon="11.5176838"><ele>338.3333333333333</ele><time>2026-04-18T11:40:17.207Z</time></trkpt><trkpt lat="43.6873555" lon="11.5177685"><ele>338.0</ele><time>2026-04-18T11:40:18.211Z</time></trkpt><trkpt lat="43.6872903" lon="11.5178803"><ele>337.66666666666663</ele><time>2026-04-18T11:40:20.203Z</time></trkpt><trkpt lat="43.6871765" lon="11.5179267"><ele>337.3333333333333</ele><time>2026-04-18T11:40:22.215Z</time></trkpt><trkpt lat="43.6871043" lon="11.5179411"><ele>337.0</ele><time>2026-04-18T11:40:23.212Z</time></trkpt><trkpt lat="43.6870293" lon="11.5179568"><ele>336.8333333333333</ele><time>2026-04-18T11:40:24.206Z</time></trkpt><trkpt lat="43.6869502" lon="11.5179742"><ele>336.66666666666663</ele><time>2026-04-18T11:40:25.202Z</time></trkpt><trkpt lat="43.6868684" lon="11.517988"><ele>336.5</ele><time>2026-04-18T11:40:26.214Z</time></trkpt><trkpt lat="43.6868015" lon="11.5180033"><ele>336.3333333333333</ele><time>2026-04-18T11:40:27.212Z</time></trkpt><trkpt lat="43.6866953" lon="11.5180225"><ele>336.1666666666667</ele><time>2026-04-18T11:40:29.203Z</time></trkpt><trkpt lat="43.6866331" lon="11.5179728"><ele>336.0</ele><time>2026-04-18T11:40:31.128Z</time></trkpt><trkpt lat="43.6866944" lon="11.5178379"><ele>334.0</ele><time>2026-04-18T11:40:33.21Z</time></trkpt><trkpt lat="43.6867416" lon="11.5177386"><ele>332.0</ele><time>2026-04-18T11:40:34.204Z</time></trkpt><trkpt lat="43.6867754" lon="11.5176336"><ele>330.0</ele><time>2026-04-18T11:40:35.206Z</time></trkpt><trkpt lat="43.6867819" lon="11.5174983"><ele>328.0</ele><time>2026-04-18T11:40:36.202Z</time></trkpt><trkpt lat="43.6867537" lon="11.5173881"><ele>326.0</ele><time>2026-04-18T11:40:37.207Z</time></trkpt><trkpt lat="43.6867211" lon="11.5172695"><ele>324.0</ele><time>2026-04-18T11:40:38.213Z</time></trkpt><trkpt lat="43.6866869" lon="11.5171506"><ele>322.8333333333333</ele><time>2026-04-18T11:40:39.203Z</time></trkpt><trkpt lat="43.6866573" lon="11.5170357"><ele>321.6666666666667</ele><time>2026-04-18T11:40:40.212Z</time></trkpt><trkpt lat="43.6866246" lon="11.5169169"><ele>320.5</ele><time>2026-04-18T11:40:41.207Z</time></trkpt><trkpt lat="43.6865917" lon="11.516805"><ele>319.33333333333337</ele><time>2026-04-18T11:40:42.21Z</time></trkpt><trkpt lat="43.6865584" lon="11.5166941"><ele>318.1666666666667</ele><time>2026-04-18T11:40:43.215Z</time></trkpt><trkpt lat="43.6865235" lon="11.5165893"><ele>317.0</ele><time>2026-04-18T11:40:44.207Z</time></trkpt><trkpt lat="43.68649" lon="11.5164921"><ele>317.0</ele><time>2026-04-18T11:40:45.205Z</time></trkpt><trkpt lat="43.6864588" lon="11.5163977"><ele>317.0</ele><time>2026-04-18T11:40:46.209Z</time></trkpt><trkpt lat="43.6864249" lon="11.5162716"><ele>317.0</ele><time>2026-04-18T11:40:48.214Z</time></trkpt><trkpt lat="43.6864226" lon="11.5161843"><ele>317.0</ele><time>2026-04-18T11:40:51.206Z</time></trkpt><trkpt lat="43.6864728" lon="11.516112"><ele>317.0</ele><time>2026-04-18T11:40:59.203Z</time></trkpt><trkpt lat="43.6865729" lon="11.5160435"><ele>317.0</ele><time>2026-04-18T11:41:01.211Z</time></trkpt><trkpt lat="43.6866508" lon="11.516005"><ele>317.0</ele><time>2026-04-18T11:41:02.203Z</time></trkpt><trkpt lat="43.6867156" lon="11.5159756"><ele>317.0</ele><time>2026-04-18T11:41:03.21Z</time></trkpt><trkpt lat="43.6867888" lon="11.5159238"><ele>317.0</ele><time>2026-04-18T11:41:04.214Z</time></trkpt><trkpt lat="43.6868615" lon="11.5158438"><ele>317.0</ele><time>2026-04-18T11:41:05.211Z</time></trkpt><trkpt lat="43.6869198" lon="11.5157407"><ele>317.0</ele><time>2026-04-18T11:41:06.212Z</time></trkpt><trkpt lat="43.6869617" lon="11.5156183"><ele>317.0</ele><time>2026-04-18T11:41:07.205Z</time></trkpt><trkpt lat="43.6869753" lon="11.5154802"><ele>317.0</ele><time>2026-04-18T11:41:08.201Z</time></trkpt><trkpt lat="43.6869729" lon="11.5153263"><ele>317.0</ele><time>2026-04-18T11:41:09.205Z</time></trkpt><trkpt lat="43.6869515" lon="11.5151736"><ele>317.0</ele><time>2026-04-18T11:41:10.21Z</time></trkpt><trkpt lat="43.6869321" lon="11.5150252"><ele>317.0</ele><time>2026-04-18T11:41:11.214Z</time></trkpt><trkpt lat="43.6868964" lon="11.5148876"><ele>317.0</ele><time>2026-04-18T11:41:12.203Z</time></trkpt><trkpt lat="43.686826" lon="11.5147767"><ele>314.5</ele><time>2026-04-18T11:41:13.202Z</time></trkpt><trkpt lat="43.6867287" lon="11.5146897"><ele>312.0</ele><time>2026-04-18T11:41:14.212Z</time></trkpt><trkpt lat="43.6866319" lon="11.5146397"><ele>309.5</ele><time>2026-04-18T11:41:15.212Z</time></trkpt><trkpt lat="43.6865041" lon="11.5146284"><ele>307.0</ele><time>2026-04-18T11:41:16.206Z</time></trkpt><trkpt lat="43.6863881" lon="11.5145859"><ele>306.0</ele><time>2026-04-18T11:41:17.207Z</time></trkpt><trkpt lat="43.6862884" lon="11.514489"><ele>305.0</ele><time>2026-04-18T11:41:18.212Z</time></trkpt><trkpt lat="43.6862046" lon="11.5143793"><ele>304.0</ele><time>2026-04-18T11:41:19.216Z</time></trkpt><trkpt lat="43.6861428" lon="11.5142258"><ele>303.0</ele><time>2026-04-18T11:41:20.21Z</time></trkpt><trkpt lat="43.6860776" lon="11.5140776"><ele>303.0</ele><time>2026-04-18T11:41:21.214Z</time></trkpt><trkpt lat="43.6860126" lon="11.5139372"><ele>303.0</ele><time>2026-04-18T11:41:22.208Z</time></trkpt><trkpt lat="43.6859609" lon="11.5137938"><ele>303.0</ele><time>2026-04-18T11:41:23.206Z</time></trkpt><trkpt lat="43.685921" lon="11.5136576"><ele>303.0</ele><time>2026-04-18T11:41:24.213Z</time></trkpt><trkpt lat="43.6859131" lon="11.5135373"><ele>303.0</ele><time>2026-04-18T11:41:25.215Z</time></trkpt><trkpt lat="43.6859441" lon="11.5134166"><ele>304.8</ele><time>2026-04-18T11:41:26.212Z</time></trkpt><trkpt lat="43.6860425" lon="11.5133044"><ele>306.6</ele><time>2026-04-18T11:41:27.212Z</time></trkpt><trkpt lat="43.6861103" lon="11.5131995"><ele>308.4</ele><time>2026-04-18T11:41:28.214Z</time></trkpt><trkpt lat="43.6861805" lon="11.5131009"><ele>310.2</ele><time>2026-04-18T11:41:29.206Z</time></trkpt><trkpt lat="43.686245" lon="11.5130253"><ele>312.0</ele><time>2026-04-18T11:41:30.205Z</time></trkpt><trkpt lat="43.6863033" lon="11.5129754"><ele>313.6</ele><time>2026-04-18T11:41:31.209Z</time></trkpt><trkpt lat="43.6863918" lon="11.5129815"><ele>315.2</ele><time>2026-04-18T11:41:32.204Z</time></trkpt><trkpt lat="43.6864776" lon="11.5129885"><ele>316.8</ele><time>2026-04-18T11:41:33.206Z</time></trkpt><trkpt lat="43.6865717" lon="11.5130074"><ele>318.4</ele><time>2026-04-18T11:41:34.214Z</time></trkpt><trkpt lat="43.6866846" lon="11.5130402"><ele>320.0</ele><time>2026-04-18T11:41:35.204Z</time></trkpt><trkpt lat="43.6867997" lon="11.5130734"><ele>320.0</ele><time>2026-04-18T11:41:36.205Z</time></trkpt><trkpt lat="43.686919" lon="11.5130882"><ele>320.0</ele><time>2026-04-18T11:41:37.206Z</time></trkpt><trkpt lat="43.6870448" lon="11.5130756"><ele>320.0</ele><time>2026-04-18T11:41:38.206Z</time></trkpt><trkpt lat="43.687168" lon="11.5130243"><ele>320.0</ele><time>2026-04-18T11:41:39.209Z</time></trkpt><trkpt lat="43.6872906" lon="11.5129762"><ele>321.0</ele><time>2026-04-18T11:41:40.202Z</time></trkpt><trkpt lat="43.6873994" lon="11.5129133"><ele>322.0</ele><time>2026-04-18T11:41:41.209Z</time></trkpt><trkpt lat="43.687509" lon="11.5128444"><ele>323.0</ele><time>2026-04-18T11:41:42.211Z</time></trkpt><trkpt lat="43.6876148" lon="11.5127699"><ele>324.0</ele><time>2026-04-18T11:41:43.213Z</time></trkpt><trkpt lat="43.6877127" lon="11.5126874"><ele>325.0</ele><time>2026-04-18T11:41:44.209Z</time></trkpt><trkpt lat="43.6878105" lon="11.5125973"><ele>326.0</ele><time>2026-04-18T11:41:45.211Z</time></trkpt><trkpt lat="43.6878964" lon="11.5125169"><ele>327.0</ele><time>2026-04-18T11:41:46.207Z</time></trkpt><trkpt lat="43.6880044" lon="11.5123799"><ele>328.0</ele><time>2026-04-18T11:41:48.205Z</time></trkpt><trkpt lat="43.6880493" lon="11.5123022"><ele>329.0</ele><time>2026-04-18T11:41:49.212Z</time></trkpt><trkpt lat="43.6881158" lon="11.5122882"><ele>329.0</ele><time>2026-04-18T11:41:53.204Z</time></trkpt><trkpt lat="43.6882348" lon="11.5124017"><ele>329.0</ele><time>2026-04-18T11:41:55.202Z</time></trkpt><trkpt lat="43.6883171" lon="11.5124841"><ele>329.0</ele><time>2026-04-18T11:41:56.21Z</time></trkpt><trkpt lat="43.6883845" lon="11.5125521"><ele>329.0</ele><time>2026-04-18T11:41:57.206Z</time></trkpt><trkpt lat="43.6884529" lon="11.5126279"><ele>329.0</ele><time>2026-04-18T11:41:58.208Z</time></trkpt><trkpt lat="43.6885553" lon="11.5127234"><ele>329.79999999999995</ele><time>2026-04-18T11:41:59.208Z</time></trkpt><trkpt lat="43.688657" lon="11.5128072"><ele>330.59999999999997</ele><time>2026-04-18T11:42:00.204Z</time></trkpt><trkpt lat="43.688757" lon="11.512895"><ele>331.4</ele><time>2026-04-18T11:42:01.204Z</time></trkpt><trkpt lat="43.6888449" lon="11.5129685"><ele>332.2</ele><time>2026-04-18T11:42:02.212Z</time></trkpt><trkpt lat="43.6889257" lon="11.5130356"><ele>333.0</ele><time>2026-04-18T11:42:03.204Z</time></trkpt><trkpt lat="43.6890135" lon="11.5131157"><ele>333.59999999999997</ele><time>2026-04-18T11:42:04.206Z</time></trkpt><trkpt lat="43.6891" lon="11.5132013"><ele>334.2</ele><time>2026-04-18T11:42:05.209Z</time></trkpt><trkpt lat="43.6891952" lon="11.5132928"><ele>334.8</ele><time>2026-04-18T11:42:06.209Z</time></trkpt><trkpt lat="43.6892966" lon="11.5133806"><ele>335.4</ele><time>2026-04-18T11:42:07.204Z</time></trkpt><trkpt lat="43.6893761" lon="11.5134521"><ele>336.0</ele><time>2026-04-18T11:42:08.209Z</time></trkpt><trkpt lat="43.6894796" lon="11.5135478"><ele>337.25</ele><time>2026-04-18T11:42:09.201Z</time></trkpt><trkpt lat="43.6895741" lon="11.513651"><ele>338.5</ele><time>2026-04-18T11:42:10.204Z</time></trkpt><trkpt lat="43.6896727" lon="11.513771"><ele>339.75</ele><time>2026-04-18T11:42:11.202Z</time></trkpt><trkpt lat="43.6897671" lon="11.5138942"><ele>341.0</ele><time>2026-04-18T11:42:12.212Z</time></trkpt><trkpt lat="43.689874" lon="11.5140275"><ele>341.75</ele><time>2026-04-18T11:42:13.209Z</time></trkpt><trkpt lat="43.6899655" lon="11.5141526"><ele>342.5</ele><time>2026-04-18T11:42:14.212Z</time></trkpt><trkpt lat="43.6900442" lon="11.5142712"><ele>343.25</ele><time>2026-04-18T11:42:15.216Z</time></trkpt><trkpt lat="43.6901312" lon="11.5143858"><ele>344.0</ele><time>2026-04-18T11:42:16.203Z</time></trkpt><trkpt lat="43.6902307" lon="11.5145113"><ele>346.0</ele><time>2026-04-18T11:42:17.214Z</time></trkpt><trkpt lat="43.6903174" lon="11.5146311"><ele>348.0</ele><time>2026-04-18T11:42:18.206Z</time></trkpt><trkpt lat="43.6904039" lon="11.5147577"><ele>350.0</ele><time>2026-04-18T11:42:19.208Z</time></trkpt><trkpt lat="43.6905029" lon="11.5148855"><ele>352.0</ele><time>2026-04-18T11:42:20.205Z</time></trkpt><trkpt lat="43.6905997" lon="11.5150121"><ele>352.0</ele><time>2026-04-18T11:42:21.214Z</time></trkpt><trkpt lat="43.6907002" lon="11.5151438"><ele>352.0</ele><time>2026-04-18T11:42:22.211Z</time></trkpt><trkpt lat="43.6908061" lon="11.5152829"><ele>352.0</ele><time>2026-04-18T11:42:23.203Z</time></trkpt><trkpt lat="43.6909115" lon="11.5154182"><ele>352.0</ele><time>2026-04-18T11:42:24.203Z</time></trkpt><trkpt lat="43.6910156" lon="11.5155539"><ele>354.3333333333333</ele><time>2026-04-18T11:42:25.206Z</time></trkpt><trkpt lat="43.6911288" lon="11.5157004"><ele>356.6666666666667</ele><time>2026-04-18T11:42:26.214Z</time></trkpt><trkpt lat="43.6912359" lon="11.5158423"><ele>359.0</ele><time>2026-04-18T11:42:27.213Z</time></trkpt><trkpt lat="43.6913429" lon="11.515984"><ele>359.0</ele><time>2026-04-18T11:42:28.211Z</time></trkpt><trkpt lat="43.6914584" lon="11.5161349"><ele>359.0</ele><time>2026-04-18T11:42:29.208Z</time></trkpt><trkpt lat="43.6915688" lon="11.5162825"><ele>359.0</ele><time>2026-04-18T11:42:30.209Z</time></trkpt><trkpt lat="43.6916847" lon="11.516429"><ele>359.0</ele><time>2026-04-18T11:42:31.212Z</time></trkpt><trkpt lat="43.6918017" lon="11.5165818"><ele>359.0</ele><time>2026-04-18T11:42:32.203Z</time></trkpt><trkpt lat="43.6919194" lon="11.5167343"><ele>359.0</ele><time>2026-04-18T11:42:33.203Z</time></trkpt><trkpt lat="43.692041" lon="11.5168791"><ele>361.33333333333337</ele><time>2026-04-18T11:42:34.215Z</time></trkpt><trkpt lat="43.6921776" lon="11.5170135"><ele>363.6666666666667</ele><time>2026-04-18T11:42:35.209Z</time></trkpt><trkpt lat="43.6923226" lon="11.5171235"><ele>366.0</ele><time>2026-04-18T11:42:36.212Z</time></trkpt><trkpt lat="43.6924702" lon="11.5172247"><ele>366.0</ele><time>2026-04-18T11:42:37.207Z</time></trkpt><trkpt lat="43.6926148" lon="11.5173221"><ele>366.0</ele><time>2026-04-18T11:42:38.207Z</time></trkpt><trkpt lat="43.6927647" lon="11.5174199"><ele>366.0</ele><time>2026-04-18T11:42:39.214Z</time></trkpt><trkpt lat="43.6929188" lon="11.5175225"><ele>369.3333333333333</ele><time>2026-04-18T11:42:40.211Z</time></trkpt><trkpt lat="43.6930699" lon="11.5176265"><ele>372.66666666666663</ele><time>2026-04-18T11:42:41.208Z</time></trkpt><trkpt lat="43.693226" lon="11.5177286"><ele>376.0</ele><time>2026-04-18T11:42:42.205Z</time></trkpt><trkpt lat="43.6933775" lon="11.517828"><ele>376.3333333333333</ele><time>2026-04-18T11:42:43.215Z</time></trkpt><trkpt lat="43.6935324" lon="11.517924"><ele>376.6666666666667</ele><time>2026-04-18T11:42:44.207Z</time></trkpt><trkpt lat="43.6936816" lon="11.5180193"><ele>377.0</ele><time>2026-04-18T11:42:45.203Z</time></trkpt><trkpt lat="43.6938262" lon="11.5181214"><ele>377.5</ele><time>2026-04-18T11:42:46.204Z</time></trkpt><trkpt lat="43.6939687" lon="11.5182197"><ele>378.0</ele><time>2026-04-18T11:42:47.206Z</time></trkpt><trkpt lat="43.6941031" lon="11.5183097"><ele>378.5</ele><time>2026-04-18T11:42:48.207Z</time></trkpt><trkpt lat="43.6942151" lon="11.5183863"><ele>379.0</ele><time>2026-04-18T11:42:49.212Z</time></trkpt><trkpt lat="43.6943166" lon="11.5184474"><ele>379.0</ele><time>2026-04-18T11:42:50.204Z</time></trkpt><trkpt lat="43.6944117" lon="11.5184744"><ele>379.0</ele><time>2026-04-18T11:42:51.215Z</time></trkpt><trkpt lat="43.6945032" lon="11.5184571"><ele>379.0</ele><time>2026-04-18T11:42:52.204Z</time></trkpt><trkpt lat="43.6945852" lon="11.5183933"><ele>379.0</ele><time>2026-04-18T11:42:53.203Z</time></trkpt><trkpt lat="43.6946496" lon="11.5182954"><ele>379.0</ele><time>2026-04-18T11:42:54.207Z</time></trkpt><trkpt lat="43.6946945" lon="11.5181896"><ele>379.0</ele><time>2026-04-18T11:42:55.211Z</time></trkpt><trkpt lat="43.6947216" lon="11.5180733"><ele>379.0</ele><time>2026-04-18T11:42:56.212Z</time></trkpt><trkpt lat="43.694753" lon="11.5179561"><ele>379.0</ele><time>2026-04-18T11:42:57.212Z</time></trkpt><trkpt lat="43.6947936" lon="11.5178529"><ele>379.0</ele><time>2026-04-18T11:42:58.209Z</time></trkpt><trkpt lat="43.6949066" lon="11.5178096"><ele>379.0</ele><time>2026-04-18T11:42:59.214Z</time></trkpt><trkpt lat="43.6949939" lon="11.5177616"><ele>379.0</ele><time>2026-04-18T11:43:00.209Z</time></trkpt><trkpt lat="43.6951138" lon="11.5177286"><ele>379.0</ele><time>2026-04-18T11:43:01.208Z</time></trkpt><trkpt lat="43.6952229" lon="11.5176926"><ele>379.0</ele><time>2026-04-18T11:43:02.207Z</time></trkpt><trkpt lat="43.6953338" lon="11.5176662"><ele>379.0</ele><time>2026-04-18T11:43:03.202Z</time></trkpt><trkpt lat="43.6954339" lon="11.5176401"><ele>379.0</ele><time>2026-04-18T11:43:04.202Z</time></trkpt><trkpt lat="43.6955365" lon="11.5176471"><ele>380.0</ele><time>2026-04-18T11:43:05.204Z</time></trkpt><trkpt lat="43.6956212" lon="11.5177092"><ele>381.0</ele><time>2026-04-18T11:43:06.202Z</time></trkpt><trkpt lat="43.6956812" lon="11.5178217"><ele>382.0</ele><time>2026-04-18T11:43:07.21Z</time></trkpt><trkpt lat="43.6957229" lon="11.5179663"><ele>383.0</ele><time>2026-04-18T11:43:08.206Z</time></trkpt><trkpt lat="43.6957637" lon="11.5181204"><ele>384.0</ele><time>2026-04-18T11:43:09.212Z</time></trkpt><trkpt lat="43.6958017" lon="11.5182703"><ele>386.0</ele><time>2026-04-18T11:43:10.204Z</time></trkpt><trkpt lat="43.6958461" lon="11.518427"><ele>388.0</ele><time>2026-04-18T11:43:11.215Z</time></trkpt><trkpt lat="43.6958883" lon="11.5185853"><ele>390.0</ele><time>2026-04-18T11:43:12.206Z</time></trkpt><trkpt lat="43.6959307" lon="11.5187479"><ele>392.0</ele><time>2026-04-18T11:43:13.205Z</time></trkpt><trkpt lat="43.6959734" lon="11.5189215"><ele>392.75</ele><time>2026-04-18T11:43:14.216Z</time></trkpt><trkpt lat="43.6960173" lon="11.5190999"><ele>393.5</ele><time>2026-04-18T11:43:15.206Z</time></trkpt><trkpt lat="43.6960628" lon="11.5192785"><ele>394.25</ele><time>2026-04-18T11:43:16.206Z</time></trkpt><trkpt lat="43.6960999" lon="11.5194354"><ele>395.0</ele><time>2026-04-18T11:43:17.207Z</time></trkpt><trkpt lat="43.6961323" lon="11.519568"><ele>396.16666666666663</ele><time>2026-04-18T11:43:18.205Z</time></trkpt><trkpt lat="43.6961654" lon="11.519692"><ele>397.3333333333333</ele><time>2026-04-18T11:43:19.213Z</time></trkpt><trkpt lat="43.6961936" lon="11.5198123"><ele>398.5</ele><time>2026-04-18T11:43:20.215Z</time></trkpt><trkpt lat="43.6962232" lon="11.5199239"><ele>399.66666666666663</ele><time>2026-04-18T11:43:21.212Z</time></trkpt><trkpt lat="43.6962524" lon="11.520028"><ele>400.8333333333333</ele><time>2026-04-18T11:43:22.206Z</time></trkpt><trkpt lat="43.6962675" lon="11.5201146"><ele>402.0</ele><time>2026-04-18T11:43:23.203Z</time></trkpt><trkpt lat="43.6962308" lon="11.5202368"><ele>402.0</ele><time>2026-04-18T11:43:25.212Z</time></trkpt><trkpt lat="43.6961797" lon="11.5202919"><ele>402.0</ele><time>2026-04-18T11:43:26.202Z</time></trkpt><trkpt lat="43.6961123" lon="11.5203595"><ele>402.0</ele><time>2026-04-18T11:43:27.213Z</time></trkpt><trkpt lat="43.6960476" lon="11.5204286"><ele>402.0</ele><time>2026-04-18T11:43:28.208Z</time></trkpt><trkpt lat="43.695987" lon="11.5205105"><ele>402.0</ele><time>2026-04-18T11:43:29.206Z</time></trkpt><trkpt lat="43.695927" lon="11.5206216"><ele>402.0</ele><time>2026-04-18T11:43:30.209Z</time></trkpt><trkpt lat="43.6958682" lon="11.5207365"><ele>402.8</ele><time>2026-04-18T11:43:31.21Z</time></trkpt><trkpt lat="43.6957938" lon="11.5208506"><ele>403.6</ele><time>2026-04-18T11:43:32.209Z</time></trkpt><trkpt lat="43.6957273" lon="11.520967"><ele>404.40000000000003</ele><time>2026-04-18T11:43:33.21Z</time></trkpt><trkpt lat="43.6956648" lon="11.5210792"><ele>405.20000000000005</ele><time>2026-04-18T11:43:34.21Z</time></trkpt><trkpt lat="43.6956025" lon="11.5211704"><ele>406.0</ele><time>2026-04-18T11:43:35.21Z</time></trkpt><trkpt lat="43.6955429" lon="11.5212503"><ele>406.50000000000006</ele><time>2026-04-18T11:43:36.209Z</time></trkpt><trkpt lat="43.6954802" lon="11.5213182"><ele>407.0</ele><time>2026-04-18T11:43:37.21Z</time></trkpt><trkpt lat="43.6954122" lon="11.5213703"><ele>407.5</ele><time>2026-04-18T11:43:38.21Z</time></trkpt><trkpt lat="43.6953368" lon="11.5214241"><ele>408.0</ele><time>2026-04-18T11:43:39.21Z</time></trkpt><trkpt lat="43.6952646" lon="11.521469"><ele>408.50000000000006</ele><time>2026-04-18T11:43:40.21Z</time></trkpt><trkpt lat="43.6951997" lon="11.5215061"><ele>409.0</ele><time>2026-04-18T11:43:41.21Z</time></trkpt><trkpt lat="43.6951398" lon="11.5215512"><ele>407.83333333333337</ele><time>2026-04-18T11:43:42.21Z</time></trkpt><trkpt lat="43.6951084" lon="11.5216689"><ele>406.6666666666667</ele><time>2026-04-18T11:43:44.209Z</time></trkpt><trkpt lat="43.6951234" lon="11.5217542"><ele>405.5</ele><time>2026-04-18T11:43:45.21Z</time></trkpt><trkpt lat="43.6951424" lon="11.5218631"><ele>404.33333333333337</ele><time>2026-04-18T11:43:46.21Z</time></trkpt><trkpt lat="43.6951521" lon="11.5219851"><ele>403.1666666666667</ele><time>2026-04-18T11:43:47.209Z</time></trkpt><trkpt lat="43.6951623" lon="11.5221146"><ele>402.0</ele><time>2026-04-18T11:43:48.209Z</time></trkpt><trkpt lat="43.6951737" lon="11.5222533"><ele>402.0</ele><time>2026-04-18T11:43:49.21Z</time></trkpt><trkpt lat="43.6951856" lon="11.5224017"><ele>402.0</ele><time>2026-04-18T11:43:50.209Z</time></trkpt><trkpt lat="43.6952004" lon="11.5225514"><ele>402.0</ele><time>2026-04-18T11:43:51.21Z</time></trkpt><trkpt lat="43.6952126" lon="11.5226936"><ele>402.0</ele><time>2026-04-18T11:43:52.21Z</time></trkpt><trkpt lat="43.695222" lon="11.5228094"><ele>402.0</ele><time>2026-04-18T11:43:53.209Z</time></trkpt><trkpt lat="43.695227" lon="11.5229325"><ele>402.40000000000003</ele><time>2026-04-18T11:43:54.209Z</time></trkpt><trkpt lat="43.6952247" lon="11.5230737"><ele>402.8</ele><time>2026-04-18T11:43:55.21Z</time></trkpt><trkpt lat="43.6952124" lon="11.5232261"><ele>403.2</ele><time>2026-04-18T11:43:56.21Z</time></trkpt><trkpt lat="43.6952097" lon="11.5233817"><ele>403.6</ele><time>2026-04-18T11:43:57.209Z</time></trkpt><trkpt lat="43.6952012" lon="11.5235367"><ele>404.0</ele><time>2026-04-18T11:43:58.21Z</time></trkpt><trkpt lat="43.6951952" lon="11.5236848"><ele>405.0</ele><time>2026-04-18T11:43:59.209Z</time></trkpt><trkpt lat="43.6951931" lon="11.5238221"><ele>406.0</ele><time>2026-04-18T11:44:00.21Z</time></trkpt><trkpt lat="43.695184" lon="11.5239336"><ele>407.0</ele><time>2026-04-18T11:44:01.209Z</time></trkpt><trkpt lat="43.6951655" lon="11.5240231"><ele>408.0</ele><time>2026-04-18T11:44:02.21Z</time></trkpt><trkpt lat="43.6950989" lon="11.5241469"><ele>409.0</ele><time>2026-04-18T11:44:04.209Z</time></trkpt><trkpt lat="43.6950047" lon="11.5241451"><ele>409.0</ele><time>2026-04-18T11:44:06.21Z</time></trkpt><trkpt lat="43.6949554" lon="11.5240862"><ele>409.0</ele><time>2026-04-18T11:44:07.21Z</time></trkpt><trkpt lat="43.6949085" lon="11.5240157"><ele>409.0</ele><time>2026-04-18T11:44:08.209Z</time></trkpt><trkpt lat="43.694857" lon="11.5239451"><ele>409.0</ele><time>2026-04-18T11:44:09.21Z</time></trkpt><trkpt lat="43.6947921" lon="11.5238931"><ele>409.0</ele><time>2026-04-18T11:44:10.21Z</time></trkpt><trkpt lat="43.6947555" lon="11.5239787"><ele>409.0</ele><time>2026-04-18T11:44:14.21Z</time></trkpt><trkpt lat="43.6947607" lon="11.5240712"><ele>409.0</ele><time>2026-04-18T11:44:16.21Z</time></trkpt><trkpt lat="43.694814" lon="11.5242111"><ele>409.0</ele><time>2026-04-18T11:44:18.21Z</time></trkpt><trkpt lat="43.6948098" lon="11.5244018"><ele>409.0</ele><time>2026-04-18T11:44:20.209Z</time></trkpt><trkpt lat="43.6948109" lon="11.5245346"><ele>409.0</ele><time>2026-04-18T11:44:21.21Z</time></trkpt><trkpt lat="43.694802" lon="11.5246562"><ele>409.0</ele><time>2026-04-18T11:44:22.21Z</time></trkpt><trkpt lat="43.694797" lon="11.524799"><ele>409.0</ele><time>2026-04-18T11:44:23.21Z</time></trkpt><trkpt lat="43.6947966" lon="11.524927"><ele>410.1666666666667</ele><time>2026-04-18T11:44:24.21Z</time></trkpt><trkpt lat="43.6948008" lon="11.5250234"><ele>411.33333333333337</ele><time>2026-04-18T11:44:25.21Z</time></trkpt><trkpt lat="43.6948172" lon="11.525115"><ele>412.5</ele><time>2026-04-18T11:44:26.21Z</time></trkpt><trkpt lat="43.6948503" lon="11.525213"><ele>413.66666666666663</ele><time>2026-04-18T11:44:27.21Z</time></trkpt><trkpt lat="43.6949023" lon="11.5253251"><ele>414.8333333333333</ele><time>2026-04-18T11:44:28.209Z</time></trkpt><trkpt lat="43.6949365" lon="11.5254415"><ele>416.0</ele><time>2026-04-18T11:44:29.21Z</time></trkpt><trkpt lat="43.6949632" lon="11.52555"><ele>416.4</ele><time>2026-04-18T11:44:30.21Z</time></trkpt><trkpt lat="43.694998" lon="11.5256556"><ele>416.8</ele><time>2026-04-18T11:44:31.21Z</time></trkpt><trkpt lat="43.6950432" lon="11.5257691"><ele>417.2</ele><time>2026-04-18T11:44:32.209Z</time></trkpt><trkpt lat="43.6951014" lon="11.525883"><ele>417.59999999999997</ele><time>2026-04-18T11:44:33.21Z</time></trkpt><trkpt lat="43.6951673" lon="11.5260017"><ele>418.0</ele><time>2026-04-18T11:44:34.209Z</time></trkpt><trkpt lat="43.6952454" lon="11.5261268"><ele>420.2</ele><time>2026-04-18T11:44:35.209Z</time></trkpt><trkpt lat="43.6953217" lon="11.5262496"><ele>422.4</ele><time>2026-04-18T11:44:36.21Z</time></trkpt><trkpt lat="43.6953964" lon="11.5263707"><ele>424.59999999999997</ele><time>2026-04-18T11:44:37.21Z</time></trkpt><trkpt lat="43.6954685" lon="11.5264827"><ele>426.79999999999995</ele><time>2026-04-18T11:44:38.209Z</time></trkpt><trkpt lat="43.6955417" lon="11.5265931"><ele>429.0</ele><time>2026-04-18T11:44:39.21Z</time></trkpt><trkpt lat="43.695606" lon="11.5266833"><ele>429.0</ele><time>2026-04-18T11:44:40.209Z</time></trkpt><trkpt lat="43.6956724" lon="11.5267577"><ele>429.0</ele><time>2026-04-18T11:44:41.21Z</time></trkpt><trkpt lat="43.6957488" lon="11.5268103"><ele>429.0</ele><time>2026-04-18T11:44:42.21Z</time></trkpt><trkpt lat="43.6958255" lon="11.5268827"><ele>429.0</ele><time>2026-04-18T11:44:43.21Z</time></trkpt><trkpt lat="43.695889" lon="11.5269441"><ele>429.0</ele><time>2026-04-18T11:44:44.21Z</time></trkpt><trkpt lat="43.6959509" lon="11.5270085"><ele>429.0</ele><time>2026-04-18T11:44:45.209Z</time></trkpt><trkpt lat="43.6960126" lon="11.5270712"><ele>431.4</ele><time>2026-04-18T11:44:46.209Z</time></trkpt><trkpt lat="43.6961149" lon="11.5271768"><ele>433.79999999999995</ele><time>2026-04-18T11:44:48.21Z</time></trkpt><trkpt lat="43.6961566" lon="11.5272483"><ele>436.20000000000005</ele><time>2026-04-18T11:44:49.209Z</time></trkpt><trkpt lat="43.6962025" lon="11.5273171"><ele>438.6</ele><time>2026-04-18T11:44:50.21Z</time></trkpt><trkpt lat="43.6962758" lon="11.5274278"><ele>441.0</ele><time>2026-04-18T11:44:52.209Z</time></trkpt><trkpt lat="43.6962841" lon="11.5275915"><ele>441.0</ele><time>2026-04-18T11:44:54.209Z</time></trkpt><trkpt lat="43.6962959" lon="11.5277704"><ele>441.0</ele><time>2026-04-18T11:44:56.209Z</time></trkpt><trkpt lat="43.6963153" lon="11.5278599"><ele>441.0</ele><time>2026-04-18T11:44:57.21Z</time></trkpt><trkpt lat="43.6963474" lon="11.5279512"><ele>441.0</ele><time>2026-04-18T11:44:58.21Z</time></trkpt><trkpt lat="43.6964437" lon="11.5280497"><ele>441.0</ele><time>2026-04-18T11:45:00.21Z</time></trkpt><trkpt lat="43.6965564" lon="11.5280971"><ele>444.4</ele><time>2026-04-18T11:45:02.21Z</time></trkpt><trkpt lat="43.6966646" lon="11.5281621"><ele>447.8</ele><time>2026-04-18T11:45:04.21Z</time></trkpt><trkpt lat="43.6967813" lon="11.5282065"><ele>451.19999999999993</ele><time>2026-04-18T11:45:06.21Z</time></trkpt><trkpt lat="43.6968958" lon="11.5282275"><ele>454.59999999999997</ele><time>2026-04-18T11:45:08.21Z</time></trkpt><trkpt lat="43.6969791" lon="11.5282286"><ele>458.0</ele><time>2026-04-18T11:45:10.21Z</time></trkpt><trkpt lat="43.6970529" lon="11.5282758"><ele>457.99999999999994</ele><time>2026-04-18T11:45:12.21Z</time></trkpt><trkpt lat="43.697125" lon="11.528359"><ele>458.0</ele><time>2026-04-18T11:45:14.21Z</time></trkpt><trkpt lat="43.6970714" lon="11.5282983"><ele>458.0</ele><time>2026-04-18T11:45:38.21Z</time></trkpt><trkpt lat="43.6970158" lon="11.5282354"><ele>458.0</ele><time>2026-04-18T11:45:44.21Z</time></trkpt><trkpt lat="43.6970733" lon="11.5282911"><ele>457.99999999999994</ele><time>2026-04-18T11:48:55.209Z</time></trkpt><trkpt lat="43.6971155" lon="11.5283626"><ele>458.0</ele><time>2026-04-18T11:48:57.21Z</time></trkpt><trkpt lat="43.6970745" lon="11.5284574"><ele>457.99999999999994</ele><time>2026-04-18T11:48:59.21Z</time></trkpt><trkpt lat="43.6969797" lon="11.5285232"><ele>458.0</ele><time>2026-04-18T11:49:01.21Z</time></trkpt><trkpt lat="43.6969132" lon="11.5285734"><ele>458.0</ele><time>2026-04-18T11:49:02.21Z</time></trkpt><trkpt lat="43.6968519" lon="11.5286288"><ele>458.0</ele><time>2026-04-18T11:49:03.21Z</time></trkpt><trkpt lat="43.6967708" lon="11.5287086"><ele>457.99999999999994</ele><time>2026-04-18T11:49:05.21Z</time></trkpt><trkpt lat="43.6967862" lon="11.5288209"><ele>458.0</ele><time>2026-04-18T11:49:13.209Z</time></trkpt><trkpt lat="43.6968626" lon="11.528802"><ele>457.99999999999994</ele><time>2026-04-18T11:49:15.209Z</time></trkpt><trkpt lat="43.6969418" lon="11.5287173"><ele>458.0</ele><time>2026-04-18T11:49:17.21Z</time></trkpt><trkpt lat="43.6970186" lon="11.528688"><ele>458.0</ele><time>2026-04-18T11:49:18.21Z</time></trkpt><trkpt lat="43.6970831" lon="11.5286795"><ele>458.0</ele><time>2026-04-18T11:49:19.21Z</time></trkpt><trkpt lat="43.6971612" lon="11.5287128"><ele>457.99999999999994</ele><time>2026-04-18T11:49:20.21Z</time></trkpt><trkpt lat="43.6972654" lon="11.5287924"><ele>458.0</ele><time>2026-04-18T11:49:22.209Z</time></trkpt><trkpt lat="43.697189" lon="11.5289113"><ele>459.3333333333333</ele><time>2026-04-18T11:49:24.209Z</time></trkpt><trkpt lat="43.6971017" lon="11.5290075"><ele>460.66666666666663</ele><time>2026-04-18T11:49:26.21Z</time></trkpt><trkpt lat="43.6970452" lon="11.5290695"><ele>462.0</ele><time>2026-04-18T11:49:27.21Z</time></trkpt><trkpt lat="43.6969849" lon="11.5291453"><ele>463.33333333333337</ele><time>2026-04-18T11:49:28.209Z</time></trkpt><trkpt lat="43.6969034" lon="11.5292117"><ele>464.6666666666667</ele><time>2026-04-18T11:49:29.21Z</time></trkpt><trkpt lat="43.696846" lon="11.529282"><ele>466.0</ele><time>2026-04-18T11:49:30.21Z</time></trkpt><trkpt lat="43.6967833" lon="11.5293386"><ele>466.83333333333337</ele><time>2026-04-18T11:49:31.21Z</time></trkpt><trkpt lat="43.6967281" lon="11.5293991"><ele>467.6666666666667</ele><time>2026-04-18T11:49:32.209Z</time></trkpt><trkpt lat="43.6966714" lon="11.5295013"><ele>468.5</ele><time>2026-04-18T11:49:34.209Z</time></trkpt><trkpt lat="43.6966623" lon="11.5296678"><ele>469.33333333333337</ele><time>2026-04-18T11:49:36.21Z</time></trkpt><trkpt lat="43.6966677" lon="11.5297562"><ele>470.1666666666667</ele><time>2026-04-18T11:49:37.21Z</time></trkpt><trkpt lat="43.6966892" lon="11.529869"><ele>471.0</ele><time>2026-04-18T11:49:38.209Z</time></trkpt><trkpt lat="43.696736" lon="11.5299655"><ele>471.5</ele><time>2026-04-18T11:49:39.21Z</time></trkpt><trkpt lat="43.6967775" lon="11.530052"><ele>472.0</ele><time>2026-04-18T11:49:40.21Z</time></trkpt><trkpt lat="43.6968217" lon="11.5301293"><ele>472.5</ele><time>2026-04-18T11:49:41.21Z</time></trkpt><trkpt lat="43.6968723" lon="11.5302213"><ele>473.0</ele><time>2026-04-18T11:49:42.209Z</time></trkpt><trkpt lat="43.6969404" lon="11.5303074"><ele>473.5</ele><time>2026-04-18T11:49:44.21Z</time></trkpt><trkpt lat="43.6969832" lon="11.5303803"><ele>474.0</ele><time>2026-04-18T11:49:47.21Z</time></trkpt><trkpt lat="43.6970389" lon="11.5304814"><ele>475.0</ele><time>2026-04-18T11:49:50.21Z</time></trkpt><trkpt lat="43.6970856" lon="11.5305892"><ele>476.0</ele><time>2026-04-18T11:49:52.21Z</time></trkpt><trkpt lat="43.6971173" lon="11.5306964"><ele>477.0</ele><time>2026-04-18T11:49:54.21Z</time></trkpt><trkpt lat="43.6971282" lon="11.5308172"><ele>478.0</ele><time>2026-04-18T11:49:56.21Z</time></trkpt><trkpt lat="43.6971228" lon="11.5309487"><ele>479.0</ele><time>2026-04-18T11:49:58.209Z</time></trkpt><trkpt lat="43.6971191" lon="11.5311102"><ele>478.99999999999994</ele><time>2026-04-18T11:50:00.21Z</time></trkpt><trkpt lat="43.6971068" lon="11.5312102"><ele>479.0</ele><time>2026-04-18T11:50:01.21Z</time></trkpt><trkpt lat="43.6970829" lon="11.5313082"><ele>479.0</ele><time>2026-04-18T11:50:02.21Z</time></trkpt><trkpt lat="43.6970491" lon="11.5314104"><ele>479.0</ele><time>2026-04-18T11:50:03.21Z</time></trkpt><trkpt lat="43.6970127" lon="11.5315128"><ele>478.99999999999994</ele><time>2026-04-18T11:50:04.21Z</time></trkpt><trkpt lat="43.6969727" lon="11.5316147"><ele>479.0</ele><time>2026-04-18T11:50:05.209Z</time></trkpt><trkpt lat="43.6969281" lon="11.5317108"><ele>482.79999999999995</ele><time>2026-04-18T11:50:06.209Z</time></trkpt><trkpt lat="43.6968825" lon="11.5318068"><ele>486.59999999999997</ele><time>2026-04-18T11:50:07.21Z</time></trkpt><trkpt lat="43.6968406" lon="11.5319023"><ele>490.4</ele><time>2026-04-18T11:50:08.21Z</time></trkpt><trkpt lat="43.6967976" lon="11.5319988"><ele>494.2</ele><time>2026-04-18T11:50:09.209Z</time></trkpt><trkpt lat="43.6967189" lon="11.5321299"><ele>498.0</ele><time>2026-04-18T11:50:11.209Z</time></trkpt><trkpt lat="43.6966344" lon="11.5322216"><ele>499.4285714285714</ele><time>2026-04-18T11:50:13.209Z</time></trkpt><trkpt lat="43.6965777" lon="11.5322725"><ele>500.8571428571428</ele><time>2026-04-18T11:50:15.21Z</time></trkpt><trkpt lat="43.6965263" lon="11.53234"><ele>502.2857142857143</ele><time>2026-04-18T11:50:17.21Z</time></trkpt><trkpt lat="43.6964633" lon="11.5324128"><ele>503.71428571428567</ele><time>2026-04-18T11:50:19.209Z</time></trkpt><trkpt lat="43.6964071" lon="11.5324957"><ele>505.1428571428571</ele><time>2026-04-18T11:50:21.21Z</time></trkpt><trkpt lat="43.6963635" lon="11.53257"><ele>506.57142857142856</ele><time>2026-04-18T11:50:23.209Z</time></trkpt><trkpt lat="43.6963324" lon="11.5326609"><ele>508.0</ele><time>2026-04-18T11:50:30.21Z</time></trkpt><trkpt lat="43.6962411" lon="11.5327488"><ele>508.0</ele><time>2026-04-18T11:50:32.21Z</time></trkpt><trkpt lat="43.6961736" lon="11.5328168"><ele>507.99999999999994</ele><time>2026-04-18T11:50:34.21Z</time></trkpt><trkpt lat="43.696154" lon="11.5329404"><ele>507.99999999999994</ele><time>2026-04-18T11:50:36.209Z</time></trkpt><trkpt lat="43.6961791" lon="11.5330646"><ele>508.0</ele><time>2026-04-18T11:50:38.209Z</time></trkpt><trkpt lat="43.6962017" lon="11.533226"><ele>508.0</ele><time>2026-04-18T11:50:40.209Z</time></trkpt><trkpt lat="43.6962142" lon="11.5333258"><ele>510.00000000000006</ele><time>2026-04-18T11:50:41.21Z</time></trkpt><trkpt lat="43.6962281" lon="11.5334341"><ele>512.0</ele><time>2026-04-18T11:50:42.209Z</time></trkpt><trkpt lat="43.6962418" lon="11.5335458"><ele>514.0</ele><time>2026-04-18T11:50:43.209Z</time></trkpt><trkpt lat="43.6962643" lon="11.5336565"><ele>516.0</ele><time>2026-04-18T11:50:44.209Z</time></trkpt><trkpt lat="43.6963009" lon="11.5337572"><ele>518.0</ele><time>2026-04-18T11:50:45.209Z</time></trkpt><trkpt lat="43.6963472" lon="11.5338459"><ele>520.0</ele><time>2026-04-18T11:50:46.209Z</time></trkpt><trkpt lat="43.6963985" lon="11.5339342"><ele>522.8333333333334</ele><time>2026-04-18T11:50:47.21Z</time></trkpt><trkpt lat="43.6964544" lon="11.5340183"><ele>525.6666666666667</ele><time>2026-04-18T11:50:48.21Z</time></trkpt><trkpt lat="43.696511" lon="11.534101"><ele>528.5</ele><time>2026-04-18T11:50:49.21Z</time></trkpt><trkpt lat="43.6965764" lon="11.5341913"><ele>531.3333333333334</ele><time>2026-04-18T11:50:50.21Z</time></trkpt><trkpt lat="43.6966419" lon="11.5342812"><ele>534.1666666666666</ele><time>2026-04-18T11:50:51.209Z</time></trkpt><trkpt lat="43.6967006" lon="11.5343623"><ele>537.0</ele><time>2026-04-18T11:50:52.21Z</time></trkpt><trkpt lat="43.6967574" lon="11.5344545"><ele>537.0</ele><time>2026-04-18T11:50:53.21Z</time></trkpt><trkpt lat="43.6968097" lon="11.5345457"><ele>537.0</ele><time>2026-04-18T11:50:54.209Z</time></trkpt><trkpt lat="43.6968663" lon="11.5346365"><ele>537.0</ele><time>2026-04-18T11:50:55.21Z</time></trkpt><trkpt lat="43.6969236" lon="11.5347397"><ele>537.0</ele><time>2026-04-18T11:50:56.209Z</time></trkpt><trkpt lat="43.6969781" lon="11.5348537"><ele>537.0</ele><time>2026-04-18T11:50:57.21Z</time></trkpt><trkpt lat="43.6970366" lon="11.5349625"><ele>539.2</ele><time>2026-04-18T11:50:58.209Z</time></trkpt><trkpt lat="43.6971024" lon="11.5350651"><ele>541.4000000000001</ele><time>2026-04-18T11:50:59.21Z</time></trkpt><trkpt lat="43.6971765" lon="11.5351387"><ele>543.5999999999999</ele><time>2026-04-18T11:51:00.21Z</time></trkpt><trkpt lat="43.6972463" lon="11.5352073"><ele>545.8</ele><time>2026-04-18T11:51:01.209Z</time></trkpt><trkpt lat="43.6973043" lon="11.5352726"><ele>548.0</ele><time>2026-04-18T11:51:02.209Z</time></trkpt><trkpt lat="43.6973932" lon="11.5353761"><ele>546.8571428571429</ele><time>2026-04-18T11:51:04.21Z</time></trkpt><trkpt lat="43.6974508" lon="11.5354306"><ele>545.7142857142858</ele><time>2026-04-18T11:51:05.21Z</time></trkpt><trkpt lat="43.6975073" lon="11.5354926"><ele>544.5714285714286</ele><time>2026-04-18T11:51:06.21Z</time></trkpt><trkpt lat="43.6975616" lon="11.5355539"><ele>543.4285714285714</ele><time>2026-04-18T11:51:07.21Z</time></trkpt><trkpt lat="43.6976176" lon="11.5356171"><ele>542.2857142857142</ele><time>2026-04-18T11:51:08.21Z</time></trkpt><trkpt lat="43.697673" lon="11.5356829"><ele>541.1428571428571</ele><time>2026-04-18T11:51:09.209Z</time></trkpt><trkpt lat="43.697728" lon="11.5357484"><ele>540.0</ele><time>2026-04-18T11:51:10.209Z</time></trkpt><trkpt lat="43.6977792" lon="11.5358145"><ele>540.0</ele><time>2026-04-18T11:51:11.21Z</time></trkpt><trkpt lat="43.697863" lon="11.5359171"><ele>540.0</ele><time>2026-04-18T11:51:13.21Z</time></trkpt><trkpt lat="43.697935" lon="11.5360394"><ele>540.0</ele><time>2026-04-18T11:51:15.209Z</time></trkpt><trkpt lat="43.6980028" lon="11.5361592"><ele>540.0</ele><time>2026-04-18T11:51:17.21Z</time></trkpt><trkpt lat="43.6980713" lon="11.5362836"><ele>540.0</ele><time>2026-04-18T11:51:19.21Z</time></trkpt><trkpt lat="43.6981092" lon="11.5363558"><ele>543.1666666666666</ele><time>2026-04-18T11:51:20.209Z</time></trkpt><trkpt lat="43.6981513" lon="11.5364275"><ele>546.3333333333334</ele><time>2026-04-18T11:51:21.21Z</time></trkpt><trkpt lat="43.6981931" lon="11.5364971"><ele>549.5</ele><time>2026-04-18T11:51:22.209Z</time></trkpt><trkpt lat="43.6982337" lon="11.536568"><ele>552.6666666666667</ele><time>2026-04-18T11:51:23.21Z</time></trkpt><trkpt lat="43.6982704" lon="11.536642"><ele>555.8333333333334</ele><time>2026-04-18T11:51:24.209Z</time></trkpt><trkpt lat="43.6983431" lon="11.5367856"><ele>559.0</ele><time>2026-04-18T11:51:26.21Z</time></trkpt><trkpt lat="43.6983908" lon="11.5368442"><ele>559.0</ele><time>2026-04-18T11:51:27.21Z</time></trkpt><trkpt lat="43.6984842" lon="11.5369127"><ele>559.0</ele><time>2026-04-18T11:51:29.209Z</time></trkpt><trkpt lat="43.6985371" lon="11.5369731"><ele>559.0</ele><time>2026-04-18T11:52:36.21Z</time></trkpt><trkpt lat="43.6986046" lon="11.5370397"><ele>559.0</ele><time>2026-04-18T11:53:16.209Z</time></trkpt><trkpt lat="43.6986837" lon="11.5371002"><ele>559.0</ele><time>2026-04-18T11:53:17.21Z</time></trkpt><trkpt lat="43.6987627" lon="11.5372146"><ele>557.0</ele><time>2026-04-18T11:53:19.209Z</time></trkpt><trkpt lat="43.6988119" lon="11.537272"><ele>555.0</ele><time>2026-04-18T11:53:20.209Z</time></trkpt><trkpt lat="43.6989355" lon="11.5373401"><ele>553.0</ele><time>2026-04-18T11:53:22.21Z</time></trkpt><trkpt lat="43.6989976" lon="11.5373751"><ele>551.0</ele><time>2026-04-18T11:53:23.21Z</time></trkpt><trkpt lat="43.6991198" lon="11.5374818"><ele>549.0</ele><time>2026-04-18T11:53:25.21Z</time></trkpt><trkpt lat="43.699182" lon="11.5375682"><ele>549.0</ele><time>2026-04-18T11:53:27.21Z</time></trkpt><trkpt lat="43.6992128" lon="11.5376686"><ele>549.0</ele><time>2026-04-18T11:53:36.21Z</time></trkpt><trkpt lat="43.6992334" lon="11.5377634"><ele>549.0</ele><time>2026-04-18T11:53:40.21Z</time></trkpt><trkpt lat="43.6992139" lon="11.5376661"><ele>549.0</ele><time>2026-04-18T11:54:47.21Z</time></trkpt><trkpt lat="43.6991675" lon="11.5375745"><ele>549.0</ele><time>2026-04-18T11:54:50.21Z</time></trkpt><trkpt lat="43.6991039" lon="11.53746"><ele>549.0</ele><time>2026-04-18T11:54:52.21Z</time></trkpt><trkpt lat="43.6990497" lon="11.5373724"><ele>549.0</ele><time>2026-04-18T11:54:54.21Z</time></trkpt><trkpt lat="43.6990231" lon="11.5372865"><ele>549.0</ele><time>2026-04-18T11:54:56.21Z</time></trkpt><trkpt lat="43.6990085" lon="11.537198"><ele>549.0</ele><time>2026-04-18T11:54:58.209Z</time></trkpt><trkpt lat="43.6989749" lon="11.5371097"><ele>549.0</ele><time>2026-04-18T11:55:00.209Z</time></trkpt><trkpt lat="43.6989229" lon="11.5370345"><ele>549.0</ele><time>2026-04-18T11:55:02.21Z</time></trkpt><trkpt lat="43.6988493" lon="11.5369955"><ele>549.0</ele><time>2026-04-18T11:55:04.21Z</time></trkpt><trkpt lat="43.6987858" lon="11.5369939"><ele>549.0</ele><time>2026-04-18T11:55:06.21Z</time></trkpt><trkpt lat="43.6986623" lon="11.5370042"><ele>550.6666666666666</ele><time>2026-04-18T11:55:10.21Z</time></trkpt><trkpt lat="43.6985762" lon="11.5369964"><ele>552.3333333333334</ele><time>2026-04-18T11:55:41.209Z</time></trkpt><trkpt lat="43.6985199" lon="11.5369367"><ele>554.0</ele><time>2026-04-18T11:56:30.209Z</time></trkpt><trkpt lat="43.6984541" lon="11.5368588"><ele>555.6666666666667</ele><time>2026-04-18T11:56:33.21Z</time></trkpt><trkpt lat="43.6984092" lon="11.5367399"><ele>557.3333333333334</ele><time>2026-04-18T11:56:35.21Z</time></trkpt><trkpt lat="43.6983412" lon="11.5366379"><ele>559.0</ele><time>2026-04-18T11:56:36.209Z</time></trkpt><trkpt lat="43.6982786" lon="11.5365482"><ele>559.0</ele><time>2026-04-18T11:56:37.21Z</time></trkpt><trkpt lat="43.6982128" lon="11.5364632"><ele>559.0</ele><time>2026-04-18T11:56:38.21Z</time></trkpt><trkpt lat="43.6981696" lon="11.5363744"><ele>559.0</ele><time>2026-04-18T11:56:39.209Z</time></trkpt><trkpt lat="43.6981179" lon="11.5362995"><ele>559.0</ele><time>2026-04-18T11:56:40.209Z</time></trkpt><trkpt lat="43.6980791" lon="11.536212"><ele>559.0</ele><time>2026-04-18T11:56:41.21Z</time></trkpt><trkpt lat="43.6980216" lon="11.5361308"><ele>559.0</ele><time>2026-04-18T11:56:42.21Z</time></trkpt><trkpt lat="43.6979654" lon="11.5360483"><ele>560.1666666666667</ele><time>2026-04-18T11:56:43.21Z</time></trkpt><trkpt lat="43.6979184" lon="11.5359791"><ele>561.3333333333334</ele><time>2026-04-18T11:56:44.21Z</time></trkpt><trkpt lat="43.6978449" lon="11.5358863"><ele>562.5</ele><time>2026-04-18T11:56:46.21Z</time></trkpt><trkpt lat="43.6977883" lon="11.5358162"><ele>563.6666666666666</ele><time>2026-04-18T11:56:47.21Z</time></trkpt><trkpt lat="43.6977382" lon="11.53575"><ele>564.8333333333333</ele><time>2026-04-18T11:56:48.21Z</time></trkpt><trkpt lat="43.6976899" lon="11.5356916"><ele>566.0</ele><time>2026-04-18T11:56:49.209Z</time></trkpt><trkpt lat="43.6976079" lon="11.5355796"><ele>566.0</ele><time>2026-04-18T11:56:51.209Z</time></trkpt><trkpt lat="43.6975106" lon="11.5354806"><ele>566.0</ele><time>2026-04-18T11:56:53.21Z</time></trkpt><trkpt lat="43.6974598" lon="11.5354291"><ele>566.0</ele><time>2026-04-18T11:56:54.209Z</time></trkpt><trkpt lat="43.6973725" lon="11.5353408"><ele>566.0</ele><time>2026-04-18T11:56:56.209Z</time></trkpt><trkpt lat="43.6972807" lon="11.535217"><ele>566.0</ele><time>2026-04-18T11:56:58.209Z</time></trkpt><trkpt lat="43.6972117" lon="11.5351507"><ele>563.0</ele><time>2026-04-18T11:56:59.21Z</time></trkpt><trkpt lat="43.6971335" lon="11.5350734"><ele>560.0</ele><time>2026-04-18T11:57:00.209Z</time></trkpt><trkpt lat="43.6970634" lon="11.5349781"><ele>557.0</ele><time>2026-04-18T11:57:01.209Z</time></trkpt><trkpt lat="43.6969968" lon="11.534869"><ele>554.0</ele><time>2026-04-18T11:57:02.21Z</time></trkpt><trkpt lat="43.6969392" lon="11.5347496"><ele>551.0</ele><time>2026-04-18T11:57:03.209Z</time></trkpt><trkpt lat="43.6968815" lon="11.5346311"><ele>548.2</ele><time>2026-04-18T11:57:04.21Z</time></trkpt><trkpt lat="43.6968196" lon="11.5345183"><ele>545.4000000000001</ele><time>2026-04-18T11:57:05.21Z</time></trkpt><trkpt lat="43.6967503" lon="11.5344119"><ele>542.6</ele><time>2026-04-18T11:57:06.21Z</time></trkpt><trkpt lat="43.6966798" lon="11.5343105"><ele>539.8000000000001</ele><time>2026-04-18T11:57:07.209Z</time></trkpt><trkpt lat="43.6966094" lon="11.5342238"><ele>537.0</ele><time>2026-04-18T11:57:08.209Z</time></trkpt><trkpt lat="43.6965447" lon="11.5341368"><ele>537.0</ele><time>2026-04-18T11:57:09.21Z</time></trkpt><trkpt lat="43.6964818" lon="11.5340427"><ele>537.0</ele><time>2026-04-18T11:57:10.21Z</time></trkpt><trkpt lat="43.6964227" lon="11.5339537"><ele>537.0</ele><time>2026-04-18T11:57:11.21Z</time></trkpt><trkpt lat="43.6963686" lon="11.5338612"><ele>537.0</ele><time>2026-04-18T11:57:12.21Z</time></trkpt><trkpt lat="43.6963187" lon="11.5337663"><ele>537.0</ele><time>2026-04-18T11:57:13.209Z</time></trkpt><trkpt lat="43.6962796" lon="11.5336581"><ele>537.0</ele><time>2026-04-18T11:57:14.21Z</time></trkpt><trkpt lat="43.6962472" lon="11.5335506"><ele>534.1666666666666</ele><time>2026-04-18T11:57:15.209Z</time></trkpt><trkpt lat="43.6962302" lon="11.5334504"><ele>531.3333333333334</ele><time>2026-04-18T11:57:16.21Z</time></trkpt><trkpt lat="43.6962229" lon="11.5333619"><ele>528.5</ele><time>2026-04-18T11:57:17.21Z</time></trkpt><trkpt lat="43.6962537" lon="11.5332278"><ele>525.6666666666667</ele><time>2026-04-18T11:57:19.209Z</time></trkpt><trkpt lat="43.6963183" lon="11.5331915"><ele>522.8333333333334</ele><time>2026-04-18T11:57:20.209Z</time></trkpt><trkpt lat="43.6963953" lon="11.5331702"><ele>520.0</ele><time>2026-04-18T11:57:21.209Z</time></trkpt><trkpt lat="43.6964843" lon="11.5331481"><ele>520.0</ele><time>2026-04-18T11:57:22.209Z</time></trkpt><trkpt lat="43.6965788" lon="11.5331322"><ele>520.0</ele><time>2026-04-18T11:57:23.209Z</time></trkpt><trkpt lat="43.6966746" lon="11.5331119"><ele>520.0</ele><time>2026-04-18T11:57:24.21Z</time></trkpt><trkpt lat="43.6967719" lon="11.5331032"><ele>520.0</ele><time>2026-04-18T11:57:25.21Z</time></trkpt><trkpt lat="43.6968659" lon="11.5330902"><ele>520.0</ele><time>2026-04-18T11:57:26.21Z</time></trkpt><trkpt lat="43.6969623" lon="11.5330828"><ele>518.2</ele><time>2026-04-18T11:57:27.21Z</time></trkpt><trkpt lat="43.6970542" lon="11.5330795"><ele>516.4</ele><time>2026-04-18T11:57:28.209Z</time></trkpt><trkpt lat="43.6971478" lon="11.5330894"><ele>514.6</ele><time>2026-04-18T11:57:29.209Z</time></trkpt><trkpt lat="43.6972387" lon="11.5331017"><ele>512.8</ele><time>2026-04-18T11:57:30.21Z</time></trkpt><trkpt lat="43.6973252" lon="11.5331206"><ele>511.0</ele><time>2026-04-18T11:57:31.209Z</time></trkpt><trkpt lat="43.6974106" lon="11.5331424"><ele>511.0</ele><time>2026-04-18T11:57:32.209Z</time></trkpt><trkpt lat="43.6974938" lon="11.5331742"><ele>511.0</ele><time>2026-04-18T11:57:33.21Z</time></trkpt><trkpt lat="43.697579" lon="11.5332254"><ele>511.0</ele><time>2026-04-18T11:57:34.209Z</time></trkpt><trkpt lat="43.6976631" lon="11.5332812"><ele>511.0</ele><time>2026-04-18T11:57:35.209Z</time></trkpt><trkpt lat="43.6977413" lon="11.5333571"><ele>511.0</ele><time>2026-04-18T11:57:36.21Z</time></trkpt><trkpt lat="43.6978083" lon="11.5334575"><ele>509.6</ele><time>2026-04-18T11:57:37.21Z</time></trkpt><trkpt lat="43.6978616" lon="11.5335731"><ele>508.20000000000005</ele><time>2026-04-18T11:57:38.209Z</time></trkpt><trkpt lat="43.6979101" lon="11.5336759"><ele>506.79999999999995</ele><time>2026-04-18T11:57:39.21Z</time></trkpt><trkpt lat="43.6979533" lon="11.5337575"><ele>505.4</ele><time>2026-04-18T11:57:40.21Z</time></trkpt><trkpt lat="43.6980485" lon="11.5338489"><ele>504.0</ele><time>2026-04-18T11:57:42.21Z</time></trkpt><trkpt lat="43.698131" lon="11.5338852"><ele>504.0</ele><time>2026-04-18T11:57:44.21Z</time></trkpt><trkpt lat="43.6981895" lon="11.5339996"><ele>504.0</ele><time>2026-04-18T11:57:46.21Z</time></trkpt><trkpt lat="43.6982176" lon="11.5340835"><ele>504.0</ele><time>2026-04-18T11:57:47.21Z</time></trkpt><trkpt lat="43.6982528" lon="11.534187"><ele>504.0</ele><time>2026-04-18T11:57:48.21Z</time></trkpt><trkpt lat="43.6982884" lon="11.5343056"><ele>504.0</ele><time>2026-04-18T11:57:49.21Z</time></trkpt><trkpt lat="43.6983258" lon="11.5344383"><ele>504.0</ele><time>2026-04-18T11:57:50.21Z</time></trkpt><trkpt lat="43.6983649" lon="11.5345678"><ele>508.75</ele><time>2026-04-18T11:57:51.21Z</time></trkpt><trkpt lat="43.6984097" lon="11.5347012"><ele>513.5</ele><time>2026-04-18T11:57:52.21Z</time></trkpt><trkpt lat="43.6984598" lon="11.5348557"><ele>518.25</ele><time>2026-04-18T11:57:53.209Z</time></trkpt><trkpt lat="43.6985188" lon="11.5350056"><ele>523.0</ele><time>2026-04-18T11:57:54.209Z</time></trkpt><trkpt lat="43.6985752" lon="11.5351534"><ele>520.75</ele><time>2026-04-18T11:57:55.209Z</time></trkpt><trkpt lat="43.6986334" lon="11.5353111"><ele>518.5</ele><time>2026-04-18T11:57:56.21Z</time></trkpt><trkpt lat="43.6986876" lon="11.5354687"><ele>516.25</ele><time>2026-04-18T11:57:57.209Z</time></trkpt><trkpt lat="43.6987454" lon="11.5356358"><ele>514.0</ele><time>2026-04-18T11:57:58.209Z</time></trkpt><trkpt lat="43.6988026" lon="11.535799"><ele>514.0</ele><time>2026-04-18T11:57:59.21Z</time></trkpt><trkpt lat="43.6988621" lon="11.5359848"><ele>514.0</ele><time>2026-04-18T11:58:00.21Z</time></trkpt><trkpt lat="43.6989144" lon="11.536161"><ele>514.0</ele><time>2026-04-18T11:58:01.21Z</time></trkpt><trkpt lat="43.6989633" lon="11.5363422"><ele>514.0</ele><time>2026-04-18T11:58:02.209Z</time></trkpt><trkpt lat="43.6990143" lon="11.5365282"><ele>517.0</ele><time>2026-04-18T11:58:03.21Z</time></trkpt><trkpt lat="43.6990715" lon="11.5367093"><ele>520.0</ele><time>2026-04-18T11:58:04.21Z</time></trkpt><trkpt lat="43.6991368" lon="11.5368861"><ele>523.0</ele><time>2026-04-18T11:58:05.21Z</time></trkpt><trkpt lat="43.6992094" lon="11.537048"><ele>526.0</ele><time>2026-04-18T11:58:06.209Z</time></trkpt><trkpt lat="43.6992974" lon="11.5372092"><ele>528.5</ele><time>2026-04-18T11:58:07.21Z</time></trkpt><trkpt lat="43.6994153" lon="11.5373359"><ele>531.0</ele><time>2026-04-18T11:58:08.209Z</time></trkpt><trkpt lat="43.6995356" lon="11.5374417"><ele>533.5</ele><time>2026-04-18T11:58:09.21Z</time></trkpt><trkpt lat="43.699652" lon="11.5375239"><ele>536.0</ele><time>2026-04-18T11:58:10.209Z</time></trkpt><trkpt lat="43.6997525" lon="11.5375839"><ele>536.0</ele><time>2026-04-18T11:58:11.21Z</time></trkpt><trkpt lat="43.6998493" lon="11.5376205"><ele>536.0</ele><time>2026-04-18T11:58:12.209Z</time></trkpt><trkpt lat="43.6999276" lon="11.5376088"><ele>536.0</ele><time>2026-04-18T11:58:13.209Z</time></trkpt><trkpt lat="43.699993" lon="11.5375253"><ele>536.0</ele><time>2026-04-18T11:58:14.21Z</time></trkpt><trkpt lat="43.700045" lon="11.5373895"><ele>536.0</ele><time>2026-04-18T11:58:15.21Z</time></trkpt><trkpt lat="43.7000928" lon="11.5372484"><ele>536.0</ele><time>2026-04-18T11:58:16.21Z</time></trkpt><trkpt lat="43.7001219" lon="11.5370811"><ele>536.0</ele><time>2026-04-18T11:58:17.21Z</time></trkpt><trkpt lat="43.7001197" lon="11.5369054"><ele>536.0</ele><time>2026-04-18T11:58:18.21Z</time></trkpt><trkpt lat="43.7001112" lon="11.5367289"><ele>536.0</ele><time>2026-04-18T11:58:19.209Z</time></trkpt><trkpt lat="43.7000983" lon="11.5365582"><ele>535.75</ele><time>2026-04-18T11:58:20.209Z</time></trkpt><trkpt lat="43.700081" lon="11.536382"><ele>535.5</ele><time>2026-04-18T11:58:21.209Z</time></trkpt><trkpt lat="43.7000597" lon="11.5361964"><ele>535.25</ele><time>2026-04-18T11:58:22.21Z</time></trkpt><trkpt lat="43.7000385" lon="11.5360195"><ele>535.0</ele><time>2026-04-18T11:58:23.21Z</time></trkpt><trkpt lat="43.7000118" lon="11.535832"><ele>535.0</ele><time>2026-04-18T11:58:24.209Z</time></trkpt><trkpt lat="43.6999911" lon="11.5356437"><ele>535.0</ele><time>2026-04-18T11:58:25.21Z</time></trkpt><trkpt lat="43.6999654" lon="11.5354573"><ele>535.0</ele><time>2026-04-18T11:58:26.21Z</time></trkpt><trkpt lat="43.6999379" lon="11.535282"><ele>535.0</ele><time>2026-04-18T11:58:27.209Z</time></trkpt><trkpt lat="43.6999198" lon="11.5351247"><ele>535.8</ele><time>2026-04-18T11:58:28.21Z</time></trkpt><trkpt lat="43.6999092" lon="11.5349614"><ele>536.6</ele><time>2026-04-18T11:58:29.21Z</time></trkpt><trkpt lat="43.6999216" lon="11.5348098"><ele>537.4</ele><time>2026-04-18T11:58:30.21Z</time></trkpt><trkpt lat="43.6999643" lon="11.5346818"><ele>538.2</ele><time>2026-04-18T11:58:31.21Z</time></trkpt><trkpt lat="43.700035" lon="11.5345951"><ele>539.0</ele><time>2026-04-18T11:58:32.209Z</time></trkpt><trkpt lat="43.7001074" lon="11.5345068"><ele>537.2</ele><time>2026-04-18T11:58:33.209Z</time></trkpt><trkpt lat="43.7001851" lon="11.5344584"><ele>535.4</ele><time>2026-04-18T11:58:34.21Z</time></trkpt><trkpt lat="43.7002925" lon="11.5344841"><ele>533.6</ele><time>2026-04-18T11:58:35.209Z</time></trkpt><trkpt lat="43.7004048" lon="11.5345806"><ele>531.8</ele><time>2026-04-18T11:58:36.209Z</time></trkpt><trkpt lat="43.700503" lon="11.534659"><ele>530.0</ele><time>2026-04-18T11:58:37.21Z</time></trkpt><trkpt lat="43.7005844" lon="11.5348109"><ele>535.75</ele><time>2026-04-18T11:58:38.21Z</time></trkpt><trkpt lat="43.7006406" lon="11.5349534"><ele>541.5</ele><time>2026-04-18T11:58:39.209Z</time></trkpt><trkpt lat="43.7006745" lon="11.5350981"><ele>547.25</ele><time>2026-04-18T11:58:40.21Z</time></trkpt><trkpt lat="43.7006938" lon="11.5352427"><ele>553.0</ele><time>2026-04-18T11:58:41.209Z</time></trkpt><trkpt lat="43.7006856" lon="11.5354079"><ele>554.25</ele><time>2026-04-18T11:58:42.21Z</time></trkpt><trkpt lat="43.7006517" lon="11.5355608"><ele>555.5</ele><time>2026-04-18T11:58:43.21Z</time></trkpt><trkpt lat="43.7006138" lon="11.535712"><ele>556.75</ele><time>2026-04-18T11:58:44.21Z</time></trkpt><trkpt lat="43.7005875" lon="11.5358627"><ele>558.0</ele><time>2026-04-18T11:58:45.21Z</time></trkpt><trkpt lat="43.7005865" lon="11.5360122"><ele>558.0</ele><time>2026-04-18T11:58:46.209Z</time></trkpt><trkpt lat="43.7006082" lon="11.5361558"><ele>558.0</ele><time>2026-04-18T11:58:47.209Z</time></trkpt><trkpt lat="43.7006551" lon="11.5362644"><ele>558.0</ele><time>2026-04-18T11:58:48.209Z</time></trkpt><trkpt lat="43.7007439" lon="11.5363222"><ele>558.0</ele><time>2026-04-18T11:58:49.21Z</time></trkpt><trkpt lat="43.7008246" lon="11.5363502"><ele>558.0</ele><time>2026-04-18T11:58:50.21Z</time></trkpt><trkpt lat="43.7009202" lon="11.5363251"><ele>557.5</ele><time>2026-04-18T11:58:51.21Z</time></trkpt><trkpt lat="43.7010127" lon="11.5362573"><ele>557.0</ele><time>2026-04-18T11:58:52.21Z</time></trkpt><trkpt lat="43.7010984" lon="11.5361472"><ele>556.5</ele><time>2026-04-18T11:58:53.209Z</time></trkpt><trkpt lat="43.7011778" lon="11.5360289"><ele>556.0</ele><time>2026-04-18T11:58:54.21Z</time></trkpt><trkpt lat="43.7012683" lon="11.5359315"><ele>560.0</ele><time>2026-04-18T11:58:55.21Z</time></trkpt><trkpt lat="43.701382" lon="11.5358753"><ele>564.0</ele><time>2026-04-18T11:58:56.21Z</time></trkpt><trkpt lat="43.7015" lon="11.5358342"><ele>568.0</ele><time>2026-04-18T11:58:57.21Z</time></trkpt><trkpt lat="43.701615" lon="11.5358014"><ele>572.0</ele><time>2026-04-18T11:58:58.21Z</time></trkpt><trkpt lat="43.7017169" lon="11.5357344"><ele>572.0</ele><time>2026-04-18T11:58:59.21Z</time></trkpt><trkpt lat="43.701792" lon="11.5356289"><ele>572.0</ele><time>2026-04-18T11:59:00.21Z</time></trkpt><trkpt lat="43.701828" lon="11.5354984"><ele>572.0</ele><time>2026-04-18T11:59:01.209Z</time></trkpt><trkpt lat="43.7018386" lon="11.5353417"><ele>572.0</ele><time>2026-04-18T11:59:02.21Z</time></trkpt><trkpt lat="43.7018264" lon="11.5351743"><ele>572.0</ele><time>2026-04-18T11:59:03.209Z</time></trkpt><trkpt lat="43.701803" lon="11.5349908"><ele>572.0</ele><time>2026-04-18T11:59:04.209Z</time></trkpt><trkpt lat="43.7017872" lon="11.5348008"><ele>572.0</ele><time>2026-04-18T11:59:05.209Z</time></trkpt><trkpt lat="43.7017739" lon="11.5346059"><ele>572.0</ele><time>2026-04-18T11:59:06.21Z</time></trkpt><trkpt lat="43.7017793" lon="11.5344056"><ele>572.0</ele><time>2026-04-18T11:59:07.21Z</time></trkpt><trkpt lat="43.7017993" lon="11.5342044"><ele>572.25</ele><time>2026-04-18T11:59:08.209Z</time></trkpt><trkpt lat="43.7018334" lon="11.5340125"><ele>572.5</ele><time>2026-04-18T11:59:09.21Z</time></trkpt><trkpt lat="43.701892" lon="11.5338361"><ele>572.75</ele><time>2026-04-18T11:59:10.209Z</time></trkpt><trkpt lat="43.7019651" lon="11.5336721"><ele>573.0</ele><time>2026-04-18T11:59:11.209Z</time></trkpt><trkpt lat="43.7020665" lon="11.5335408"><ele>576.0</ele><time>2026-04-18T11:59:12.21Z</time></trkpt><trkpt lat="43.7021702" lon="11.5334314"><ele>579.0</ele><time>2026-04-18T11:59:13.21Z</time></trkpt><trkpt lat="43.7023034" lon="11.533329"><ele>582.0</ele><time>2026-04-18T11:59:14.21Z</time></trkpt><trkpt lat="43.7024326" lon="11.5332485"><ele>585.0</ele><time>2026-04-18T11:59:15.209Z</time></trkpt><trkpt lat="43.7025635" lon="11.5331674"><ele>585.0</ele><time>2026-04-18T11:59:16.209Z</time></trkpt><trkpt lat="43.7027006" lon="11.5330916"><ele>585.0</ele><time>2026-04-18T11:59:17.209Z</time></trkpt><trkpt lat="43.7028471" lon="11.5330201"><ele>585.0</ele><time>2026-04-18T11:59:18.21Z</time></trkpt><trkpt lat="43.7029911" lon="11.5329701"><ele>584.75</ele><time>2026-04-18T11:59:19.209Z</time></trkpt><trkpt lat="43.7031378" lon="11.5329277"><ele>584.5</ele><time>2026-04-18T11:59:20.21Z</time></trkpt><trkpt lat="43.7032882" lon="11.5329011"><ele>584.25</ele><time>2026-04-18T11:59:21.21Z</time></trkpt><trkpt lat="43.7034218" lon="11.5328747"><ele>584.0</ele><time>2026-04-18T11:59:22.21Z</time></trkpt><trkpt lat="43.7035478" lon="11.5328445"><ele>587.2</ele><time>2026-04-18T11:59:23.21Z</time></trkpt><trkpt lat="43.7036564" lon="11.5328024"><ele>590.4</ele><time>2026-04-18T11:59:24.21Z</time></trkpt><trkpt lat="43.7037471" lon="11.5327147"><ele>593.6</ele><time>2026-04-18T11:59:25.21Z</time></trkpt><trkpt lat="43.7038092" lon="11.5326001"><ele>596.8</ele><time>2026-04-18T11:59:26.209Z</time></trkpt><trkpt lat="43.7038544" lon="11.5324672"><ele>600.0</ele><time>2026-04-18T11:59:27.21Z</time></trkpt><trkpt lat="43.7039078" lon="11.5323341"><ele>600.0</ele><time>2026-04-18T11:59:28.209Z</time></trkpt><trkpt lat="43.7039673" lon="11.5322077"><ele>600.0</ele><time>2026-04-18T11:59:29.209Z</time></trkpt><trkpt lat="43.704088" lon="11.5321537"><ele>600.0</ele><time>2026-04-18T11:59:30.21Z</time></trkpt><trkpt lat="43.7042096" lon="11.5321202"><ele>600.0</ele><time>2026-04-18T11:59:31.21Z</time></trkpt><trkpt lat="43.7043401" lon="11.5321046"><ele>603.0</ele><time>2026-04-18T11:59:32.208Z</time></trkpt><trkpt lat="43.7044746" lon="11.5321217"><ele>606.0</ele><time>2026-04-18T11:59:33.21Z</time></trkpt><trkpt lat="43.7046115" lon="11.5321315"><ele>609.0</ele><time>2026-04-18T11:59:34.209Z</time></trkpt><trkpt lat="43.7047441" lon="11.5321531"><ele>612.0</ele><time>2026-04-18T11:59:35.21Z</time></trkpt><trkpt lat="43.7048804" lon="11.5321673"><ele>612.0</ele><time>2026-04-18T11:59:36.21Z</time></trkpt><trkpt lat="43.7050189" lon="11.5321755"><ele>612.0</ele><time>2026-04-18T11:59:37.21Z</time></trkpt><trkpt lat="43.7051486" lon="11.5321888"><ele>612.0</ele><time>2026-04-18T11:59:38.209Z</time></trkpt><trkpt lat="43.7052724" lon="11.532216"><ele>612.0</ele><time>2026-04-18T11:59:39.21Z</time></trkpt><trkpt lat="43.7053981" lon="11.5322565"><ele>612.5</ele><time>2026-04-18T11:59:40.209Z</time></trkpt><trkpt lat="43.7055177" lon="11.5323117"><ele>613.0</ele><time>2026-04-18T11:59:41.21Z</time></trkpt><trkpt lat="43.7056275" lon="11.5323996"><ele>613.5</ele><time>2026-04-18T11:59:42.21Z</time></trkpt><trkpt lat="43.7057388" lon="11.5324935"><ele>614.0</ele><time>2026-04-18T11:59:43.21Z</time></trkpt><trkpt lat="43.7058433" lon="11.5326173"><ele>614.0</ele><time>2026-04-18T11:59:44.21Z</time></trkpt><trkpt lat="43.7059487" lon="11.532727"><ele>614.0</ele><time>2026-04-18T11:59:45.209Z</time></trkpt><trkpt lat="43.7060493" lon="11.5328436"><ele>614.0</ele><time>2026-04-18T11:59:46.209Z</time></trkpt><trkpt lat="43.7061472" lon="11.5329736"><ele>614.0</ele><time>2026-04-18T11:59:47.209Z</time></trkpt><trkpt lat="43.7062331" lon="11.5331161"><ele>613.5</ele><time>2026-04-18T11:59:48.21Z</time></trkpt><trkpt lat="43.7063119" lon="11.5332705"><ele>613.0</ele><time>2026-04-18T11:59:49.21Z</time></trkpt><trkpt lat="43.7063783" lon="11.5334325"><ele>612.5</ele><time>2026-04-18T11:59:50.21Z</time></trkpt><trkpt lat="43.7064456" lon="11.5335968"><ele>612.0</ele><time>2026-04-18T11:59:51.21Z</time></trkpt><trkpt lat="43.7065089" lon="11.5337621"><ele>617.5</ele><time>2026-04-18T11:59:52.209Z</time></trkpt><trkpt lat="43.7065781" lon="11.5339175"><ele>623.0</ele><time>2026-04-18T11:59:53.209Z</time></trkpt><trkpt lat="43.7066661" lon="11.5340707"><ele>628.5</ele><time>2026-04-18T11:59:54.21Z</time></trkpt><trkpt lat="43.706773" lon="11.5342097"><ele>634.0</ele><time>2026-04-18T11:59:55.209Z</time></trkpt><trkpt lat="43.7068845" lon="11.5343482"><ele>635.6666666666667</ele><time>2026-04-18T11:59:56.21Z</time></trkpt><trkpt lat="43.7069931" lon="11.5344868"><ele>637.3333333333334</ele><time>2026-04-18T11:59:57.21Z</time></trkpt><trkpt lat="43.7071058" lon="11.5346277"><ele>639.0</ele><time>2026-04-18T11:59:58.21Z</time></trkpt><trkpt lat="43.7072072" lon="11.5347812"><ele>639.0</ele><time>2026-04-18T11:59:59.21Z</time></trkpt><trkpt lat="43.7072973" lon="11.5349291"><ele>639.0</ele><time>2026-04-18T12:00:00.209Z</time></trkpt><trkpt lat="43.7073754" lon="11.535084"><ele>639.0</ele><time>2026-04-18T12:00:01.209Z</time></trkpt><trkpt lat="43.7074534" lon="11.5352577"><ele>639.0</ele><time>2026-04-18T12:00:02.209Z</time></trkpt><trkpt lat="43.7075307" lon="11.5354186"><ele>638.75</ele><time>2026-04-18T12:00:03.21Z</time></trkpt><trkpt lat="43.7076059" lon="11.5356013"><ele>638.5</ele><time>2026-04-18T12:00:04.21Z</time></trkpt><trkpt lat="43.7076804" lon="11.5357742"><ele>638.25</ele><time>2026-04-18T12:00:05.209Z</time></trkpt><trkpt lat="43.707757" lon="11.5359447"><ele>638.0</ele><time>2026-04-18T12:00:06.21Z</time></trkpt><trkpt lat="43.707835" lon="11.5361262"><ele>642.5</ele><time>2026-04-18T12:00:07.209Z</time></trkpt><trkpt lat="43.7079265" lon="11.53628"><ele>647.0</ele><time>2026-04-18T12:00:08.21Z</time></trkpt><trkpt lat="43.7080323" lon="11.5364155"><ele>651.5</ele><time>2026-04-18T12:00:09.21Z</time></trkpt><trkpt lat="43.7081364" lon="11.5365429"><ele>656.0</ele><time>2026-04-18T12:00:10.21Z</time></trkpt><trkpt lat="43.7082572" lon="11.5366767"><ele>656.0</ele><time>2026-04-18T12:00:11.21Z</time></trkpt><trkpt lat="43.7083738" lon="11.5367903"><ele>656.0</ele><time>2026-04-18T12:00:12.209Z</time></trkpt><trkpt lat="43.7084905" lon="11.5369125"><ele>656.0</ele><time>2026-04-18T12:00:13.21Z</time></trkpt><trkpt lat="43.7086056" lon="11.5370507"><ele>656.0</ele><time>2026-04-18T12:00:14.209Z</time></trkpt><trkpt lat="43.7087061" lon="11.5372177"><ele>657.6666666666666</ele><time>2026-04-18T12:00:15.21Z</time></trkpt><trkpt lat="43.7088052" lon="11.5373769"><ele>659.3333333333334</ele><time>2026-04-18T12:00:16.21Z</time></trkpt><trkpt lat="43.7089024" lon="11.5375416"><ele>661.0</ele><time>2026-04-18T12:00:17.21Z</time></trkpt><trkpt lat="43.7089983" lon="11.537691"><ele>661.0</ele><time>2026-04-18T12:00:18.209Z</time></trkpt><trkpt lat="43.7091017" lon="11.5378432"><ele>661.0</ele><time>2026-04-18T12:00:19.209Z</time></trkpt><trkpt lat="43.7092162" lon="11.537993"><ele>661.0</ele><time>2026-04-18T12:00:20.21Z</time></trkpt><trkpt lat="43.709329" lon="11.5381503"><ele>662.0</ele><time>2026-04-18T12:00:21.209Z</time></trkpt><trkpt lat="43.7094395" lon="11.5382855"><ele>663.0</ele><time>2026-04-18T12:00:22.21Z</time></trkpt><trkpt lat="43.7095473" lon="11.5384137"><ele>664.0</ele><time>2026-04-18T12:00:23.209Z</time></trkpt><trkpt lat="43.7096474" lon="11.5385491"><ele>665.0</ele><time>2026-04-18T12:00:24.21Z</time></trkpt><trkpt lat="43.7097097" lon="11.5386472"><ele>668.3333333333333</ele><time>2026-04-18T12:00:25.21Z</time></trkpt><trkpt lat="43.70974" lon="11.5387506"><ele>671.6666666666666</ele><time>2026-04-18T12:00:26.21Z</time></trkpt><trkpt lat="43.7097272" lon="11.5388569"><ele>675.0</ele><time>2026-04-18T12:00:27.21Z</time></trkpt><trkpt lat="43.7096762" lon="11.5389472"><ele>678.3333333333334</ele><time>2026-04-18T12:00:28.209Z</time></trkpt><trkpt lat="43.7096048" lon="11.5389916"><ele>681.6666666666667</ele><time>2026-04-18T12:00:29.21Z</time></trkpt><trkpt lat="43.7095134" lon="11.5390025"><ele>685.0</ele><time>2026-04-18T12:00:30.21Z</time></trkpt><trkpt lat="43.7094271" lon="11.538964"><ele>683.4</ele><time>2026-04-18T12:00:31.21Z</time></trkpt><trkpt lat="43.7093458" lon="11.5389246"><ele>681.8</ele><time>2026-04-18T12:00:32.21Z</time></trkpt><trkpt lat="43.7092636" lon="11.5388227"><ele>680.2</ele><time>2026-04-18T12:00:33.209Z</time></trkpt><trkpt lat="43.70917" lon="11.5387351"><ele>678.6</ele><time>2026-04-18T12:00:34.21Z</time></trkpt><trkpt lat="43.709067" lon="11.5386311"><ele>677.0</ele><time>2026-04-18T12:00:35.21Z</time></trkpt><trkpt lat="43.708951" lon="11.5385155"><ele>677.0</ele><time>2026-04-18T12:00:36.209Z</time></trkpt><trkpt lat="43.7088474" lon="11.538396"><ele>677.0</ele><time>2026-04-18T12:00:37.209Z</time></trkpt><trkpt lat="43.7087447" lon="11.5382744"><ele>677.0</ele><time>2026-04-18T12:00:38.21Z</time></trkpt><trkpt lat="43.7086331" lon="11.5381588"><ele>677.0</ele><time>2026-04-18T12:00:39.21Z</time></trkpt><trkpt lat="43.7085167" lon="11.5380576"><ele>677.0</ele><time>2026-04-18T12:00:40.209Z</time></trkpt><trkpt lat="43.7083887" lon="11.537983"><ele>677.0</ele><time>2026-04-18T12:00:41.209Z</time></trkpt><trkpt lat="43.7082555" lon="11.5379132"><ele>677.0</ele><time>2026-04-18T12:00:42.209Z</time></trkpt><trkpt lat="43.7081224" lon="11.5378374"><ele>677.0</ele><time>2026-04-18T12:00:43.21Z</time></trkpt><trkpt lat="43.7079837" lon="11.5377575"><ele>677.0</ele><time>2026-04-18T12:00:44.209Z</time></trkpt><trkpt lat="43.707854" lon="11.5376688"><ele>677.0</ele><time>2026-04-18T12:00:45.21Z</time></trkpt><trkpt lat="43.70772" lon="11.5375615"><ele>677.0</ele><time>2026-04-18T12:00:46.21Z</time></trkpt><trkpt lat="43.7075861" lon="11.5374449"><ele>681.3333333333333</ele><time>2026-04-18T12:00:47.21Z</time></trkpt><trkpt lat="43.7074517" lon="11.5373092"><ele>685.6666666666666</ele><time>2026-04-18T12:00:48.21Z</time></trkpt><trkpt lat="43.7073138" lon="11.5371745"><ele>690.0</ele><time>2026-04-18T12:00:49.21Z</time></trkpt><trkpt lat="43.7071688" lon="11.5370675"><ele>689.0</ele><time>2026-04-18T12:00:50.21Z</time></trkpt><trkpt lat="43.7070211" lon="11.5369734"><ele>688.0</ele><time>2026-04-18T12:00:51.21Z</time></trkpt><trkpt lat="43.7068446" lon="11.5369589"><ele>687.0</ele><time>2026-04-18T12:00:52.209Z</time></trkpt><trkpt lat="43.7066787" lon="11.5369015"><ele>687.0</ele><time>2026-04-18T12:00:53.209Z</time></trkpt><trkpt lat="43.7065147" lon="11.5368056"><ele>687.0</ele><time>2026-04-18T12:00:54.21Z</time></trkpt><trkpt lat="43.7063664" lon="11.5367"><ele>687.0</ele><time>2026-04-18T12:00:55.21Z</time></trkpt><trkpt lat="43.7062522" lon="11.5366263"><ele>687.0</ele><time>2026-04-18T12:00:56.21Z</time></trkpt><trkpt lat="43.7061299" lon="11.5366039"><ele>687.0</ele><time>2026-04-18T12:00:57.21Z</time></trkpt><trkpt lat="43.7060105" lon="11.5366262"><ele>687.0</ele><time>2026-04-18T12:00:58.21Z</time></trkpt><trkpt lat="43.705904" lon="11.5366999"><ele>687.0</ele><time>2026-04-18T12:00:59.21Z</time></trkpt><trkpt lat="43.7058245" lon="11.5367988"><ele>687.8</ele><time>2026-04-18T12:01:00.209Z</time></trkpt><trkpt lat="43.7057767" lon="11.536919"><ele>688.6</ele><time>2026-04-18T12:01:01.209Z</time></trkpt><trkpt lat="43.7057537" lon="11.5370303"><ele>689.4</ele><time>2026-04-18T12:01:02.21Z</time></trkpt><trkpt lat="43.7057663" lon="11.5371374"><ele>690.1999999999999</ele><time>2026-04-18T12:01:03.21Z</time></trkpt><trkpt lat="43.7058847" lon="11.5372541"><ele>691.0</ele><time>2026-04-18T12:01:04.21Z</time></trkpt><trkpt lat="43.705982" lon="11.5373351"><ele>693.25</ele><time>2026-04-18T12:01:05.21Z</time></trkpt><trkpt lat="43.7061016" lon="11.537383"><ele>695.5</ele><time>2026-04-18T12:01:06.209Z</time></trkpt><trkpt lat="43.7062236" lon="11.5374021"><ele>697.75</ele><time>2026-04-18T12:01:07.21Z</time></trkpt><trkpt lat="43.7063599" lon="11.537411"><ele>700.0</ele><time>2026-04-18T12:01:08.21Z</time></trkpt><trkpt lat="43.706494" lon="11.5374355"><ele>700.0</ele><time>2026-04-18T12:01:09.209Z</time></trkpt><trkpt lat="43.7066303" lon="11.5374931"><ele>700.0</ele><time>2026-04-18T12:01:10.209Z</time></trkpt><trkpt lat="43.7067721" lon="11.5375845"><ele>700.0</ele><time>2026-04-18T12:01:11.21Z</time></trkpt><trkpt lat="43.7069077" lon="11.5376925"><ele>702.6666666666667</ele><time>2026-04-18T12:01:12.21Z</time></trkpt><trkpt lat="43.7070398" lon="11.537823"><ele>705.3333333333334</ele><time>2026-04-18T12:01:13.21Z</time></trkpt><trkpt lat="43.7071628" lon="11.5379587"><ele>708.0</ele><time>2026-04-18T12:01:14.21Z</time></trkpt><trkpt lat="43.7072894" lon="11.5381121"><ele>708.0</ele><time>2026-04-18T12:01:15.21Z</time></trkpt><trkpt lat="43.7074107" lon="11.5382452"><ele>708.0</ele><time>2026-04-18T12:01:16.209Z</time></trkpt><trkpt lat="43.7075357" lon="11.5383891"><ele>708.0</ele><time>2026-04-18T12:01:17.21Z</time></trkpt><trkpt lat="43.7076543" lon="11.5385384"><ele>709.3333333333334</ele><time>2026-04-18T12:01:18.21Z</time></trkpt><trkpt lat="43.7077699" lon="11.5387054"><ele>710.6666666666667</ele><time>2026-04-18T12:01:19.209Z</time></trkpt><trkpt lat="43.7078811" lon="11.5388747"><ele>712.0</ele><time>2026-04-18T12:01:20.21Z</time></trkpt><trkpt lat="43.7079938" lon="11.5390456"><ele>712.0</ele><time>2026-04-18T12:01:21.209Z</time></trkpt><trkpt lat="43.7081007" lon="11.5392304"><ele>712.0</ele><time>2026-04-18T12:01:22.209Z</time></trkpt><trkpt lat="43.7082107" lon="11.5394224"><ele>712.0</ele><time>2026-04-18T12:01:23.21Z</time></trkpt><trkpt lat="43.7083176" lon="11.539607"><ele>714.6666666666667</ele><time>2026-04-18T12:01:24.209Z</time></trkpt><trkpt lat="43.7084231" lon="11.5397861"><ele>717.3333333333334</ele><time>2026-04-18T12:01:25.21Z</time></trkpt><trkpt lat="43.7085366" lon="11.5399466"><ele>720.0</ele><time>2026-04-18T12:01:26.21Z</time></trkpt><trkpt lat="43.708683" lon="11.5400624"><ele>720.0</ele><time>2026-04-18T12:01:27.21Z</time></trkpt><trkpt lat="43.708827" lon="11.5401802"><ele>720.0</ele><time>2026-04-18T12:01:28.21Z</time></trkpt><trkpt lat="43.7089721" lon="11.5401908"><ele>720.0</ele><time>2026-04-18T12:01:29.209Z</time></trkpt><trkpt lat="43.7091609" lon="11.5401719"><ele>720.0</ele><time>2026-04-18T12:01:30.21Z</time></trkpt><trkpt lat="43.7093268" lon="11.5402067"><ele>720.0</ele><time>2026-04-18T12:01:31.209Z</time></trkpt><trkpt lat="43.7094782" lon="11.5402744"><ele>720.0</ele><time>2026-04-18T12:01:32.209Z</time></trkpt><trkpt lat="43.7096294" lon="11.540363"><ele>727.3333333333334</ele><time>2026-04-18T12:01:33.209Z</time></trkpt><trkpt lat="43.7097749" lon="11.5404651"><ele>734.6666666666667</ele><time>2026-04-18T12:01:34.21Z</time></trkpt><trkpt lat="43.7099185" lon="11.5405667"><ele>742.0</ele><time>2026-04-18T12:01:35.21Z</time></trkpt><trkpt lat="43.710059" lon="11.5406948"><ele>742.0</ele><time>2026-04-18T12:01:36.209Z</time></trkpt><trkpt lat="43.7101883" lon="11.5408289"><ele>742.0</ele><time>2026-04-18T12:01:37.21Z</time></trkpt><trkpt lat="43.710309" lon="11.5409904"><ele>742.0</ele><time>2026-04-18T12:01:38.209Z</time></trkpt><trkpt lat="43.7104346" lon="11.5411462"><ele>746.6666666666667</ele><time>2026-04-18T12:01:39.209Z</time></trkpt><trkpt lat="43.7105649" lon="11.5412863"><ele>751.3333333333334</ele><time>2026-04-18T12:01:40.209Z</time></trkpt><trkpt lat="43.7107228" lon="11.5413719"><ele>756.0</ele><time>2026-04-18T12:01:41.209Z</time></trkpt><trkpt lat="43.71089" lon="11.5414252"><ele>756.0</ele><time>2026-04-18T12:01:42.21Z</time></trkpt><trkpt lat="43.7110481" lon="11.5415151"><ele>756.0</ele><time>2026-04-18T12:01:43.21Z</time></trkpt><trkpt lat="43.7111938" lon="11.5416206"><ele>756.0</ele><time>2026-04-18T12:01:44.209Z</time></trkpt><trkpt lat="43.711316" lon="11.541785"><ele>759.0</ele><time>2026-04-18T12:01:45.21Z</time></trkpt><trkpt lat="43.711453" lon="11.5419308"><ele>762.0</ele><time>2026-04-18T12:01:46.21Z</time></trkpt><trkpt lat="43.71159" lon="11.5420714"><ele>765.0</ele><time>2026-04-18T12:01:47.21Z</time></trkpt><trkpt lat="43.7117027" lon="11.5422383"><ele>765.0</ele><time>2026-04-18T12:01:48.209Z</time></trkpt><trkpt lat="43.7118156" lon="11.5424283"><ele>765.0</ele><time>2026-04-18T12:01:49.21Z</time></trkpt><trkpt lat="43.711895" lon="11.5426134"><ele>765.0</ele><time>2026-04-18T12:01:50.209Z</time></trkpt><trkpt lat="43.711989" lon="11.542805"><ele>764.6666666666666</ele><time>2026-04-18T12:01:51.21Z</time></trkpt><trkpt lat="43.712089" lon="11.542999"><ele>764.3333333333333</ele><time>2026-04-18T12:01:52.21Z</time></trkpt><trkpt lat="43.7121833" lon="11.5431848"><ele>764.0</ele><time>2026-04-18T12:01:53.209Z</time></trkpt><trkpt lat="43.7122687" lon="11.5433741"><ele>764.0</ele><time>2026-04-18T12:01:54.21Z</time></trkpt><trkpt lat="43.7123407" lon="11.5435789"><ele>764.0</ele><time>2026-04-18T12:01:55.209Z</time></trkpt><trkpt lat="43.7124064" lon="11.5437883"><ele>764.0</ele><time>2026-04-18T12:01:56.21Z</time></trkpt><trkpt lat="43.7124601" lon="11.5440093"><ele>767.6666666666666</ele><time>2026-04-18T12:01:57.209Z</time></trkpt><trkpt lat="43.712521" lon="11.5442333"><ele>771.3333333333333</ele><time>2026-04-18T12:01:58.21Z</time></trkpt><trkpt lat="43.712581" lon="11.5444497"><ele>775.0</ele><time>2026-04-18T12:01:59.209Z</time></trkpt><trkpt lat="43.7126537" lon="11.5446688"><ele>775.6666666666666</ele><time>2026-04-18T12:02:00.21Z</time></trkpt><trkpt lat="43.7127503" lon="11.5448519"><ele>776.3333333333333</ele><time>2026-04-18T12:02:01.209Z</time></trkpt><trkpt lat="43.7128748" lon="11.5450208"><ele>777.0</ele><time>2026-04-18T12:02:02.209Z</time></trkpt><trkpt lat="43.7129993" lon="11.5451964"><ele>777.0</ele><time>2026-04-18T12:02:03.21Z</time></trkpt><trkpt lat="43.7131072" lon="11.5453717"><ele>777.0</ele><time>2026-04-18T12:02:04.209Z</time></trkpt><trkpt lat="43.7131811" lon="11.5455563"><ele>777.0</ele><time>2026-04-18T12:02:05.209Z</time></trkpt><trkpt lat="43.7132348" lon="11.5457703"><ele>782.0</ele><time>2026-04-18T12:02:06.209Z</time></trkpt><trkpt lat="43.7133044" lon="11.5459799"><ele>787.0</ele><time>2026-04-18T12:02:07.21Z</time></trkpt><trkpt lat="43.7133755" lon="11.5461851"><ele>792.0</ele><time>2026-04-18T12:02:08.21Z</time></trkpt><trkpt lat="43.7134502" lon="11.5463918"><ele>795.0</ele><time>2026-04-18T12:02:09.21Z</time></trkpt><trkpt lat="43.7135375" lon="11.5465853"><ele>798.0</ele><time>2026-04-18T12:02:10.209Z</time></trkpt><trkpt lat="43.7136432" lon="11.5467831"><ele>801.0</ele><time>2026-04-18T12:02:11.21Z</time></trkpt><trkpt lat="43.7137486" lon="11.5469473"><ele>805.6666666666667</ele><time>2026-04-18T12:02:12.21Z</time></trkpt><trkpt lat="43.7138724" lon="11.5470971"><ele>810.3333333333334</ele><time>2026-04-18T12:02:13.209Z</time></trkpt><trkpt lat="43.7140031" lon="11.5472295"><ele>815.0</ele><time>2026-04-18T12:02:14.21Z</time></trkpt><trkpt lat="43.714143" lon="11.5473532"><ele>815.0</ele><time>2026-04-18T12:02:15.21Z</time></trkpt><trkpt lat="43.7142778" lon="11.5474628"><ele>815.0</ele><time>2026-04-18T12:02:16.209Z</time></trkpt><trkpt lat="43.7144049" lon="11.547572"><ele>815.0</ele><time>2026-04-18T12:02:17.21Z</time></trkpt><trkpt lat="43.7145299" lon="11.547696"><ele>816.3333333333334</ele><time>2026-04-18T12:02:18.21Z</time></trkpt><trkpt lat="43.7146484" lon="11.5478634"><ele>817.6666666666667</ele><time>2026-04-18T12:02:19.21Z</time></trkpt><trkpt lat="43.7147671" lon="11.5480266"><ele>819.0</ele><time>2026-04-18T12:02:20.209Z</time></trkpt><trkpt lat="43.7148765" lon="11.5481829"><ele>820.0</ele><time>2026-04-18T12:02:21.21Z</time></trkpt><trkpt lat="43.714976" lon="11.5483019"><ele>821.0</ele><time>2026-04-18T12:02:22.209Z</time></trkpt><trkpt lat="43.7150716" lon="11.5483781"><ele>822.0</ele><time>2026-04-18T12:02:23.21Z</time></trkpt><trkpt lat="43.7151712" lon="11.5484267"><ele>823.0</ele><time>2026-04-18T12:02:24.21Z</time></trkpt><trkpt lat="43.7152468" lon="11.5484301"><ele>824.0</ele><time>2026-04-18T12:02:25.21Z</time></trkpt><trkpt lat="43.7153396" lon="11.5482574"><ele>822.75</ele><time>2026-04-18T12:02:27.21Z</time></trkpt><trkpt lat="43.7153675" lon="11.5481434"><ele>821.5</ele><time>2026-04-18T12:02:28.21Z</time></trkpt><trkpt lat="43.7152972" lon="11.5479608"><ele>820.25</ele><time>2026-04-18T12:02:29.21Z</time></trkpt><trkpt lat="43.7152262" lon="11.5478071"><ele>819.0</ele><time>2026-04-18T12:02:30.21Z</time></trkpt><trkpt lat="43.7151648" lon="11.5476619"><ele>819.0</ele><time>2026-04-18T12:02:31.209Z</time></trkpt><trkpt lat="43.71509" lon="11.5475203"><ele>819.0</ele><time>2026-04-18T12:02:32.21Z</time></trkpt><trkpt lat="43.7150234" lon="11.5473649"><ele>819.0</ele><time>2026-04-18T12:02:33.21Z</time></trkpt><trkpt lat="43.7149584" lon="11.5472065"><ele>819.0</ele><time>2026-04-18T12:02:34.209Z</time></trkpt><trkpt lat="43.7149036" lon="11.5470385"><ele>822.5</ele><time>2026-04-18T12:02:35.209Z</time></trkpt><trkpt lat="43.71485" lon="11.5468703"><ele>826.0</ele><time>2026-04-18T12:02:36.209Z</time></trkpt><trkpt lat="43.7148038" lon="11.546688"><ele>829.5</ele><time>2026-04-18T12:02:37.21Z</time></trkpt><trkpt lat="43.7147502" lon="11.546494"><ele>833.0</ele><time>2026-04-18T12:02:38.21Z</time></trkpt><trkpt lat="43.7147094" lon="11.5462998"><ele>836.25</ele><time>2026-04-18T12:02:39.21Z</time></trkpt><trkpt lat="43.7146749" lon="11.5461049"><ele>839.5</ele><time>2026-04-18T12:02:40.209Z</time></trkpt><trkpt lat="43.7146466" lon="11.545909"><ele>842.75</ele><time>2026-04-18T12:02:41.21Z</time></trkpt><trkpt lat="43.7146299" lon="11.545712"><ele>846.0</ele><time>2026-04-18T12:02:42.21Z</time></trkpt><trkpt lat="43.7146254" lon="11.5455167"><ele>845.25</ele><time>2026-04-18T12:02:43.21Z</time></trkpt><trkpt lat="43.7146371" lon="11.5453223"><ele>844.5</ele><time>2026-04-18T12:02:44.21Z</time></trkpt><trkpt lat="43.714661" lon="11.5451317"><ele>843.75</ele><time>2026-04-18T12:02:45.21Z</time></trkpt><trkpt lat="43.7147019" lon="11.5449375"><ele>843.0</ele><time>2026-04-18T12:02:46.21Z</time></trkpt><trkpt lat="43.7147527" lon="11.5447494"><ele>843.0</ele><time>2026-04-18T12:02:47.209Z</time></trkpt><trkpt lat="43.7148058" lon="11.5445849"><ele>843.0</ele><time>2026-04-18T12:02:48.21Z</time></trkpt><trkpt lat="43.71487" lon="11.5444511"><ele>843.0</ele><time>2026-04-18T12:02:49.21Z</time></trkpt><trkpt lat="43.7149567" lon="11.5443426"><ele>843.0</ele><time>2026-04-18T12:02:50.21Z</time></trkpt><trkpt lat="43.7150415" lon="11.5442938"><ele>842.75</ele><time>2026-04-18T12:02:51.21Z</time></trkpt><trkpt lat="43.7151374" lon="11.5442877"><ele>842.5</ele><time>2026-04-18T12:02:52.21Z</time></trkpt><trkpt lat="43.7152957" lon="11.5443591"><ele>842.25</ele><time>2026-04-18T12:02:53.21Z</time></trkpt><trkpt lat="43.7154295" lon="11.5444006"><ele>842.0</ele><time>2026-04-18T12:02:54.21Z</time></trkpt><trkpt lat="43.7155606" lon="11.5444401"><ele>842.0</ele><time>2026-04-18T12:02:55.209Z</time></trkpt><trkpt lat="43.7156827" lon="11.5444933"><ele>842.0</ele><time>2026-04-18T12:02:56.209Z</time></trkpt><trkpt lat="43.7158001" lon="11.5445543"><ele>842.0</ele><time>2026-04-18T12:02:57.209Z</time></trkpt><trkpt lat="43.7159096" lon="11.5445772"><ele>842.0</ele><time>2026-04-18T12:02:58.21Z</time></trkpt><trkpt lat="43.7160216" lon="11.5446018"><ele>852.0</ele><time>2026-04-18T12:02:59.209Z</time></trkpt><trkpt lat="43.7161038" lon="11.5444589"><ele>862.0</ele><time>2026-04-18T12:03:00.21Z</time></trkpt><trkpt lat="43.7161585" lon="11.5442884"><ele>872.0</ele><time>2026-04-18T12:03:01.209Z</time></trkpt><trkpt lat="43.7161804" lon="11.5441301"><ele>882.0</ele><time>2026-04-18T12:03:02.21Z</time></trkpt><trkpt lat="43.7162025" lon="11.5439526"><ele>882.0</ele><time>2026-04-18T12:03:03.209Z</time></trkpt><trkpt lat="43.7162104" lon="11.5437637"><ele>882.0</ele><time>2026-04-18T12:03:04.209Z</time></trkpt><trkpt lat="43.716227" lon="11.5435722"><ele>882.0</ele><time>2026-04-18T12:03:05.21Z</time></trkpt><trkpt lat="43.7162423" lon="11.5433741"><ele>882.0</ele><time>2026-04-18T12:03:06.21Z</time></trkpt><trkpt lat="43.7162616" lon="11.5431655"><ele>882.3333333333333</ele><time>2026-04-18T12:03:07.209Z</time></trkpt><trkpt lat="43.7162802" lon="11.5429531"><ele>882.6666666666666</ele><time>2026-04-18T12:03:08.21Z</time></trkpt><trkpt lat="43.7163048" lon="11.5427356"><ele>883.0</ele><time>2026-04-18T12:03:09.209Z</time></trkpt><trkpt lat="43.7163259" lon="11.5425292"><ele>883.6666666666666</ele><time>2026-04-18T12:03:10.21Z</time></trkpt><trkpt lat="43.7163459" lon="11.5423196"><ele>884.3333333333333</ele><time>2026-04-18T12:03:11.21Z</time></trkpt><trkpt lat="43.7163675" lon="11.5421082"><ele>885.0</ele><time>2026-04-18T12:03:12.21Z</time></trkpt><trkpt lat="43.7163773" lon="11.5418986"><ele>885.75</ele><time>2026-04-18T12:03:13.21Z</time></trkpt><trkpt lat="43.7163834" lon="11.5416966"><ele>886.5</ele><time>2026-04-18T12:03:14.209Z</time></trkpt><trkpt lat="43.7163861" lon="11.5414963"><ele>887.25</ele><time>2026-04-18T12:03:15.21Z</time></trkpt><trkpt lat="43.7163693" lon="11.5413132"><ele>888.0</ele><time>2026-04-18T12:03:16.21Z</time></trkpt><trkpt lat="43.7163261" lon="11.5411538"><ele>889.25</ele><time>2026-04-18T12:03:17.209Z</time></trkpt><trkpt lat="43.7162804" lon="11.5410036"><ele>890.5</ele><time>2026-04-18T12:03:18.21Z</time></trkpt><trkpt lat="43.7161305" lon="11.5409678"><ele>891.75</ele><time>2026-04-18T12:03:19.21Z</time></trkpt><trkpt lat="43.7160154" lon="11.5408964"><ele>893.0</ele><time>2026-04-18T12:03:20.21Z</time></trkpt><trkpt lat="43.7159052" lon="11.5408077"><ele>888.75</ele><time>2026-04-18T12:03:21.21Z</time></trkpt><trkpt lat="43.7158146" lon="11.5406583"><ele>884.5</ele><time>2026-04-18T12:03:22.21Z</time></trkpt><trkpt lat="43.715761" lon="11.5404969"><ele>880.25</ele><time>2026-04-18T12:03:23.209Z</time></trkpt><trkpt lat="43.715725" lon="11.5403162"><ele>876.0</ele><time>2026-04-18T12:03:24.21Z</time></trkpt><trkpt lat="43.7156934" lon="11.5401244"><ele>876.0</ele><time>2026-04-18T12:03:25.21Z</time></trkpt><trkpt lat="43.7156755" lon="11.5399303"><ele>876.0</ele><time>2026-04-18T12:03:26.21Z</time></trkpt><trkpt lat="43.7156854" lon="11.5397286"><ele>876.0</ele><time>2026-04-18T12:03:27.21Z</time></trkpt><trkpt lat="43.7157226" lon="11.5395345"><ele>876.0</ele><time>2026-04-18T12:03:28.21Z</time></trkpt><trkpt lat="43.715774" lon="11.5393418"><ele>876.0</ele><time>2026-04-18T12:03:29.209Z</time></trkpt><trkpt lat="43.7158384" lon="11.539165"><ele>876.0</ele><time>2026-04-18T12:03:30.209Z</time></trkpt><trkpt lat="43.7159068" lon="11.539006"><ele>876.0</ele><time>2026-04-18T12:03:31.21Z</time></trkpt><trkpt lat="43.71599" lon="11.5388778"><ele>876.0</ele><time>2026-04-18T12:03:32.21Z</time></trkpt><trkpt lat="43.7160811" lon="11.5387687"><ele>880.5</ele><time>2026-04-18T12:03:33.209Z</time></trkpt><trkpt lat="43.7161937" lon="11.5387247"><ele>885.0</ele><time>2026-04-18T12:03:34.209Z</time></trkpt><trkpt lat="43.7163242" lon="11.5387653"><ele>889.5</ele><time>2026-04-18T12:03:35.209Z</time></trkpt><trkpt lat="43.7164736" lon="11.5388627"><ele>894.0</ele><time>2026-04-18T12:03:36.21Z</time></trkpt><trkpt lat="43.7165957" lon="11.5389438"><ele>894.0</ele><time>2026-04-18T12:03:37.209Z</time></trkpt><trkpt lat="43.7167088" lon="11.5390607"><ele>894.0</ele><time>2026-04-18T12:03:38.21Z</time></trkpt><trkpt lat="43.7168112" lon="11.5391876"><ele>894.0</ele><time>2026-04-18T12:03:39.209Z</time></trkpt><trkpt lat="43.7169272" lon="11.5393168"><ele>894.0</ele><time>2026-04-18T12:03:40.209Z</time></trkpt><trkpt lat="43.7170479" lon="11.5394499"><ele>897.6666666666667</ele><time>2026-04-18T12:03:41.21Z</time></trkpt><trkpt lat="43.7171626" lon="11.5395756"><ele>901.3333333333334</ele><time>2026-04-18T12:03:42.21Z</time></trkpt><trkpt lat="43.7172709" lon="11.5397142"><ele>905.0</ele><time>2026-04-18T12:03:43.209Z</time></trkpt><trkpt lat="43.7173719" lon="11.5398786"><ele>905.0</ele><time>2026-04-18T12:03:44.21Z</time></trkpt><trkpt lat="43.7174602" lon="11.5400465"><ele>905.0</ele><time>2026-04-18T12:03:45.21Z</time></trkpt><trkpt lat="43.717542" lon="11.5402226"><ele>905.0</ele><time>2026-04-18T12:03:46.21Z</time></trkpt><trkpt lat="43.7176209" lon="11.5403927"><ele>905.0</ele><time>2026-04-18T12:03:47.21Z</time></trkpt><trkpt lat="43.7177" lon="11.5405544"><ele>905.6666666666667</ele><time>2026-04-18T12:03:48.21Z</time></trkpt><trkpt lat="43.7178002" lon="11.5407282"><ele>906.3333333333333</ele><time>2026-04-18T12:03:49.209Z</time></trkpt><trkpt lat="43.7179049" lon="11.5408672"><ele>907.0</ele><time>2026-04-18T12:03:50.21Z</time></trkpt><trkpt lat="43.7180188" lon="11.541009"><ele>907.0</ele><time>2026-04-18T12:03:51.209Z</time></trkpt><trkpt lat="43.7181236" lon="11.5411363"><ele>907.0</ele><time>2026-04-18T12:03:52.21Z</time></trkpt><trkpt lat="43.7182324" lon="11.5412547"><ele>907.0</ele><time>2026-04-18T12:03:53.209Z</time></trkpt><trkpt lat="43.7183784" lon="11.5414087"><ele>909.3333333333333</ele><time>2026-04-18T12:03:54.21Z</time></trkpt><trkpt lat="43.7185172" lon="11.5415177"><ele>911.6666666666667</ele><time>2026-04-18T12:03:55.209Z</time></trkpt><trkpt lat="43.7186626" lon="11.541643"><ele>914.0</ele><time>2026-04-18T12:03:56.209Z</time></trkpt><trkpt lat="43.7188115" lon="11.541773"><ele>914.0</ele><time>2026-04-18T12:03:57.209Z</time></trkpt><trkpt lat="43.7189615" lon="11.5418694"><ele>914.0</ele><time>2026-04-18T12:03:58.21Z</time></trkpt><trkpt lat="43.7191221" lon="11.5419347"><ele>914.0</ele><time>2026-04-18T12:03:59.21Z</time></trkpt><trkpt lat="43.7192864" lon="11.5419827"><ele>913.6666666666667</ele><time>2026-04-18T12:04:00.21Z</time></trkpt><trkpt lat="43.7194593" lon="11.5420428"><ele>913.3333333333333</ele><time>2026-04-18T12:04:01.209Z</time></trkpt><trkpt lat="43.7196257" lon="11.5420875"><ele>913.0</ele><time>2026-04-18T12:04:02.21Z</time></trkpt><trkpt lat="43.7197935" lon="11.5421338"><ele>921.3333333333333</ele><time>2026-04-18T12:04:03.21Z</time></trkpt><trkpt lat="43.7199521" lon="11.5421781"><ele>929.6666666666667</ele><time>2026-04-18T12:04:04.209Z</time></trkpt><trkpt lat="43.7201196" lon="11.542237"><ele>938.0</ele><time>2026-04-18T12:04:05.21Z</time></trkpt><trkpt lat="43.7202833" lon="11.5422837"><ele>938.0</ele><time>2026-04-18T12:04:06.21Z</time></trkpt><trkpt lat="43.7204555" lon="11.5423331"><ele>938.0</ele><time>2026-04-18T12:04:07.209Z</time></trkpt><trkpt lat="43.7206201" lon="11.5423733"><ele>938.0</ele><time>2026-04-18T12:04:08.21Z</time></trkpt><trkpt lat="43.7207734" lon="11.5424036"><ele>938.0</ele><time>2026-04-18T12:04:09.21Z</time></trkpt><trkpt lat="43.7209448" lon="11.542414"><ele>938.0</ele><time>2026-04-18T12:04:10.21Z</time></trkpt><trkpt lat="43.72111" lon="11.5424176"><ele>938.0</ele><time>2026-04-18T12:04:11.21Z</time></trkpt><trkpt lat="43.7212717" lon="11.5424262"><ele>939.6666666666667</ele><time>2026-04-18T12:04:12.21Z</time></trkpt><trkpt lat="43.7214346" lon="11.5424512"><ele>941.3333333333333</ele><time>2026-04-18T12:04:13.21Z</time></trkpt><trkpt lat="43.7215951" lon="11.5424842"><ele>943.0</ele><time>2026-04-18T12:04:14.21Z</time></trkpt><trkpt lat="43.7217485" lon="11.5425206"><ele>944.25</ele><time>2026-04-18T12:04:15.21Z</time></trkpt><trkpt lat="43.721906" lon="11.5425472"><ele>945.5</ele><time>2026-04-18T12:04:16.21Z</time></trkpt><trkpt lat="43.7220475" lon="11.5425107"><ele>946.75</ele><time>2026-04-18T12:04:17.21Z</time></trkpt><trkpt lat="43.7221758" lon="11.5424473"><ele>948.0</ele><time>2026-04-18T12:04:18.209Z</time></trkpt><trkpt lat="43.7223028" lon="11.5423918"><ele>948.0</ele><time>2026-04-18T12:04:19.21Z</time></trkpt><trkpt lat="43.7224187" lon="11.5423639"><ele>948.0</ele><time>2026-04-18T12:04:20.209Z</time></trkpt><trkpt lat="43.7225217" lon="11.542353"><ele>948.0</ele><time>2026-04-18T12:04:21.21Z</time></trkpt><trkpt lat="43.7226353" lon="11.542389"><ele>948.0</ele><time>2026-04-18T12:04:22.21Z</time></trkpt><trkpt lat="43.7227115" lon="11.5424799"><ele>948.0</ele><time>2026-04-18T12:04:23.21Z</time></trkpt><trkpt lat="43.7227556" lon="11.5425773"><ele>949.5</ele><time>2026-04-18T12:04:24.21Z</time></trkpt><trkpt lat="43.7227398" lon="11.5427807"><ele>951.0</ele><time>2026-04-18T12:04:25.209Z</time></trkpt><trkpt lat="43.7227514" lon="11.5429652"><ele>952.5</ele><time>2026-04-18T12:04:26.21Z</time></trkpt><trkpt lat="43.7227675" lon="11.5431295"><ele>954.0</ele><time>2026-04-18T12:04:27.21Z</time></trkpt><trkpt lat="43.7227996" lon="11.5433"><ele>954.0</ele><time>2026-04-18T12:04:28.21Z</time></trkpt><trkpt lat="43.7228463" lon="11.5434927"><ele>954.0</ele><time>2026-04-18T12:04:29.21Z</time></trkpt><trkpt lat="43.7229211" lon="11.543657"><ele>954.0</ele><time>2026-04-18T12:04:30.21Z</time></trkpt><trkpt lat="43.7230006" lon="11.5437754"><ele>954.0</ele><time>2026-04-18T12:04:31.21Z</time></trkpt><trkpt lat="43.7230888" lon="11.5438828"><ele>960.75</ele><time>2026-04-18T12:04:32.209Z</time></trkpt><trkpt lat="43.7231986" lon="11.5439367"><ele>967.5</ele><time>2026-04-18T12:04:33.209Z</time></trkpt><trkpt lat="43.7233115" lon="11.5439266"><ele>974.25</ele><time>2026-04-18T12:04:34.21Z</time></trkpt><trkpt lat="43.7234464" lon="11.5438691"><ele>981.0</ele><time>2026-04-18T12:04:35.21Z</time></trkpt><trkpt lat="43.723577" lon="11.5438209"><ele>984.5</ele><time>2026-04-18T12:04:36.209Z</time></trkpt><trkpt lat="43.7237087" lon="11.5437651"><ele>988.0</ele><time>2026-04-18T12:04:37.21Z</time></trkpt><trkpt lat="43.7238422" lon="11.543698"><ele>991.5</ele><time>2026-04-18T12:04:38.209Z</time></trkpt><trkpt lat="43.7239861" lon="11.5436076"><ele>995.0</ele><time>2026-04-18T12:04:39.209Z</time></trkpt><trkpt lat="43.7241241" lon="11.5435153"><ele>992.25</ele><time>2026-04-18T12:04:40.21Z</time></trkpt><trkpt lat="43.7242378" lon="11.5433982"><ele>989.5</ele><time>2026-04-18T12:04:41.209Z</time></trkpt><trkpt lat="43.7243428" lon="11.5432783"><ele>986.75</ele><time>2026-04-18T12:04:42.21Z</time></trkpt><trkpt lat="43.7244393" lon="11.5431595"><ele>984.0</ele><time>2026-04-18T12:04:43.21Z</time></trkpt><trkpt lat="43.7245688" lon="11.5431437"><ele>984.0</ele><time>2026-04-18T12:04:44.209Z</time></trkpt><trkpt lat="43.7246676" lon="11.5431081"><ele>984.0</ele><time>2026-04-18T12:04:45.21Z</time></trkpt><trkpt lat="43.7247864" lon="11.5431566"><ele>984.0</ele><time>2026-04-18T12:04:46.21Z</time></trkpt><trkpt lat="43.7248848" lon="11.5433125"><ele>984.0</ele><time>2026-04-18T12:04:47.21Z</time></trkpt><trkpt lat="43.7249827" lon="11.5433559"><ele>984.0</ele><time>2026-04-18T12:04:48.21Z</time></trkpt><trkpt lat="43.7250955" lon="11.5434416"><ele>984.0</ele><time>2026-04-18T12:04:49.21Z</time></trkpt><trkpt lat="43.7252056" lon="11.5434788"><ele>984.0</ele><time>2026-04-18T12:04:50.21Z</time></trkpt><trkpt lat="43.725303" lon="11.543454"><ele>984.0</ele><time>2026-04-18T12:04:51.21Z</time></trkpt><trkpt lat="43.7254237" lon="11.5432402"><ele>981.75</ele><time>2026-04-18T12:04:52.209Z</time></trkpt><trkpt lat="43.7255585" lon="11.5431028"><ele>979.5</ele><time>2026-04-18T12:04:53.21Z</time></trkpt><trkpt lat="43.725674" lon="11.5429927"><ele>977.25</ele><time>2026-04-18T12:04:54.209Z</time></trkpt><trkpt lat="43.725786" lon="11.5428791"><ele>975.0</ele><time>2026-04-18T12:04:55.21Z</time></trkpt><trkpt lat="43.7259006" lon="11.5427597"><ele>975.0</ele><time>2026-04-18T12:04:56.209Z</time></trkpt><trkpt lat="43.726009" lon="11.5426129"><ele>975.0</ele><time>2026-04-18T12:04:57.21Z</time></trkpt><trkpt lat="43.7261149" lon="11.5424719"><ele>975.0</ele><time>2026-04-18T12:04:58.21Z</time></trkpt><trkpt lat="43.7262019" lon="11.5423351"><ele>975.0</ele><time>2026-04-18T12:04:59.209Z</time></trkpt><trkpt lat="43.7262776" lon="11.5421541"><ele>985.6666666666667</ele><time>2026-04-18T12:05:00.21Z</time></trkpt><trkpt lat="43.7263101" lon="11.5419628"><ele>996.3333333333334</ele><time>2026-04-18T12:05:01.209Z</time></trkpt><trkpt lat="43.7263133" lon="11.5417535"><ele>1007.0</ele><time>2026-04-18T12:05:02.209Z</time></trkpt><trkpt lat="43.7262404" lon="11.5415362"><ele>1007.0</ele><time>2026-04-18T12:05:03.209Z</time></trkpt><trkpt lat="43.7261751" lon="11.5413371"><ele>1007.0</ele><time>2026-04-18T12:05:04.21Z</time></trkpt><trkpt lat="43.7261107" lon="11.541129"><ele>1007.0</ele><time>2026-04-18T12:05:05.21Z</time></trkpt><trkpt lat="43.7260871" lon="11.5409209"><ele>1006.5</ele><time>2026-04-18T12:05:06.21Z</time></trkpt><trkpt lat="43.7260954" lon="11.5407144"><ele>1006.0</ele><time>2026-04-18T12:05:07.21Z</time></trkpt><trkpt lat="43.7261424" lon="11.5405389"><ele>1005.5</ele><time>2026-04-18T12:05:08.209Z</time></trkpt><trkpt lat="43.7262077" lon="11.5403556"><ele>1005.0</ele><time>2026-04-18T12:05:09.21Z</time></trkpt><trkpt lat="43.7262911" lon="11.5402034"><ele>1000.5</ele><time>2026-04-18T12:05:10.209Z</time></trkpt><trkpt lat="43.7263795" lon="11.54005"><ele>996.0</ele><time>2026-04-18T12:05:11.21Z</time></trkpt><trkpt lat="43.7264306" lon="11.5398683"><ele>991.5</ele><time>2026-04-18T12:05:12.21Z</time></trkpt><trkpt lat="43.7264849" lon="11.5396999"><ele>987.0</ele><time>2026-04-18T12:05:13.21Z</time></trkpt><trkpt lat="43.7264566" lon="11.5395038"><ele>984.25</ele><time>2026-04-18T12:05:14.21Z</time></trkpt><trkpt lat="43.7264542" lon="11.5393373"><ele>981.5</ele><time>2026-04-18T12:05:15.21Z</time></trkpt><trkpt lat="43.7264635" lon="11.5391581"><ele>978.75</ele><time>2026-04-18T12:05:16.209Z</time></trkpt><trkpt lat="43.7265224" lon="11.5390055"><ele>976.0</ele><time>2026-04-18T12:05:17.21Z</time></trkpt><trkpt lat="43.7265391" lon="11.5388522"><ele>974.4</ele><time>2026-04-18T12:05:18.21Z</time></trkpt><trkpt lat="43.7265345" lon="11.538697"><ele>972.8</ele><time>2026-04-18T12:05:19.21Z</time></trkpt><trkpt lat="43.7265309" lon="11.538543"><ele>971.1999999999999</ele><time>2026-04-18T12:05:20.21Z</time></trkpt><trkpt lat="43.7265203" lon="11.5384067"><ele>969.5999999999999</ele><time>2026-04-18T12:05:21.21Z</time></trkpt><trkpt lat="43.7265374" lon="11.5382807"><ele>968.0</ele><time>2026-04-18T12:05:22.21Z</time></trkpt><trkpt lat="43.7265796" lon="11.5381628"><ele>968.0</ele><time>2026-04-18T12:05:23.21Z</time></trkpt><trkpt lat="43.7266468" lon="11.5380874"><ele>968.0</ele><time>2026-04-18T12:05:24.21Z</time></trkpt><trkpt lat="43.7267358" lon="11.5380341"><ele>968.0</ele><time>2026-04-18T12:05:25.21Z</time></trkpt><trkpt lat="43.7268477" lon="11.5380352"><ele>968.0</ele><time>2026-04-18T12:05:26.21Z</time></trkpt><trkpt lat="43.7269656" lon="11.5380428"><ele>968.0</ele><time>2026-04-18T12:05:27.21Z</time></trkpt><trkpt lat="43.7270942" lon="11.5380485"><ele>969.25</ele><time>2026-04-18T12:05:28.209Z</time></trkpt><trkpt lat="43.7272246" lon="11.5380664"><ele>970.5</ele><time>2026-04-18T12:05:29.21Z</time></trkpt><trkpt lat="43.7273559" lon="11.5380761"><ele>971.75</ele><time>2026-04-18T12:05:30.21Z</time></trkpt><trkpt lat="43.7274885" lon="11.5380908"><ele>973.0</ele><time>2026-04-18T12:05:31.21Z</time></trkpt><trkpt lat="43.727628" lon="11.5381139"><ele>973.25</ele><time>2026-04-18T12:05:32.21Z</time></trkpt><trkpt lat="43.7277583" lon="11.5381197"><ele>973.5</ele><time>2026-04-18T12:05:33.209Z</time></trkpt><trkpt lat="43.7278821" lon="11.5381266"><ele>973.75</ele><time>2026-04-18T12:05:34.21Z</time></trkpt><trkpt lat="43.7280051" lon="11.5381066"><ele>974.0</ele><time>2026-04-18T12:05:35.21Z</time></trkpt><trkpt lat="43.728118" lon="11.5380793"><ele>974.0</ele><time>2026-04-18T12:05:36.21Z</time></trkpt><trkpt lat="43.7282211" lon="11.538044"><ele>974.0000000000001</ele><time>2026-04-18T12:05:37.21Z</time></trkpt><trkpt lat="43.7283054" lon="11.538005"><ele>974.0000000000001</ele><time>2026-04-18T12:05:38.209Z</time></trkpt><trkpt lat="43.7283651" lon="11.5379631"><ele>974.0</ele><time>2026-04-18T12:05:39.209Z</time></trkpt><trkpt lat="43.7284397" lon="11.5379022"><ele>974.0</ele><time>2026-04-18T12:06:18.21Z</time></trkpt><trkpt lat="43.7285032" lon="11.5377874"><ele>972.8000000000001</ele><time>2026-04-18T12:06:20.21Z</time></trkpt><trkpt lat="43.7285432" lon="11.5376945"><ele>971.6000000000001</ele><time>2026-04-18T12:06:21.209Z</time></trkpt><trkpt lat="43.7285837" lon="11.5375789"><ele>970.4</ele><time>2026-04-18T12:06:22.21Z</time></trkpt><trkpt lat="43.7286295" lon="11.5374501"><ele>969.2</ele><time>2026-04-18T12:06:23.209Z</time></trkpt><trkpt lat="43.7286765" lon="11.5373173"><ele>968.0</ele><time>2026-04-18T12:06:24.21Z</time></trkpt><trkpt lat="43.7287544" lon="11.5372056"><ele>968.0</ele><time>2026-04-18T12:06:25.21Z</time></trkpt><trkpt lat="43.7288342" lon="11.537099"><ele>968.0</ele><time>2026-04-18T12:06:26.21Z</time></trkpt><trkpt lat="43.7289206" lon="11.5370228"><ele>968.0</ele><time>2026-04-18T12:06:27.21Z</time></trkpt><trkpt lat="43.7290385" lon="11.53699"><ele>968.0</ele><time>2026-04-18T12:06:28.209Z</time></trkpt><trkpt lat="43.7291644" lon="11.5369733"><ele>967.5</ele><time>2026-04-18T12:06:29.21Z</time></trkpt><trkpt lat="43.7292951" lon="11.5369687"><ele>967.0</ele><time>2026-04-18T12:06:30.21Z</time></trkpt><trkpt lat="43.7294333" lon="11.5369777"><ele>966.5</ele><time>2026-04-18T12:06:31.21Z</time></trkpt><trkpt lat="43.7295565" lon="11.537019"><ele>966.0</ele><time>2026-04-18T12:06:32.21Z</time></trkpt><trkpt lat="43.7296743" lon="11.5370752"><ele>966.0</ele><time>2026-04-18T12:06:33.209Z</time></trkpt><trkpt lat="43.7297914" lon="11.537154"><ele>966.0</ele><time>2026-04-18T12:06:34.21Z</time></trkpt><trkpt lat="43.7298916" lon="11.5372486"><ele>966.0</ele><time>2026-04-18T12:06:35.209Z</time></trkpt><trkpt lat="43.7299764" lon="11.5373489"><ele>966.0</ele><time>2026-04-18T12:06:36.21Z</time></trkpt><trkpt lat="43.7300454" lon="11.5374686"><ele>966.0</ele><time>2026-04-18T12:06:37.21Z</time></trkpt><trkpt lat="43.7300946" lon="11.537601"><ele>965.9999999999999</ele><time>2026-04-18T12:06:38.21Z</time></trkpt><trkpt lat="43.730128" lon="11.5377241"><ele>965.9999999999999</ele><time>2026-04-18T12:06:39.209Z</time></trkpt><trkpt lat="43.7301277" lon="11.5378737"><ele>966.0</ele><time>2026-04-18T12:06:40.21Z</time></trkpt><trkpt lat="43.7301243" lon="11.5380029"><ele>966.0</ele><time>2026-04-18T12:06:41.209Z</time></trkpt><trkpt lat="43.7300975" lon="11.5381441"><ele>967.4</ele><time>2026-04-18T12:06:42.209Z</time></trkpt><trkpt lat="43.7300647" lon="11.5382835"><ele>968.8</ele><time>2026-04-18T12:06:43.21Z</time></trkpt><trkpt lat="43.7300461" lon="11.5384329"><ele>970.1999999999999</ele><time>2026-04-18T12:06:44.21Z</time></trkpt><trkpt lat="43.7300447" lon="11.5385865"><ele>971.5999999999999</ele><time>2026-04-18T12:06:45.209Z</time></trkpt><trkpt lat="43.7300606" lon="11.5387329"><ele>973.0</ele><time>2026-04-18T12:06:46.21Z</time></trkpt><trkpt lat="43.7300913" lon="11.5388772"><ele>974.75</ele><time>2026-04-18T12:06:47.21Z</time></trkpt><trkpt lat="43.7301238" lon="11.5390236"><ele>976.5</ele><time>2026-04-18T12:06:48.21Z</time></trkpt><trkpt lat="43.7301564" lon="11.5391715"><ele>978.25</ele><time>2026-04-18T12:06:49.21Z</time></trkpt><trkpt lat="43.7301958" lon="11.5393263"><ele>980.0</ele><time>2026-04-18T12:06:50.209Z</time></trkpt><trkpt lat="43.7302318" lon="11.5394832"><ele>978.25</ele><time>2026-04-18T12:06:51.21Z</time></trkpt><trkpt lat="43.73027" lon="11.5396518"><ele>976.5</ele><time>2026-04-18T12:06:52.21Z</time></trkpt><trkpt lat="43.730299" lon="11.5398253"><ele>974.75</ele><time>2026-04-18T12:06:53.209Z</time></trkpt><trkpt lat="43.7303145" lon="11.5400055"><ele>973.0</ele><time>2026-04-18T12:06:54.21Z</time></trkpt><trkpt lat="43.7303321" lon="11.5401802"><ele>973.0</ele><time>2026-04-18T12:06:55.21Z</time></trkpt><trkpt lat="43.7303588" lon="11.5403424"><ele>973.0</ele><time>2026-04-18T12:06:56.21Z</time></trkpt><trkpt lat="43.7304034" lon="11.5404861"><ele>973.0</ele><time>2026-04-18T12:06:57.209Z</time></trkpt><trkpt lat="43.7304597" lon="11.540621"><ele>973.0</ele><time>2026-04-18T12:06:58.21Z</time></trkpt><trkpt lat="43.7305406" lon="11.5407343"><ele>975.5999999999999</ele><time>2026-04-18T12:06:59.21Z</time></trkpt><trkpt lat="43.7306394" lon="11.5407702"><ele>978.1999999999999</ele><time>2026-04-18T12:07:00.21Z</time></trkpt><trkpt lat="43.7307448" lon="11.5408058"><ele>980.8</ele><time>2026-04-18T12:07:01.209Z</time></trkpt><trkpt lat="43.7308317" lon="11.5408401"><ele>983.4</ele><time>2026-04-18T12:07:02.21Z</time></trkpt><trkpt lat="43.7309106" lon="11.5409052"><ele>986.0</ele><time>2026-04-18T12:07:03.21Z</time></trkpt><trkpt lat="43.7309734" lon="11.5409944"><ele>986.0</ele><time>2026-04-18T12:07:04.21Z</time></trkpt><trkpt lat="43.7310221" lon="11.5411028"><ele>985.9999999999999</ele><time>2026-04-18T12:07:05.209Z</time></trkpt><trkpt lat="43.7310579" lon="11.5412353"><ele>985.9999999999999</ele><time>2026-04-18T12:07:06.209Z</time></trkpt><trkpt lat="43.7310853" lon="11.5413815"><ele>986.0</ele><time>2026-04-18T12:07:07.21Z</time></trkpt><trkpt lat="43.7311115" lon="11.5415283"><ele>986.0</ele><time>2026-04-18T12:07:08.21Z</time></trkpt><trkpt lat="43.7311367" lon="11.5416787"><ele>985.5</ele><time>2026-04-18T12:07:09.21Z</time></trkpt><trkpt lat="43.7311913" lon="11.5418264"><ele>985.0</ele><time>2026-04-18T12:07:10.21Z</time></trkpt><trkpt lat="43.7312635" lon="11.5419581"><ele>984.5</ele><time>2026-04-18T12:07:11.209Z</time></trkpt><trkpt lat="43.7313416" lon="11.5420932"><ele>984.0</ele><time>2026-04-18T12:07:12.21Z</time></trkpt><trkpt lat="43.7314292" lon="11.5421935"><ele>985.2</ele><time>2026-04-18T12:07:13.21Z</time></trkpt><trkpt lat="43.7315051" lon="11.5423062"><ele>986.4000000000001</ele><time>2026-04-18T12:07:14.21Z</time></trkpt><trkpt lat="43.7315678" lon="11.5424206"><ele>987.6</ele><time>2026-04-18T12:07:15.209Z</time></trkpt><trkpt lat="43.7316205" lon="11.5425366"><ele>988.8</ele><time>2026-04-18T12:07:16.21Z</time></trkpt><trkpt lat="43.7316518" lon="11.5426414"><ele>990.0</ele><time>2026-04-18T12:07:17.209Z</time></trkpt><trkpt lat="43.7316647" lon="11.5427508"><ele>990.0</ele><time>2026-04-18T12:07:18.21Z</time></trkpt><trkpt lat="43.7316639" lon="11.5428514"><ele>990.0</ele><time>2026-04-18T12:07:19.209Z</time></trkpt><trkpt lat="43.7316272" lon="11.5429676"><ele>990.0</ele><time>2026-04-18T12:07:20.21Z</time></trkpt><trkpt lat="43.7315925" lon="11.5430886"><ele>990.0</ele><time>2026-04-18T12:07:21.209Z</time></trkpt><trkpt lat="43.7315762" lon="11.543207"><ele>990.0</ele><time>2026-04-18T12:07:22.21Z</time></trkpt><trkpt lat="43.7315755" lon="11.5433298"><ele>990.0</ele><time>2026-04-18T12:07:23.21Z</time></trkpt><trkpt lat="43.7316149" lon="11.5434641"><ele>989.6</ele><time>2026-04-18T12:07:24.209Z</time></trkpt><trkpt lat="43.7316562" lon="11.5435954"><ele>989.2</ele><time>2026-04-18T12:07:25.21Z</time></trkpt><trkpt lat="43.7317058" lon="11.5437208"><ele>988.8</ele><time>2026-04-18T12:07:26.21Z</time></trkpt><trkpt lat="43.7317583" lon="11.5438411"><ele>988.4</ele><time>2026-04-18T12:07:27.21Z</time></trkpt><trkpt lat="43.73182" lon="11.5439591"><ele>988.0</ele><time>2026-04-18T12:07:28.209Z</time></trkpt><trkpt lat="43.7319123" lon="11.5440761"><ele>988.0</ele><time>2026-04-18T12:07:29.21Z</time></trkpt><trkpt lat="43.7320067" lon="11.5441622"><ele>988.0</ele><time>2026-04-18T12:07:30.21Z</time></trkpt><trkpt lat="43.7320951" lon="11.5442817"><ele>988.0</ele><time>2026-04-18T12:07:31.21Z</time></trkpt><trkpt lat="43.7321857" lon="11.5443904"><ele>988.0</ele><time>2026-04-18T12:07:32.209Z</time></trkpt><trkpt lat="43.7322679" lon="11.544519"><ele>989.5</ele><time>2026-04-18T12:07:33.21Z</time></trkpt><trkpt lat="43.7323511" lon="11.54466"><ele>991.0</ele><time>2026-04-18T12:07:34.209Z</time></trkpt><trkpt lat="43.73241" lon="11.5448115"><ele>992.5</ele><time>2026-04-18T12:07:35.21Z</time></trkpt><trkpt lat="43.7324645" lon="11.544973"><ele>994.0</ele><time>2026-04-18T12:07:36.21Z</time></trkpt><trkpt lat="43.7324877" lon="11.5451514"><ele>994.0</ele><time>2026-04-18T12:07:37.21Z</time></trkpt><trkpt lat="43.7325015" lon="11.5453275"><ele>994.0</ele><time>2026-04-18T12:07:38.21Z</time></trkpt><trkpt lat="43.7325029" lon="11.5454986"><ele>994.0</ele><time>2026-04-18T12:07:39.209Z</time></trkpt><trkpt lat="43.7324911" lon="11.5456796"><ele>994.0</ele><time>2026-04-18T12:07:40.21Z</time></trkpt><trkpt lat="43.7324737" lon="11.5458619"><ele>993.75</ele><time>2026-04-18T12:07:41.209Z</time></trkpt><trkpt lat="43.7324486" lon="11.5460582"><ele>993.5</ele><time>2026-04-18T12:07:42.21Z</time></trkpt><trkpt lat="43.732425" lon="11.5462415"><ele>993.25</ele><time>2026-04-18T12:07:43.209Z</time></trkpt><trkpt lat="43.7324001" lon="11.5464252"><ele>993.0</ele><time>2026-04-18T12:07:44.21Z</time></trkpt><trkpt lat="43.7323793" lon="11.5466105"><ele>992.0</ele><time>2026-04-18T12:07:45.21Z</time></trkpt><trkpt lat="43.7323462" lon="11.5468015"><ele>991.0</ele><time>2026-04-18T12:07:46.209Z</time></trkpt><trkpt lat="43.7323205" lon="11.5469911"><ele>990.0</ele><time>2026-04-18T12:07:47.21Z</time></trkpt><trkpt lat="43.7323159" lon="11.5471941"><ele>989.0</ele><time>2026-04-18T12:07:48.21Z</time></trkpt><trkpt lat="43.7322916" lon="11.5473956"><ele>988.0</ele><time>2026-04-18T12:07:49.21Z</time></trkpt><trkpt lat="43.7322732" lon="11.5475927"><ele>987.0</ele><time>2026-04-18T12:07:50.209Z</time></trkpt><trkpt lat="43.732245" lon="11.5477834"><ele>986.0</ele><time>2026-04-18T12:07:51.21Z</time></trkpt><trkpt lat="43.7322077" lon="11.5479619"><ele>985.0</ele><time>2026-04-18T12:07:52.21Z</time></trkpt><trkpt lat="43.7321581" lon="11.5481366"><ele>985.0</ele><time>2026-04-18T12:07:53.21Z</time></trkpt><trkpt lat="43.7321063" lon="11.5483239"><ele>985.0</ele><time>2026-04-18T12:07:54.209Z</time></trkpt><trkpt lat="43.7320504" lon="11.5485084"><ele>985.0</ele><time>2026-04-18T12:07:55.209Z</time></trkpt><trkpt lat="43.7320068" lon="11.5486705"><ele>985.0</ele><time>2026-04-18T12:07:56.209Z</time></trkpt><trkpt lat="43.7319771" lon="11.5488162"><ele>985.8</ele><time>2026-04-18T12:07:57.209Z</time></trkpt><trkpt lat="43.7319635" lon="11.5489631"><ele>986.6</ele><time>2026-04-18T12:07:58.21Z</time></trkpt><trkpt lat="43.7319958" lon="11.5490791"><ele>987.4000000000001</ele><time>2026-04-18T12:07:59.21Z</time></trkpt><trkpt lat="43.7320375" lon="11.5491807"><ele>988.2</ele><time>2026-04-18T12:08:00.209Z</time></trkpt><trkpt lat="43.7320888" lon="11.5492929"><ele>989.0</ele><time>2026-04-18T12:08:01.21Z</time></trkpt><trkpt lat="43.7321539" lon="11.5494347"><ele>990.0</ele><time>2026-04-18T12:08:02.21Z</time></trkpt><trkpt lat="43.7322157" lon="11.549581"><ele>991.0</ele><time>2026-04-18T12:08:03.21Z</time></trkpt><trkpt lat="43.7322623" lon="11.5497324"><ele>992.0</ele><time>2026-04-18T12:08:04.21Z</time></trkpt><trkpt lat="43.7322855" lon="11.5498932"><ele>993.0</ele><time>2026-04-18T12:08:05.21Z</time></trkpt><trkpt lat="43.7323011" lon="11.5500503"><ele>993.0</ele><time>2026-04-18T12:08:06.21Z</time></trkpt><trkpt lat="43.7322957" lon="11.5502167"><ele>993.0</ele><time>2026-04-18T12:08:07.21Z</time></trkpt><trkpt lat="43.7322631" lon="11.550398"><ele>993.0</ele><time>2026-04-18T12:08:08.21Z</time></trkpt><trkpt lat="43.7322238" lon="11.550577"><ele>993.0</ele><time>2026-04-18T12:08:09.21Z</time></trkpt><trkpt lat="43.7321827" lon="11.5507577"><ele>992.25</ele><time>2026-04-18T12:08:10.21Z</time></trkpt><trkpt lat="43.7321418" lon="11.5509418"><ele>991.5</ele><time>2026-04-18T12:08:11.21Z</time></trkpt><trkpt lat="43.732099" lon="11.5511243"><ele>990.75</ele><time>2026-04-18T12:08:12.209Z</time></trkpt><trkpt lat="43.7320621" lon="11.5513073"><ele>990.0</ele><time>2026-04-18T12:08:13.21Z</time></trkpt><trkpt lat="43.7320324" lon="11.5514914"><ele>988.75</ele><time>2026-04-18T12:08:14.21Z</time></trkpt><trkpt lat="43.7319894" lon="11.5517023"><ele>987.5</ele><time>2026-04-18T12:08:15.209Z</time></trkpt><trkpt lat="43.731975" lon="11.5518981"><ele>986.25</ele><time>2026-04-18T12:08:16.21Z</time></trkpt><trkpt lat="43.7319645" lon="11.5520948"><ele>985.0</ele><time>2026-04-18T12:08:17.21Z</time></trkpt><trkpt lat="43.7319607" lon="11.5522887"><ele>983.25</ele><time>2026-04-18T12:08:18.21Z</time></trkpt><trkpt lat="43.7319563" lon="11.5524956"><ele>981.5</ele><time>2026-04-18T12:08:19.21Z</time></trkpt><trkpt lat="43.7319546" lon="11.5526819"><ele>979.75</ele><time>2026-04-18T12:08:20.209Z</time></trkpt><trkpt lat="43.7319588" lon="11.5528508"><ele>978.0</ele><time>2026-04-18T12:08:21.21Z</time></trkpt><trkpt lat="43.7319759" lon="11.5530211"><ele>976.0</ele><time>2026-04-18T12:08:22.209Z</time></trkpt><trkpt lat="43.7320177" lon="11.5531834"><ele>974.0</ele><time>2026-04-18T12:08:23.21Z</time></trkpt><trkpt lat="43.7320718" lon="11.5533314"><ele>972.0</ele><time>2026-04-18T12:08:24.21Z</time></trkpt><trkpt lat="43.73211" lon="11.5534936"><ele>970.0</ele><time>2026-04-18T12:08:25.21Z</time></trkpt><trkpt lat="43.7321825" lon="11.5536267"><ele>969.25</ele><time>2026-04-18T12:08:26.21Z</time></trkpt><trkpt lat="43.7322261" lon="11.55378"><ele>968.5</ele><time>2026-04-18T12:08:27.21Z</time></trkpt><trkpt lat="43.7322829" lon="11.5539307"><ele>967.75</ele><time>2026-04-18T12:08:28.21Z</time></trkpt><trkpt lat="43.732277" lon="11.5541189"><ele>967.0</ele><time>2026-04-18T12:08:29.209Z</time></trkpt><trkpt lat="43.7322883" lon="11.5542917"><ele>967.0</ele><time>2026-04-18T12:08:30.209Z</time></trkpt><trkpt lat="43.7322921" lon="11.554483"><ele>967.0</ele><time>2026-04-18T12:08:31.209Z</time></trkpt><trkpt lat="43.7322985" lon="11.5546563"><ele>967.0</ele><time>2026-04-18T12:08:32.209Z</time></trkpt><trkpt lat="43.7323028" lon="11.5548514"><ele>967.0</ele><time>2026-04-18T12:08:33.21Z</time></trkpt><trkpt lat="43.7323057" lon="11.5550359"><ele>967.0</ele><time>2026-04-18T12:08:34.209Z</time></trkpt><trkpt lat="43.7323079" lon="11.5552476"><ele>967.0</ele><time>2026-04-18T12:08:35.21Z</time></trkpt><trkpt lat="43.7323149" lon="11.5554632"><ele>967.0</ele><time>2026-04-18T12:08:36.209Z</time></trkpt><trkpt lat="43.7323244" lon="11.555635"><ele>967.0</ele><time>2026-04-18T12:08:37.21Z</time></trkpt><trkpt lat="43.7323355" lon="11.5558039"><ele>966.4000000000001</ele><time>2026-04-18T12:08:38.209Z</time></trkpt><trkpt lat="43.7323457" lon="11.5559674"><ele>965.8000000000001</ele><time>2026-04-18T12:08:39.21Z</time></trkpt><trkpt lat="43.7323493" lon="11.5561278"><ele>965.2</ele><time>2026-04-18T12:08:40.209Z</time></trkpt><trkpt lat="43.7323526" lon="11.5562744"><ele>964.6</ele><time>2026-04-18T12:08:41.21Z</time></trkpt><trkpt lat="43.7323565" lon="11.5564096"><ele>964.0</ele><time>2026-04-18T12:08:42.21Z</time></trkpt><trkpt lat="43.7323939" lon="11.5565146"><ele>963.0</ele><time>2026-04-18T12:08:43.21Z</time></trkpt><trkpt lat="43.7324394" lon="11.5566198"><ele>962.0000000000001</ele><time>2026-04-18T12:08:44.209Z</time></trkpt><trkpt lat="43.7324997" lon="11.5567054"><ele>961.0000000000001</ele><time>2026-04-18T12:08:45.21Z</time></trkpt><trkpt lat="43.7325562" lon="11.5567873"><ele>960.0</ele><time>2026-04-18T12:08:46.21Z</time></trkpt><trkpt lat="43.7326569" lon="11.5568776"><ele>959.0</ele><time>2026-04-18T12:08:48.21Z</time></trkpt><trkpt lat="43.7327627" lon="11.5568506"><ele>958.5000000000001</ele><time>2026-04-18T12:08:50.21Z</time></trkpt><trkpt lat="43.7328227" lon="11.5567963"><ele>958.0</ele><time>2026-04-18T12:08:51.21Z</time></trkpt><trkpt lat="43.732867" lon="11.5567069"><ele>957.5</ele><time>2026-04-18T12:08:52.209Z</time></trkpt><trkpt lat="43.7329172" lon="11.5566252"><ele>957.0</ele><time>2026-04-18T12:08:53.21Z</time></trkpt><trkpt lat="43.7330123" lon="11.5565417"><ele>956.5000000000001</ele><time>2026-04-18T12:08:55.21Z</time></trkpt><trkpt lat="43.7330939" lon="11.5565471"><ele>956.0</ele><time>2026-04-18T12:08:57.21Z</time></trkpt><trkpt lat="43.7332163" lon="11.5566985"><ele>956.0</ele><time>2026-04-18T12:08:59.21Z</time></trkpt><trkpt lat="43.7332752" lon="11.5567997"><ele>955.9999999999999</ele><time>2026-04-18T12:09:00.209Z</time></trkpt><trkpt lat="43.7333406" lon="11.5568887"><ele>955.9999999999999</ele><time>2026-04-18T12:09:01.209Z</time></trkpt><trkpt lat="43.7333852" lon="11.5569765"><ele>956.0</ele><time>2026-04-18T12:09:02.209Z</time></trkpt><trkpt lat="43.7334165" lon="11.5570861"><ele>956.0</ele><time>2026-04-18T12:09:03.21Z</time></trkpt><trkpt lat="43.7333931" lon="11.5572527"><ele>957.0</ele><time>2026-04-18T12:09:04.209Z</time></trkpt><trkpt lat="43.7333713" lon="11.5573945"><ele>957.9999999999999</ele><time>2026-04-18T12:09:05.209Z</time></trkpt><trkpt lat="43.7333335" lon="11.5575289"><ele>958.9999999999999</ele><time>2026-04-18T12:09:06.209Z</time></trkpt><trkpt lat="43.7332776" lon="11.5576682"><ele>960.0</ele><time>2026-04-18T12:09:07.21Z</time></trkpt><trkpt lat="43.7332085" lon="11.5577901"><ele>961.0</ele><time>2026-04-18T12:09:08.21Z</time></trkpt><trkpt lat="43.7331513" lon="11.5579075"><ele>963.8333333333333</ele><time>2026-04-18T12:09:09.21Z</time></trkpt><trkpt lat="43.7331105" lon="11.5580162"><ele>966.6666666666666</ele><time>2026-04-18T12:09:10.21Z</time></trkpt><trkpt lat="43.7330951" lon="11.5581034"><ele>969.5</ele><time>2026-04-18T12:09:11.209Z</time></trkpt><trkpt lat="43.7331158" lon="11.5581991"><ele>972.3333333333333</ele><time>2026-04-18T12:09:12.21Z</time></trkpt><trkpt lat="43.7331497" lon="11.5582727"><ele>975.1666666666666</ele><time>2026-04-18T12:09:13.209Z</time></trkpt><trkpt lat="43.7332462" lon="11.558305"><ele>978.0</ele><time>2026-04-18T12:09:15.21Z</time></trkpt><trkpt lat="43.73344" lon="11.5583242"><ele>978.0</ele><time>2026-04-18T12:09:16.209Z</time></trkpt><trkpt lat="43.7335311" lon="11.5583525"><ele>978.0</ele><time>2026-04-18T12:09:17.21Z</time></trkpt><trkpt lat="43.7336927" lon="11.5583724"><ele>978.0</ele><time>2026-04-18T12:09:18.21Z</time></trkpt><trkpt lat="43.733815" lon="11.5584236"><ele>978.0</ele><time>2026-04-18T12:09:19.21Z</time></trkpt><trkpt lat="43.7339241" lon="11.5584462"><ele>977.5</ele><time>2026-04-18T12:09:20.209Z</time></trkpt><trkpt lat="43.7340313" lon="11.558499"><ele>977.0</ele><time>2026-04-18T12:09:21.21Z</time></trkpt><trkpt lat="43.7341524" lon="11.5585196"><ele>976.5</ele><time>2026-04-18T12:09:22.21Z</time></trkpt><trkpt lat="43.7342709" lon="11.5585124"><ele>976.0</ele><time>2026-04-18T12:09:23.21Z</time></trkpt><trkpt lat="43.7343819" lon="11.5584422"><ele>976.8</ele><time>2026-04-18T12:09:24.21Z</time></trkpt><trkpt lat="43.7344895" lon="11.5583626"><ele>977.5999999999999</ele><time>2026-04-18T12:09:25.21Z</time></trkpt><trkpt lat="43.7345849" lon="11.5582945"><ele>978.4</ele><time>2026-04-18T12:09:26.21Z</time></trkpt><trkpt lat="43.7346782" lon="11.5582709"><ele>979.2</ele><time>2026-04-18T12:09:27.209Z</time></trkpt><trkpt lat="43.7347728" lon="11.5582816"><ele>980.0</ele><time>2026-04-18T12:09:28.209Z</time></trkpt><trkpt lat="43.7348683" lon="11.5583402"><ele>980.0</ele><time>2026-04-18T12:09:29.209Z</time></trkpt><trkpt lat="43.7349477" lon="11.5584108"><ele>980.0</ele><time>2026-04-18T12:09:30.21Z</time></trkpt><trkpt lat="43.735025" lon="11.5585145"><ele>980.0</ele><time>2026-04-18T12:09:31.21Z</time></trkpt><trkpt lat="43.7350911" lon="11.5586319"><ele>980.0</ele><time>2026-04-18T12:09:32.21Z</time></trkpt><trkpt lat="43.735179" lon="11.5587508"><ele>980.0</ele><time>2026-04-18T12:09:33.21Z</time></trkpt><trkpt lat="43.7352798" lon="11.5588593"><ele>982.25</ele><time>2026-04-18T12:09:34.209Z</time></trkpt><trkpt lat="43.7354034" lon="11.5589534"><ele>984.5</ele><time>2026-04-18T12:09:35.21Z</time></trkpt><trkpt lat="43.7355337" lon="11.5590429"><ele>986.75</ele><time>2026-04-18T12:09:36.21Z</time></trkpt><trkpt lat="43.7356588" lon="11.5591352"><ele>989.0</ele><time>2026-04-18T12:09:37.209Z</time></trkpt><trkpt lat="43.7358039" lon="11.5591945"><ele>989.0</ele><time>2026-04-18T12:09:38.21Z</time></trkpt><trkpt lat="43.7359412" lon="11.5592309"><ele>989.0</ele><time>2026-04-18T12:09:39.21Z</time></trkpt><trkpt lat="43.7361" lon="11.5592671"><ele>989.0</ele><time>2026-04-18T12:09:40.21Z</time></trkpt><trkpt lat="43.7362457" lon="11.5592845"><ele>989.0</ele><time>2026-04-18T12:09:41.21Z</time></trkpt><trkpt lat="43.7363756" lon="11.5593338"><ele>989.25</ele><time>2026-04-18T12:09:42.21Z</time></trkpt><trkpt lat="43.7365312" lon="11.5593692"><ele>989.5</ele><time>2026-04-18T12:09:43.209Z</time></trkpt><trkpt lat="43.7366767" lon="11.5593469"><ele>989.75</ele><time>2026-04-18T12:09:44.21Z</time></trkpt><trkpt lat="43.7368126" lon="11.5592942"><ele>990.0</ele><time>2026-04-18T12:09:45.21Z</time></trkpt><trkpt lat="43.7369266" lon="11.5591898"><ele>991.6666666666667</ele><time>2026-04-18T12:09:46.209Z</time></trkpt><trkpt lat="43.7370729" lon="11.5591264"><ele>993.3333333333334</ele><time>2026-04-18T12:09:47.21Z</time></trkpt><trkpt lat="43.7372162" lon="11.5590842"><ele>995.0</ele><time>2026-04-18T12:09:48.21Z</time></trkpt><trkpt lat="43.7373714" lon="11.5590494"><ele>995.0</ele><time>2026-04-18T12:09:49.21Z</time></trkpt><trkpt lat="43.7375437" lon="11.5591172"><ele>995.0</ele><time>2026-04-18T12:09:50.21Z</time></trkpt><trkpt lat="43.7377218" lon="11.5591459"><ele>995.0</ele><time>2026-04-18T12:09:51.21Z</time></trkpt><trkpt lat="43.7378726" lon="11.5591555"><ele>992.3333333333334</ele><time>2026-04-18T12:09:52.209Z</time></trkpt><trkpt lat="43.738055" lon="11.5591601"><ele>989.6666666666667</ele><time>2026-04-18T12:09:53.209Z</time></trkpt><trkpt lat="43.7382317" lon="11.5592072"><ele>987.0</ele><time>2026-04-18T12:09:54.209Z</time></trkpt><trkpt lat="43.7383864" lon="11.5592521"><ele>987.0</ele><time>2026-04-18T12:09:55.21Z</time></trkpt><trkpt lat="43.7385168" lon="11.5593124"><ele>987.0</ele><time>2026-04-18T12:09:56.21Z</time></trkpt><trkpt lat="43.7386344" lon="11.5593885"><ele>987.0</ele><time>2026-04-18T12:09:57.21Z</time></trkpt><trkpt lat="43.7387334" lon="11.5594858"><ele>987.0</ele><time>2026-04-18T12:09:58.21Z</time></trkpt><trkpt lat="43.73883" lon="11.5596375"><ele>989.0</ele><time>2026-04-18T12:09:59.21Z</time></trkpt><trkpt lat="43.7389088" lon="11.5597769"><ele>991.0</ele><time>2026-04-18T12:10:00.21Z</time></trkpt><trkpt lat="43.7389797" lon="11.5599162"><ele>993.0</ele><time>2026-04-18T12:10:01.209Z</time></trkpt><trkpt lat="43.7390299" lon="11.5600513"><ele>995.0</ele><time>2026-04-18T12:10:02.21Z</time></trkpt><trkpt lat="43.7391076" lon="11.5601472"><ele>995.0</ele><time>2026-04-18T12:10:03.21Z</time></trkpt><trkpt lat="43.7391702" lon="11.5602548"><ele>995.0</ele><time>2026-04-18T12:10:04.21Z</time></trkpt><trkpt lat="43.7392451" lon="11.5602993"><ele>995.0</ele><time>2026-04-18T12:10:05.21Z</time></trkpt><trkpt lat="43.739345" lon="11.560266"><ele>995.0</ele><time>2026-04-18T12:10:06.21Z</time></trkpt><trkpt lat="43.7394593" lon="11.5602086"><ele>995.0</ele><time>2026-04-18T12:10:07.209Z</time></trkpt><trkpt lat="43.7395689" lon="11.5601102"><ele>995.0</ele><time>2026-04-18T12:10:08.21Z</time></trkpt><trkpt lat="43.7396723" lon="11.5600605"><ele>995.0</ele><time>2026-04-18T12:10:09.21Z</time></trkpt><trkpt lat="43.739776" lon="11.5599456"><ele>995.0</ele><time>2026-04-18T12:10:10.21Z</time></trkpt><trkpt lat="43.7398585" lon="11.5598027"><ele>995.0</ele><time>2026-04-18T12:10:11.21Z</time></trkpt><trkpt lat="43.7399581" lon="11.5596555"><ele>995.0</ele><time>2026-04-18T12:10:12.21Z</time></trkpt><trkpt lat="43.7400647" lon="11.5595393"><ele>995.0</ele><time>2026-04-18T12:10:13.21Z</time></trkpt><trkpt lat="43.7401549" lon="11.5594323"><ele>995.0</ele><time>2026-04-18T12:10:14.21Z</time></trkpt><trkpt lat="43.740261" lon="11.5593287"><ele>995.0</ele><time>2026-04-18T12:10:15.209Z</time></trkpt><trkpt lat="43.7403608" lon="11.5592418"><ele>991.25</ele><time>2026-04-18T12:10:16.21Z</time></trkpt><trkpt lat="43.7404876" lon="11.5591434"><ele>987.5</ele><time>2026-04-18T12:10:17.209Z</time></trkpt><trkpt lat="43.7406116" lon="11.5590976"><ele>983.75</ele><time>2026-04-18T12:10:18.21Z</time></trkpt><trkpt lat="43.7407319" lon="11.5590781"><ele>980.0</ele><time>2026-04-18T12:10:19.21Z</time></trkpt><trkpt lat="43.7408634" lon="11.5590783"><ele>980.0</ele><time>2026-04-18T12:10:20.21Z</time></trkpt><trkpt lat="43.7409794" lon="11.559104"><ele>980.0</ele><time>2026-04-18T12:10:21.209Z</time></trkpt><trkpt lat="43.7411237" lon="11.5591377"><ele>980.0</ele><time>2026-04-18T12:10:22.21Z</time></trkpt><trkpt lat="43.7412685" lon="11.5592228"><ele>980.0</ele><time>2026-04-18T12:10:23.21Z</time></trkpt><trkpt lat="43.7413715" lon="11.5594138"><ele>977.2</ele><time>2026-04-18T12:10:24.21Z</time></trkpt><trkpt lat="43.7414449" lon="11.5595186"><ele>974.4</ele><time>2026-04-18T12:10:25.21Z</time></trkpt><trkpt lat="43.7415263" lon="11.5596383"><ele>971.5999999999999</ele><time>2026-04-18T12:10:26.209Z</time></trkpt><trkpt lat="43.7415899" lon="11.5597072"><ele>968.8</ele><time>2026-04-18T12:10:27.21Z</time></trkpt><trkpt lat="43.7416732" lon="11.5597626"><ele>966.0</ele><time>2026-04-18T12:10:28.21Z</time></trkpt><trkpt lat="43.7417607" lon="11.559729"><ele>968.1999999999999</ele><time>2026-04-18T12:10:29.21Z</time></trkpt><trkpt lat="43.7418309" lon="11.5597195"><ele>970.3999999999999</ele><time>2026-04-18T12:10:30.21Z</time></trkpt><trkpt lat="43.7419167" lon="11.5596481"><ele>972.6</ele><time>2026-04-18T12:10:31.209Z</time></trkpt><trkpt lat="43.7420444" lon="11.5595811"><ele>974.8</ele><time>2026-04-18T12:10:32.209Z</time></trkpt><trkpt lat="43.742151" lon="11.5594528"><ele>977.0</ele><time>2026-04-18T12:10:33.209Z</time></trkpt><trkpt lat="43.7422528" lon="11.5593321"><ele>977.0</ele><time>2026-04-18T12:10:34.21Z</time></trkpt><trkpt lat="43.7423146" lon="11.5591819"><ele>977.0</ele><time>2026-04-18T12:10:35.21Z</time></trkpt><trkpt lat="43.7423962" lon="11.559018"><ele>977.0</ele><time>2026-04-18T12:10:36.21Z</time></trkpt><trkpt lat="43.742427" lon="11.5588444"><ele>977.0</ele><time>2026-04-18T12:10:37.209Z</time></trkpt><trkpt lat="43.742462" lon="11.5586513"><ele>975.75</ele><time>2026-04-18T12:10:38.21Z</time></trkpt><trkpt lat="43.7425416" lon="11.558505"><ele>974.5</ele><time>2026-04-18T12:10:39.21Z</time></trkpt><trkpt lat="43.7426126" lon="11.5583413"><ele>973.25</ele><time>2026-04-18T12:10:40.209Z</time></trkpt><trkpt lat="43.7426879" lon="11.5581807"><ele>972.0</ele><time>2026-04-18T12:10:41.21Z</time></trkpt><trkpt lat="43.7427824" lon="11.5580404"><ele>972.0</ele><time>2026-04-18T12:10:42.209Z</time></trkpt><trkpt lat="43.7428912" lon="11.5579265"><ele>972.0</ele><time>2026-04-18T12:10:43.21Z</time></trkpt><trkpt lat="43.7429808" lon="11.5578304"><ele>972.0</ele><time>2026-04-18T12:10:44.21Z</time></trkpt><trkpt lat="43.7430699" lon="11.5578402"><ele>972.0</ele><time>2026-04-18T12:10:45.209Z</time></trkpt><trkpt lat="43.7431667" lon="11.5578108"><ele>972.0</ele><time>2026-04-18T12:10:46.21Z</time></trkpt><trkpt lat="43.7432625" lon="11.5578563"><ele>972.0</ele><time>2026-04-18T12:10:47.21Z</time></trkpt><trkpt lat="43.7433548" lon="11.5579283"><ele>972.0</ele><time>2026-04-18T12:10:48.21Z</time></trkpt><trkpt lat="43.7434531" lon="11.5580553"><ele>972.0</ele><time>2026-04-18T12:10:49.21Z</time></trkpt><trkpt lat="43.7435702" lon="11.5581101"><ele>972.0</ele><time>2026-04-18T12:10:50.209Z</time></trkpt><trkpt lat="43.7436808" lon="11.5581788"><ele>970.6</ele><time>2026-04-18T12:10:51.21Z</time></trkpt><trkpt lat="43.743774" lon="11.5582781"><ele>969.2</ele><time>2026-04-18T12:10:52.209Z</time></trkpt><trkpt lat="43.7438545" lon="11.5584426"><ele>967.8</ele><time>2026-04-18T12:10:53.209Z</time></trkpt><trkpt lat="43.7438765" lon="11.5585662"><ele>966.4</ele><time>2026-04-18T12:10:54.21Z</time></trkpt><trkpt lat="43.7439191" lon="11.5586519"><ele>965.0</ele><time>2026-04-18T12:10:55.21Z</time></trkpt><trkpt lat="43.74397" lon="11.5587534"><ele>965.0</ele><time>2026-04-18T12:10:56.209Z</time></trkpt><trkpt lat="43.7440925" lon="11.5587507"><ele>965.0</ele><time>2026-04-18T12:10:58.209Z</time></trkpt><trkpt lat="43.7441716" lon="11.5587005"><ele>965.0</ele><time>2026-04-18T12:11:00.21Z</time></trkpt><trkpt lat="43.7442211" lon="11.5586243"><ele>965.0</ele><time>2026-04-18T12:11:01.21Z</time></trkpt><trkpt lat="43.7443023" lon="11.5585177"><ele>965.0</ele><time>2026-04-18T12:11:02.209Z</time></trkpt><trkpt lat="43.7444429" lon="11.5583587"><ele>966.3333333333334</ele><time>2026-04-18T12:11:03.209Z</time></trkpt><trkpt lat="43.7445947" lon="11.5582619"><ele>967.6666666666667</ele><time>2026-04-18T12:11:04.21Z</time></trkpt><trkpt lat="43.7447251" lon="11.5581861"><ele>969.0</ele><time>2026-04-18T12:11:05.21Z</time></trkpt><trkpt lat="43.7448637" lon="11.5581124"><ele>969.0</ele><time>2026-04-18T12:11:06.21Z</time></trkpt><trkpt lat="43.7450513" lon="11.5580034"><ele>969.0</ele><time>2026-04-18T12:11:07.21Z</time></trkpt><trkpt lat="43.7452301" lon="11.5579494"><ele>969.0</ele><time>2026-04-18T12:11:08.21Z</time></trkpt><trkpt lat="43.7454169" lon="11.5579549"><ele>971.3333333333333</ele><time>2026-04-18T12:11:09.21Z</time></trkpt><trkpt lat="43.7455884" lon="11.5579614"><ele>973.6666666666666</ele><time>2026-04-18T12:11:10.21Z</time></trkpt><trkpt lat="43.7457075" lon="11.5578954"><ele>976.0</ele><time>2026-04-18T12:11:11.21Z</time></trkpt><trkpt lat="43.7458624" lon="11.5577666"><ele>972.6666666666666</ele><time>2026-04-18T12:11:12.209Z</time></trkpt><trkpt lat="43.7460055" lon="11.5576632"><ele>969.3333333333333</ele><time>2026-04-18T12:11:13.21Z</time></trkpt><trkpt lat="43.7461599" lon="11.5575688"><ele>966.0</ele><time>2026-04-18T12:11:14.21Z</time></trkpt><trkpt lat="43.7463008" lon="11.5574427"><ele>966.0</ele><time>2026-04-18T12:11:15.21Z</time></trkpt><trkpt lat="43.7464566" lon="11.557319"><ele>966.0</ele><time>2026-04-18T12:11:16.21Z</time></trkpt><trkpt lat="43.7465839" lon="11.5571894"><ele>966.0</ele><time>2026-04-18T12:11:17.209Z</time></trkpt><trkpt lat="43.7467305" lon="11.5570719"><ele>962.0</ele><time>2026-04-18T12:11:18.21Z</time></trkpt><trkpt lat="43.7468586" lon="11.5569222"><ele>958.0</ele><time>2026-04-18T12:11:19.21Z</time></trkpt><trkpt lat="43.7469873" lon="11.5567836"><ele>954.0</ele><time>2026-04-18T12:11:20.209Z</time></trkpt><trkpt lat="43.7470954" lon="11.5566429"><ele>954.0</ele><time>2026-04-18T12:11:21.21Z</time></trkpt><trkpt lat="43.7472134" lon="11.5565173"><ele>954.0</ele><time>2026-04-18T12:11:22.209Z</time></trkpt><trkpt lat="43.7473285" lon="11.5564205"><ele>954.0</ele><time>2026-04-18T12:11:23.21Z</time></trkpt><trkpt lat="43.7474571" lon="11.556423"><ele>954.0</ele><time>2026-04-18T12:11:24.21Z</time></trkpt><trkpt lat="43.7475781" lon="11.5564057"><ele>954.0</ele><time>2026-04-18T12:11:25.209Z</time></trkpt><trkpt lat="43.7476935" lon="11.5564006"><ele>954.0</ele><time>2026-04-18T12:11:26.21Z</time></trkpt><trkpt lat="43.7477925" lon="11.556448"><ele>954.0</ele><time>2026-04-18T12:11:27.21Z</time></trkpt><trkpt lat="43.7479539" lon="11.5565699"><ele>954.0</ele><time>2026-04-18T12:11:28.21Z</time></trkpt><trkpt lat="43.74809" lon="11.5566139"><ele>953.25</ele><time>2026-04-18T12:11:29.21Z</time></trkpt><trkpt lat="43.7482253" lon="11.5566415"><ele>952.5</ele><time>2026-04-18T12:11:30.21Z</time></trkpt><trkpt lat="43.7483499" lon="11.5567135"><ele>951.75</ele><time>2026-04-18T12:11:31.21Z</time></trkpt><trkpt lat="43.7484664" lon="11.5567982"><ele>951.0</ele><time>2026-04-18T12:11:32.21Z</time></trkpt><trkpt lat="43.7485586" lon="11.5569428"><ele>946.5</ele><time>2026-04-18T12:11:33.209Z</time></trkpt><trkpt lat="43.7486415" lon="11.5570974"><ele>942.0</ele><time>2026-04-18T12:11:34.21Z</time></trkpt><trkpt lat="43.7487181" lon="11.5572548"><ele>937.5</ele><time>2026-04-18T12:11:35.209Z</time></trkpt><trkpt lat="43.7487852" lon="11.5574579"><ele>933.0</ele><time>2026-04-18T12:11:36.21Z</time></trkpt><trkpt lat="43.7488359" lon="11.5576798"><ele>935.3333333333333</ele><time>2026-04-18T12:11:37.21Z</time></trkpt><trkpt lat="43.7488694" lon="11.5579042"><ele>937.6666666666666</ele><time>2026-04-18T12:11:38.209Z</time></trkpt><trkpt lat="43.7489226" lon="11.5581219"><ele>940.0</ele><time>2026-04-18T12:11:39.209Z</time></trkpt><trkpt lat="43.7489912" lon="11.5583326"><ele>940.0</ele><time>2026-04-18T12:11:40.21Z</time></trkpt><trkpt lat="43.7490525" lon="11.5585441"><ele>940.0</ele><time>2026-04-18T12:11:41.21Z</time></trkpt><trkpt lat="43.74911" lon="11.5587542"><ele>940.0</ele><time>2026-04-18T12:11:42.209Z</time></trkpt><trkpt lat="43.7491634" lon="11.5589666"><ele>942.0</ele><time>2026-04-18T12:11:43.209Z</time></trkpt><trkpt lat="43.7492155" lon="11.559167"><ele>944.0</ele><time>2026-04-18T12:11:44.21Z</time></trkpt><trkpt lat="43.7492485" lon="11.5593694"><ele>946.0</ele><time>2026-04-18T12:11:45.21Z</time></trkpt><trkpt lat="43.7492708" lon="11.5595405"><ele>948.0</ele><time>2026-04-18T12:11:46.21Z</time></trkpt><trkpt lat="43.7492876" lon="11.5597323"><ele>948.6666666666666</ele><time>2026-04-18T12:11:47.21Z</time></trkpt><trkpt lat="43.7493102" lon="11.5598736"><ele>949.3333333333333</ele><time>2026-04-18T12:11:48.21Z</time></trkpt><trkpt lat="43.7493457" lon="11.5599593"><ele>950.0</ele><time>2026-04-18T12:11:49.21Z</time></trkpt><trkpt lat="43.7493916" lon="11.5600228"><ele>950.6666666666666</ele><time>2026-04-18T12:11:50.21Z</time></trkpt><trkpt lat="43.7494665" lon="11.5600496"><ele>951.3333333333333</ele><time>2026-04-18T12:11:52.209Z</time></trkpt><trkpt lat="43.7495639" lon="11.5599426"><ele>952.0</ele><time>2026-04-18T12:11:53.21Z</time></trkpt><trkpt lat="43.7496468" lon="11.5598251"><ele>949.8</ele><time>2026-04-18T12:11:54.21Z</time></trkpt><trkpt lat="43.7497325" lon="11.5597385"><ele>947.6</ele><time>2026-04-18T12:11:55.21Z</time></trkpt><trkpt lat="43.7498644" lon="11.5597201"><ele>945.3999999999999</ele><time>2026-04-18T12:11:56.209Z</time></trkpt><trkpt lat="43.7499502" lon="11.5596676"><ele>943.1999999999999</ele><time>2026-04-18T12:11:57.209Z</time></trkpt><trkpt lat="43.7500411" lon="11.5595959"><ele>941.0</ele><time>2026-04-18T12:11:58.21Z</time></trkpt><trkpt lat="43.7501304" lon="11.5595002"><ele>938.5999999999999</ele><time>2026-04-18T12:11:59.21Z</time></trkpt><trkpt lat="43.7502037" lon="11.5594199"><ele>936.1999999999999</ele><time>2026-04-18T12:12:00.21Z</time></trkpt><trkpt lat="43.7503101" lon="11.5594034"><ele>933.8000000000001</ele><time>2026-04-18T12:12:01.21Z</time></trkpt><trkpt lat="43.7504162" lon="11.5593884"><ele>931.4000000000001</ele><time>2026-04-18T12:12:02.21Z</time></trkpt><trkpt lat="43.7505229" lon="11.5593919"><ele>929.0</ele><time>2026-04-18T12:12:03.21Z</time></trkpt><trkpt lat="43.7506305" lon="11.5594497"><ele>929.0</ele><time>2026-04-18T12:12:04.21Z</time></trkpt><trkpt lat="43.7507796" lon="11.5594636"><ele>929.0</ele><time>2026-04-18T12:12:05.21Z</time></trkpt><trkpt lat="43.7509028" lon="11.5594907"><ele>929.0</ele><time>2026-04-18T12:12:06.209Z</time></trkpt><trkpt lat="43.7510377" lon="11.5595525"><ele>929.0</ele><time>2026-04-18T12:12:07.21Z</time></trkpt><trkpt lat="43.7511444" lon="11.5597085"><ele>927.0</ele><time>2026-04-18T12:12:08.21Z</time></trkpt><trkpt lat="43.7512173" lon="11.5598127"><ele>925.0000000000001</ele><time>2026-04-18T12:12:09.21Z</time></trkpt><trkpt lat="43.7512987" lon="11.5599519"><ele>923.0000000000001</ele><time>2026-04-18T12:12:10.21Z</time></trkpt><trkpt lat="43.7513534" lon="11.5600744"><ele>921.0</ele><time>2026-04-18T12:12:11.21Z</time></trkpt><trkpt lat="43.7513587" lon="11.5602108"><ele>919.0</ele><time>2026-04-18T12:12:12.21Z</time></trkpt><trkpt lat="43.7513701" lon="11.5603543"><ele>922.5</ele><time>2026-04-18T12:12:13.21Z</time></trkpt><trkpt lat="43.7513537" lon="11.5605248"><ele>926.0</ele><time>2026-04-18T12:12:14.21Z</time></trkpt><trkpt lat="43.7511461" lon="11.5606075"><ele>929.5</ele><time>2026-04-18T12:12:15.21Z</time></trkpt><trkpt lat="43.7511039" lon="11.5607257"><ele>933.0</ele><time>2026-04-18T12:12:16.21Z</time></trkpt><trkpt lat="43.7510515" lon="11.5608556"><ele>933.0</ele><time>2026-04-18T12:12:18.21Z</time></trkpt><trkpt lat="43.7511559" lon="11.5608856"><ele>933.0</ele><time>2026-04-18T12:12:20.209Z</time></trkpt><trkpt lat="43.7512295" lon="11.5608512"><ele>933.0</ele><time>2026-04-18T12:12:21.21Z</time></trkpt><trkpt lat="43.7512852" lon="11.5608095"><ele>933.0</ele><time>2026-04-18T12:12:22.21Z</time></trkpt><trkpt lat="43.7513418" lon="11.5607634"><ele>933.0</ele><time>2026-04-18T12:12:23.21Z</time></trkpt><trkpt lat="43.7514662" lon="11.56059"><ele>933.0</ele><time>2026-04-18T12:12:24.209Z</time></trkpt><trkpt lat="43.7515706" lon="11.5605094"><ele>933.0</ele><time>2026-04-18T12:12:25.21Z</time></trkpt><trkpt lat="43.7516757" lon="11.5604315"><ele>933.0</ele><time>2026-04-18T12:12:26.209Z</time></trkpt><trkpt lat="43.7517961" lon="11.5603087"><ele>933.0</ele><time>2026-04-18T12:12:27.209Z</time></trkpt><trkpt lat="43.7519145" lon="11.5601919"><ele>928.25</ele><time>2026-04-18T12:12:28.209Z</time></trkpt><trkpt lat="43.751996" lon="11.5600843"><ele>923.5</ele><time>2026-04-18T12:12:29.209Z</time></trkpt><trkpt lat="43.7520788" lon="11.5600383"><ele>918.75</ele><time>2026-04-18T12:12:30.21Z</time></trkpt><trkpt lat="43.7521934" lon="11.5599756"><ele>914.0</ele><time>2026-04-18T12:12:31.21Z</time></trkpt><trkpt lat="43.7523209" lon="11.559948"><ele>914.0</ele><time>2026-04-18T12:12:32.21Z</time></trkpt><trkpt lat="43.7524413" lon="11.5599497"><ele>914.0</ele><time>2026-04-18T12:12:33.209Z</time></trkpt><trkpt lat="43.7525809" lon="11.5600592"><ele>914.0</ele><time>2026-04-18T12:12:34.209Z</time></trkpt><trkpt lat="43.7526953" lon="11.5601192"><ele>914.0</ele><time>2026-04-18T12:12:35.209Z</time></trkpt><trkpt lat="43.7528337" lon="11.5602425"><ele>915.75</ele><time>2026-04-18T12:12:36.21Z</time></trkpt><trkpt lat="43.7529597" lon="11.5603463"><ele>917.5</ele><time>2026-04-18T12:12:37.21Z</time></trkpt><trkpt lat="43.7530738" lon="11.5604605"><ele>919.25</ele><time>2026-04-18T12:12:38.209Z</time></trkpt><trkpt lat="43.7531828" lon="11.5605043"><ele>921.0</ele><time>2026-04-18T12:12:39.209Z</time></trkpt><trkpt lat="43.7533104" lon="11.5605764"><ele>921.0</ele><time>2026-04-18T12:12:40.21Z</time></trkpt><trkpt lat="43.7534324" lon="11.5605475"><ele>921.0</ele><time>2026-04-18T12:12:41.21Z</time></trkpt><trkpt lat="43.7535583" lon="11.5605459"><ele>921.0</ele><time>2026-04-18T12:12:42.209Z</time></trkpt><trkpt lat="43.7537028" lon="11.5605421"><ele>921.0</ele><time>2026-04-18T12:12:43.21Z</time></trkpt><trkpt lat="43.75382" lon="11.5605597"><ele>921.3333333333333</ele><time>2026-04-18T12:12:44.21Z</time></trkpt><trkpt lat="43.7539567" lon="11.5605331"><ele>921.6666666666666</ele><time>2026-04-18T12:12:45.209Z</time></trkpt><trkpt lat="43.7541092" lon="11.56048"><ele>922.0</ele><time>2026-04-18T12:12:46.21Z</time></trkpt><trkpt lat="43.754253" lon="11.5603923"><ele>917.6666666666666</ele><time>2026-04-18T12:12:47.21Z</time></trkpt><trkpt lat="43.7544007" lon="11.5603055"><ele>913.3333333333333</ele><time>2026-04-18T12:12:48.209Z</time></trkpt><trkpt lat="43.7545728" lon="11.5602303"><ele>909.0</ele><time>2026-04-18T12:12:49.209Z</time></trkpt><trkpt lat="43.754727" lon="11.5601767"><ele>909.0</ele><time>2026-04-18T12:12:50.21Z</time></trkpt><trkpt lat="43.7548903" lon="11.5601512"><ele>909.0</ele><time>2026-04-18T12:12:51.21Z</time></trkpt><trkpt lat="43.7550399" lon="11.5601498"><ele>909.0</ele><time>2026-04-18T12:12:52.209Z</time></trkpt><trkpt lat="43.7552063" lon="11.5601754"><ele>910.5</ele><time>2026-04-18T12:12:53.21Z</time></trkpt><trkpt lat="43.7553443" lon="11.5602266"><ele>912.0</ele><time>2026-04-18T12:12:54.21Z</time></trkpt><trkpt lat="43.7554777" lon="11.5603058"><ele>913.5</ele><time>2026-04-18T12:12:55.21Z</time></trkpt><trkpt lat="43.7555961" lon="11.560394"><ele>915.0</ele><time>2026-04-18T12:12:56.21Z</time></trkpt><trkpt lat="43.7557373" lon="11.5604809"><ele>915.0</ele><time>2026-04-18T12:12:57.209Z</time></trkpt><trkpt lat="43.7558857" lon="11.5605449"><ele>915.0</ele><time>2026-04-18T12:12:58.209Z</time></trkpt><trkpt lat="43.7560194" lon="11.5606197"><ele>915.0</ele><time>2026-04-18T12:12:59.209Z</time></trkpt><trkpt lat="43.756152" lon="11.5607059"><ele>915.0</ele><time>2026-04-18T12:13:00.209Z</time></trkpt><trkpt lat="43.7562565" lon="11.5608222"><ele>916.25</ele><time>2026-04-18T12:13:01.21Z</time></trkpt><trkpt lat="43.7563514" lon="11.5609635"><ele>917.5</ele><time>2026-04-18T12:13:02.21Z</time></trkpt><trkpt lat="43.7564577" lon="11.5610926"><ele>918.75</ele><time>2026-04-18T12:13:03.21Z</time></trkpt><trkpt lat="43.7565566" lon="11.561246"><ele>920.0</ele><time>2026-04-18T12:13:04.21Z</time></trkpt><trkpt lat="43.7566613" lon="11.5614017"><ele>920.0</ele><time>2026-04-18T12:13:05.21Z</time></trkpt><trkpt lat="43.7567615" lon="11.5615794"><ele>920.0</ele><time>2026-04-18T12:13:06.21Z</time></trkpt><trkpt lat="43.7568593" lon="11.5617328"><ele>920.0</ele><time>2026-04-18T12:13:07.209Z</time></trkpt><trkpt lat="43.756953" lon="11.5618858"><ele>917.0</ele><time>2026-04-18T12:13:08.209Z</time></trkpt><trkpt lat="43.7570539" lon="11.5620538"><ele>914.0</ele><time>2026-04-18T12:13:09.209Z</time></trkpt><trkpt lat="43.7571727" lon="11.5621977"><ele>911.0</ele><time>2026-04-18T12:13:10.21Z</time></trkpt><trkpt lat="43.7573179" lon="11.5623201"><ele>911.0</ele><time>2026-04-18T12:13:11.21Z</time></trkpt><trkpt lat="43.7574611" lon="11.5623985"><ele>911.0</ele><time>2026-04-18T12:13:12.21Z</time></trkpt><trkpt lat="43.7575923" lon="11.5624901"><ele>911.0</ele><time>2026-04-18T12:13:13.21Z</time></trkpt><trkpt lat="43.757721" lon="11.5625909"><ele>911.0</ele><time>2026-04-18T12:13:14.21Z</time></trkpt><trkpt lat="43.7578422" lon="11.5627272"><ele>908.6666666666667</ele><time>2026-04-18T12:13:15.21Z</time></trkpt><trkpt lat="43.7579379" lon="11.5628978"><ele>906.3333333333333</ele><time>2026-04-18T12:13:16.21Z</time></trkpt><trkpt lat="43.7580681" lon="11.5630659"><ele>904.0</ele><time>2026-04-18T12:13:17.209Z</time></trkpt><trkpt lat="43.7582163" lon="11.5632568"><ele>904.0</ele><time>2026-04-18T12:13:18.21Z</time></trkpt><trkpt lat="43.758317" lon="11.5634755"><ele>904.0</ele><time>2026-04-18T12:13:19.21Z</time></trkpt><trkpt lat="43.7583926" lon="11.5636812"><ele>904.0</ele><time>2026-04-18T12:13:20.21Z</time></trkpt><trkpt lat="43.7584763" lon="11.5638744"><ele>901.3333333333333</ele><time>2026-04-18T12:13:21.209Z</time></trkpt><trkpt lat="43.7585536" lon="11.5640631"><ele>898.6666666666667</ele><time>2026-04-18T12:13:22.209Z</time></trkpt><trkpt lat="43.7586171" lon="11.564263"><ele>896.0</ele><time>2026-04-18T12:13:23.21Z</time></trkpt><trkpt lat="43.7586747" lon="11.5644599"><ele>897.0</ele><time>2026-04-18T12:13:24.21Z</time></trkpt><trkpt lat="43.7587352" lon="11.5646372"><ele>898.0</ele><time>2026-04-18T12:13:25.21Z</time></trkpt><trkpt lat="43.7588382" lon="11.564756"><ele>899.0</ele><time>2026-04-18T12:13:26.209Z</time></trkpt><trkpt lat="43.7589148" lon="11.5648857"><ele>900.0</ele><time>2026-04-18T12:13:27.209Z</time></trkpt><trkpt lat="43.7589659" lon="11.565016"><ele>900.0</ele><time>2026-04-18T12:13:28.21Z</time></trkpt><trkpt lat="43.7590287" lon="11.5651532"><ele>900.0</ele><time>2026-04-18T12:13:29.209Z</time></trkpt><trkpt lat="43.7590068" lon="11.5653921"><ele>900.0</ele><time>2026-04-18T12:13:30.209Z</time></trkpt><trkpt lat="43.759023" lon="11.5655712"><ele>900.0</ele><time>2026-04-18T12:13:31.21Z</time></trkpt><trkpt lat="43.7590051" lon="11.5657293"><ele>901.4</ele><time>2026-04-18T12:13:32.209Z</time></trkpt><trkpt lat="43.7589991" lon="11.5658863"><ele>902.8</ele><time>2026-04-18T12:13:33.21Z</time></trkpt><trkpt lat="43.7590042" lon="11.5660465"><ele>904.2</ele><time>2026-04-18T12:13:34.21Z</time></trkpt><trkpt lat="43.7590129" lon="11.5661835"><ele>905.6</ele><time>2026-04-18T12:13:35.21Z</time></trkpt><trkpt lat="43.759017" lon="11.5663199"><ele>907.0</ele><time>2026-04-18T12:13:36.21Z</time></trkpt><trkpt lat="43.7590666" lon="11.5664299"><ele>905.3333333333333</ele><time>2026-04-18T12:13:37.21Z</time></trkpt><trkpt lat="43.7591602" lon="11.5665203"><ele>903.6666666666667</ele><time>2026-04-18T12:13:38.209Z</time></trkpt><trkpt lat="43.7593846" lon="11.5666221"><ele>902.0</ele><time>2026-04-18T12:13:39.21Z</time></trkpt><trkpt lat="43.7594867" lon="11.5667478"><ele>902.0</ele><time>2026-04-18T12:13:40.21Z</time></trkpt><trkpt lat="43.7595735" lon="11.5669114"><ele>902.0</ele><time>2026-04-18T12:13:41.209Z</time></trkpt><trkpt lat="43.7596685" lon="11.5670605"><ele>902.0</ele><time>2026-04-18T12:13:42.209Z</time></trkpt><trkpt lat="43.7597499" lon="11.5672489"><ele>902.0</ele><time>2026-04-18T12:13:43.21Z</time></trkpt><trkpt lat="43.7597809" lon="11.5674235"><ele>903.25</ele><time>2026-04-18T12:13:44.209Z</time></trkpt><trkpt lat="43.759811" lon="11.5675964"><ele>904.5</ele><time>2026-04-18T12:13:45.21Z</time></trkpt><trkpt lat="43.7598238" lon="11.5677717"><ele>905.75</ele><time>2026-04-18T12:13:46.21Z</time></trkpt><trkpt lat="43.7598386" lon="11.5679568"><ele>907.0</ele><time>2026-04-18T12:13:47.21Z</time></trkpt><trkpt lat="43.7598219" lon="11.5681373"><ele>907.5</ele><time>2026-04-18T12:13:48.21Z</time></trkpt><trkpt lat="43.7597774" lon="11.5683356"><ele>908.0</ele><time>2026-04-18T12:13:49.209Z</time></trkpt><trkpt lat="43.7597282" lon="11.5685152"><ele>908.5</ele><time>2026-04-18T12:13:50.21Z</time></trkpt><trkpt lat="43.7596461" lon="11.5686773"><ele>909.0</ele><time>2026-04-18T12:13:51.209Z</time></trkpt><trkpt lat="43.7595867" lon="11.5688665"><ele>909.0</ele><time>2026-04-18T12:13:52.209Z</time></trkpt><trkpt lat="43.7595264" lon="11.569058"><ele>909.0</ele><time>2026-04-18T12:13:53.21Z</time></trkpt><trkpt lat="43.7594651" lon="11.5692362"><ele>909.0</ele><time>2026-04-18T12:13:54.21Z</time></trkpt><trkpt lat="43.7594258" lon="11.569438"><ele>909.0</ele><time>2026-04-18T12:13:55.209Z</time></trkpt><trkpt lat="43.7594189" lon="11.5696161"><ele>909.0</ele><time>2026-04-18T12:13:56.21Z</time></trkpt><trkpt lat="43.759421" lon="11.5698229"><ele>909.0</ele><time>2026-04-18T12:13:57.21Z</time></trkpt><trkpt lat="43.759411" lon="11.5700379"><ele>909.0</ele><time>2026-04-18T12:13:58.21Z</time></trkpt><trkpt lat="43.75938" lon="11.5702187"><ele>909.0</ele><time>2026-04-18T12:13:59.21Z</time></trkpt><trkpt lat="43.7593281" lon="11.570408"><ele>913.0</ele><time>2026-04-18T12:14:00.21Z</time></trkpt><trkpt lat="43.7592803" lon="11.5705886"><ele>917.0</ele><time>2026-04-18T12:14:01.21Z</time></trkpt><trkpt lat="43.7592176" lon="11.5707396"><ele>921.0</ele><time>2026-04-18T12:14:02.21Z</time></trkpt><trkpt lat="43.7591293" lon="11.5708811"><ele>925.0</ele><time>2026-04-18T12:14:03.21Z</time></trkpt><trkpt lat="43.7590579" lon="11.5710269"><ele>925.0</ele><time>2026-04-18T12:14:04.209Z</time></trkpt><trkpt lat="43.7590032" lon="11.5711616"><ele>925.0</ele><time>2026-04-18T12:14:05.209Z</time></trkpt><trkpt lat="43.7589797" lon="11.5712697"><ele>925.0</ele><time>2026-04-18T12:14:06.21Z</time></trkpt><trkpt lat="43.7589869" lon="11.5713573"><ele>925.0</ele><time>2026-04-18T12:14:07.209Z</time></trkpt><trkpt lat="43.7591067" lon="11.5714157"><ele>925.0</ele><time>2026-04-18T12:14:09.21Z</time></trkpt><trkpt lat="43.7592229" lon="11.5713417"><ele>926.25</ele><time>2026-04-18T12:14:11.209Z</time></trkpt><trkpt lat="43.7593545" lon="11.5713528"><ele>927.5</ele><time>2026-04-18T12:14:12.21Z</time></trkpt><trkpt lat="43.7594335" lon="11.5711814"><ele>928.75</ele><time>2026-04-18T12:14:13.21Z</time></trkpt><trkpt lat="43.7595414" lon="11.571021"><ele>930.0</ele><time>2026-04-18T12:14:14.209Z</time></trkpt><trkpt lat="43.7596998" lon="11.5709677"><ele>930.0</ele><time>2026-04-18T12:14:15.209Z</time></trkpt><trkpt lat="43.7597988" lon="11.5708778"><ele>930.0</ele><time>2026-04-18T12:14:16.209Z</time></trkpt><trkpt lat="43.7599218" lon="11.5708071"><ele>930.0</ele><time>2026-04-18T12:14:17.21Z</time></trkpt><trkpt lat="43.7600731" lon="11.5707303"><ele>930.0</ele><time>2026-04-18T12:14:18.21Z</time></trkpt><trkpt lat="43.7602124" lon="11.5706409"><ele>927.25</ele><time>2026-04-18T12:14:19.209Z</time></trkpt><trkpt lat="43.7603449" lon="11.5705267"><ele>924.5</ele><time>2026-04-18T12:14:20.21Z</time></trkpt><trkpt lat="43.7604631" lon="11.5704284"><ele>921.75</ele><time>2026-04-18T12:14:21.21Z</time></trkpt><trkpt lat="43.7605834" lon="11.5703472"><ele>919.0</ele><time>2026-04-18T12:14:22.21Z</time></trkpt><trkpt lat="43.7606987" lon="11.5702529"><ele>919.0</ele><time>2026-04-18T12:14:23.209Z</time></trkpt><trkpt lat="43.7608059" lon="11.5701829"><ele>919.0000000000001</ele><time>2026-04-18T12:14:24.21Z</time></trkpt><trkpt lat="43.7609117" lon="11.5701352"><ele>919.0000000000001</ele><time>2026-04-18T12:14:25.21Z</time></trkpt><trkpt lat="43.761014" lon="11.5701152"><ele>919.0</ele><time>2026-04-18T12:14:26.21Z</time></trkpt><trkpt lat="43.7611096" lon="11.5701026"><ele>919.0</ele><time>2026-04-18T12:14:27.21Z</time></trkpt><trkpt lat="43.7611917" lon="11.5700731"><ele>924.0</ele><time>2026-04-18T12:14:28.21Z</time></trkpt><trkpt lat="43.7612951" lon="11.570011"><ele>929.0</ele><time>2026-04-18T12:14:29.209Z</time></trkpt><trkpt lat="43.7613973" lon="11.5699639"><ele>934.0</ele><time>2026-04-18T12:14:30.21Z</time></trkpt><trkpt lat="43.7614959" lon="11.5698913"><ele>939.0</ele><time>2026-04-18T12:14:31.21Z</time></trkpt><trkpt lat="43.7616218" lon="11.569856"><ele>939.0</ele><time>2026-04-18T12:14:32.209Z</time></trkpt><trkpt lat="43.7617506" lon="11.5698192"><ele>939.0</ele><time>2026-04-18T12:14:33.209Z</time></trkpt><trkpt lat="43.7618834" lon="11.5697576"><ele>939.0</ele><time>2026-04-18T12:14:34.21Z</time></trkpt><trkpt lat="43.7620124" lon="11.5696899"><ele>939.0</ele><time>2026-04-18T12:14:35.209Z</time></trkpt><trkpt lat="43.7621577" lon="11.5696375"><ele>940.5</ele><time>2026-04-18T12:14:36.21Z</time></trkpt><trkpt lat="43.7622803" lon="11.5696046"><ele>942.0</ele><time>2026-04-18T12:14:37.209Z</time></trkpt><trkpt lat="43.7623904" lon="11.5695753"><ele>943.5</ele><time>2026-04-18T12:14:38.21Z</time></trkpt><trkpt lat="43.7625192" lon="11.569611"><ele>945.0</ele><time>2026-04-18T12:14:39.209Z</time></trkpt><trkpt lat="43.7626438" lon="11.5696266"><ele>942.5</ele><time>2026-04-18T12:14:40.21Z</time></trkpt><trkpt lat="43.7627906" lon="11.569622"><ele>940.0</ele><time>2026-04-18T12:14:41.21Z</time></trkpt><trkpt lat="43.7629487" lon="11.5696199"><ele>937.5</ele><time>2026-04-18T12:14:42.209Z</time></trkpt><trkpt lat="43.7630215" lon="11.5696128"><ele>935.0</ele><time>2026-04-18T12:14:43.21Z</time></trkpt><trkpt lat="43.7631296" lon="11.569641"><ele>935.0</ele><time>2026-04-18T12:14:44.209Z</time></trkpt><trkpt lat="43.7632231" lon="11.5697003"><ele>935.0</ele><time>2026-04-18T12:14:45.209Z</time></trkpt><trkpt lat="43.7632981" lon="11.5697801"><ele>935.0</ele><time>2026-04-18T12:14:46.209Z</time></trkpt><trkpt lat="43.7633566" lon="11.569938"><ele>935.0</ele><time>2026-04-18T12:14:47.209Z</time></trkpt><trkpt lat="43.7634365" lon="11.570068"><ele>935.0</ele><time>2026-04-18T12:14:48.21Z</time></trkpt><trkpt lat="43.7634996" lon="11.5702213"><ele>932.75</ele><time>2026-04-18T12:14:49.209Z</time></trkpt><trkpt lat="43.7635737" lon="11.5704126"><ele>930.5</ele><time>2026-04-18T12:14:50.21Z</time></trkpt><trkpt lat="43.7636414" lon="11.570565"><ele>928.25</ele><time>2026-04-18T12:14:51.21Z</time></trkpt><trkpt lat="43.7636879" lon="11.5707037"><ele>926.0</ele><time>2026-04-18T12:14:52.21Z</time></trkpt><trkpt lat="43.7637104" lon="11.5708397"><ele>926.0</ele><time>2026-04-18T12:14:53.209Z</time></trkpt><trkpt lat="43.7637228" lon="11.5709813"><ele>925.9999999999999</ele><time>2026-04-18T12:14:54.21Z</time></trkpt><trkpt lat="43.7637125" lon="11.5711017"><ele>925.9999999999999</ele><time>2026-04-18T12:14:55.21Z</time></trkpt><trkpt lat="43.7637293" lon="11.5711887"><ele>926.0</ele><time>2026-04-18T12:14:56.209Z</time></trkpt><trkpt lat="43.7638044" lon="11.5713091"><ele>926.0</ele><time>2026-04-18T12:14:58.21Z</time></trkpt><trkpt lat="43.7639242" lon="11.5712782"><ele>926.0</ele><time>2026-04-18T12:15:00.21Z</time></trkpt><trkpt lat="43.7640296" lon="11.5712351"><ele>926.0</ele><time>2026-04-18T12:15:01.21Z</time></trkpt><trkpt lat="43.7641162" lon="11.5711768"><ele>926.0</ele><time>2026-04-18T12:15:02.21Z</time></trkpt><trkpt lat="43.7642224" lon="11.571113"><ele>926.0</ele><time>2026-04-18T12:15:03.21Z</time></trkpt><trkpt lat="43.7643395" lon="11.5710429"><ele>924.5</ele><time>2026-04-18T12:15:04.21Z</time></trkpt><trkpt lat="43.7644516" lon="11.5709801"><ele>923.0</ele><time>2026-04-18T12:15:05.209Z</time></trkpt><trkpt lat="43.7645562" lon="11.57092"><ele>921.5</ele><time>2026-04-18T12:15:06.209Z</time></trkpt><trkpt lat="43.7646792" lon="11.5709157"><ele>920.0</ele><time>2026-04-18T12:15:07.21Z</time></trkpt><trkpt lat="43.7648182" lon="11.5709315"><ele>920.0</ele><time>2026-04-18T12:15:08.209Z</time></trkpt><trkpt lat="43.7649683" lon="11.5710408"><ele>920.0</ele><time>2026-04-18T12:15:09.21Z</time></trkpt><trkpt lat="43.7650918" lon="11.5711932"><ele>920.0</ele><time>2026-04-18T12:15:10.21Z</time></trkpt><trkpt lat="43.765219" lon="11.5713004"><ele>923.75</ele><time>2026-04-18T12:15:11.209Z</time></trkpt><trkpt lat="43.7653568" lon="11.5713831"><ele>927.5</ele><time>2026-04-18T12:15:12.209Z</time></trkpt><trkpt lat="43.7654834" lon="11.5714821"><ele>931.25</ele><time>2026-04-18T12:15:13.21Z</time></trkpt><trkpt lat="43.7655878" lon="11.571575"><ele>935.0</ele><time>2026-04-18T12:15:14.209Z</time></trkpt><trkpt lat="43.7656804" lon="11.5717112"><ele>935.0</ele><time>2026-04-18T12:15:15.21Z</time></trkpt><trkpt lat="43.7657524" lon="11.5718405"><ele>935.0</ele><time>2026-04-18T12:15:16.21Z</time></trkpt><trkpt lat="43.7658366" lon="11.572018"><ele>935.0</ele><time>2026-04-18T12:15:17.21Z</time></trkpt><trkpt lat="43.7659008" lon="11.5722057"><ele>935.0</ele><time>2026-04-18T12:15:18.21Z</time></trkpt><trkpt lat="43.7659723" lon="11.5723661"><ele>935.0</ele><time>2026-04-18T12:15:19.209Z</time></trkpt><trkpt lat="43.7660596" lon="11.5724805"><ele>935.0</ele><time>2026-04-18T12:15:20.21Z</time></trkpt><trkpt lat="43.7661895" lon="11.5725427"><ele>935.0</ele><time>2026-04-18T12:15:21.21Z</time></trkpt><trkpt lat="43.7662974" lon="11.572577"><ele>935.0</ele><time>2026-04-18T12:15:22.21Z</time></trkpt><trkpt lat="43.7664117" lon="11.5726226"><ele>935.0</ele><time>2026-04-18T12:15:23.21Z</time></trkpt><trkpt lat="43.7664913" lon="11.5726441"><ele>935.0</ele><time>2026-04-18T12:15:24.209Z</time></trkpt><trkpt lat="43.766576" lon="11.5726338"><ele>935.0</ele><time>2026-04-18T12:15:25.21Z</time></trkpt><trkpt lat="43.7666682" lon="11.5725264"><ele>935.0</ele><time>2026-04-18T12:15:27.21Z</time></trkpt><trkpt lat="43.7666922" lon="11.5724375"><ele>935.0</ele><time>2026-04-18T12:15:28.21Z</time></trkpt><trkpt lat="43.7667123" lon="11.5722518"><ele>935.0</ele><time>2026-04-18T12:15:29.21Z</time></trkpt><trkpt lat="43.7667487" lon="11.5720833"><ele>935.0</ele><time>2026-04-18T12:15:30.209Z</time></trkpt><trkpt lat="43.7668086" lon="11.5719464"><ele>935.0</ele><time>2026-04-18T12:15:31.209Z</time></trkpt><trkpt lat="43.7668546" lon="11.5717877"><ele>935.0</ele><time>2026-04-18T12:15:32.21Z</time></trkpt><trkpt lat="43.7669044" lon="11.5716904"><ele>933.75</ele><time>2026-04-18T12:15:33.209Z</time></trkpt><trkpt lat="43.767011" lon="11.5716397"><ele>932.5</ele><time>2026-04-18T12:15:34.209Z</time></trkpt><trkpt lat="43.7671744" lon="11.5715166"><ele>931.25</ele><time>2026-04-18T12:15:35.209Z</time></trkpt><trkpt lat="43.7673048" lon="11.5715044"><ele>930.0</ele><time>2026-04-18T12:15:36.209Z</time></trkpt><trkpt lat="43.7674942" lon="11.5715377"><ele>930.0</ele><time>2026-04-18T12:15:37.21Z</time></trkpt><trkpt lat="43.7676396" lon="11.5715631"><ele>930.0</ele><time>2026-04-18T12:15:38.21Z</time></trkpt><trkpt lat="43.7678221" lon="11.5714168"><ele>930.0</ele><time>2026-04-18T12:15:39.21Z</time></trkpt><trkpt lat="43.7679646" lon="11.5713349"><ele>930.0</ele><time>2026-04-18T12:15:40.21Z</time></trkpt><trkpt lat="43.7680844" lon="11.5712241"><ele>930.0</ele><time>2026-04-18T12:15:41.209Z</time></trkpt><trkpt lat="43.768218" lon="11.5710663"><ele>930.0</ele><time>2026-04-18T12:15:42.21Z</time></trkpt><trkpt lat="43.7683439" lon="11.5708757"><ele>930.0</ele><time>2026-04-18T12:15:43.21Z</time></trkpt><trkpt lat="43.7684719" lon="11.5706436"><ele>930.0</ele><time>2026-04-18T12:15:44.21Z</time></trkpt><trkpt lat="43.7685879" lon="11.5705077"><ele>930.0</ele><time>2026-04-18T12:15:45.21Z</time></trkpt><trkpt lat="43.768698" lon="11.5703513"><ele>930.5</ele><time>2026-04-18T12:15:46.21Z</time></trkpt><trkpt lat="43.7688031" lon="11.570254"><ele>931.0</ele><time>2026-04-18T12:15:47.21Z</time></trkpt><trkpt lat="43.7689318" lon="11.5701691"><ele>931.5</ele><time>2026-04-18T12:15:48.209Z</time></trkpt><trkpt lat="43.7690631" lon="11.5701136"><ele>932.0</ele><time>2026-04-18T12:15:49.21Z</time></trkpt><trkpt lat="43.7692027" lon="11.5700955"><ele>932.0</ele><time>2026-04-18T12:15:50.21Z</time></trkpt><trkpt lat="43.7693174" lon="11.5700799"><ele>932.0</ele><time>2026-04-18T12:15:51.21Z</time></trkpt><trkpt lat="43.7694395" lon="11.570072"><ele>932.0</ele><time>2026-04-18T12:15:52.21Z</time></trkpt><trkpt lat="43.7695331" lon="11.5700861"><ele>932.0</ele><time>2026-04-18T12:15:53.21Z</time></trkpt><trkpt lat="43.7696302" lon="11.5701207"><ele>932.0</ele><time>2026-04-18T12:15:54.21Z</time></trkpt><trkpt lat="43.7697064" lon="11.5702171"><ele>933.25</ele><time>2026-04-18T12:15:55.209Z</time></trkpt><trkpt lat="43.7698008" lon="11.5703248"><ele>934.5</ele><time>2026-04-18T12:15:56.209Z</time></trkpt><trkpt lat="43.76991" lon="11.5704089"><ele>935.75</ele><time>2026-04-18T12:15:57.21Z</time></trkpt><trkpt lat="43.7700408" lon="11.5704939"><ele>937.0</ele><time>2026-04-18T12:15:58.21Z</time></trkpt><trkpt lat="43.7701706" lon="11.5705626"><ele>937.0</ele><time>2026-04-18T12:15:59.21Z</time></trkpt><trkpt lat="43.7702928" lon="11.5706234"><ele>937.0</ele><time>2026-04-18T12:16:00.21Z</time></trkpt><trkpt lat="43.7704232" lon="11.5707046"><ele>937.0</ele><time>2026-04-18T12:16:01.21Z</time></trkpt><trkpt lat="43.7705691" lon="11.5707492"><ele>937.0</ele><time>2026-04-18T12:16:02.21Z</time></trkpt><trkpt lat="43.7707207" lon="11.5708255"><ele>937.0</ele><time>2026-04-18T12:16:03.21Z</time></trkpt><trkpt lat="43.7708842" lon="11.5709121"><ele>937.0</ele><time>2026-04-18T12:16:04.209Z</time></trkpt><trkpt lat="43.7710325" lon="11.5710099"><ele>937.0</ele><time>2026-04-18T12:16:05.21Z</time></trkpt><trkpt lat="43.7711867" lon="11.5710828"><ele>939.0</ele><time>2026-04-18T12:16:06.209Z</time></trkpt><trkpt lat="43.7713277" lon="11.57115"><ele>941.0</ele><time>2026-04-18T12:16:07.21Z</time></trkpt><trkpt lat="43.7714812" lon="11.5712259"><ele>943.0</ele><time>2026-04-18T12:16:08.209Z</time></trkpt><trkpt lat="43.771639" lon="11.5712967"><ele>943.2</ele><time>2026-04-18T12:16:09.21Z</time></trkpt><trkpt lat="43.7717393" lon="11.5713593"><ele>943.4</ele><time>2026-04-18T12:16:10.21Z</time></trkpt><trkpt lat="43.7718254" lon="11.5714417"><ele>943.6000000000001</ele><time>2026-04-18T12:16:11.21Z</time></trkpt><trkpt lat="43.7718921" lon="11.5715433"><ele>943.8000000000001</ele><time>2026-04-18T12:16:12.21Z</time></trkpt><trkpt lat="43.7719291" lon="11.5716541"><ele>944.0</ele><time>2026-04-18T12:16:13.209Z</time></trkpt><trkpt lat="43.7719709" lon="11.5718091"><ele>945.0</ele><time>2026-04-18T12:16:14.209Z</time></trkpt><trkpt lat="43.7720845" lon="11.5719502"><ele>946.0</ele><time>2026-04-18T12:16:15.21Z</time></trkpt><trkpt lat="43.7721464" lon="11.5721445"><ele>947.0</ele><time>2026-04-18T12:16:16.21Z</time></trkpt><trkpt lat="43.7722139" lon="11.5723429"><ele>947.0</ele><time>2026-04-18T12:16:17.21Z</time></trkpt><trkpt lat="43.7723011" lon="11.5724985"><ele>947.0</ele><time>2026-04-18T12:16:18.209Z</time></trkpt><trkpt lat="43.7723594" lon="11.5726794"><ele>947.0</ele><time>2026-04-18T12:16:19.21Z</time></trkpt><trkpt lat="43.7724315" lon="11.5728698"><ele>947.0</ele><time>2026-04-18T12:16:20.209Z</time></trkpt><trkpt lat="43.7725115" lon="11.5730488"><ele>949.0</ele><time>2026-04-18T12:16:21.209Z</time></trkpt><trkpt lat="43.7725913" lon="11.5732224"><ele>951.0</ele><time>2026-04-18T12:16:22.21Z</time></trkpt><trkpt lat="43.7727008" lon="11.5733477"><ele>953.0</ele><time>2026-04-18T12:16:23.209Z</time></trkpt><trkpt lat="43.7727869" lon="11.5734899"><ele>955.0</ele><time>2026-04-18T12:16:24.21Z</time></trkpt><trkpt lat="43.7728515" lon="11.5735663"><ele>955.2</ele><time>2026-04-18T12:16:25.21Z</time></trkpt><trkpt lat="43.7729439" lon="11.5735702"><ele>955.4</ele><time>2026-04-18T12:16:26.209Z</time></trkpt><trkpt lat="43.7730487" lon="11.5735782"><ele>955.5999999999999</ele><time>2026-04-18T12:16:27.209Z</time></trkpt><trkpt lat="43.7731355" lon="11.5736022"><ele>955.8</ele><time>2026-04-18T12:16:28.21Z</time></trkpt><trkpt lat="43.7732411" lon="11.5736249"><ele>956.0</ele><time>2026-04-18T12:16:29.21Z</time></trkpt><trkpt lat="43.7732759" lon="11.5737061"><ele>955.25</ele><time>2026-04-18T12:16:30.209Z</time></trkpt><trkpt lat="43.7733247" lon="11.5738548"><ele>954.5</ele><time>2026-04-18T12:16:31.21Z</time></trkpt><trkpt lat="43.7733852" lon="11.5739859"><ele>953.75</ele><time>2026-04-18T12:16:32.21Z</time></trkpt><trkpt lat="43.7734683" lon="11.5741614"><ele>953.0</ele><time>2026-04-18T12:16:33.21Z</time></trkpt><trkpt lat="43.7735488" lon="11.5743035"><ele>956.0</ele><time>2026-04-18T12:16:34.21Z</time></trkpt><trkpt lat="43.773619" lon="11.5744071"><ele>959.0</ele><time>2026-04-18T12:16:35.209Z</time></trkpt><trkpt lat="43.7736673" lon="11.5745021"><ele>962.0</ele><time>2026-04-18T12:16:36.209Z</time></trkpt><trkpt lat="43.7736734" lon="11.5746873"><ele>965.0</ele><time>2026-04-18T12:16:37.21Z</time></trkpt><trkpt lat="43.7737184" lon="11.5748364"><ele>968.0</ele><time>2026-04-18T12:16:38.209Z</time></trkpt><trkpt lat="43.7737619" lon="11.5749928"><ele>968.0</ele><time>2026-04-18T12:16:39.209Z</time></trkpt><trkpt lat="43.7738151" lon="11.5751509"><ele>968.0</ele><time>2026-04-18T12:16:40.209Z</time></trkpt><trkpt lat="43.7738916" lon="11.5753008"><ele>968.0</ele><time>2026-04-18T12:16:41.209Z</time></trkpt><trkpt lat="43.7739721" lon="11.5754253"><ele>968.0</ele><time>2026-04-18T12:16:42.21Z</time></trkpt><trkpt lat="43.7740334" lon="11.5755712"><ele>967.75</ele><time>2026-04-18T12:16:43.21Z</time></trkpt><trkpt lat="43.7740995" lon="11.5757014"><ele>967.5</ele><time>2026-04-18T12:16:44.21Z</time></trkpt><trkpt lat="43.7741852" lon="11.5758214"><ele>967.25</ele><time>2026-04-18T12:16:45.21Z</time></trkpt><trkpt lat="43.7742882" lon="11.5759105"><ele>967.0</ele><time>2026-04-18T12:16:46.21Z</time></trkpt><trkpt lat="43.7743965" lon="11.576009"><ele>969.2</ele><time>2026-04-18T12:16:47.209Z</time></trkpt><trkpt lat="43.7744654" lon="11.576079"><ele>971.4000000000001</ele><time>2026-04-18T12:16:48.21Z</time></trkpt><trkpt lat="43.7745521" lon="11.5761766"><ele>973.5999999999999</ele><time>2026-04-18T12:16:49.21Z</time></trkpt><trkpt lat="43.7746131" lon="11.5763145"><ele>975.8</ele><time>2026-04-18T12:16:50.21Z</time></trkpt><trkpt lat="43.7746645" lon="11.5764636"><ele>978.0</ele><time>2026-04-18T12:16:51.21Z</time></trkpt><trkpt lat="43.7747275" lon="11.5766689"><ele>978.0</ele><time>2026-04-18T12:16:52.21Z</time></trkpt><trkpt lat="43.7747927" lon="11.576818"><ele>978.0</ele><time>2026-04-18T12:16:53.21Z</time></trkpt><trkpt lat="43.774877" lon="11.5770067"><ele>978.0</ele><time>2026-04-18T12:16:54.209Z</time></trkpt><trkpt lat="43.7749854" lon="11.5771288"><ele>978.0</ele><time>2026-04-18T12:16:55.21Z</time></trkpt><trkpt lat="43.7750889" lon="11.5772825"><ele>979.0</ele><time>2026-04-18T12:16:56.21Z</time></trkpt><trkpt lat="43.7751749" lon="11.5774267"><ele>980.0</ele><time>2026-04-18T12:16:57.21Z</time></trkpt><trkpt lat="43.7752594" lon="11.5775768"><ele>981.0</ele><time>2026-04-18T12:16:58.209Z</time></trkpt><trkpt lat="43.7753493" lon="11.5777018"><ele>982.0</ele><time>2026-04-18T12:16:59.21Z</time></trkpt><trkpt lat="43.7754412" lon="11.5778236"><ele>979.5</ele><time>2026-04-18T12:17:00.21Z</time></trkpt><trkpt lat="43.7755314" lon="11.5779204"><ele>977.0</ele><time>2026-04-18T12:17:01.21Z</time></trkpt><trkpt lat="43.7756248" lon="11.5780076"><ele>974.5</ele><time>2026-04-18T12:17:02.21Z</time></trkpt><trkpt lat="43.7757136" lon="11.578114"><ele>972.0</ele><time>2026-04-18T12:17:03.21Z</time></trkpt><trkpt lat="43.7757929" lon="11.5782259"><ele>972.0</ele><time>2026-04-18T12:17:04.21Z</time></trkpt><trkpt lat="43.7758697" lon="11.5783493"><ele>972.0</ele><time>2026-04-18T12:17:05.21Z</time></trkpt><trkpt lat="43.7759405" lon="11.5784778"><ele>972.0</ele><time>2026-04-18T12:17:06.21Z</time></trkpt><trkpt lat="43.7760066" lon="11.57863"><ele>972.0</ele><time>2026-04-18T12:17:07.21Z</time></trkpt><trkpt lat="43.7760491" lon="11.5787913"><ele>971.25</ele><time>2026-04-18T12:17:08.209Z</time></trkpt><trkpt lat="43.7761056" lon="11.5789486"><ele>970.5</ele><time>2026-04-18T12:17:09.209Z</time></trkpt><trkpt lat="43.7761458" lon="11.579106"><ele>969.75</ele><time>2026-04-18T12:17:10.209Z</time></trkpt><trkpt lat="43.7761837" lon="11.5793104"><ele>969.0</ele><time>2026-04-18T12:17:11.21Z</time></trkpt><trkpt lat="43.776209" lon="11.579508"><ele>971.0</ele><time>2026-04-18T12:17:12.21Z</time></trkpt><trkpt lat="43.7762437" lon="11.5797246"><ele>973.0</ele><time>2026-04-18T12:17:13.21Z</time></trkpt><trkpt lat="43.7762789" lon="11.579939"><ele>975.0</ele><time>2026-04-18T12:17:14.21Z</time></trkpt><trkpt lat="43.7763003" lon="11.5801351"><ele>974.3333333333333</ele><time>2026-04-18T12:17:15.21Z</time></trkpt><trkpt lat="43.7763375" lon="11.580362"><ele>973.6666666666666</ele><time>2026-04-18T12:17:16.21Z</time></trkpt><trkpt lat="43.7763366" lon="11.5805745"><ele>973.0</ele><time>2026-04-18T12:17:17.209Z</time></trkpt><trkpt lat="43.7763327" lon="11.580772"><ele>973.0</ele><time>2026-04-18T12:17:18.21Z</time></trkpt><trkpt lat="43.7763227" lon="11.5809545"><ele>973.0</ele><time>2026-04-18T12:17:19.209Z</time></trkpt><trkpt lat="43.776318" lon="11.5811372"><ele>973.0</ele><time>2026-04-18T12:17:20.21Z</time></trkpt><trkpt lat="43.7763042" lon="11.5813084"><ele>973.0</ele><time>2026-04-18T12:17:21.21Z</time></trkpt><trkpt lat="43.7762904" lon="11.5814724"><ele>972.5</ele><time>2026-04-18T12:17:22.209Z</time></trkpt><trkpt lat="43.776277" lon="11.5816494"><ele>972.0</ele><time>2026-04-18T12:17:23.21Z</time></trkpt><trkpt lat="43.7762678" lon="11.581826"><ele>971.5</ele><time>2026-04-18T12:17:24.21Z</time></trkpt><trkpt lat="43.7762792" lon="11.5820028"><ele>971.0</ele><time>2026-04-18T12:17:25.21Z</time></trkpt><trkpt lat="43.7763068" lon="11.5821462"><ele>971.0</ele><time>2026-04-18T12:17:26.21Z</time></trkpt><trkpt lat="43.7763528" lon="11.5822909"><ele>970.9999999999999</ele><time>2026-04-18T12:17:27.21Z</time></trkpt><trkpt lat="43.7763876" lon="11.5824304"><ele>970.9999999999999</ele><time>2026-04-18T12:17:28.21Z</time></trkpt><trkpt lat="43.7764062" lon="11.5825437"><ele>971.0</ele><time>2026-04-18T12:17:29.21Z</time></trkpt><trkpt lat="43.7763959" lon="11.5826702"><ele>971.0</ele><time>2026-04-18T12:17:30.21Z</time></trkpt><trkpt lat="43.7763682" lon="11.5828103"><ele>972.5</ele><time>2026-04-18T12:17:31.21Z</time></trkpt><trkpt lat="43.7763477" lon="11.5829533"><ele>974.0</ele><time>2026-04-18T12:17:32.21Z</time></trkpt><trkpt lat="43.7763177" lon="11.5830979"><ele>975.5</ele><time>2026-04-18T12:17:33.21Z</time></trkpt><trkpt lat="43.7763056" lon="11.5832469"><ele>977.0</ele><time>2026-04-18T12:17:34.209Z</time></trkpt><trkpt lat="43.7763078" lon="11.583461"><ele>978.3333333333334</ele><time>2026-04-18T12:17:35.21Z</time></trkpt><trkpt lat="43.7763527" lon="11.5836812"><ele>979.6666666666667</ele><time>2026-04-18T12:17:36.21Z</time></trkpt><trkpt lat="43.7763592" lon="11.5838972"><ele>981.0</ele><time>2026-04-18T12:17:37.21Z</time></trkpt><trkpt lat="43.7763855" lon="11.5841231"><ele>981.0</ele><time>2026-04-18T12:17:38.21Z</time></trkpt><trkpt lat="43.7764407" lon="11.5843313"><ele>981.0</ele><time>2026-04-18T12:17:39.209Z</time></trkpt><trkpt lat="43.7764801" lon="11.584516"><ele>981.0</ele><time>2026-04-18T12:17:40.21Z</time></trkpt><trkpt lat="43.7765516" lon="11.5847107"><ele>983.0</ele><time>2026-04-18T12:17:41.21Z</time></trkpt><trkpt lat="43.7765943" lon="11.5849012"><ele>985.0</ele><time>2026-04-18T12:17:42.21Z</time></trkpt><trkpt lat="43.7766479" lon="11.5851087"><ele>987.0</ele><time>2026-04-18T12:17:43.21Z</time></trkpt><trkpt lat="43.776689" lon="11.5853254"><ele>987.5</ele><time>2026-04-18T12:17:44.21Z</time></trkpt><trkpt lat="43.7767179" lon="11.5855552"><ele>988.0</ele><time>2026-04-18T12:17:45.21Z</time></trkpt><trkpt lat="43.7767433" lon="11.5857259"><ele>988.5</ele><time>2026-04-18T12:17:46.209Z</time></trkpt><trkpt lat="43.7767778" lon="11.5859055"><ele>989.0</ele><time>2026-04-18T12:17:47.21Z</time></trkpt><trkpt lat="43.7767907" lon="11.586024"><ele>989.0000000000001</ele><time>2026-04-18T12:17:48.21Z</time></trkpt><trkpt lat="43.7768075" lon="11.5861202"><ele>989.0</ele><time>2026-04-18T12:17:49.21Z</time></trkpt><trkpt lat="43.7768296" lon="11.5862249"><ele>989.0</ele><time>2026-04-18T12:17:50.21Z</time></trkpt><trkpt lat="43.776911" lon="11.5863407"><ele>989.0</ele><time>2026-04-18T12:17:52.21Z</time></trkpt><trkpt lat="43.7769797" lon="11.5863706"><ele>989.0000000000001</ele><time>2026-04-18T12:17:54.21Z</time></trkpt><trkpt lat="43.7770396" lon="11.5863349"><ele>989.0</ele><time>2026-04-18T12:17:55.21Z</time></trkpt><trkpt lat="43.7772062" lon="11.5860903"><ele>992.0</ele><time>2026-04-18T12:17:57.21Z</time></trkpt><trkpt lat="43.7772756" lon="11.5859486"><ele>995.0</ele><time>2026-04-18T12:17:58.21Z</time></trkpt><trkpt lat="43.7773333" lon="11.5857974"><ele>998.0</ele><time>2026-04-18T12:17:59.209Z</time></trkpt><trkpt lat="43.7774051" lon="11.5856397"><ele>1001.0</ele><time>2026-04-18T12:18:00.21Z</time></trkpt><trkpt lat="43.7774934" lon="11.5854786"><ele>998.0</ele><time>2026-04-18T12:18:01.21Z</time></trkpt><trkpt lat="43.7775918" lon="11.5853408"><ele>995.0</ele><time>2026-04-18T12:18:02.209Z</time></trkpt><trkpt lat="43.7777046" lon="11.5851881"><ele>992.0</ele><time>2026-04-18T12:18:03.209Z</time></trkpt><trkpt lat="43.7777745" lon="11.5850606"><ele>989.0</ele><time>2026-04-18T12:18:04.21Z</time></trkpt><trkpt lat="43.777793" lon="11.5848918"><ele>991.4000000000001</ele><time>2026-04-18T12:18:05.21Z</time></trkpt><trkpt lat="43.7778056" lon="11.5847315"><ele>993.8000000000001</ele><time>2026-04-18T12:18:06.209Z</time></trkpt><trkpt lat="43.7778081" lon="11.5845717"><ele>996.1999999999999</ele><time>2026-04-18T12:18:07.21Z</time></trkpt><trkpt lat="43.7778256" lon="11.5844343"><ele>998.5999999999999</ele><time>2026-04-18T12:18:08.209Z</time></trkpt><trkpt lat="43.7778742" lon="11.5843234"><ele>1001.0</ele><time>2026-04-18T12:18:09.21Z</time></trkpt><trkpt lat="43.7779382" lon="11.5842445"><ele>1001.0</ele><time>2026-04-18T12:18:10.209Z</time></trkpt><trkpt lat="43.7780226" lon="11.5841986"><ele>1000.9999999999999</ele><time>2026-04-18T12:18:11.209Z</time></trkpt><trkpt lat="43.7781136" lon="11.5841869"><ele>1000.9999999999999</ele><time>2026-04-18T12:18:12.21Z</time></trkpt><trkpt lat="43.7782394" lon="11.584201"><ele>1001.0</ele><time>2026-04-18T12:18:13.209Z</time></trkpt><trkpt lat="43.7783665" lon="11.5842107"><ele>1001.0</ele><time>2026-04-18T12:18:14.21Z</time></trkpt><trkpt lat="43.7784961" lon="11.5842246"><ele>1003.0</ele><time>2026-04-18T12:18:15.209Z</time></trkpt><trkpt lat="43.778626" lon="11.5842369"><ele>1005.0</ele><time>2026-04-18T12:18:16.21Z</time></trkpt><trkpt lat="43.7787712" lon="11.5842293"><ele>1007.0</ele><time>2026-04-18T12:18:17.21Z</time></trkpt><trkpt lat="43.7789006" lon="11.5841964"><ele>1009.0</ele><time>2026-04-18T12:18:18.21Z</time></trkpt><trkpt lat="43.7790325" lon="11.5841341"><ele>1009.0</ele><time>2026-04-18T12:18:19.21Z</time></trkpt><trkpt lat="43.7791518" lon="11.5840488"><ele>1009.0000000000001</ele><time>2026-04-18T12:18:20.21Z</time></trkpt><trkpt lat="43.7792356" lon="11.5839971"><ele>1009.0000000000001</ele><time>2026-04-18T12:18:21.209Z</time></trkpt><trkpt lat="43.7793014" lon="11.5839419"><ele>1009.0</ele><time>2026-04-18T12:18:22.21Z</time></trkpt><trkpt lat="43.779376" lon="11.5839025"><ele>1009.0</ele><time>2026-04-18T12:18:23.209Z</time></trkpt><trkpt lat="43.7794567" lon="11.5838886"><ele>1006.8000000000001</ele><time>2026-04-18T12:18:24.21Z</time></trkpt><trkpt lat="43.7795466" lon="11.5839076"><ele>1004.6000000000001</ele><time>2026-04-18T12:18:25.209Z</time></trkpt><trkpt lat="43.7796159" lon="11.5839834"><ele>1002.4</ele><time>2026-04-18T12:18:26.21Z</time></trkpt><trkpt lat="43.7796861" lon="11.5840841"><ele>1000.2</ele><time>2026-04-18T12:18:27.209Z</time></trkpt><trkpt lat="43.7797205" lon="11.5842291"><ele>998.0</ele><time>2026-04-18T12:18:28.21Z</time></trkpt><trkpt lat="43.7797442" lon="11.5843796"><ele>1001.0</ele><time>2026-04-18T12:18:29.21Z</time></trkpt><trkpt lat="43.7797678" lon="11.5845399"><ele>1004.0</ele><time>2026-04-18T12:18:30.21Z</time></trkpt><trkpt lat="43.7797549" lon="11.5847159"><ele>1007.0</ele><time>2026-04-18T12:18:31.21Z</time></trkpt><trkpt lat="43.7797429" lon="11.5848799"><ele>1010.0</ele><time>2026-04-18T12:18:32.21Z</time></trkpt><trkpt lat="43.7797206" lon="11.5850038"><ele>1010.0000000000001</ele><time>2026-04-18T12:18:33.21Z</time></trkpt><trkpt lat="43.7797095" lon="11.5851223"><ele>1010.0</ele><time>2026-04-18T12:18:34.209Z</time></trkpt><trkpt lat="43.7796896" lon="11.585252"><ele>1010.0</ele><time>2026-04-18T12:18:35.21Z</time></trkpt><trkpt lat="43.7796697" lon="11.5853857"><ele>1010.0</ele><time>2026-04-18T12:18:36.21Z</time></trkpt><trkpt lat="43.7796551" lon="11.5855028"><ele>1010.0000000000001</ele><time>2026-04-18T12:18:37.21Z</time></trkpt><trkpt lat="43.7796297" lon="11.5855837"><ele>1010.0</ele><time>2026-04-18T12:18:38.21Z</time></trkpt><trkpt lat="43.7795998" lon="11.5857082"><ele>1011.4</ele><time>2026-04-18T12:18:39.21Z</time></trkpt><trkpt lat="43.7795968" lon="11.5858456"><ele>1012.8</ele><time>2026-04-18T12:18:40.21Z</time></trkpt><trkpt lat="43.7795821" lon="11.5860041"><ele>1014.2</ele><time>2026-04-18T12:18:41.209Z</time></trkpt><trkpt lat="43.7795406" lon="11.5861457"><ele>1015.6</ele><time>2026-04-18T12:18:42.21Z</time></trkpt><trkpt lat="43.7794697" lon="11.5862772"><ele>1017.0</ele><time>2026-04-18T12:18:43.21Z</time></trkpt><trkpt lat="43.7793882" lon="11.5863982"><ele>1018.5</ele><time>2026-04-18T12:18:44.21Z</time></trkpt><trkpt lat="43.7792899" lon="11.5865086"><ele>1020.0</ele><time>2026-04-18T12:18:45.21Z</time></trkpt><trkpt lat="43.7791958" lon="11.5866354"><ele>1021.5</ele><time>2026-04-18T12:18:46.21Z</time></trkpt><trkpt lat="43.7791066" lon="11.5867834"><ele>1023.0</ele><time>2026-04-18T12:18:47.21Z</time></trkpt><trkpt lat="43.7790316" lon="11.5869548"><ele>1020.75</ele><time>2026-04-18T12:18:48.21Z</time></trkpt><trkpt lat="43.7789828" lon="11.5871431"><ele>1018.5</ele><time>2026-04-18T12:18:49.21Z</time></trkpt><trkpt lat="43.778955" lon="11.587343"><ele>1016.25</ele><time>2026-04-18T12:18:50.21Z</time></trkpt><trkpt lat="43.7789413" lon="11.5875448"><ele>1014.0</ele><time>2026-04-18T12:18:51.209Z</time></trkpt><trkpt lat="43.7789301" lon="11.5877545"><ele>1012.6666666666667</ele><time>2026-04-18T12:18:52.21Z</time></trkpt><trkpt lat="43.7789333" lon="11.5879612"><ele>1011.3333333333334</ele><time>2026-04-18T12:18:53.209Z</time></trkpt><trkpt lat="43.7789414" lon="11.5881981"><ele>1010.0</ele><time>2026-04-18T12:18:54.21Z</time></trkpt><trkpt lat="43.7789413" lon="11.5884253"><ele>1010.0</ele><time>2026-04-18T12:18:55.21Z</time></trkpt><trkpt lat="43.7788974" lon="11.5886491"><ele>1010.0</ele><time>2026-04-18T12:18:56.209Z</time></trkpt><trkpt lat="43.7788502" lon="11.5888736"><ele>1010.0</ele><time>2026-04-18T12:18:57.209Z</time></trkpt><trkpt lat="43.7787708" lon="11.5890802"><ele>1008.3333333333334</ele><time>2026-04-18T12:18:58.21Z</time></trkpt><trkpt lat="43.7786764" lon="11.589278"><ele>1006.6666666666667</ele><time>2026-04-18T12:18:59.21Z</time></trkpt><trkpt lat="43.7785687" lon="11.5894494"><ele>1005.0</ele><time>2026-04-18T12:19:00.209Z</time></trkpt><trkpt lat="43.7784582" lon="11.5896034"><ele>1009.5</ele><time>2026-04-18T12:19:01.21Z</time></trkpt><trkpt lat="43.7783452" lon="11.5897534"><ele>1014.0</ele><time>2026-04-18T12:19:02.21Z</time></trkpt><trkpt lat="43.7782914" lon="11.5899299"><ele>1018.5</ele><time>2026-04-18T12:19:03.21Z</time></trkpt><trkpt lat="43.77824" lon="11.5901195"><ele>1023.0</ele><time>2026-04-18T12:19:04.21Z</time></trkpt><trkpt lat="43.7782238" lon="11.5903286"><ele>1022.3333333333333</ele><time>2026-04-18T12:19:05.21Z</time></trkpt><trkpt lat="43.7782418" lon="11.5905514"><ele>1021.6666666666666</ele><time>2026-04-18T12:19:06.21Z</time></trkpt><trkpt lat="43.7782693" lon="11.5907764"><ele>1021.0</ele><time>2026-04-18T12:19:07.21Z</time></trkpt><trkpt lat="43.7782948" lon="11.5909927"><ele>1021.0</ele><time>2026-04-18T12:19:08.209Z</time></trkpt><trkpt lat="43.7783272" lon="11.5912113"><ele>1021.0</ele><time>2026-04-18T12:19:09.21Z</time></trkpt><trkpt lat="43.7783449" lon="11.591422"><ele>1021.0</ele><time>2026-04-18T12:19:10.21Z</time></trkpt><trkpt lat="43.7783382" lon="11.5916434"><ele>1021.0</ele><time>2026-04-18T12:19:11.21Z</time></trkpt><trkpt lat="43.7783189" lon="11.5918615"><ele>1021.0</ele><time>2026-04-18T12:19:12.21Z</time></trkpt><trkpt lat="43.7782386" lon="11.5920305"><ele>1021.0</ele><time>2026-04-18T12:19:13.21Z</time></trkpt><trkpt lat="43.7782031" lon="11.5921973"><ele>1021.0</ele><time>2026-04-18T12:19:14.21Z</time></trkpt><trkpt lat="43.778175" lon="11.5923489"><ele>1021.75</ele><time>2026-04-18T12:19:15.21Z</time></trkpt><trkpt lat="43.7781514" lon="11.5925097"><ele>1022.5</ele><time>2026-04-18T12:19:16.21Z</time></trkpt><trkpt lat="43.7782756" lon="11.5926366"><ele>1023.25</ele><time>2026-04-18T12:19:17.21Z</time></trkpt><trkpt lat="43.778317" lon="11.5927212"><ele>1024.0</ele><time>2026-04-18T12:19:18.209Z</time></trkpt><trkpt lat="43.7784322" lon="11.5926895"><ele>1023.5</ele><time>2026-04-18T12:19:19.21Z</time></trkpt><trkpt lat="43.7785226" lon="11.5926949"><ele>1023.0</ele><time>2026-04-18T12:19:20.21Z</time></trkpt><trkpt lat="43.7786637" lon="11.5926122"><ele>1022.5</ele><time>2026-04-18T12:19:21.21Z</time></trkpt><trkpt lat="43.7787641" lon="11.592542"><ele>1022.0</ele><time>2026-04-18T12:19:22.21Z</time></trkpt><trkpt lat="43.7788967" lon="11.5924731"><ele>1022.0</ele><time>2026-04-18T12:19:23.21Z</time></trkpt><trkpt lat="43.7790409" lon="11.5924624"><ele>1022.0</ele><time>2026-04-18T12:19:24.21Z</time></trkpt><trkpt lat="43.7791797" lon="11.5924817"><ele>1022.0</ele><time>2026-04-18T12:19:25.21Z</time></trkpt><trkpt lat="43.7793274" lon="11.5925231"><ele>1022.0</ele><time>2026-04-18T12:19:26.209Z</time></trkpt><trkpt lat="43.7794484" lon="11.5925982"><ele>1021.25</ele><time>2026-04-18T12:19:27.21Z</time></trkpt><trkpt lat="43.779572" lon="11.5926885"><ele>1020.5</ele><time>2026-04-18T12:19:28.209Z</time></trkpt><trkpt lat="43.7796673" lon="11.5928162"><ele>1019.75</ele><time>2026-04-18T12:19:29.21Z</time></trkpt><trkpt lat="43.7797626" lon="11.5929448"><ele>1019.0</ele><time>2026-04-18T12:19:30.209Z</time></trkpt><trkpt lat="43.7796832" lon="11.5931968"><ele>1019.0</ele><time>2026-04-18T12:19:31.21Z</time></trkpt><trkpt lat="43.7796557" lon="11.5933955"><ele>1019.0</ele><time>2026-04-18T12:19:32.21Z</time></trkpt><trkpt lat="43.7796274" lon="11.5935934"><ele>1019.0</ele><time>2026-04-18T12:19:33.21Z</time></trkpt><trkpt lat="43.7796158" lon="11.59379"><ele>1019.0</ele><time>2026-04-18T12:19:34.209Z</time></trkpt><trkpt lat="43.7796212" lon="11.5939774"><ele>1018.4000000000001</ele><time>2026-04-18T12:19:35.209Z</time></trkpt><trkpt lat="43.7796393" lon="11.5941471"><ele>1017.8000000000001</ele><time>2026-04-18T12:19:36.21Z</time></trkpt><trkpt lat="43.7796552" lon="11.5942606"><ele>1017.1999999999999</ele><time>2026-04-18T12:19:37.21Z</time></trkpt><trkpt lat="43.7796874" lon="11.594385"><ele>1016.5999999999999</ele><time>2026-04-18T12:19:39.209Z</time></trkpt><trkpt lat="43.7797682" lon="11.5944117"><ele>1016.0</ele><time>2026-04-18T12:19:42.21Z</time></trkpt><trkpt lat="43.7797237" lon="11.5943046"><ele>1016.0</ele><time>2026-04-18T12:20:52.21Z</time></trkpt><trkpt lat="43.7796686" lon="11.5942228"><ele>1015.9999999999999</ele><time>2026-04-18T12:24:36.21Z</time></trkpt><trkpt lat="43.7796244" lon="11.5943482"><ele>1015.9999999999999</ele><time>2026-04-18T12:24:39.21Z</time></trkpt><trkpt lat="43.7796384" lon="11.5944635"><ele>1016.0</ele><time>2026-04-18T12:24:40.21Z</time></trkpt><trkpt lat="43.7796527" lon="11.5946132"><ele>1016.0</ele><time>2026-04-18T12:24:41.209Z</time></trkpt><trkpt lat="43.7796769" lon="11.5947872"><ele>1016.5</ele><time>2026-04-18T12:24:42.21Z</time></trkpt><trkpt lat="43.7797209" lon="11.5949624"><ele>1017.0</ele><time>2026-04-18T12:24:43.21Z</time></trkpt><trkpt lat="43.7797847" lon="11.5951158"><ele>1017.5</ele><time>2026-04-18T12:24:44.209Z</time></trkpt><trkpt lat="43.7798633" lon="11.5952526"><ele>1018.0</ele><time>2026-04-18T12:24:45.21Z</time></trkpt><trkpt lat="43.779948" lon="11.5953631"><ele>1017.8</ele><time>2026-04-18T12:24:46.209Z</time></trkpt><trkpt lat="43.7800341" lon="11.5954537"><ele>1017.5999999999999</ele><time>2026-04-18T12:24:47.209Z</time></trkpt><trkpt lat="43.7801167" lon="11.5955375"><ele>1017.4000000000001</ele><time>2026-04-18T12:24:48.21Z</time></trkpt><trkpt lat="43.7801997" lon="11.5956251"><ele>1017.2</ele><time>2026-04-18T12:24:49.21Z</time></trkpt><trkpt lat="43.7802726" lon="11.595699"><ele>1017.0</ele><time>2026-04-18T12:24:50.21Z</time></trkpt><trkpt lat="43.7803387" lon="11.5957742"><ele>1017.0</ele><time>2026-04-18T12:24:51.21Z</time></trkpt><trkpt lat="43.7804001" lon="11.5958374"><ele>1017.0</ele><time>2026-04-18T12:24:52.21Z</time></trkpt><trkpt lat="43.7804556" lon="11.5958998"><ele>1017.0</ele><time>2026-04-18T12:24:53.21Z</time></trkpt><trkpt lat="43.7805386" lon="11.5959974"><ele>1017.0</ele><time>2026-04-18T12:24:55.21Z</time></trkpt><trkpt lat="43.7805948" lon="11.596063"><ele>1017.0</ele><time>2026-04-18T12:24:57.21Z</time></trkpt><trkpt lat="43.7806483" lon="11.5961203"><ele>1017.0</ele><time>2026-04-18T12:25:26.21Z</time></trkpt><trkpt lat="43.7807129" lon="11.5961381"><ele>1017.0</ele><time>2026-04-18T12:25:33.21Z</time></trkpt><trkpt lat="43.7807675" lon="11.5960914"><ele>1016.9999999999999</ele><time>2026-04-18T12:25:47.21Z</time></trkpt><trkpt lat="43.7807675" lon="11.5961886"><ele>1017.0</ele><time>2026-04-18T12:26:43.194Z</time></trkpt><trkpt lat="43.7808203" lon="11.5961396"><ele>1017.0</ele><time>2026-04-18T12:27:11.138Z</time></trkpt><trkpt lat="43.7807906" lon="11.5960623"><ele>1016.9999999999999</ele><time>2026-04-18T12:27:17.171Z</time></trkpt><trkpt lat="43.7808472" lon="11.5960211"><ele>1017.0</ele><time>2026-04-18T12:27:30.915Z</time></trkpt><trkpt lat="43.7807616" lon="11.5959808"><ele>1017.0</ele><time>2026-04-18T12:27:38.873Z</time></trkpt><trkpt lat="43.7807364" lon="11.5961183"><ele>1017.0</ele><time>2026-04-18T12:28:33.21Z</time></trkpt><trkpt lat="43.7807553" lon="11.5960226"><ele>1017.0</ele><time>2026-04-18T12:30:40.218Z</time></trkpt><trkpt lat="43.7806926" lon="11.5960687"><ele>1017.0</ele><time>2026-04-18T12:45:40.169Z</time></trkpt><trkpt lat="43.7807292" lon="11.5961491"><ele>1017.0</ele><time>2026-04-18T12:45:46.21Z</time></trkpt><trkpt lat="43.7806701" lon="11.5961965"><ele>1017.0</ele><time>2026-04-18T12:45:56.179Z</time></trkpt><trkpt lat="43.7806128" lon="11.5960706"><ele>1017.0</ele><time>2026-04-18T12:47:14.202Z</time></trkpt><trkpt lat="43.7805729" lon="11.5959983"><ele>1017.0</ele><time>2026-04-18T12:47:20.202Z</time></trkpt><trkpt lat="43.7805049" lon="11.5958992"><ele>1017.0</ele><time>2026-04-18T12:47:22.203Z</time></trkpt><trkpt lat="43.7804087" lon="11.5957833"><ele>1017.0</ele><time>2026-04-18T12:47:24.202Z</time></trkpt><trkpt lat="43.7803455" lon="11.5957247"><ele>1017.0</ele><time>2026-04-18T12:47:25.203Z</time></trkpt><trkpt lat="43.7802701" lon="11.5956475"><ele>1017.0</ele><time>2026-04-18T12:47:26.202Z</time></trkpt><trkpt lat="43.7801743" lon="11.5955553"><ele>1017.25</ele><time>2026-04-18T12:47:27.203Z</time></trkpt><trkpt lat="43.7800622" lon="11.5954473"><ele>1017.5</ele><time>2026-04-18T12:47:28.203Z</time></trkpt><trkpt lat="43.7799579" lon="11.5953219"><ele>1017.75</ele><time>2026-04-18T12:47:29.203Z</time></trkpt><trkpt lat="43.7798746" lon="11.5951885"><ele>1018.0</ele><time>2026-04-18T12:47:30.202Z</time></trkpt><trkpt lat="43.7798082" lon="11.595049"><ele>1018.0</ele><time>2026-04-18T12:47:31.203Z</time></trkpt><trkpt lat="43.7797581" lon="11.5949021"><ele>1018.0</ele><time>2026-04-18T12:47:32.203Z</time></trkpt><trkpt lat="43.7797271" lon="11.5947264"><ele>1018.0</ele><time>2026-04-18T12:47:33.203Z</time></trkpt><trkpt lat="43.7797059" lon="11.5945464"><ele>1018.0</ele><time>2026-04-18T12:47:34.203Z</time></trkpt><trkpt lat="43.7796751" lon="11.5943654"><ele>1018.25</ele><time>2026-04-18T12:47:35.203Z</time></trkpt><trkpt lat="43.7796524" lon="11.5941756"><ele>1018.5</ele><time>2026-04-18T12:47:36.203Z</time></trkpt><trkpt lat="43.7796301" lon="11.5939991"><ele>1018.75</ele><time>2026-04-18T12:47:37.203Z</time></trkpt><trkpt lat="43.7796222" lon="11.5938233"><ele>1019.0</ele><time>2026-04-18T12:47:38.203Z</time></trkpt><trkpt lat="43.779634" lon="11.5936346"><ele>1019.0</ele><time>2026-04-18T12:47:39.203Z</time></trkpt><trkpt lat="43.7796496" lon="11.5934552"><ele>1019.0</ele><time>2026-04-18T12:47:40.203Z</time></trkpt><trkpt lat="43.7796669" lon="11.59328"><ele>1019.0</ele><time>2026-04-18T12:47:41.203Z</time></trkpt><trkpt lat="43.7796738" lon="11.5931099"><ele>1019.0</ele><time>2026-04-18T12:47:42.203Z</time></trkpt><trkpt lat="43.7796604" lon="11.5929382"><ele>1018.75</ele><time>2026-04-18T12:47:43.203Z</time></trkpt><trkpt lat="43.7796184" lon="11.5927699"><ele>1018.5</ele><time>2026-04-18T12:47:44.202Z</time></trkpt><trkpt lat="43.7795472" lon="11.5926246"><ele>1018.25</ele><time>2026-04-18T12:47:45.203Z</time></trkpt><trkpt lat="43.7794615" lon="11.5925012"><ele>1018.0</ele><time>2026-04-18T12:47:46.202Z</time></trkpt><trkpt lat="43.7793358" lon="11.5924424"><ele>1019.0</ele><time>2026-04-18T12:47:47.202Z</time></trkpt><trkpt lat="43.779213" lon="11.5923832"><ele>1020.0</ele><time>2026-04-18T12:47:48.202Z</time></trkpt><trkpt lat="43.7790748" lon="11.5923646"><ele>1021.0</ele><time>2026-04-18T12:47:49.203Z</time></trkpt><trkpt lat="43.7789436" lon="11.5923793"><ele>1022.0</ele><time>2026-04-18T12:47:50.203Z</time></trkpt><trkpt lat="43.778824" lon="11.5924212"><ele>1022.0</ele><time>2026-04-18T12:47:51.203Z</time></trkpt><trkpt lat="43.7787081" lon="11.5924767"><ele>1022.0</ele><time>2026-04-18T12:47:52.202Z</time></trkpt><trkpt lat="43.7785978" lon="11.5925417"><ele>1022.0</ele><time>2026-04-18T12:47:53.202Z</time></trkpt><trkpt lat="43.7784914" lon="11.592598"><ele>1022.0</ele><time>2026-04-18T12:47:54.203Z</time></trkpt><trkpt lat="43.7783987" lon="11.5926092"><ele>1022.0</ele><time>2026-04-18T12:47:55.203Z</time></trkpt><trkpt lat="43.7783096" lon="11.5925748"><ele>1021.8</ele><time>2026-04-18T12:47:56.203Z</time></trkpt><trkpt lat="43.7782492" lon="11.5924918"><ele>1021.6</ele><time>2026-04-18T12:47:57.203Z</time></trkpt><trkpt lat="43.7782322" lon="11.5923713"><ele>1021.3999999999999</ele><time>2026-04-18T12:47:58.202Z</time></trkpt><trkpt lat="43.7782473" lon="11.592229"><ele>1021.1999999999999</ele><time>2026-04-18T12:47:59.203Z</time></trkpt><trkpt lat="43.7782746" lon="11.592079"><ele>1021.0</ele><time>2026-04-18T12:48:00.203Z</time></trkpt><trkpt lat="43.7783044" lon="11.5919239"><ele>1021.0</ele><time>2026-04-18T12:48:01.202Z</time></trkpt><trkpt lat="43.778336" lon="11.5917637"><ele>1021.0</ele><time>2026-04-18T12:48:02.203Z</time></trkpt><trkpt lat="43.7783544" lon="11.5915993"><ele>1021.0</ele><time>2026-04-18T12:48:03.202Z</time></trkpt><trkpt lat="43.7783555" lon="11.5914121"><ele>1021.0</ele><time>2026-04-18T12:48:04.203Z</time></trkpt><trkpt lat="43.7783479" lon="11.5912119"><ele>1021.0</ele><time>2026-04-18T12:48:05.202Z</time></trkpt><trkpt lat="43.7783102" lon="11.5909991"><ele>1021.0</ele><time>2026-04-18T12:48:06.203Z</time></trkpt><trkpt lat="43.7782762" lon="11.5907984"><ele>1021.0</ele><time>2026-04-18T12:48:07.203Z</time></trkpt><trkpt lat="43.7782463" lon="11.5905987"><ele>1021.0</ele><time>2026-04-18T12:48:08.202Z</time></trkpt><trkpt lat="43.778228" lon="11.5903955"><ele>1021.0</ele><time>2026-04-18T12:48:09.202Z</time></trkpt><trkpt lat="43.7782589" lon="11.5902059"><ele>1021.0</ele><time>2026-04-18T12:48:10.203Z</time></trkpt><trkpt lat="43.7782949" lon="11.590017"><ele>1021.0</ele><time>2026-04-18T12:48:11.202Z</time></trkpt><trkpt lat="43.7783619" lon="11.5898487"><ele>1021.5</ele><time>2026-04-18T12:48:12.202Z</time></trkpt><trkpt lat="43.7784443" lon="11.5897022"><ele>1022.0</ele><time>2026-04-18T12:48:13.203Z</time></trkpt><trkpt lat="43.7785463" lon="11.5895655"><ele>1022.5</ele><time>2026-04-18T12:48:14.203Z</time></trkpt><trkpt lat="43.7786579" lon="11.5894259"><ele>1023.0</ele><time>2026-04-18T12:48:15.203Z</time></trkpt><trkpt lat="43.7787557" lon="11.5892601"><ele>1018.6666666666667</ele><time>2026-04-18T12:48:16.203Z</time></trkpt><trkpt lat="43.7788399" lon="11.5890741"><ele>1014.3333333333334</ele><time>2026-04-18T12:48:17.202Z</time></trkpt><trkpt lat="43.7789069" lon="11.5888683"><ele>1010.0</ele><time>2026-04-18T12:48:18.203Z</time></trkpt><trkpt lat="43.7789574" lon="11.5886515"><ele>1010.0</ele><time>2026-04-18T12:48:19.203Z</time></trkpt><trkpt lat="43.7789776" lon="11.5884181"><ele>1010.0</ele><time>2026-04-18T12:48:20.203Z</time></trkpt><trkpt lat="43.7789898" lon="11.5881911"><ele>1010.0</ele><time>2026-04-18T12:48:21.203Z</time></trkpt><trkpt lat="43.7789828" lon="11.5879661"><ele>1011.3333333333334</ele><time>2026-04-18T12:48:22.202Z</time></trkpt><trkpt lat="43.7789788" lon="11.587749"><ele>1012.6666666666667</ele><time>2026-04-18T12:48:23.203Z</time></trkpt><trkpt lat="43.7789891" lon="11.5875424"><ele>1014.0</ele><time>2026-04-18T12:48:24.203Z</time></trkpt><trkpt lat="43.7790204" lon="11.5873468"><ele>1014.0</ele><time>2026-04-18T12:48:25.202Z</time></trkpt><trkpt lat="43.7790651" lon="11.5871775"><ele>1014.0</ele><time>2026-04-18T12:48:26.203Z</time></trkpt><trkpt lat="43.779111" lon="11.5870007"><ele>1014.0</ele><time>2026-04-18T12:48:27.203Z</time></trkpt><trkpt lat="43.7791939" lon="11.5868352"><ele>1014.0</ele><time>2026-04-18T12:48:28.203Z</time></trkpt><trkpt lat="43.7792872" lon="11.5866749"><ele>1014.75</ele><time>2026-04-18T12:48:29.203Z</time></trkpt><trkpt lat="43.7793894" lon="11.5865201"><ele>1015.5</ele><time>2026-04-18T12:48:30.202Z</time></trkpt><trkpt lat="43.7794921" lon="11.5863831"><ele>1016.25</ele><time>2026-04-18T12:48:31.202Z</time></trkpt><trkpt lat="43.7795766" lon="11.5862501"><ele>1017.0</ele><time>2026-04-18T12:48:32.203Z</time></trkpt><trkpt lat="43.7796308" lon="11.5861043"><ele>1017.2</ele><time>2026-04-18T12:48:33.203Z</time></trkpt><trkpt lat="43.7796539" lon="11.585955"><ele>1017.4000000000001</ele><time>2026-04-18T12:48:34.202Z</time></trkpt><trkpt lat="43.7796609" lon="11.585819"><ele>1017.5999999999999</ele><time>2026-04-18T12:48:35.203Z</time></trkpt><trkpt lat="43.7796747" lon="11.5857015"><ele>1017.8</ele><time>2026-04-18T12:48:36.203Z</time></trkpt><trkpt lat="43.7797166" lon="11.5855912"><ele>1018.0</ele><time>2026-04-18T12:48:37.202Z</time></trkpt><trkpt lat="43.779797" lon="11.5855055"><ele>1018.0</ele><time>2026-04-18T12:48:38.203Z</time></trkpt><trkpt lat="43.7799037" lon="11.5854357"><ele>1018.0</ele><time>2026-04-18T12:48:39.203Z</time></trkpt><trkpt lat="43.7800175" lon="11.5853579"><ele>1018.0</ele><time>2026-04-18T12:48:40.203Z</time></trkpt><trkpt lat="43.780139" lon="11.5852557"><ele>1018.0</ele><time>2026-04-18T12:48:41.203Z</time></trkpt><trkpt lat="43.7802462" lon="11.5851059"><ele>1014.6666666666666</ele><time>2026-04-18T12:48:42.202Z</time></trkpt><trkpt lat="43.7803539" lon="11.58494"><ele>1011.3333333333333</ele><time>2026-04-18T12:48:43.202Z</time></trkpt><trkpt lat="43.7804642" lon="11.5847788"><ele>1008.0</ele><time>2026-04-18T12:48:44.203Z</time></trkpt><trkpt lat="43.7805757" lon="11.5846375"><ele>1004.75</ele><time>2026-04-18T12:48:45.203Z</time></trkpt><trkpt lat="43.7806868" lon="11.584502"><ele>1001.5</ele><time>2026-04-18T12:48:46.203Z</time></trkpt><trkpt lat="43.7807786" lon="11.5843524"><ele>998.25</ele><time>2026-04-18T12:48:47.202Z</time></trkpt><trkpt lat="43.7808443" lon="11.5842067"><ele>995.0</ele><time>2026-04-18T12:48:48.203Z</time></trkpt><trkpt lat="43.7808785" lon="11.5840501"><ele>995.0</ele><time>2026-04-18T12:48:49.203Z</time></trkpt><trkpt lat="43.780893" lon="11.5839"><ele>995.0</ele><time>2026-04-18T12:48:50.203Z</time></trkpt><trkpt lat="43.7809109" lon="11.5837563"><ele>995.0</ele><time>2026-04-18T12:48:51.202Z</time></trkpt><trkpt lat="43.7809507" lon="11.5836435"><ele>995.0</ele><time>2026-04-18T12:48:52.202Z</time></trkpt><trkpt lat="43.7810187" lon="11.5835625"><ele>995.0</ele><time>2026-04-18T12:48:53.203Z</time></trkpt><trkpt lat="43.781105" lon="11.5835272"><ele>996.0</ele><time>2026-04-18T12:48:54.203Z</time></trkpt><trkpt lat="43.7811841" lon="11.5834838"><ele>997.0</ele><time>2026-04-18T12:48:55.202Z</time></trkpt><trkpt lat="43.781256" lon="11.583423"><ele>998.0</ele><time>2026-04-18T12:48:56.203Z</time></trkpt><trkpt lat="43.7812978" lon="11.5833219"><ele>999.0</ele><time>2026-04-18T12:48:57.202Z</time></trkpt><trkpt lat="43.7813207" lon="11.5831832"><ele>1000.0</ele><time>2026-04-18T12:48:58.203Z</time></trkpt><trkpt lat="43.781336" lon="11.5830327"><ele>1000.0</ele><time>2026-04-18T12:48:59.203Z</time></trkpt><trkpt lat="43.7813493" lon="11.582868"><ele>1000.0</ele><time>2026-04-18T12:49:00.203Z</time></trkpt><trkpt lat="43.7813584" lon="11.5827123"><ele>1000.0</ele><time>2026-04-18T12:49:01.203Z</time></trkpt><trkpt lat="43.7813668" lon="11.5825489"><ele>1000.0</ele><time>2026-04-18T12:49:02.202Z</time></trkpt><trkpt lat="43.7813775" lon="11.5823903"><ele>997.8</ele><time>2026-04-18T12:49:03.202Z</time></trkpt><trkpt lat="43.7814019" lon="11.5822474"><ele>995.6</ele><time>2026-04-18T12:49:04.203Z</time></trkpt><trkpt lat="43.7814402" lon="11.5821276"><ele>993.4000000000001</ele><time>2026-04-18T12:49:05.203Z</time></trkpt><trkpt lat="43.7815104" lon="11.5820268"><ele>991.2</ele><time>2026-04-18T12:49:06.203Z</time></trkpt><trkpt lat="43.7815996" lon="11.5819444"><ele>989.0</ele><time>2026-04-18T12:49:07.202Z</time></trkpt><trkpt lat="43.7817217" lon="11.5818931"><ele>985.6666666666667</ele><time>2026-04-18T12:49:08.202Z</time></trkpt><trkpt lat="43.7818656" lon="11.5818447"><ele>982.3333333333333</ele><time>2026-04-18T12:49:09.203Z</time></trkpt><trkpt lat="43.7820197" lon="11.5817696"><ele>979.0</ele><time>2026-04-18T12:49:10.202Z</time></trkpt><trkpt lat="43.782185" lon="11.581662"><ele>979.0</ele><time>2026-04-18T12:49:11.203Z</time></trkpt><trkpt lat="43.7823335" lon="11.5815143"><ele>979.0</ele><time>2026-04-18T12:49:12.202Z</time></trkpt><trkpt lat="43.7824707" lon="11.5813355"><ele>979.0</ele><time>2026-04-18T12:49:13.203Z</time></trkpt><trkpt lat="43.7825904" lon="11.5811426"><ele>977.3333333333333</ele><time>2026-04-18T12:49:14.202Z</time></trkpt><trkpt lat="43.7826972" lon="11.5809557"><ele>975.6666666666667</ele><time>2026-04-18T12:49:15.203Z</time></trkpt><trkpt lat="43.7827949" lon="11.580765"><ele>974.0</ele><time>2026-04-18T12:49:16.203Z</time></trkpt><trkpt lat="43.7828722" lon="11.5805632"><ele>974.0</ele><time>2026-04-18T12:49:17.203Z</time></trkpt><trkpt lat="43.7829295" lon="11.5803686"><ele>974.0</ele><time>2026-04-18T12:49:18.203Z</time></trkpt><trkpt lat="43.7829962" lon="11.5801889"><ele>974.0</ele><time>2026-04-18T12:49:19.203Z</time></trkpt><trkpt lat="43.7830793" lon="11.5800179"><ele>974.0</ele><time>2026-04-18T12:49:20.203Z</time></trkpt><trkpt lat="43.7831868" lon="11.5798765"><ele>973.0</ele><time>2026-04-18T12:49:21.203Z</time></trkpt><trkpt lat="43.7833336" lon="11.5797812"><ele>972.0</ele><time>2026-04-18T12:49:22.203Z</time></trkpt><trkpt lat="43.7834672" lon="11.5796765"><ele>971.0</ele><time>2026-04-18T12:49:23.203Z</time></trkpt><trkpt lat="43.7836123" lon="11.5796112"><ele>971.0</ele><time>2026-04-18T12:49:24.203Z</time></trkpt><trkpt lat="43.7837299" lon="11.5795341"><ele>971.0</ele><time>2026-04-18T12:49:25.203Z</time></trkpt><trkpt lat="43.7838239" lon="11.579439"><ele>971.0</ele><time>2026-04-18T12:49:26.203Z</time></trkpt><trkpt lat="43.7838906" lon="11.579316"><ele>971.0</ele><time>2026-04-18T12:49:27.203Z</time></trkpt><trkpt lat="43.7839304" lon="11.5791857"><ele>965.75</ele><time>2026-04-18T12:49:28.202Z</time></trkpt><trkpt lat="43.7839853" lon="11.5790511"><ele>960.5</ele><time>2026-04-18T12:49:29.203Z</time></trkpt><trkpt lat="43.784065" lon="11.5789061"><ele>955.25</ele><time>2026-04-18T12:49:30.202Z</time></trkpt><trkpt lat="43.7841623" lon="11.5787699"><ele>950.0</ele><time>2026-04-18T12:49:31.203Z</time></trkpt><trkpt lat="43.7842781" lon="11.578654"><ele>947.75</ele><time>2026-04-18T12:49:32.203Z</time></trkpt><trkpt lat="43.7844012" lon="11.5785501"><ele>945.5</ele><time>2026-04-18T12:49:33.202Z</time></trkpt><trkpt lat="43.7845598" lon="11.5785264"><ele>943.25</ele><time>2026-04-18T12:49:34.203Z</time></trkpt><trkpt lat="43.7846985" lon="11.5784654"><ele>941.0</ele><time>2026-04-18T12:49:35.203Z</time></trkpt><trkpt lat="43.7848211" lon="11.5783855"><ele>941.0</ele><time>2026-04-18T12:49:36.203Z</time></trkpt><trkpt lat="43.7849373" lon="11.5782777"><ele>941.0</ele><time>2026-04-18T12:49:37.203Z</time></trkpt><trkpt lat="43.7850281" lon="11.5781253"><ele>941.0</ele><time>2026-04-18T12:49:38.203Z</time></trkpt><trkpt lat="43.7850893" lon="11.5779358"><ele>941.0</ele><time>2026-04-18T12:49:39.202Z</time></trkpt><trkpt lat="43.785134" lon="11.5777222"><ele>939.0</ele><time>2026-04-18T12:49:40.203Z</time></trkpt><trkpt lat="43.7851864" lon="11.5774883"><ele>937.0</ele><time>2026-04-18T12:49:41.203Z</time></trkpt><trkpt lat="43.7852384" lon="11.5772294"><ele>935.0</ele><time>2026-04-18T12:49:42.202Z</time></trkpt><trkpt lat="43.785308" lon="11.5769547"><ele>932.0</ele><time>2026-04-18T12:49:43.203Z</time></trkpt><trkpt lat="43.785381" lon="11.5766726"><ele>929.0</ele><time>2026-04-18T12:49:44.202Z</time></trkpt><trkpt lat="43.7854389" lon="11.5763923"><ele>926.0</ele><time>2026-04-18T12:49:45.202Z</time></trkpt><trkpt lat="43.785464" lon="11.5761161"><ele>923.3333333333334</ele><time>2026-04-18T12:49:46.202Z</time></trkpt><trkpt lat="43.7855078" lon="11.5758446"><ele>920.6666666666667</ele><time>2026-04-18T12:49:47.202Z</time></trkpt><trkpt lat="43.7855702" lon="11.5755875"><ele>918.0</ele><time>2026-04-18T12:49:48.203Z</time></trkpt><trkpt lat="43.7856578" lon="11.575354"><ele>915.3333333333333</ele><time>2026-04-18T12:49:49.202Z</time></trkpt><trkpt lat="43.7857692" lon="11.5751436"><ele>912.6666666666666</ele><time>2026-04-18T12:49:50.203Z</time></trkpt><trkpt lat="43.7859139" lon="11.5749586"><ele>910.0</ele><time>2026-04-18T12:49:51.203Z</time></trkpt><trkpt lat="43.7860778" lon="11.5747998"><ele>910.0</ele><time>2026-04-18T12:49:52.203Z</time></trkpt><trkpt lat="43.7862299" lon="11.5746082"><ele>910.0</ele><time>2026-04-18T12:49:53.203Z</time></trkpt><trkpt lat="43.7863821" lon="11.5743953"><ele>910.0</ele><time>2026-04-18T12:49:54.203Z</time></trkpt><trkpt lat="43.7864923" lon="11.5741414"><ele>907.0</ele><time>2026-04-18T12:49:55.203Z</time></trkpt><trkpt lat="43.7866039" lon="11.5739094"><ele>904.0</ele><time>2026-04-18T12:49:56.203Z</time></trkpt><trkpt lat="43.7867209" lon="11.5736848"><ele>901.0</ele><time>2026-04-18T12:49:57.203Z</time></trkpt><trkpt lat="43.7868287" lon="11.5734901"><ele>899.5</ele><time>2026-04-18T12:49:58.203Z</time></trkpt><trkpt lat="43.7869391" lon="11.5733301"><ele>898.0</ele><time>2026-04-18T12:49:59.203Z</time></trkpt><trkpt lat="43.7870326" lon="11.5731981"><ele>896.5</ele><time>2026-04-18T12:50:00.202Z</time></trkpt><trkpt lat="43.7871058" lon="11.573085"><ele>895.0</ele><time>2026-04-18T12:50:01.203Z</time></trkpt><trkpt lat="43.7871589" lon="11.5729697"><ele>893.8</ele><time>2026-04-18T12:50:02.202Z</time></trkpt><trkpt lat="43.7871971" lon="11.5728506"><ele>892.6</ele><time>2026-04-18T12:50:03.203Z</time></trkpt><trkpt lat="43.7872212" lon="11.5727168"><ele>891.4000000000001</ele><time>2026-04-18T12:50:04.202Z</time></trkpt><trkpt lat="43.7872354" lon="11.5725854"><ele>890.2</ele><time>2026-04-18T12:50:05.203Z</time></trkpt><trkpt lat="43.7872471" lon="11.5724523"><ele>889.0</ele><time>2026-04-18T12:50:06.203Z</time></trkpt><trkpt lat="43.7872644" lon="11.5723118"><ele>889.0</ele><time>2026-04-18T12:50:07.203Z</time></trkpt><trkpt lat="43.7872805" lon="11.5721711"><ele>889.0</ele><time>2026-04-18T12:50:08.203Z</time></trkpt><trkpt lat="43.787304" lon="11.5720121"><ele>889.0</ele><time>2026-04-18T12:50:09.203Z</time></trkpt><trkpt lat="43.7873367" lon="11.5718372"><ele>889.0</ele><time>2026-04-18T12:50:10.203Z</time></trkpt><trkpt lat="43.7873721" lon="11.5716574"><ele>887.0</ele><time>2026-04-18T12:50:11.203Z</time></trkpt><trkpt lat="43.7874089" lon="11.5714501"><ele>885.0</ele><time>2026-04-18T12:50:12.203Z</time></trkpt><trkpt lat="43.7874579" lon="11.5712271"><ele>883.0</ele><time>2026-04-18T12:50:13.203Z</time></trkpt><trkpt lat="43.7875257" lon="11.5709985"><ele>879.3333333333333</ele><time>2026-04-18T12:50:14.202Z</time></trkpt><trkpt lat="43.7876146" lon="11.5707704"><ele>875.6666666666667</ele><time>2026-04-18T12:50:15.203Z</time></trkpt><trkpt lat="43.787728" lon="11.5705573"><ele>872.0</ele><time>2026-04-18T12:50:16.202Z</time></trkpt><trkpt lat="43.7878494" lon="11.5703662"><ele>877.3333333333334</ele><time>2026-04-18T12:50:17.203Z</time></trkpt><trkpt lat="43.7879469" lon="11.5701718"><ele>882.6666666666667</ele><time>2026-04-18T12:50:18.203Z</time></trkpt><trkpt lat="43.7880286" lon="11.5699522"><ele>888.0</ele><time>2026-04-18T12:50:19.203Z</time></trkpt><trkpt lat="43.7880719" lon="11.5697116"><ele>884.3333333333333</ele><time>2026-04-18T12:50:20.203Z</time></trkpt><trkpt lat="43.7881149" lon="11.5694387"><ele>880.6666666666666</ele><time>2026-04-18T12:50:21.203Z</time></trkpt><trkpt lat="43.7881542" lon="11.5691659"><ele>877.0</ele><time>2026-04-18T12:50:22.203Z</time></trkpt><trkpt lat="43.7881977" lon="11.5688967"><ele>873.6666666666666</ele><time>2026-04-18T12:50:23.202Z</time></trkpt><trkpt lat="43.7882116" lon="11.5686336"><ele>870.3333333333333</ele><time>2026-04-18T12:50:24.203Z</time></trkpt><trkpt lat="43.788218" lon="11.5683912"><ele>867.0</ele><time>2026-04-18T12:50:25.203Z</time></trkpt><trkpt lat="43.7882111" lon="11.5681713"><ele>867.0</ele><time>2026-04-18T12:50:26.203Z</time></trkpt><trkpt lat="43.7882264" lon="11.5679632"><ele>867.0</ele><time>2026-04-18T12:50:27.202Z</time></trkpt><trkpt lat="43.7882979" lon="11.5677815"><ele>867.0</ele><time>2026-04-18T12:50:28.203Z</time></trkpt><trkpt lat="43.7883816" lon="11.5676072"><ele>871.0</ele><time>2026-04-18T12:50:29.203Z</time></trkpt><trkpt lat="43.7884996" lon="11.5674489"><ele>875.0</ele><time>2026-04-18T12:50:30.202Z</time></trkpt><trkpt lat="43.7886218" lon="11.5672866"><ele>879.0</ele><time>2026-04-18T12:50:31.202Z</time></trkpt><trkpt lat="43.7887367" lon="11.5670903"><ele>873.0</ele><time>2026-04-18T12:50:32.202Z</time></trkpt><trkpt lat="43.7888283" lon="11.5668637"><ele>867.0</ele><time>2026-04-18T12:50:33.203Z</time></trkpt><trkpt lat="43.7889173" lon="11.5666284"><ele>861.0</ele><time>2026-04-18T12:50:34.203Z</time></trkpt><trkpt lat="43.7890229" lon="11.5663921"><ele>862.0</ele><time>2026-04-18T12:50:35.202Z</time></trkpt><trkpt lat="43.789141" lon="11.5661694"><ele>863.0</ele><time>2026-04-18T12:50:36.202Z</time></trkpt><trkpt lat="43.7892837" lon="11.5659594"><ele>864.0</ele><time>2026-04-18T12:50:37.202Z</time></trkpt><trkpt lat="43.7894352" lon="11.5657741"><ele>864.0</ele><time>2026-04-18T12:50:38.203Z</time></trkpt><trkpt lat="43.7895844" lon="11.5656064"><ele>864.0</ele><time>2026-04-18T12:50:39.203Z</time></trkpt><trkpt lat="43.7897208" lon="11.5654354"><ele>864.0</ele><time>2026-04-18T12:50:40.202Z</time></trkpt><trkpt lat="43.7898245" lon="11.5652414"><ele>857.3333333333333</ele><time>2026-04-18T12:50:41.202Z</time></trkpt><trkpt lat="43.7898985" lon="11.5650072"><ele>850.6666666666666</ele><time>2026-04-18T12:50:42.203Z</time></trkpt><trkpt lat="43.7899598" lon="11.5647448"><ele>844.0</ele><time>2026-04-18T12:50:43.203Z</time></trkpt><trkpt lat="43.7900241" lon="11.5644669"><ele>844.6666666666666</ele><time>2026-04-18T12:50:44.202Z</time></trkpt><trkpt lat="43.7900914" lon="11.5641957"><ele>845.3333333333333</ele><time>2026-04-18T12:50:45.202Z</time></trkpt><trkpt lat="43.7901525" lon="11.5639348"><ele>846.0</ele><time>2026-04-18T12:50:46.203Z</time></trkpt><trkpt lat="43.7901997" lon="11.5636473"><ele>846.0</ele><time>2026-04-18T12:50:47.202Z</time></trkpt><trkpt lat="43.7902171" lon="11.5633523"><ele>846.0</ele><time>2026-04-18T12:50:48.203Z</time></trkpt><trkpt lat="43.790211" lon="11.5630468"><ele>846.0</ele><time>2026-04-18T12:50:49.203Z</time></trkpt><trkpt lat="43.7901865" lon="11.5627523"><ele>842.0</ele><time>2026-04-18T12:50:50.202Z</time></trkpt><trkpt lat="43.7901486" lon="11.5624706"><ele>838.0</ele><time>2026-04-18T12:50:51.203Z</time></trkpt><trkpt lat="43.790108" lon="11.562198"><ele>834.0</ele><time>2026-04-18T12:50:52.203Z</time></trkpt><trkpt lat="43.7900839" lon="11.5619276"><ele>834.0</ele><time>2026-04-18T12:50:53.203Z</time></trkpt><trkpt lat="43.7900899" lon="11.5616446"><ele>834.0</ele><time>2026-04-18T12:50:54.203Z</time></trkpt><trkpt lat="43.7901144" lon="11.5613762"><ele>834.0</ele><time>2026-04-18T12:50:55.203Z</time></trkpt><trkpt lat="43.7901759" lon="11.5611238"><ele>839.3333333333333</ele><time>2026-04-18T12:50:56.203Z</time></trkpt><trkpt lat="43.7902594" lon="11.560886"><ele>844.6666666666666</ele><time>2026-04-18T12:50:57.202Z</time></trkpt><trkpt lat="43.7903497" lon="11.5606467"><ele>850.0</ele><time>2026-04-18T12:50:58.203Z</time></trkpt><trkpt lat="43.7904243" lon="11.5603914"><ele>846.0</ele><time>2026-04-18T12:50:59.202Z</time></trkpt><trkpt lat="43.7904818" lon="11.5601202"><ele>842.0</ele><time>2026-04-18T12:51:00.203Z</time></trkpt><trkpt lat="43.7905262" lon="11.5598312"><ele>838.0</ele><time>2026-04-18T12:51:01.202Z</time></trkpt><trkpt lat="43.7905783" lon="11.5595545"><ele>836.3333333333333</ele><time>2026-04-18T12:51:02.203Z</time></trkpt><trkpt lat="43.7906414" lon="11.5592824"><ele>834.6666666666667</ele><time>2026-04-18T12:51:03.202Z</time></trkpt><trkpt lat="43.7907374" lon="11.5590406"><ele>833.0</ele><time>2026-04-18T12:51:04.203Z</time></trkpt><trkpt lat="43.7908486" lon="11.5588228"><ele>830.0</ele><time>2026-04-18T12:51:05.203Z</time></trkpt><trkpt lat="43.7909931" lon="11.5586264"><ele>827.0</ele><time>2026-04-18T12:51:06.203Z</time></trkpt><trkpt lat="43.7911476" lon="11.5584534"><ele>824.0</ele><time>2026-04-18T12:51:07.203Z</time></trkpt><trkpt lat="43.7913054" lon="11.5583072"><ele>824.0</ele><time>2026-04-18T12:51:08.203Z</time></trkpt><trkpt lat="43.7914695" lon="11.5581772"><ele>824.0</ele><time>2026-04-18T12:51:09.203Z</time></trkpt><trkpt lat="43.7916106" lon="11.5580619"><ele>824.0</ele><time>2026-04-18T12:51:10.203Z</time></trkpt><trkpt lat="43.7917221" lon="11.5579365"><ele>826.25</ele><time>2026-04-18T12:51:11.203Z</time></trkpt><trkpt lat="43.7917525" lon="11.5577612"><ele>828.5</ele><time>2026-04-18T12:51:12.203Z</time></trkpt><trkpt lat="43.7917841" lon="11.5576024"><ele>830.75</ele><time>2026-04-18T12:51:13.202Z</time></trkpt><trkpt lat="43.7917685" lon="11.55744"><ele>833.0</ele><time>2026-04-18T12:51:14.203Z</time></trkpt><trkpt lat="43.7917598" lon="11.5572779"><ele>833.0</ele><time>2026-04-18T12:51:15.203Z</time></trkpt><trkpt lat="43.7917988" lon="11.5571263"><ele>833.0</ele><time>2026-04-18T12:51:16.202Z</time></trkpt><trkpt lat="43.7918832" lon="11.5570118"><ele>833.0</ele><time>2026-04-18T12:51:17.202Z</time></trkpt><trkpt lat="43.7919835" lon="11.5569228"><ele>833.0</ele><time>2026-04-18T12:51:18.202Z</time></trkpt><trkpt lat="43.7920859" lon="11.5568302"><ele>825.5</ele><time>2026-04-18T12:51:19.203Z</time></trkpt><trkpt lat="43.7921615" lon="11.5567055"><ele>818.0</ele><time>2026-04-18T12:51:20.203Z</time></trkpt><trkpt lat="43.7922115" lon="11.556557"><ele>810.5</ele><time>2026-04-18T12:51:21.202Z</time></trkpt><trkpt lat="43.7922232" lon="11.5563912"><ele>803.0</ele><time>2026-04-18T12:51:22.203Z</time></trkpt><trkpt lat="43.7921824" lon="11.5562197"><ele>802.0</ele><time>2026-04-18T12:51:23.203Z</time></trkpt><trkpt lat="43.7921002" lon="11.5560582"><ele>801.0</ele><time>2026-04-18T12:51:24.202Z</time></trkpt><trkpt lat="43.791983" lon="11.5559051"><ele>800.0</ele><time>2026-04-18T12:51:25.203Z</time></trkpt><trkpt lat="43.7918755" lon="11.5557549"><ele>805.5</ele><time>2026-04-18T12:51:26.203Z</time></trkpt><trkpt lat="43.7917968" lon="11.5555907"><ele>811.0</ele><time>2026-04-18T12:51:27.203Z</time></trkpt><trkpt lat="43.7917385" lon="11.5554206"><ele>816.5</ele><time>2026-04-18T12:51:28.203Z</time></trkpt><trkpt lat="43.7917246" lon="11.5552416"><ele>822.0</ele><time>2026-04-18T12:51:29.203Z</time></trkpt><trkpt lat="43.7917541" lon="11.5550691"><ele>822.0</ele><time>2026-04-18T12:51:30.203Z</time></trkpt><trkpt lat="43.7918337" lon="11.5549216"><ele>822.0</ele><time>2026-04-18T12:51:31.203Z</time></trkpt><trkpt lat="43.7919574" lon="11.5547898"><ele>822.0</ele><time>2026-04-18T12:51:32.202Z</time></trkpt><trkpt lat="43.7920805" lon="11.5546583"><ele>822.0</ele><time>2026-04-18T12:51:33.202Z</time></trkpt><trkpt lat="43.7922003" lon="11.5545103"><ele>817.6666666666667</ele><time>2026-04-18T12:51:34.203Z</time></trkpt><trkpt lat="43.7923156" lon="11.5543285"><ele>813.3333333333334</ele><time>2026-04-18T12:51:35.203Z</time></trkpt><trkpt lat="43.7924278" lon="11.5541222"><ele>809.0</ele><time>2026-04-18T12:51:36.203Z</time></trkpt><trkpt lat="43.7925359" lon="11.5539069"><ele>809.6666666666667</ele><time>2026-04-18T12:51:37.203Z</time></trkpt><trkpt lat="43.7926512" lon="11.5536945"><ele>810.3333333333333</ele><time>2026-04-18T12:51:38.202Z</time></trkpt><trkpt lat="43.7927827" lon="11.5535065"><ele>811.0</ele><time>2026-04-18T12:51:39.203Z</time></trkpt><trkpt lat="43.7929106" lon="11.5533381"><ele>808.75</ele><time>2026-04-18T12:51:40.203Z</time></trkpt><trkpt lat="43.7930189" lon="11.5531857"><ele>806.5</ele><time>2026-04-18T12:51:41.203Z</time></trkpt><trkpt lat="43.7931017" lon="11.5530273"><ele>804.25</ele><time>2026-04-18T12:51:42.203Z</time></trkpt><trkpt lat="43.7931441" lon="11.5528314"><ele>802.0</ele><time>2026-04-18T12:51:43.202Z</time></trkpt><trkpt lat="43.79315" lon="11.552608"><ele>801.3333333333333</ele><time>2026-04-18T12:51:44.202Z</time></trkpt><trkpt lat="43.7931258" lon="11.5523636"><ele>800.6666666666667</ele><time>2026-04-18T12:51:45.203Z</time></trkpt><trkpt lat="43.7930923" lon="11.5520995"><ele>800.0</ele><time>2026-04-18T12:51:46.203Z</time></trkpt><trkpt lat="43.7930624" lon="11.5518271"><ele>797.0</ele><time>2026-04-18T12:51:47.203Z</time></trkpt><trkpt lat="43.7930344" lon="11.5515624"><ele>794.0</ele><time>2026-04-18T12:51:48.202Z</time></trkpt><trkpt lat="43.7930151" lon="11.551297"><ele>791.0</ele><time>2026-04-18T12:51:49.203Z</time></trkpt><trkpt lat="43.7929881" lon="11.5510297"><ele>789.6666666666667</ele><time>2026-04-18T12:51:50.203Z</time></trkpt><trkpt lat="43.7929645" lon="11.5507519"><ele>788.3333333333333</ele><time>2026-04-18T12:51:51.203Z</time></trkpt><trkpt lat="43.7929522" lon="11.5504754"><ele>787.0</ele><time>2026-04-18T12:51:52.203Z</time></trkpt><trkpt lat="43.7929555" lon="11.5501764"><ele>784.6666666666666</ele><time>2026-04-18T12:51:53.203Z</time></trkpt><trkpt lat="43.7929651" lon="11.5498713"><ele>782.3333333333333</ele><time>2026-04-18T12:51:54.203Z</time></trkpt><trkpt lat="43.7929834" lon="11.5495557"><ele>780.0</ele><time>2026-04-18T12:51:55.202Z</time></trkpt><trkpt lat="43.7929986" lon="11.5492425"><ele>779.0</ele><time>2026-04-18T12:51:56.202Z</time></trkpt><trkpt lat="43.7930035" lon="11.548943"><ele>778.0</ele><time>2026-04-18T12:51:57.203Z</time></trkpt><trkpt lat="43.7930163" lon="11.5486541"><ele>777.0</ele><time>2026-04-18T12:51:58.203Z</time></trkpt><trkpt lat="43.7930305" lon="11.548394"><ele>777.0</ele><time>2026-04-18T12:51:59.202Z</time></trkpt><trkpt lat="43.7930549" lon="11.5481561"><ele>777.0</ele><time>2026-04-18T12:52:00.202Z</time></trkpt><trkpt lat="43.7931055" lon="11.5479466"><ele>777.0</ele><time>2026-04-18T12:52:01.203Z</time></trkpt><trkpt lat="43.7931826" lon="11.5477613"><ele>777.75</ele><time>2026-04-18T12:52:02.203Z</time></trkpt><trkpt lat="43.7932828" lon="11.5476191"><ele>778.5</ele><time>2026-04-18T12:52:03.203Z</time></trkpt><trkpt lat="43.7934146" lon="11.547525"><ele>779.25</ele><time>2026-04-18T12:52:04.203Z</time></trkpt><trkpt lat="43.7935525" lon="11.5474462"><ele>780.0</ele><time>2026-04-18T12:52:05.203Z</time></trkpt><trkpt lat="43.7937388" lon="11.547425"><ele>780.0</ele><time>2026-04-18T12:52:06.203Z</time></trkpt><trkpt lat="43.7939169" lon="11.5474176"><ele>780.0</ele><time>2026-04-18T12:52:07.203Z</time></trkpt><trkpt lat="43.7940857" lon="11.5474215"><ele>780.0</ele><time>2026-04-18T12:52:08.203Z</time></trkpt><trkpt lat="43.7942421" lon="11.5474215"><ele>776.25</ele><time>2026-04-18T12:52:09.203Z</time></trkpt><trkpt lat="43.7943844" lon="11.5473997"><ele>772.5</ele><time>2026-04-18T12:52:10.202Z</time></trkpt><trkpt lat="43.7945128" lon="11.547339"><ele>768.75</ele><time>2026-04-18T12:52:11.203Z</time></trkpt><trkpt lat="43.7946177" lon="11.5472352"><ele>765.0</ele><time>2026-04-18T12:52:12.203Z</time></trkpt><trkpt lat="43.794686" lon="11.5470836"><ele>766.0</ele><time>2026-04-18T12:52:13.203Z</time></trkpt><trkpt lat="43.7947338" lon="11.5469044"><ele>767.0</ele><time>2026-04-18T12:52:14.203Z</time></trkpt><trkpt lat="43.7947193" lon="11.5466836"><ele>768.0</ele><time>2026-04-18T12:52:15.202Z</time></trkpt><trkpt lat="43.7947042" lon="11.54646"><ele>768.0</ele><time>2026-04-18T12:52:16.202Z</time></trkpt><trkpt lat="43.7947142" lon="11.5462333"><ele>768.0</ele><time>2026-04-18T12:52:17.202Z</time></trkpt><trkpt lat="43.7947325" lon="11.5460057"><ele>768.0</ele><time>2026-04-18T12:52:18.203Z</time></trkpt><trkpt lat="43.7947828" lon="11.5457692"><ele>767.3333333333334</ele><time>2026-04-18T12:52:19.202Z</time></trkpt><trkpt lat="43.7948431" lon="11.5455275"><ele>766.6666666666667</ele><time>2026-04-18T12:52:20.203Z</time></trkpt><trkpt lat="43.794908" lon="11.5452934"><ele>766.0</ele><time>2026-04-18T12:52:21.202Z</time></trkpt><trkpt lat="43.7949793" lon="11.5450762"><ele>767.3333333333334</ele><time>2026-04-18T12:52:22.203Z</time></trkpt><trkpt lat="43.7950376" lon="11.5448656"><ele>768.6666666666667</ele><time>2026-04-18T12:52:23.203Z</time></trkpt><trkpt lat="43.7950842" lon="11.5446487"><ele>770.0</ele><time>2026-04-18T12:52:24.203Z</time></trkpt><trkpt lat="43.7951167" lon="11.5444463"><ele>770.6666666666667</ele><time>2026-04-18T12:52:25.203Z</time></trkpt><trkpt lat="43.7951524" lon="11.5442221"><ele>771.3333333333333</ele><time>2026-04-18T12:52:26.203Z</time></trkpt><trkpt lat="43.7951869" lon="11.5439965"><ele>772.0</ele><time>2026-04-18T12:52:27.202Z</time></trkpt><trkpt lat="43.795215" lon="11.5437781"><ele>762.3333333333333</ele><time>2026-04-18T12:52:28.203Z</time></trkpt><trkpt lat="43.7952476" lon="11.5435649"><ele>752.6666666666666</ele><time>2026-04-18T12:52:29.202Z</time></trkpt><trkpt lat="43.795285" lon="11.5433546"><ele>743.0</ele><time>2026-04-18T12:52:30.202Z</time></trkpt><trkpt lat="43.7953248" lon="11.5431497"><ele>743.0</ele><time>2026-04-18T12:52:31.203Z</time></trkpt><trkpt lat="43.7953607" lon="11.5429478"><ele>743.0</ele><time>2026-04-18T12:52:32.203Z</time></trkpt><trkpt lat="43.7954012" lon="11.5427523"><ele>743.0</ele><time>2026-04-18T12:52:33.203Z</time></trkpt><trkpt lat="43.7954178" lon="11.5425531"><ele>743.0</ele><time>2026-04-18T12:52:34.202Z</time></trkpt><trkpt lat="43.7954119" lon="11.5423545"><ele>743.5</ele><time>2026-04-18T12:52:35.202Z</time></trkpt><trkpt lat="43.7954" lon="11.5421927"><ele>744.0</ele><time>2026-04-18T12:52:36.203Z</time></trkpt><trkpt lat="43.7953831" lon="11.542069"><ele>744.5</ele><time>2026-04-18T12:52:37.203Z</time></trkpt><trkpt lat="43.7953669" lon="11.5419639"><ele>745.0</ele><time>2026-04-18T12:52:38.202Z</time></trkpt><trkpt lat="43.7953472" lon="11.5418708"><ele>745.5</ele><time>2026-04-18T12:52:39.203Z</time></trkpt><trkpt lat="43.7953389" lon="11.5417556"><ele>746.0</ele><time>2026-04-18T12:52:40.203Z</time></trkpt><trkpt lat="43.7953268" lon="11.5416224"><ele>746.0</ele><time>2026-04-18T12:52:41.203Z</time></trkpt><trkpt lat="43.7953126" lon="11.5414791"><ele>746.0</ele><time>2026-04-18T12:52:42.203Z</time></trkpt><trkpt lat="43.7952939" lon="11.5413238"><ele>746.0</ele><time>2026-04-18T12:52:43.202Z</time></trkpt><trkpt lat="43.7952827" lon="11.541162"><ele>746.0</ele><time>2026-04-18T12:52:44.203Z</time></trkpt><trkpt lat="43.7952901" lon="11.5409963"><ele>744.5</ele><time>2026-04-18T12:52:45.203Z</time></trkpt><trkpt lat="43.7952997" lon="11.540825"><ele>743.0</ele><time>2026-04-18T12:52:46.203Z</time></trkpt><trkpt lat="43.7953127" lon="11.5406527"><ele>741.5</ele><time>2026-04-18T12:52:47.203Z</time></trkpt><trkpt lat="43.7953296" lon="11.5404798"><ele>740.0</ele><time>2026-04-18T12:52:48.203Z</time></trkpt><trkpt lat="43.7953472" lon="11.5403011"><ele>738.5</ele><time>2026-04-18T12:52:49.203Z</time></trkpt><trkpt lat="43.7953659" lon="11.5401191"><ele>737.0</ele><time>2026-04-18T12:52:50.203Z</time></trkpt><trkpt lat="43.7953667" lon="11.5399267"><ele>735.5</ele><time>2026-04-18T12:52:51.203Z</time></trkpt><trkpt lat="43.7953411" lon="11.5397455"><ele>734.0</ele><time>2026-04-18T12:52:52.202Z</time></trkpt><trkpt lat="43.7952851" lon="11.5395626"><ele>735.3333333333333</ele><time>2026-04-18T12:52:53.203Z</time></trkpt><trkpt lat="43.7951891" lon="11.5393919"><ele>736.6666666666666</ele><time>2026-04-18T12:52:54.203Z</time></trkpt><trkpt lat="43.7950669" lon="11.5392499"><ele>738.0</ele><time>2026-04-18T12:52:55.202Z</time></trkpt><trkpt lat="43.7949312" lon="11.5391419"><ele>738.0</ele><time>2026-04-18T12:52:56.202Z</time></trkpt><trkpt lat="43.7947961" lon="11.5390515"><ele>738.0</ele><time>2026-04-18T12:52:57.202Z</time></trkpt><trkpt lat="43.794683" lon="11.5389625"><ele>738.0</ele><time>2026-04-18T12:52:58.203Z</time></trkpt><trkpt lat="43.7945839" lon="11.5388602"><ele>738.0</ele><time>2026-04-18T12:52:59.203Z</time></trkpt><trkpt lat="43.7945037" lon="11.5387236"><ele>738.75</ele><time>2026-04-18T12:53:00.203Z</time></trkpt><trkpt lat="43.7944662" lon="11.5385631"><ele>739.5</ele><time>2026-04-18T12:53:01.203Z</time></trkpt><trkpt lat="43.7944734" lon="11.5383784"><ele>740.25</ele><time>2026-04-18T12:53:02.203Z</time></trkpt><trkpt lat="43.7944895" lon="11.5381871"><ele>741.0</ele><time>2026-04-18T12:53:03.202Z</time></trkpt><trkpt lat="43.7944887" lon="11.5380022"><ele>742.6666666666666</ele><time>2026-04-18T12:53:04.202Z</time></trkpt><trkpt lat="43.7944456" lon="11.5378222"><ele>744.3333333333333</ele><time>2026-04-18T12:53:05.202Z</time></trkpt><trkpt lat="43.7943542" lon="11.5376483"><ele>746.0</ele><time>2026-04-18T12:53:06.203Z</time></trkpt><trkpt lat="43.794235" lon="11.5374867"><ele>747.0</ele><time>2026-04-18T12:53:07.203Z</time></trkpt><trkpt lat="43.7941039" lon="11.537328"><ele>748.0</ele><time>2026-04-18T12:53:08.202Z</time></trkpt><trkpt lat="43.7939785" lon="11.5371406"><ele>749.0</ele><time>2026-04-18T12:53:09.202Z</time></trkpt><trkpt lat="43.7938712" lon="11.536923"><ele>749.0</ele><time>2026-04-18T12:53:10.203Z</time></trkpt><trkpt lat="43.7937778" lon="11.5366794"><ele>749.0</ele><time>2026-04-18T12:53:11.202Z</time></trkpt><trkpt lat="43.793686" lon="11.5364232"><ele>749.0</ele><time>2026-04-18T12:53:12.203Z</time></trkpt><trkpt lat="43.7935927" lon="11.5361585"><ele>745.0</ele><time>2026-04-18T12:53:13.203Z</time></trkpt><trkpt lat="43.7934986" lon="11.5358907"><ele>741.0</ele><time>2026-04-18T12:53:14.202Z</time></trkpt><trkpt lat="43.7934073" lon="11.5356196"><ele>737.0</ele><time>2026-04-18T12:53:15.202Z</time></trkpt><trkpt lat="43.7933238" lon="11.5353626"><ele>737.0</ele><time>2026-04-18T12:53:16.202Z</time></trkpt><trkpt lat="43.7932478" lon="11.5351021"><ele>737.0</ele><time>2026-04-18T12:53:17.203Z</time></trkpt><trkpt lat="43.7931834" lon="11.5348416"><ele>737.0</ele><time>2026-04-18T12:53:18.203Z</time></trkpt><trkpt lat="43.7931217" lon="11.5345912"><ele>739.6666666666666</ele><time>2026-04-18T12:53:19.202Z</time></trkpt><trkpt lat="43.7930667" lon="11.5343452"><ele>742.3333333333334</ele><time>2026-04-18T12:53:20.203Z</time></trkpt><trkpt lat="43.7930349" lon="11.534095"><ele>745.0</ele><time>2026-04-18T12:53:21.203Z</time></trkpt><trkpt lat="43.7930235" lon="11.5338193"><ele>746.0</ele><time>2026-04-18T12:53:22.203Z</time></trkpt><trkpt lat="43.7930055" lon="11.5335383"><ele>747.0</ele><time>2026-04-18T12:53:23.203Z</time></trkpt><trkpt lat="43.7929812" lon="11.5332502"><ele>748.0</ele><time>2026-04-18T12:53:24.203Z</time></trkpt><trkpt lat="43.7929756" lon="11.532957"><ele>747.6666666666667</ele><time>2026-04-18T12:53:25.203Z</time></trkpt><trkpt lat="43.7929914" lon="11.5326467"><ele>747.3333333333334</ele><time>2026-04-18T12:53:26.203Z</time></trkpt><trkpt lat="43.7930194" lon="11.5323388"><ele>747.0</ele><time>2026-04-18T12:53:27.202Z</time></trkpt><trkpt lat="43.7930369" lon="11.5320364"><ele>745.3333333333334</ele><time>2026-04-18T12:53:28.203Z</time></trkpt><trkpt lat="43.7930532" lon="11.5317453"><ele>743.6666666666667</ele><time>2026-04-18T12:53:29.202Z</time></trkpt><trkpt lat="43.7930644" lon="11.5314775"><ele>742.0</ele><time>2026-04-18T12:53:30.202Z</time></trkpt><trkpt lat="43.7930979" lon="11.5312373"><ele>741.25</ele><time>2026-04-18T12:53:31.203Z</time></trkpt><trkpt lat="43.7931322" lon="11.5310304"><ele>740.5</ele><time>2026-04-18T12:53:32.203Z</time></trkpt><trkpt lat="43.7931342" lon="11.530843"><ele>739.75</ele><time>2026-04-18T12:53:33.203Z</time></trkpt><trkpt lat="43.7931271" lon="11.5306638"><ele>739.0</ele><time>2026-04-18T12:53:34.203Z</time></trkpt><trkpt lat="43.7930191" lon="11.5305436"><ele>739.0</ele><time>2026-04-18T12:53:35.203Z</time></trkpt><trkpt lat="43.7929211" lon="11.5304251"><ele>739.0</ele><time>2026-04-18T12:53:36.203Z</time></trkpt><trkpt lat="43.7927875" lon="11.5303312"><ele>739.0</ele><time>2026-04-18T12:53:37.203Z</time></trkpt><trkpt lat="43.7926382" lon="11.5302387"><ele>739.0</ele><time>2026-04-18T12:53:38.203Z</time></trkpt><trkpt lat="43.7924968" lon="11.5301337"><ele>732.6666666666667</ele><time>2026-04-18T12:53:39.203Z</time></trkpt><trkpt lat="43.7923632" lon="11.5299927"><ele>726.3333333333334</ele><time>2026-04-18T12:53:40.203Z</time></trkpt><trkpt lat="43.7922506" lon="11.5298345"><ele>720.0</ele><time>2026-04-18T12:53:41.203Z</time></trkpt><trkpt lat="43.7921648" lon="11.5296534"><ele>722.6666666666666</ele><time>2026-04-18T12:53:42.203Z</time></trkpt><trkpt lat="43.7921161" lon="11.5294493"><ele>725.3333333333333</ele><time>2026-04-18T12:53:43.203Z</time></trkpt><trkpt lat="43.792099" lon="11.5292126"><ele>728.0</ele><time>2026-04-18T12:53:44.202Z</time></trkpt><trkpt lat="43.7920675" lon="11.5289647"><ele>729.3333333333333</ele><time>2026-04-18T12:53:45.203Z</time></trkpt><trkpt lat="43.7920062" lon="11.5287203"><ele>730.6666666666666</ele><time>2026-04-18T12:53:46.202Z</time></trkpt><trkpt lat="43.7919169" lon="11.5284843"><ele>732.0</ele><time>2026-04-18T12:53:47.203Z</time></trkpt><trkpt lat="43.7918269" lon="11.5282687"><ele>720.3333333333334</ele><time>2026-04-18T12:53:48.203Z</time></trkpt><trkpt lat="43.7917555" lon="11.5280563"><ele>708.6666666666667</ele><time>2026-04-18T12:53:49.203Z</time></trkpt><trkpt lat="43.791727" lon="11.5278506"><ele>697.0</ele><time>2026-04-18T12:53:50.202Z</time></trkpt><trkpt lat="43.7917283" lon="11.527655"><ele>696.5</ele><time>2026-04-18T12:53:51.203Z</time></trkpt><trkpt lat="43.7917592" lon="11.5274707"><ele>696.0</ele><time>2026-04-18T12:53:52.203Z</time></trkpt><trkpt lat="43.7918172" lon="11.527302"><ele>695.5</ele><time>2026-04-18T12:53:53.202Z</time></trkpt><trkpt lat="43.7918682" lon="11.5271143"><ele>695.0</ele><time>2026-04-18T12:53:54.203Z</time></trkpt><trkpt lat="43.7918785" lon="11.5269123"><ele>702.0</ele><time>2026-04-18T12:53:55.203Z</time></trkpt><trkpt lat="43.7918646" lon="11.5266993"><ele>709.0</ele><time>2026-04-18T12:53:56.203Z</time></trkpt><trkpt lat="43.7918592" lon="11.5264851"><ele>716.0</ele><time>2026-04-18T12:53:57.203Z</time></trkpt><trkpt lat="43.7918916" lon="11.5262668"><ele>711.3333333333333</ele><time>2026-04-18T12:53:58.203Z</time></trkpt><trkpt lat="43.7919513" lon="11.5260566"><ele>706.6666666666666</ele><time>2026-04-18T12:53:59.203Z</time></trkpt><trkpt lat="43.7920337" lon="11.5258364"><ele>702.0</ele><time>2026-04-18T12:54:00.203Z</time></trkpt><trkpt lat="43.7920919" lon="11.5256168"><ele>702.0</ele><time>2026-04-18T12:54:01.203Z</time></trkpt><trkpt lat="43.7921189" lon="11.5254101"><ele>702.0</ele><time>2026-04-18T12:54:02.203Z</time></trkpt><trkpt lat="43.7921093" lon="11.5251976"><ele>702.0</ele><time>2026-04-18T12:54:03.202Z</time></trkpt><trkpt lat="43.7920643" lon="11.5250068"><ele>698.75</ele><time>2026-04-18T12:54:04.203Z</time></trkpt><trkpt lat="43.7920153" lon="11.5248368"><ele>695.5</ele><time>2026-04-18T12:54:05.202Z</time></trkpt><trkpt lat="43.7919959" lon="11.5246762"><ele>692.25</ele><time>2026-04-18T12:54:06.202Z</time></trkpt><trkpt lat="43.7920233" lon="11.5245331"><ele>689.0</ele><time>2026-04-18T12:54:07.203Z</time></trkpt><trkpt lat="43.7920853" lon="11.5244062"><ele>686.0</ele><time>2026-04-18T12:54:08.202Z</time></trkpt><trkpt lat="43.792195" lon="11.5243083"><ele>683.0</ele><time>2026-04-18T12:54:09.202Z</time></trkpt><trkpt lat="43.792303" lon="11.5241996"><ele>680.0</ele><time>2026-04-18T12:54:10.203Z</time></trkpt><trkpt lat="43.792398" lon="11.5240383"><ele>677.0</ele><time>2026-04-18T12:54:11.202Z</time></trkpt><trkpt lat="43.7924802" lon="11.5238507"><ele>678.3333333333333</ele><time>2026-04-18T12:54:12.202Z</time></trkpt><trkpt lat="43.7925611" lon="11.5236283"><ele>679.6666666666666</ele><time>2026-04-18T12:54:13.203Z</time></trkpt><trkpt lat="43.7926466" lon="11.5234054"><ele>681.0</ele><time>2026-04-18T12:54:14.203Z</time></trkpt><trkpt lat="43.792725" lon="11.5231916"><ele>681.0</ele><time>2026-04-18T12:54:15.202Z</time></trkpt><trkpt lat="43.7927932" lon="11.5229842"><ele>681.0</ele><time>2026-04-18T12:54:16.202Z</time></trkpt><trkpt lat="43.7928274" lon="11.5227688"><ele>681.0</ele><time>2026-04-18T12:54:17.202Z</time></trkpt><trkpt lat="43.792816" lon="11.5225312"><ele>678.3333333333334</ele><time>2026-04-18T12:54:18.203Z</time></trkpt><trkpt lat="43.7927798" lon="11.522294"><ele>675.6666666666667</ele><time>2026-04-18T12:54:19.203Z</time></trkpt><trkpt lat="43.792743" lon="11.5220488"><ele>673.0</ele><time>2026-04-18T12:54:20.203Z</time></trkpt><trkpt lat="43.7927236" lon="11.5217857"><ele>671.0</ele><time>2026-04-18T12:54:21.203Z</time></trkpt><trkpt lat="43.7927127" lon="11.5215036"><ele>669.0</ele><time>2026-04-18T12:54:22.203Z</time></trkpt><trkpt lat="43.7926901" lon="11.5212238"><ele>667.0</ele><time>2026-04-18T12:54:23.202Z</time></trkpt><trkpt lat="43.7926578" lon="11.5209609"><ele>657.6666666666667</ele><time>2026-04-18T12:54:24.203Z</time></trkpt><trkpt lat="43.7926336" lon="11.5207095"><ele>648.3333333333334</ele><time>2026-04-18T12:54:25.202Z</time></trkpt><trkpt lat="43.7926327" lon="11.5204718"><ele>639.0</ele><time>2026-04-18T12:54:26.203Z</time></trkpt><trkpt lat="43.7926718" lon="11.5202554"><ele>642.6666666666666</ele><time>2026-04-18T12:54:27.202Z</time></trkpt><trkpt lat="43.7927347" lon="11.5200456"><ele>646.3333333333333</ele><time>2026-04-18T12:54:28.203Z</time></trkpt><trkpt lat="43.7928254" lon="11.5198414"><ele>650.0</ele><time>2026-04-18T12:54:29.202Z</time></trkpt><trkpt lat="43.7929368" lon="11.5196485"><ele>643.3333333333333</ele><time>2026-04-18T12:54:30.203Z</time></trkpt><trkpt lat="43.7930717" lon="11.5194875"><ele>636.6666666666666</ele><time>2026-04-18T12:54:31.203Z</time></trkpt><trkpt lat="43.7932167" lon="11.5193504"><ele>630.0</ele><time>2026-04-18T12:54:32.202Z</time></trkpt><trkpt lat="43.7933367" lon="11.5192022"><ele>630.0</ele><time>2026-04-18T12:54:33.203Z</time></trkpt><trkpt lat="43.7934289" lon="11.5190459"><ele>630.0</ele><time>2026-04-18T12:54:34.203Z</time></trkpt><trkpt lat="43.7934951" lon="11.5188885"><ele>630.0</ele><time>2026-04-18T12:54:35.203Z</time></trkpt><trkpt lat="43.793517" lon="11.5187249"><ele>630.0</ele><time>2026-04-18T12:54:36.203Z</time></trkpt><trkpt lat="43.7935017" lon="11.5185781"><ele>628.5</ele><time>2026-04-18T12:54:37.203Z</time></trkpt><trkpt lat="43.7934367" lon="11.5184318"><ele>627.0</ele><time>2026-04-18T12:54:38.203Z</time></trkpt><trkpt lat="43.7933513" lon="11.5182803"><ele>625.5</ele><time>2026-04-18T12:54:39.202Z</time></trkpt><trkpt lat="43.7932471" lon="11.5181202"><ele>624.0</ele><time>2026-04-18T12:54:40.202Z</time></trkpt><trkpt lat="43.7931308" lon="11.5179515"><ele>627.6666666666666</ele><time>2026-04-18T12:54:41.203Z</time></trkpt><trkpt lat="43.793006" lon="11.517774"><ele>631.3333333333333</ele><time>2026-04-18T12:54:42.203Z</time></trkpt><trkpt lat="43.792881" lon="11.5175838"><ele>635.0</ele><time>2026-04-18T12:54:43.203Z</time></trkpt><trkpt lat="43.7927554" lon="11.5173974"><ele>629.6666666666666</ele><time>2026-04-18T12:54:44.203Z</time></trkpt><trkpt lat="43.7926068" lon="11.5172161"><ele>624.3333333333334</ele><time>2026-04-18T12:54:45.202Z</time></trkpt><trkpt lat="43.792455" lon="11.5170575"><ele>619.0</ele><time>2026-04-18T12:54:46.202Z</time></trkpt><trkpt lat="43.7922996" lon="11.5169249"><ele>619.0</ele><time>2026-04-18T12:54:47.203Z</time></trkpt><trkpt lat="43.7921465" lon="11.5167883"><ele>619.0</ele><time>2026-04-18T12:54:48.203Z</time></trkpt><trkpt lat="43.7920012" lon="11.5166355"><ele>619.0</ele><time>2026-04-18T12:54:49.202Z</time></trkpt><trkpt lat="43.7918637" lon="11.5164715"><ele>613.6666666666667</ele><time>2026-04-18T12:54:50.202Z</time></trkpt><trkpt lat="43.791731" lon="11.5163103"><ele>608.3333333333334</ele><time>2026-04-18T12:54:51.203Z</time></trkpt><trkpt lat="43.7916093" lon="11.5161545"><ele>603.0</ele><time>2026-04-18T12:54:52.203Z</time></trkpt><trkpt lat="43.7914921" lon="11.5160053"><ele>603.0</ele><time>2026-04-18T12:54:53.203Z</time></trkpt><trkpt lat="43.7913928" lon="11.515872"><ele>603.0</ele><time>2026-04-18T12:54:54.202Z</time></trkpt><trkpt lat="43.791308" lon="11.5157412"><ele>603.0</ele><time>2026-04-18T12:54:55.203Z</time></trkpt><trkpt lat="43.7912504" lon="11.5156115"><ele>603.0</ele><time>2026-04-18T12:54:56.202Z</time></trkpt><trkpt lat="43.7912146" lon="11.515474"><ele>601.5</ele><time>2026-04-18T12:54:57.202Z</time></trkpt><trkpt lat="43.7912209" lon="11.5153347"><ele>600.0</ele><time>2026-04-18T12:54:58.202Z</time></trkpt><trkpt lat="43.7912628" lon="11.5151982"><ele>598.5</ele><time>2026-04-18T12:54:59.202Z</time></trkpt><trkpt lat="43.7913367" lon="11.5150617"><ele>597.0</ele><time>2026-04-18T12:55:00.203Z</time></trkpt><trkpt lat="43.7914353" lon="11.5149088"><ele>597.0</ele><time>2026-04-18T12:55:01.203Z</time></trkpt><trkpt lat="43.7915594" lon="11.5147655"><ele>597.0</ele><time>2026-04-18T12:55:02.203Z</time></trkpt><trkpt lat="43.7917093" lon="11.5146236"><ele>597.0</ele><time>2026-04-18T12:55:03.203Z</time></trkpt><trkpt lat="43.7918805" lon="11.5145091"><ele>593.3333333333334</ele><time>2026-04-18T12:55:04.202Z</time></trkpt><trkpt lat="43.7920575" lon="11.5144108"><ele>589.6666666666667</ele><time>2026-04-18T12:55:05.203Z</time></trkpt><trkpt lat="43.7922172" lon="11.5143064"><ele>586.0</ele><time>2026-04-18T12:55:06.203Z</time></trkpt><trkpt lat="43.7923522" lon="11.5141976"><ele>586.0</ele><time>2026-04-18T12:55:07.203Z</time></trkpt><trkpt lat="43.7924478" lon="11.5140716"><ele>586.0</ele><time>2026-04-18T12:55:08.203Z</time></trkpt><trkpt lat="43.7925107" lon="11.5139188"><ele>586.0</ele><time>2026-04-18T12:55:09.202Z</time></trkpt><trkpt lat="43.7925336" lon="11.513753"><ele>586.0</ele><time>2026-04-18T12:55:10.202Z</time></trkpt><trkpt lat="43.7925034" lon="11.5135906"><ele>582.75</ele><time>2026-04-18T12:55:11.203Z</time></trkpt><trkpt lat="43.7924382" lon="11.5134341"><ele>579.5</ele><time>2026-04-18T12:55:12.203Z</time></trkpt><trkpt lat="43.7923389" lon="11.5133151"><ele>576.25</ele><time>2026-04-18T12:55:13.203Z</time></trkpt><trkpt lat="43.7922065" lon="11.51322"><ele>573.0</ele><time>2026-04-18T12:55:14.203Z</time></trkpt><trkpt lat="43.7920434" lon="11.51315"><ele>573.0</ele><time>2026-04-18T12:55:15.203Z</time></trkpt><trkpt lat="43.7918631" lon="11.5130985"><ele>573.0</ele><time>2026-04-18T12:55:16.203Z</time></trkpt><trkpt lat="43.7916778" lon="11.5130409"><ele>573.0</ele><time>2026-04-18T12:55:17.203Z</time></trkpt><trkpt lat="43.7914819" lon="11.512986"><ele>570.6666666666666</ele><time>2026-04-18T12:55:18.202Z</time></trkpt><trkpt lat="43.7912883" lon="11.5129367"><ele>568.3333333333333</ele><time>2026-04-18T12:55:19.203Z</time></trkpt><trkpt lat="43.7910975" lon="11.5129126"><ele>566.0</ele><time>2026-04-18T12:55:20.203Z</time></trkpt><trkpt lat="43.7909004" lon="11.5129432"><ele>562.6666666666666</ele><time>2026-04-18T12:55:21.203Z</time></trkpt><trkpt lat="43.7907002" lon="11.5129902"><ele>559.3333333333334</ele><time>2026-04-18T12:55:22.203Z</time></trkpt><trkpt lat="43.7904983" lon="11.5130488"><ele>556.0</ele><time>2026-04-18T12:55:23.203Z</time></trkpt><trkpt lat="43.7902947" lon="11.5131078"><ele>552.0</ele><time>2026-04-18T12:55:24.202Z</time></trkpt><trkpt lat="43.7900959" lon="11.5131692"><ele>548.0</ele><time>2026-04-18T12:55:25.203Z</time></trkpt><trkpt lat="43.7899076" lon="11.5132206"><ele>544.0</ele><time>2026-04-18T12:55:26.202Z</time></trkpt><trkpt lat="43.7897172" lon="11.5132586"><ele>544.0</ele><time>2026-04-18T12:55:27.203Z</time></trkpt><trkpt lat="43.7895302" lon="11.5132614"><ele>544.0</ele><time>2026-04-18T12:55:28.202Z</time></trkpt><trkpt lat="43.7893498" lon="11.513262"><ele>544.0</ele><time>2026-04-18T12:55:29.203Z</time></trkpt><trkpt lat="43.7891731" lon="11.5132388"><ele>541.3333333333334</ele><time>2026-04-18T12:55:30.203Z</time></trkpt><trkpt lat="43.7889992" lon="11.5131776"><ele>538.6666666666666</ele><time>2026-04-18T12:55:31.202Z</time></trkpt><trkpt lat="43.7888302" lon="11.5130629"><ele>536.0</ele><time>2026-04-18T12:55:32.203Z</time></trkpt><trkpt lat="43.7886895" lon="11.5129219"><ele>534.6666666666666</ele><time>2026-04-18T12:55:33.203Z</time></trkpt><trkpt lat="43.7885606" lon="11.5127655"><ele>533.3333333333334</ele><time>2026-04-18T12:55:34.202Z</time></trkpt><trkpt lat="43.7884395" lon="11.5126132"><ele>532.0</ele><time>2026-04-18T12:55:35.202Z</time></trkpt><trkpt lat="43.7883177" lon="11.5124599"><ele>531.25</ele><time>2026-04-18T12:55:36.203Z</time></trkpt><trkpt lat="43.7882097" lon="11.5123161"><ele>530.5</ele><time>2026-04-18T12:55:37.203Z</time></trkpt><trkpt lat="43.7881006" lon="11.5121751"><ele>529.75</ele><time>2026-04-18T12:55:38.203Z</time></trkpt><trkpt lat="43.7879982" lon="11.5120519"><ele>529.0</ele><time>2026-04-18T12:55:39.203Z</time></trkpt><trkpt lat="43.7879019" lon="11.5119288"><ele>528.2</ele><time>2026-04-18T12:55:40.202Z</time></trkpt><trkpt lat="43.7878155" lon="11.511814"><ele>527.4</ele><time>2026-04-18T12:55:41.203Z</time></trkpt><trkpt lat="43.7877372" lon="11.5117154"><ele>526.6</ele><time>2026-04-18T12:55:42.203Z</time></trkpt><trkpt lat="43.7876635" lon="11.5116147"><ele>525.8</ele><time>2026-04-18T12:55:43.202Z</time></trkpt><trkpt lat="43.7875873" lon="11.5115126"><ele>525.0</ele><time>2026-04-18T12:55:44.203Z</time></trkpt><trkpt lat="43.7875091" lon="11.5114072"><ele>525.0</ele><time>2026-04-18T12:55:45.203Z</time></trkpt><trkpt lat="43.7874285" lon="11.5113037"><ele>525.0</ele><time>2026-04-18T12:55:46.202Z</time></trkpt><trkpt lat="43.7873518" lon="11.5112073"><ele>525.0</ele><time>2026-04-18T12:55:47.202Z</time></trkpt><trkpt lat="43.7872803" lon="11.5111128"><ele>525.0</ele><time>2026-04-18T12:55:48.203Z</time></trkpt><trkpt lat="43.7872029" lon="11.5110176"><ele>525.0</ele><time>2026-04-18T12:55:49.203Z</time></trkpt><trkpt lat="43.7871294" lon="11.5109216"><ele>525.2</ele><time>2026-04-18T12:55:50.203Z</time></trkpt><trkpt lat="43.7870456" lon="11.5108211"><ele>525.4</ele><time>2026-04-18T12:55:51.202Z</time></trkpt><trkpt lat="43.7869718" lon="11.5107252"><ele>525.6</ele><time>2026-04-18T12:55:52.203Z</time></trkpt><trkpt lat="43.7868976" lon="11.5106271"><ele>525.8</ele><time>2026-04-18T12:55:53.203Z</time></trkpt><trkpt lat="43.7868176" lon="11.5105345"><ele>526.0</ele><time>2026-04-18T12:55:54.202Z</time></trkpt><trkpt lat="43.7867386" lon="11.5104429"><ele>523.75</ele><time>2026-04-18T12:55:55.202Z</time></trkpt><trkpt lat="43.7866636" lon="11.5103445"><ele>521.5</ele><time>2026-04-18T12:55:56.202Z</time></trkpt><trkpt lat="43.7865807" lon="11.5102375"><ele>519.25</ele><time>2026-04-18T12:55:57.203Z</time></trkpt><trkpt lat="43.7864866" lon="11.5101226"><ele>517.0</ele><time>2026-04-18T12:55:58.202Z</time></trkpt><trkpt lat="43.7863805" lon="11.5099977"><ele>517.0</ele><time>2026-04-18T12:55:59.202Z</time></trkpt><trkpt lat="43.7862615" lon="11.5098582"><ele>517.0</ele><time>2026-04-18T12:56:00.203Z</time></trkpt><trkpt lat="43.7861397" lon="11.5097193"><ele>517.0</ele><time>2026-04-18T12:56:01.203Z</time></trkpt><trkpt lat="43.7860143" lon="11.5095759"><ele>516.3333333333334</ele><time>2026-04-18T12:56:02.203Z</time></trkpt><trkpt lat="43.7858968" lon="11.5094099"><ele>515.6666666666666</ele><time>2026-04-18T12:56:03.203Z</time></trkpt><trkpt lat="43.7857874" lon="11.5092284"><ele>515.0</ele><time>2026-04-18T12:56:04.203Z</time></trkpt><trkpt lat="43.7856906" lon="11.5090066"><ele>515.0</ele><time>2026-04-18T12:56:05.202Z</time></trkpt><trkpt lat="43.7855958" lon="11.5087775"><ele>515.0</ele><time>2026-04-18T12:56:06.203Z</time></trkpt><trkpt lat="43.7855024" lon="11.5085334"><ele>515.0</ele><time>2026-04-18T12:56:07.202Z</time></trkpt><trkpt lat="43.7854129" lon="11.5082758"><ele>513.0</ele><time>2026-04-18T12:56:08.202Z</time></trkpt><trkpt lat="43.7853263" lon="11.5080068"><ele>511.0</ele><time>2026-04-18T12:56:09.203Z</time></trkpt><trkpt lat="43.7852559" lon="11.5077374"><ele>509.0</ele><time>2026-04-18T12:56:10.203Z</time></trkpt><trkpt lat="43.7851965" lon="11.50748"><ele>507.0</ele><time>2026-04-18T12:56:11.203Z</time></trkpt><trkpt lat="43.7851415" lon="11.5072384"><ele>505.0</ele><time>2026-04-18T12:56:12.202Z</time></trkpt><trkpt lat="43.7850883" lon="11.506979"><ele>503.0</ele><time>2026-04-18T12:56:13.203Z</time></trkpt><trkpt lat="43.7850451" lon="11.506702"><ele>501.66666666666663</ele><time>2026-04-18T12:56:14.203Z</time></trkpt><trkpt lat="43.7850061" lon="11.5064254"><ele>500.33333333333337</ele><time>2026-04-18T12:56:15.203Z</time></trkpt><trkpt lat="43.7849622" lon="11.5061441"><ele>499.0</ele><time>2026-04-18T12:56:16.202Z</time></trkpt><trkpt lat="43.7849302" lon="11.5058606"><ele>496.6666666666667</ele><time>2026-04-18T12:56:17.203Z</time></trkpt><trkpt lat="43.7848991" lon="11.505592"><ele>494.33333333333337</ele><time>2026-04-18T12:56:18.203Z</time></trkpt><trkpt lat="43.7848589" lon="11.5053393"><ele>492.0</ele><time>2026-04-18T12:56:19.203Z</time></trkpt><trkpt lat="43.784821" lon="11.5051043"><ele>491.25</ele><time>2026-04-18T12:56:20.203Z</time></trkpt><trkpt lat="43.7847891" lon="11.504895"><ele>490.5</ele><time>2026-04-18T12:56:21.203Z</time></trkpt><trkpt lat="43.784759" lon="11.5047186"><ele>489.75</ele><time>2026-04-18T12:56:22.203Z</time></trkpt><trkpt lat="43.7847291" lon="11.5045646"><ele>489.0</ele><time>2026-04-18T12:56:23.203Z</time></trkpt><trkpt lat="43.7847109" lon="11.5044118"><ele>488.0</ele><time>2026-04-18T12:56:24.203Z</time></trkpt><trkpt lat="43.7846887" lon="11.5042637"><ele>487.0</ele><time>2026-04-18T12:56:25.203Z</time></trkpt><trkpt lat="43.7846673" lon="11.5041337"><ele>486.0</ele><time>2026-04-18T12:56:26.203Z</time></trkpt><trkpt lat="43.7846408" lon="11.5039978"><ele>485.0</ele><time>2026-04-18T12:56:27.202Z</time></trkpt><trkpt lat="43.7846109" lon="11.5038591"><ele>484.0</ele><time>2026-04-18T12:56:28.202Z</time></trkpt><trkpt lat="43.7845798" lon="11.5037202"><ele>484.0</ele><time>2026-04-18T12:56:29.202Z</time></trkpt><trkpt lat="43.7845477" lon="11.5035806"><ele>484.0</ele><time>2026-04-18T12:56:30.203Z</time></trkpt><trkpt lat="43.7845224" lon="11.503442"><ele>484.0</ele><time>2026-04-18T12:56:31.203Z</time></trkpt><trkpt lat="43.7845069" lon="11.5033003"><ele>484.0</ele><time>2026-04-18T12:56:32.203Z</time></trkpt><trkpt lat="43.7845091" lon="11.5031567"><ele>484.0</ele><time>2026-04-18T12:56:33.202Z</time></trkpt><trkpt lat="43.7845252" lon="11.5030322"><ele>483.4</ele><time>2026-04-18T12:56:34.202Z</time></trkpt><trkpt lat="43.7845494" lon="11.502909"><ele>482.79999999999995</ele><time>2026-04-18T12:56:35.203Z</time></trkpt><trkpt lat="43.7845763" lon="11.5027867"><ele>482.20000000000005</ele><time>2026-04-18T12:56:36.203Z</time></trkpt><trkpt lat="43.784604" lon="11.5026668"><ele>481.6</ele><time>2026-04-18T12:56:37.203Z</time></trkpt><trkpt lat="43.7846311" lon="11.5025279"><ele>481.0</ele><time>2026-04-18T12:56:38.203Z</time></trkpt><trkpt lat="43.7846567" lon="11.5023807"><ele>481.0</ele><time>2026-04-18T12:56:39.202Z</time></trkpt><trkpt lat="43.7846781" lon="11.5022328"><ele>481.0</ele><time>2026-04-18T12:56:40.203Z</time></trkpt><trkpt lat="43.7846878" lon="11.5020816"><ele>481.0</ele><time>2026-04-18T12:56:41.202Z</time></trkpt><trkpt lat="43.7846739" lon="11.501928"><ele>481.0</ele><time>2026-04-18T12:56:42.202Z</time></trkpt><trkpt lat="43.7846448" lon="11.5017742"><ele>481.0</ele><time>2026-04-18T12:56:43.203Z</time></trkpt><trkpt lat="43.7846096" lon="11.501629"><ele>480.6</ele><time>2026-04-18T12:56:44.203Z</time></trkpt><trkpt lat="43.7845648" lon="11.5014906"><ele>480.20000000000005</ele><time>2026-04-18T12:56:45.203Z</time></trkpt><trkpt lat="43.784515" lon="11.5013632"><ele>479.79999999999995</ele><time>2026-04-18T12:56:46.203Z</time></trkpt><trkpt lat="43.7844636" lon="11.5012338"><ele>479.4</ele><time>2026-04-18T12:56:47.203Z</time></trkpt><trkpt lat="43.7844164" lon="11.5011054"><ele>479.0</ele><time>2026-04-18T12:56:48.203Z</time></trkpt><trkpt lat="43.7843667" lon="11.5009635"><ele>477.5</ele><time>2026-04-18T12:56:49.202Z</time></trkpt><trkpt lat="43.7843243" lon="11.500817"><ele>476.0</ele><time>2026-04-18T12:56:50.203Z</time></trkpt><trkpt lat="43.7843001" lon="11.5006467"><ele>474.5</ele><time>2026-04-18T12:56:51.203Z</time></trkpt><trkpt lat="43.7842923" lon="11.5004783"><ele>473.0</ele><time>2026-04-18T12:56:52.203Z</time></trkpt><trkpt lat="43.7843104" lon="11.5003018"><ele>471.25</ele><time>2026-04-18T12:56:53.202Z</time></trkpt><trkpt lat="43.784346" lon="11.500129"><ele>469.5</ele><time>2026-04-18T12:56:54.202Z</time></trkpt><trkpt lat="43.7843818" lon="11.4999615"><ele>467.75</ele><time>2026-04-18T12:56:55.203Z</time></trkpt><trkpt lat="43.7844162" lon="11.499809"><ele>466.0</ele><time>2026-04-18T12:56:56.203Z</time></trkpt><trkpt lat="43.784451" lon="11.4996583"><ele>464.75</ele><time>2026-04-18T12:56:57.203Z</time></trkpt><trkpt lat="43.7844845" lon="11.4994972"><ele>463.5</ele><time>2026-04-18T12:56:58.202Z</time></trkpt><trkpt lat="43.784508" lon="11.499327"><ele>462.25</ele><time>2026-04-18T12:56:59.203Z</time></trkpt><trkpt lat="43.7845238" lon="11.4991729"><ele>461.0</ele><time>2026-04-18T12:57:00.203Z</time></trkpt><trkpt lat="43.7845061" lon="11.4990119"><ele>461.0</ele><time>2026-04-18T12:57:01.202Z</time></trkpt><trkpt lat="43.784454" lon="11.4988382"><ele>461.0</ele><time>2026-04-18T12:57:02.203Z</time></trkpt><trkpt lat="43.7843767" lon="11.498638"><ele>461.0</ele><time>2026-04-18T12:57:03.203Z</time></trkpt><trkpt lat="43.7842786" lon="11.4984223"><ele>460.66666666666663</ele><time>2026-04-18T12:57:04.203Z</time></trkpt><trkpt lat="43.784161" lon="11.4982263"><ele>460.33333333333337</ele><time>2026-04-18T12:57:05.203Z</time></trkpt><trkpt lat="43.7840383" lon="11.4980612"><ele>460.0</ele><time>2026-04-18T12:57:06.203Z</time></trkpt><trkpt lat="43.7839256" lon="11.497921"><ele>459.25</ele><time>2026-04-18T12:57:07.203Z</time></trkpt><trkpt lat="43.7838368" lon="11.4977819"><ele>458.5</ele><time>2026-04-18T12:57:08.202Z</time></trkpt><trkpt lat="43.7837794" lon="11.4976259"><ele>457.75</ele><time>2026-04-18T12:57:09.202Z</time></trkpt><trkpt lat="43.7837736" lon="11.4974509"><ele>457.0</ele><time>2026-04-18T12:57:10.203Z</time></trkpt><trkpt lat="43.7838103" lon="11.4972647"><ele>455.33333333333337</ele><time>2026-04-18T12:57:11.202Z</time></trkpt><trkpt lat="43.783896" lon="11.4970703"><ele>453.66666666666663</ele><time>2026-04-18T12:57:12.203Z</time></trkpt><trkpt lat="43.7839678" lon="11.496856"><ele>452.0</ele><time>2026-04-18T12:57:13.203Z</time></trkpt><trkpt lat="43.7840203" lon="11.4966129"><ele>452.0</ele><time>2026-04-18T12:57:14.203Z</time></trkpt><trkpt lat="43.7840427" lon="11.496354"><ele>452.0</ele><time>2026-04-18T12:57:15.203Z</time></trkpt><trkpt lat="43.784044" lon="11.4960657"><ele>452.0</ele><time>2026-04-18T12:57:16.202Z</time></trkpt><trkpt lat="43.7840123" lon="11.4957748"><ele>449.66666666666663</ele><time>2026-04-18T12:57:17.203Z</time></trkpt><trkpt lat="43.783956" lon="11.4954775"><ele>447.33333333333337</ele><time>2026-04-18T12:57:18.203Z</time></trkpt><trkpt lat="43.7838801" lon="11.4952048"><ele>445.0</ele><time>2026-04-18T12:57:19.202Z</time></trkpt><trkpt lat="43.7838063" lon="11.4949309"><ele>443.0</ele><time>2026-04-18T12:57:20.203Z</time></trkpt><trkpt lat="43.78376" lon="11.4946625"><ele>441.0</ele><time>2026-04-18T12:57:21.203Z</time></trkpt><trkpt lat="43.7837273" lon="11.494411"><ele>439.0</ele><time>2026-04-18T12:57:22.203Z</time></trkpt><trkpt lat="43.7836669" lon="11.4941794"><ele>437.6666666666667</ele><time>2026-04-18T12:57:23.203Z</time></trkpt><trkpt lat="43.7835703" lon="11.4939694"><ele>436.33333333333337</ele><time>2026-04-18T12:57:24.203Z</time></trkpt><trkpt lat="43.7834396" lon="11.4937842"><ele>435.0</ele><time>2026-04-18T12:57:25.203Z</time></trkpt><trkpt lat="43.7832884" lon="11.4936131"><ele>431.66666666666663</ele><time>2026-04-18T12:57:26.203Z</time></trkpt><trkpt lat="43.7831396" lon="11.493451"><ele>428.3333333333333</ele><time>2026-04-18T12:57:27.203Z</time></trkpt><trkpt lat="43.7830168" lon="11.4933116"><ele>425.0</ele><time>2026-04-18T12:57:28.203Z</time></trkpt><trkpt lat="43.7829095" lon="11.4931606"><ele>425.0</ele><time>2026-04-18T12:57:29.203Z</time></trkpt><trkpt lat="43.7828445" lon="11.4929859"><ele>425.0</ele><time>2026-04-18T12:57:30.203Z</time></trkpt><trkpt lat="43.7828143" lon="11.4927851"><ele>425.0</ele><time>2026-04-18T12:57:31.202Z</time></trkpt><trkpt lat="43.782823" lon="11.4925559"><ele>423.66666666666663</ele><time>2026-04-18T12:57:32.202Z</time></trkpt><trkpt lat="43.7828236" lon="11.492305"><ele>422.33333333333337</ele><time>2026-04-18T12:57:33.202Z</time></trkpt><trkpt lat="43.7828091" lon="11.4920392"><ele>421.0</ele><time>2026-04-18T12:57:34.203Z</time></trkpt><trkpt lat="43.7827738" lon="11.4917631"><ele>418.6666666666667</ele><time>2026-04-18T12:57:35.202Z</time></trkpt><trkpt lat="43.7827292" lon="11.4914727"><ele>416.33333333333337</ele><time>2026-04-18T12:57:36.202Z</time></trkpt><trkpt lat="43.7826777" lon="11.4911905"><ele>414.0</ele><time>2026-04-18T12:57:37.203Z</time></trkpt><trkpt lat="43.7826207" lon="11.4909203"><ele>409.33333333333337</ele><time>2026-04-18T12:57:38.202Z</time></trkpt><trkpt lat="43.7825402" lon="11.4906655"><ele>404.6666666666667</ele><time>2026-04-18T12:57:39.203Z</time></trkpt><trkpt lat="43.7824288" lon="11.4904338"><ele>400.0</ele><time>2026-04-18T12:57:40.203Z</time></trkpt><trkpt lat="43.7822816" lon="11.4902326"><ele>400.0</ele><time>2026-04-18T12:57:41.202Z</time></trkpt><trkpt lat="43.7821196" lon="11.4900621"><ele>400.0</ele><time>2026-04-18T12:57:42.203Z</time></trkpt><trkpt lat="43.7819486" lon="11.4899171"><ele>400.0</ele><time>2026-04-18T12:57:43.203Z</time></trkpt><trkpt lat="43.7817875" lon="11.4897802"><ele>400.0</ele><time>2026-04-18T12:57:44.203Z</time></trkpt><trkpt lat="43.7816331" lon="11.4896367"><ele>400.0</ele><time>2026-04-18T12:57:45.203Z</time></trkpt><trkpt lat="43.7814888" lon="11.4894991"><ele>400.0</ele><time>2026-04-18T12:57:46.203Z</time></trkpt><trkpt lat="43.7813602" lon="11.4893523"><ele>400.0</ele><time>2026-04-18T12:57:47.203Z</time></trkpt><trkpt lat="43.7812466" lon="11.4891697"><ele>400.0</ele><time>2026-04-18T12:57:48.202Z</time></trkpt><trkpt lat="43.7811559" lon="11.4889785"><ele>400.0</ele><time>2026-04-18T12:57:49.203Z</time></trkpt><trkpt lat="43.7810728" lon="11.4887861"><ele>397.6666666666667</ele><time>2026-04-18T12:57:50.202Z</time></trkpt><trkpt lat="43.7810176" lon="11.4885913"><ele>395.33333333333337</ele><time>2026-04-18T12:57:51.203Z</time></trkpt><trkpt lat="43.7809859" lon="11.488381"><ele>393.0</ele><time>2026-04-18T12:57:52.203Z</time></trkpt><trkpt lat="43.7809946" lon="11.4881583"><ele>390.33333333333337</ele><time>2026-04-18T12:57:53.202Z</time></trkpt><trkpt lat="43.781045" lon="11.4879232"><ele>387.6666666666667</ele><time>2026-04-18T12:57:54.203Z</time></trkpt><trkpt lat="43.7811057" lon="11.4876781"><ele>385.0</ele><time>2026-04-18T12:57:55.202Z</time></trkpt><trkpt lat="43.7811459" lon="11.487413"><ele>385.0</ele><time>2026-04-18T12:57:56.203Z</time></trkpt><trkpt lat="43.7811839" lon="11.4871367"><ele>385.0</ele><time>2026-04-18T12:57:57.203Z</time></trkpt><trkpt lat="43.7812071" lon="11.4868809"><ele>385.0</ele><time>2026-04-18T12:57:58.203Z</time></trkpt><trkpt lat="43.7812262" lon="11.4866297"><ele>382.6666666666667</ele><time>2026-04-18T12:57:59.203Z</time></trkpt><trkpt lat="43.7812402" lon="11.4863941"><ele>380.33333333333337</ele><time>2026-04-18T12:58:00.203Z</time></trkpt><trkpt lat="43.7812204" lon="11.4861515"><ele>378.0</ele><time>2026-04-18T12:58:01.203Z</time></trkpt><trkpt lat="43.78116" lon="11.4858988"><ele>377.3333333333333</ele><time>2026-04-18T12:58:02.202Z</time></trkpt><trkpt lat="43.7810763" lon="11.4856452"><ele>376.66666666666663</ele><time>2026-04-18T12:58:03.203Z</time></trkpt><trkpt lat="43.7809755" lon="11.4853911"><ele>376.0</ele><time>2026-04-18T12:58:04.203Z</time></trkpt><trkpt lat="43.7808819" lon="11.4851183"><ele>371.66666666666663</ele><time>2026-04-18T12:58:05.203Z</time></trkpt><trkpt lat="43.7807897" lon="11.4848664"><ele>367.3333333333333</ele><time>2026-04-18T12:58:06.203Z</time></trkpt><trkpt lat="43.7806987" lon="11.484618"><ele>363.0</ele><time>2026-04-18T12:58:07.202Z</time></trkpt><trkpt lat="43.7806147" lon="11.4843766"><ele>362.3333333333333</ele><time>2026-04-18T12:58:08.203Z</time></trkpt><trkpt lat="43.780544" lon="11.4841392"><ele>361.66666666666663</ele><time>2026-04-18T12:58:09.203Z</time></trkpt><trkpt lat="43.7804953" lon="11.4838908"><ele>361.0</ele><time>2026-04-18T12:58:10.203Z</time></trkpt><trkpt lat="43.7804694" lon="11.4836391"><ele>359.66666666666663</ele><time>2026-04-18T12:58:11.202Z</time></trkpt><trkpt lat="43.7804512" lon="11.4833886"><ele>358.3333333333333</ele><time>2026-04-18T12:58:12.203Z</time></trkpt><trkpt lat="43.7804073" lon="11.4831493"><ele>357.0</ele><time>2026-04-18T12:58:13.202Z</time></trkpt><trkpt lat="43.7803321" lon="11.4829034"><ele>355.6666666666667</ele><time>2026-04-18T12:58:14.203Z</time></trkpt><trkpt lat="43.7802281" lon="11.4826652"><ele>354.33333333333337</ele><time>2026-04-18T12:58:15.203Z</time></trkpt><trkpt lat="43.7801074" lon="11.4824288"><ele>353.0</ele><time>2026-04-18T12:58:16.203Z</time></trkpt><trkpt lat="43.7799792" lon="11.4821984"><ele>349.33333333333337</ele><time>2026-04-18T12:58:17.202Z</time></trkpt><trkpt lat="43.7798562" lon="11.4819803"><ele>345.6666666666667</ele><time>2026-04-18T12:58:18.202Z</time></trkpt><trkpt lat="43.7797365" lon="11.4817672"><ele>342.0</ele><time>2026-04-18T12:58:19.202Z</time></trkpt><trkpt lat="43.7796208" lon="11.4815676"><ele>342.0</ele><time>2026-04-18T12:58:20.202Z</time></trkpt><trkpt lat="43.7794987" lon="11.4813857"><ele>342.0</ele><time>2026-04-18T12:58:21.203Z</time></trkpt><trkpt lat="43.7793622" lon="11.4812521"><ele>342.0</ele><time>2026-04-18T12:58:22.203Z</time></trkpt><trkpt lat="43.7792202" lon="11.4811427"><ele>339.6666666666667</ele><time>2026-04-18T12:58:23.203Z</time></trkpt><trkpt lat="43.7790795" lon="11.4810562"><ele>337.33333333333337</ele><time>2026-04-18T12:58:24.203Z</time></trkpt><trkpt lat="43.7789425" lon="11.4809716"><ele>335.0</ele><time>2026-04-18T12:58:25.202Z</time></trkpt><trkpt lat="43.77881" lon="11.480862"><ele>335.0</ele><time>2026-04-18T12:58:26.202Z</time></trkpt><trkpt lat="43.7786789" lon="11.4807438"><ele>335.0</ele><time>2026-04-18T12:58:27.203Z</time></trkpt><trkpt lat="43.7785544" lon="11.4805924"><ele>335.0</ele><time>2026-04-18T12:58:28.202Z</time></trkpt><trkpt lat="43.7784417" lon="11.4804172"><ele>331.6666666666667</ele><time>2026-04-18T12:58:29.203Z</time></trkpt><trkpt lat="43.778335" lon="11.4802325"><ele>328.3333333333333</ele><time>2026-04-18T12:58:30.202Z</time></trkpt><trkpt lat="43.7782333" lon="11.4800437"><ele>325.0</ele><time>2026-04-18T12:58:31.203Z</time></trkpt><trkpt lat="43.7781362" lon="11.4798605"><ele>325.0</ele><time>2026-04-18T12:58:32.203Z</time></trkpt><trkpt lat="43.7780541" lon="11.4796851"><ele>325.0</ele><time>2026-04-18T12:58:33.203Z</time></trkpt><trkpt lat="43.7779687" lon="11.4795283"><ele>325.0</ele><time>2026-04-18T12:58:34.203Z</time></trkpt><trkpt lat="43.7778903" lon="11.4794054"><ele>325.0</ele><time>2026-04-18T12:58:35.203Z</time></trkpt><trkpt lat="43.77781" lon="11.4793192"><ele>326.5</ele><time>2026-04-18T12:58:36.203Z</time></trkpt><trkpt lat="43.7776934" lon="11.4792618"><ele>328.0</ele><time>2026-04-18T12:58:37.202Z</time></trkpt><trkpt lat="43.7775455" lon="11.4792206"><ele>329.5</ele><time>2026-04-18T12:58:38.203Z</time></trkpt><trkpt lat="43.7773769" lon="11.4791777"><ele>331.0</ele><time>2026-04-18T12:58:39.203Z</time></trkpt><trkpt lat="43.7771924" lon="11.4791262"><ele>326.3333333333333</ele><time>2026-04-18T12:58:40.203Z</time></trkpt><trkpt lat="43.7770089" lon="11.4790747"><ele>321.6666666666667</ele><time>2026-04-18T12:58:41.203Z</time></trkpt><trkpt lat="43.7768444" lon="11.4790322"><ele>317.0</ele><time>2026-04-18T12:58:42.203Z</time></trkpt><trkpt lat="43.7767064" lon="11.478987"><ele>315.0</ele><time>2026-04-18T12:58:43.203Z</time></trkpt><trkpt lat="43.7765885" lon="11.4789082"><ele>313.0</ele><time>2026-04-18T12:58:44.203Z</time></trkpt><trkpt lat="43.7764999" lon="11.4787754"><ele>311.0</ele><time>2026-04-18T12:58:45.202Z</time></trkpt><trkpt lat="43.7764386" lon="11.4785868"><ele>309.0</ele><time>2026-04-18T12:58:46.202Z</time></trkpt><trkpt lat="43.7763971" lon="11.4783762"><ele>309.0</ele><time>2026-04-18T12:58:47.203Z</time></trkpt><trkpt lat="43.7763408" lon="11.4781502"><ele>309.0</ele><time>2026-04-18T12:58:48.203Z</time></trkpt><trkpt lat="43.7762611" lon="11.4779225"><ele>309.0</ele><time>2026-04-18T12:58:49.203Z</time></trkpt><trkpt lat="43.7761496" lon="11.4777033"><ele>309.0</ele><time>2026-04-18T12:58:50.203Z</time></trkpt><trkpt lat="43.7760205" lon="11.4775024"><ele>309.0</ele><time>2026-04-18T12:58:51.203Z</time></trkpt><trkpt lat="43.7758708" lon="11.477313"><ele>309.0</ele><time>2026-04-18T12:58:52.203Z</time></trkpt><trkpt lat="43.775705" lon="11.4771549"><ele>305.0</ele><time>2026-04-18T12:58:53.202Z</time></trkpt><trkpt lat="43.7755199" lon="11.4770186"><ele>301.0</ele><time>2026-04-18T12:58:54.203Z</time></trkpt><trkpt lat="43.775314" lon="11.4768999"><ele>297.0</ele><time>2026-04-18T12:58:55.202Z</time></trkpt><trkpt lat="43.7751004" lon="11.4767837"><ele>293.0</ele><time>2026-04-18T12:58:56.202Z</time></trkpt><trkpt lat="43.7748809" lon="11.4766443"><ele>289.0</ele><time>2026-04-18T12:58:57.203Z</time></trkpt><trkpt lat="43.7746825" lon="11.4765078"><ele>289.0</ele><time>2026-04-18T12:58:58.203Z</time></trkpt><trkpt lat="43.77449" lon="11.476362"><ele>289.0</ele><time>2026-04-18T12:58:59.203Z</time></trkpt><trkpt lat="43.7743272" lon="11.4762075"><ele>289.0</ele><time>2026-04-18T12:59:00.203Z</time></trkpt><trkpt lat="43.7741736" lon="11.4760373"><ele>287.3333333333333</ele><time>2026-04-18T12:59:01.203Z</time></trkpt><trkpt lat="43.7740225" lon="11.4758639"><ele>285.6666666666667</ele><time>2026-04-18T12:59:02.203Z</time></trkpt><trkpt lat="43.7738673" lon="11.475688"><ele>284.0</ele><time>2026-04-18T12:59:03.203Z</time></trkpt><trkpt lat="43.7737149" lon="11.4755127"><ele>283.6666666666667</ele><time>2026-04-18T12:59:04.203Z</time></trkpt><trkpt lat="43.7735803" lon="11.4753369"><ele>283.3333333333333</ele><time>2026-04-18T12:59:05.202Z</time></trkpt><trkpt lat="43.773476" lon="11.4751407"><ele>283.0</ele><time>2026-04-18T12:59:06.202Z</time></trkpt><trkpt lat="43.7734113" lon="11.4749108"><ele>280.3333333333333</ele><time>2026-04-18T12:59:07.202Z</time></trkpt><trkpt lat="43.7733589" lon="11.474663"><ele>277.6666666666667</ele><time>2026-04-18T12:59:08.203Z</time></trkpt><trkpt lat="43.7733036" lon="11.4744191"><ele>275.0</ele><time>2026-04-18T12:59:09.202Z</time></trkpt><trkpt lat="43.7732564" lon="11.4741845"><ele>274.33333333333337</ele><time>2026-04-18T12:59:10.203Z</time></trkpt><trkpt lat="43.7732109" lon="11.4739619"><ele>273.6666666666667</ele><time>2026-04-18T12:59:11.202Z</time></trkpt><trkpt lat="43.7731474" lon="11.4737541"><ele>273.0</ele><time>2026-04-18T12:59:12.202Z</time></trkpt><trkpt lat="43.7730475" lon="11.4735641"><ele>272.6666666666667</ele><time>2026-04-18T12:59:13.203Z</time></trkpt><trkpt lat="43.7729131" lon="11.4733814"><ele>272.33333333333337</ele><time>2026-04-18T12:59:14.203Z</time></trkpt><trkpt lat="43.7727567" lon="11.4732065"><ele>272.0</ele><time>2026-04-18T12:59:15.202Z</time></trkpt><trkpt lat="43.7726034" lon="11.4730352"><ele>269.6666666666667</ele><time>2026-04-18T12:59:16.202Z</time></trkpt><trkpt lat="43.7724527" lon="11.4728723"><ele>267.3333333333333</ele><time>2026-04-18T12:59:17.203Z</time></trkpt><trkpt lat="43.772301" lon="11.4727384"><ele>265.0</ele><time>2026-04-18T12:59:18.202Z</time></trkpt><trkpt lat="43.7721397" lon="11.4726406"><ele>265.0</ele><time>2026-04-18T12:59:19.203Z</time></trkpt><trkpt lat="43.7719628" lon="11.4725906"><ele>265.0</ele><time>2026-04-18T12:59:20.202Z</time></trkpt><trkpt lat="43.7717921" lon="11.4725812"><ele>265.0</ele><time>2026-04-18T12:59:21.203Z</time></trkpt><trkpt lat="43.7716171" lon="11.4726142"><ele>261.66666666666663</ele><time>2026-04-18T12:59:22.202Z</time></trkpt><trkpt lat="43.7714523" lon="11.4726688"><ele>258.3333333333333</ele><time>2026-04-18T12:59:23.203Z</time></trkpt><trkpt lat="43.7712966" lon="11.4727178"><ele>255.0</ele><time>2026-04-18T12:59:24.203Z</time></trkpt><trkpt lat="43.7711541" lon="11.472742"><ele>255.0</ele><time>2026-04-18T12:59:25.203Z</time></trkpt><trkpt lat="43.7710451" lon="11.4726777"><ele>255.0</ele><time>2026-04-18T12:59:26.203Z</time></trkpt><trkpt lat="43.7709415" lon="11.4725684"><ele>255.0</ele><time>2026-04-18T12:59:27.203Z</time></trkpt><trkpt lat="43.7708472" lon="11.4724343"><ele>255.0</ele><time>2026-04-18T12:59:28.202Z</time></trkpt><trkpt lat="43.7707323" lon="11.4723045"><ele>253.0</ele><time>2026-04-18T12:59:29.203Z</time></trkpt><trkpt lat="43.7706013" lon="11.4721935"><ele>251.0</ele><time>2026-04-18T12:59:30.203Z</time></trkpt><trkpt lat="43.7704726" lon="11.472111"><ele>249.0</ele><time>2026-04-18T12:59:31.203Z</time></trkpt><trkpt lat="43.7703484" lon="11.4720417"><ele>247.0</ele><time>2026-04-18T12:59:32.203Z</time></trkpt><trkpt lat="43.7702262" lon="11.4719732"><ele>244.5</ele><time>2026-04-18T12:59:33.203Z</time></trkpt><trkpt lat="43.7701122" lon="11.4718988"><ele>242.0</ele><time>2026-04-18T12:59:34.202Z</time></trkpt><trkpt lat="43.7700012" lon="11.4718288"><ele>239.5</ele><time>2026-04-18T12:59:35.203Z</time></trkpt><trkpt lat="43.7699082" lon="11.4717292"><ele>237.0</ele><time>2026-04-18T12:59:36.203Z</time></trkpt><trkpt lat="43.7698216" lon="11.4716239"><ele>237.0</ele><time>2026-04-18T12:59:37.203Z</time></trkpt><trkpt lat="43.7697339" lon="11.4715212"><ele>237.0</ele><time>2026-04-18T12:59:38.203Z</time></trkpt><trkpt lat="43.7696511" lon="11.4714205"><ele>237.0</ele><time>2026-04-18T12:59:39.203Z</time></trkpt><trkpt lat="43.7695798" lon="11.4713145"><ele>237.0</ele><time>2026-04-18T12:59:40.202Z</time></trkpt><trkpt lat="43.7695199" lon="11.4712243"><ele>237.0</ele><time>2026-04-18T12:59:41.203Z</time></trkpt><trkpt lat="43.769482" lon="11.4711123"><ele>236.16666666666666</ele><time>2026-04-18T12:59:42.203Z</time></trkpt><trkpt lat="43.7694721" lon="11.4709934"><ele>235.33333333333331</ele><time>2026-04-18T12:59:43.203Z</time></trkpt><trkpt lat="43.7694906" lon="11.4708856"><ele>234.5</ele><time>2026-04-18T12:59:44.203Z</time></trkpt><trkpt lat="43.7695336" lon="11.4707897"><ele>233.66666666666666</ele><time>2026-04-18T12:59:45.202Z</time></trkpt><trkpt lat="43.7696147" lon="11.4707293"><ele>232.83333333333331</ele><time>2026-04-18T12:59:46.202Z</time></trkpt><trkpt lat="43.769703" lon="11.4707035"><ele>232.0</ele><time>2026-04-18T12:59:47.203Z</time></trkpt><trkpt lat="43.769795" lon="11.4706974"><ele>232.0</ele><time>2026-04-18T12:59:48.203Z</time></trkpt><trkpt lat="43.769896" lon="11.4707111"><ele>232.0</ele><time>2026-04-18T12:59:49.202Z</time></trkpt><trkpt lat="43.7700011" lon="11.4707127"><ele>232.0</ele><time>2026-04-18T12:59:50.203Z</time></trkpt><trkpt lat="43.7701079" lon="11.4707038"><ele>232.0</ele><time>2026-04-18T12:59:51.203Z</time></trkpt><trkpt lat="43.7702112" lon="11.4706727"><ele>232.0</ele><time>2026-04-18T12:59:52.203Z</time></trkpt><trkpt lat="43.770311" lon="11.4706112"><ele>230.75</ele><time>2026-04-18T12:59:53.202Z</time></trkpt><trkpt lat="43.7703895" lon="11.4705101"><ele>229.5</ele><time>2026-04-18T12:59:54.203Z</time></trkpt><trkpt lat="43.7704487" lon="11.4703704"><ele>228.25</ele><time>2026-04-18T12:59:55.203Z</time></trkpt><trkpt lat="43.7704723" lon="11.4702168"><ele>227.0</ele><time>2026-04-18T12:59:56.203Z</time></trkpt><trkpt lat="43.7704751" lon="11.470059"><ele>227.0</ele><time>2026-04-18T12:59:57.202Z</time></trkpt><trkpt lat="43.7704737" lon="11.4698995"><ele>227.0</ele><time>2026-04-18T12:59:58.203Z</time></trkpt><trkpt lat="43.7704679" lon="11.4697236"><ele>227.0</ele><time>2026-04-18T12:59:59.203Z</time></trkpt><trkpt lat="43.7704578" lon="11.4695088"><ele>227.0</ele><time>2026-04-18T13:00:00.203Z</time></trkpt><trkpt lat="43.7704409" lon="11.469283"><ele>224.66666666666669</ele><time>2026-04-18T13:00:01.203Z</time></trkpt><trkpt lat="43.7704123" lon="11.4690394"><ele>222.33333333333331</ele><time>2026-04-18T13:00:02.202Z</time></trkpt><trkpt lat="43.7703947" lon="11.4687873"><ele>220.0</ele><time>2026-04-18T13:00:03.202Z</time></trkpt><trkpt lat="43.7703777" lon="11.4685348"><ele>217.33333333333331</ele><time>2026-04-18T13:00:04.203Z</time></trkpt><trkpt lat="43.770367" lon="11.4682885"><ele>214.66666666666669</ele><time>2026-04-18T13:00:05.203Z</time></trkpt><trkpt lat="43.7703518" lon="11.468061"><ele>212.0</ele><time>2026-04-18T13:00:06.203Z</time></trkpt><trkpt lat="43.7703377" lon="11.4678423"><ele>210.33333333333334</ele><time>2026-04-18T13:00:07.203Z</time></trkpt><trkpt lat="43.7703282" lon="11.4676267"><ele>208.66666666666669</ele><time>2026-04-18T13:00:08.203Z</time></trkpt><trkpt lat="43.7703239" lon="11.4674209"><ele>207.0</ele><time>2026-04-18T13:00:09.203Z</time></trkpt><trkpt lat="43.7703263" lon="11.4672163"><ele>206.33333333333331</ele><time>2026-04-18T13:00:10.203Z</time></trkpt><trkpt lat="43.7703274" lon="11.4670026"><ele>205.66666666666666</ele><time>2026-04-18T13:00:11.203Z</time></trkpt><trkpt lat="43.7703267" lon="11.4667902"><ele>205.0</ele><time>2026-04-18T13:00:12.203Z</time></trkpt><trkpt lat="43.7703353" lon="11.4665876"><ele>205.0</ele><time>2026-04-18T13:00:13.203Z</time></trkpt><trkpt lat="43.7703459" lon="11.4663978"><ele>205.0</ele><time>2026-04-18T13:00:14.203Z</time></trkpt><trkpt lat="43.770357" lon="11.4662329"><ele>205.0</ele><time>2026-04-18T13:00:15.203Z</time></trkpt><trkpt lat="43.7703829" lon="11.4660819"><ele>205.0</ele><time>2026-04-18T13:00:16.202Z</time></trkpt><trkpt lat="43.7704222" lon="11.4659604"><ele>203.8</ele><time>2026-04-18T13:00:17.203Z</time></trkpt><trkpt lat="43.7704559" lon="11.4658513"><ele>202.6</ele><time>2026-04-18T13:00:18.202Z</time></trkpt><trkpt lat="43.7704566" lon="11.4657242"><ele>201.39999999999998</ele><time>2026-04-18T13:00:19.202Z</time></trkpt><trkpt lat="43.7704595" lon="11.4655933"><ele>200.2</ele><time>2026-04-18T13:00:20.202Z</time></trkpt><trkpt lat="43.7704851" lon="11.4654301"><ele>199.0</ele><time>2026-04-18T13:00:21.202Z</time></trkpt><trkpt lat="43.7705294" lon="11.4652477"><ele>198.5</ele><time>2026-04-18T13:00:22.203Z</time></trkpt><trkpt lat="43.7705834" lon="11.4650715"><ele>198.0</ele><time>2026-04-18T13:00:23.202Z</time></trkpt><trkpt lat="43.7706382" lon="11.4648941"><ele>197.5</ele><time>2026-04-18T13:00:24.202Z</time></trkpt><trkpt lat="43.7706894" lon="11.4647198"><ele>197.0</ele><time>2026-04-18T13:00:25.202Z</time></trkpt><trkpt lat="43.77073" lon="11.4645441"><ele>195.33333333333334</ele><time>2026-04-18T13:00:26.203Z</time></trkpt><trkpt lat="43.7707571" lon="11.4643551"><ele>193.66666666666669</ele><time>2026-04-18T13:00:27.202Z</time></trkpt><trkpt lat="43.7707594" lon="11.4641448"><ele>192.0</ele><time>2026-04-18T13:00:28.203Z</time></trkpt><trkpt lat="43.7707559" lon="11.4639227"><ele>190.66666666666666</ele><time>2026-04-18T13:00:29.202Z</time></trkpt><trkpt lat="43.770768" lon="11.4636733"><ele>189.33333333333331</ele><time>2026-04-18T13:00:30.202Z</time></trkpt><trkpt lat="43.7707667" lon="11.4634359"><ele>188.0</ele><time>2026-04-18T13:00:31.203Z</time></trkpt><trkpt lat="43.7707578" lon="11.4632151"><ele>188.0</ele><time>2026-04-18T13:00:32.203Z</time></trkpt><trkpt lat="43.7707465" lon="11.4629922"><ele>188.0</ele><time>2026-04-18T13:00:33.203Z</time></trkpt><trkpt lat="43.7707277" lon="11.4627853"><ele>188.0</ele><time>2026-04-18T13:00:34.202Z</time></trkpt><trkpt lat="43.7707134" lon="11.4625901"><ele>186.5</ele><time>2026-04-18T13:00:35.202Z</time></trkpt><trkpt lat="43.770705" lon="11.4624094"><ele>185.0</ele><time>2026-04-18T13:00:36.202Z</time></trkpt><trkpt lat="43.7707043" lon="11.4622471"><ele>183.5</ele><time>2026-04-18T13:00:37.203Z</time></trkpt><trkpt lat="43.7707325" lon="11.4621079"><ele>182.0</ele><time>2026-04-18T13:00:38.203Z</time></trkpt><trkpt lat="43.7707938" lon="11.4620002"><ele>181.5</ele><time>2026-04-18T13:00:39.202Z</time></trkpt><trkpt lat="43.7708991" lon="11.4619153"><ele>181.0</ele><time>2026-04-18T13:00:40.203Z</time></trkpt><trkpt lat="43.7710274" lon="11.4618244"><ele>180.5</ele><time>2026-04-18T13:00:41.202Z</time></trkpt><trkpt lat="43.7711599" lon="11.4617287"><ele>180.0</ele><time>2026-04-18T13:00:42.203Z</time></trkpt><trkpt lat="43.7713102" lon="11.4616419"><ele>180.0</ele><time>2026-04-18T13:00:43.202Z</time></trkpt><trkpt lat="43.7714728" lon="11.4615482"><ele>180.0</ele><time>2026-04-18T13:00:44.202Z</time></trkpt><trkpt lat="43.7716483" lon="11.4614668"><ele>180.0</ele><time>2026-04-18T13:00:45.202Z</time></trkpt><trkpt lat="43.7718262" lon="11.4613934"><ele>181.0</ele><time>2026-04-18T13:00:46.203Z</time></trkpt><trkpt lat="43.7719978" lon="11.4613321"><ele>182.0</ele><time>2026-04-18T13:00:47.203Z</time></trkpt><trkpt lat="43.7721599" lon="11.4612775"><ele>183.0</ele><time>2026-04-18T13:00:48.203Z</time></trkpt><trkpt lat="43.7723028" lon="11.4612135"><ele>177.5</ele><time>2026-04-18T13:00:49.203Z</time></trkpt><trkpt lat="43.7724243" lon="11.4611232"><ele>172.0</ele><time>2026-04-18T13:00:50.202Z</time></trkpt><trkpt lat="43.7725241" lon="11.4609975"><ele>166.5</ele><time>2026-04-18T13:00:51.203Z</time></trkpt><trkpt lat="43.7725977" lon="11.4608314"><ele>161.0</ele><time>2026-04-18T13:00:52.203Z</time></trkpt><trkpt lat="43.772652" lon="11.4606433"><ele>163.5</ele><time>2026-04-18T13:00:53.202Z</time></trkpt><trkpt lat="43.7726994" lon="11.4604569"><ele>166.0</ele><time>2026-04-18T13:00:54.203Z</time></trkpt><trkpt lat="43.7727544" lon="11.4602781"><ele>168.5</ele><time>2026-04-18T13:00:55.203Z</time></trkpt><trkpt lat="43.7728203" lon="11.4601161"><ele>171.0</ele><time>2026-04-18T13:00:56.203Z</time></trkpt><trkpt lat="43.7728921" lon="11.4599561"><ele>171.0</ele><time>2026-04-18T13:00:57.203Z</time></trkpt><trkpt lat="43.772933" lon="11.4597953"><ele>171.0</ele><time>2026-04-18T13:00:58.203Z</time></trkpt><trkpt lat="43.7729384" lon="11.4596243"><ele>171.0</ele><time>2026-04-18T13:00:59.203Z</time></trkpt><trkpt lat="43.7729284" lon="11.4594504"><ele>171.0</ele><time>2026-04-18T13:01:00.202Z</time></trkpt><trkpt lat="43.7729292" lon="11.4592841"><ele>170.0</ele><time>2026-04-18T13:01:01.202Z</time></trkpt><trkpt lat="43.7729344" lon="11.4591225"><ele>169.0</ele><time>2026-04-18T13:01:02.203Z</time></trkpt><trkpt lat="43.7729522" lon="11.4589679"><ele>168.0</ele><time>2026-04-18T13:01:03.203Z</time></trkpt><trkpt lat="43.7729825" lon="11.4588037"><ele>167.0</ele><time>2026-04-18T13:01:04.203Z</time></trkpt><trkpt lat="43.7730185" lon="11.4586453"><ele>165.75</ele><time>2026-04-18T13:01:05.203Z</time></trkpt><trkpt lat="43.7730613" lon="11.458482"><ele>164.5</ele><time>2026-04-18T13:01:06.203Z</time></trkpt><trkpt lat="43.7730776" lon="11.4583203"><ele>163.25</ele><time>2026-04-18T13:01:07.202Z</time></trkpt><trkpt lat="43.7730604" lon="11.4581621"><ele>162.0</ele><time>2026-04-18T13:01:08.203Z</time></trkpt><trkpt lat="43.7730201" lon="11.4580184"><ele>162.25</ele><time>2026-04-18T13:01:09.203Z</time></trkpt><trkpt lat="43.7729684" lon="11.4578801"><ele>162.5</ele><time>2026-04-18T13:01:10.202Z</time></trkpt><trkpt lat="43.7729064" lon="11.4577385"><ele>162.75</ele><time>2026-04-18T13:01:11.202Z</time></trkpt><trkpt lat="43.7728431" lon="11.4575929"><ele>163.0</ele><time>2026-04-18T13:01:12.202Z</time></trkpt><trkpt lat="43.7727802" lon="11.4574435"><ele>163.0</ele><time>2026-04-18T13:01:13.202Z</time></trkpt><trkpt lat="43.772722" lon="11.4572877"><ele>163.0</ele><time>2026-04-18T13:01:14.203Z</time></trkpt><trkpt lat="43.7726806" lon="11.4571221"><ele>163.0</ele><time>2026-04-18T13:01:15.203Z</time></trkpt><trkpt lat="43.772656" lon="11.4569516"><ele>163.0</ele><time>2026-04-18T13:01:16.203Z</time></trkpt><trkpt lat="43.7726387" lon="11.4567811"><ele>154.5</ele><time>2026-04-18T13:01:17.203Z</time></trkpt><trkpt lat="43.7726227" lon="11.4566086"><ele>146.0</ele><time>2026-04-18T13:01:18.203Z</time></trkpt><trkpt lat="43.772605" lon="11.45644"><ele>137.5</ele><time>2026-04-18T13:01:19.203Z</time></trkpt><trkpt lat="43.7725904" lon="11.456265"><ele>129.0</ele><time>2026-04-18T13:01:20.203Z</time></trkpt><trkpt lat="43.7725775" lon="11.4560981"><ele>128.6</ele><time>2026-04-18T13:01:21.202Z</time></trkpt><trkpt lat="43.7725653" lon="11.4559406"><ele>128.2</ele><time>2026-04-18T13:01:22.203Z</time></trkpt><trkpt lat="43.772565" lon="11.4557882"><ele>127.79999999999998</ele><time>2026-04-18T13:01:23.203Z</time></trkpt><trkpt lat="43.7725784" lon="11.4556475"><ele>127.39999999999999</ele><time>2026-04-18T13:01:24.203Z</time></trkpt><trkpt lat="43.7726063" lon="11.455517"><ele>127.0</ele><time>2026-04-18T13:01:25.202Z</time></trkpt><trkpt lat="43.7726515" lon="11.4553993"><ele>129.2</ele><time>2026-04-18T13:01:26.203Z</time></trkpt><trkpt lat="43.772703" lon="11.4552849"><ele>131.39999999999998</ele><time>2026-04-18T13:01:27.203Z</time></trkpt><trkpt lat="43.772758" lon="11.4551638"><ele>133.60000000000002</ele><time>2026-04-18T13:01:28.203Z</time></trkpt><trkpt lat="43.7728156" lon="11.455041"><ele>135.8</ele><time>2026-04-18T13:01:29.203Z</time></trkpt><trkpt lat="43.7728711" lon="11.4549193"><ele>138.0</ele><time>2026-04-18T13:01:30.203Z</time></trkpt><trkpt lat="43.7729297" lon="11.4547894"><ele>138.0</ele><time>2026-04-18T13:01:31.203Z</time></trkpt><trkpt lat="43.7729783" lon="11.4546647"><ele>138.0</ele><time>2026-04-18T13:01:32.202Z</time></trkpt><trkpt lat="43.7730278" lon="11.454544"><ele>138.0</ele><time>2026-04-18T13:01:33.203Z</time></trkpt><trkpt lat="43.773079" lon="11.4543857"><ele>138.0</ele><time>2026-04-18T13:01:34.203Z</time></trkpt><trkpt lat="43.7731144" lon="11.4542"><ele>134.33333333333334</ele><time>2026-04-18T13:01:35.203Z</time></trkpt><trkpt lat="43.773156" lon="11.4539907"><ele>130.66666666666669</ele><time>2026-04-18T13:01:36.203Z</time></trkpt><trkpt lat="43.7732093" lon="11.4537601"><ele>127.0</ele><time>2026-04-18T13:01:37.203Z</time></trkpt><trkpt lat="43.7732674" lon="11.453507"><ele>128.33333333333334</ele><time>2026-04-18T13:01:38.203Z</time></trkpt><trkpt lat="43.773342" lon="11.4532496"><ele>129.66666666666666</ele><time>2026-04-18T13:01:39.203Z</time></trkpt><trkpt lat="43.7734293" lon="11.4530035"><ele>131.0</ele><time>2026-04-18T13:01:40.203Z</time></trkpt><trkpt lat="43.7735247" lon="11.4527723"><ele>131.0</ele><time>2026-04-18T13:01:41.203Z</time></trkpt><trkpt lat="43.7736274" lon="11.4525512"><ele>131.0</ele><time>2026-04-18T13:01:42.203Z</time></trkpt><trkpt lat="43.7737162" lon="11.452345"><ele>131.0</ele><time>2026-04-18T13:01:43.203Z</time></trkpt><trkpt lat="43.7737937" lon="11.4521561"><ele>127.4</ele><time>2026-04-18T13:01:44.203Z</time></trkpt><trkpt lat="43.7738583" lon="11.4519888"><ele>123.8</ele><time>2026-04-18T13:01:45.203Z</time></trkpt><trkpt lat="43.7739146" lon="11.4518493"><ele>120.20000000000002</ele><time>2026-04-18T13:01:46.203Z</time></trkpt><trkpt lat="43.7739507" lon="11.4517209"><ele>116.60000000000001</ele><time>2026-04-18T13:01:47.203Z</time></trkpt><trkpt lat="43.7739546" lon="11.4515992"><ele>113.0</ele><time>2026-04-18T13:01:48.203Z</time></trkpt><trkpt lat="43.7739186" lon="11.4515045"><ele>113.0</ele><time>2026-04-18T13:01:49.202Z</time></trkpt><trkpt lat="43.7738562" lon="11.4514312"><ele>113.00000000000001</ele><time>2026-04-18T13:01:50.202Z</time></trkpt><trkpt lat="43.7737866" lon="11.4513348"><ele>113.00000000000001</ele><time>2026-04-18T13:01:51.203Z</time></trkpt><trkpt lat="43.7737358" lon="11.4512012"><ele>113.0</ele><time>2026-04-18T13:01:52.203Z</time></trkpt><trkpt lat="43.7737145" lon="11.4510318"><ele>113.0</ele><time>2026-04-18T13:01:53.203Z</time></trkpt><trkpt lat="43.7737142" lon="11.4508299"><ele>110.5</ele><time>2026-04-18T13:01:54.203Z</time></trkpt><trkpt lat="43.7737141" lon="11.4506415"><ele>108.0</ele><time>2026-04-18T13:01:55.203Z</time></trkpt><trkpt lat="43.7736914" lon="11.4504492"><ele>105.5</ele><time>2026-04-18T13:01:56.203Z</time></trkpt><trkpt lat="43.7736533" lon="11.4502837"><ele>103.0</ele><time>2026-04-18T13:01:57.202Z</time></trkpt><trkpt lat="43.7736024" lon="11.4501213"><ele>102.0</ele><time>2026-04-18T13:01:58.203Z</time></trkpt><trkpt lat="43.773533" lon="11.4499667"><ele>101.0</ele><time>2026-04-18T13:01:59.202Z</time></trkpt><trkpt lat="43.7734438" lon="11.4498278"><ele>100.0</ele><time>2026-04-18T13:02:00.203Z</time></trkpt><trkpt lat="43.7733333" lon="11.4497074"><ele>99.0</ele><time>2026-04-18T13:02:01.203Z</time></trkpt><trkpt lat="43.7732191" lon="11.449611"><ele>97.25</ele><time>2026-04-18T13:02:02.203Z</time></trkpt><trkpt lat="43.7730957" lon="11.449538"><ele>95.5</ele><time>2026-04-18T13:02:03.202Z</time></trkpt><trkpt lat="43.7729562" lon="11.449471"><ele>93.75</ele><time>2026-04-18T13:02:04.202Z</time></trkpt><trkpt lat="43.7728248" lon="11.4494104"><ele>92.0</ele><time>2026-04-18T13:02:05.202Z</time></trkpt><trkpt lat="43.7726941" lon="11.4493263"><ele>90.66666666666667</ele><time>2026-04-18T13:02:06.203Z</time></trkpt><trkpt lat="43.7725689" lon="11.4492168"><ele>89.33333333333333</ele><time>2026-04-18T13:02:07.203Z</time></trkpt><trkpt lat="43.7724507" lon="11.4490735"><ele>88.0</ele><time>2026-04-18T13:02:08.202Z</time></trkpt><trkpt lat="43.7723243" lon="11.4489067"><ele>87.0</ele><time>2026-04-18T13:02:09.203Z</time></trkpt><trkpt lat="43.7721951" lon="11.4487076"><ele>86.0</ele><time>2026-04-18T13:02:10.202Z</time></trkpt><trkpt lat="43.772073" lon="11.4484685"><ele>85.0</ele><time>2026-04-18T13:02:11.203Z</time></trkpt><trkpt lat="43.7719561" lon="11.4481953"><ele>84.5</ele><time>2026-04-18T13:02:12.203Z</time></trkpt><trkpt lat="43.7718462" lon="11.4479"><ele>84.0</ele><time>2026-04-18T13:02:13.203Z</time></trkpt><trkpt lat="43.7717501" lon="11.4475803"><ele>84.0</ele><time>2026-04-18T13:02:14.203Z</time></trkpt><trkpt lat="43.7716657" lon="11.4472435"><ele>84.0</ele><time>2026-04-18T13:02:15.202Z</time></trkpt><trkpt lat="43.7715984" lon="11.4468851"><ele>84.0</ele><time>2026-04-18T13:02:16.202Z</time></trkpt><trkpt lat="43.7715452" lon="11.4465202"><ele>84.0</ele><time>2026-04-18T13:02:17.202Z</time></trkpt><trkpt lat="43.7715029" lon="11.4461458"><ele>83.5</ele><time>2026-04-18T13:02:18.203Z</time></trkpt><trkpt lat="43.7714723" lon="11.4457539"><ele>83.0</ele><time>2026-04-18T13:02:19.203Z</time></trkpt><trkpt lat="43.7714488" lon="11.4453583"><ele>83.0</ele><time>2026-04-18T13:02:20.203Z</time></trkpt><trkpt lat="43.7714142" lon="11.4449567"><ele>83.0</ele><time>2026-04-18T13:02:21.203Z</time></trkpt><trkpt lat="43.7713854" lon="11.4445438"><ele>83.0</ele><time>2026-04-18T13:02:22.203Z</time></trkpt><trkpt lat="43.7713525" lon="11.4441284"><ele>83.0</ele><time>2026-04-18T13:02:23.202Z</time></trkpt><trkpt lat="43.7713188" lon="11.4437135"><ele>82.0</ele><time>2026-04-18T13:02:24.203Z</time></trkpt><trkpt lat="43.7712844" lon="11.4432986"><ele>81.0</ele><time>2026-04-18T13:02:25.203Z</time></trkpt><trkpt lat="43.7712513" lon="11.4428876"><ele>80.5</ele><time>2026-04-18T13:02:26.203Z</time></trkpt><trkpt lat="43.771197" lon="11.442498"><ele>80.0</ele><time>2026-04-18T13:02:27.203Z</time></trkpt><trkpt lat="43.7711432" lon="11.4421282"><ele>80.0</ele><time>2026-04-18T13:02:28.203Z</time></trkpt><trkpt lat="43.7710778" lon="11.4417651"><ele>80.0</ele><time>2026-04-18T13:02:29.203Z</time></trkpt><trkpt lat="43.7709989" lon="11.4414315"><ele>80.0</ele><time>2026-04-18T13:02:30.202Z</time></trkpt><trkpt lat="43.7709084" lon="11.4411188"><ele>80.0</ele><time>2026-04-18T13:02:31.203Z</time></trkpt><trkpt lat="43.7708064" lon="11.440819"><ele>80.0</ele><time>2026-04-18T13:02:32.202Z</time></trkpt><trkpt lat="43.770706" lon="11.4405282"><ele>80.0</ele><time>2026-04-18T13:02:33.203Z</time></trkpt><trkpt lat="43.7706126" lon="11.4402679"><ele>80.0</ele><time>2026-04-18T13:02:34.202Z</time></trkpt><trkpt lat="43.7705271" lon="11.4400295"><ele>80.66666666666667</ele><time>2026-04-18T13:02:35.202Z</time></trkpt><trkpt lat="43.770451" lon="11.4398107"><ele>81.33333333333333</ele><time>2026-04-18T13:02:36.203Z</time></trkpt><trkpt lat="43.7703808" lon="11.4396131"><ele>82.0</ele><time>2026-04-18T13:02:37.202Z</time></trkpt><trkpt lat="43.7703139" lon="11.4394249"><ele>82.66666666666666</ele><time>2026-04-18T13:02:38.203Z</time></trkpt><trkpt lat="43.7702467" lon="11.4392197"><ele>83.33333333333333</ele><time>2026-04-18T13:02:39.202Z</time></trkpt><trkpt lat="43.7701771" lon="11.4390249"><ele>84.0</ele><time>2026-04-18T13:02:40.202Z</time></trkpt><trkpt lat="43.7701047" lon="11.4388225"><ele>83.66666666666667</ele><time>2026-04-18T13:02:41.203Z</time></trkpt><trkpt lat="43.770036" lon="11.4386228"><ele>83.33333333333334</ele><time>2026-04-18T13:02:42.202Z</time></trkpt><trkpt lat="43.7699672" lon="11.4384192"><ele>83.0</ele><time>2026-04-18T13:02:43.202Z</time></trkpt><trkpt lat="43.7698951" lon="11.4382175"><ele>83.0</ele><time>2026-04-18T13:02:44.202Z</time></trkpt><trkpt lat="43.7698231" lon="11.438011"><ele>83.0</ele><time>2026-04-18T13:02:45.203Z</time></trkpt><trkpt lat="43.7697587" lon="11.4378023"><ele>83.0</ele><time>2026-04-18T13:02:46.203Z</time></trkpt><trkpt lat="43.7696939" lon="11.4375879"><ele>83.0</ele><time>2026-04-18T13:02:47.203Z</time></trkpt><trkpt lat="43.7696282" lon="11.4373518"><ele>83.0</ele><time>2026-04-18T13:02:48.203Z</time></trkpt><trkpt lat="43.7695592" lon="11.4370988"><ele>83.0</ele><time>2026-04-18T13:02:49.203Z</time></trkpt><trkpt lat="43.7694998" lon="11.436827"><ele>83.0</ele><time>2026-04-18T13:02:50.203Z</time></trkpt><trkpt lat="43.7694515" lon="11.4365338"><ele>83.0</ele><time>2026-04-18T13:02:51.203Z</time></trkpt><trkpt lat="43.7694141" lon="11.4362356"><ele>83.0</ele><time>2026-04-18T13:02:52.203Z</time></trkpt><trkpt lat="43.7693825" lon="11.4359287"><ele>82.5</ele><time>2026-04-18T13:02:53.203Z</time></trkpt><trkpt lat="43.7693572" lon="11.435614"><ele>82.0</ele><time>2026-04-18T13:02:54.202Z</time></trkpt><trkpt lat="43.769348" lon="11.4353063"><ele>82.0</ele><time>2026-04-18T13:02:55.202Z</time></trkpt><trkpt lat="43.7693465" lon="11.4350196"><ele>82.0</ele><time>2026-04-18T13:02:56.202Z</time></trkpt><trkpt lat="43.7693515" lon="11.4347563"><ele>82.0</ele><time>2026-04-18T13:02:57.203Z</time></trkpt><trkpt lat="43.7693673" lon="11.4344978"><ele>82.0</ele><time>2026-04-18T13:02:58.202Z</time></trkpt><trkpt lat="43.7693883" lon="11.4342358"><ele>82.0</ele><time>2026-04-18T13:02:59.203Z</time></trkpt><trkpt lat="43.7694124" lon="11.4339739"><ele>82.0</ele><time>2026-04-18T13:03:00.203Z</time></trkpt><trkpt lat="43.7694473" lon="11.4337107"><ele>82.0</ele><time>2026-04-18T13:03:01.203Z</time></trkpt><trkpt lat="43.7694873" lon="11.433463"><ele>82.0</ele><time>2026-04-18T13:03:02.203Z</time></trkpt><trkpt lat="43.7695345" lon="11.4332256"><ele>82.0</ele><time>2026-04-18T13:03:03.203Z</time></trkpt><trkpt lat="43.7695925" lon="11.4329672"><ele>82.0</ele><time>2026-04-18T13:03:04.203Z</time></trkpt><trkpt lat="43.7696633" lon="11.4326901"><ele>82.0</ele><time>2026-04-18T13:03:05.202Z</time></trkpt><trkpt lat="43.7697527" lon="11.4323991"><ele>82.0</ele><time>2026-04-18T13:03:06.203Z</time></trkpt><trkpt lat="43.7698502" lon="11.432098"><ele>81.0</ele><time>2026-04-18T13:03:07.203Z</time></trkpt><trkpt lat="43.7699497" lon="11.4318032"><ele>80.0</ele><time>2026-04-18T13:03:08.202Z</time></trkpt><trkpt lat="43.7700443" lon="11.4315188"><ele>79.66666666666667</ele><time>2026-04-18T13:03:09.203Z</time></trkpt><trkpt lat="43.770135" lon="11.431243"><ele>79.33333333333333</ele><time>2026-04-18T13:03:10.202Z</time></trkpt><trkpt lat="43.7702295" lon="11.4309704"><ele>79.0</ele><time>2026-04-18T13:03:11.203Z</time></trkpt><trkpt lat="43.7703271" lon="11.4306995"><ele>79.66666666666666</ele><time>2026-04-18T13:03:12.202Z</time></trkpt><trkpt lat="43.7704263" lon="11.4304325"><ele>80.33333333333333</ele><time>2026-04-18T13:03:13.203Z</time></trkpt><trkpt lat="43.7705227" lon="11.4301646"><ele>81.0</ele><time>2026-04-18T13:03:14.203Z</time></trkpt><trkpt lat="43.7706149" lon="11.4298872"><ele>81.0</ele><time>2026-04-18T13:03:15.202Z</time></trkpt><trkpt lat="43.7707031" lon="11.4296222"><ele>81.0</ele><time>2026-04-18T13:03:16.203Z</time></trkpt><trkpt lat="43.7707841" lon="11.4293672"><ele>81.0</ele><time>2026-04-18T13:03:17.203Z</time></trkpt><trkpt lat="43.7708549" lon="11.429123"><ele>81.0</ele><time>2026-04-18T13:03:18.202Z</time></trkpt><trkpt lat="43.7709151" lon="11.4288701"><ele>81.0</ele><time>2026-04-18T13:03:19.203Z</time></trkpt><trkpt lat="43.7709842" lon="11.4286023"><ele>81.0</ele><time>2026-04-18T13:03:20.203Z</time></trkpt><trkpt lat="43.7710593" lon="11.4283258"><ele>81.33333333333333</ele><time>2026-04-18T13:03:21.203Z</time></trkpt><trkpt lat="43.7711297" lon="11.4280381"><ele>81.66666666666666</ele><time>2026-04-18T13:03:22.202Z</time></trkpt><trkpt lat="43.7712021" lon="11.4277524"><ele>82.0</ele><time>2026-04-18T13:03:23.203Z</time></trkpt><trkpt lat="43.7712747" lon="11.4274574"><ele>82.0</ele><time>2026-04-18T13:03:24.203Z</time></trkpt><trkpt lat="43.7713473" lon="11.4271677"><ele>82.0</ele><time>2026-04-18T13:03:25.203Z</time></trkpt><trkpt lat="43.7714241" lon="11.4268701"><ele>81.5</ele><time>2026-04-18T13:03:26.202Z</time></trkpt><trkpt lat="43.771497" lon="11.4265744"><ele>81.0</ele><time>2026-04-18T13:03:27.203Z</time></trkpt><trkpt lat="43.7715716" lon="11.4262721"><ele>81.0</ele><time>2026-04-18T13:03:28.203Z</time></trkpt><trkpt lat="43.7716406" lon="11.42597"><ele>81.0</ele><time>2026-04-18T13:03:29.203Z</time></trkpt><trkpt lat="43.771711" lon="11.4256564"><ele>81.0</ele><time>2026-04-18T13:03:30.202Z</time></trkpt><trkpt lat="43.771785" lon="11.4253491"><ele>81.0</ele><time>2026-04-18T13:03:31.203Z</time></trkpt><trkpt lat="43.771864" lon="11.4250432"><ele>81.5</ele><time>2026-04-18T13:03:32.202Z</time></trkpt><trkpt lat="43.771939" lon="11.424723"><ele>82.0</ele><time>2026-04-18T13:03:33.203Z</time></trkpt><trkpt lat="43.7720111" lon="11.4244038"><ele>82.0</ele><time>2026-04-18T13:03:34.203Z</time></trkpt><trkpt lat="43.772083" lon="11.4240807"><ele>82.0</ele><time>2026-04-18T13:03:35.203Z</time></trkpt><trkpt lat="43.7721577" lon="11.4237562"><ele>82.0</ele><time>2026-04-18T13:03:36.203Z</time></trkpt><trkpt lat="43.7722288" lon="11.423445"><ele>82.0</ele><time>2026-04-18T13:03:37.203Z</time></trkpt><trkpt lat="43.7723038" lon="11.4231205"><ele>81.5</ele><time>2026-04-18T13:03:38.202Z</time></trkpt><trkpt lat="43.7723798" lon="11.4228019"><ele>81.0</ele><time>2026-04-18T13:03:39.203Z</time></trkpt><trkpt lat="43.7724528" lon="11.4224863"><ele>81.0</ele><time>2026-04-18T13:03:40.203Z</time></trkpt><trkpt lat="43.7725232" lon="11.4221812"><ele>81.0</ele><time>2026-04-18T13:03:41.203Z</time></trkpt><trkpt lat="43.7725899" lon="11.4218726"><ele>81.0</ele><time>2026-04-18T13:03:42.203Z</time></trkpt><trkpt lat="43.7726563" lon="11.4215554"><ele>81.0</ele><time>2026-04-18T13:03:43.203Z</time></trkpt><trkpt lat="43.7727285" lon="11.4212369"><ele>81.0</ele><time>2026-04-18T13:03:44.203Z</time></trkpt><trkpt lat="43.7728062" lon="11.420915"><ele>81.0</ele><time>2026-04-18T13:03:45.202Z</time></trkpt><trkpt lat="43.7728924" lon="11.4205881"><ele>81.0</ele><time>2026-04-18T13:03:46.202Z</time></trkpt><trkpt lat="43.772977" lon="11.4202599"><ele>81.0</ele><time>2026-04-18T13:03:47.202Z</time></trkpt><trkpt lat="43.7730558" lon="11.4199354"><ele>81.0</ele><time>2026-04-18T13:03:48.202Z</time></trkpt><trkpt lat="43.7731309" lon="11.4196132"><ele>81.0</ele><time>2026-04-18T13:03:49.202Z</time></trkpt><trkpt lat="43.7731957" lon="11.4193114"><ele>81.0</ele><time>2026-04-18T13:03:50.203Z</time></trkpt><trkpt lat="43.7732639" lon="11.4190218"><ele>81.0</ele><time>2026-04-18T13:03:51.203Z</time></trkpt><trkpt lat="43.7733247" lon="11.4187527"><ele>81.0</ele><time>2026-04-18T13:03:52.203Z</time></trkpt><trkpt lat="43.7733866" lon="11.4184945"><ele>81.0</ele><time>2026-04-18T13:03:53.202Z</time></trkpt><trkpt lat="43.7734445" lon="11.4182531"><ele>81.0</ele><time>2026-04-18T13:03:54.203Z</time></trkpt><trkpt lat="43.7734995" lon="11.418022"><ele>81.0</ele><time>2026-04-18T13:03:55.203Z</time></trkpt><trkpt lat="43.773559" lon="11.4178098"><ele>81.0</ele><time>2026-04-18T13:03:56.203Z</time></trkpt><trkpt lat="43.7736246" lon="11.4176222"><ele>81.0</ele><time>2026-04-18T13:03:57.202Z</time></trkpt><trkpt lat="43.7736993" lon="11.417464"><ele>81.0</ele><time>2026-04-18T13:03:58.203Z</time></trkpt><trkpt lat="43.7737864" lon="11.417327"><ele>81.0</ele><time>2026-04-18T13:03:59.203Z</time></trkpt><trkpt lat="43.7738853" lon="11.4172036"><ele>81.0</ele><time>2026-04-18T13:04:00.202Z</time></trkpt><trkpt lat="43.7739781" lon="11.4170978"><ele>81.0</ele><time>2026-04-18T13:04:01.203Z</time></trkpt><trkpt lat="43.7740691" lon="11.4170176"><ele>81.0</ele><time>2026-04-18T13:04:02.202Z</time></trkpt><trkpt lat="43.7741647" lon="11.4169779"><ele>81.0</ele><time>2026-04-18T13:04:03.203Z</time></trkpt><trkpt lat="43.774259" lon="11.4169769"><ele>81.0</ele><time>2026-04-18T13:04:04.203Z</time></trkpt><trkpt lat="43.7743554" lon="11.4169988"><ele>81.19999999999999</ele><time>2026-04-18T13:04:05.203Z</time></trkpt><trkpt lat="43.774455" lon="11.4170068"><ele>81.39999999999999</ele><time>2026-04-18T13:04:06.203Z</time></trkpt><trkpt lat="43.7745515" lon="11.4169718"><ele>81.6</ele><time>2026-04-18T13:04:07.203Z</time></trkpt><trkpt lat="43.7746356" lon="11.4168896"><ele>81.8</ele><time>2026-04-18T13:04:08.203Z</time></trkpt><trkpt lat="43.7746961" lon="11.416774"><ele>82.0</ele><time>2026-04-18T13:04:09.203Z</time></trkpt><trkpt lat="43.7747247" lon="11.416645"><ele>82.0</ele><time>2026-04-18T13:04:10.203Z</time></trkpt><trkpt lat="43.7747259" lon="11.4165122"><ele>82.0</ele><time>2026-04-18T13:04:11.202Z</time></trkpt><trkpt lat="43.7747029" lon="11.4163884"><ele>82.0</ele><time>2026-04-18T13:04:12.202Z</time></trkpt><trkpt lat="43.7746585" lon="11.4162722"><ele>82.0</ele><time>2026-04-18T13:04:13.203Z</time></trkpt><trkpt lat="43.7745913" lon="11.416158"><ele>82.0</ele><time>2026-04-18T13:04:14.202Z</time></trkpt><trkpt lat="43.77452" lon="11.4160239"><ele>81.5</ele><time>2026-04-18T13:04:15.202Z</time></trkpt><trkpt lat="43.7744587" lon="11.4158608"><ele>81.0</ele><time>2026-04-18T13:04:16.202Z</time></trkpt><trkpt lat="43.7744132" lon="11.4156693"><ele>80.5</ele><time>2026-04-18T13:04:17.203Z</time></trkpt><trkpt lat="43.7743864" lon="11.4154728"><ele>80.0</ele><time>2026-04-18T13:04:18.203Z</time></trkpt><trkpt lat="43.7743661" lon="11.4152631"><ele>79.33333333333334</ele><time>2026-04-18T13:04:19.202Z</time></trkpt><trkpt lat="43.7743415" lon="11.4150393"><ele>78.66666666666667</ele><time>2026-04-18T13:04:20.203Z</time></trkpt><trkpt lat="43.7743182" lon="11.4147965"><ele>78.0</ele><time>2026-04-18T13:04:21.203Z</time></trkpt><trkpt lat="43.7742955" lon="11.4145349"><ele>78.0</ele><time>2026-04-18T13:04:22.203Z</time></trkpt><trkpt lat="43.7742718" lon="11.4142626"><ele>78.0</ele><time>2026-04-18T13:04:23.203Z</time></trkpt><trkpt lat="43.7742498" lon="11.4139723"><ele>78.0</ele><time>2026-04-18T13:04:24.203Z</time></trkpt><trkpt lat="43.7742275" lon="11.413693"><ele>78.0</ele><time>2026-04-18T13:04:25.202Z</time></trkpt><trkpt lat="43.7742073" lon="11.4134246"><ele>78.0</ele><time>2026-04-18T13:04:26.203Z</time></trkpt><trkpt lat="43.774196" lon="11.4131555"><ele>78.0</ele><time>2026-04-18T13:04:27.203Z</time></trkpt><trkpt lat="43.7742011" lon="11.4128869"><ele>78.33333333333333</ele><time>2026-04-18T13:04:28.202Z</time></trkpt><trkpt lat="43.7742128" lon="11.4126347"><ele>78.66666666666666</ele><time>2026-04-18T13:04:29.202Z</time></trkpt><trkpt lat="43.7742381" lon="11.4123961"><ele>79.0</ele><time>2026-04-18T13:04:30.203Z</time></trkpt><trkpt lat="43.7742789" lon="11.4121597"><ele>79.0</ele><time>2026-04-18T13:04:31.203Z</time></trkpt><trkpt lat="43.774332" lon="11.4119334"><ele>79.0</ele><time>2026-04-18T13:04:32.203Z</time></trkpt><trkpt lat="43.7744027" lon="11.4117162"><ele>79.0</ele><time>2026-04-18T13:04:33.203Z</time></trkpt><trkpt lat="43.7744909" lon="11.4115138"><ele>79.66666666666666</ele><time>2026-04-18T13:04:34.202Z</time></trkpt><trkpt lat="43.7745948" lon="11.4113201"><ele>80.33333333333333</ele><time>2026-04-18T13:04:35.203Z</time></trkpt><trkpt lat="43.7747141" lon="11.4111412"><ele>81.0</ele><time>2026-04-18T13:04:36.202Z</time></trkpt><trkpt lat="43.7748438" lon="11.4109765"><ele>81.0</ele><time>2026-04-18T13:04:37.203Z</time></trkpt><trkpt lat="43.7749799" lon="11.410825"><ele>81.0</ele><time>2026-04-18T13:04:38.203Z</time></trkpt><trkpt lat="43.7751121" lon="11.4106622"><ele>81.0</ele><time>2026-04-18T13:04:39.203Z</time></trkpt><trkpt lat="43.7752478" lon="11.410488"><ele>80.66666666666667</ele><time>2026-04-18T13:04:40.203Z</time></trkpt><trkpt lat="43.7753849" lon="11.4102946"><ele>80.33333333333334</ele><time>2026-04-18T13:04:41.202Z</time></trkpt><trkpt lat="43.7755244" lon="11.4100737"><ele>80.0</ele><time>2026-04-18T13:04:42.202Z</time></trkpt><trkpt lat="43.7756757" lon="11.4098546"><ele>80.5</ele><time>2026-04-18T13:04:43.203Z</time></trkpt><trkpt lat="43.7758339" lon="11.4096278"><ele>81.0</ele><time>2026-04-18T13:04:44.203Z</time></trkpt><trkpt lat="43.7759882" lon="11.4093931"><ele>80.0</ele><time>2026-04-18T13:04:45.203Z</time></trkpt><trkpt lat="43.7761399" lon="11.409148"><ele>79.0</ele><time>2026-04-18T13:04:46.203Z</time></trkpt><trkpt lat="43.7762857" lon="11.4088876"><ele>79.0</ele><time>2026-04-18T13:04:47.202Z</time></trkpt><trkpt lat="43.7764219" lon="11.408632"><ele>79.0</ele><time>2026-04-18T13:04:48.203Z</time></trkpt><trkpt lat="43.7765626" lon="11.4083542"><ele>79.0</ele><time>2026-04-18T13:04:49.203Z</time></trkpt><trkpt lat="43.7767031" lon="11.4080787"><ele>79.0</ele><time>2026-04-18T13:04:50.202Z</time></trkpt><trkpt lat="43.776847" lon="11.4078075"><ele>78.5</ele><time>2026-04-18T13:04:51.203Z</time></trkpt><trkpt lat="43.7769898" lon="11.4075208"><ele>78.0</ele><time>2026-04-18T13:04:52.203Z</time></trkpt><trkpt lat="43.7771381" lon="11.4072381"><ele>77.0</ele><time>2026-04-18T13:04:53.203Z</time></trkpt><trkpt lat="43.7772787" lon="11.4069511"><ele>76.0</ele><time>2026-04-18T13:04:54.202Z</time></trkpt><trkpt lat="43.7774193" lon="11.4066683"><ele>76.0</ele><time>2026-04-18T13:04:55.202Z</time></trkpt><trkpt lat="43.7775572" lon="11.4063918"><ele>76.0</ele><time>2026-04-18T13:04:56.203Z</time></trkpt><trkpt lat="43.7776985" lon="11.4061129"><ele>76.0</ele><time>2026-04-18T13:04:57.203Z</time></trkpt><trkpt lat="43.7778369" lon="11.4058434"><ele>76.0</ele><time>2026-04-18T13:04:58.203Z</time></trkpt><trkpt lat="43.7779685" lon="11.4055941"><ele>76.5</ele><time>2026-04-18T13:04:59.203Z</time></trkpt><trkpt lat="43.7781026" lon="11.4053389"><ele>77.0</ele><time>2026-04-18T13:05:00.202Z</time></trkpt><trkpt lat="43.7782306" lon="11.4050795"><ele>77.0</ele><time>2026-04-18T13:05:01.203Z</time></trkpt><trkpt lat="43.778354" lon="11.4048318"><ele>77.0</ele><time>2026-04-18T13:05:02.202Z</time></trkpt><trkpt lat="43.7784762" lon="11.4045933"><ele>77.0</ele><time>2026-04-18T13:05:03.203Z</time></trkpt><trkpt lat="43.7785824" lon="11.4043602"><ele>76.66666666666667</ele><time>2026-04-18T13:05:04.203Z</time></trkpt><trkpt lat="43.7786797" lon="11.4041297"><ele>76.33333333333333</ele><time>2026-04-18T13:05:05.203Z</time></trkpt><trkpt lat="43.7787656" lon="11.4038911"><ele>76.0</ele><time>2026-04-18T13:05:06.202Z</time></trkpt><trkpt lat="43.778839" lon="11.4036524"><ele>76.66666666666666</ele><time>2026-04-18T13:05:07.203Z</time></trkpt><trkpt lat="43.7788941" lon="11.4034159"><ele>77.33333333333333</ele><time>2026-04-18T13:05:08.203Z</time></trkpt><trkpt lat="43.7789487" lon="11.403173"><ele>78.0</ele><time>2026-04-18T13:05:09.203Z</time></trkpt><trkpt lat="43.7790055" lon="11.4029254"><ele>78.33333333333333</ele><time>2026-04-18T13:05:10.202Z</time></trkpt><trkpt lat="43.7790765" lon="11.4026765"><ele>78.66666666666666</ele><time>2026-04-18T13:05:11.203Z</time></trkpt><trkpt lat="43.779161" lon="11.4024371"><ele>79.0</ele><time>2026-04-18T13:05:12.202Z</time></trkpt><trkpt lat="43.779263" lon="11.4022075"><ele>78.0</ele><time>2026-04-18T13:05:13.203Z</time></trkpt><trkpt lat="43.7793855" lon="11.4019864"><ele>77.0</ele><time>2026-04-18T13:05:14.203Z</time></trkpt><trkpt lat="43.7795226" lon="11.4017745"><ele>76.0</ele><time>2026-04-18T13:05:15.203Z</time></trkpt><trkpt lat="43.7796749" lon="11.4015665"><ele>76.0</ele><time>2026-04-18T13:05:16.203Z</time></trkpt><trkpt lat="43.7798419" lon="11.4013747"><ele>76.0</ele><time>2026-04-18T13:05:17.203Z</time></trkpt><trkpt lat="43.780017" lon="11.4011853"><ele>76.0</ele><time>2026-04-18T13:05:18.202Z</time></trkpt><trkpt lat="43.7801855" lon="11.4009794"><ele>75.5</ele><time>2026-04-18T13:05:19.203Z</time></trkpt><trkpt lat="43.7803633" lon="11.4007777"><ele>75.0</ele><time>2026-04-18T13:05:20.202Z</time></trkpt><trkpt lat="43.7805473" lon="11.4005695"><ele>79.0</ele><time>2026-04-18T13:05:21.203Z</time></trkpt><trkpt lat="43.7807329" lon="11.4003559"><ele>83.0</ele><time>2026-04-18T13:05:22.203Z</time></trkpt><trkpt lat="43.7809228" lon="11.4001346"><ele>78.5</ele><time>2026-04-18T13:05:23.202Z</time></trkpt><trkpt lat="43.7811136" lon="11.3999145"><ele>74.0</ele><time>2026-04-18T13:05:24.202Z</time></trkpt><trkpt lat="43.7813126" lon="11.3996927"><ele>75.0</ele><time>2026-04-18T13:05:25.202Z</time></trkpt><trkpt lat="43.7815056" lon="11.3994708"><ele>76.0</ele><time>2026-04-18T13:05:26.203Z</time></trkpt><trkpt lat="43.7816987" lon="11.3992509"><ele>74.5</ele><time>2026-04-18T13:05:27.202Z</time></trkpt><trkpt lat="43.7818882" lon="11.3990308"><ele>73.0</ele><time>2026-04-18T13:05:28.203Z</time></trkpt><trkpt lat="43.7820805" lon="11.3987989"><ele>73.0</ele><time>2026-04-18T13:05:29.203Z</time></trkpt><trkpt lat="43.7822658" lon="11.3985507"><ele>73.0</ele><time>2026-04-18T13:05:30.203Z</time></trkpt><trkpt lat="43.7824334" lon="11.398288"><ele>73.0</ele><time>2026-04-18T13:05:31.202Z</time></trkpt><trkpt lat="43.7825877" lon="11.398018"><ele>73.0</ele><time>2026-04-18T13:05:32.203Z</time></trkpt><trkpt lat="43.7827338" lon="11.3977429"><ele>75.0</ele><time>2026-04-18T13:05:33.203Z</time></trkpt><trkpt lat="43.7828669" lon="11.3974577"><ele>77.0</ele><time>2026-04-18T13:05:34.203Z</time></trkpt><trkpt lat="43.7829775" lon="11.3971615"><ele>77.0</ele><time>2026-04-18T13:05:35.203Z</time></trkpt><trkpt lat="43.7830637" lon="11.3968456"><ele>77.0</ele><time>2026-04-18T13:05:36.202Z</time></trkpt><trkpt lat="43.7831285" lon="11.3965371"><ele>77.66666666666667</ele><time>2026-04-18T13:05:37.203Z</time></trkpt><trkpt lat="43.7831826" lon="11.3962514"><ele>78.33333333333333</ele><time>2026-04-18T13:05:38.202Z</time></trkpt><trkpt lat="43.7832412" lon="11.3959813"><ele>79.0</ele><time>2026-04-18T13:05:39.203Z</time></trkpt><trkpt lat="43.7833102" lon="11.3957171"><ele>78.33333333333333</ele><time>2026-04-18T13:05:40.203Z</time></trkpt><trkpt lat="43.7833933" lon="11.3954631"><ele>77.66666666666667</ele><time>2026-04-18T13:05:41.202Z</time></trkpt><trkpt lat="43.7834996" lon="11.3952227"><ele>77.0</ele><time>2026-04-18T13:05:42.202Z</time></trkpt><trkpt lat="43.7836206" lon="11.3950004"><ele>77.0</ele><time>2026-04-18T13:05:43.203Z</time></trkpt><trkpt lat="43.783757" lon="11.3948001"><ele>77.0</ele><time>2026-04-18T13:05:44.203Z</time></trkpt><trkpt lat="43.7839006" lon="11.3946154"><ele>77.0</ele><time>2026-04-18T13:05:45.203Z</time></trkpt><trkpt lat="43.7840479" lon="11.3944533"><ele>79.0</ele><time>2026-04-18T13:05:46.203Z</time></trkpt><trkpt lat="43.7841972" lon="11.3943016"><ele>81.0</ele><time>2026-04-18T13:05:47.202Z</time></trkpt><trkpt lat="43.7843504" lon="11.3941635"><ele>83.0</ele><time>2026-04-18T13:05:48.203Z</time></trkpt><trkpt lat="43.7844957" lon="11.394023"><ele>83.0</ele><time>2026-04-18T13:05:49.203Z</time></trkpt><trkpt lat="43.7846381" lon="11.3938724"><ele>83.0</ele><time>2026-04-18T13:05:50.203Z</time></trkpt><trkpt lat="43.7847795" lon="11.3937221"><ele>83.0</ele><time>2026-04-18T13:05:51.203Z</time></trkpt><trkpt lat="43.7849185" lon="11.3935567"><ele>84.0</ele><time>2026-04-18T13:05:52.202Z</time></trkpt><trkpt lat="43.7850515" lon="11.393389"><ele>85.0</ele><time>2026-04-18T13:05:53.203Z</time></trkpt><trkpt lat="43.7851787" lon="11.3932209"><ele>86.0</ele><time>2026-04-18T13:05:54.202Z</time></trkpt><trkpt lat="43.7853024" lon="11.3930414"><ele>86.66666666666667</ele><time>2026-04-18T13:05:55.203Z</time></trkpt><trkpt lat="43.7854238" lon="11.3928458"><ele>87.33333333333333</ele><time>2026-04-18T13:05:56.202Z</time></trkpt><trkpt lat="43.7855384" lon="11.3926377"><ele>88.0</ele><time>2026-04-18T13:05:57.202Z</time></trkpt><trkpt lat="43.7856509" lon="11.3923971"><ele>89.33333333333333</ele><time>2026-04-18T13:05:58.202Z</time></trkpt><trkpt lat="43.7857576" lon="11.3921398"><ele>90.66666666666667</ele><time>2026-04-18T13:05:59.202Z</time></trkpt><trkpt lat="43.7858597" lon="11.3918655"><ele>92.0</ele><time>2026-04-18T13:06:00.203Z</time></trkpt><trkpt lat="43.7859631" lon="11.3915914"><ele>86.5</ele><time>2026-04-18T13:06:01.203Z</time></trkpt><trkpt lat="43.7860561" lon="11.3912957"><ele>81.0</ele><time>2026-04-18T13:06:02.203Z</time></trkpt><trkpt lat="43.7861479" lon="11.3910068"><ele>81.0</ele><time>2026-04-18T13:06:03.203Z</time></trkpt><trkpt lat="43.7862417" lon="11.3907228"><ele>81.0</ele><time>2026-04-18T13:06:04.203Z</time></trkpt><trkpt lat="43.7863296" lon="11.3904427"><ele>81.0</ele><time>2026-04-18T13:06:05.203Z</time></trkpt><trkpt lat="43.7864132" lon="11.390175"><ele>81.33333333333333</ele><time>2026-04-18T13:06:06.203Z</time></trkpt><trkpt lat="43.7864976" lon="11.3899145"><ele>81.66666666666666</ele><time>2026-04-18T13:06:07.203Z</time></trkpt><trkpt lat="43.7865764" lon="11.389661"><ele>82.0</ele><time>2026-04-18T13:06:08.203Z</time></trkpt><trkpt lat="43.7866491" lon="11.3894236"><ele>83.66666666666666</ele><time>2026-04-18T13:06:09.203Z</time></trkpt><trkpt lat="43.7867187" lon="11.3891857"><ele>85.33333333333333</ele><time>2026-04-18T13:06:10.203Z</time></trkpt><trkpt lat="43.7867906" lon="11.3889401"><ele>87.0</ele><time>2026-04-18T13:06:11.203Z</time></trkpt><trkpt lat="43.7868529" lon="11.3887017"><ele>84.0</ele><time>2026-04-18T13:06:12.203Z</time></trkpt><trkpt lat="43.7868955" lon="11.3884452"><ele>81.0</ele><time>2026-04-18T13:06:13.203Z</time></trkpt><trkpt lat="43.786924" lon="11.3881849"><ele>78.0</ele><time>2026-04-18T13:06:14.203Z</time></trkpt><trkpt lat="43.7869305" lon="11.387902"><ele>78.0</ele><time>2026-04-18T13:06:15.203Z</time></trkpt><trkpt lat="43.7869133" lon="11.3875962"><ele>78.0</ele><time>2026-04-18T13:06:16.203Z</time></trkpt><trkpt lat="43.7868919" lon="11.3872738"><ele>78.0</ele><time>2026-04-18T13:06:17.203Z</time></trkpt><trkpt lat="43.7868776" lon="11.3869369"><ele>78.0</ele><time>2026-04-18T13:06:18.202Z</time></trkpt><trkpt lat="43.7868561" lon="11.3865772"><ele>78.5</ele><time>2026-04-18T13:06:19.203Z</time></trkpt><trkpt lat="43.7868383" lon="11.3862049"><ele>79.0</ele><time>2026-04-18T13:06:20.203Z</time></trkpt><trkpt lat="43.7868158" lon="11.3858304"><ele>78.5</ele><time>2026-04-18T13:06:21.202Z</time></trkpt><trkpt lat="43.7867878" lon="11.3854461"><ele>78.0</ele><time>2026-04-18T13:06:22.202Z</time></trkpt><trkpt lat="43.7867464" lon="11.3850843"><ele>78.0</ele><time>2026-04-18T13:06:23.203Z</time></trkpt><trkpt lat="43.7866796" lon="11.3847484"><ele>78.0</ele><time>2026-04-18T13:06:24.203Z</time></trkpt><trkpt lat="43.7865926" lon="11.3844386"><ele>77.33333333333333</ele><time>2026-04-18T13:06:25.203Z</time></trkpt><trkpt lat="43.7864934" lon="11.3841614"><ele>76.66666666666666</ele><time>2026-04-18T13:06:26.203Z</time></trkpt><trkpt lat="43.7863788" lon="11.3839006"><ele>76.0</ele><time>2026-04-18T13:06:27.203Z</time></trkpt><trkpt lat="43.7862516" lon="11.3836602"><ele>76.33333333333333</ele><time>2026-04-18T13:06:28.203Z</time></trkpt><trkpt lat="43.7861135" lon="11.3834348"><ele>76.66666666666667</ele><time>2026-04-18T13:06:29.203Z</time></trkpt><trkpt lat="43.7859655" lon="11.3832133"><ele>77.0</ele><time>2026-04-18T13:06:30.202Z</time></trkpt><trkpt lat="43.7858045" lon="11.3830076"><ele>75.0</ele><time>2026-04-18T13:06:31.203Z</time></trkpt><trkpt lat="43.785637" lon="11.3828269"><ele>73.0</ele><time>2026-04-18T13:06:32.202Z</time></trkpt><trkpt lat="43.7854514" lon="11.3826688"><ele>71.0</ele><time>2026-04-18T13:06:33.202Z</time></trkpt><trkpt lat="43.7852736" lon="11.3825377"><ele>71.0</ele><time>2026-04-18T13:06:34.202Z</time></trkpt><trkpt lat="43.7851043" lon="11.3824048"><ele>71.0</ele><time>2026-04-18T13:06:35.203Z</time></trkpt><trkpt lat="43.7849486" lon="11.3822497"><ele>71.0</ele><time>2026-04-18T13:06:36.203Z</time></trkpt><trkpt lat="43.7848104" lon="11.3820832"><ele>71.0</ele><time>2026-04-18T13:06:37.202Z</time></trkpt><trkpt lat="43.7846858" lon="11.3818909"><ele>71.0</ele><time>2026-04-18T13:06:38.203Z</time></trkpt><trkpt lat="43.784571" lon="11.3816836"><ele>71.0</ele><time>2026-04-18T13:06:39.203Z</time></trkpt><trkpt lat="43.7844594" lon="11.3814638"><ele>70.33333333333334</ele><time>2026-04-18T13:06:40.202Z</time></trkpt><trkpt lat="43.7843508" lon="11.381239"><ele>69.66666666666667</ele><time>2026-04-18T13:06:41.203Z</time></trkpt><trkpt lat="43.7842429" lon="11.3810149"><ele>69.0</ele><time>2026-04-18T13:06:42.202Z</time></trkpt><trkpt lat="43.784144" lon="11.3807795"><ele>72.33333333333333</ele><time>2026-04-18T13:06:43.203Z</time></trkpt><trkpt lat="43.7840537" lon="11.3805591"><ele>75.66666666666666</ele><time>2026-04-18T13:06:44.203Z</time></trkpt><trkpt lat="43.7839748" lon="11.3803288"><ele>79.0</ele><time>2026-04-18T13:06:45.203Z</time></trkpt><trkpt lat="43.7838951" lon="11.3800982"><ele>79.0</ele><time>2026-04-18T13:06:46.202Z</time></trkpt><trkpt lat="43.7838195" lon="11.379859"><ele>79.0</ele><time>2026-04-18T13:06:47.202Z</time></trkpt><trkpt lat="43.7837519" lon="11.3796215"><ele>79.0</ele><time>2026-04-18T13:06:48.202Z</time></trkpt><trkpt lat="43.7836931" lon="11.3793821"><ele>77.66666666666666</ele><time>2026-04-18T13:06:49.203Z</time></trkpt><trkpt lat="43.7836481" lon="11.3791578"><ele>76.33333333333333</ele><time>2026-04-18T13:06:50.203Z</time></trkpt><trkpt lat="43.7835984" lon="11.3789239"><ele>75.0</ele><time>2026-04-18T13:06:51.202Z</time></trkpt><trkpt lat="43.7835359" lon="11.3786878"><ele>80.66666666666667</ele><time>2026-04-18T13:06:52.203Z</time></trkpt><trkpt lat="43.7834669" lon="11.3784206"><ele>86.33333333333334</ele><time>2026-04-18T13:06:53.203Z</time></trkpt><trkpt lat="43.7833969" lon="11.3781321"><ele>92.0</ele><time>2026-04-18T13:06:54.203Z</time></trkpt><trkpt lat="43.7833207" lon="11.3778376"><ele>92.0</ele><time>2026-04-18T13:06:55.203Z</time></trkpt><trkpt lat="43.7832395" lon="11.3775416"><ele>92.0</ele><time>2026-04-18T13:06:56.203Z</time></trkpt><trkpt lat="43.7831542" lon="11.3772624"><ele>92.0</ele><time>2026-04-18T13:06:57.202Z</time></trkpt><trkpt lat="43.7830823" lon="11.3769877"><ele>89.33333333333334</ele><time>2026-04-18T13:06:58.203Z</time></trkpt><trkpt lat="43.7830112" lon="11.3767304"><ele>86.66666666666667</ele><time>2026-04-18T13:06:59.203Z</time></trkpt><trkpt lat="43.7829427" lon="11.3764771"><ele>84.0</ele><time>2026-04-18T13:07:00.203Z</time></trkpt><trkpt lat="43.782876" lon="11.3762206"><ele>81.0</ele><time>2026-04-18T13:07:01.203Z</time></trkpt><trkpt lat="43.7828144" lon="11.3759529"><ele>78.0</ele><time>2026-04-18T13:07:02.203Z</time></trkpt><trkpt lat="43.782753" lon="11.3756749"><ele>75.0</ele><time>2026-04-18T13:07:03.203Z</time></trkpt><trkpt lat="43.7827043" lon="11.3753901"><ele>82.5</ele><time>2026-04-18T13:07:04.203Z</time></trkpt><trkpt lat="43.7826704" lon="11.3750795"><ele>90.0</ele><time>2026-04-18T13:07:05.203Z</time></trkpt><trkpt lat="43.7826451" lon="11.3747639"><ele>86.66666666666667</ele><time>2026-04-18T13:07:06.203Z</time></trkpt><trkpt lat="43.7826234" lon="11.3744616"><ele>83.33333333333334</ele><time>2026-04-18T13:07:07.202Z</time></trkpt><trkpt lat="43.7826076" lon="11.3741744"><ele>80.0</ele><time>2026-04-18T13:07:08.203Z</time></trkpt><trkpt lat="43.7826023" lon="11.3738908"><ele>79.66666666666667</ele><time>2026-04-18T13:07:09.203Z</time></trkpt><trkpt lat="43.7825934" lon="11.3735947"><ele>79.33333333333333</ele><time>2026-04-18T13:07:10.202Z</time></trkpt><trkpt lat="43.782589" lon="11.3733159"><ele>79.0</ele><time>2026-04-18T13:07:11.203Z</time></trkpt><trkpt lat="43.7825886" lon="11.3730601"><ele>79.66666666666666</ele><time>2026-04-18T13:07:12.202Z</time></trkpt><trkpt lat="43.7825812" lon="11.3728001"><ele>80.33333333333333</ele><time>2026-04-18T13:07:13.202Z</time></trkpt><trkpt lat="43.7825762" lon="11.3725517"><ele>81.0</ele><time>2026-04-18T13:07:14.202Z</time></trkpt><trkpt lat="43.7825781" lon="11.3723033"><ele>80.0</ele><time>2026-04-18T13:07:15.203Z</time></trkpt><trkpt lat="43.7825819" lon="11.3720538"><ele>79.0</ele><time>2026-04-18T13:07:16.203Z</time></trkpt><trkpt lat="43.7825938" lon="11.3718227"><ele>78.0</ele><time>2026-04-18T13:07:17.203Z</time></trkpt><trkpt lat="43.7826087" lon="11.3716042"><ele>78.0</ele><time>2026-04-18T13:07:18.203Z</time></trkpt><trkpt lat="43.7826246" lon="11.3713969"><ele>78.0</ele><time>2026-04-18T13:07:19.202Z</time></trkpt><trkpt lat="43.7826429" lon="11.3711965"><ele>78.0</ele><time>2026-04-18T13:07:20.203Z</time></trkpt><trkpt lat="43.7826547" lon="11.3710055"><ele>78.0</ele><time>2026-04-18T13:07:21.203Z</time></trkpt><trkpt lat="43.7826765" lon="11.3708325"><ele>75.0</ele><time>2026-04-18T13:07:22.202Z</time></trkpt><trkpt lat="43.7826911" lon="11.3706487"><ele>72.0</ele><time>2026-04-18T13:07:23.203Z</time></trkpt><trkpt lat="43.7827125" lon="11.3704545"><ele>69.0</ele><time>2026-04-18T13:07:24.203Z</time></trkpt><trkpt lat="43.7827283" lon="11.3702679"><ele>66.0</ele><time>2026-04-18T13:07:25.203Z</time></trkpt><trkpt lat="43.7827457" lon="11.3700853"><ele>66.0</ele><time>2026-04-18T13:07:26.203Z</time></trkpt><trkpt lat="43.7827622" lon="11.3698955"><ele>66.0</ele><time>2026-04-18T13:07:27.202Z</time></trkpt><trkpt lat="43.782778" lon="11.3697014"><ele>66.0</ele><time>2026-04-18T13:07:28.202Z</time></trkpt><trkpt lat="43.7827963" lon="11.3695029"><ele>66.0</ele><time>2026-04-18T13:07:29.203Z</time></trkpt><trkpt lat="43.7828173" lon="11.3693032"><ele>66.5</ele><time>2026-04-18T13:07:30.203Z</time></trkpt><trkpt lat="43.7828332" lon="11.3691078"><ele>67.0</ele><time>2026-04-18T13:07:31.202Z</time></trkpt><trkpt lat="43.782851" lon="11.3689127"><ele>67.5</ele><time>2026-04-18T13:07:32.203Z</time></trkpt><trkpt lat="43.7828693" lon="11.3687125"><ele>68.0</ele><time>2026-04-18T13:07:33.203Z</time></trkpt><trkpt lat="43.7828904" lon="11.3685117"><ele>68.25</ele><time>2026-04-18T13:07:34.202Z</time></trkpt><trkpt lat="43.782906" lon="11.3683117"><ele>68.5</ele><time>2026-04-18T13:07:35.203Z</time></trkpt><trkpt lat="43.7829152" lon="11.3681168"><ele>68.75</ele><time>2026-04-18T13:07:36.203Z</time></trkpt><trkpt lat="43.782919" lon="11.3679271"><ele>69.0</ele><time>2026-04-18T13:07:37.203Z</time></trkpt><trkpt lat="43.782913" lon="11.3677335"><ele>69.0</ele><time>2026-04-18T13:07:38.203Z</time></trkpt><trkpt lat="43.7828974" lon="11.3675451"><ele>69.0</ele><time>2026-04-18T13:07:39.203Z</time></trkpt><trkpt lat="43.7828702" lon="11.3673535"><ele>69.0</ele><time>2026-04-18T13:07:40.202Z</time></trkpt><trkpt lat="43.7828373" lon="11.3671662"><ele>69.0</ele><time>2026-04-18T13:07:41.202Z</time></trkpt><trkpt lat="43.7827945" lon="11.366986"><ele>68.75</ele><time>2026-04-18T13:07:42.203Z</time></trkpt><trkpt lat="43.7827449" lon="11.3668205"><ele>68.5</ele><time>2026-04-18T13:07:43.203Z</time></trkpt><trkpt lat="43.7826823" lon="11.3666489"><ele>68.25</ele><time>2026-04-18T13:07:44.203Z</time></trkpt><trkpt lat="43.7825962" lon="11.3664502"><ele>68.0</ele><time>2026-04-18T13:07:45.202Z</time></trkpt><trkpt lat="43.7824991" lon="11.3662434"><ele>70.0</ele><time>2026-04-18T13:07:46.203Z</time></trkpt><trkpt lat="43.7823864" lon="11.3660333"><ele>72.0</ele><time>2026-04-18T13:07:47.202Z</time></trkpt><trkpt lat="43.7822751" lon="11.3658403"><ele>74.0</ele><time>2026-04-18T13:07:48.203Z</time></trkpt><trkpt lat="43.7820983" lon="11.3656558"><ele>74.0</ele><time>2026-04-18T13:07:49.203Z</time></trkpt><trkpt lat="43.7819276" lon="11.3654784"><ele>74.0</ele><time>2026-04-18T13:07:50.203Z</time></trkpt><trkpt lat="43.7817407" lon="11.3653023"><ele>74.0</ele><time>2026-04-18T13:07:51.203Z</time></trkpt><trkpt lat="43.7815497" lon="11.3651274"><ele>76.5</ele><time>2026-04-18T13:07:52.203Z</time></trkpt><trkpt lat="43.781346" lon="11.3649576"><ele>79.0</ele><time>2026-04-18T13:07:53.203Z</time></trkpt><trkpt lat="43.7811371" lon="11.364801"><ele>79.0</ele><time>2026-04-18T13:07:54.202Z</time></trkpt><trkpt lat="43.7809311" lon="11.3646654"><ele>79.0</ele><time>2026-04-18T13:07:55.202Z</time></trkpt><trkpt lat="43.7807342" lon="11.3645529"><ele>79.0</ele><time>2026-04-18T13:07:56.203Z</time></trkpt><trkpt lat="43.7805313" lon="11.3644475"><ele>79.0</ele><time>2026-04-18T13:07:57.203Z</time></trkpt><trkpt lat="43.7803276" lon="11.3643622"><ele>79.0</ele><time>2026-04-18T13:07:58.202Z</time></trkpt><trkpt lat="43.7801281" lon="11.3642802"><ele>79.0</ele><time>2026-04-18T13:07:59.203Z</time></trkpt><trkpt lat="43.7799389" lon="11.3642057"><ele>80.0</ele><time>2026-04-18T13:08:00.202Z</time></trkpt><trkpt lat="43.779749" lon="11.3641293"><ele>81.0</ele><time>2026-04-18T13:08:01.203Z</time></trkpt><trkpt lat="43.7795611" lon="11.3640501"><ele>82.0</ele><time>2026-04-18T13:08:02.203Z</time></trkpt><trkpt lat="43.7793726" lon="11.3639765"><ele>81.33333333333333</ele><time>2026-04-18T13:08:03.202Z</time></trkpt><trkpt lat="43.7791833" lon="11.3639093"><ele>80.66666666666667</ele><time>2026-04-18T13:08:04.203Z</time></trkpt><trkpt lat="43.7789943" lon="11.3638501"><ele>80.0</ele><time>2026-04-18T13:08:05.203Z</time></trkpt><trkpt lat="43.7787952" lon="11.3638126"><ele>78.33333333333334</ele><time>2026-04-18T13:08:06.203Z</time></trkpt><trkpt lat="43.7785933" lon="11.3637916"><ele>76.66666666666667</ele><time>2026-04-18T13:08:07.203Z</time></trkpt><trkpt lat="43.7783808" lon="11.3637901"><ele>75.0</ele><time>2026-04-18T13:08:08.203Z</time></trkpt><trkpt lat="43.7781517" lon="11.3638043"><ele>74.0</ele><time>2026-04-18T13:08:09.202Z</time></trkpt><trkpt lat="43.7779267" lon="11.3638228"><ele>73.0</ele><time>2026-04-18T13:08:10.202Z</time></trkpt><trkpt lat="43.777693" lon="11.3638151"><ele>71.5</ele><time>2026-04-18T13:08:11.203Z</time></trkpt><trkpt lat="43.7774558" lon="11.3637786"><ele>70.0</ele><time>2026-04-18T13:08:12.203Z</time></trkpt><trkpt lat="43.7772335" lon="11.3637132"><ele>70.0</ele><time>2026-04-18T13:08:13.203Z</time></trkpt><trkpt lat="43.7770221" lon="11.3636332"><ele>70.0</ele><time>2026-04-18T13:08:14.202Z</time></trkpt><trkpt lat="43.7768176" lon="11.363538"><ele>70.0</ele><time>2026-04-18T13:08:15.203Z</time></trkpt><trkpt lat="43.7766249" lon="11.3634322"><ele>69.66666666666666</ele><time>2026-04-18T13:08:16.202Z</time></trkpt><trkpt lat="43.7764364" lon="11.3633274"><ele>69.33333333333333</ele><time>2026-04-18T13:08:17.203Z</time></trkpt><trkpt lat="43.7762494" lon="11.3632373"><ele>69.0</ele><time>2026-04-18T13:08:18.202Z</time></trkpt><trkpt lat="43.7760715" lon="11.3631489"><ele>69.0</ele><time>2026-04-18T13:08:19.203Z</time></trkpt><trkpt lat="43.775912" lon="11.3630713"><ele>69.0</ele><time>2026-04-18T13:08:20.203Z</time></trkpt><trkpt lat="43.7757558" lon="11.3630021"><ele>69.0</ele><time>2026-04-18T13:08:21.203Z</time></trkpt><trkpt lat="43.775609" lon="11.3629473"><ele>68.5</ele><time>2026-04-18T13:08:22.202Z</time></trkpt><trkpt lat="43.7754623" lon="11.3629088"><ele>68.0</ele><time>2026-04-18T13:08:23.203Z</time></trkpt><trkpt lat="43.7753237" lon="11.3628797"><ele>67.5</ele><time>2026-04-18T13:08:24.202Z</time></trkpt><trkpt lat="43.7751822" lon="11.3628583"><ele>67.0</ele><time>2026-04-18T13:08:25.202Z</time></trkpt><trkpt lat="43.7750332" lon="11.3628232"><ele>66.66666666666666</ele><time>2026-04-18T13:08:26.202Z</time></trkpt><trkpt lat="43.7748838" lon="11.3627864"><ele>66.33333333333333</ele><time>2026-04-18T13:08:27.202Z</time></trkpt><trkpt lat="43.774732" lon="11.3627454"><ele>66.0</ele><time>2026-04-18T13:08:28.202Z</time></trkpt><trkpt lat="43.7745714" lon="11.3626978"><ele>66.0</ele><time>2026-04-18T13:08:29.202Z</time></trkpt><trkpt lat="43.7744123" lon="11.3626545"><ele>66.0</ele><time>2026-04-18T13:08:30.202Z</time></trkpt><trkpt lat="43.774258" lon="11.3626074"><ele>66.0</ele><time>2026-04-18T13:08:31.202Z</time></trkpt><trkpt lat="43.7741086" lon="11.3625623"><ele>66.0</ele><time>2026-04-18T13:08:32.203Z</time></trkpt><trkpt lat="43.7739755" lon="11.3625214"><ele>66.0</ele><time>2026-04-18T13:08:33.202Z</time></trkpt><trkpt lat="43.7738532" lon="11.3624806"><ele>66.0</ele><time>2026-04-18T13:08:34.202Z</time></trkpt><trkpt lat="43.7737469" lon="11.3624531"><ele>66.0</ele><time>2026-04-18T13:08:35.203Z</time></trkpt><trkpt lat="43.7736398" lon="11.3624257"><ele>66.75</ele><time>2026-04-18T13:08:36.203Z</time></trkpt><trkpt lat="43.7735182" lon="11.3623953"><ele>67.5</ele><time>2026-04-18T13:08:37.202Z</time></trkpt><trkpt lat="43.7733932" lon="11.3623644"><ele>68.25</ele><time>2026-04-18T13:08:38.203Z</time></trkpt><trkpt lat="43.7732578" lon="11.3623266"><ele>69.0</ele><time>2026-04-18T13:08:39.203Z</time></trkpt><trkpt lat="43.7731189" lon="11.3622941"><ele>69.0</ele><time>2026-04-18T13:08:40.203Z</time></trkpt><trkpt lat="43.7729735" lon="11.3622584"><ele>69.0</ele><time>2026-04-18T13:08:41.202Z</time></trkpt><trkpt lat="43.7728324" lon="11.362216"><ele>69.0</ele><time>2026-04-18T13:08:42.203Z</time></trkpt><trkpt lat="43.7726917" lon="11.3621701"><ele>69.0</ele><time>2026-04-18T13:08:43.202Z</time></trkpt><trkpt lat="43.7725555" lon="11.3621054"><ele>68.75</ele><time>2026-04-18T13:08:44.202Z</time></trkpt><trkpt lat="43.7724277" lon="11.36201"><ele>68.5</ele><time>2026-04-18T13:08:45.203Z</time></trkpt><trkpt lat="43.7723076" lon="11.3618817"><ele>68.25</ele><time>2026-04-18T13:08:46.202Z</time></trkpt><trkpt lat="43.7722221" lon="11.3617178"><ele>68.0</ele><time>2026-04-18T13:08:47.202Z</time></trkpt><trkpt lat="43.7721651" lon="11.3615101"><ele>65.0</ele><time>2026-04-18T13:08:48.203Z</time></trkpt><trkpt lat="43.7721182" lon="11.3612826"><ele>62.0</ele><time>2026-04-18T13:08:49.202Z</time></trkpt><trkpt lat="43.7720505" lon="11.3610568"><ele>59.0</ele><time>2026-04-18T13:08:50.203Z</time></trkpt><trkpt lat="43.7719622" lon="11.3608316"><ele>59.0</ele><time>2026-04-18T13:08:51.203Z</time></trkpt><trkpt lat="43.7718882" lon="11.3606066"><ele>59.0</ele><time>2026-04-18T13:08:52.203Z</time></trkpt><trkpt lat="43.7718353" lon="11.360385"><ele>59.0</ele><time>2026-04-18T13:08:53.202Z</time></trkpt><trkpt lat="43.7717994" lon="11.3601515"><ele>62.333333333333336</ele><time>2026-04-18T13:08:54.202Z</time></trkpt><trkpt lat="43.7717724" lon="11.3599271"><ele>65.66666666666667</ele><time>2026-04-18T13:08:55.202Z</time></trkpt><trkpt lat="43.7717585" lon="11.359694"><ele>69.0</ele><time>2026-04-18T13:08:56.203Z</time></trkpt><trkpt lat="43.7717404" lon="11.3594545"><ele>69.0</ele><time>2026-04-18T13:08:57.203Z</time></trkpt><trkpt lat="43.7717256" lon="11.3592094"><ele>69.0</ele><time>2026-04-18T13:08:58.203Z</time></trkpt><trkpt lat="43.7717008" lon="11.3589632"><ele>69.0</ele><time>2026-04-18T13:08:59.203Z</time></trkpt><trkpt lat="43.7716763" lon="11.3586975"><ele>68.66666666666667</ele><time>2026-04-18T13:09:00.203Z</time></trkpt><trkpt lat="43.7716466" lon="11.3584444"><ele>68.33333333333334</ele><time>2026-04-18T13:09:01.203Z</time></trkpt><trkpt lat="43.7716138" lon="11.3582084"><ele>68.0</ele><time>2026-04-18T13:09:02.203Z</time></trkpt><trkpt lat="43.7715882" lon="11.3579851"><ele>68.0</ele><time>2026-04-18T13:09:03.203Z</time></trkpt><trkpt lat="43.7715726" lon="11.3577688"><ele>68.0</ele><time>2026-04-18T13:09:04.202Z</time></trkpt><trkpt lat="43.7715769" lon="11.3575519"><ele>68.0</ele><time>2026-04-18T13:09:05.202Z</time></trkpt><trkpt lat="43.7715957" lon="11.3573129"><ele>67.66666666666667</ele><time>2026-04-18T13:09:06.203Z</time></trkpt><trkpt lat="43.7716263" lon="11.3570686"><ele>67.33333333333333</ele><time>2026-04-18T13:09:07.203Z</time></trkpt><trkpt lat="43.7716519" lon="11.3568153"><ele>67.0</ele><time>2026-04-18T13:09:08.202Z</time></trkpt><trkpt lat="43.7716693" lon="11.3565423"><ele>66.66666666666666</ele><time>2026-04-18T13:09:09.203Z</time></trkpt><trkpt lat="43.771669" lon="11.3562578"><ele>66.33333333333333</ele><time>2026-04-18T13:09:10.203Z</time></trkpt><trkpt lat="43.7716491" lon="11.3559751"><ele>66.0</ele><time>2026-04-18T13:09:11.203Z</time></trkpt><trkpt lat="43.7716225" lon="11.3556756"><ele>66.0</ele><time>2026-04-18T13:09:12.203Z</time></trkpt><trkpt lat="43.7715867" lon="11.3553696"><ele>66.0</ele><time>2026-04-18T13:09:13.203Z</time></trkpt><trkpt lat="43.7715402" lon="11.3550628"><ele>66.0</ele><time>2026-04-18T13:09:14.203Z</time></trkpt><trkpt lat="43.771487" lon="11.3547512"><ele>66.0</ele><time>2026-04-18T13:09:15.202Z</time></trkpt><trkpt lat="43.7714248" lon="11.3544282"><ele>65.0</ele><time>2026-04-18T13:09:16.203Z</time></trkpt><trkpt lat="43.7713469" lon="11.3541173"><ele>64.0</ele><time>2026-04-18T13:09:17.202Z</time></trkpt><trkpt lat="43.7712638" lon="11.3537996"><ele>64.0</ele><time>2026-04-18T13:09:18.203Z</time></trkpt><trkpt lat="43.7711719" lon="11.3534875"><ele>64.0</ele><time>2026-04-18T13:09:19.203Z</time></trkpt><trkpt lat="43.7710778" lon="11.3531629"><ele>67.0</ele><time>2026-04-18T13:09:20.203Z</time></trkpt><trkpt lat="43.7709784" lon="11.3528434"><ele>70.0</ele><time>2026-04-18T13:09:21.203Z</time></trkpt><trkpt lat="43.7708784" lon="11.3525284"><ele>70.0</ele><time>2026-04-18T13:09:22.203Z</time></trkpt><trkpt lat="43.7707697" lon="11.3522243"><ele>70.0</ele><time>2026-04-18T13:09:23.203Z</time></trkpt><trkpt lat="43.7706472" lon="11.3519173"><ele>67.5</ele><time>2026-04-18T13:09:24.203Z</time></trkpt><trkpt lat="43.7705203" lon="11.3516075"><ele>65.0</ele><time>2026-04-18T13:09:25.203Z</time></trkpt><trkpt lat="43.7703898" lon="11.3512992"><ele>64.0</ele><time>2026-04-18T13:09:26.203Z</time></trkpt><trkpt lat="43.7702593" lon="11.35099"><ele>63.0</ele><time>2026-04-18T13:09:27.202Z</time></trkpt><trkpt lat="43.7701387" lon="11.3507007"><ele>63.66666666666667</ele><time>2026-04-18T13:09:28.203Z</time></trkpt><trkpt lat="43.7700324" lon="11.3504296"><ele>64.33333333333334</ele><time>2026-04-18T13:09:29.203Z</time></trkpt><trkpt lat="43.7699344" lon="11.3501753"><ele>65.0</ele><time>2026-04-18T13:09:30.203Z</time></trkpt><trkpt lat="43.7698379" lon="11.349944"><ele>65.0</ele><time>2026-04-18T13:09:31.203Z</time></trkpt><trkpt lat="43.7697448" lon="11.349723"><ele>65.0</ele><time>2026-04-18T13:09:32.203Z</time></trkpt><trkpt lat="43.7696568" lon="11.3495081"><ele>65.0</ele><time>2026-04-18T13:09:33.203Z</time></trkpt><trkpt lat="43.7695703" lon="11.3492954"><ele>64.66666666666667</ele><time>2026-04-18T13:09:34.202Z</time></trkpt><trkpt lat="43.769482" lon="11.3490716"><ele>64.33333333333333</ele><time>2026-04-18T13:09:35.203Z</time></trkpt><trkpt lat="43.769392" lon="11.348847"><ele>64.0</ele><time>2026-04-18T13:09:36.203Z</time></trkpt><trkpt lat="43.7692983" lon="11.3486194"><ele>64.33333333333333</ele><time>2026-04-18T13:09:37.203Z</time></trkpt><trkpt lat="43.7692044" lon="11.3483919"><ele>64.66666666666667</ele><time>2026-04-18T13:09:38.202Z</time></trkpt><trkpt lat="43.7691089" lon="11.3481608"><ele>65.0</ele><time>2026-04-18T13:09:39.203Z</time></trkpt><trkpt lat="43.7690165" lon="11.3479246"><ele>65.0</ele><time>2026-04-18T13:09:40.203Z</time></trkpt><trkpt lat="43.7689238" lon="11.3476905"><ele>65.0</ele><time>2026-04-18T13:09:41.203Z</time></trkpt><trkpt lat="43.7688216" lon="11.3474643"><ele>65.0</ele><time>2026-04-18T13:09:42.203Z</time></trkpt><trkpt lat="43.7687232" lon="11.3472249"><ele>64.66666666666667</ele><time>2026-04-18T13:09:43.203Z</time></trkpt><trkpt lat="43.7686251" lon="11.3469819"><ele>64.33333333333333</ele><time>2026-04-18T13:09:44.202Z</time></trkpt><trkpt lat="43.7685255" lon="11.3467364"><ele>64.0</ele><time>2026-04-18T13:09:45.203Z</time></trkpt><trkpt lat="43.7684246" lon="11.3464797"><ele>64.66666666666666</ele><time>2026-04-18T13:09:46.203Z</time></trkpt><trkpt lat="43.7683208" lon="11.3462238"><ele>65.33333333333333</ele><time>2026-04-18T13:09:47.203Z</time></trkpt><trkpt lat="43.7682134" lon="11.3459664"><ele>66.0</ele><time>2026-04-18T13:09:48.203Z</time></trkpt><trkpt lat="43.768101" lon="11.345709"><ele>64.0</ele><time>2026-04-18T13:09:49.203Z</time></trkpt><trkpt lat="43.7679767" lon="11.3454611"><ele>62.0</ele><time>2026-04-18T13:09:50.202Z</time></trkpt><trkpt lat="43.7678187" lon="11.3452193"><ele>65.0</ele><time>2026-04-18T13:09:51.203Z</time></trkpt><trkpt lat="43.7676507" lon="11.3449887"><ele>68.0</ele><time>2026-04-18T13:09:52.203Z</time></trkpt><trkpt lat="43.7674779" lon="11.344755"><ele>65.5</ele><time>2026-04-18T13:09:53.203Z</time></trkpt><trkpt lat="43.7673004" lon="11.3445135"><ele>63.0</ele><time>2026-04-18T13:09:54.203Z</time></trkpt><trkpt lat="43.7671235" lon="11.3442667"><ele>63.0</ele><time>2026-04-18T13:09:55.203Z</time></trkpt><trkpt lat="43.7669395" lon="11.3440163"><ele>63.0</ele><time>2026-04-18T13:09:56.202Z</time></trkpt><trkpt lat="43.7667556" lon="11.3437704"><ele>64.5</ele><time>2026-04-18T13:09:57.203Z</time></trkpt><trkpt lat="43.7665775" lon="11.3435241"><ele>66.0</ele><time>2026-04-18T13:09:58.203Z</time></trkpt><trkpt lat="43.7664019" lon="11.3432792"><ele>64.0</ele><time>2026-04-18T13:09:59.202Z</time></trkpt><trkpt lat="43.7662164" lon="11.3430303"><ele>62.0</ele><time>2026-04-18T13:10:00.203Z</time></trkpt><trkpt lat="43.7660484" lon="11.3428037"><ele>63.66666666666667</ele><time>2026-04-18T13:10:01.202Z</time></trkpt><trkpt lat="43.7658877" lon="11.342587"><ele>65.33333333333333</ele><time>2026-04-18T13:10:02.203Z</time></trkpt><trkpt lat="43.7657453" lon="11.3423529"><ele>67.0</ele><time>2026-04-18T13:10:03.202Z</time></trkpt><trkpt lat="43.7656154" lon="11.3420874"><ele>67.0</ele><time>2026-04-18T13:10:04.203Z</time></trkpt><trkpt lat="43.7655019" lon="11.3418186"><ele>67.0</ele><time>2026-04-18T13:10:05.202Z</time></trkpt><trkpt lat="43.7653999" lon="11.3415578"><ele>67.0</ele><time>2026-04-18T13:10:06.203Z</time></trkpt><trkpt lat="43.7652884" lon="11.3413135"><ele>68.66666666666666</ele><time>2026-04-18T13:10:07.203Z</time></trkpt><trkpt lat="43.765164" lon="11.3410773"><ele>70.33333333333333</ele><time>2026-04-18T13:10:08.202Z</time></trkpt><trkpt lat="43.7650383" lon="11.3408455"><ele>72.0</ele><time>2026-04-18T13:10:09.203Z</time></trkpt><trkpt lat="43.7649124" lon="11.3406138"><ele>69.0</ele><time>2026-04-18T13:10:10.203Z</time></trkpt><trkpt lat="43.7647898" lon="11.3403757"><ele>66.0</ele><time>2026-04-18T13:10:11.202Z</time></trkpt><trkpt lat="43.7646894" lon="11.3401429"><ele>63.0</ele><time>2026-04-18T13:10:12.203Z</time></trkpt><trkpt lat="43.7645978" lon="11.3399217"><ele>62.33333333333333</ele><time>2026-04-18T13:10:13.203Z</time></trkpt><trkpt lat="43.76451" lon="11.3396849"><ele>61.666666666666664</ele><time>2026-04-18T13:10:14.203Z</time></trkpt><trkpt lat="43.764426" lon="11.3394449"><ele>61.0</ele><time>2026-04-18T13:10:15.203Z</time></trkpt><trkpt lat="43.7643423" lon="11.3391974"><ele>63.33333333333333</ele><time>2026-04-18T13:10:16.203Z</time></trkpt><trkpt lat="43.7642666" lon="11.338947"><ele>65.66666666666667</ele><time>2026-04-18T13:10:17.203Z</time></trkpt><trkpt lat="43.7641866" lon="11.3386884"><ele>68.0</ele><time>2026-04-18T13:10:18.203Z</time></trkpt><trkpt lat="43.7641001" lon="11.3384341"><ele>68.0</ele><time>2026-04-18T13:10:19.202Z</time></trkpt><trkpt lat="43.7640109" lon="11.338182"><ele>68.0</ele><time>2026-04-18T13:10:20.203Z</time></trkpt><trkpt lat="43.7639216" lon="11.337922"><ele>68.0</ele><time>2026-04-18T13:10:21.203Z</time></trkpt><trkpt lat="43.7638385" lon="11.337663"><ele>68.0</ele><time>2026-04-18T13:10:22.203Z</time></trkpt><trkpt lat="43.7637503" lon="11.3374012"><ele>68.0</ele><time>2026-04-18T13:10:23.203Z</time></trkpt><trkpt lat="43.7636637" lon="11.3371364"><ele>68.0</ele><time>2026-04-18T13:10:24.203Z</time></trkpt><trkpt lat="43.7635748" lon="11.3368872"><ele>69.66666666666667</ele><time>2026-04-18T13:10:25.202Z</time></trkpt><trkpt lat="43.7634807" lon="11.3366298"><ele>71.33333333333333</ele><time>2026-04-18T13:10:26.203Z</time></trkpt><trkpt lat="43.7633806" lon="11.3363888"><ele>73.0</ele><time>2026-04-18T13:10:27.203Z</time></trkpt><trkpt lat="43.7632707" lon="11.336158"><ele>73.0</ele><time>2026-04-18T13:10:28.202Z</time></trkpt><trkpt lat="43.7631493" lon="11.3359391"><ele>73.0</ele><time>2026-04-18T13:10:29.203Z</time></trkpt><trkpt lat="43.7630187" lon="11.3357296"><ele>73.0</ele><time>2026-04-18T13:10:30.203Z</time></trkpt><trkpt lat="43.7628983" lon="11.335538"><ele>73.0</ele><time>2026-04-18T13:10:31.203Z</time></trkpt><trkpt lat="43.7627813" lon="11.3353518"><ele>73.0</ele><time>2026-04-18T13:10:32.203Z</time></trkpt><trkpt lat="43.7626702" lon="11.3351713"><ele>73.0</ele><time>2026-04-18T13:10:33.202Z</time></trkpt><trkpt lat="43.7625613" lon="11.3349954"><ele>73.0</ele><time>2026-04-18T13:10:34.203Z</time></trkpt><trkpt lat="43.7624474" lon="11.3348164"><ele>73.0</ele><time>2026-04-18T13:10:35.202Z</time></trkpt><trkpt lat="43.7623363" lon="11.3346356"><ele>73.0</ele><time>2026-04-18T13:10:36.203Z</time></trkpt><trkpt lat="43.7622225" lon="11.3344547"><ele>72.33333333333333</ele><time>2026-04-18T13:10:37.203Z</time></trkpt><trkpt lat="43.7621035" lon="11.3342705"><ele>71.66666666666667</ele><time>2026-04-18T13:10:38.203Z</time></trkpt><trkpt lat="43.7619887" lon="11.3340777"><ele>71.0</ele><time>2026-04-18T13:10:39.202Z</time></trkpt><trkpt lat="43.7618764" lon="11.3338808"><ele>71.0</ele><time>2026-04-18T13:10:40.203Z</time></trkpt><trkpt lat="43.7617595" lon="11.3336686"><ele>71.0</ele><time>2026-04-18T13:10:41.203Z</time></trkpt><trkpt lat="43.7616589" lon="11.3334522"><ele>71.0</ele><time>2026-04-18T13:10:42.202Z</time></trkpt><trkpt lat="43.7615667" lon="11.3332177"><ele>70.66666666666667</ele><time>2026-04-18T13:10:43.203Z</time></trkpt><trkpt lat="43.7614792" lon="11.3329686"><ele>70.33333333333333</ele><time>2026-04-18T13:10:44.203Z</time></trkpt><trkpt lat="43.7614067" lon="11.332708"><ele>70.0</ele><time>2026-04-18T13:10:45.203Z</time></trkpt><trkpt lat="43.7613332" lon="11.3324463"><ele>70.0</ele><time>2026-04-18T13:10:46.203Z</time></trkpt><trkpt lat="43.7612523" lon="11.3321798"><ele>70.0</ele><time>2026-04-18T13:10:47.203Z</time></trkpt><trkpt lat="43.761172" lon="11.331911"><ele>70.0</ele><time>2026-04-18T13:10:48.202Z</time></trkpt><trkpt lat="43.7610849" lon="11.331637"><ele>70.33333333333333</ele><time>2026-04-18T13:10:49.202Z</time></trkpt><trkpt lat="43.7610026" lon="11.3313581"><ele>70.66666666666667</ele><time>2026-04-18T13:10:50.203Z</time></trkpt><trkpt lat="43.760929" lon="11.331062"><ele>71.0</ele><time>2026-04-18T13:10:51.203Z</time></trkpt><trkpt lat="43.7608402" lon="11.330767"><ele>70.5</ele><time>2026-04-18T13:10:52.203Z</time></trkpt><trkpt lat="43.7607552" lon="11.3304815"><ele>70.0</ele><time>2026-04-18T13:10:53.203Z</time></trkpt><trkpt lat="43.7606618" lon="11.330187"><ele>70.0</ele><time>2026-04-18T13:10:54.202Z</time></trkpt><trkpt lat="43.7605598" lon="11.3298958"><ele>70.0</ele><time>2026-04-18T13:10:55.203Z</time></trkpt><trkpt lat="43.7604424" lon="11.3296337"><ele>70.0</ele><time>2026-04-18T13:10:56.202Z</time></trkpt><trkpt lat="43.7603181" lon="11.3294031"><ele>70.0</ele><time>2026-04-18T13:10:57.203Z</time></trkpt><trkpt lat="43.7601888" lon="11.3291971"><ele>70.0</ele><time>2026-04-18T13:10:58.203Z</time></trkpt><trkpt lat="43.76005" lon="11.3290107"><ele>70.0</ele><time>2026-04-18T13:10:59.202Z</time></trkpt><trkpt lat="43.7599144" lon="11.3288391"><ele>70.0</ele><time>2026-04-18T13:11:00.203Z</time></trkpt><trkpt lat="43.7597773" lon="11.3286954"><ele>70.0</ele><time>2026-04-18T13:11:01.203Z</time></trkpt><trkpt lat="43.7596388" lon="11.3285791"><ele>70.0</ele><time>2026-04-18T13:11:02.203Z</time></trkpt><trkpt lat="43.7595101" lon="11.3284754"><ele>70.0</ele><time>2026-04-18T13:11:03.203Z</time></trkpt><trkpt lat="43.759381" lon="11.3283828"><ele>70.0</ele><time>2026-04-18T13:11:04.203Z</time></trkpt><trkpt lat="43.7592499" lon="11.3283007"><ele>70.0</ele><time>2026-04-18T13:11:05.203Z</time></trkpt><trkpt lat="43.7591078" lon="11.3282228"><ele>69.66666666666666</ele><time>2026-04-18T13:11:06.203Z</time></trkpt><trkpt lat="43.7589675" lon="11.3281443"><ele>69.33333333333333</ele><time>2026-04-18T13:11:07.202Z</time></trkpt><trkpt lat="43.7588238" lon="11.3280626"><ele>69.0</ele><time>2026-04-18T13:11:08.203Z</time></trkpt><trkpt lat="43.7586755" lon="11.3279811"><ele>70.33333333333333</ele><time>2026-04-18T13:11:09.202Z</time></trkpt><trkpt lat="43.7585262" lon="11.327902"><ele>71.66666666666666</ele><time>2026-04-18T13:11:10.202Z</time></trkpt><trkpt lat="43.7583686" lon="11.3278239"><ele>73.0</ele><time>2026-04-18T13:11:11.202Z</time></trkpt><trkpt lat="43.7582148" lon="11.3277484"><ele>73.0</ele><time>2026-04-18T13:11:12.203Z</time></trkpt><trkpt lat="43.7580614" lon="11.3276787"><ele>73.0</ele><time>2026-04-18T13:11:13.203Z</time></trkpt><trkpt lat="43.7579113" lon="11.327607"><ele>73.0</ele><time>2026-04-18T13:11:14.203Z</time></trkpt><trkpt lat="43.7577709" lon="11.3275322"><ele>73.25</ele><time>2026-04-18T13:11:15.202Z</time></trkpt><trkpt lat="43.7576247" lon="11.3274606"><ele>73.5</ele><time>2026-04-18T13:11:16.203Z</time></trkpt><trkpt lat="43.7574778" lon="11.3273885"><ele>73.75</ele><time>2026-04-18T13:11:17.203Z</time></trkpt><trkpt lat="43.7573537" lon="11.327321"><ele>74.0</ele><time>2026-04-18T13:11:18.203Z</time></trkpt><trkpt lat="43.7572316" lon="11.3272585"><ele>73.5</ele><time>2026-04-18T13:11:19.203Z</time></trkpt><trkpt lat="43.7571095" lon="11.3271921"><ele>73.0</ele><time>2026-04-18T13:11:20.202Z</time></trkpt><trkpt lat="43.756993" lon="11.3271075"><ele>72.5</ele><time>2026-04-18T13:11:21.203Z</time></trkpt><trkpt lat="43.7568888" lon="11.3269934"><ele>72.0</ele><time>2026-04-18T13:11:22.202Z</time></trkpt><trkpt lat="43.756794" lon="11.3268572"><ele>72.0</ele><time>2026-04-18T13:11:23.203Z</time></trkpt><trkpt lat="43.7567346" lon="11.3267128"><ele>72.0</ele><time>2026-04-18T13:11:24.203Z</time></trkpt><trkpt lat="43.7567058" lon="11.3265721"><ele>72.0</ele><time>2026-04-18T13:11:25.203Z</time></trkpt><trkpt lat="43.7566858" lon="11.3264179"><ele>72.0</ele><time>2026-04-18T13:11:26.203Z</time></trkpt><trkpt lat="43.7566715" lon="11.3262654"><ele>71.25</ele><time>2026-04-18T13:11:27.203Z</time></trkpt><trkpt lat="43.7566624" lon="11.326109"><ele>70.5</ele><time>2026-04-18T13:11:28.203Z</time></trkpt><trkpt lat="43.756652" lon="11.3259541"><ele>69.75</ele><time>2026-04-18T13:11:29.202Z</time></trkpt><trkpt lat="43.7566255" lon="11.325797"><ele>69.0</ele><time>2026-04-18T13:11:30.202Z</time></trkpt><trkpt lat="43.7565766" lon="11.3256451"><ele>68.5</ele><time>2026-04-18T13:11:31.203Z</time></trkpt><trkpt lat="43.7565112" lon="11.3255103"><ele>68.0</ele><time>2026-04-18T13:11:32.203Z</time></trkpt><trkpt lat="43.7564456" lon="11.325364"><ele>67.5</ele><time>2026-04-18T13:11:33.203Z</time></trkpt><trkpt lat="43.7563888" lon="11.3252067"><ele>67.0</ele><time>2026-04-18T13:11:34.203Z</time></trkpt><trkpt lat="43.7563445" lon="11.3250354"><ele>67.0</ele><time>2026-04-18T13:11:35.202Z</time></trkpt><trkpt lat="43.7563283" lon="11.3248508"><ele>67.0</ele><time>2026-04-18T13:11:36.203Z</time></trkpt><trkpt lat="43.756334" lon="11.3246491"><ele>67.0</ele><time>2026-04-18T13:11:37.202Z</time></trkpt><trkpt lat="43.756357" lon="11.324441"><ele>67.0</ele><time>2026-04-18T13:11:38.203Z</time></trkpt><trkpt lat="43.7563725" lon="11.3242029"><ele>67.0</ele><time>2026-04-18T13:11:39.202Z</time></trkpt><trkpt lat="43.7563956" lon="11.3239387"><ele>67.0</ele><time>2026-04-18T13:11:40.203Z</time></trkpt><trkpt lat="43.7564335" lon="11.3236627"><ele>67.0</ele><time>2026-04-18T13:11:41.203Z</time></trkpt><trkpt lat="43.7564749" lon="11.3233833"><ele>66.66666666666666</ele><time>2026-04-18T13:11:42.203Z</time></trkpt><trkpt lat="43.7565118" lon="11.3231019"><ele>66.33333333333333</ele><time>2026-04-18T13:11:43.203Z</time></trkpt><trkpt lat="43.7565478" lon="11.3228047"><ele>66.0</ele><time>2026-04-18T13:11:44.203Z</time></trkpt><trkpt lat="43.7565697" lon="11.3224992"><ele>64.5</ele><time>2026-04-18T13:11:45.203Z</time></trkpt><trkpt lat="43.7565765" lon="11.3221815"><ele>63.0</ele><time>2026-04-18T13:11:46.202Z</time></trkpt><trkpt lat="43.7565679" lon="11.3218535"><ele>63.0</ele><time>2026-04-18T13:11:47.203Z</time></trkpt><trkpt lat="43.7565554" lon="11.3215211"><ele>63.0</ele><time>2026-04-18T13:11:48.203Z</time></trkpt><trkpt lat="43.7565315" lon="11.3211838"><ele>62.5</ele><time>2026-04-18T13:11:49.203Z</time></trkpt><trkpt lat="43.7564972" lon="11.3208402"><ele>62.0</ele><time>2026-04-18T13:11:50.203Z</time></trkpt><trkpt lat="43.7564566" lon="11.3204954"><ele>62.0</ele><time>2026-04-18T13:11:51.202Z</time></trkpt><trkpt lat="43.7564124" lon="11.3201429"><ele>62.0</ele><time>2026-04-18T13:11:52.202Z</time></trkpt><trkpt lat="43.756363" lon="11.3198241"><ele>62.0</ele><time>2026-04-18T13:11:53.203Z</time></trkpt><trkpt lat="43.7563146" lon="11.3195111"><ele>62.0</ele><time>2026-04-18T13:11:54.203Z</time></trkpt><trkpt lat="43.756274" lon="11.3192226"><ele>62.0</ele><time>2026-04-18T13:11:55.203Z</time></trkpt><trkpt lat="43.7562333" lon="11.3189551"><ele>62.333333333333336</ele><time>2026-04-18T13:11:56.203Z</time></trkpt><trkpt lat="43.7561983" lon="11.3187027"><ele>62.66666666666667</ele><time>2026-04-18T13:11:57.203Z</time></trkpt><trkpt lat="43.756159" lon="11.318465"><ele>63.0</ele><time>2026-04-18T13:11:58.203Z</time></trkpt><trkpt lat="43.7561256" lon="11.3182531"><ele>63.0</ele><time>2026-04-18T13:11:59.202Z</time></trkpt><trkpt lat="43.7560999" lon="11.3180814"><ele>63.0</ele><time>2026-04-18T13:12:00.203Z</time></trkpt><trkpt lat="43.7560861" lon="11.3179321"><ele>63.0</ele><time>2026-04-18T13:12:01.203Z</time></trkpt><trkpt lat="43.7560987" lon="11.3178007"><ele>63.0</ele><time>2026-04-18T13:12:02.202Z</time></trkpt><trkpt lat="43.7561322" lon="11.3176813"><ele>63.0</ele><time>2026-04-18T13:12:03.202Z</time></trkpt><trkpt lat="43.7561659" lon="11.3175598"><ele>63.0</ele><time>2026-04-18T13:12:04.203Z</time></trkpt><trkpt lat="43.7561794" lon="11.3174359"><ele>63.0</ele><time>2026-04-18T13:12:05.203Z</time></trkpt><trkpt lat="43.7561706" lon="11.3173247"><ele>63.0</ele><time>2026-04-18T13:12:06.203Z</time></trkpt><trkpt lat="43.7561262" lon="11.3172143"><ele>63.0</ele><time>2026-04-18T13:12:07.203Z</time></trkpt><trkpt lat="43.7560563" lon="11.3171057"><ele>63.0</ele><time>2026-04-18T13:12:08.203Z</time></trkpt><trkpt lat="43.7559892" lon="11.3169776"><ele>62.75</ele><time>2026-04-18T13:12:09.203Z</time></trkpt><trkpt lat="43.7559303" lon="11.3168295"><ele>62.5</ele><time>2026-04-18T13:12:10.203Z</time></trkpt><trkpt lat="43.7558909" lon="11.3166564"><ele>62.25</ele><time>2026-04-18T13:12:11.203Z</time></trkpt><trkpt lat="43.7558606" lon="11.3164932"><ele>62.0</ele><time>2026-04-18T13:12:12.203Z</time></trkpt><trkpt lat="43.7558159" lon="11.3163358"><ele>62.0</ele><time>2026-04-18T13:12:13.202Z</time></trkpt><trkpt lat="43.7557496" lon="11.3161832"><ele>62.0</ele><time>2026-04-18T13:12:14.203Z</time></trkpt><trkpt lat="43.755694" lon="11.3159994"><ele>62.0</ele><time>2026-04-18T13:12:15.203Z</time></trkpt><trkpt lat="43.7556508" lon="11.3157781"><ele>62.0</ele><time>2026-04-18T13:12:16.203Z</time></trkpt><trkpt lat="43.7556075" lon="11.3155523"><ele>61.66666666666667</ele><time>2026-04-18T13:12:17.202Z</time></trkpt><trkpt lat="43.7555635" lon="11.3153025"><ele>61.33333333333333</ele><time>2026-04-18T13:12:18.203Z</time></trkpt><trkpt lat="43.7555156" lon="11.3150396"><ele>61.0</ele><time>2026-04-18T13:12:19.202Z</time></trkpt><trkpt lat="43.7554639" lon="11.3147605"><ele>60.33333333333333</ele><time>2026-04-18T13:12:20.203Z</time></trkpt><trkpt lat="43.755419" lon="11.3144708"><ele>59.66666666666667</ele><time>2026-04-18T13:12:21.203Z</time></trkpt><trkpt lat="43.7553674" lon="11.314177"><ele>59.0</ele><time>2026-04-18T13:12:22.203Z</time></trkpt><trkpt lat="43.7553184" lon="11.3138755"><ele>59.0</ele><time>2026-04-18T13:12:23.202Z</time></trkpt><trkpt lat="43.7552689" lon="11.3135573"><ele>59.0</ele><time>2026-04-18T13:12:24.203Z</time></trkpt><trkpt lat="43.7552119" lon="11.3132438"><ele>59.333333333333336</ele><time>2026-04-18T13:12:25.203Z</time></trkpt><trkpt lat="43.7551663" lon="11.3129437"><ele>59.66666666666667</ele><time>2026-04-18T13:12:26.203Z</time></trkpt><trkpt lat="43.7551262" lon="11.3126407"><ele>60.0</ele><time>2026-04-18T13:12:27.203Z</time></trkpt><trkpt lat="43.7550905" lon="11.3123448"><ele>59.66666666666667</ele><time>2026-04-18T13:12:28.203Z</time></trkpt><trkpt lat="43.7550583" lon="11.3120603"><ele>59.333333333333336</ele><time>2026-04-18T13:12:29.202Z</time></trkpt><trkpt lat="43.7550328" lon="11.3117928"><ele>59.0</ele><time>2026-04-18T13:12:30.203Z</time></trkpt><trkpt lat="43.7550156" lon="11.3115421"><ele>58.5</ele><time>2026-04-18T13:12:31.202Z</time></trkpt><trkpt lat="43.7550016" lon="11.3113263"><ele>58.0</ele><time>2026-04-18T13:12:32.203Z</time></trkpt><trkpt lat="43.7549912" lon="11.3111447"><ele>57.5</ele><time>2026-04-18T13:12:33.202Z</time></trkpt><trkpt lat="43.7549825" lon="11.3109818"><ele>57.0</ele><time>2026-04-18T13:12:34.203Z</time></trkpt><trkpt lat="43.7549716" lon="11.3108299"><ele>57.0</ele><time>2026-04-18T13:12:35.203Z</time></trkpt><trkpt lat="43.7549688" lon="11.3106976"><ele>57.0</ele><time>2026-04-18T13:12:36.203Z</time></trkpt><trkpt lat="43.7549629" lon="11.3105891"><ele>57.0</ele><time>2026-04-18T13:12:37.202Z</time></trkpt><trkpt lat="43.7549578" lon="11.3104907"><ele>57.0</ele><time>2026-04-18T13:12:38.203Z</time></trkpt><trkpt lat="43.7549546" lon="11.3103551"><ele>57.0</ele><time>2026-04-18T13:12:40.203Z</time></trkpt><trkpt lat="43.7549636" lon="11.3102399"><ele>57.0</ele><time>2026-04-18T13:12:42.203Z</time></trkpt><trkpt lat="43.7549542" lon="11.3101367"><ele>57.2</ele><time>2026-04-18T13:12:44.203Z</time></trkpt><trkpt lat="43.7549523" lon="11.3099509"><ele>57.400000000000006</ele><time>2026-04-18T13:12:46.202Z</time></trkpt><trkpt lat="43.754956" lon="11.3098255"><ele>57.599999999999994</ele><time>2026-04-18T13:12:47.203Z</time></trkpt><trkpt lat="43.7549502" lon="11.3096971"><ele>57.8</ele><time>2026-04-18T13:12:48.202Z</time></trkpt><trkpt lat="43.7549493" lon="11.3095655"><ele>58.0</ele><time>2026-04-18T13:12:49.203Z</time></trkpt><trkpt lat="43.7549528" lon="11.3094331"><ele>58.25</ele><time>2026-04-18T13:12:50.202Z</time></trkpt><trkpt lat="43.7549563" lon="11.3092866"><ele>58.5</ele><time>2026-04-18T13:12:51.202Z</time></trkpt><trkpt lat="43.7549612" lon="11.3091216"><ele>58.75</ele><time>2026-04-18T13:12:52.203Z</time></trkpt><trkpt lat="43.7549742" lon="11.3089379"><ele>59.0</ele><time>2026-04-18T13:12:53.202Z</time></trkpt><trkpt lat="43.7549843" lon="11.3087624"><ele>59.0</ele><time>2026-04-18T13:12:54.203Z</time></trkpt><trkpt lat="43.7550005" lon="11.3085833"><ele>59.0</ele><time>2026-04-18T13:12:55.203Z</time></trkpt><trkpt lat="43.7550173" lon="11.3083979"><ele>59.0</ele><time>2026-04-18T13:12:56.202Z</time></trkpt><trkpt lat="43.7550364" lon="11.3082008"><ele>59.0</ele><time>2026-04-18T13:12:57.203Z</time></trkpt><trkpt lat="43.7550525" lon="11.3080123"><ele>59.0</ele><time>2026-04-18T13:12:58.203Z</time></trkpt><trkpt lat="43.7550761" lon="11.3078224"><ele>59.0</ele><time>2026-04-18T13:12:59.203Z</time></trkpt><trkpt lat="43.7551035" lon="11.3076369"><ele>59.0</ele><time>2026-04-18T13:13:00.203Z</time></trkpt><trkpt lat="43.7551274" lon="11.3074715"><ele>59.0</ele><time>2026-04-18T13:13:01.203Z</time></trkpt><trkpt lat="43.7551547" lon="11.30732"><ele>58.800000000000004</ele><time>2026-04-18T13:13:02.203Z</time></trkpt><trkpt lat="43.755173" lon="11.3071904"><ele>58.60000000000001</ele><time>2026-04-18T13:13:03.202Z</time></trkpt><trkpt lat="43.7551885" lon="11.307061"><ele>58.4</ele><time>2026-04-18T13:13:04.203Z</time></trkpt><trkpt lat="43.7552109" lon="11.3069361"><ele>58.2</ele><time>2026-04-18T13:13:05.203Z</time></trkpt><trkpt lat="43.7552334" lon="11.3068374"><ele>58.0</ele><time>2026-04-18T13:13:06.202Z</time></trkpt><trkpt lat="43.7553004" lon="11.3067078"><ele>58.0</ele><time>2026-04-18T13:13:08.203Z</time></trkpt><trkpt lat="43.7553603" lon="11.3066583"><ele>58.0</ele><time>2026-04-18T13:13:09.202Z</time></trkpt><trkpt lat="43.7554004" lon="11.3065643"><ele>58.0</ele><time>2026-04-18T13:13:10.203Z</time></trkpt><trkpt lat="43.7554346" lon="11.3064374"><ele>58.0</ele><time>2026-04-18T13:13:11.202Z</time></trkpt><trkpt lat="43.7554694" lon="11.3062811"><ele>58.0</ele><time>2026-04-18T13:13:12.202Z</time></trkpt><trkpt lat="43.7555032" lon="11.3061032"><ele>58.0</ele><time>2026-04-18T13:13:13.202Z</time></trkpt><trkpt lat="43.7555414" lon="11.3059088"><ele>58.0</ele><time>2026-04-18T13:13:14.203Z</time></trkpt><trkpt lat="43.7555752" lon="11.3057229"><ele>58.0</ele><time>2026-04-18T13:13:15.203Z</time></trkpt><trkpt lat="43.755612" lon="11.3055413"><ele>58.0</ele><time>2026-04-18T13:13:16.203Z</time></trkpt><trkpt lat="43.7556503" lon="11.3053657"><ele>57.75</ele><time>2026-04-18T13:13:17.203Z</time></trkpt><trkpt lat="43.7556872" lon="11.305186"><ele>57.5</ele><time>2026-04-18T13:13:18.203Z</time></trkpt><trkpt lat="43.7557204" lon="11.3050038"><ele>57.25</ele><time>2026-04-18T13:13:19.203Z</time></trkpt><trkpt lat="43.7557548" lon="11.3048173"><ele>57.0</ele><time>2026-04-18T13:13:20.203Z</time></trkpt><trkpt lat="43.7557893" lon="11.3046358"><ele>57.400000000000006</ele><time>2026-04-18T13:13:21.203Z</time></trkpt><trkpt lat="43.7558224" lon="11.3044731"><ele>57.800000000000004</ele><time>2026-04-18T13:13:22.202Z</time></trkpt><trkpt lat="43.755855" lon="11.3043209"><ele>58.2</ele><time>2026-04-18T13:13:23.203Z</time></trkpt><trkpt lat="43.7558847" lon="11.304176"><ele>58.6</ele><time>2026-04-18T13:13:24.203Z</time></trkpt><trkpt lat="43.7559122" lon="11.3040417"><ele>59.0</ele><time>2026-04-18T13:13:25.203Z</time></trkpt><trkpt lat="43.755935" lon="11.3039203"><ele>58.800000000000004</ele><time>2026-04-18T13:13:26.202Z</time></trkpt><trkpt lat="43.7559547" lon="11.3038088"><ele>58.60000000000001</ele><time>2026-04-18T13:13:27.203Z</time></trkpt><trkpt lat="43.7559671" lon="11.3036957"><ele>58.4</ele><time>2026-04-18T13:13:28.203Z</time></trkpt><trkpt lat="43.7559938" lon="11.3035729"><ele>58.2</ele><time>2026-04-18T13:13:29.202Z</time></trkpt><trkpt lat="43.7560147" lon="11.3034245"><ele>58.0</ele><time>2026-04-18T13:13:30.203Z</time></trkpt><trkpt lat="43.7560384" lon="11.3032559"><ele>58.0</ele><time>2026-04-18T13:13:31.203Z</time></trkpt><trkpt lat="43.7560721" lon="11.3030669"><ele>58.0</ele><time>2026-04-18T13:13:32.203Z</time></trkpt><trkpt lat="43.7561107" lon="11.3028607"><ele>58.0</ele><time>2026-04-18T13:13:33.202Z</time></trkpt><trkpt lat="43.756149" lon="11.3026606"><ele>58.0</ele><time>2026-04-18T13:13:34.202Z</time></trkpt><trkpt lat="43.7561865" lon="11.3024574"><ele>58.0</ele><time>2026-04-18T13:13:35.203Z</time></trkpt><trkpt lat="43.7562222" lon="11.3022489"><ele>58.0</ele><time>2026-04-18T13:13:36.202Z</time></trkpt><trkpt lat="43.7562596" lon="11.3020475"><ele>58.0</ele><time>2026-04-18T13:13:37.203Z</time></trkpt><trkpt lat="43.7562989" lon="11.3018517"><ele>57.8</ele><time>2026-04-18T13:13:38.202Z</time></trkpt><trkpt lat="43.7563321" lon="11.3016817"><ele>57.599999999999994</ele><time>2026-04-18T13:13:39.203Z</time></trkpt><trkpt lat="43.7563641" lon="11.3015255"><ele>57.400000000000006</ele><time>2026-04-18T13:13:40.202Z</time></trkpt><trkpt lat="43.7563927" lon="11.3013882"><ele>57.2</ele><time>2026-04-18T13:13:41.203Z</time></trkpt><trkpt lat="43.7564107" lon="11.301274"><ele>57.0</ele><time>2026-04-18T13:13:42.203Z</time></trkpt><trkpt lat="43.7564093" lon="11.3011733"><ele>57.0</ele><time>2026-04-18T13:13:43.202Z</time></trkpt><trkpt lat="43.7563211" lon="11.3010445"><ele>57.0</ele><time>2026-04-18T13:13:45.203Z</time></trkpt><trkpt lat="43.7562351" lon="11.3010228"><ele>57.0</ele><time>2026-04-18T13:13:46.203Z</time></trkpt><trkpt lat="43.7561384" lon="11.3010168"><ele>57.0</ele><time>2026-04-18T13:13:47.203Z</time></trkpt><trkpt lat="43.7560102" lon="11.3010342"><ele>57.0</ele><time>2026-04-18T13:13:48.203Z</time></trkpt><trkpt lat="43.7558931" lon="11.3010789"><ele>57.0</ele><time>2026-04-18T13:13:49.203Z</time></trkpt><trkpt lat="43.7557949" lon="11.3011588"><ele>57.0</ele><time>2026-04-18T13:13:50.203Z</time></trkpt><trkpt lat="43.7557225" lon="11.3012676"><ele>57.0</ele><time>2026-04-18T13:13:51.203Z</time></trkpt><trkpt lat="43.7556458" lon="11.301366"><ele>57.0</ele><time>2026-04-18T13:13:52.202Z</time></trkpt><trkpt lat="43.7555679" lon="11.30144"><ele>57.0</ele><time>2026-04-18T13:13:53.203Z</time></trkpt><trkpt lat="43.7554728" lon="11.3014263"><ele>57.25</ele><time>2026-04-18T13:13:54.202Z</time></trkpt><trkpt lat="43.7553676" lon="11.3013953"><ele>57.5</ele><time>2026-04-18T13:13:55.203Z</time></trkpt><trkpt lat="43.7552435" lon="11.3013283"><ele>57.75</ele><time>2026-04-18T13:13:56.203Z</time></trkpt><trkpt lat="43.7551105" lon="11.3012653"><ele>58.0</ele><time>2026-04-18T13:13:57.203Z</time></trkpt><trkpt lat="43.7549584" lon="11.3012033"><ele>58.0</ele><time>2026-04-18T13:13:58.202Z</time></trkpt><trkpt lat="43.7547853" lon="11.3011282"><ele>58.0</ele><time>2026-04-18T13:13:59.203Z</time></trkpt><trkpt lat="43.7546056" lon="11.3010359"><ele>58.0</ele><time>2026-04-18T13:14:00.202Z</time></trkpt><trkpt lat="43.7544152" lon="11.3009354"><ele>57.666666666666664</ele><time>2026-04-18T13:14:01.203Z</time></trkpt><trkpt lat="43.7542205" lon="11.3008221"><ele>57.33333333333333</ele><time>2026-04-18T13:14:02.202Z</time></trkpt><trkpt lat="43.7540142" lon="11.3007039"><ele>57.0</ele><time>2026-04-18T13:14:03.203Z</time></trkpt><trkpt lat="43.7538022" lon="11.3005778"><ele>57.0</ele><time>2026-04-18T13:14:04.203Z</time></trkpt><trkpt lat="43.7535822" lon="11.3004459"><ele>57.0</ele><time>2026-04-18T13:14:05.203Z</time></trkpt><trkpt lat="43.7533552" lon="11.3003114"><ele>56.5</ele><time>2026-04-18T13:14:06.203Z</time></trkpt><trkpt lat="43.7531253" lon="11.3001721"><ele>56.0</ele><time>2026-04-18T13:14:07.202Z</time></trkpt><trkpt lat="43.7528878" lon="11.3000322"><ele>56.5</ele><time>2026-04-18T13:14:08.202Z</time></trkpt><trkpt lat="43.7526498" lon="11.299885"><ele>57.0</ele><time>2026-04-18T13:14:09.203Z</time></trkpt><trkpt lat="43.7524104" lon="11.2997252"><ele>55.0</ele><time>2026-04-18T13:14:10.202Z</time></trkpt><trkpt lat="43.7521687" lon="11.2995509"><ele>53.0</ele><time>2026-04-18T13:14:11.202Z</time></trkpt><trkpt lat="43.7519273" lon="11.2993683"><ele>56.0</ele><time>2026-04-18T13:14:12.203Z</time></trkpt><trkpt lat="43.7516906" lon="11.2991759"><ele>59.0</ele><time>2026-04-18T13:14:13.203Z</time></trkpt><trkpt lat="43.7514518" lon="11.2989668"><ele>58.5</ele><time>2026-04-18T13:14:14.203Z</time></trkpt><trkpt lat="43.7512223" lon="11.298745"><ele>58.0</ele><time>2026-04-18T13:14:15.203Z</time></trkpt><trkpt lat="43.7509998" lon="11.2985145"><ele>57.5</ele><time>2026-04-18T13:14:16.203Z</time></trkpt><trkpt lat="43.7507733" lon="11.2982771"><ele>57.0</ele><time>2026-04-18T13:14:17.202Z</time></trkpt><trkpt lat="43.7505482" lon="11.2980407"><ele>57.0</ele><time>2026-04-18T13:14:18.203Z</time></trkpt><trkpt lat="43.750326" lon="11.2978006"><ele>57.0</ele><time>2026-04-18T13:14:19.203Z</time></trkpt><trkpt lat="43.7501042" lon="11.2975587"><ele>59.5</ele><time>2026-04-18T13:14:20.202Z</time></trkpt><trkpt lat="43.7498825" lon="11.2973185"><ele>62.0</ele><time>2026-04-18T13:14:21.203Z</time></trkpt><trkpt lat="43.7496601" lon="11.297079"><ele>62.0</ele><time>2026-04-18T13:14:22.203Z</time></trkpt><trkpt lat="43.7494317" lon="11.2968457"><ele>62.0</ele><time>2026-04-18T13:14:23.203Z</time></trkpt><trkpt lat="43.7492033" lon="11.2966086"><ele>63.0</ele><time>2026-04-18T13:14:24.203Z</time></trkpt><trkpt lat="43.748987" lon="11.2963612"><ele>64.0</ele><time>2026-04-18T13:14:25.202Z</time></trkpt><trkpt lat="43.7487943" lon="11.2960952"><ele>64.0</ele><time>2026-04-18T13:14:26.203Z</time></trkpt><trkpt lat="43.7486312" lon="11.2958157"><ele>64.0</ele><time>2026-04-18T13:14:27.203Z</time></trkpt><trkpt lat="43.7484957" lon="11.2955214"><ele>69.0</ele><time>2026-04-18T13:14:28.203Z</time></trkpt><trkpt lat="43.7483871" lon="11.2952054"><ele>74.0</ele><time>2026-04-18T13:14:29.202Z</time></trkpt><trkpt lat="43.7483083" lon="11.2948736"><ele>74.5</ele><time>2026-04-18T13:14:30.203Z</time></trkpt><trkpt lat="43.7482579" lon="11.2945219"><ele>75.0</ele><time>2026-04-18T13:14:31.203Z</time></trkpt><trkpt lat="43.7482363" lon="11.2941623"><ele>76.0</ele><time>2026-04-18T13:14:32.202Z</time></trkpt><trkpt lat="43.7482407" lon="11.2937952"><ele>77.0</ele><time>2026-04-18T13:14:33.203Z</time></trkpt><trkpt lat="43.7482608" lon="11.2934251"><ele>79.0</ele><time>2026-04-18T13:14:34.203Z</time></trkpt><trkpt lat="43.7482795" lon="11.2930516"><ele>81.0</ele><time>2026-04-18T13:14:35.203Z</time></trkpt><trkpt lat="43.7482912" lon="11.2926733"><ele>81.0</ele><time>2026-04-18T13:14:36.203Z</time></trkpt><trkpt lat="43.7483019" lon="11.2923079"><ele>81.0</ele><time>2026-04-18T13:14:37.203Z</time></trkpt><trkpt lat="43.7483147" lon="11.2919487"><ele>80.5</ele><time>2026-04-18T13:14:38.202Z</time></trkpt><trkpt lat="43.7483274" lon="11.2915896"><ele>80.0</ele><time>2026-04-18T13:14:39.203Z</time></trkpt><trkpt lat="43.7483311" lon="11.2912256"><ele>83.5</ele><time>2026-04-18T13:14:40.202Z</time></trkpt><trkpt lat="43.7483328" lon="11.290858"><ele>87.0</ele><time>2026-04-18T13:14:41.203Z</time></trkpt><trkpt lat="43.7483291" lon="11.290491"><ele>89.0</ele><time>2026-04-18T13:14:42.203Z</time></trkpt><trkpt lat="43.7483098" lon="11.2901332"><ele>91.0</ele><time>2026-04-18T13:14:43.202Z</time></trkpt><trkpt lat="43.7482674" lon="11.2897842"><ele>93.5</ele><time>2026-04-18T13:14:44.203Z</time></trkpt><trkpt lat="43.7481956" lon="11.2894451"><ele>96.0</ele><time>2026-04-18T13:14:45.203Z</time></trkpt><trkpt lat="43.7480951" lon="11.2891156"><ele>99.5</ele><time>2026-04-18T13:14:46.203Z</time></trkpt><trkpt lat="43.7479662" lon="11.2888007"><ele>103.0</ele><time>2026-04-18T13:14:47.203Z</time></trkpt><trkpt lat="43.7478213" lon="11.2884943"><ele>101.5</ele><time>2026-04-18T13:14:48.203Z</time></trkpt><trkpt lat="43.7476735" lon="11.2881994"><ele>100.0</ele><time>2026-04-18T13:14:49.203Z</time></trkpt><trkpt lat="43.7475412" lon="11.2879212"><ele>100.0</ele><time>2026-04-18T13:14:50.202Z</time></trkpt><trkpt lat="43.7474275" lon="11.287657"><ele>100.0</ele><time>2026-04-18T13:14:51.203Z</time></trkpt><trkpt lat="43.747325" lon="11.2874067"><ele>100.0</ele><time>2026-04-18T13:14:52.203Z</time></trkpt><trkpt lat="43.7472262" lon="11.2871656"><ele>104.0</ele><time>2026-04-18T13:14:53.203Z</time></trkpt><trkpt lat="43.7471329" lon="11.2869277"><ele>108.0</ele><time>2026-04-18T13:14:54.203Z</time></trkpt><trkpt lat="43.7470451" lon="11.2867006"><ele>112.0</ele><time>2026-04-18T13:14:55.203Z</time></trkpt><trkpt lat="43.7469675" lon="11.286483"><ele>113.66666666666667</ele><time>2026-04-18T13:14:56.203Z</time></trkpt><trkpt lat="43.7468889" lon="11.2862716"><ele>115.33333333333334</ele><time>2026-04-18T13:14:57.203Z</time></trkpt><trkpt lat="43.7468153" lon="11.2860729"><ele>117.0</ele><time>2026-04-18T13:14:58.203Z</time></trkpt><trkpt lat="43.7467479" lon="11.2858871"><ele>112.25</ele><time>2026-04-18T13:14:59.203Z</time></trkpt><trkpt lat="43.7466827" lon="11.2857127"><ele>107.5</ele><time>2026-04-18T13:15:00.202Z</time></trkpt><trkpt lat="43.7466214" lon="11.2855485"><ele>102.75</ele><time>2026-04-18T13:15:01.203Z</time></trkpt><trkpt lat="43.7465618" lon="11.285385"><ele>98.0</ele><time>2026-04-18T13:15:02.202Z</time></trkpt><trkpt lat="43.7465057" lon="11.2852273"><ele>98.0</ele><time>2026-04-18T13:15:03.203Z</time></trkpt><trkpt lat="43.7464508" lon="11.2850767"><ele>98.0</ele><time>2026-04-18T13:15:04.203Z</time></trkpt><trkpt lat="43.7463917" lon="11.2849221"><ele>98.0</ele><time>2026-04-18T13:15:05.202Z</time></trkpt><trkpt lat="43.7463285" lon="11.2847552"><ele>98.0</ele><time>2026-04-18T13:15:06.202Z</time></trkpt><trkpt lat="43.7462631" lon="11.2845781"><ele>96.33333333333333</ele><time>2026-04-18T13:15:07.203Z</time></trkpt><trkpt lat="43.7461935" lon="11.284394"><ele>94.66666666666666</ele><time>2026-04-18T13:15:08.202Z</time></trkpt><trkpt lat="43.7461172" lon="11.2842052"><ele>93.0</ele><time>2026-04-18T13:15:09.203Z</time></trkpt><trkpt lat="43.7460327" lon="11.2840217"><ele>89.0</ele><time>2026-04-18T13:15:10.203Z</time></trkpt><trkpt lat="43.7459366" lon="11.283851"><ele>85.0</ele><time>2026-04-18T13:15:11.203Z</time></trkpt><trkpt lat="43.7458357" lon="11.2836885"><ele>81.0</ele><time>2026-04-18T13:15:12.203Z</time></trkpt><trkpt lat="43.7457271" lon="11.2835341"><ele>81.0</ele><time>2026-04-18T13:15:13.203Z</time></trkpt><trkpt lat="43.7456097" lon="11.2833874"><ele>81.0</ele><time>2026-04-18T13:15:14.203Z</time></trkpt><trkpt lat="43.7454788" lon="11.2832464"><ele>81.0</ele><time>2026-04-18T13:15:15.203Z</time></trkpt><trkpt lat="43.7453365" lon="11.2831085"><ele>79.0</ele><time>2026-04-18T13:15:16.203Z</time></trkpt><trkpt lat="43.7451804" lon="11.2829702"><ele>77.0</ele><time>2026-04-18T13:15:17.203Z</time></trkpt><trkpt lat="43.745015" lon="11.2828246"><ele>75.0</ele><time>2026-04-18T13:15:18.202Z</time></trkpt><trkpt lat="43.7448417" lon="11.2826664"><ele>75.0</ele><time>2026-04-18T13:15:19.202Z</time></trkpt><trkpt lat="43.7446643" lon="11.282502"><ele>75.0</ele><time>2026-04-18T13:15:20.202Z</time></trkpt><trkpt lat="43.7444868" lon="11.2823371"><ele>75.0</ele><time>2026-04-18T13:15:21.203Z</time></trkpt><trkpt lat="43.7443159" lon="11.2821794"><ele>75.33333333333333</ele><time>2026-04-18T13:15:22.203Z</time></trkpt><trkpt lat="43.7441481" lon="11.2820302"><ele>75.66666666666666</ele><time>2026-04-18T13:15:23.202Z</time></trkpt><trkpt lat="43.7439751" lon="11.2818766"><ele>76.0</ele><time>2026-04-18T13:15:24.202Z</time></trkpt><trkpt lat="43.7438077" lon="11.2817207"><ele>76.0</ele><time>2026-04-18T13:15:25.203Z</time></trkpt><trkpt lat="43.7436543" lon="11.2815733"><ele>76.0</ele><time>2026-04-18T13:15:26.203Z</time></trkpt><trkpt lat="43.7435135" lon="11.2814313"><ele>76.0</ele><time>2026-04-18T13:15:27.202Z</time></trkpt><trkpt lat="43.7433843" lon="11.2813011"><ele>76.25</ele><time>2026-04-18T13:15:28.203Z</time></trkpt><trkpt lat="43.7432755" lon="11.2811804"><ele>76.5</ele><time>2026-04-18T13:15:29.203Z</time></trkpt><trkpt lat="43.7431862" lon="11.2810586"><ele>76.75</ele><time>2026-04-18T13:15:30.202Z</time></trkpt><trkpt lat="43.7431177" lon="11.2809298"><ele>77.0</ele><time>2026-04-18T13:15:31.203Z</time></trkpt><trkpt lat="43.7430504" lon="11.2807976"><ele>77.0</ele><time>2026-04-18T13:15:32.202Z</time></trkpt><trkpt lat="43.74298" lon="11.2806759"><ele>77.0</ele><time>2026-04-18T13:15:33.203Z</time></trkpt><trkpt lat="43.7429036" lon="11.2805671"><ele>77.0</ele><time>2026-04-18T13:15:34.203Z</time></trkpt><trkpt lat="43.7428277" lon="11.2804703"><ele>77.0</ele><time>2026-04-18T13:15:35.203Z</time></trkpt><trkpt lat="43.7427555" lon="11.2803806"><ele>77.0</ele><time>2026-04-18T13:15:36.203Z</time></trkpt><trkpt lat="43.7426859" lon="11.2803118"><ele>77.16666666666667</ele><time>2026-04-18T13:15:37.203Z</time></trkpt><trkpt lat="43.7426235" lon="11.2802557"><ele>77.33333333333334</ele><time>2026-04-18T13:15:38.203Z</time></trkpt><trkpt lat="43.7425692" lon="11.2802088"><ele>77.5</ele><time>2026-04-18T13:15:39.203Z</time></trkpt><trkpt lat="43.7424951" lon="11.2801527"><ele>77.66666666666667</ele><time>2026-04-18T13:15:41.203Z</time></trkpt><trkpt lat="43.7424215" lon="11.2800745"><ele>77.83333333333333</ele><time>2026-04-18T13:15:56.202Z</time></trkpt><trkpt lat="43.7423641" lon="11.2800043"><ele>78.0</ele><time>2026-04-18T13:15:57.203Z</time></trkpt><trkpt lat="43.7423162" lon="11.2799408"><ele>78.0</ele><time>2026-04-18T13:15:58.203Z</time></trkpt><trkpt lat="43.7422666" lon="11.2798613"><ele>78.0</ele><time>2026-04-18T13:15:59.202Z</time></trkpt><trkpt lat="43.7422139" lon="11.2797642"><ele>78.0</ele><time>2026-04-18T13:16:00.202Z</time></trkpt><trkpt lat="43.7421699" lon="11.2796836"><ele>78.0</ele><time>2026-04-18T13:16:01.203Z</time></trkpt><trkpt lat="43.7421048" lon="11.2796572"><ele>78.0</ele><time>2026-04-18T13:16:04.202Z</time></trkpt><trkpt lat="43.7419898" lon="11.2796531"><ele>78.0</ele><time>2026-04-18T13:16:46.203Z</time></trkpt><trkpt lat="43.741852" lon="11.279646"><ele>77.75</ele><time>2026-04-18T13:16:48.203Z</time></trkpt><trkpt lat="43.7417546" lon="11.2796339"><ele>77.5</ele><time>2026-04-18T13:16:49.203Z</time></trkpt><trkpt lat="43.7416457" lon="11.2795899"><ele>77.25</ele><time>2026-04-18T13:16:50.203Z</time></trkpt><trkpt lat="43.741521" lon="11.2795213"><ele>77.0</ele><time>2026-04-18T13:16:51.203Z</time></trkpt><trkpt lat="43.7413882" lon="11.2794377"><ele>77.0</ele><time>2026-04-18T13:16:52.202Z</time></trkpt><trkpt lat="43.741258" lon="11.2793117"><ele>77.0</ele><time>2026-04-18T13:16:53.203Z</time></trkpt><trkpt lat="43.7411291" lon="11.2791557"><ele>77.0</ele><time>2026-04-18T13:16:54.203Z</time></trkpt><trkpt lat="43.7410066" lon="11.2789708"><ele>77.33333333333334</ele><time>2026-04-18T13:16:55.203Z</time></trkpt><trkpt lat="43.7408858" lon="11.2787632"><ele>77.66666666666667</ele><time>2026-04-18T13:16:56.203Z</time></trkpt><trkpt lat="43.7407714" lon="11.2785263"><ele>78.0</ele><time>2026-04-18T13:16:57.203Z</time></trkpt><trkpt lat="43.7406719" lon="11.2782725"><ele>78.33333333333333</ele><time>2026-04-18T13:16:58.203Z</time></trkpt><trkpt lat="43.7405845" lon="11.2780273"><ele>78.66666666666666</ele><time>2026-04-18T13:16:59.202Z</time></trkpt><trkpt lat="43.7405145" lon="11.2777847"><ele>79.0</ele><time>2026-04-18T13:17:00.202Z</time></trkpt><trkpt lat="43.7404576" lon="11.2775474"><ele>79.0</ele><time>2026-04-18T13:17:01.203Z</time></trkpt><trkpt lat="43.7404154" lon="11.2773062"><ele>79.0</ele><time>2026-04-18T13:17:02.202Z</time></trkpt><trkpt lat="43.7403777" lon="11.2770509"><ele>79.0</ele><time>2026-04-18T13:17:03.202Z</time></trkpt><trkpt lat="43.7403502" lon="11.2767925"><ele>78.0</ele><time>2026-04-18T13:17:04.203Z</time></trkpt><trkpt lat="43.740322" lon="11.2765396"><ele>77.0</ele><time>2026-04-18T13:17:05.203Z</time></trkpt><trkpt lat="43.740303" lon="11.2762815"><ele>76.0</ele><time>2026-04-18T13:17:06.202Z</time></trkpt><trkpt lat="43.7402802" lon="11.2760121"><ele>75.33333333333333</ele><time>2026-04-18T13:17:07.203Z</time></trkpt><trkpt lat="43.7402529" lon="11.2757298"><ele>74.66666666666667</ele><time>2026-04-18T13:17:08.203Z</time></trkpt><trkpt lat="43.7402234" lon="11.2754377"><ele>74.0</ele><time>2026-04-18T13:17:09.203Z</time></trkpt><trkpt lat="43.7401912" lon="11.2751355"><ele>77.33333333333334</ele><time>2026-04-18T13:17:10.202Z</time></trkpt><trkpt lat="43.7401477" lon="11.2748337"><ele>80.66666666666667</ele><time>2026-04-18T13:17:11.202Z</time></trkpt><trkpt lat="43.7400975" lon="11.2745327"><ele>84.0</ele><time>2026-04-18T13:17:12.203Z</time></trkpt><trkpt lat="43.7400344" lon="11.2742234"><ele>82.0</ele><time>2026-04-18T13:17:13.203Z</time></trkpt><trkpt lat="43.739956" lon="11.2739019"><ele>80.0</ele><time>2026-04-18T13:17:14.202Z</time></trkpt><trkpt lat="43.7398653" lon="11.2735655"><ele>80.0</ele><time>2026-04-18T13:17:15.202Z</time></trkpt><trkpt lat="43.7397618" lon="11.2732225"><ele>80.0</ele><time>2026-04-18T13:17:16.203Z</time></trkpt><trkpt lat="43.7396378" lon="11.2728804"><ele>81.0</ele><time>2026-04-18T13:17:17.202Z</time></trkpt><trkpt lat="43.7394983" lon="11.2725451"><ele>82.0</ele><time>2026-04-18T13:17:18.202Z</time></trkpt><trkpt lat="43.739342" lon="11.2722106"><ele>82.0</ele><time>2026-04-18T13:17:19.203Z</time></trkpt><trkpt lat="43.7391694" lon="11.2718763"><ele>82.0</ele><time>2026-04-18T13:17:20.202Z</time></trkpt><trkpt lat="43.7389803" lon="11.2715523"><ele>80.5</ele><time>2026-04-18T13:17:21.203Z</time></trkpt><trkpt lat="43.738782" lon="11.2712225"><ele>79.0</ele><time>2026-04-18T13:17:22.203Z</time></trkpt><trkpt lat="43.7385784" lon="11.2708734"><ele>82.0</ele><time>2026-04-18T13:17:23.202Z</time></trkpt><trkpt lat="43.7383772" lon="11.2705402"><ele>85.0</ele><time>2026-04-18T13:17:24.203Z</time></trkpt><trkpt lat="43.7381708" lon="11.2702042"><ele>85.0</ele><time>2026-04-18T13:17:25.203Z</time></trkpt><trkpt lat="43.7379576" lon="11.2698596"><ele>85.0</ele><time>2026-04-18T13:17:26.203Z</time></trkpt><trkpt lat="43.7377386" lon="11.2695117"><ele>86.0</ele><time>2026-04-18T13:17:27.203Z</time></trkpt><trkpt lat="43.7375244" lon="11.2691589"><ele>87.0</ele><time>2026-04-18T13:17:28.203Z</time></trkpt><trkpt lat="43.7373109" lon="11.2688116"><ele>84.0</ele><time>2026-04-18T13:17:29.203Z</time></trkpt><trkpt lat="43.7370977" lon="11.268449"><ele>81.0</ele><time>2026-04-18T13:17:30.203Z</time></trkpt><trkpt lat="43.7368878" lon="11.2680957"><ele>84.5</ele><time>2026-04-18T13:17:31.202Z</time></trkpt><trkpt lat="43.7366804" lon="11.2677291"><ele>88.0</ele><time>2026-04-18T13:17:32.202Z</time></trkpt><trkpt lat="43.7364687" lon="11.2673671"><ele>89.5</ele><time>2026-04-18T13:17:33.203Z</time></trkpt><trkpt lat="43.7362652" lon="11.2669923"><ele>91.0</ele><time>2026-04-18T13:17:34.203Z</time></trkpt><trkpt lat="43.7360521" lon="11.2666182"><ele>87.0</ele><time>2026-04-18T13:17:35.203Z</time></trkpt><trkpt lat="43.7358415" lon="11.2662436"><ele>83.0</ele><time>2026-04-18T13:17:36.203Z</time></trkpt><trkpt lat="43.7356276" lon="11.2658736"><ele>80.5</ele><time>2026-04-18T13:17:37.203Z</time></trkpt><trkpt lat="43.735415" lon="11.2655085"><ele>78.0</ele><time>2026-04-18T13:17:38.203Z</time></trkpt><trkpt lat="43.7352068" lon="11.2651559"><ele>82.0</ele><time>2026-04-18T13:17:39.202Z</time></trkpt><trkpt lat="43.7350059" lon="11.2648165"><ele>86.0</ele><time>2026-04-18T13:17:40.202Z</time></trkpt><trkpt lat="43.7348044" lon="11.2644774"><ele>86.0</ele><time>2026-04-18T13:17:41.203Z</time></trkpt><trkpt lat="43.7346006" lon="11.2641419"><ele>86.0</ele><time>2026-04-18T13:17:42.202Z</time></trkpt><trkpt lat="43.734395" lon="11.2638065"><ele>88.0</ele><time>2026-04-18T13:17:43.202Z</time></trkpt><trkpt lat="43.7341955" lon="11.2634669"><ele>90.0</ele><time>2026-04-18T13:17:44.203Z</time></trkpt><trkpt lat="43.7339908" lon="11.2631259"><ele>87.0</ele><time>2026-04-18T13:17:45.202Z</time></trkpt><trkpt lat="43.7337927" lon="11.2627748"><ele>84.0</ele><time>2026-04-18T13:17:46.202Z</time></trkpt><trkpt lat="43.733601" lon="11.2624281"><ele>83.0</ele><time>2026-04-18T13:17:47.203Z</time></trkpt><trkpt lat="43.7334053" lon="11.2620747"><ele>82.0</ele><time>2026-04-18T13:17:48.203Z</time></trkpt><trkpt lat="43.7332076" lon="11.2617208"><ele>79.0</ele><time>2026-04-18T13:17:49.203Z</time></trkpt><trkpt lat="43.7329994" lon="11.2613676"><ele>76.0</ele><time>2026-04-18T13:17:50.202Z</time></trkpt><trkpt lat="43.7327939" lon="11.2610164"><ele>79.0</ele><time>2026-04-18T13:17:51.203Z</time></trkpt><trkpt lat="43.7325834" lon="11.2606649"><ele>82.0</ele><time>2026-04-18T13:17:52.203Z</time></trkpt><trkpt lat="43.7323711" lon="11.2603068"><ele>82.0</ele><time>2026-04-18T13:17:53.202Z</time></trkpt><trkpt lat="43.7321639" lon="11.2599496"><ele>82.0</ele><time>2026-04-18T13:17:54.202Z</time></trkpt><trkpt lat="43.731953" lon="11.2595934"><ele>83.5</ele><time>2026-04-18T13:17:55.203Z</time></trkpt><trkpt lat="43.731742" lon="11.2592396"><ele>85.0</ele><time>2026-04-18T13:17:56.202Z</time></trkpt><trkpt lat="43.7315317" lon="11.2588797"><ele>80.5</ele><time>2026-04-18T13:17:57.202Z</time></trkpt><trkpt lat="43.7313225" lon="11.2585263"><ele>76.0</ele><time>2026-04-18T13:17:58.202Z</time></trkpt><trkpt lat="43.7311135" lon="11.2581708"><ele>79.0</ele><time>2026-04-18T13:17:59.203Z</time></trkpt><trkpt lat="43.7309049" lon="11.2578159"><ele>82.0</ele><time>2026-04-18T13:18:00.202Z</time></trkpt><trkpt lat="43.7306982" lon="11.2574569"><ele>81.0</ele><time>2026-04-18T13:18:01.202Z</time></trkpt><trkpt lat="43.7304883" lon="11.2571079"><ele>80.0</ele><time>2026-04-18T13:18:02.203Z</time></trkpt><trkpt lat="43.7302807" lon="11.2567632"><ele>83.0</ele><time>2026-04-18T13:18:03.203Z</time></trkpt><trkpt lat="43.7300718" lon="11.2564138"><ele>86.0</ele><time>2026-04-18T13:18:04.203Z</time></trkpt><trkpt lat="43.7298664" lon="11.2560663"><ele>86.0</ele><time>2026-04-18T13:18:05.202Z</time></trkpt><trkpt lat="43.7296721" lon="11.2557399"><ele>86.0</ele><time>2026-04-18T13:18:06.203Z</time></trkpt><trkpt lat="43.7294812" lon="11.2554263"><ele>91.5</ele><time>2026-04-18T13:18:07.203Z</time></trkpt><trkpt lat="43.7292878" lon="11.2551158"><ele>97.0</ele><time>2026-04-18T13:18:08.203Z</time></trkpt><trkpt lat="43.7290942" lon="11.2547898"><ele>98.0</ele><time>2026-04-18T13:18:09.203Z</time></trkpt><trkpt lat="43.7288969" lon="11.2544712"><ele>99.0</ele><time>2026-04-18T13:18:10.203Z</time></trkpt><trkpt lat="43.7286974" lon="11.2541399"><ele>100.5</ele><time>2026-04-18T13:18:11.203Z</time></trkpt><trkpt lat="43.7284967" lon="11.2538134"><ele>102.0</ele><time>2026-04-18T13:18:12.203Z</time></trkpt><trkpt lat="43.7282895" lon="11.2534865"><ele>102.0</ele><time>2026-04-18T13:18:13.203Z</time></trkpt><trkpt lat="43.7280777" lon="11.2531619"><ele>102.0</ele><time>2026-04-18T13:18:14.202Z</time></trkpt><trkpt lat="43.7278649" lon="11.2528357"><ele>102.5</ele><time>2026-04-18T13:18:15.203Z</time></trkpt><trkpt lat="43.7276517" lon="11.2525042"><ele>103.0</ele><time>2026-04-18T13:18:16.203Z</time></trkpt><trkpt lat="43.7274462" lon="11.2521585"><ele>100.0</ele><time>2026-04-18T13:18:17.202Z</time></trkpt><trkpt lat="43.7272424" lon="11.2518133"><ele>97.0</ele><time>2026-04-18T13:18:18.202Z</time></trkpt><trkpt lat="43.7270435" lon="11.2514634"><ele>103.5</ele><time>2026-04-18T13:18:19.203Z</time></trkpt><trkpt lat="43.7268373" lon="11.2511174"><ele>110.0</ele><time>2026-04-18T13:18:20.203Z</time></trkpt><trkpt lat="43.7266284" lon="11.2507665"><ele>106.0</ele><time>2026-04-18T13:18:21.203Z</time></trkpt><trkpt lat="43.7264208" lon="11.2504145"><ele>102.0</ele><time>2026-04-18T13:18:22.203Z</time></trkpt><trkpt lat="43.7262157" lon="11.2500594"><ele>105.5</ele><time>2026-04-18T13:18:23.202Z</time></trkpt><trkpt lat="43.726008" lon="11.2497091"><ele>109.0</ele><time>2026-04-18T13:18:24.203Z</time></trkpt><trkpt lat="43.7258088" lon="11.2493681"><ele>109.0</ele><time>2026-04-18T13:18:25.202Z</time></trkpt><trkpt lat="43.7256104" lon="11.2490324"><ele>109.0</ele><time>2026-04-18T13:18:26.203Z</time></trkpt><trkpt lat="43.7254163" lon="11.248701"><ele>112.0</ele><time>2026-04-18T13:18:27.203Z</time></trkpt><trkpt lat="43.7252241" lon="11.2483775"><ele>115.0</ele><time>2026-04-18T13:18:28.202Z</time></trkpt><trkpt lat="43.7250357" lon="11.2480524"><ele>116.0</ele><time>2026-04-18T13:18:29.202Z</time></trkpt><trkpt lat="43.7248486" lon="11.247736"><ele>117.0</ele><time>2026-04-18T13:18:30.202Z</time></trkpt><trkpt lat="43.7246632" lon="11.2474175"><ele>119.5</ele><time>2026-04-18T13:18:31.203Z</time></trkpt><trkpt lat="43.724479" lon="11.2471048"><ele>122.0</ele><time>2026-04-18T13:18:32.203Z</time></trkpt><trkpt lat="43.7242883" lon="11.2467857"><ele>122.0</ele><time>2026-04-18T13:18:33.203Z</time></trkpt><trkpt lat="43.7240996" lon="11.2464681"><ele>122.0</ele><time>2026-04-18T13:18:34.203Z</time></trkpt><trkpt lat="43.723911" lon="11.2461447"><ele>123.5</ele><time>2026-04-18T13:18:35.203Z</time></trkpt><trkpt lat="43.723722" lon="11.2458219"><ele>125.0</ele><time>2026-04-18T13:18:36.202Z</time></trkpt><trkpt lat="43.7220607" lon="11.2430555"><ele>118.0</ele><time>2026-04-18T13:18:44.203Z</time></trkpt><trkpt lat="43.7218779" lon="11.2427099"><ele>111.0</ele><time>2026-04-18T13:18:45.202Z</time></trkpt><trkpt lat="43.7217026" lon="11.2423684"><ele>112.5</ele><time>2026-04-18T13:18:46.203Z</time></trkpt><trkpt lat="43.7215459" lon="11.242017"><ele>114.0</ele><time>2026-04-18T13:18:47.202Z</time></trkpt><trkpt lat="43.7214043" lon="11.2416554"><ele>113.0</ele><time>2026-04-18T13:18:48.202Z</time></trkpt><trkpt lat="43.7212925" lon="11.2412803"><ele>112.0</ele><time>2026-04-18T13:18:49.202Z</time></trkpt><trkpt lat="43.7212013" lon="11.2408898"><ele>107.5</ele><time>2026-04-18T13:18:50.202Z</time></trkpt><trkpt lat="43.7211254" lon="11.240501"><ele>103.0</ele><time>2026-04-18T13:18:51.203Z</time></trkpt><trkpt lat="43.7210772" lon="11.2401113"><ele>101.5</ele><time>2026-04-18T13:18:52.202Z</time></trkpt><trkpt lat="43.7210478" lon="11.2397204"><ele>100.0</ele><time>2026-04-18T13:18:53.202Z</time></trkpt><trkpt lat="43.7210351" lon="11.2393291"><ele>101.0</ele><time>2026-04-18T13:18:54.203Z</time></trkpt><trkpt lat="43.7210416" lon="11.2389414"><ele>102.0</ele><time>2026-04-18T13:18:55.203Z</time></trkpt><trkpt lat="43.7210651" lon="11.2385619"><ele>99.5</ele><time>2026-04-18T13:18:56.202Z</time></trkpt><trkpt lat="43.721098" lon="11.2381927"><ele>97.0</ele><time>2026-04-18T13:18:57.202Z</time></trkpt><trkpt lat="43.7211334" lon="11.2378138"><ele>97.0</ele><time>2026-04-18T13:18:58.203Z</time></trkpt><trkpt lat="43.7211732" lon="11.2374296"><ele>97.0</ele><time>2026-04-18T13:18:59.203Z</time></trkpt><trkpt lat="43.7212149" lon="11.2370515"><ele>97.0</ele><time>2026-04-18T13:19:00.202Z</time></trkpt><trkpt lat="43.7212542" lon="11.2366882"><ele>97.0</ele><time>2026-04-18T13:19:01.203Z</time></trkpt><trkpt lat="43.7212957" lon="11.2363297"><ele>96.5</ele><time>2026-04-18T13:19:02.203Z</time></trkpt><trkpt lat="43.7213357" lon="11.2359738"><ele>96.0</ele><time>2026-04-18T13:19:03.203Z</time></trkpt><trkpt lat="43.7213759" lon="11.2356233"><ele>95.0</ele><time>2026-04-18T13:19:04.203Z</time></trkpt><trkpt lat="43.7214174" lon="11.2352747"><ele>94.0</ele><time>2026-04-18T13:19:05.202Z</time></trkpt><trkpt lat="43.7214581" lon="11.2349278"><ele>92.0</ele><time>2026-04-18T13:19:06.203Z</time></trkpt><trkpt lat="43.7214998" lon="11.2345822"><ele>90.0</ele><time>2026-04-18T13:19:07.202Z</time></trkpt><trkpt lat="43.7215439" lon="11.2342364"><ele>91.0</ele><time>2026-04-18T13:19:08.203Z</time></trkpt><trkpt lat="43.7215936" lon="11.2338923"><ele>92.0</ele><time>2026-04-18T13:19:09.203Z</time></trkpt><trkpt lat="43.7216479" lon="11.2335507"><ele>92.0</ele><time>2026-04-18T13:19:10.203Z</time></trkpt><trkpt lat="43.7217048" lon="11.233211"><ele>92.0</ele><time>2026-04-18T13:19:11.203Z</time></trkpt><trkpt lat="43.7217603" lon="11.232869"><ele>96.0</ele><time>2026-04-18T13:19:12.203Z</time></trkpt><trkpt lat="43.7218133" lon="11.232525"><ele>100.0</ele><time>2026-04-18T13:19:13.203Z</time></trkpt><trkpt lat="43.721871" lon="11.2321829"><ele>100.5</ele><time>2026-04-18T13:19:14.202Z</time></trkpt><trkpt lat="43.7219294" lon="11.2318412"><ele>101.0</ele><time>2026-04-18T13:19:15.203Z</time></trkpt><trkpt lat="43.7222156" lon="11.2301334"><ele>73.0</ele><time>2026-04-18T13:19:20.254Z</time></trkpt><trkpt lat="43.7228894" lon="11.2261176"><ele>73.0</ele><time>2026-04-18T13:19:30.203Z</time></trkpt><trkpt lat="43.7229596" lon="11.2257309"><ele>73.0</ele><time>2026-04-18T13:19:31.203Z</time></trkpt><trkpt lat="43.7230267" lon="11.2253558"><ele>69.5</ele><time>2026-04-18T13:19:32.203Z</time></trkpt><trkpt lat="43.7230939" lon="11.2250007"><ele>66.0</ele><time>2026-04-18T13:19:33.203Z</time></trkpt><trkpt lat="43.7231585" lon="11.2246618"><ele>65.5</ele><time>2026-04-18T13:19:34.203Z</time></trkpt><trkpt lat="43.723221" lon="11.2243405"><ele>65.0</ele><time>2026-04-18T13:19:35.203Z</time></trkpt><trkpt lat="43.7232758" lon="11.2240434"><ele>66.0</ele><time>2026-04-18T13:19:36.202Z</time></trkpt><trkpt lat="43.7233244" lon="11.2237777"><ele>67.0</ele><time>2026-04-18T13:19:37.203Z</time></trkpt><trkpt lat="43.7233759" lon="11.2235461"><ele>68.0</ele><time>2026-04-18T13:19:38.203Z</time></trkpt><trkpt lat="43.723436" lon="11.2233421"><ele>68.0</ele><time>2026-04-18T13:19:39.203Z</time></trkpt><trkpt lat="43.7235162" lon="11.2231797"><ele>68.0</ele><time>2026-04-18T13:19:40.203Z</time></trkpt><trkpt lat="43.7236099" lon="11.223062"><ele>68.0</ele><time>2026-04-18T13:19:41.203Z</time></trkpt><trkpt lat="43.7237047" lon="11.2229862"><ele>68.0</ele><time>2026-04-18T13:19:42.203Z</time></trkpt><trkpt lat="43.7238039" lon="11.2229526"><ele>68.4</ele><time>2026-04-18T13:19:43.203Z</time></trkpt><trkpt lat="43.7239005" lon="11.2229476"><ele>68.8</ele><time>2026-04-18T13:19:44.203Z</time></trkpt><trkpt lat="43.7239921" lon="11.2229549"><ele>69.2</ele><time>2026-04-18T13:19:45.203Z</time></trkpt><trkpt lat="43.7240831" lon="11.222955"><ele>69.6</ele><time>2026-04-18T13:19:46.202Z</time></trkpt><trkpt lat="43.7241751" lon="11.222924"><ele>70.0</ele><time>2026-04-18T13:19:47.202Z</time></trkpt><trkpt lat="43.7242548" lon="11.2228483"><ele>70.0</ele><time>2026-04-18T13:19:48.202Z</time></trkpt><trkpt lat="43.7243156" lon="11.2227444"><ele>70.0</ele><time>2026-04-18T13:19:49.203Z</time></trkpt><trkpt lat="43.72435" lon="11.2226294"><ele>70.0</ele><time>2026-04-18T13:19:50.203Z</time></trkpt><trkpt lat="43.7243567" lon="11.2225072"><ele>70.0</ele><time>2026-04-18T13:19:51.202Z</time></trkpt><trkpt lat="43.7243381" lon="11.2223847"><ele>70.0</ele><time>2026-04-18T13:19:52.202Z</time></trkpt><trkpt lat="43.7242949" lon="11.2222772"><ele>71.2</ele><time>2026-04-18T13:19:53.203Z</time></trkpt><trkpt lat="43.7242327" lon="11.2221949"><ele>72.4</ele><time>2026-04-18T13:19:54.202Z</time></trkpt><trkpt lat="43.724154" lon="11.2221366"><ele>73.6</ele><time>2026-04-18T13:19:55.203Z</time></trkpt><trkpt lat="43.7240614" lon="11.2220961"><ele>74.8</ele><time>2026-04-18T13:19:56.203Z</time></trkpt><trkpt lat="43.7239614" lon="11.2220727"><ele>76.0</ele><time>2026-04-18T13:19:57.203Z</time></trkpt><trkpt lat="43.7238487" lon="11.2220558"><ele>76.0</ele><time>2026-04-18T13:19:58.203Z</time></trkpt><trkpt lat="43.7237258" lon="11.2220366"><ele>76.0</ele><time>2026-04-18T13:19:59.203Z</time></trkpt><trkpt lat="43.7235976" lon="11.2220149"><ele>76.0</ele><time>2026-04-18T13:20:00.202Z</time></trkpt><trkpt lat="43.7234656" lon="11.2219957"><ele>76.0</ele><time>2026-04-18T13:20:01.203Z</time></trkpt><trkpt lat="43.7232929" lon="11.2219624"><ele>75.66666666666666</ele><time>2026-04-18T13:20:02.203Z</time></trkpt><trkpt lat="43.72311" lon="11.2219275"><ele>75.33333333333333</ele><time>2026-04-18T13:20:03.203Z</time></trkpt><trkpt lat="43.7229204" lon="11.2219106"><ele>75.0</ele><time>2026-04-18T13:20:04.202Z</time></trkpt><trkpt lat="43.7227204" lon="11.2219263"><ele>72.66666666666667</ele><time>2026-04-18T13:20:05.202Z</time></trkpt><trkpt lat="43.7225228" lon="11.2219752"><ele>70.33333333333334</ele><time>2026-04-18T13:20:06.202Z</time></trkpt><trkpt lat="43.7223401" lon="11.2220447"><ele>68.0</ele><time>2026-04-18T13:20:07.203Z</time></trkpt><trkpt lat="43.7221741" lon="11.2221201"><ele>68.0</ele><time>2026-04-18T13:20:08.202Z</time></trkpt><trkpt lat="43.7220222" lon="11.2221954"><ele>68.0</ele><time>2026-04-18T13:20:09.203Z</time></trkpt><trkpt lat="43.7218826" lon="11.2222647"><ele>68.0</ele><time>2026-04-18T13:20:10.202Z</time></trkpt><trkpt lat="43.7217546" lon="11.2223346"><ele>68.0</ele><time>2026-04-18T13:20:11.203Z</time></trkpt><trkpt lat="43.7216328" lon="11.2224036"><ele>67.6</ele><time>2026-04-18T13:20:12.203Z</time></trkpt><trkpt lat="43.7215326" lon="11.2224567"><ele>67.19999999999999</ele><time>2026-04-18T13:20:13.202Z</time></trkpt><trkpt lat="43.7214418" lon="11.2224977"><ele>66.8</ele><time>2026-04-18T13:20:14.202Z</time></trkpt><trkpt lat="43.7213699" lon="11.222533"><ele>66.39999999999999</ele><time>2026-04-18T13:20:15.202Z</time></trkpt><trkpt lat="43.7212968" lon="11.2225367"><ele>66.0</ele><time>2026-04-18T13:21:01.203Z</time></trkpt><trkpt lat="43.7211468" lon="11.2225786"><ele>66.0</ele><time>2026-04-18T13:21:03.203Z</time></trkpt><trkpt lat="43.7210446" lon="11.2225876"><ele>66.0</ele><time>2026-04-18T13:21:04.203Z</time></trkpt><trkpt lat="43.7209406" lon="11.2225801"><ele>66.0</ele><time>2026-04-18T13:21:05.202Z</time></trkpt><trkpt lat="43.720852" lon="11.2225707"><ele>66.0</ele><time>2026-04-18T13:21:06.202Z</time></trkpt><trkpt lat="43.7207716" lon="11.2225625"><ele>66.0</ele><time>2026-04-18T13:21:07.203Z</time></trkpt><trkpt lat="43.7206978" lon="11.2225686"><ele>66.0</ele><time>2026-04-18T13:21:08.202Z</time></trkpt><trkpt lat="43.7206005" lon="11.2226175"><ele>66.0</ele><time>2026-04-18T13:21:10.203Z</time></trkpt><trkpt lat="43.7205548" lon="11.2226854"><ele>66.0</ele><time>2026-04-18T13:21:23.203Z</time></trkpt><trkpt lat="43.7204334" lon="11.2227517"><ele>66.0</ele><time>2026-04-18T13:21:25.203Z</time></trkpt><trkpt lat="43.7203571" lon="11.2227539"><ele>66.0</ele><time>2026-04-18T13:21:26.202Z</time></trkpt><trkpt lat="43.7202845" lon="11.2227462"><ele>65.66666666666667</ele><time>2026-04-18T13:21:27.202Z</time></trkpt><trkpt lat="43.7201551" lon="11.2227069"><ele>65.33333333333333</ele><time>2026-04-18T13:21:29.203Z</time></trkpt><trkpt lat="43.720093" lon="11.2226725"><ele>65.0</ele><time>2026-04-18T13:21:30.203Z</time></trkpt><trkpt lat="43.7200382" lon="11.2226246"><ele>64.66666666666666</ele><time>2026-04-18T13:21:31.202Z</time></trkpt><trkpt lat="43.7199917" lon="11.2225525"><ele>64.33333333333333</ele><time>2026-04-18T13:21:32.202Z</time></trkpt><trkpt lat="43.7199482" lon="11.2224512"><ele>64.0</ele><time>2026-04-18T13:21:33.203Z</time></trkpt><trkpt lat="43.7199189" lon="11.2223204"><ele>64.0</ele><time>2026-04-18T13:21:34.203Z</time></trkpt><trkpt lat="43.7199081" lon="11.2221787"><ele>64.0</ele><time>2026-04-18T13:21:35.203Z</time></trkpt><trkpt lat="43.7199044" lon="11.2220436"><ele>64.0</ele><time>2026-04-18T13:21:36.203Z</time></trkpt><trkpt lat="43.719903" lon="11.221907"><ele>64.0</ele><time>2026-04-18T13:21:37.203Z</time></trkpt><trkpt lat="43.7199059" lon="11.2217634"><ele>64.0</ele><time>2026-04-18T13:21:38.203Z</time></trkpt><trkpt lat="43.7199063" lon="11.2216204"><ele>64.4</ele><time>2026-04-18T13:21:39.202Z</time></trkpt><trkpt lat="43.719904" lon="11.2214802"><ele>64.80000000000001</ele><time>2026-04-18T13:21:40.202Z</time></trkpt><trkpt lat="43.7199029" lon="11.2213373"><ele>65.19999999999999</ele><time>2026-04-18T13:21:41.203Z</time></trkpt><trkpt lat="43.7198894" lon="11.22119"><ele>65.6</ele><time>2026-04-18T13:21:42.203Z</time></trkpt><trkpt lat="43.7198583" lon="11.2210528"><ele>66.0</ele><time>2026-04-18T13:21:43.203Z</time></trkpt><trkpt lat="43.7198169" lon="11.2209361"><ele>66.0</ele><time>2026-04-18T13:21:44.203Z</time></trkpt><trkpt lat="43.7197561" lon="11.220827"><ele>66.0</ele><time>2026-04-18T13:21:45.202Z</time></trkpt><trkpt lat="43.7196906" lon="11.220714"><ele>66.0</ele><time>2026-04-18T13:21:46.203Z</time></trkpt><trkpt lat="43.7196112" lon="11.2206165"><ele>66.0</ele><time>2026-04-18T13:21:47.202Z</time></trkpt><trkpt lat="43.7195218" lon="11.2205377"><ele>66.0</ele><time>2026-04-18T13:21:48.203Z</time></trkpt><trkpt lat="43.7194161" lon="11.2204754"><ele>69.25</ele><time>2026-04-18T13:21:49.202Z</time></trkpt><trkpt lat="43.7193008" lon="11.2204342"><ele>72.5</ele><time>2026-04-18T13:21:50.203Z</time></trkpt><trkpt lat="43.719173" lon="11.2204125"><ele>75.75</ele><time>2026-04-18T13:21:51.203Z</time></trkpt><trkpt lat="43.7190358" lon="11.220402"><ele>79.0</ele><time>2026-04-18T13:21:52.202Z</time></trkpt><trkpt lat="43.718905" lon="11.220394"><ele>79.0</ele><time>2026-04-18T13:21:53.202Z</time></trkpt><trkpt lat="43.7187758" lon="11.2203919"><ele>79.0</ele><time>2026-04-18T13:21:54.202Z</time></trkpt><trkpt lat="43.718644" lon="11.2203969"><ele>79.0</ele><time>2026-04-18T13:21:55.203Z</time></trkpt><trkpt lat="43.7185106" lon="11.2203918"><ele>79.0</ele><time>2026-04-18T13:21:56.203Z</time></trkpt><trkpt lat="43.7183757" lon="11.220396"><ele>80.0</ele><time>2026-04-18T13:21:57.202Z</time></trkpt><trkpt lat="43.7182452" lon="11.2203989"><ele>81.0</ele><time>2026-04-18T13:21:58.203Z</time></trkpt><trkpt lat="43.7181089" lon="11.2203998"><ele>82.0</ele><time>2026-04-18T13:21:59.202Z</time></trkpt><trkpt lat="43.7179726" lon="11.2203968"><ele>83.0</ele><time>2026-04-18T13:22:00.202Z</time></trkpt><trkpt lat="43.7178241" lon="11.220399"><ele>83.66666666666667</ele><time>2026-04-18T13:22:01.202Z</time></trkpt><trkpt lat="43.7176649" lon="11.2203956"><ele>84.33333333333333</ele><time>2026-04-18T13:22:02.203Z</time></trkpt><trkpt lat="43.7174956" lon="11.220394"><ele>85.0</ele><time>2026-04-18T13:22:03.202Z</time></trkpt><trkpt lat="43.7172938" lon="11.2203884"><ele>85.0</ele><time>2026-04-18T13:22:04.203Z</time></trkpt><trkpt lat="43.7170862" lon="11.2203582"><ele>85.0</ele><time>2026-04-18T13:22:05.203Z</time></trkpt><trkpt lat="43.7168727" lon="11.2203033"><ele>85.0</ele><time>2026-04-18T13:22:06.202Z</time></trkpt><trkpt lat="43.716648" lon="11.2202244"><ele>83.0</ele><time>2026-04-18T13:22:07.203Z</time></trkpt><trkpt lat="43.7164158" lon="11.2201237"><ele>81.0</ele><time>2026-04-18T13:22:08.203Z</time></trkpt><trkpt lat="43.7161785" lon="11.2200035"><ele>83.5</ele><time>2026-04-18T13:22:09.203Z</time></trkpt><trkpt lat="43.7159469" lon="11.2198558"><ele>86.0</ele><time>2026-04-18T13:22:10.202Z</time></trkpt><trkpt lat="43.7157161" lon="11.2196835"><ele>86.0</ele><time>2026-04-18T13:22:11.202Z</time></trkpt><trkpt lat="43.7154853" lon="11.219487"><ele>86.0</ele><time>2026-04-18T13:22:12.203Z</time></trkpt><trkpt lat="43.7152579" lon="11.219266"><ele>84.5</ele><time>2026-04-18T13:22:13.203Z</time></trkpt><trkpt lat="43.7150484" lon="11.2190102"><ele>83.0</ele><time>2026-04-18T13:22:14.202Z</time></trkpt><trkpt lat="43.7148411" lon="11.2187255"><ele>83.0</ele><time>2026-04-18T13:22:15.202Z</time></trkpt><trkpt lat="43.7146477" lon="11.2184173"><ele>83.0</ele><time>2026-04-18T13:22:16.203Z</time></trkpt><trkpt lat="43.7144678" lon="11.2180865"><ele>77.5</ele><time>2026-04-18T13:22:17.203Z</time></trkpt><trkpt lat="43.7143017" lon="11.217739"><ele>72.0</ele><time>2026-04-18T13:22:18.203Z</time></trkpt><trkpt lat="43.7141464" lon="11.2173838"><ele>73.5</ele><time>2026-04-18T13:22:19.203Z</time></trkpt><trkpt lat="43.7139967" lon="11.2170388"><ele>75.0</ele><time>2026-04-18T13:22:20.203Z</time></trkpt><trkpt lat="43.7138315" lon="11.2167039"><ele>77.5</ele><time>2026-04-18T13:22:21.203Z</time></trkpt><trkpt lat="43.71366" lon="11.2163826"><ele>80.0</ele><time>2026-04-18T13:22:22.203Z</time></trkpt><trkpt lat="43.7134638" lon="11.216078"><ele>80.5</ele><time>2026-04-18T13:22:23.203Z</time></trkpt><trkpt lat="43.7132599" lon="11.2157862"><ele>81.0</ele><time>2026-04-18T13:22:24.202Z</time></trkpt><trkpt lat="43.7130333" lon="11.2155212"><ele>81.0</ele><time>2026-04-18T13:22:25.203Z</time></trkpt><trkpt lat="43.7127979" lon="11.2152814"><ele>81.0</ele><time>2026-04-18T13:22:26.203Z</time></trkpt><trkpt lat="43.7125515" lon="11.2150702"><ele>80.0</ele><time>2026-04-18T13:22:27.202Z</time></trkpt><trkpt lat="43.7123026" lon="11.2148865"><ele>79.0</ele><time>2026-04-18T13:22:28.202Z</time></trkpt><trkpt lat="43.7120513" lon="11.214722"><ele>77.0</ele><time>2026-04-18T13:22:29.203Z</time></trkpt><trkpt lat="43.7118053" lon="11.2145594"><ele>75.0</ele><time>2026-04-18T13:22:30.203Z</time></trkpt><trkpt lat="43.7115664" lon="11.2144127"><ele>75.0</ele><time>2026-04-18T13:22:31.202Z</time></trkpt><trkpt lat="43.7113333" lon="11.2142663"><ele>75.0</ele><time>2026-04-18T13:22:32.203Z</time></trkpt><trkpt lat="43.7111056" lon="11.2141241"><ele>73.5</ele><time>2026-04-18T13:22:33.203Z</time></trkpt><trkpt lat="43.7108937" lon="11.2139848"><ele>72.0</ele><time>2026-04-18T13:22:34.203Z</time></trkpt><trkpt lat="43.7106862" lon="11.2138477"><ele>72.0</ele><time>2026-04-18T13:22:35.203Z</time></trkpt><trkpt lat="43.7104782" lon="11.2137153"><ele>72.0</ele><time>2026-04-18T13:22:36.203Z</time></trkpt><trkpt lat="43.7102762" lon="11.2135891"><ele>72.33333333333333</ele><time>2026-04-18T13:22:37.203Z</time></trkpt><trkpt lat="43.7100662" lon="11.2134691"><ele>72.66666666666666</ele><time>2026-04-18T13:22:38.203Z</time></trkpt><trkpt lat="43.7098668" lon="11.2133631"><ele>73.0</ele><time>2026-04-18T13:22:39.203Z</time></trkpt><trkpt lat="43.7096645" lon="11.2132724"><ele>73.0</ele><time>2026-04-18T13:22:40.203Z</time></trkpt><trkpt lat="43.7094533" lon="11.2131935"><ele>73.0</ele><time>2026-04-18T13:22:41.202Z</time></trkpt><trkpt lat="43.7092457" lon="11.2131226"><ele>73.0</ele><time>2026-04-18T13:22:42.203Z</time></trkpt><trkpt lat="43.7090275" lon="11.213064"><ele>73.33333333333333</ele><time>2026-04-18T13:22:43.202Z</time></trkpt><trkpt lat="43.7088072" lon="11.2130149"><ele>73.66666666666667</ele><time>2026-04-18T13:22:44.203Z</time></trkpt><trkpt lat="43.7085858" lon="11.2129774"><ele>74.0</ele><time>2026-04-18T13:22:45.203Z</time></trkpt><trkpt lat="43.708355" lon="11.2129612"><ele>74.5</ele><time>2026-04-18T13:22:46.203Z</time></trkpt><trkpt lat="43.708124" lon="11.212955"><ele>75.0</ele><time>2026-04-18T13:22:47.203Z</time></trkpt><trkpt lat="43.7078861" lon="11.2129659"><ele>77.5</ele><time>2026-04-18T13:22:48.202Z</time></trkpt><trkpt lat="43.7076466" lon="11.21299"><ele>80.0</ele><time>2026-04-18T13:22:49.203Z</time></trkpt><trkpt lat="43.7074041" lon="11.213026"><ele>80.0</ele><time>2026-04-18T13:22:50.203Z</time></trkpt><trkpt lat="43.707156" lon="11.2130689"><ele>80.0</ele><time>2026-04-18T13:22:51.202Z</time></trkpt><trkpt lat="43.7069077" lon="11.2131085"><ele>90.5</ele><time>2026-04-18T13:22:52.203Z</time></trkpt><trkpt lat="43.7066602" lon="11.2131482"><ele>101.0</ele><time>2026-04-18T13:22:53.203Z</time></trkpt><trkpt lat="43.7064128" lon="11.213191"><ele>97.0</ele><time>2026-04-18T13:22:54.203Z</time></trkpt><trkpt lat="43.7029338" lon="11.2137773"><ele>95.5</ele><time>2026-04-18T13:23:06.203Z</time></trkpt><trkpt lat="43.7026242" lon="11.2138407"><ele>94.0</ele><time>2026-04-18T13:23:07.202Z</time></trkpt><trkpt lat="43.7023274" lon="11.2138842"><ele>94.0</ele><time>2026-04-18T13:23:08.203Z</time></trkpt><trkpt lat="43.7020328" lon="11.2138947"><ele>94.0</ele><time>2026-04-18T13:23:09.203Z</time></trkpt><trkpt lat="43.7017403" lon="11.213883"><ele>94.5</ele><time>2026-04-18T13:23:10.202Z</time></trkpt><trkpt lat="43.701445" lon="11.213852"><ele>95.0</ele><time>2026-04-18T13:23:11.203Z</time></trkpt><trkpt lat="43.7011481" lon="11.2137907"><ele>90.5</ele><time>2026-04-18T13:23:12.203Z</time></trkpt><trkpt lat="43.7008463" lon="11.2137084"><ele>86.0</ele><time>2026-04-18T13:23:13.202Z</time></trkpt><trkpt lat="43.7005464" lon="11.2135975"><ele>86.0</ele><time>2026-04-18T13:23:14.202Z</time></trkpt><trkpt lat="43.7002564" lon="11.2134549"><ele>86.0</ele><time>2026-04-18T13:23:15.203Z</time></trkpt><trkpt lat="43.6999742" lon="11.213276"><ele>85.0</ele><time>2026-04-18T13:23:16.202Z</time></trkpt><trkpt lat="43.6997026" lon="11.2130745"><ele>84.0</ele><time>2026-04-18T13:23:17.203Z</time></trkpt><trkpt lat="43.6994438" lon="11.2128549"><ele>86.5</ele><time>2026-04-18T13:23:18.203Z</time></trkpt><trkpt lat="43.699181" lon="11.2126328"><ele>89.0</ele><time>2026-04-18T13:23:19.202Z</time></trkpt><trkpt lat="43.6989123" lon="11.212424"><ele>89.0</ele><time>2026-04-18T13:23:20.202Z</time></trkpt><trkpt lat="43.6986456" lon="11.2122204"><ele>89.0</ele><time>2026-04-18T13:23:21.203Z</time></trkpt><trkpt lat="43.6983746" lon="11.2120292"><ele>89.0</ele><time>2026-04-18T13:23:22.203Z</time></trkpt><trkpt lat="43.6981001" lon="11.2118587"><ele>89.0</ele><time>2026-04-18T13:23:23.203Z</time></trkpt><trkpt lat="43.6978228" lon="11.2117205"><ele>91.0</ele><time>2026-04-18T13:23:24.203Z</time></trkpt><trkpt lat="43.6975347" lon="11.2116149"><ele>93.0</ele><time>2026-04-18T13:23:25.203Z</time></trkpt><trkpt lat="43.6972373" lon="11.2115381"><ele>93.0</ele><time>2026-04-18T13:23:26.203Z</time></trkpt><trkpt lat="43.696932" lon="11.211494"><ele>93.0</ele><time>2026-04-18T13:23:27.203Z</time></trkpt><trkpt lat="43.6966275" lon="11.2114716"><ele>91.5</ele><time>2026-04-18T13:23:28.203Z</time></trkpt><trkpt lat="43.6963216" lon="11.2114808"><ele>90.0</ele><time>2026-04-18T13:23:29.203Z</time></trkpt><trkpt lat="43.696018" lon="11.2115256"><ele>94.5</ele><time>2026-04-18T13:23:30.203Z</time></trkpt><trkpt lat="43.6957279" lon="11.2116044"><ele>99.0</ele><time>2026-04-18T13:23:31.202Z</time></trkpt><trkpt lat="43.6954457" lon="11.2117094"><ele>95.5</ele><time>2026-04-18T13:23:32.203Z</time></trkpt><trkpt lat="43.6951702" lon="11.2118339"><ele>92.0</ele><time>2026-04-18T13:23:33.202Z</time></trkpt><trkpt lat="43.6948937" lon="11.2119663"><ele>92.0</ele><time>2026-04-18T13:23:34.203Z</time></trkpt><trkpt lat="43.6946139" lon="11.2121019"><ele>92.0</ele><time>2026-04-18T13:23:35.203Z</time></trkpt><trkpt lat="43.6943287" lon="11.2122374"><ele>95.0</ele><time>2026-04-18T13:23:36.202Z</time></trkpt><trkpt lat="43.6940479" lon="11.2123686"><ele>98.0</ele><time>2026-04-18T13:23:37.203Z</time></trkpt><trkpt lat="43.6937568" lon="11.2125053"><ele>97.5</ele><time>2026-04-18T13:23:38.203Z</time></trkpt><trkpt lat="43.69347" lon="11.2126392"><ele>97.0</ele><time>2026-04-18T13:23:39.203Z</time></trkpt><trkpt lat="43.6931925" lon="11.2127638"><ele>97.0</ele><time>2026-04-18T13:23:40.202Z</time></trkpt><trkpt lat="43.6929129" lon="11.2128743"><ele>97.0</ele><time>2026-04-18T13:23:41.203Z</time></trkpt><trkpt lat="43.6926349" lon="11.2129523"><ele>94.0</ele><time>2026-04-18T13:23:42.202Z</time></trkpt><trkpt lat="43.6923519" lon="11.2129969"><ele>91.0</ele><time>2026-04-18T13:23:43.202Z</time></trkpt><trkpt lat="43.6920637" lon="11.2130204"><ele>91.5</ele><time>2026-04-18T13:23:44.203Z</time></trkpt><trkpt lat="43.6917786" lon="11.21301"><ele>92.0</ele><time>2026-04-18T13:23:45.202Z</time></trkpt><trkpt lat="43.6915082" lon="11.2129767"><ele>92.0</ele><time>2026-04-18T13:23:46.203Z</time></trkpt><trkpt lat="43.6912456" lon="11.2129215"><ele>92.0</ele><time>2026-04-18T13:23:47.203Z</time></trkpt><trkpt lat="43.6909864" lon="11.2128465"><ele>93.0</ele><time>2026-04-18T13:23:48.203Z</time></trkpt><trkpt lat="43.6907249" lon="11.21274"><ele>94.0</ele><time>2026-04-18T13:23:49.203Z</time></trkpt><trkpt lat="43.6904655" lon="11.2126025"><ele>93.0</ele><time>2026-04-18T13:23:50.203Z</time></trkpt><trkpt lat="43.6902083" lon="11.212439"><ele>92.0</ele><time>2026-04-18T13:23:51.202Z</time></trkpt><trkpt lat="43.6899542" lon="11.2122601"><ele>92.0</ele><time>2026-04-18T13:23:52.203Z</time></trkpt><trkpt lat="43.6897132" lon="11.2120888"><ele>92.0</ele><time>2026-04-18T13:23:53.203Z</time></trkpt><trkpt lat="43.6894778" lon="11.2119165"><ele>92.5</ele><time>2026-04-18T13:23:54.202Z</time></trkpt><trkpt lat="43.68924" lon="11.2117421"><ele>93.0</ele><time>2026-04-18T13:23:55.203Z</time></trkpt><trkpt lat="43.6890057" lon="11.2115724"><ele>92.0</ele><time>2026-04-18T13:23:56.203Z</time></trkpt><trkpt lat="43.6887699" lon="11.2114235"><ele>91.0</ele><time>2026-04-18T13:23:57.203Z</time></trkpt><trkpt lat="43.6885216" lon="11.2113004"><ele>93.0</ele><time>2026-04-18T13:23:58.203Z</time></trkpt><trkpt lat="43.6882703" lon="11.2112036"><ele>95.0</ele><time>2026-04-18T13:23:59.202Z</time></trkpt><trkpt lat="43.6880073" lon="11.211129"><ele>101.5</ele><time>2026-04-18T13:24:00.203Z</time></trkpt><trkpt lat="43.6877401" lon="11.2110798"><ele>108.0</ele><time>2026-04-18T13:24:01.203Z</time></trkpt><trkpt lat="43.687463" lon="11.2110558"><ele>108.0</ele><time>2026-04-18T13:24:02.202Z</time></trkpt><trkpt lat="43.6871844" lon="11.2110625"><ele>108.0</ele><time>2026-04-18T13:24:03.203Z</time></trkpt><trkpt lat="43.6869051" lon="11.2110918"><ele>112.5</ele><time>2026-04-18T13:24:04.203Z</time></trkpt><trkpt lat="43.6866198" lon="11.2111341"><ele>117.0</ele><time>2026-04-18T13:24:05.202Z</time></trkpt><trkpt lat="43.6863338" lon="11.2111833"><ele>123.5</ele><time>2026-04-18T13:24:06.203Z</time></trkpt><trkpt lat="43.6860428" lon="11.2112309"><ele>130.0</ele><time>2026-04-18T13:24:07.202Z</time></trkpt><trkpt lat="43.6857482" lon="11.2112755"><ele>130.0</ele><time>2026-04-18T13:24:08.202Z</time></trkpt><trkpt lat="43.6854486" lon="11.2113249"><ele>130.0</ele><time>2026-04-18T13:24:09.203Z</time></trkpt><trkpt lat="43.6851464" lon="11.2113746"><ele>135.5</ele><time>2026-04-18T13:24:10.202Z</time></trkpt><trkpt lat="43.6848428" lon="11.2114316"><ele>141.0</ele><time>2026-04-18T13:24:11.203Z</time></trkpt><trkpt lat="43.684536" lon="11.2114944"><ele>126.5</ele><time>2026-04-18T13:24:12.203Z</time></trkpt><trkpt lat="43.6842251" lon="11.2115563"><ele>112.0</ele><time>2026-04-18T13:24:13.203Z</time></trkpt><trkpt lat="43.6839157" lon="11.211616"><ele>112.0</ele><time>2026-04-18T13:24:14.203Z</time></trkpt><trkpt lat="43.6836043" lon="11.2116725"><ele>112.0</ele><time>2026-04-18T13:24:15.203Z</time></trkpt><trkpt lat="43.6832946" lon="11.2117356"><ele>106.0</ele><time>2026-04-18T13:24:16.203Z</time></trkpt><trkpt lat="43.6829811" lon="11.2117947"><ele>100.0</ele><time>2026-04-18T13:24:17.202Z</time></trkpt><trkpt lat="43.6826715" lon="11.2118565"><ele>98.0</ele><time>2026-04-18T13:24:18.203Z</time></trkpt><trkpt lat="43.6823593" lon="11.2119209"><ele>96.0</ele><time>2026-04-18T13:24:19.202Z</time></trkpt><trkpt lat="43.6820449" lon="11.2119869"><ele>96.0</ele><time>2026-04-18T13:24:20.203Z</time></trkpt><trkpt lat="43.6817389" lon="11.2120397"><ele>96.0</ele><time>2026-04-18T13:24:21.202Z</time></trkpt><trkpt lat="43.681445" lon="11.2120868"><ele>96.0</ele><time>2026-04-18T13:24:22.203Z</time></trkpt><trkpt lat="43.6811578" lon="11.212114"><ele>96.0</ele><time>2026-04-18T13:24:23.203Z</time></trkpt><trkpt lat="43.6808772" lon="11.2121129"><ele>96.0</ele><time>2026-04-18T13:24:24.202Z</time></trkpt><trkpt lat="43.6805931" lon="11.2120891"><ele>96.0</ele><time>2026-04-18T13:24:25.203Z</time></trkpt><trkpt lat="43.6803112" lon="11.2120347"><ele>97.5</ele><time>2026-04-18T13:24:26.203Z</time></trkpt><trkpt lat="43.6800286" lon="11.2119561"><ele>99.0</ele><time>2026-04-18T13:24:27.203Z</time></trkpt><trkpt lat="43.6797512" lon="11.2118496"><ele>99.0</ele><time>2026-04-18T13:24:28.203Z</time></trkpt><trkpt lat="43.6794802" lon="11.2117206"><ele>99.0</ele><time>2026-04-18T13:24:29.203Z</time></trkpt><trkpt lat="43.6792139" lon="11.2115677"><ele>100.0</ele><time>2026-04-18T13:24:30.203Z</time></trkpt><trkpt lat="43.6789507" lon="11.2113938"><ele>101.0</ele><time>2026-04-18T13:24:31.203Z</time></trkpt><trkpt lat="43.6786863" lon="11.2112127"><ele>105.0</ele><time>2026-04-18T13:24:32.203Z</time></trkpt><trkpt lat="43.6784115" lon="11.2110333"><ele>109.0</ele><time>2026-04-18T13:24:33.203Z</time></trkpt><trkpt lat="43.6781415" lon="11.2108487"><ele>109.0</ele><time>2026-04-18T13:24:34.202Z</time></trkpt><trkpt lat="43.6778812" lon="11.2106766"><ele>109.0</ele><time>2026-04-18T13:24:35.203Z</time></trkpt><trkpt lat="43.6776248" lon="11.2105245"><ele>107.5</ele><time>2026-04-18T13:24:36.202Z</time></trkpt><trkpt lat="43.6773797" lon="11.2103994"><ele>106.0</ele><time>2026-04-18T13:24:37.202Z</time></trkpt><trkpt lat="43.6771326" lon="11.2102965"><ele>105.0</ele><time>2026-04-18T13:24:38.203Z</time></trkpt><trkpt lat="43.6768853" lon="11.2102105"><ele>104.0</ele><time>2026-04-18T13:24:39.203Z</time></trkpt><trkpt lat="43.6766349" lon="11.2101514"><ele>104.0</ele><time>2026-04-18T13:24:40.202Z</time></trkpt><trkpt lat="43.6763762" lon="11.2101101"><ele>104.0</ele><time>2026-04-18T13:24:41.203Z</time></trkpt><trkpt lat="43.6761157" lon="11.2100875"><ele>103.5</ele><time>2026-04-18T13:24:42.203Z</time></trkpt><trkpt lat="43.6758524" lon="11.2100817"><ele>103.0</ele><time>2026-04-18T13:24:43.202Z</time></trkpt><trkpt lat="43.6755901" lon="11.2100906"><ele>103.0</ele><time>2026-04-18T13:24:44.203Z</time></trkpt><trkpt lat="43.6753204" lon="11.2101053"><ele>103.0</ele><time>2026-04-18T13:24:45.203Z</time></trkpt><trkpt lat="43.675049" lon="11.2101224"><ele>114.0</ele><time>2026-04-18T13:24:46.203Z</time></trkpt><trkpt lat="43.6747745" lon="11.2101363"><ele>125.0</ele><time>2026-04-18T13:24:47.203Z</time></trkpt><trkpt lat="43.6744992" lon="11.2101516"><ele>135.0</ele><time>2026-04-18T13:24:48.202Z</time></trkpt><trkpt lat="43.6742214" lon="11.2101635"><ele>145.0</ele><time>2026-04-18T13:24:49.203Z</time></trkpt><trkpt lat="43.673955" lon="11.2101716"><ele>145.0</ele><time>2026-04-18T13:24:50.203Z</time></trkpt><trkpt lat="43.6737076" lon="11.2101838"><ele>145.0</ele><time>2026-04-18T13:24:51.203Z</time></trkpt><trkpt lat="43.6734575" lon="11.2101947"><ele>146.0</ele><time>2026-04-18T13:24:52.203Z</time></trkpt><trkpt lat="43.6732076" lon="11.2102084"><ele>147.0</ele><time>2026-04-18T13:24:53.203Z</time></trkpt><trkpt lat="43.6729641" lon="11.2102239"><ele>147.0</ele><time>2026-04-18T13:24:54.203Z</time></trkpt><trkpt lat="43.672728" lon="11.2102385"><ele>147.0</ele><time>2026-04-18T13:24:55.203Z</time></trkpt><trkpt lat="43.6724937" lon="11.2102513"><ele>147.0</ele><time>2026-04-18T13:24:56.203Z</time></trkpt><trkpt lat="43.6722579" lon="11.2102702"><ele>147.0</ele><time>2026-04-18T13:24:57.203Z</time></trkpt><trkpt lat="43.6720262" lon="11.2102855"><ele>151.5</ele><time>2026-04-18T13:24:58.202Z</time></trkpt><trkpt lat="43.6717992" lon="11.2102941"><ele>156.0</ele><time>2026-04-18T13:24:59.203Z</time></trkpt><trkpt lat="43.671575" lon="11.2102929"><ele>156.0</ele><time>2026-04-18T13:25:00.203Z</time></trkpt><trkpt lat="43.6713618" lon="11.2102815"><ele>156.0</ele><time>2026-04-18T13:25:01.203Z</time></trkpt><trkpt lat="43.6711515" lon="11.2102584"><ele>156.0</ele><time>2026-04-18T13:25:02.203Z</time></trkpt><trkpt lat="43.6709453" lon="11.2102258"><ele>155.33333333333334</ele><time>2026-04-18T13:25:03.202Z</time></trkpt><trkpt lat="43.6707454" lon="11.2101893"><ele>154.66666666666669</ele><time>2026-04-18T13:25:04.203Z</time></trkpt><trkpt lat="43.6705394" lon="11.2101489"><ele>154.0</ele><time>2026-04-18T13:25:05.203Z</time></trkpt><trkpt lat="43.6703359" lon="11.2101084"><ele>154.0</ele><time>2026-04-18T13:25:06.203Z</time></trkpt><trkpt lat="43.6701338" lon="11.2100673"><ele>154.0</ele><time>2026-04-18T13:25:07.203Z</time></trkpt><trkpt lat="43.6699333" lon="11.2100251"><ele>154.0</ele><time>2026-04-18T13:25:08.203Z</time></trkpt><trkpt lat="43.6697313" lon="11.209986"><ele>154.0</ele><time>2026-04-18T13:25:09.203Z</time></trkpt><trkpt lat="43.6695298" lon="11.209935"><ele>154.0</ele><time>2026-04-18T13:25:10.202Z</time></trkpt><trkpt lat="43.669318" lon="11.2098795"><ele>154.0</ele><time>2026-04-18T13:25:11.203Z</time></trkpt><trkpt lat="43.6690977" lon="11.209824"><ele>157.33333333333334</ele><time>2026-04-18T13:25:12.203Z</time></trkpt><trkpt lat="43.6688705" lon="11.2097748"><ele>160.66666666666666</ele><time>2026-04-18T13:25:13.203Z</time></trkpt><trkpt lat="43.6686556" lon="11.2097333"><ele>164.0</ele><time>2026-04-18T13:25:14.202Z</time></trkpt><trkpt lat="43.668459" lon="11.2097002"><ele>164.0</ele><time>2026-04-18T13:25:15.202Z</time></trkpt><trkpt lat="43.6682847" lon="11.2096708"><ele>164.0</ele><time>2026-04-18T13:25:16.203Z</time></trkpt><trkpt lat="43.6681353" lon="11.2096318"><ele>164.0</ele><time>2026-04-18T13:25:17.203Z</time></trkpt><trkpt lat="43.6680076" lon="11.2095707"><ele>164.0</ele><time>2026-04-18T13:25:18.203Z</time></trkpt><trkpt lat="43.6679137" lon="11.2094666"><ele>164.0</ele><time>2026-04-18T13:25:19.203Z</time></trkpt><trkpt lat="43.667874" lon="11.2093301"><ele>164.0</ele><time>2026-04-18T13:25:20.203Z</time></trkpt><trkpt lat="43.6678806" lon="11.2092032"><ele>164.0</ele><time>2026-04-18T13:25:21.203Z</time></trkpt><trkpt lat="43.6679346" lon="11.2091001"><ele>164.0</ele><time>2026-04-18T13:25:22.203Z</time></trkpt><trkpt lat="43.6680311" lon="11.2090265"><ele>165.0</ele><time>2026-04-18T13:25:23.203Z</time></trkpt><trkpt lat="43.6681507" lon="11.208992"><ele>166.0</ele><time>2026-04-18T13:25:24.203Z</time></trkpt><trkpt lat="43.6682796" lon="11.2089621"><ele>167.0</ele><time>2026-04-18T13:25:25.203Z</time></trkpt><trkpt lat="43.6684026" lon="11.2088938"><ele>168.0</ele><time>2026-04-18T13:25:26.203Z</time></trkpt><trkpt lat="43.668501" lon="11.208766"><ele>168.0</ele><time>2026-04-18T13:25:27.203Z</time></trkpt><trkpt lat="43.6685814" lon="11.2086057"><ele>168.0</ele><time>2026-04-18T13:25:28.203Z</time></trkpt><trkpt lat="43.6686682" lon="11.208469"><ele>168.0</ele><time>2026-04-18T13:25:29.202Z</time></trkpt><trkpt lat="43.6687802" lon="11.2083835"><ele>168.0</ele><time>2026-04-18T13:25:30.203Z</time></trkpt><trkpt lat="43.6689189" lon="11.2083239"><ele>168.33333333333334</ele><time>2026-04-18T13:25:31.203Z</time></trkpt><trkpt lat="43.6690799" lon="11.2082726"><ele>168.66666666666669</ele><time>2026-04-18T13:25:32.202Z</time></trkpt><trkpt lat="43.6692616" lon="11.2082238"><ele>169.0</ele><time>2026-04-18T13:25:33.203Z</time></trkpt><trkpt lat="43.6694427" lon="11.208172"><ele>170.33333333333334</ele><time>2026-04-18T13:25:34.203Z</time></trkpt><trkpt lat="43.669634" lon="11.2081179"><ele>171.66666666666666</ele><time>2026-04-18T13:25:35.203Z</time></trkpt><trkpt lat="43.6698238" lon="11.2080625"><ele>173.0</ele><time>2026-04-18T13:25:36.202Z</time></trkpt><trkpt lat="43.6699995" lon="11.2080137"><ele>173.0</ele><time>2026-04-18T13:25:37.202Z</time></trkpt><trkpt lat="43.6701563" lon="11.2079332"><ele>173.0</ele><time>2026-04-18T13:25:38.202Z</time></trkpt><trkpt lat="43.6702909" lon="11.2078331"><ele>173.0</ele><time>2026-04-18T13:25:39.203Z</time></trkpt><trkpt lat="43.6703968" lon="11.2077033"><ele>175.25</ele><time>2026-04-18T13:25:40.203Z</time></trkpt><trkpt lat="43.6704729" lon="11.2075223"><ele>177.5</ele><time>2026-04-18T13:25:41.203Z</time></trkpt><trkpt lat="43.6705071" lon="11.2073268"><ele>179.75</ele><time>2026-04-18T13:25:42.202Z</time></trkpt><trkpt lat="43.6704939" lon="11.2071297"><ele>182.0</ele><time>2026-04-18T13:25:43.203Z</time></trkpt><trkpt lat="43.6704412" lon="11.2069658"><ele>181.66666666666666</ele><time>2026-04-18T13:25:44.203Z</time></trkpt><trkpt lat="43.6703478" lon="11.2068365"><ele>181.33333333333334</ele><time>2026-04-18T13:25:45.203Z</time></trkpt><trkpt lat="43.6702158" lon="11.2067203"><ele>181.0</ele><time>2026-04-18T13:25:46.202Z</time></trkpt><trkpt lat="43.6700484" lon="11.2066377"><ele>181.0</ele><time>2026-04-18T13:25:47.202Z</time></trkpt><trkpt lat="43.6698696" lon="11.2065758"><ele>181.0</ele><time>2026-04-18T13:25:48.202Z</time></trkpt><trkpt lat="43.6696725" lon="11.2065091"><ele>181.0</ele><time>2026-04-18T13:25:49.203Z</time></trkpt><trkpt lat="43.6694666" lon="11.2064329"><ele>186.0</ele><time>2026-04-18T13:25:50.203Z</time></trkpt><trkpt lat="43.669244" lon="11.2063608"><ele>191.0</ele><time>2026-04-18T13:25:51.203Z</time></trkpt><trkpt lat="43.6690169" lon="11.2062905"><ele>191.0</ele><time>2026-04-18T13:25:52.203Z</time></trkpt><trkpt lat="43.6687929" lon="11.2062411"><ele>191.0</ele><time>2026-04-18T13:25:53.203Z</time></trkpt><trkpt lat="43.668571" lon="11.2062182"><ele>191.0</ele><time>2026-04-18T13:25:54.203Z</time></trkpt><trkpt lat="43.6683433" lon="11.2062384"><ele>193.0</ele><time>2026-04-18T13:25:55.203Z</time></trkpt><trkpt lat="43.6681232" lon="11.2062902"><ele>195.0</ele><time>2026-04-18T13:25:56.202Z</time></trkpt><trkpt lat="43.6679231" lon="11.2063584"><ele>197.0</ele><time>2026-04-18T13:25:57.203Z</time></trkpt><trkpt lat="43.6677261" lon="11.2064288"><ele>195.66666666666669</ele><time>2026-04-18T13:25:58.202Z</time></trkpt><trkpt lat="43.6675347" lon="11.2064797"><ele>194.33333333333331</ele><time>2026-04-18T13:25:59.203Z</time></trkpt><trkpt lat="43.667368" lon="11.2065372"><ele>193.0</ele><time>2026-04-18T13:26:00.202Z</time></trkpt><trkpt lat="43.6672262" lon="11.2066259"><ele>193.0</ele><time>2026-04-18T13:26:01.203Z</time></trkpt><trkpt lat="43.667084" lon="11.2067501"><ele>193.0</ele><time>2026-04-18T13:26:02.203Z</time></trkpt><trkpt lat="43.666936" lon="11.2068916"><ele>193.0</ele><time>2026-04-18T13:26:03.203Z</time></trkpt><trkpt lat="43.6667726" lon="11.2070438"><ele>194.33333333333331</ele><time>2026-04-18T13:26:04.203Z</time></trkpt><trkpt lat="43.6666025" lon="11.2072073"><ele>195.66666666666669</ele><time>2026-04-18T13:26:05.203Z</time></trkpt><trkpt lat="43.6664574" lon="11.2073608"><ele>197.0</ele><time>2026-04-18T13:26:06.203Z</time></trkpt><trkpt lat="43.6663186" lon="11.2074872"><ele>197.0</ele><time>2026-04-18T13:26:07.203Z</time></trkpt><trkpt lat="43.6661772" lon="11.207572"><ele>197.0</ele><time>2026-04-18T13:26:08.203Z</time></trkpt><trkpt lat="43.6660224" lon="11.207594"><ele>197.0</ele><time>2026-04-18T13:26:09.203Z</time></trkpt><trkpt lat="43.6658711" lon="11.2075848"><ele>199.25</ele><time>2026-04-18T13:26:10.202Z</time></trkpt><trkpt lat="43.6657667" lon="11.2074493"><ele>201.5</ele><time>2026-04-18T13:26:11.203Z</time></trkpt><trkpt lat="43.6656728" lon="11.2072941"><ele>203.75</ele><time>2026-04-18T13:26:12.203Z</time></trkpt><trkpt lat="43.6656281" lon="11.2070895"><ele>206.0</ele><time>2026-04-18T13:26:13.202Z</time></trkpt><trkpt lat="43.6656121" lon="11.2068503"><ele>208.33333333333334</ele><time>2026-04-18T13:26:14.203Z</time></trkpt><trkpt lat="43.6655897" lon="11.2065907"><ele>210.66666666666669</ele><time>2026-04-18T13:26:15.203Z</time></trkpt><trkpt lat="43.6655802" lon="11.2063233"><ele>213.0</ele><time>2026-04-18T13:26:16.203Z</time></trkpt><trkpt lat="43.6655779" lon="11.2060397"><ele>216.0</ele><time>2026-04-18T13:26:17.202Z</time></trkpt><trkpt lat="43.6656031" lon="11.2057486"><ele>219.0</ele><time>2026-04-18T13:26:18.203Z</time></trkpt><trkpt lat="43.6656435" lon="11.2054531"><ele>222.0</ele><time>2026-04-18T13:26:19.202Z</time></trkpt><trkpt lat="43.6656793" lon="11.2051502"><ele>223.66666666666669</ele><time>2026-04-18T13:26:20.203Z</time></trkpt><trkpt lat="43.6656737" lon="11.2048474"><ele>225.33333333333334</ele><time>2026-04-18T13:26:21.203Z</time></trkpt><trkpt lat="43.6656391" lon="11.2045442"><ele>227.0</ele><time>2026-04-18T13:26:22.202Z</time></trkpt><trkpt lat="43.6655721" lon="11.2042489"><ele>234.5</ele><time>2026-04-18T13:26:23.202Z</time></trkpt><trkpt lat="43.6654787" lon="11.2039544"><ele>242.0</ele><time>2026-04-18T13:26:24.203Z</time></trkpt><trkpt lat="43.6653973" lon="11.2036721"><ele>242.0</ele><time>2026-04-18T13:26:25.203Z</time></trkpt><trkpt lat="43.665344" lon="11.2033872"><ele>242.0</ele><time>2026-04-18T13:26:26.203Z</time></trkpt><trkpt lat="43.6653253" lon="11.2031009"><ele>242.0</ele><time>2026-04-18T13:26:27.203Z</time></trkpt><trkpt lat="43.6653442" lon="11.2028121"><ele>241.66666666666669</ele><time>2026-04-18T13:26:28.203Z</time></trkpt><trkpt lat="43.665404" lon="11.202534"><ele>241.33333333333331</ele><time>2026-04-18T13:26:29.202Z</time></trkpt><trkpt lat="43.665484" lon="11.2022593"><ele>241.0</ele><time>2026-04-18T13:26:30.203Z</time></trkpt><trkpt lat="43.6655558" lon="11.2019662"><ele>241.0</ele><time>2026-04-18T13:26:31.202Z</time></trkpt><trkpt lat="43.6655919" lon="11.2016514"><ele>241.0</ele><time>2026-04-18T13:26:32.203Z</time></trkpt><trkpt lat="43.6656048" lon="11.2013462"><ele>241.0</ele><time>2026-04-18T13:26:33.203Z</time></trkpt><trkpt lat="43.6656339" lon="11.2010554"><ele>241.0</ele><time>2026-04-18T13:26:34.203Z</time></trkpt><trkpt lat="43.6656986" lon="11.200767"><ele>241.0</ele><time>2026-04-18T13:26:35.203Z</time></trkpt><trkpt lat="43.6657856" lon="11.2004951"><ele>239.33333333333331</ele><time>2026-04-18T13:26:36.202Z</time></trkpt><trkpt lat="43.6658755" lon="11.2002286"><ele>237.66666666666669</ele><time>2026-04-18T13:26:37.203Z</time></trkpt><trkpt lat="43.6659413" lon="11.1999546"><ele>236.0</ele><time>2026-04-18T13:26:38.202Z</time></trkpt><trkpt lat="43.6659908" lon="11.1997025"><ele>234.33333333333334</ele><time>2026-04-18T13:26:39.203Z</time></trkpt><trkpt lat="43.6660814" lon="11.1994521"><ele>232.66666666666669</ele><time>2026-04-18T13:26:40.203Z</time></trkpt><trkpt lat="43.6661919" lon="11.1992405"><ele>231.0</ele><time>2026-04-18T13:26:41.203Z</time></trkpt><trkpt lat="43.6662937" lon="11.199047"><ele>238.33333333333331</ele><time>2026-04-18T13:26:42.202Z</time></trkpt><trkpt lat="43.6663792" lon="11.1988535"><ele>245.66666666666666</ele><time>2026-04-18T13:26:43.203Z</time></trkpt><trkpt lat="43.6664246" lon="11.1986406"><ele>253.0</ele><time>2026-04-18T13:26:44.202Z</time></trkpt><trkpt lat="43.666429" lon="11.1984258"><ele>253.0</ele><time>2026-04-18T13:26:45.203Z</time></trkpt><trkpt lat="43.6663949" lon="11.1982186"><ele>253.0</ele><time>2026-04-18T13:26:46.202Z</time></trkpt><trkpt lat="43.6663091" lon="11.198039"><ele>253.0</ele><time>2026-04-18T13:26:47.203Z</time></trkpt><trkpt lat="43.6661844" lon="11.1979064"><ele>251.66666666666666</ele><time>2026-04-18T13:26:48.203Z</time></trkpt><trkpt lat="43.6660317" lon="11.1978022"><ele>250.33333333333331</ele><time>2026-04-18T13:26:49.202Z</time></trkpt><trkpt lat="43.6658798" lon="11.1976994"><ele>249.0</ele><time>2026-04-18T13:26:50.202Z</time></trkpt><trkpt lat="43.6657439" lon="11.1975495"><ele>249.0</ele><time>2026-04-18T13:26:51.202Z</time></trkpt><trkpt lat="43.6656414" lon="11.1973617"><ele>249.0</ele><time>2026-04-18T13:26:52.203Z</time></trkpt><trkpt lat="43.6655793" lon="11.1971398"><ele>249.0</ele><time>2026-04-18T13:26:53.203Z</time></trkpt><trkpt lat="43.6655518" lon="11.1968974"><ele>252.33333333333331</ele><time>2026-04-18T13:26:54.203Z</time></trkpt><trkpt lat="43.6655193" lon="11.1966505"><ele>255.66666666666666</ele><time>2026-04-18T13:26:55.203Z</time></trkpt><trkpt lat="43.66544" lon="11.196408"><ele>259.0</ele><time>2026-04-18T13:26:56.203Z</time></trkpt><trkpt lat="43.6653264" lon="11.1961764"><ele>257.0</ele><time>2026-04-18T13:26:57.202Z</time></trkpt><trkpt lat="43.6651909" lon="11.1959551"><ele>255.0</ele><time>2026-04-18T13:26:58.203Z</time></trkpt><trkpt lat="43.6650648" lon="11.195746"><ele>253.0</ele><time>2026-04-18T13:26:59.202Z</time></trkpt><trkpt lat="43.6649654" lon="11.1955217"><ele>257.0</ele><time>2026-04-18T13:27:00.202Z</time></trkpt><trkpt lat="43.6649039" lon="11.1952692"><ele>261.0</ele><time>2026-04-18T13:27:01.202Z</time></trkpt><trkpt lat="43.6648642" lon="11.1950053"><ele>265.0</ele><time>2026-04-18T13:27:02.202Z</time></trkpt><trkpt lat="43.6648543" lon="11.1947391"><ele>266.3333333333333</ele><time>2026-04-18T13:27:03.203Z</time></trkpt><trkpt lat="43.6648722" lon="11.1944635"><ele>267.6666666666667</ele><time>2026-04-18T13:27:04.203Z</time></trkpt><trkpt lat="43.6649062" lon="11.1941857"><ele>269.0</ele><time>2026-04-18T13:27:05.203Z</time></trkpt><trkpt lat="43.6649354" lon="11.1939364"><ele>270.0</ele><time>2026-04-18T13:27:06.202Z</time></trkpt><trkpt lat="43.6649494" lon="11.1936998"><ele>271.0</ele><time>2026-04-18T13:27:07.203Z</time></trkpt><trkpt lat="43.6649362" lon="11.1934721"><ele>272.0</ele><time>2026-04-18T13:27:08.203Z</time></trkpt><trkpt lat="43.6648694" lon="11.1932595"><ele>275.33333333333337</ele><time>2026-04-18T13:27:09.203Z</time></trkpt><trkpt lat="43.6647619" lon="11.1930559"><ele>278.6666666666667</ele><time>2026-04-18T13:27:10.203Z</time></trkpt><trkpt lat="43.6646339" lon="11.1928721"><ele>282.0</ele><time>2026-04-18T13:27:11.202Z</time></trkpt><trkpt lat="43.6644881" lon="11.1926812"><ele>282.0</ele><time>2026-04-18T13:27:12.202Z</time></trkpt><trkpt lat="43.6643494" lon="11.1924829"><ele>282.0</ele><time>2026-04-18T13:27:13.203Z</time></trkpt><trkpt lat="43.6642166" lon="11.1922813"><ele>282.0</ele><time>2026-04-18T13:27:14.202Z</time></trkpt><trkpt lat="43.6640911" lon="11.1920999"><ele>282.0</ele><time>2026-04-18T13:27:15.203Z</time></trkpt><trkpt lat="43.6639649" lon="11.1919532"><ele>282.0</ele><time>2026-04-18T13:27:16.203Z</time></trkpt><trkpt lat="43.6638256" lon="11.1918371"><ele>282.0</ele><time>2026-04-18T13:27:17.202Z</time></trkpt><trkpt lat="43.6636688" lon="11.1917548"><ele>281.6666666666667</ele><time>2026-04-18T13:27:18.203Z</time></trkpt><trkpt lat="43.6634879" lon="11.1916931"><ele>281.33333333333337</ele><time>2026-04-18T13:27:19.203Z</time></trkpt><trkpt lat="43.6633078" lon="11.1916228"><ele>281.0</ele><time>2026-04-18T13:27:20.202Z</time></trkpt><trkpt lat="43.6631447" lon="11.1915575"><ele>281.0</ele><time>2026-04-18T13:27:21.203Z</time></trkpt><trkpt lat="43.662991" lon="11.1915151"><ele>281.0</ele><time>2026-04-18T13:27:22.203Z</time></trkpt><trkpt lat="43.6628526" lon="11.1915048"><ele>281.0</ele><time>2026-04-18T13:27:23.203Z</time></trkpt><trkpt lat="43.6627261" lon="11.1915254"><ele>281.0</ele><time>2026-04-18T13:27:24.203Z</time></trkpt><trkpt lat="43.6626175" lon="11.1915269"><ele>281.6666666666667</ele><time>2026-04-18T13:27:25.203Z</time></trkpt><trkpt lat="43.6625258" lon="11.1915003"><ele>282.33333333333337</ele><time>2026-04-18T13:27:26.202Z</time></trkpt><trkpt lat="43.6624528" lon="11.1914465"><ele>283.0</ele><time>2026-04-18T13:27:27.202Z</time></trkpt><trkpt lat="43.6624048" lon="11.1913615"><ele>283.6666666666667</ele><time>2026-04-18T13:27:28.203Z</time></trkpt><trkpt lat="43.6623809" lon="11.1912598"><ele>284.3333333333333</ele><time>2026-04-18T13:27:29.203Z</time></trkpt><trkpt lat="43.6623663" lon="11.1911606"><ele>285.0</ele><time>2026-04-18T13:27:30.203Z</time></trkpt><trkpt lat="43.662331" lon="11.1910745"><ele>285.0</ele><time>2026-04-18T13:27:31.202Z</time></trkpt><trkpt lat="43.6622844" lon="11.19101"><ele>285.0</ele><time>2026-04-18T13:27:32.202Z</time></trkpt><trkpt lat="43.662165" lon="11.1909232"><ele>285.0</ele><time>2026-04-18T13:27:34.203Z</time></trkpt><trkpt lat="43.6620717" lon="11.190883"><ele>285.0</ele><time>2026-04-18T13:27:35.202Z</time></trkpt><trkpt lat="43.661964" lon="11.1908446"><ele>285.0</ele><time>2026-04-18T13:27:36.202Z</time></trkpt><trkpt lat="43.6618448" lon="11.1907934"><ele>285.0</ele><time>2026-04-18T13:27:37.202Z</time></trkpt><trkpt lat="43.6617168" lon="11.1907583"><ele>285.0</ele><time>2026-04-18T13:27:38.203Z</time></trkpt><trkpt lat="43.661571" lon="11.1907137"><ele>285.0</ele><time>2026-04-18T13:27:39.203Z</time></trkpt><trkpt lat="43.6614187" lon="11.190662"><ele>285.0</ele><time>2026-04-18T13:27:40.202Z</time></trkpt><trkpt lat="43.6612529" lon="11.1906134"><ele>286.5</ele><time>2026-04-18T13:27:41.203Z</time></trkpt><trkpt lat="43.6610965" lon="11.1905721"><ele>288.0</ele><time>2026-04-18T13:27:42.203Z</time></trkpt><trkpt lat="43.6609537" lon="11.1905389"><ele>289.5</ele><time>2026-04-18T13:27:43.203Z</time></trkpt><trkpt lat="43.6608203" lon="11.1905019"><ele>291.0</ele><time>2026-04-18T13:27:44.202Z</time></trkpt><trkpt lat="43.6606835" lon="11.190457"><ele>291.0</ele><time>2026-04-18T13:27:45.203Z</time></trkpt><trkpt lat="43.6605548" lon="11.1903959"><ele>291.0</ele><time>2026-04-18T13:27:46.202Z</time></trkpt><trkpt lat="43.660434" lon="11.1903181"><ele>291.0</ele><time>2026-04-18T13:27:47.202Z</time></trkpt><trkpt lat="43.6603177" lon="11.1902293"><ele>291.0</ele><time>2026-04-18T13:27:48.203Z</time></trkpt><trkpt lat="43.6602012" lon="11.1901389"><ele>292.6666666666667</ele><time>2026-04-18T13:27:49.203Z</time></trkpt><trkpt lat="43.6600685" lon="11.1900378"><ele>294.33333333333337</ele><time>2026-04-18T13:27:50.202Z</time></trkpt><trkpt lat="43.6599267" lon="11.1899156"><ele>296.0</ele><time>2026-04-18T13:27:51.203Z</time></trkpt><trkpt lat="43.6597891" lon="11.1897912"><ele>296.0</ele><time>2026-04-18T13:27:52.203Z</time></trkpt><trkpt lat="43.6596459" lon="11.1896675"><ele>296.0</ele><time>2026-04-18T13:27:53.202Z</time></trkpt><trkpt lat="43.6595077" lon="11.1895695"><ele>296.0</ele><time>2026-04-18T13:27:54.203Z</time></trkpt><trkpt lat="43.6593813" lon="11.189491"><ele>297.40000000000003</ele><time>2026-04-18T13:27:55.203Z</time></trkpt><trkpt lat="43.6592657" lon="11.1894248"><ele>298.8</ele><time>2026-04-18T13:27:56.202Z</time></trkpt><trkpt lat="43.6591615" lon="11.1893672"><ele>300.20000000000005</ele><time>2026-04-18T13:27:57.203Z</time></trkpt><trkpt lat="43.6590654" lon="11.1893097"><ele>301.6</ele><time>2026-04-18T13:27:58.203Z</time></trkpt><trkpt lat="43.6589738" lon="11.1892461"><ele>303.0</ele><time>2026-04-18T13:27:59.203Z</time></trkpt><trkpt lat="43.6589012" lon="11.1891792"><ele>303.0</ele><time>2026-04-18T13:28:00.202Z</time></trkpt><trkpt lat="43.6588162" lon="11.1890884"><ele>303.0</ele><time>2026-04-18T13:28:01.203Z</time></trkpt><trkpt lat="43.6587183" lon="11.1889774"><ele>303.0</ele><time>2026-04-18T13:28:02.202Z</time></trkpt><trkpt lat="43.6586327" lon="11.1888632"><ele>303.0</ele><time>2026-04-18T13:28:03.203Z</time></trkpt><trkpt lat="43.6585542" lon="11.1887427"><ele>303.5</ele><time>2026-04-18T13:28:04.203Z</time></trkpt><trkpt lat="43.6584866" lon="11.1886163"><ele>304.0</ele><time>2026-04-18T13:28:05.203Z</time></trkpt><trkpt lat="43.6584094" lon="11.1885048"><ele>304.5</ele><time>2026-04-18T13:28:06.203Z</time></trkpt><trkpt lat="43.6583011" lon="11.1884351"><ele>305.0</ele><time>2026-04-18T13:28:07.203Z</time></trkpt><trkpt lat="43.6581838" lon="11.188378"><ele>305.0</ele><time>2026-04-18T13:28:08.203Z</time></trkpt><trkpt lat="43.6580553" lon="11.1883175"><ele>305.0</ele><time>2026-04-18T13:28:09.203Z</time></trkpt><trkpt lat="43.6579274" lon="11.1882578"><ele>305.0</ele><time>2026-04-18T13:28:10.202Z</time></trkpt><trkpt lat="43.6577934" lon="11.1881927"><ele>305.0</ele><time>2026-04-18T13:28:11.203Z</time></trkpt><trkpt lat="43.6576559" lon="11.1881265"><ele>306.33333333333337</ele><time>2026-04-18T13:28:12.203Z</time></trkpt><trkpt lat="43.6575126" lon="11.1880547"><ele>307.6666666666667</ele><time>2026-04-18T13:28:13.203Z</time></trkpt><trkpt lat="43.6573643" lon="11.1879801"><ele>309.0</ele><time>2026-04-18T13:28:14.203Z</time></trkpt><trkpt lat="43.6572101" lon="11.1879017"><ele>309.0</ele><time>2026-04-18T13:28:15.202Z</time></trkpt><trkpt lat="43.6570508" lon="11.1878231"><ele>309.0</ele><time>2026-04-18T13:28:16.202Z</time></trkpt><trkpt lat="43.6568969" lon="11.187747"><ele>309.0</ele><time>2026-04-18T13:28:17.202Z</time></trkpt><trkpt lat="43.6567424" lon="11.1876708"><ele>308.0</ele><time>2026-04-18T13:28:18.203Z</time></trkpt><trkpt lat="43.6565808" lon="11.1875999"><ele>307.0</ele><time>2026-04-18T13:28:19.203Z</time></trkpt><trkpt lat="43.6564213" lon="11.187542"><ele>306.0</ele><time>2026-04-18T13:28:20.203Z</time></trkpt><trkpt lat="43.6562718" lon="11.1874984"><ele>306.0</ele><time>2026-04-18T13:28:21.203Z</time></trkpt><trkpt lat="43.6561292" lon="11.187472"><ele>306.0</ele><time>2026-04-18T13:28:22.203Z</time></trkpt><trkpt lat="43.6559841" lon="11.187462"><ele>306.0</ele><time>2026-04-18T13:28:23.202Z</time></trkpt><trkpt lat="43.655845" lon="11.18747"><ele>306.0</ele><time>2026-04-18T13:28:24.203Z</time></trkpt><trkpt lat="43.6557044" lon="11.1874587"><ele>305.40000000000003</ele><time>2026-04-18T13:28:25.202Z</time></trkpt><trkpt lat="43.655578" lon="11.1874297"><ele>304.8</ele><time>2026-04-18T13:28:26.203Z</time></trkpt><trkpt lat="43.6554667" lon="11.187395"><ele>304.20000000000005</ele><time>2026-04-18T13:28:27.202Z</time></trkpt><trkpt lat="43.6553663" lon="11.1873437"><ele>303.6</ele><time>2026-04-18T13:28:28.202Z</time></trkpt><trkpt lat="43.6552849" lon="11.1872803"><ele>303.0</ele><time>2026-04-18T13:28:29.202Z</time></trkpt><trkpt lat="43.6552311" lon="11.1871918"><ele>302.2</ele><time>2026-04-18T13:28:30.202Z</time></trkpt><trkpt lat="43.6552012" lon="11.187091"><ele>301.4</ele><time>2026-04-18T13:28:31.203Z</time></trkpt><trkpt lat="43.6552076" lon="11.1869845"><ele>300.59999999999997</ele><time>2026-04-18T13:28:32.203Z</time></trkpt><trkpt lat="43.6552423" lon="11.1868696"><ele>299.8</ele><time>2026-04-18T13:28:33.203Z</time></trkpt><trkpt lat="43.6552938" lon="11.1867418"><ele>299.0</ele><time>2026-04-18T13:28:34.202Z</time></trkpt><trkpt lat="43.6553477" lon="11.1866065"><ele>300.5</ele><time>2026-04-18T13:28:35.202Z</time></trkpt><trkpt lat="43.6554159" lon="11.1864634"><ele>302.0</ele><time>2026-04-18T13:28:36.203Z</time></trkpt><trkpt lat="43.6555066" lon="11.1863034"><ele>303.5</ele><time>2026-04-18T13:28:37.203Z</time></trkpt><trkpt lat="43.6555964" lon="11.1861469"><ele>305.0</ele><time>2026-04-18T13:28:38.203Z</time></trkpt><trkpt lat="43.6556817" lon="11.185975"><ele>305.0</ele><time>2026-04-18T13:28:39.202Z</time></trkpt><trkpt lat="43.655766" lon="11.1857952"><ele>305.0</ele><time>2026-04-18T13:28:40.202Z</time></trkpt><trkpt lat="43.6558629" lon="11.1856183"><ele>305.0</ele><time>2026-04-18T13:28:41.202Z</time></trkpt><trkpt lat="43.6559542" lon="11.1854399"><ele>306.75</ele><time>2026-04-18T13:28:42.203Z</time></trkpt><trkpt lat="43.6560387" lon="11.1852669"><ele>308.5</ele><time>2026-04-18T13:28:43.203Z</time></trkpt><trkpt lat="43.6561198" lon="11.1851087"><ele>310.25</ele><time>2026-04-18T13:28:44.203Z</time></trkpt><trkpt lat="43.6561956" lon="11.1849572"><ele>312.0</ele><time>2026-04-18T13:28:45.203Z</time></trkpt><trkpt lat="43.6562634" lon="11.1848172"><ele>312.0</ele><time>2026-04-18T13:28:46.203Z</time></trkpt><trkpt lat="43.656316" lon="11.184696"><ele>312.0</ele><time>2026-04-18T13:28:47.203Z</time></trkpt><trkpt lat="43.6563592" lon="11.1845869"><ele>312.0</ele><time>2026-04-18T13:28:48.202Z</time></trkpt><trkpt lat="43.6563948" lon="11.1844879"><ele>312.0</ele><time>2026-04-18T13:28:49.202Z</time></trkpt><trkpt lat="43.6564184" lon="11.1843961"><ele>312.0</ele><time>2026-04-18T13:28:50.203Z</time></trkpt><trkpt lat="43.6564207" lon="11.1842615"><ele>312.0</ele><time>2026-04-18T13:28:52.202Z</time></trkpt><trkpt lat="43.6563614" lon="11.1841927"><ele>312.0</ele><time>2026-04-18T13:28:54.203Z</time></trkpt><trkpt lat="43.6562925" lon="11.1841584"><ele>312.0</ele><time>2026-04-18T13:28:56.203Z</time></trkpt><trkpt lat="43.6562262" lon="11.1841317"><ele>312.0</ele><time>2026-04-18T13:28:58.203Z</time></trkpt><trkpt lat="43.6561376" lon="11.1840988"><ele>312.0</ele><time>2026-04-18T13:29:00.203Z</time></trkpt><trkpt lat="43.6560479" lon="11.1840648"><ele>312.0</ele><time>2026-04-18T13:29:02.202Z</time></trkpt><trkpt lat="43.6559521" lon="11.1840228"><ele>312.0</ele><time>2026-04-18T13:29:04.202Z</time></trkpt><trkpt lat="43.6558636" lon="11.1839816"><ele>310.2</ele><time>2026-04-18T13:29:06.203Z</time></trkpt><trkpt lat="43.6557955" lon="11.1839666"><ele>308.4</ele><time>2026-04-18T13:29:08.203Z</time></trkpt><trkpt lat="43.6557083" lon="11.1839366"><ele>306.6</ele><time>2026-04-18T13:29:10.203Z</time></trkpt><trkpt lat="43.6556027" lon="11.1838948"><ele>304.8</ele><time>2026-04-18T13:29:12.203Z</time></trkpt><trkpt lat="43.6554926" lon="11.1838518"><ele>303.0</ele><time>2026-04-18T13:29:14.203Z</time></trkpt><trkpt lat="43.6554033" lon="11.1838263"><ele>303.0</ele><time>2026-04-18T13:29:16.203Z</time></trkpt><trkpt lat="43.6553271" lon="11.1838035"><ele>303.0</ele><time>2026-04-18T13:29:18.203Z</time></trkpt><trkpt lat="43.6552308" lon="11.1837826"><ele>303.0</ele><time>2026-04-18T13:29:20.203Z</time></trkpt><trkpt lat="43.6551191" lon="11.183776"><ele>303.0</ele><time>2026-04-18T13:29:22.203Z</time></trkpt><trkpt lat="43.6550209" lon="11.1837417"><ele>303.0</ele><time>2026-04-18T13:29:24.203Z</time></trkpt><trkpt lat="43.6549202" lon="11.1837338"><ele>303.0</ele><time>2026-04-18T13:29:26.203Z</time></trkpt><trkpt lat="43.6547998" lon="11.1837179"><ele>303.0</ele><time>2026-04-18T13:29:28.203Z</time></trkpt><trkpt lat="43.6547301" lon="11.1837087"><ele>303.0</ele><time>2026-04-18T13:29:29.202Z</time></trkpt><trkpt lat="43.6546549" lon="11.1836891"><ele>303.0</ele><time>2026-04-18T13:29:30.203Z</time></trkpt><trkpt lat="43.6545894" lon="11.1836758"><ele>303.0</ele><time>2026-04-18T13:29:31.203Z</time></trkpt><trkpt lat="43.6544878" lon="11.1836642"><ele>303.0</ele><time>2026-04-18T13:29:33.203Z</time></trkpt><trkpt lat="43.6543878" lon="11.1836521"><ele>303.0</ele><time>2026-04-18T13:29:35.203Z</time></trkpt><trkpt lat="43.6542612" lon="11.1835972"><ele>303.0</ele><time>2026-04-18T13:29:37.203Z</time></trkpt><trkpt lat="43.6541998" lon="11.1835522"><ele>303.0</ele><time>2026-04-18T13:29:38.202Z</time></trkpt><trkpt lat="43.6541592" lon="11.1834429"><ele>303.0</ele><time>2026-04-18T13:29:40.203Z</time></trkpt><trkpt lat="43.6542367" lon="11.1833862"><ele>303.0</ele><time>2026-04-18T13:29:42.203Z</time></trkpt><trkpt lat="43.6542968" lon="11.1832321"><ele>302.2</ele><time>2026-04-18T13:29:44.203Z</time></trkpt><trkpt lat="43.6543155" lon="11.1831485"><ele>301.4</ele><time>2026-04-18T13:29:45.202Z</time></trkpt><trkpt lat="43.6543811" lon="11.1830493"><ele>300.59999999999997</ele><time>2026-04-18T13:29:47.203Z</time></trkpt><trkpt lat="43.6545373" lon="11.183047"><ele>299.8</ele><time>2026-04-18T13:29:49.202Z</time></trkpt><trkpt lat="43.654623" lon="11.1830563"><ele>299.0</ele><time>2026-04-18T13:29:50.203Z</time></trkpt><trkpt lat="43.654697" lon="11.1830622"><ele>298.0</ele><time>2026-04-18T13:29:51.203Z</time></trkpt><trkpt lat="43.6547919" lon="11.1831035"><ele>297.0</ele><time>2026-04-18T13:29:53.203Z</time></trkpt><trkpt lat="43.6547866" lon="11.1831996"><ele>296.0</ele><time>2026-04-18T13:30:04.203Z</time></trkpt><trkpt lat="43.6547629" lon="11.1831117"><ele>295.0</ele><time>2026-04-18T13:48:50.203Z</time></trkpt><trkpt lat="43.6547034" lon="11.1830648"><ele>294.0</ele><time>2026-04-18T13:50:13.203Z</time></trkpt><trkpt lat="43.6545924" lon="11.1830297"><ele>293.0</ele><time>2026-04-18T13:50:15.203Z</time></trkpt><trkpt lat="43.6545268" lon="11.1830205"><ele>294.0</ele><time>2026-04-18T13:50:16.203Z</time></trkpt><trkpt lat="43.6544375" lon="11.1830124"><ele>295.0</ele><time>2026-04-18T13:50:18.202Z</time></trkpt><trkpt lat="43.654372" lon="11.1830125"><ele>296.0</ele><time>2026-04-18T13:50:20.203Z</time></trkpt><trkpt lat="43.6543095" lon="11.1830706"><ele>297.0</ele><time>2026-04-18T13:50:22.203Z</time></trkpt><trkpt lat="43.6542954" lon="11.1831777"><ele>298.0</ele><time>2026-04-18T13:50:24.203Z</time></trkpt><trkpt lat="43.6542787" lon="11.1832825"><ele>299.0</ele><time>2026-04-18T13:50:26.202Z</time></trkpt><trkpt lat="43.6542529" lon="11.1833681"><ele>299.6666666666667</ele><time>2026-04-18T13:50:28.203Z</time></trkpt><trkpt lat="43.6541821" lon="11.1833973"><ele>300.33333333333337</ele><time>2026-04-18T13:50:31.202Z</time></trkpt><trkpt lat="43.6541641" lon="11.1835"><ele>301.0</ele><time>2026-04-18T13:50:35.203Z</time></trkpt><trkpt lat="43.6542395" lon="11.1835639"><ele>301.6666666666667</ele><time>2026-04-18T13:50:38.203Z</time></trkpt><trkpt lat="43.6541019" lon="11.1835854"><ele>302.3333333333333</ele><time>2026-04-18T13:50:47.203Z</time></trkpt><trkpt lat="43.6540333" lon="11.1835913"><ele>303.0</ele><time>2026-04-18T13:50:48.203Z</time></trkpt><trkpt lat="43.6539346" lon="11.1835985"><ele>303.0</ele><time>2026-04-18T13:50:50.203Z</time></trkpt><trkpt lat="43.6538676" lon="11.1836025"><ele>303.0</ele><time>2026-04-18T13:50:52.203Z</time></trkpt><trkpt lat="43.6537305" lon="11.1835756"><ele>303.0</ele><time>2026-04-18T13:50:53.202Z</time></trkpt><trkpt lat="43.6536364" lon="11.1835713"><ele>303.0</ele><time>2026-04-18T13:50:54.202Z</time></trkpt><trkpt lat="43.6535724" lon="11.183536"><ele>303.0</ele><time>2026-04-18T13:50:55.202Z</time></trkpt><trkpt lat="43.653486" lon="11.1835117"><ele>302.0</ele><time>2026-04-18T13:50:56.203Z</time></trkpt><trkpt lat="43.6533997" lon="11.183486"><ele>301.0</ele><time>2026-04-18T13:50:57.202Z</time></trkpt><trkpt lat="43.653314" lon="11.1834626"><ele>300.0</ele><time>2026-04-18T13:50:58.202Z</time></trkpt><trkpt lat="43.6532275" lon="11.183429"><ele>299.0</ele><time>2026-04-18T13:50:59.203Z</time></trkpt><trkpt lat="43.6531407" lon="11.1833985"><ele>298.0</ele><time>2026-04-18T13:51:00.203Z</time></trkpt><trkpt lat="43.6530549" lon="11.1833765"><ele>297.0</ele><time>2026-04-18T13:51:01.203Z</time></trkpt><trkpt lat="43.6529695" lon="11.1833438"><ele>297.0</ele><time>2026-04-18T13:51:02.202Z</time></trkpt><trkpt lat="43.6528824" lon="11.183306"><ele>297.0</ele><time>2026-04-18T13:51:03.202Z</time></trkpt><trkpt lat="43.6527969" lon="11.1832639"><ele>297.0</ele><time>2026-04-18T13:51:04.202Z</time></trkpt><trkpt lat="43.6527252" lon="11.1832287"><ele>297.0</ele><time>2026-04-18T13:51:05.203Z</time></trkpt><trkpt lat="43.6526458" lon="11.1831845"><ele>297.0</ele><time>2026-04-18T13:51:06.202Z</time></trkpt><trkpt lat="43.6525749" lon="11.1831432"><ele>297.0</ele><time>2026-04-18T13:51:07.203Z</time></trkpt><trkpt lat="43.6525065" lon="11.1831018"><ele>295.6666666666667</ele><time>2026-04-18T13:51:08.203Z</time></trkpt><trkpt lat="43.6524065" lon="11.1830659"><ele>294.3333333333333</ele><time>2026-04-18T13:51:10.203Z</time></trkpt><trkpt lat="43.6523431" lon="11.1831113"><ele>293.0</ele><time>2026-04-18T13:51:12.203Z</time></trkpt><trkpt lat="43.6523025" lon="11.183192"><ele>291.66666666666663</ele><time>2026-04-18T13:51:15.203Z</time></trkpt><trkpt lat="43.6523123" lon="11.1833258"><ele>290.3333333333333</ele><time>2026-04-18T13:51:17.203Z</time></trkpt><trkpt lat="43.6523497" lon="11.1834044"><ele>289.0</ele><time>2026-04-18T13:51:18.203Z</time></trkpt><trkpt lat="43.6523897" lon="11.183491"><ele>289.0</ele><time>2026-04-18T13:51:19.203Z</time></trkpt><trkpt lat="43.6524363" lon="11.1835902"><ele>289.0</ele><time>2026-04-18T13:51:20.203Z</time></trkpt><trkpt lat="43.6524884" lon="11.1836999"><ele>289.0</ele><time>2026-04-18T13:51:21.203Z</time></trkpt><trkpt lat="43.6525479" lon="11.1838182"><ele>289.0</ele><time>2026-04-18T13:51:22.202Z</time></trkpt><trkpt lat="43.6526245" lon="11.1839288"><ele>289.0</ele><time>2026-04-18T13:51:23.202Z</time></trkpt><trkpt lat="43.6527075" lon="11.1840446"><ele>289.75</ele><time>2026-04-18T13:51:24.202Z</time></trkpt><trkpt lat="43.6528007" lon="11.1841615"><ele>290.5</ele><time>2026-04-18T13:51:25.203Z</time></trkpt><trkpt lat="43.6528985" lon="11.1842819"><ele>291.25</ele><time>2026-04-18T13:51:26.202Z</time></trkpt><trkpt lat="43.6530096" lon="11.1843961"><ele>292.0</ele><time>2026-04-18T13:51:27.203Z</time></trkpt><trkpt lat="43.6531235" lon="11.184502"><ele>292.0</ele><time>2026-04-18T13:51:28.203Z</time></trkpt><trkpt lat="43.6532463" lon="11.1845981"><ele>292.0</ele><time>2026-04-18T13:51:29.202Z</time></trkpt><trkpt lat="43.6533806" lon="11.1846877"><ele>292.0</ele><time>2026-04-18T13:51:30.203Z</time></trkpt><trkpt lat="43.653518" lon="11.1847644"><ele>292.0</ele><time>2026-04-18T13:51:31.203Z</time></trkpt><trkpt lat="43.6536604" lon="11.1848257"><ele>287.3333333333333</ele><time>2026-04-18T13:51:32.203Z</time></trkpt><trkpt lat="43.6538078" lon="11.1848731"><ele>282.6666666666667</ele><time>2026-04-18T13:51:33.203Z</time></trkpt><trkpt lat="43.653955" lon="11.1849025"><ele>278.0</ele><time>2026-04-18T13:51:34.203Z</time></trkpt><trkpt lat="43.6541094" lon="11.1849168"><ele>278.0</ele><time>2026-04-18T13:51:35.202Z</time></trkpt><trkpt lat="43.6542585" lon="11.1849192"><ele>278.0</ele><time>2026-04-18T13:51:36.202Z</time></trkpt><trkpt lat="43.6544069" lon="11.1849157"><ele>278.0</ele><time>2026-04-18T13:51:37.203Z</time></trkpt><trkpt lat="43.654555" lon="11.1849216"><ele>278.0</ele><time>2026-04-18T13:51:38.203Z</time></trkpt><trkpt lat="43.6546948" lon="11.1849172"><ele>279.75</ele><time>2026-04-18T13:51:39.203Z</time></trkpt><trkpt lat="43.6548274" lon="11.1849147"><ele>281.5</ele><time>2026-04-18T13:51:40.203Z</time></trkpt><trkpt lat="43.6549572" lon="11.1849074"><ele>283.25</ele><time>2026-04-18T13:51:41.203Z</time></trkpt><trkpt lat="43.6550773" lon="11.1849141"><ele>285.0</ele><time>2026-04-18T13:51:42.203Z</time></trkpt><trkpt lat="43.6551938" lon="11.1849466"><ele>287.4</ele><time>2026-04-18T13:51:43.202Z</time></trkpt><trkpt lat="43.6552925" lon="11.1850155"><ele>289.8</ele><time>2026-04-18T13:51:44.202Z</time></trkpt><trkpt lat="43.6553702" lon="11.1851238"><ele>292.2</ele><time>2026-04-18T13:51:45.203Z</time></trkpt><trkpt lat="43.6554289" lon="11.185244"><ele>294.6</ele><time>2026-04-18T13:51:46.203Z</time></trkpt><trkpt lat="43.6554554" lon="11.1853802"><ele>297.0</ele><time>2026-04-18T13:51:47.202Z</time></trkpt><trkpt lat="43.655457" lon="11.1855246"><ele>297.0</ele><time>2026-04-18T13:51:48.203Z</time></trkpt><trkpt lat="43.6554351" lon="11.1856656"><ele>297.0</ele><time>2026-04-18T13:51:49.203Z</time></trkpt><trkpt lat="43.6553883" lon="11.1857851"><ele>297.0</ele><time>2026-04-18T13:51:50.203Z</time></trkpt><trkpt lat="43.6553334" lon="11.1858946"><ele>297.0</ele><time>2026-04-18T13:51:51.203Z</time></trkpt><trkpt lat="43.6552734" lon="11.1859973"><ele>297.0</ele><time>2026-04-18T13:51:52.203Z</time></trkpt><trkpt lat="43.6552221" lon="11.1861061"><ele>297.3333333333333</ele><time>2026-04-18T13:51:53.203Z</time></trkpt><trkpt lat="43.6551729" lon="11.1861904"><ele>297.6666666666667</ele><time>2026-04-18T13:51:54.203Z</time></trkpt><trkpt lat="43.6551215" lon="11.1862825"><ele>298.0</ele><time>2026-04-18T13:51:55.203Z</time></trkpt><trkpt lat="43.6550795" lon="11.1863618"><ele>298.33333333333337</ele><time>2026-04-18T13:51:56.203Z</time></trkpt><trkpt lat="43.6550428" lon="11.1864382"><ele>298.6666666666667</ele><time>2026-04-18T13:51:57.202Z</time></trkpt><trkpt lat="43.65499" lon="11.1865546"><ele>299.0</ele><time>2026-04-18T13:51:59.203Z</time></trkpt><trkpt lat="43.6549534" lon="11.1866387"><ele>299.0</ele><time>2026-04-18T13:52:01.202Z</time></trkpt><trkpt lat="43.6549172" lon="11.186741"><ele>299.0</ele><time>2026-04-18T13:52:04.203Z</time></trkpt><trkpt lat="43.6548857" lon="11.1868164"><ele>299.0</ele><time>2026-04-18T13:52:12.202Z</time></trkpt><trkpt lat="43.6548767" lon="11.1869377"><ele>299.0</ele><time>2026-04-18T13:52:15.202Z</time></trkpt><trkpt lat="43.6548999" lon="11.1870589"><ele>299.0</ele><time>2026-04-18T13:52:17.203Z</time></trkpt><trkpt lat="43.654985" lon="11.1871636"><ele>299.0</ele><time>2026-04-18T13:52:19.202Z</time></trkpt><trkpt lat="43.6551107" lon="11.1872404"><ele>299.0</ele><time>2026-04-18T13:52:21.202Z</time></trkpt><trkpt lat="43.6551836" lon="11.1872841"><ele>299.0</ele><time>2026-04-18T13:52:22.202Z</time></trkpt><trkpt lat="43.6552518" lon="11.187312"><ele>299.0</ele><time>2026-04-18T13:52:23.203Z</time></trkpt><trkpt lat="43.655312" lon="11.1873495"><ele>299.0</ele><time>2026-04-18T13:52:24.203Z</time></trkpt><trkpt lat="43.6553791" lon="11.1873852"><ele>299.0</ele><time>2026-04-18T13:52:25.203Z</time></trkpt><trkpt lat="43.6554578" lon="11.1874313"><ele>299.0</ele><time>2026-04-18T13:52:27.203Z</time></trkpt><trkpt lat="43.6555124" lon="11.1874829"><ele>299.0</ele><time>2026-04-18T13:52:29.203Z</time></trkpt><trkpt lat="43.6555644" lon="11.1875693"><ele>299.6666666666667</ele><time>2026-04-18T13:52:34.202Z</time></trkpt><trkpt lat="43.6556491" lon="11.1876018"><ele>300.33333333333337</ele><time>2026-04-18T13:52:36.202Z</time></trkpt><trkpt lat="43.6557122" lon="11.1875772"><ele>301.0</ele><time>2026-04-18T13:52:37.203Z</time></trkpt><trkpt lat="43.6557871" lon="11.1875358"><ele>301.6666666666667</ele><time>2026-04-18T13:52:38.202Z</time></trkpt><trkpt lat="43.6558635" lon="11.1874996"><ele>302.3333333333333</ele><time>2026-04-18T13:52:39.203Z</time></trkpt><trkpt lat="43.655938" lon="11.1874699"><ele>303.0</ele><time>2026-04-18T13:52:40.203Z</time></trkpt><trkpt lat="43.6560328" lon="11.1874725"><ele>303.6</ele><time>2026-04-18T13:52:41.203Z</time></trkpt><trkpt lat="43.6561273" lon="11.1874779"><ele>304.20000000000005</ele><time>2026-04-18T13:52:42.203Z</time></trkpt><trkpt lat="43.6562312" lon="11.187502"><ele>304.8</ele><time>2026-04-18T13:52:43.202Z</time></trkpt><trkpt lat="43.6563374" lon="11.1875338"><ele>305.40000000000003</ele><time>2026-04-18T13:52:44.202Z</time></trkpt><trkpt lat="43.6564511" lon="11.1875624"><ele>306.0</ele><time>2026-04-18T13:52:45.202Z</time></trkpt><trkpt lat="43.6565589" lon="11.1876097"><ele>306.0</ele><time>2026-04-18T13:52:46.202Z</time></trkpt><trkpt lat="43.6566689" lon="11.1876577"><ele>306.0</ele><time>2026-04-18T13:52:47.203Z</time></trkpt><trkpt lat="43.6567811" lon="11.1877092"><ele>306.0</ele><time>2026-04-18T13:52:48.203Z</time></trkpt><trkpt lat="43.6568906" lon="11.1877643"><ele>306.0</ele><time>2026-04-18T13:52:49.202Z</time></trkpt><trkpt lat="43.6569854" lon="11.1878137"><ele>306.6</ele><time>2026-04-18T13:52:50.203Z</time></trkpt><trkpt lat="43.6570685" lon="11.1878555"><ele>307.20000000000005</ele><time>2026-04-18T13:52:51.203Z</time></trkpt><trkpt lat="43.6571391" lon="11.1878863"><ele>307.79999999999995</ele><time>2026-04-18T13:52:52.203Z</time></trkpt><trkpt lat="43.6572264" lon="11.1879325"><ele>308.4</ele><time>2026-04-18T13:52:54.203Z</time></trkpt><trkpt lat="43.6573154" lon="11.187977"><ele>309.0</ele><time>2026-04-18T13:52:57.203Z</time></trkpt><trkpt lat="43.6574329" lon="11.1880348"><ele>309.0</ele><time>2026-04-18T13:52:59.202Z</time></trkpt><trkpt lat="43.6575087" lon="11.1880695"><ele>309.0</ele><time>2026-04-18T13:53:00.203Z</time></trkpt><trkpt lat="43.6575884" lon="11.1881104"><ele>309.0</ele><time>2026-04-18T13:53:01.203Z</time></trkpt><trkpt lat="43.657678" lon="11.1881531"><ele>309.0</ele><time>2026-04-18T13:53:02.203Z</time></trkpt><trkpt lat="43.657765" lon="11.1881989"><ele>309.0</ele><time>2026-04-18T13:53:03.203Z</time></trkpt><trkpt lat="43.6578518" lon="11.1882424"><ele>309.0</ele><time>2026-04-18T13:53:04.203Z</time></trkpt><trkpt lat="43.6579328" lon="11.1882866"><ele>308.3333333333333</ele><time>2026-04-18T13:53:05.202Z</time></trkpt><trkpt lat="43.658006" lon="11.188325"><ele>307.6666666666667</ele><time>2026-04-18T13:53:06.202Z</time></trkpt><trkpt lat="43.6580723" lon="11.1883599"><ele>307.0</ele><time>2026-04-18T13:53:07.203Z</time></trkpt><trkpt lat="43.6581358" lon="11.188404"><ele>306.33333333333337</ele><time>2026-04-18T13:53:08.203Z</time></trkpt><trkpt lat="43.6582242" lon="11.1884867"><ele>305.6666666666667</ele><time>2026-04-18T13:53:10.203Z</time></trkpt><trkpt lat="43.6583044" lon="11.1885596"><ele>305.0</ele><time>2026-04-18T13:53:13.202Z</time></trkpt><trkpt lat="43.6583634" lon="11.1886132"><ele>305.0</ele><time>2026-04-18T13:53:15.203Z</time></trkpt><trkpt lat="43.6584231" lon="11.1886719"><ele>305.0</ele><time>2026-04-18T13:53:18.203Z</time></trkpt><trkpt lat="43.6584825" lon="11.1887251"><ele>305.0</ele><time>2026-04-18T13:53:22.203Z</time></trkpt><trkpt lat="43.6585614" lon="11.1887925"><ele>305.0</ele><time>2026-04-18T13:53:24.202Z</time></trkpt><trkpt lat="43.6586693" lon="11.1889117"><ele>305.0</ele><time>2026-04-18T13:53:26.203Z</time></trkpt><trkpt lat="43.6587281" lon="11.1889851"><ele>304.6666666666667</ele><time>2026-04-18T13:53:27.203Z</time></trkpt><trkpt lat="43.6587899" lon="11.1890574"><ele>304.33333333333337</ele><time>2026-04-18T13:53:28.202Z</time></trkpt><trkpt lat="43.6588551" lon="11.1891228"><ele>304.0</ele><time>2026-04-18T13:53:29.202Z</time></trkpt><trkpt lat="43.6589217" lon="11.189194"><ele>303.6666666666667</ele><time>2026-04-18T13:53:30.203Z</time></trkpt><trkpt lat="43.6589898" lon="11.1892598"><ele>303.3333333333333</ele><time>2026-04-18T13:53:31.202Z</time></trkpt><trkpt lat="43.659061" lon="11.1893309"><ele>303.0</ele><time>2026-04-18T13:53:32.203Z</time></trkpt><trkpt lat="43.659127" lon="11.1894062"><ele>303.0</ele><time>2026-04-18T13:53:33.202Z</time></trkpt><trkpt lat="43.6591841" lon="11.189489"><ele>303.0</ele><time>2026-04-18T13:53:34.202Z</time></trkpt><trkpt lat="43.6592383" lon="11.1895669"><ele>303.0</ele><time>2026-04-18T13:53:35.203Z</time></trkpt><trkpt lat="43.6592877" lon="11.1896475"><ele>303.0</ele><time>2026-04-18T13:53:36.203Z</time></trkpt><trkpt lat="43.6593455" lon="11.1897329"><ele>303.0</ele><time>2026-04-18T13:53:37.202Z</time></trkpt><trkpt lat="43.6594147" lon="11.1898193"><ele>303.0</ele><time>2026-04-18T13:53:38.202Z</time></trkpt><trkpt lat="43.65948" lon="11.1899021"><ele>302.5</ele><time>2026-04-18T13:53:39.202Z</time></trkpt><trkpt lat="43.6595289" lon="11.1900014"><ele>302.0</ele><time>2026-04-18T13:53:40.203Z</time></trkpt><trkpt lat="43.6595765" lon="11.1900905"><ele>301.5</ele><time>2026-04-18T13:53:41.203Z</time></trkpt><trkpt lat="43.6596135" lon="11.1901798"><ele>301.0</ele><time>2026-04-18T13:53:42.203Z</time></trkpt><trkpt lat="43.6596617" lon="11.1902684"><ele>300.5</ele><time>2026-04-18T13:53:43.202Z</time></trkpt><trkpt lat="43.6597074" lon="11.1903698"><ele>300.0</ele><time>2026-04-18T13:53:44.202Z</time></trkpt><trkpt lat="43.659757" lon="11.1904778"><ele>300.0</ele><time>2026-04-18T13:53:45.203Z</time></trkpt><trkpt lat="43.659799" lon="11.1905921"><ele>300.0</ele><time>2026-04-18T13:53:46.203Z</time></trkpt><trkpt lat="43.6598381" lon="11.1907024"><ele>300.0</ele><time>2026-04-18T13:53:47.203Z</time></trkpt><trkpt lat="43.6598823" lon="11.1908123"><ele>300.0</ele><time>2026-04-18T13:53:48.202Z</time></trkpt><trkpt lat="43.6599321" lon="11.1909141"><ele>300.0</ele><time>2026-04-18T13:53:49.203Z</time></trkpt><trkpt lat="43.6599838" lon="11.1910121"><ele>300.0</ele><time>2026-04-18T13:53:50.202Z</time></trkpt><trkpt lat="43.6600216" lon="11.191109"><ele>300.8333333333333</ele><time>2026-04-18T13:53:51.203Z</time></trkpt><trkpt lat="43.6600644" lon="11.1911888"><ele>301.6666666666667</ele><time>2026-04-18T13:53:52.203Z</time></trkpt><trkpt lat="43.6601017" lon="11.1912682"><ele>302.5</ele><time>2026-04-18T13:53:53.203Z</time></trkpt><trkpt lat="43.6601024" lon="11.1914259"><ele>303.33333333333337</ele><time>2026-04-18T13:53:55.202Z</time></trkpt><trkpt lat="43.6600769" lon="11.1915083"><ele>304.1666666666667</ele><time>2026-04-18T13:53:56.203Z</time></trkpt><trkpt lat="43.6600473" lon="11.1916004"><ele>305.0</ele><time>2026-04-18T13:53:57.202Z</time></trkpt><trkpt lat="43.6600208" lon="11.191695"><ele>305.0</ele><time>2026-04-18T13:53:58.203Z</time></trkpt><trkpt lat="43.6599922" lon="11.1917885"><ele>305.0</ele><time>2026-04-18T13:53:59.202Z</time></trkpt><trkpt lat="43.6599686" lon="11.19188"><ele>305.0</ele><time>2026-04-18T13:54:00.202Z</time></trkpt><trkpt lat="43.6599407" lon="11.1919784"><ele>305.0</ele><time>2026-04-18T13:54:01.203Z</time></trkpt><trkpt lat="43.659914" lon="11.1920819"><ele>305.0</ele><time>2026-04-18T13:54:02.203Z</time></trkpt><trkpt lat="43.659883" lon="11.1921784"><ele>305.0</ele><time>2026-04-18T13:54:03.203Z</time></trkpt><trkpt lat="43.6598573" lon="11.192263"><ele>305.0</ele><time>2026-04-18T13:54:04.203Z</time></trkpt><trkpt lat="43.659818" lon="11.1923898"><ele>304.33333333333337</ele><time>2026-04-18T13:54:06.203Z</time></trkpt><trkpt lat="43.6597745" lon="11.1925075"><ele>303.6666666666667</ele><time>2026-04-18T13:54:08.203Z</time></trkpt><trkpt lat="43.6597402" lon="11.1926294"><ele>303.0</ele><time>2026-04-18T13:54:10.202Z</time></trkpt><trkpt lat="43.6597155" lon="11.1927239"><ele>302.3333333333333</ele><time>2026-04-18T13:54:12.203Z</time></trkpt><trkpt lat="43.6596856" lon="11.192811"><ele>301.66666666666663</ele><time>2026-04-18T13:54:23.203Z</time></trkpt><trkpt lat="43.6596438" lon="11.1929394"><ele>301.0</ele><time>2026-04-18T13:54:25.202Z</time></trkpt><trkpt lat="43.6596152" lon="11.193024"><ele>301.0</ele><time>2026-04-18T13:54:26.202Z</time></trkpt><trkpt lat="43.6595807" lon="11.1931157"><ele>301.0</ele><time>2026-04-18T13:54:27.203Z</time></trkpt><trkpt lat="43.6595509" lon="11.1932127"><ele>301.0</ele><time>2026-04-18T13:54:28.202Z</time></trkpt><trkpt lat="43.6595212" lon="11.1933166"><ele>301.0</ele><time>2026-04-18T13:54:29.203Z</time></trkpt><trkpt lat="43.6594915" lon="11.1934159"><ele>301.0</ele><time>2026-04-18T13:54:30.203Z</time></trkpt><trkpt lat="43.6594668" lon="11.1935049"><ele>301.0</ele><time>2026-04-18T13:54:31.203Z</time></trkpt><trkpt lat="43.6594383" lon="11.1936006"><ele>300.14285714285717</ele><time>2026-04-18T13:54:32.203Z</time></trkpt><trkpt lat="43.6594111" lon="11.1936935"><ele>299.2857142857143</ele><time>2026-04-18T13:54:33.203Z</time></trkpt><trkpt lat="43.659381" lon="11.1937896"><ele>298.42857142857144</ele><time>2026-04-18T13:54:34.203Z</time></trkpt><trkpt lat="43.6593502" lon="11.1938854"><ele>297.57142857142856</ele><time>2026-04-18T13:54:35.203Z</time></trkpt><trkpt lat="43.6593233" lon="11.1939787"><ele>296.7142857142857</ele><time>2026-04-18T13:54:36.203Z</time></trkpt><trkpt lat="43.6592945" lon="11.1940666"><ele>295.8571428571429</ele><time>2026-04-18T13:54:37.203Z</time></trkpt><trkpt lat="43.659269" lon="11.1941503"><ele>295.0</ele><time>2026-04-18T13:54:38.202Z</time></trkpt><trkpt lat="43.6592424" lon="11.1942346"><ele>295.0</ele><time>2026-04-18T13:54:39.203Z</time></trkpt><trkpt lat="43.659219" lon="11.1943895"><ele>295.0</ele><time>2026-04-18T13:54:41.203Z</time></trkpt><trkpt lat="43.659229" lon="11.1945628"><ele>295.0</ele><time>2026-04-18T13:54:43.203Z</time></trkpt><trkpt lat="43.6592412" lon="11.1946526"><ele>295.0</ele><time>2026-04-18T13:54:44.203Z</time></trkpt><trkpt lat="43.6592495" lon="11.1947512"><ele>295.0</ele><time>2026-04-18T13:54:45.203Z</time></trkpt><trkpt lat="43.6592528" lon="11.1948555"><ele>295.42857142857144</ele><time>2026-04-18T13:54:46.203Z</time></trkpt><trkpt lat="43.6592614" lon="11.1949577"><ele>295.8571428571429</ele><time>2026-04-18T13:54:47.203Z</time></trkpt><trkpt lat="43.6592805" lon="11.1950587"><ele>296.2857142857143</ele><time>2026-04-18T13:54:48.202Z</time></trkpt><trkpt lat="43.6593148" lon="11.1951545"><ele>296.7142857142857</ele><time>2026-04-18T13:54:49.203Z</time></trkpt><trkpt lat="43.6593557" lon="11.1952398"><ele>297.1428571428571</ele><time>2026-04-18T13:54:50.203Z</time></trkpt><trkpt lat="43.6593997" lon="11.1953301"><ele>297.57142857142856</ele><time>2026-04-18T13:54:51.203Z</time></trkpt><trkpt lat="43.6594431" lon="11.1954039"><ele>298.0</ele><time>2026-04-18T13:54:52.203Z</time></trkpt><trkpt lat="43.6594758" lon="11.1954793"><ele>298.0</ele><time>2026-04-18T13:54:53.202Z</time></trkpt><trkpt lat="43.6595305" lon="11.1955881"><ele>298.0</ele><time>2026-04-18T13:54:55.202Z</time></trkpt><trkpt lat="43.6596013" lon="11.1955783"><ele>298.0</ele><time>2026-04-18T13:54:58.203Z</time></trkpt><trkpt lat="43.6596582" lon="11.1956224"><ele>298.0</ele><time>2026-04-18T13:55:40.202Z</time></trkpt><trkpt lat="43.659593" lon="11.1955862"><ele>298.0</ele><time>2026-04-18T13:56:14.203Z</time></trkpt><trkpt lat="43.6595258" lon="11.1955371"><ele>298.0</ele><time>2026-04-18T13:56:19.203Z</time></trkpt><trkpt lat="43.6594902" lon="11.1954547"><ele>298.0</ele><time>2026-04-18T13:56:25.203Z</time></trkpt><trkpt lat="43.6594493" lon="11.1953673"><ele>298.0</ele><time>2026-04-18T13:56:31.203Z</time></trkpt><trkpt lat="43.6594241" lon="11.1952806"><ele>298.0</ele><time>2026-04-18T13:56:36.202Z</time></trkpt><trkpt lat="43.659389" lon="11.19518"><ele>298.0</ele><time>2026-04-18T13:56:42.202Z</time></trkpt><trkpt lat="43.6593499" lon="11.1950949"><ele>298.0</ele><time>2026-04-18T13:56:48.233Z</time></trkpt><trkpt lat="43.6592999" lon="11.1950334"><ele>298.0</ele><time>2026-04-18T13:56:53.203Z</time></trkpt><trkpt lat="43.6592437" lon="11.1949644"><ele>298.0</ele><time>2026-04-18T13:56:59.203Z</time></trkpt><trkpt lat="43.6591993" lon="11.1948929"><ele>298.0</ele><time>2026-04-18T13:57:05.203Z</time></trkpt><trkpt lat="43.6591429" lon="11.1948459"><ele>298.0</ele><time>2026-04-18T13:57:12.203Z</time></trkpt><trkpt lat="43.6591005" lon="11.1949261"><ele>298.0</ele><time>2026-04-18T13:57:19.203Z</time></trkpt><trkpt lat="43.6591227" lon="11.1950082"><ele>298.0</ele><time>2026-04-18T13:57:47.123Z</time></trkpt><trkpt lat="43.6591077" lon="11.1949235"><ele>298.0</ele><time>2026-04-18T13:58:09.202Z</time></trkpt><trkpt lat="43.6590335" lon="11.1949836"><ele>298.0</ele><time>2026-04-18T13:58:45.225Z</time></trkpt><trkpt lat="43.659093" lon="11.1950682"><ele>298.0</ele><time>2026-04-18T13:59:33.203Z</time></trkpt><trkpt lat="43.6591253" lon="11.1949807"><ele>298.0</ele><time>2026-04-18T14:00:11.203Z</time></trkpt><trkpt lat="43.6591024" lon="11.1948848"><ele>298.0</ele><time>2026-04-18T14:00:15.214Z</time></trkpt><trkpt lat="43.6590429" lon="11.1949186"><ele>298.0</ele><time>2026-04-18T14:00:21.202Z</time></trkpt><trkpt lat="43.6589631" lon="11.194912"><ele>298.0</ele><time>2026-04-18T14:05:00.203Z</time></trkpt><trkpt lat="43.6588954" lon="11.1949104"><ele>298.0</ele><time>2026-04-18T14:11:24.202Z</time></trkpt><trkpt lat="43.6588437" lon="11.1948597"><ele>298.0</ele><time>2026-04-18T14:11:35.203Z</time></trkpt><trkpt lat="43.6588364" lon="11.1947606"><ele>298.0</ele><time>2026-04-18T14:11:40.203Z</time></trkpt><trkpt lat="43.6587703" lon="11.1947598"><ele>298.0</ele><time>2026-04-18T14:11:46.203Z</time></trkpt><trkpt lat="43.6589326" lon="11.1949516"><ele>298.0</ele><time>2026-04-18T14:12:01.203Z</time></trkpt><trkpt lat="43.6589416" lon="11.1948585"><ele>298.0</ele><time>2026-04-18T14:13:13.203Z</time></trkpt><trkpt lat="43.6589226" lon="11.1949431"><ele>298.0</ele><time>2026-04-18T14:13:29.202Z</time></trkpt><trkpt lat="43.6588547" lon="11.1949559"><ele>298.0</ele><time>2026-04-18T14:13:35.203Z</time></trkpt><trkpt lat="43.6589889" lon="11.1949399"><ele>298.0</ele><time>2026-04-18T14:58:18.202Z</time></trkpt><trkpt lat="43.6589859" lon="11.1950332"><ele>298.0</ele><time>2026-04-18T15:02:06.203Z</time></trkpt><trkpt lat="43.6590166" lon="11.195145"><ele>298.0</ele><time>2026-04-18T15:02:45.202Z</time></trkpt><trkpt lat="43.6590166" lon="11.195145"><ele>298.0</ele><time>2026-04-18T15:02:45.202Z</time></trkpt><trkpt lat="43.6590166" lon="11.195145"><ele>298.0</ele><time>2026-04-18T15:02:45.202Z</time></trkpt><trkpt lat="43.6590166" lon="11.195145"><ele>298.0</ele><time>2026-04-18T15:02:45.202Z</time></trkpt><trkpt lat="43.6590166" lon="11.195145"><ele>298.0</ele><time>2026-04-18T15:02:45.202Z</time></trkpt></trkseg></trk></gpx>